<?xml version="1.0" encoding="UTF-8" standalone="no" ?>
<gpx xmlns="http://www.topografix.com/GPX/1/1" xmlns:xsi="http://www.w3.org/2001/XMLSchema-instance" xsi:schemaLocation="http://www.topografix.com/GPX/1/1 http://www.topografix.com/GPX/1/1/gpx.xsd" version="1.1" creator="VisuGPX - https://www.visugpx.com">
  <metadata>
    <name>voyage total </name>
  </metadata>
  <trk>
    <name><![CDATA[Jour 5 - Saint Gilles Croix de vie / Pornic]]></name>
    <trkseg>
      <trkpt lat="46.7239" lon="-1.91153">
        <ele>0.1</ele>
        <time>2020-06-04T07:36:01Z</time>
      </trkpt>
      <trkpt lat="46.72391" lon="-1.91161">
        <ele>1</ele>
        <time>2020-06-04T07:36:02Z</time>
      </trkpt>
      <trkpt lat="46.72391" lon="-1.91158">
        <ele>1</ele>
        <time>2020-06-04T07:36:03Z</time>
      </trkpt>
      <trkpt lat="46.72391" lon="-1.91157">
        <ele>1</ele>
        <time>2020-06-04T07:36:04Z</time>
      </trkpt>
      <trkpt lat="46.72391" lon="-1.91153">
        <ele>1</ele>
        <time>2020-06-04T07:36:05Z</time>
      </trkpt>
      <trkpt lat="46.7239" lon="-1.91151">
        <ele>1</ele>
        <time>2020-06-04T07:36:06Z</time>
      </trkpt>
      <trkpt lat="46.7239" lon="-1.91151">
        <ele>1</ele>
        <time>2020-06-04T07:36:07Z</time>
      </trkpt>
      <trkpt lat="46.7239" lon="-1.91151">
        <ele>1</ele>
        <time>2020-06-04T07:36:08Z</time>
      </trkpt>
      <trkpt lat="46.72391" lon="-1.91152">
        <ele>1</ele>
        <time>2020-06-04T07:36:09Z</time>
      </trkpt>
      <trkpt lat="46.72389" lon="-1.91154">
        <ele>1</ele>
        <time>2020-06-04T07:36:10Z</time>
      </trkpt>
      <trkpt lat="46.72389" lon="-1.91155">
        <ele>1</ele>
        <time>2020-06-04T07:36:11Z</time>
      </trkpt>
      <trkpt lat="46.72387" lon="-1.91157">
        <ele>1</ele>
        <time>2020-06-04T07:36:12Z</time>
      </trkpt>
      <trkpt lat="46.72384" lon="-1.9116">
        <ele>-0.1</ele>
        <time>2020-06-04T07:36:13Z</time>
      </trkpt>
      <trkpt lat="46.72382" lon="-1.91161">
        <ele>-0.1</ele>
        <time>2020-06-04T07:36:14Z</time>
      </trkpt>
      <trkpt lat="46.72379" lon="-1.91165">
        <ele>-0.1</ele>
        <time>2020-06-04T07:36:15Z</time>
      </trkpt>
      <trkpt lat="46.72377" lon="-1.9117">
        <ele>-0.1</ele>
        <time>2020-06-04T07:36:16Z</time>
      </trkpt>
      <trkpt lat="46.72374" lon="-1.91175">
        <ele>-0.1</ele>
        <time>2020-06-04T07:36:17Z</time>
      </trkpt>
      <trkpt lat="46.72373" lon="-1.91179">
        <ele>-0.2</ele>
        <time>2020-06-04T07:36:18Z</time>
      </trkpt>
      <trkpt lat="46.72371" lon="-1.91183">
        <ele>-0.2</ele>
        <time>2020-06-04T07:36:19Z</time>
      </trkpt>
      <trkpt lat="46.72369" lon="-1.91186">
        <ele>-0.2</ele>
        <time>2020-06-04T07:36:20Z</time>
      </trkpt>
      <trkpt lat="46.72367" lon="-1.9119">
        <ele>-0.2</ele>
        <time>2020-06-04T07:36:21Z</time>
      </trkpt>
      <trkpt lat="46.72366" lon="-1.91195">
        <ele>-0.2</ele>
        <time>2020-06-04T07:36:22Z</time>
      </trkpt>
      <trkpt lat="46.72364" lon="-1.91199">
        <ele>-0.2</ele>
        <time>2020-06-04T07:36:23Z</time>
      </trkpt>
      <trkpt lat="46.72362" lon="-1.91203">
        <ele>-0.2</ele>
        <time>2020-06-04T07:36:24Z</time>
      </trkpt>
      <trkpt lat="46.7236" lon="-1.91207">
        <ele>-0.1</ele>
        <time>2020-06-04T07:36:25Z</time>
      </trkpt>
      <trkpt lat="46.72359" lon="-1.91211">
        <ele>-0.1</ele>
        <time>2020-06-04T07:36:26Z</time>
      </trkpt>
      <trkpt lat="46.72356" lon="-1.91215">
        <ele>-0.1</ele>
        <time>2020-06-04T07:36:27Z</time>
      </trkpt>
      <trkpt lat="46.72356" lon="-1.91217">
        <ele>-0.1</ele>
        <time>2020-06-04T07:36:28Z</time>
      </trkpt>
      <trkpt lat="46.72353" lon="-1.91221">
        <ele>-0.1</ele>
        <time>2020-06-04T07:36:29Z</time>
      </trkpt>
      <trkpt lat="46.7235" lon="-1.91225">
        <ele>-0.1</ele>
        <time>2020-06-04T07:36:30Z</time>
      </trkpt>
      <trkpt lat="46.72349" lon="-1.91226">
        <ele>1</ele>
        <time>2020-06-04T07:36:31Z</time>
      </trkpt>
      <trkpt lat="46.72345" lon="-1.91227">
        <ele>1</ele>
        <time>2020-06-04T07:36:32Z</time>
      </trkpt>
      <trkpt lat="46.72343" lon="-1.91227">
        <ele>1</ele>
        <time>2020-06-04T07:36:33Z</time>
      </trkpt>
      <trkpt lat="46.7234" lon="-1.91225">
        <ele>1</ele>
        <time>2020-06-04T07:36:34Z</time>
      </trkpt>
      <trkpt lat="46.72337" lon="-1.91223">
        <ele>0.1</ele>
        <time>2020-06-04T07:36:35Z</time>
      </trkpt>
      <trkpt lat="46.72333" lon="-1.91221">
        <ele>0.1</ele>
        <time>2020-06-04T07:36:36Z</time>
      </trkpt>
      <trkpt lat="46.7233" lon="-1.91219">
        <ele>0.1</ele>
        <time>2020-06-04T07:36:37Z</time>
      </trkpt>
      <trkpt lat="46.72327" lon="-1.91217">
        <ele>0.2</ele>
        <time>2020-06-04T07:36:38Z</time>
      </trkpt>
      <trkpt lat="46.72324" lon="-1.91215">
        <ele>0.2</ele>
        <time>2020-06-04T07:36:39Z</time>
      </trkpt>
      <trkpt lat="46.72321" lon="-1.91213">
        <ele>0.2</ele>
        <time>2020-06-04T07:36:40Z</time>
      </trkpt>
      <trkpt lat="46.72319" lon="-1.9121">
        <ele>0.2</ele>
        <time>2020-06-04T07:36:41Z</time>
      </trkpt>
      <trkpt lat="46.72316" lon="-1.91208">
        <ele>0.3</ele>
        <time>2020-06-04T07:36:42Z</time>
      </trkpt>
      <trkpt lat="46.72313" lon="-1.91206">
        <ele>0.3</ele>
        <time>2020-06-04T07:36:43Z</time>
      </trkpt>
      <trkpt lat="46.7231" lon="-1.91203">
        <ele>0.3</ele>
        <time>2020-06-04T07:36:44Z</time>
      </trkpt>
      <trkpt lat="46.72307" lon="-1.91201">
        <ele>0.3</ele>
        <time>2020-06-04T07:36:45Z</time>
      </trkpt>
      <trkpt lat="46.72304" lon="-1.91198">
        <ele>0.3</ele>
        <time>2020-06-04T07:36:46Z</time>
      </trkpt>
      <trkpt lat="46.72302" lon="-1.91197">
        <ele>0.3</ele>
        <time>2020-06-04T07:36:47Z</time>
      </trkpt>
      <trkpt lat="46.723" lon="-1.91194">
        <ele>0.3</ele>
        <time>2020-06-04T07:36:48Z</time>
      </trkpt>
      <trkpt lat="46.72297" lon="-1.91192">
        <ele>0.4</ele>
        <time>2020-06-04T07:36:49Z</time>
      </trkpt>
      <trkpt lat="46.72295" lon="-1.91191">
        <ele>0.4</ele>
        <time>2020-06-04T07:36:50Z</time>
      </trkpt>
      <trkpt lat="46.72292" lon="-1.91188">
        <ele>0.4</ele>
        <time>2020-06-04T07:36:51Z</time>
      </trkpt>
      <trkpt lat="46.72289" lon="-1.91186">
        <ele>0.4</ele>
        <time>2020-06-04T07:36:52Z</time>
      </trkpt>
      <trkpt lat="46.72286" lon="-1.91182">
        <ele>0.4</ele>
        <time>2020-06-04T07:36:53Z</time>
      </trkpt>
      <trkpt lat="46.72284" lon="-1.91181">
        <ele>0.4</ele>
        <time>2020-06-04T07:36:54Z</time>
      </trkpt>
      <trkpt lat="46.72281" lon="-1.91179">
        <ele>0.5</ele>
        <time>2020-06-04T07:36:55Z</time>
      </trkpt>
      <trkpt lat="46.72278" lon="-1.91178">
        <ele>0.5</ele>
        <time>2020-06-04T07:36:56Z</time>
      </trkpt>
      <trkpt lat="46.72275" lon="-1.91175">
        <ele>0.5</ele>
        <time>2020-06-04T07:36:57Z</time>
      </trkpt>
      <trkpt lat="46.72272" lon="-1.91171">
        <ele>0.6</ele>
        <time>2020-06-04T07:36:58Z</time>
      </trkpt>
      <trkpt lat="46.72269" lon="-1.91168">
        <ele>0.6</ele>
        <time>2020-06-04T07:36:59Z</time>
      </trkpt>
      <trkpt lat="46.72266" lon="-1.91166">
        <ele>0.6</ele>
        <time>2020-06-04T07:37:00Z</time>
      </trkpt>
      <trkpt lat="46.72263" lon="-1.91162">
        <ele>0.7</ele>
        <time>2020-06-04T07:37:01Z</time>
      </trkpt>
      <trkpt lat="46.7226" lon="-1.9116">
        <ele>0.7</ele>
        <time>2020-06-04T07:37:02Z</time>
      </trkpt>
      <trkpt lat="46.72257" lon="-1.91157">
        <ele>0.7</ele>
        <time>2020-06-04T07:37:03Z</time>
      </trkpt>
      <trkpt lat="46.72254" lon="-1.91154">
        <ele>0.7</ele>
        <time>2020-06-04T07:37:04Z</time>
      </trkpt>
      <trkpt lat="46.72251" lon="-1.91151">
        <ele>0.7</ele>
        <time>2020-06-04T07:37:05Z</time>
      </trkpt>
      <trkpt lat="46.72247" lon="-1.91149">
        <ele>0.8</ele>
        <time>2020-06-04T07:37:06Z</time>
      </trkpt>
      <trkpt lat="46.72244" lon="-1.91146">
        <ele>0.8</ele>
        <time>2020-06-04T07:37:07Z</time>
      </trkpt>
      <trkpt lat="46.72241" lon="-1.91144">
        <ele>0.8</ele>
        <time>2020-06-04T07:37:08Z</time>
      </trkpt>
      <trkpt lat="46.72238" lon="-1.91141">
        <ele>0.8</ele>
        <time>2020-06-04T07:37:09Z</time>
      </trkpt>
      <trkpt lat="46.72236" lon="-1.91137">
        <ele>0.8</ele>
        <time>2020-06-04T07:37:10Z</time>
      </trkpt>
      <trkpt lat="46.72233" lon="-1.91135">
        <ele>0.8</ele>
        <time>2020-06-04T07:37:11Z</time>
      </trkpt>
      <trkpt lat="46.7223" lon="-1.91132">
        <ele>0.9</ele>
        <time>2020-06-04T07:37:12Z</time>
      </trkpt>
      <trkpt lat="46.72227" lon="-1.9113">
        <ele>0.9</ele>
        <time>2020-06-04T07:37:13Z</time>
      </trkpt>
      <trkpt lat="46.72224" lon="-1.91128">
        <ele>0.9</ele>
        <time>2020-06-04T07:37:14Z</time>
      </trkpt>
      <trkpt lat="46.7222" lon="-1.91125">
        <ele>1</ele>
        <time>2020-06-04T07:37:15Z</time>
      </trkpt>
      <trkpt lat="46.72217" lon="-1.91122">
        <ele>1</ele>
        <time>2020-06-04T07:37:16Z</time>
      </trkpt>
      <trkpt lat="46.72214" lon="-1.9112">
        <ele>1</ele>
        <time>2020-06-04T07:37:17Z</time>
      </trkpt>
      <trkpt lat="46.72212" lon="-1.91118">
        <ele>1</ele>
        <time>2020-06-04T07:37:18Z</time>
      </trkpt>
      <trkpt lat="46.72208" lon="-1.91115">
        <ele>1.1</ele>
        <time>2020-06-04T07:37:19Z</time>
      </trkpt>
      <trkpt lat="46.72206" lon="-1.91114">
        <ele>1.1</ele>
        <time>2020-06-04T07:37:20Z</time>
      </trkpt>
      <trkpt lat="46.72203" lon="-1.91111">
        <ele>1.1</ele>
        <time>2020-06-04T07:37:21Z</time>
      </trkpt>
      <trkpt lat="46.722" lon="-1.91107">
        <ele>1.2</ele>
        <time>2020-06-04T07:37:22Z</time>
      </trkpt>
      <trkpt lat="46.72197" lon="-1.91103">
        <ele>1.2</ele>
        <time>2020-06-04T07:37:23Z</time>
      </trkpt>
      <trkpt lat="46.72194" lon="-1.911">
        <ele>1.2</ele>
        <time>2020-06-04T07:37:24Z</time>
      </trkpt>
      <trkpt lat="46.72192" lon="-1.91098">
        <ele>1.3</ele>
        <time>2020-06-04T07:37:25Z</time>
      </trkpt>
      <trkpt lat="46.72189" lon="-1.91095">
        <ele>1.3</ele>
        <time>2020-06-04T07:37:26Z</time>
      </trkpt>
      <trkpt lat="46.72187" lon="-1.91092">
        <ele>1.3</ele>
        <time>2020-06-04T07:37:27Z</time>
      </trkpt>
      <trkpt lat="46.72184" lon="-1.9109">
        <ele>1.3</ele>
        <time>2020-06-04T07:37:28Z</time>
      </trkpt>
      <trkpt lat="46.72181" lon="-1.91087">
        <ele>1.4</ele>
        <time>2020-06-04T07:37:29Z</time>
      </trkpt>
      <trkpt lat="46.72178" lon="-1.91083">
        <ele>1.4</ele>
        <time>2020-06-04T07:37:30Z</time>
      </trkpt>
      <trkpt lat="46.72175" lon="-1.91079">
        <ele>1.4</ele>
        <time>2020-06-04T07:37:31Z</time>
      </trkpt>
      <trkpt lat="46.72172" lon="-1.91076">
        <ele>1.5</ele>
        <time>2020-06-04T07:37:32Z</time>
      </trkpt>
      <trkpt lat="46.72169" lon="-1.91073">
        <ele>1.5</ele>
        <time>2020-06-04T07:37:33Z</time>
      </trkpt>
      <trkpt lat="46.72166" lon="-1.91071">
        <ele>1.6</ele>
        <time>2020-06-04T07:37:34Z</time>
      </trkpt>
      <trkpt lat="46.72163" lon="-1.91068">
        <ele>1.6</ele>
        <time>2020-06-04T07:37:35Z</time>
      </trkpt>
      <trkpt lat="46.7216" lon="-1.91065">
        <ele>1.7</ele>
        <time>2020-06-04T07:37:36Z</time>
      </trkpt>
      <trkpt lat="46.72157" lon="-1.91062">
        <ele>1.7</ele>
        <time>2020-06-04T07:37:37Z</time>
      </trkpt>
      <trkpt lat="46.72154" lon="-1.91059">
        <ele>1.8</ele>
        <time>2020-06-04T07:37:38Z</time>
      </trkpt>
      <trkpt lat="46.72151" lon="-1.91057">
        <ele>1.8</ele>
        <time>2020-06-04T07:37:39Z</time>
      </trkpt>
      <trkpt lat="46.72148" lon="-1.91054">
        <ele>1.9</ele>
        <time>2020-06-04T07:37:40Z</time>
      </trkpt>
      <trkpt lat="46.72147" lon="-1.91053">
        <ele>1.9</ele>
        <time>2020-06-04T07:37:41Z</time>
      </trkpt>
      <trkpt lat="46.72144" lon="-1.91049">
        <ele>2</ele>
        <time>2020-06-04T07:37:42Z</time>
      </trkpt>
      <trkpt lat="46.72143" lon="-1.91048">
        <ele>2</ele>
        <time>2020-06-04T07:37:43Z</time>
      </trkpt>
      <trkpt lat="46.7214" lon="-1.91046">
        <ele>2</ele>
        <time>2020-06-04T07:37:44Z</time>
      </trkpt>
      <trkpt lat="46.72137" lon="-1.91043">
        <ele>2.1</ele>
        <time>2020-06-04T07:37:45Z</time>
      </trkpt>
      <trkpt lat="46.72135" lon="-1.9104">
        <ele>2.1</ele>
        <time>2020-06-04T07:37:46Z</time>
      </trkpt>
      <trkpt lat="46.72132" lon="-1.91038">
        <ele>2.1</ele>
        <time>2020-06-04T07:37:47Z</time>
      </trkpt>
      <trkpt lat="46.7213" lon="-1.91035">
        <ele>2.1</ele>
        <time>2020-06-04T07:37:48Z</time>
      </trkpt>
      <trkpt lat="46.72127" lon="-1.91033">
        <ele>2.2</ele>
        <time>2020-06-04T07:37:49Z</time>
      </trkpt>
      <trkpt lat="46.72125" lon="-1.91029">
        <ele>2.2</ele>
        <time>2020-06-04T07:37:50Z</time>
      </trkpt>
      <trkpt lat="46.72122" lon="-1.91024">
        <ele>2.2</ele>
        <time>2020-06-04T07:37:51Z</time>
      </trkpt>
      <trkpt lat="46.72121" lon="-1.91023">
        <ele>2.2</ele>
        <time>2020-06-04T07:37:52Z</time>
      </trkpt>
      <trkpt lat="46.72119" lon="-1.91018">
        <ele>2.2</ele>
        <time>2020-06-04T07:37:53Z</time>
      </trkpt>
      <trkpt lat="46.72117" lon="-1.91015">
        <ele>2.2</ele>
        <time>2020-06-04T07:37:54Z</time>
      </trkpt>
      <trkpt lat="46.72114" lon="-1.91011">
        <ele>2.3</ele>
        <time>2020-06-04T07:37:55Z</time>
      </trkpt>
      <trkpt lat="46.72112" lon="-1.91007">
        <ele>2.3</ele>
        <time>2020-06-04T07:37:56Z</time>
      </trkpt>
      <trkpt lat="46.7211" lon="-1.91003">
        <ele>2.3</ele>
        <time>2020-06-04T07:37:57Z</time>
      </trkpt>
      <trkpt lat="46.72108" lon="-1.90998">
        <ele>2.3</ele>
        <time>2020-06-04T07:37:58Z</time>
      </trkpt>
      <trkpt lat="46.72106" lon="-1.90995">
        <ele>2.4</ele>
        <time>2020-06-04T07:37:59Z</time>
      </trkpt>
      <trkpt lat="46.72104" lon="-1.9099">
        <ele>2.4</ele>
        <time>2020-06-04T07:38:00Z</time>
      </trkpt>
      <trkpt lat="46.72102" lon="-1.90986">
        <ele>2.5</ele>
        <time>2020-06-04T07:38:01Z</time>
      </trkpt>
      <trkpt lat="46.721" lon="-1.90982">
        <ele>2.5</ele>
        <time>2020-06-04T07:38:02Z</time>
      </trkpt>
      <trkpt lat="46.72097" lon="-1.90977">
        <ele>2.6</ele>
        <time>2020-06-04T07:38:03Z</time>
      </trkpt>
      <trkpt lat="46.72095" lon="-1.90974">
        <ele>2.7</ele>
        <time>2020-06-04T07:38:04Z</time>
      </trkpt>
      <trkpt lat="46.72093" lon="-1.90969">
        <ele>2.7</ele>
        <time>2020-06-04T07:38:05Z</time>
      </trkpt>
      <trkpt lat="46.7209" lon="-1.90965">
        <ele>2.8</ele>
        <time>2020-06-04T07:38:06Z</time>
      </trkpt>
      <trkpt lat="46.72088" lon="-1.90961">
        <ele>2.9</ele>
        <time>2020-06-04T07:38:07Z</time>
      </trkpt>
      <trkpt lat="46.72086" lon="-1.90957">
        <ele>3</ele>
        <time>2020-06-04T07:38:08Z</time>
      </trkpt>
      <trkpt lat="46.72084" lon="-1.90953">
        <ele>3.1</ele>
        <time>2020-06-04T07:38:09Z</time>
      </trkpt>
      <trkpt lat="46.72082" lon="-1.90949">
        <ele>3.2</ele>
        <time>2020-06-04T07:38:10Z</time>
      </trkpt>
      <trkpt lat="46.72079" lon="-1.90945">
        <ele>3.3</ele>
        <time>2020-06-04T07:38:11Z</time>
      </trkpt>
      <trkpt lat="46.72076" lon="-1.90941">
        <ele>3.4</ele>
        <time>2020-06-04T07:38:12Z</time>
      </trkpt>
      <trkpt lat="46.72074" lon="-1.90937">
        <ele>3.5</ele>
        <time>2020-06-04T07:38:13Z</time>
      </trkpt>
      <trkpt lat="46.72071" lon="-1.90933">
        <ele>3.6</ele>
        <time>2020-06-04T07:38:14Z</time>
      </trkpt>
      <trkpt lat="46.72069" lon="-1.9093">
        <ele>3.7</ele>
        <time>2020-06-04T07:38:15Z</time>
      </trkpt>
      <trkpt lat="46.72067" lon="-1.90926">
        <ele>3.8</ele>
        <time>2020-06-04T07:38:16Z</time>
      </trkpt>
      <trkpt lat="46.72065" lon="-1.90922">
        <ele>3.9</ele>
        <time>2020-06-04T07:38:17Z</time>
      </trkpt>
      <trkpt lat="46.72062" lon="-1.90919">
        <ele>4</ele>
        <time>2020-06-04T07:38:18Z</time>
      </trkpt>
      <trkpt lat="46.7206" lon="-1.90916">
        <ele>4.1</ele>
        <time>2020-06-04T07:38:19Z</time>
      </trkpt>
      <trkpt lat="46.72058" lon="-1.90911">
        <ele>4.2</ele>
        <time>2020-06-04T07:38:20Z</time>
      </trkpt>
      <trkpt lat="46.72055" lon="-1.90908">
        <ele>4.3</ele>
        <time>2020-06-04T07:38:21Z</time>
      </trkpt>
      <trkpt lat="46.72053" lon="-1.90903">
        <ele>4.4</ele>
        <time>2020-06-04T07:38:22Z</time>
      </trkpt>
      <trkpt lat="46.72052" lon="-1.90899">
        <ele>4.5</ele>
        <time>2020-06-04T07:38:23Z</time>
      </trkpt>
      <trkpt lat="46.72049" lon="-1.90894">
        <ele>4.7</ele>
        <time>2020-06-04T07:38:24Z</time>
      </trkpt>
      <trkpt lat="46.72048" lon="-1.90888">
        <ele>4.8</ele>
        <time>2020-06-04T07:38:25Z</time>
      </trkpt>
      <trkpt lat="46.72046" lon="-1.90883">
        <ele>4.9</ele>
        <time>2020-06-04T07:38:26Z</time>
      </trkpt>
      <trkpt lat="46.72044" lon="-1.9088">
        <ele>5</ele>
        <time>2020-06-04T07:38:27Z</time>
      </trkpt>
      <trkpt lat="46.72042" lon="-1.90875">
        <ele>5</ele>
        <time>2020-06-04T07:38:28Z</time>
      </trkpt>
      <trkpt lat="46.7204" lon="-1.90871">
        <ele>5.1</ele>
        <time>2020-06-04T07:38:29Z</time>
      </trkpt>
      <trkpt lat="46.72039" lon="-1.90866">
        <ele>5.2</ele>
        <time>2020-06-04T07:38:30Z</time>
      </trkpt>
      <trkpt lat="46.72037" lon="-1.90861">
        <ele>5.3</ele>
        <time>2020-06-04T07:38:31Z</time>
      </trkpt>
      <trkpt lat="46.72035" lon="-1.90858">
        <ele>5.3</ele>
        <time>2020-06-04T07:38:32Z</time>
      </trkpt>
      <trkpt lat="46.72034" lon="-1.90853">
        <ele>5.4</ele>
        <time>2020-06-04T07:38:33Z</time>
      </trkpt>
      <trkpt lat="46.72032" lon="-1.90847">
        <ele>5.4</ele>
        <time>2020-06-04T07:38:34Z</time>
      </trkpt>
      <trkpt lat="46.72029" lon="-1.90841">
        <ele>5.5</ele>
        <time>2020-06-04T07:38:35Z</time>
      </trkpt>
      <trkpt lat="46.72027" lon="-1.90836">
        <ele>5.5</ele>
        <time>2020-06-04T07:38:36Z</time>
      </trkpt>
      <trkpt lat="46.72026" lon="-1.9083">
        <ele>5.6</ele>
        <time>2020-06-04T07:38:37Z</time>
      </trkpt>
      <trkpt lat="46.72025" lon="-1.90825">
        <ele>5.6</ele>
        <time>2020-06-04T07:38:38Z</time>
      </trkpt>
      <trkpt lat="46.72023" lon="-1.9082">
        <ele>5.7</ele>
        <time>2020-06-04T07:38:39Z</time>
      </trkpt>
      <trkpt lat="46.72021" lon="-1.90815">
        <ele>5.7</ele>
        <time>2020-06-04T07:38:40Z</time>
      </trkpt>
      <trkpt lat="46.72019" lon="-1.9081">
        <ele>5.8</ele>
        <time>2020-06-04T07:38:41Z</time>
      </trkpt>
      <trkpt lat="46.72017" lon="-1.90805">
        <ele>5.8</ele>
        <time>2020-06-04T07:38:42Z</time>
      </trkpt>
      <trkpt lat="46.72014" lon="-1.908">
        <ele>5.8</ele>
        <time>2020-06-04T07:38:43Z</time>
      </trkpt>
      <trkpt lat="46.72013" lon="-1.90795">
        <ele>5.9</ele>
        <time>2020-06-04T07:38:44Z</time>
      </trkpt>
      <trkpt lat="46.7201" lon="-1.9079">
        <ele>5.9</ele>
        <time>2020-06-04T07:38:45Z</time>
      </trkpt>
      <trkpt lat="46.72008" lon="-1.90785">
        <ele>6</ele>
        <time>2020-06-04T07:38:46Z</time>
      </trkpt>
      <trkpt lat="46.72006" lon="-1.9078">
        <ele>6</ele>
        <time>2020-06-04T07:38:47Z</time>
      </trkpt>
      <trkpt lat="46.72004" lon="-1.90775">
        <ele>6</ele>
        <time>2020-06-04T07:38:48Z</time>
      </trkpt>
      <trkpt lat="46.72002" lon="-1.9077">
        <ele>6.1</ele>
        <time>2020-06-04T07:38:49Z</time>
      </trkpt>
      <trkpt lat="46.72" lon="-1.90766">
        <ele>6.1</ele>
        <time>2020-06-04T07:38:50Z</time>
      </trkpt>
      <trkpt lat="46.71997" lon="-1.90762">
        <ele>6.1</ele>
        <time>2020-06-04T07:38:51Z</time>
      </trkpt>
      <trkpt lat="46.71995" lon="-1.90757">
        <ele>6.2</ele>
        <time>2020-06-04T07:38:52Z</time>
      </trkpt>
      <trkpt lat="46.71993" lon="-1.90753">
        <ele>6.2</ele>
        <time>2020-06-04T07:38:53Z</time>
      </trkpt>
      <trkpt lat="46.71991" lon="-1.9075">
        <ele>6.2</ele>
        <time>2020-06-04T07:38:54Z</time>
      </trkpt>
      <trkpt lat="46.7199" lon="-1.90745">
        <ele>6.3</ele>
        <time>2020-06-04T07:38:55Z</time>
      </trkpt>
      <trkpt lat="46.71988" lon="-1.90741">
        <ele>6.3</ele>
        <time>2020-06-04T07:38:56Z</time>
      </trkpt>
      <trkpt lat="46.71986" lon="-1.90736">
        <ele>6.3</ele>
        <time>2020-06-04T07:38:57Z</time>
      </trkpt>
      <trkpt lat="46.71984" lon="-1.9073">
        <ele>6.4</ele>
        <time>2020-06-04T07:38:58Z</time>
      </trkpt>
      <trkpt lat="46.71982" lon="-1.90726">
        <ele>6.4</ele>
        <time>2020-06-04T07:38:59Z</time>
      </trkpt>
      <trkpt lat="46.7198" lon="-1.90722">
        <ele>6.4</ele>
        <time>2020-06-04T07:39:00Z</time>
      </trkpt>
      <trkpt lat="46.71978" lon="-1.90718">
        <ele>6.5</ele>
        <time>2020-06-04T07:39:01Z</time>
      </trkpt>
      <trkpt lat="46.71976" lon="-1.90714">
        <ele>6.5</ele>
        <time>2020-06-04T07:39:02Z</time>
      </trkpt>
      <trkpt lat="46.71974" lon="-1.9071">
        <ele>6.5</ele>
        <time>2020-06-04T07:39:03Z</time>
      </trkpt>
      <trkpt lat="46.71972" lon="-1.90706">
        <ele>6.6</ele>
        <time>2020-06-04T07:39:04Z</time>
      </trkpt>
      <trkpt lat="46.71971" lon="-1.90703">
        <ele>6.6</ele>
        <time>2020-06-04T07:39:05Z</time>
      </trkpt>
      <trkpt lat="46.71969" lon="-1.90698">
        <ele>6.6</ele>
        <time>2020-06-04T07:39:06Z</time>
      </trkpt>
      <trkpt lat="46.71967" lon="-1.90694">
        <ele>6.7</ele>
        <time>2020-06-04T07:39:07Z</time>
      </trkpt>
      <trkpt lat="46.71966" lon="-1.9069">
        <ele>6.7</ele>
        <time>2020-06-04T07:39:08Z</time>
      </trkpt>
      <trkpt lat="46.71964" lon="-1.90687">
        <ele>6.7</ele>
        <time>2020-06-04T07:39:09Z</time>
      </trkpt>
      <trkpt lat="46.71961" lon="-1.90683">
        <ele>6.7</ele>
        <time>2020-06-04T07:39:10Z</time>
      </trkpt>
      <trkpt lat="46.71959" lon="-1.90679">
        <ele>6.8</ele>
        <time>2020-06-04T07:39:11Z</time>
      </trkpt>
      <trkpt lat="46.71957" lon="-1.90673">
        <ele>6.8</ele>
        <time>2020-06-04T07:39:12Z</time>
      </trkpt>
      <trkpt lat="46.71955" lon="-1.90667">
        <ele>6.8</ele>
        <time>2020-06-04T07:39:13Z</time>
      </trkpt>
      <trkpt lat="46.71953" lon="-1.90662">
        <ele>6.8</ele>
        <time>2020-06-04T07:39:14Z</time>
      </trkpt>
      <trkpt lat="46.71951" lon="-1.90656">
        <ele>6.8</ele>
        <time>2020-06-04T07:39:15Z</time>
      </trkpt>
      <trkpt lat="46.71949" lon="-1.90652">
        <ele>6.8</ele>
        <time>2020-06-04T07:39:16Z</time>
      </trkpt>
      <trkpt lat="46.71947" lon="-1.90647">
        <ele>6.8</ele>
        <time>2020-06-04T07:39:17Z</time>
      </trkpt>
      <trkpt lat="46.71945" lon="-1.90643">
        <ele>6.8</ele>
        <time>2020-06-04T07:39:18Z</time>
      </trkpt>
      <trkpt lat="46.71943" lon="-1.90639">
        <ele>6.8</ele>
        <time>2020-06-04T07:39:19Z</time>
      </trkpt>
      <trkpt lat="46.71942" lon="-1.90634">
        <ele>6.8</ele>
        <time>2020-06-04T07:39:20Z</time>
      </trkpt>
      <trkpt lat="46.7194" lon="-1.9063">
        <ele>6.8</ele>
        <time>2020-06-04T07:39:21Z</time>
      </trkpt>
      <trkpt lat="46.71938" lon="-1.90625">
        <ele>6.8</ele>
        <time>2020-06-04T07:39:22Z</time>
      </trkpt>
      <trkpt lat="46.71938" lon="-1.90623">
        <ele>6.8</ele>
        <time>2020-06-04T07:39:23Z</time>
      </trkpt>
      <trkpt lat="46.71936" lon="-1.90619">
        <ele>6.8</ele>
        <time>2020-06-04T07:39:24Z</time>
      </trkpt>
      <trkpt lat="46.71935" lon="-1.90617">
        <ele>6.8</ele>
        <time>2020-06-04T07:39:25Z</time>
      </trkpt>
      <trkpt lat="46.71933" lon="-1.90613">
        <ele>6.8</ele>
        <time>2020-06-04T07:39:26Z</time>
      </trkpt>
      <trkpt lat="46.71931" lon="-1.90608">
        <ele>6.8</ele>
        <time>2020-06-04T07:39:27Z</time>
      </trkpt>
      <trkpt lat="46.71929" lon="-1.90604">
        <ele>6.8</ele>
        <time>2020-06-04T07:39:28Z</time>
      </trkpt>
      <trkpt lat="46.71927" lon="-1.906">
        <ele>6.8</ele>
        <time>2020-06-04T07:39:29Z</time>
      </trkpt>
      <trkpt lat="46.71925" lon="-1.90596">
        <ele>6.8</ele>
        <time>2020-06-04T07:39:30Z</time>
      </trkpt>
      <trkpt lat="46.71922" lon="-1.90593">
        <ele>6.7</ele>
        <time>2020-06-04T07:39:31Z</time>
      </trkpt>
      <trkpt lat="46.71918" lon="-1.9059">
        <ele>6.7</ele>
        <time>2020-06-04T07:39:32Z</time>
      </trkpt>
      <trkpt lat="46.71915" lon="-1.90585">
        <ele>6.7</ele>
        <time>2020-06-04T07:39:33Z</time>
      </trkpt>
      <trkpt lat="46.71913" lon="-1.90581">
        <ele>6.7</ele>
        <time>2020-06-04T07:39:34Z</time>
      </trkpt>
      <trkpt lat="46.71911" lon="-1.90577">
        <ele>6.7</ele>
        <time>2020-06-04T07:39:35Z</time>
      </trkpt>
      <trkpt lat="46.7191" lon="-1.90573">
        <ele>6.7</ele>
        <time>2020-06-04T07:39:36Z</time>
      </trkpt>
      <trkpt lat="46.71909" lon="-1.90569">
        <ele>6.6</ele>
        <time>2020-06-04T07:39:37Z</time>
      </trkpt>
      <trkpt lat="46.71908" lon="-1.90567">
        <ele>6.6</ele>
        <time>2020-06-04T07:39:38Z</time>
      </trkpt>
      <trkpt lat="46.71905" lon="-1.90564">
        <ele>6.6</ele>
        <time>2020-06-04T07:39:39Z</time>
      </trkpt>
      <trkpt lat="46.71904" lon="-1.90563">
        <ele>6.6</ele>
        <time>2020-06-04T07:39:40Z</time>
      </trkpt>
      <trkpt lat="46.71902" lon="-1.9056">
        <ele>6.6</ele>
        <time>2020-06-04T07:39:41Z</time>
      </trkpt>
      <trkpt lat="46.719" lon="-1.90557">
        <ele>6.5</ele>
        <time>2020-06-04T07:39:42Z</time>
      </trkpt>
      <trkpt lat="46.71897" lon="-1.90553">
        <ele>6.5</ele>
        <time>2020-06-04T07:39:43Z</time>
      </trkpt>
      <trkpt lat="46.71896" lon="-1.90552">
        <ele>6.5</ele>
        <time>2020-06-04T07:39:44Z</time>
      </trkpt>
      <trkpt lat="46.71893" lon="-1.90549">
        <ele>6.4</ele>
        <time>2020-06-04T07:39:45Z</time>
      </trkpt>
      <trkpt lat="46.71892" lon="-1.90547">
        <ele>6.4</ele>
        <time>2020-06-04T07:39:46Z</time>
      </trkpt>
      <trkpt lat="46.71891" lon="-1.90543">
        <ele>6.4</ele>
        <time>2020-06-04T07:39:47Z</time>
      </trkpt>
      <trkpt lat="46.7189" lon="-1.90541">
        <ele>6.3</ele>
        <time>2020-06-04T07:39:48Z</time>
      </trkpt>
      <trkpt lat="46.71889" lon="-1.90537">
        <ele>6.3</ele>
        <time>2020-06-04T07:39:49Z</time>
      </trkpt>
      <trkpt lat="46.71887" lon="-1.90534">
        <ele>6.3</ele>
        <time>2020-06-04T07:39:50Z</time>
      </trkpt>
      <trkpt lat="46.71885" lon="-1.9053">
        <ele>6.2</ele>
        <time>2020-06-04T07:39:51Z</time>
      </trkpt>
      <trkpt lat="46.71881" lon="-1.90524">
        <ele>6.1</ele>
        <time>2020-06-04T07:39:52Z</time>
      </trkpt>
      <trkpt lat="46.71879" lon="-1.90522">
        <ele>6.1</ele>
        <time>2020-06-04T07:39:53Z</time>
      </trkpt>
      <trkpt lat="46.71876" lon="-1.90516">
        <ele>6</ele>
        <time>2020-06-04T07:39:54Z</time>
      </trkpt>
      <trkpt lat="46.71873" lon="-1.90509">
        <ele>5.9</ele>
        <time>2020-06-04T07:39:55Z</time>
      </trkpt>
      <trkpt lat="46.71871" lon="-1.90503">
        <ele>5.8</ele>
        <time>2020-06-04T07:39:56Z</time>
      </trkpt>
      <trkpt lat="46.71868" lon="-1.90497">
        <ele>5.7</ele>
        <time>2020-06-04T07:39:57Z</time>
      </trkpt>
      <trkpt lat="46.71865" lon="-1.90492">
        <ele>5.6</ele>
        <time>2020-06-04T07:39:58Z</time>
      </trkpt>
      <trkpt lat="46.71864" lon="-1.90488">
        <ele>5.5</ele>
        <time>2020-06-04T07:39:59Z</time>
      </trkpt>
      <trkpt lat="46.71862" lon="-1.90484">
        <ele>5.5</ele>
        <time>2020-06-04T07:40:00Z</time>
      </trkpt>
      <trkpt lat="46.7186" lon="-1.90481">
        <ele>5.4</ele>
        <time>2020-06-04T07:40:01Z</time>
      </trkpt>
      <trkpt lat="46.71858" lon="-1.90477">
        <ele>5.4</ele>
        <time>2020-06-04T07:40:02Z</time>
      </trkpt>
      <trkpt lat="46.71855" lon="-1.90474">
        <ele>5.3</ele>
        <time>2020-06-04T07:40:03Z</time>
      </trkpt>
      <trkpt lat="46.71852" lon="-1.90471">
        <ele>5.3</ele>
        <time>2020-06-04T07:40:04Z</time>
      </trkpt>
      <trkpt lat="46.71849" lon="-1.90469">
        <ele>5.2</ele>
        <time>2020-06-04T07:40:05Z</time>
      </trkpt>
      <trkpt lat="46.71848" lon="-1.90465">
        <ele>5.2</ele>
        <time>2020-06-04T07:40:06Z</time>
      </trkpt>
      <trkpt lat="46.71846" lon="-1.90461">
        <ele>5.2</ele>
        <time>2020-06-04T07:40:07Z</time>
      </trkpt>
      <trkpt lat="46.71845" lon="-1.9046">
        <ele>5.2</ele>
        <time>2020-06-04T07:40:08Z</time>
      </trkpt>
      <trkpt lat="46.71844" lon="-1.90459">
        <ele>5.1</ele>
        <time>2020-06-04T07:40:09Z</time>
      </trkpt>
      <trkpt lat="46.71843" lon="-1.90459">
        <ele>5.1</ele>
        <time>2020-06-04T07:40:10Z</time>
      </trkpt>
      <trkpt lat="46.71842" lon="-1.9046">
        <ele>5.1</ele>
        <time>2020-06-04T07:40:11Z</time>
      </trkpt>
      <trkpt lat="46.71842" lon="-1.9046">
        <ele>5.1</ele>
        <time>2020-06-04T07:40:12Z</time>
      </trkpt>
      <trkpt lat="46.71842" lon="-1.90459">
        <ele>5.1</ele>
        <time>2020-06-04T07:40:13Z</time>
      </trkpt>
      <trkpt lat="46.71842" lon="-1.90459">
        <ele>5.1</ele>
        <time>2020-06-04T07:40:14Z</time>
      </trkpt>
      <trkpt lat="46.71842" lon="-1.90458">
        <ele>5.1</ele>
        <time>2020-06-04T07:40:15Z</time>
      </trkpt>
      <trkpt lat="46.71842" lon="-1.90458">
        <ele>5.1</ele>
        <time>2020-06-04T07:40:16Z</time>
      </trkpt>
      <trkpt lat="46.71842" lon="-1.90457">
        <ele>5.1</ele>
        <time>2020-06-04T07:40:17Z</time>
      </trkpt>
      <trkpt lat="46.71842" lon="-1.90456">
        <ele>5.1</ele>
        <time>2020-06-04T07:40:18Z</time>
      </trkpt>
      <trkpt lat="46.71842" lon="-1.90456">
        <ele>5.1</ele>
        <time>2020-06-04T07:40:19Z</time>
      </trkpt>
      <trkpt lat="46.71842" lon="-1.90455">
        <ele>5.1</ele>
        <time>2020-06-04T07:40:20Z</time>
      </trkpt>
      <trkpt lat="46.71842" lon="-1.90455">
        <ele>5.1</ele>
        <time>2020-06-04T07:40:21Z</time>
      </trkpt>
      <trkpt lat="46.71842" lon="-1.90454">
        <ele>5.1</ele>
        <time>2020-06-04T07:40:22Z</time>
      </trkpt>
      <trkpt lat="46.71842" lon="-1.90454">
        <ele>5.1</ele>
        <time>2020-06-04T07:40:23Z</time>
      </trkpt>
      <trkpt lat="46.71842" lon="-1.90447">
        <ele>5.1</ele>
        <time>2020-06-04T07:40:24Z</time>
      </trkpt>
      <trkpt lat="46.71843" lon="-1.90442">
        <ele>5</ele>
        <time>2020-06-04T07:40:25Z</time>
      </trkpt>
      <trkpt lat="46.71844" lon="-1.90435">
        <ele>5</ele>
        <time>2020-06-04T07:40:26Z</time>
      </trkpt>
      <trkpt lat="46.71846" lon="-1.90429">
        <ele>5</ele>
        <time>2020-06-04T07:40:27Z</time>
      </trkpt>
      <trkpt lat="46.71846" lon="-1.90422">
        <ele>5</ele>
        <time>2020-06-04T07:40:28Z</time>
      </trkpt>
      <trkpt lat="46.71848" lon="-1.90415">
        <ele>4.9</ele>
        <time>2020-06-04T07:40:29Z</time>
      </trkpt>
      <trkpt lat="46.71848" lon="-1.90407">
        <ele>5</ele>
        <time>2020-06-04T07:40:30Z</time>
      </trkpt>
      <trkpt lat="46.71849" lon="-1.904">
        <ele>5</ele>
        <time>2020-06-04T07:40:31Z</time>
      </trkpt>
      <trkpt lat="46.71849" lon="-1.90394">
        <ele>5</ele>
        <time>2020-06-04T07:40:32Z</time>
      </trkpt>
      <trkpt lat="46.7185" lon="-1.90387">
        <ele>5.1</ele>
        <time>2020-06-04T07:40:33Z</time>
      </trkpt>
      <trkpt lat="46.71851" lon="-1.9038">
        <ele>5.1</ele>
        <time>2020-06-04T07:40:34Z</time>
      </trkpt>
      <trkpt lat="46.71851" lon="-1.90373">
        <ele>5.2</ele>
        <time>2020-06-04T07:40:35Z</time>
      </trkpt>
      <trkpt lat="46.71849" lon="-1.90369">
        <ele>5.2</ele>
        <time>2020-06-04T07:40:36Z</time>
      </trkpt>
      <trkpt lat="46.71847" lon="-1.90365">
        <ele>5.2</ele>
        <time>2020-06-04T07:40:37Z</time>
      </trkpt>
      <trkpt lat="46.71844" lon="-1.90362">
        <ele>5.3</ele>
        <time>2020-06-04T07:40:38Z</time>
      </trkpt>
      <trkpt lat="46.71842" lon="-1.90357">
        <ele>5.3</ele>
        <time>2020-06-04T07:40:39Z</time>
      </trkpt>
      <trkpt lat="46.71841" lon="-1.90356">
        <ele>5.3</ele>
        <time>2020-06-04T07:40:40Z</time>
      </trkpt>
      <trkpt lat="46.71841" lon="-1.90354">
        <ele>5.3</ele>
        <time>2020-06-04T07:40:41Z</time>
      </trkpt>
      <trkpt lat="46.71841" lon="-1.90354">
        <ele>5.3</ele>
        <time>2020-06-04T07:40:42Z</time>
      </trkpt>
      <trkpt lat="46.71842" lon="-1.90355">
        <ele>5.3</ele>
        <time>2020-06-04T07:40:43Z</time>
      </trkpt>
      <trkpt lat="46.71842" lon="-1.90355">
        <ele>5.3</ele>
        <time>2020-06-04T07:40:44Z</time>
      </trkpt>
      <trkpt lat="46.71842" lon="-1.90355">
        <ele>5.3</ele>
        <time>2020-06-04T07:40:45Z</time>
      </trkpt>
      <trkpt lat="46.71842" lon="-1.90355">
        <ele>5.3</ele>
        <time>2020-06-04T07:40:46Z</time>
      </trkpt>
      <trkpt lat="46.71842" lon="-1.90355">
        <ele>5.3</ele>
        <time>2020-06-04T07:40:47Z</time>
      </trkpt>
      <trkpt lat="46.71842" lon="-1.90355">
        <ele>5.3</ele>
        <time>2020-06-04T07:40:48Z</time>
      </trkpt>
      <trkpt lat="46.71842" lon="-1.90355">
        <ele>5.3</ele>
        <time>2020-06-04T07:40:49Z</time>
      </trkpt>
      <trkpt lat="46.71842" lon="-1.90355">
        <ele>5.3</ele>
        <time>2020-06-04T07:40:50Z</time>
      </trkpt>
      <trkpt lat="46.71842" lon="-1.90355">
        <ele>5.3</ele>
        <time>2020-06-04T07:40:51Z</time>
      </trkpt>
      <trkpt lat="46.71843" lon="-1.90349">
        <ele>5.3</ele>
        <time>2020-06-04T07:41:03Z</time>
      </trkpt>
      <trkpt lat="46.71844" lon="-1.90346">
        <ele>5.4</ele>
        <time>2020-06-04T07:41:04Z</time>
      </trkpt>
      <trkpt lat="46.71845" lon="-1.90343">
        <ele>5.4</ele>
        <time>2020-06-04T07:41:05Z</time>
      </trkpt>
      <trkpt lat="46.71847" lon="-1.90339">
        <ele>5.5</ele>
        <time>2020-06-04T07:41:06Z</time>
      </trkpt>
      <trkpt lat="46.71851" lon="-1.90334">
        <ele>5.5</ele>
        <time>2020-06-04T07:41:07Z</time>
      </trkpt>
      <trkpt lat="46.71854" lon="-1.9033">
        <ele>5.6</ele>
        <time>2020-06-04T07:41:08Z</time>
      </trkpt>
      <trkpt lat="46.71857" lon="-1.90326">
        <ele>5.6</ele>
        <time>2020-06-04T07:41:09Z</time>
      </trkpt>
      <trkpt lat="46.71859" lon="-1.90322">
        <ele>5.6</ele>
        <time>2020-06-04T07:41:10Z</time>
      </trkpt>
      <trkpt lat="46.71862" lon="-1.90318">
        <ele>5.7</ele>
        <time>2020-06-04T07:41:11Z</time>
      </trkpt>
      <trkpt lat="46.71865" lon="-1.90314">
        <ele>5.7</ele>
        <time>2020-06-04T07:41:12Z</time>
      </trkpt>
      <trkpt lat="46.71868" lon="-1.9031">
        <ele>5.8</ele>
        <time>2020-06-04T07:41:13Z</time>
      </trkpt>
      <trkpt lat="46.7187" lon="-1.90306">
        <ele>5.8</ele>
        <time>2020-06-04T07:41:14Z</time>
      </trkpt>
      <trkpt lat="46.71872" lon="-1.90301">
        <ele>5.9</ele>
        <time>2020-06-04T07:41:15Z</time>
      </trkpt>
      <trkpt lat="46.71872" lon="-1.90296">
        <ele>5.9</ele>
        <time>2020-06-04T07:41:16Z</time>
      </trkpt>
      <trkpt lat="46.71874" lon="-1.90291">
        <ele>6</ele>
        <time>2020-06-04T07:41:17Z</time>
      </trkpt>
      <trkpt lat="46.71875" lon="-1.90286">
        <ele>6</ele>
        <time>2020-06-04T07:41:18Z</time>
      </trkpt>
      <trkpt lat="46.71876" lon="-1.9028">
        <ele>6</ele>
        <time>2020-06-04T07:41:19Z</time>
      </trkpt>
      <trkpt lat="46.71878" lon="-1.90274">
        <ele>6.1</ele>
        <time>2020-06-04T07:41:20Z</time>
      </trkpt>
      <trkpt lat="46.71879" lon="-1.9027">
        <ele>6.1</ele>
        <time>2020-06-04T07:41:21Z</time>
      </trkpt>
      <trkpt lat="46.7188" lon="-1.90266">
        <ele>6.2</ele>
        <time>2020-06-04T07:41:22Z</time>
      </trkpt>
      <trkpt lat="46.71881" lon="-1.90262">
        <ele>6.2</ele>
        <time>2020-06-04T07:41:23Z</time>
      </trkpt>
      <trkpt lat="46.71883" lon="-1.90259">
        <ele>6.2</ele>
        <time>2020-06-04T07:41:24Z</time>
      </trkpt>
      <trkpt lat="46.71887" lon="-1.90257">
        <ele>6.3</ele>
        <time>2020-06-04T07:41:25Z</time>
      </trkpt>
      <trkpt lat="46.71889" lon="-1.90256">
        <ele>6.2</ele>
        <time>2020-06-04T07:41:26Z</time>
      </trkpt>
      <trkpt lat="46.71892" lon="-1.90255">
        <ele>6.2</ele>
        <time>2020-06-04T07:41:27Z</time>
      </trkpt>
      <trkpt lat="46.71895" lon="-1.90254">
        <ele>6.2</ele>
        <time>2020-06-04T07:41:28Z</time>
      </trkpt>
      <trkpt lat="46.71899" lon="-1.90254">
        <ele>6.2</ele>
        <time>2020-06-04T07:41:29Z</time>
      </trkpt>
      <trkpt lat="46.719" lon="-1.90254">
        <ele>6.2</ele>
        <time>2020-06-04T07:41:30Z</time>
      </trkpt>
      <trkpt lat="46.71904" lon="-1.90252">
        <ele>6.2</ele>
        <time>2020-06-04T07:41:31Z</time>
      </trkpt>
      <trkpt lat="46.71905" lon="-1.90251">
        <ele>6.2</ele>
        <time>2020-06-04T07:41:32Z</time>
      </trkpt>
      <trkpt lat="46.71909" lon="-1.9025">
        <ele>6.2</ele>
        <time>2020-06-04T07:41:33Z</time>
      </trkpt>
      <trkpt lat="46.71911" lon="-1.90249">
        <ele>6.2</ele>
        <time>2020-06-04T07:41:34Z</time>
      </trkpt>
      <trkpt lat="46.71914" lon="-1.90247">
        <ele>6.2</ele>
        <time>2020-06-04T07:41:35Z</time>
      </trkpt>
      <trkpt lat="46.71918" lon="-1.90246">
        <ele>6.1</ele>
        <time>2020-06-04T07:41:36Z</time>
      </trkpt>
      <trkpt lat="46.71921" lon="-1.90244">
        <ele>6.1</ele>
        <time>2020-06-04T07:41:37Z</time>
      </trkpt>
      <trkpt lat="46.71924" lon="-1.90243">
        <ele>6.1</ele>
        <time>2020-06-04T07:41:38Z</time>
      </trkpt>
      <trkpt lat="46.71928" lon="-1.90242">
        <ele>6.1</ele>
        <time>2020-06-04T07:41:39Z</time>
      </trkpt>
      <trkpt lat="46.71931" lon="-1.9024">
        <ele>6</ele>
        <time>2020-06-04T07:41:40Z</time>
      </trkpt>
      <trkpt lat="46.71934" lon="-1.90238">
        <ele>6</ele>
        <time>2020-06-04T07:41:41Z</time>
      </trkpt>
      <trkpt lat="46.71936" lon="-1.90236">
        <ele>6</ele>
        <time>2020-06-04T07:41:42Z</time>
      </trkpt>
      <trkpt lat="46.7194" lon="-1.90233">
        <ele>5.9</ele>
        <time>2020-06-04T07:41:43Z</time>
      </trkpt>
      <trkpt lat="46.71941" lon="-1.90232">
        <ele>5.9</ele>
        <time>2020-06-04T07:41:44Z</time>
      </trkpt>
      <trkpt lat="46.71944" lon="-1.90228">
        <ele>5.9</ele>
        <time>2020-06-04T07:41:45Z</time>
      </trkpt>
      <trkpt lat="46.71945" lon="-1.90227">
        <ele>5.9</ele>
        <time>2020-06-04T07:41:46Z</time>
      </trkpt>
      <trkpt lat="46.71947" lon="-1.90224">
        <ele>5.9</ele>
        <time>2020-06-04T07:41:47Z</time>
      </trkpt>
      <trkpt lat="46.71949" lon="-1.90221">
        <ele>5.8</ele>
        <time>2020-06-04T07:41:48Z</time>
      </trkpt>
      <trkpt lat="46.7195" lon="-1.90217">
        <ele>5.8</ele>
        <time>2020-06-04T07:41:49Z</time>
      </trkpt>
      <trkpt lat="46.71952" lon="-1.90212">
        <ele>5.8</ele>
        <time>2020-06-04T07:41:50Z</time>
      </trkpt>
      <trkpt lat="46.71953" lon="-1.90206">
        <ele>5.8</ele>
        <time>2020-06-04T07:41:51Z</time>
      </trkpt>
      <trkpt lat="46.71954" lon="-1.90201">
        <ele>5.8</ele>
        <time>2020-06-04T07:41:52Z</time>
      </trkpt>
      <trkpt lat="46.71955" lon="-1.90195">
        <ele>5.8</ele>
        <time>2020-06-04T07:41:53Z</time>
      </trkpt>
      <trkpt lat="46.71956" lon="-1.90191">
        <ele>5.9</ele>
        <time>2020-06-04T07:41:54Z</time>
      </trkpt>
      <trkpt lat="46.71956" lon="-1.90186">
        <ele>5.9</ele>
        <time>2020-06-04T07:41:55Z</time>
      </trkpt>
      <trkpt lat="46.71957" lon="-1.9018">
        <ele>5.9</ele>
        <time>2020-06-04T07:41:56Z</time>
      </trkpt>
      <trkpt lat="46.71957" lon="-1.90174">
        <ele>5.9</ele>
        <time>2020-06-04T07:41:57Z</time>
      </trkpt>
      <trkpt lat="46.71958" lon="-1.90168">
        <ele>5.9</ele>
        <time>2020-06-04T07:41:58Z</time>
      </trkpt>
      <trkpt lat="46.71958" lon="-1.90162">
        <ele>5.9</ele>
        <time>2020-06-04T07:41:59Z</time>
      </trkpt>
      <trkpt lat="46.71958" lon="-1.90156">
        <ele>5.9</ele>
        <time>2020-06-04T07:42:00Z</time>
      </trkpt>
      <trkpt lat="46.71958" lon="-1.90152">
        <ele>5.9</ele>
        <time>2020-06-04T07:42:01Z</time>
      </trkpt>
      <trkpt lat="46.71958" lon="-1.90147">
        <ele>5.9</ele>
        <time>2020-06-04T07:42:02Z</time>
      </trkpt>
      <trkpt lat="46.71959" lon="-1.90142">
        <ele>5.9</ele>
        <time>2020-06-04T07:42:03Z</time>
      </trkpt>
      <trkpt lat="46.71959" lon="-1.90138">
        <ele>5.9</ele>
        <time>2020-06-04T07:42:04Z</time>
      </trkpt>
      <trkpt lat="46.71959" lon="-1.90132">
        <ele>5.9</ele>
        <time>2020-06-04T07:42:05Z</time>
      </trkpt>
      <trkpt lat="46.7196" lon="-1.90128">
        <ele>5.9</ele>
        <time>2020-06-04T07:42:06Z</time>
      </trkpt>
      <trkpt lat="46.71962" lon="-1.90123">
        <ele>6</ele>
        <time>2020-06-04T07:42:07Z</time>
      </trkpt>
      <trkpt lat="46.71963" lon="-1.90119">
        <ele>6</ele>
        <time>2020-06-04T07:42:08Z</time>
      </trkpt>
      <trkpt lat="46.71963" lon="-1.90115">
        <ele>6</ele>
        <time>2020-06-04T07:42:09Z</time>
      </trkpt>
      <trkpt lat="46.71964" lon="-1.90109">
        <ele>6</ele>
        <time>2020-06-04T07:42:10Z</time>
      </trkpt>
      <trkpt lat="46.71964" lon="-1.90107">
        <ele>6</ele>
        <time>2020-06-04T07:42:11Z</time>
      </trkpt>
      <trkpt lat="46.71963" lon="-1.90102">
        <ele>6</ele>
        <time>2020-06-04T07:42:12Z</time>
      </trkpt>
      <trkpt lat="46.71963" lon="-1.90098">
        <ele>6.1</ele>
        <time>2020-06-04T07:42:13Z</time>
      </trkpt>
      <trkpt lat="46.71962" lon="-1.90093">
        <ele>6.1</ele>
        <time>2020-06-04T07:42:14Z</time>
      </trkpt>
      <trkpt lat="46.71961" lon="-1.90087">
        <ele>6.1</ele>
        <time>2020-06-04T07:42:15Z</time>
      </trkpt>
      <trkpt lat="46.71961" lon="-1.90085">
        <ele>6.1</ele>
        <time>2020-06-04T07:42:16Z</time>
      </trkpt>
      <trkpt lat="46.71961" lon="-1.90079">
        <ele>6.1</ele>
        <time>2020-06-04T07:42:17Z</time>
      </trkpt>
      <trkpt lat="46.71961" lon="-1.90077">
        <ele>6.1</ele>
        <time>2020-06-04T07:42:18Z</time>
      </trkpt>
      <trkpt lat="46.71962" lon="-1.90074">
        <ele>6.1</ele>
        <time>2020-06-04T07:42:19Z</time>
      </trkpt>
      <trkpt lat="46.71962" lon="-1.90073">
        <ele>6.1</ele>
        <time>2020-06-04T07:42:20Z</time>
      </trkpt>
      <trkpt lat="46.71962" lon="-1.90071">
        <ele>6.1</ele>
        <time>2020-06-04T07:42:21Z</time>
      </trkpt>
      <trkpt lat="46.71963" lon="-1.90068">
        <ele>6.1</ele>
        <time>2020-06-04T07:42:22Z</time>
      </trkpt>
      <trkpt lat="46.71964" lon="-1.90066">
        <ele>6.1</ele>
        <time>2020-06-04T07:42:23Z</time>
      </trkpt>
      <trkpt lat="46.71965" lon="-1.90066">
        <ele>6.1</ele>
        <time>2020-06-04T07:42:24Z</time>
      </trkpt>
      <trkpt lat="46.71966" lon="-1.90065">
        <ele>6.1</ele>
        <time>2020-06-04T07:42:25Z</time>
      </trkpt>
      <trkpt lat="46.71968" lon="-1.90067">
        <ele>6.2</ele>
        <time>2020-06-04T07:42:26Z</time>
      </trkpt>
      <trkpt lat="46.71969" lon="-1.90069">
        <ele>6.2</ele>
        <time>2020-06-04T07:42:27Z</time>
      </trkpt>
      <trkpt lat="46.7197" lon="-1.9007">
        <ele>6.2</ele>
        <time>2020-06-04T07:42:28Z</time>
      </trkpt>
      <trkpt lat="46.7197" lon="-1.90072">
        <ele>6.2</ele>
        <time>2020-06-04T07:42:29Z</time>
      </trkpt>
      <trkpt lat="46.71971" lon="-1.90072">
        <ele>6.2</ele>
        <time>2020-06-04T07:42:30Z</time>
      </trkpt>
      <trkpt lat="46.71971" lon="-1.90074">
        <ele>6.2</ele>
        <time>2020-06-04T07:42:31Z</time>
      </trkpt>
      <trkpt lat="46.71971" lon="-1.90072">
        <ele>6.2</ele>
        <time>2020-06-04T07:42:32Z</time>
      </trkpt>
      <trkpt lat="46.71971" lon="-1.90073">
        <ele>6.2</ele>
        <time>2020-06-04T07:42:33Z</time>
      </trkpt>
      <trkpt lat="46.71972" lon="-1.90074">
        <ele>6.2</ele>
        <time>2020-06-04T07:42:34Z</time>
      </trkpt>
      <trkpt lat="46.71973" lon="-1.90074">
        <ele>6.2</ele>
        <time>2020-06-04T07:42:35Z</time>
      </trkpt>
      <trkpt lat="46.71975" lon="-1.90075">
        <ele>6.2</ele>
        <time>2020-06-04T07:42:36Z</time>
      </trkpt>
      <trkpt lat="46.71976" lon="-1.90076">
        <ele>6.2</ele>
        <time>2020-06-04T07:42:37Z</time>
      </trkpt>
      <trkpt lat="46.71976" lon="-1.90076">
        <ele>6.2</ele>
        <time>2020-06-04T07:42:38Z</time>
      </trkpt>
      <trkpt lat="46.71976" lon="-1.90076">
        <ele>6.2</ele>
        <time>2020-06-04T07:42:39Z</time>
      </trkpt>
      <trkpt lat="46.71975" lon="-1.90075">
        <ele>6.2</ele>
        <time>2020-06-04T07:42:40Z</time>
      </trkpt>
      <trkpt lat="46.71975" lon="-1.90075">
        <ele>6.2</ele>
        <time>2020-06-04T07:42:41Z</time>
      </trkpt>
      <trkpt lat="46.71974" lon="-1.90074">
        <ele>6.2</ele>
        <time>2020-06-04T07:42:42Z</time>
      </trkpt>
      <trkpt lat="46.71974" lon="-1.90073">
        <ele>6.2</ele>
        <time>2020-06-04T07:42:43Z</time>
      </trkpt>
      <trkpt lat="46.71973" lon="-1.90073">
        <ele>6.2</ele>
        <time>2020-06-04T07:42:44Z</time>
      </trkpt>
      <trkpt lat="46.71973" lon="-1.90072">
        <ele>6.2</ele>
        <time>2020-06-04T07:42:45Z</time>
      </trkpt>
      <trkpt lat="46.71972" lon="-1.90072">
        <ele>6.2</ele>
        <time>2020-06-04T07:42:46Z</time>
      </trkpt>
      <trkpt lat="46.71972" lon="-1.90071">
        <ele>6.2</ele>
        <time>2020-06-04T07:42:47Z</time>
      </trkpt>
      <trkpt lat="46.71971" lon="-1.90071">
        <ele>6.2</ele>
        <time>2020-06-04T07:42:48Z</time>
      </trkpt>
      <trkpt lat="46.71971" lon="-1.9007">
        <ele>6.2</ele>
        <time>2020-06-04T08:17:21Z</time>
      </trkpt>
      <trkpt lat="46.7197" lon="-1.9007">
        <ele>6.2</ele>
        <time>2020-06-04T08:17:22Z</time>
      </trkpt>
      <trkpt lat="46.7197" lon="-1.90069">
        <ele>6.2</ele>
        <time>2020-06-04T08:17:23Z</time>
      </trkpt>
      <trkpt lat="46.71969" lon="-1.90069">
        <ele>6.2</ele>
        <time>2020-06-04T08:17:24Z</time>
      </trkpt>
      <trkpt lat="46.71969" lon="-1.90068">
        <ele>6.2</ele>
        <time>2020-06-04T08:17:25Z</time>
      </trkpt>
      <trkpt lat="46.71968" lon="-1.90068">
        <ele>6.2</ele>
        <time>2020-06-04T08:17:26Z</time>
      </trkpt>
      <trkpt lat="46.71968" lon="-1.90067">
        <ele>6.2</ele>
        <time>2020-06-04T08:17:39Z</time>
      </trkpt>
      <trkpt lat="46.71967" lon="-1.90067">
        <ele>6.2</ele>
        <time>2020-06-04T08:17:40Z</time>
      </trkpt>
      <trkpt lat="46.71967" lon="-1.90062">
        <ele>6.2</ele>
        <time>2020-06-04T08:17:41Z</time>
      </trkpt>
      <trkpt lat="46.71968" lon="-1.9006">
        <ele>6.2</ele>
        <time>2020-06-04T08:17:42Z</time>
      </trkpt>
      <trkpt lat="46.71969" lon="-1.90056">
        <ele>6.3</ele>
        <time>2020-06-04T08:17:44Z</time>
      </trkpt>
      <trkpt lat="46.71972" lon="-1.90053">
        <ele>6.3</ele>
        <time>2020-06-04T08:17:45Z</time>
      </trkpt>
      <trkpt lat="46.71974" lon="-1.90049">
        <ele>6.4</ele>
        <time>2020-06-04T08:17:46Z</time>
      </trkpt>
      <trkpt lat="46.71974" lon="-1.90048">
        <ele>6.4</ele>
        <time>2020-06-04T08:17:47Z</time>
      </trkpt>
      <trkpt lat="46.71977" lon="-1.90045">
        <ele>6.4</ele>
        <time>2020-06-04T08:17:48Z</time>
      </trkpt>
      <trkpt lat="46.71979" lon="-1.9004">
        <ele>6.5</ele>
        <time>2020-06-04T08:17:49Z</time>
      </trkpt>
      <trkpt lat="46.71981" lon="-1.90036">
        <ele>6.5</ele>
        <time>2020-06-04T08:17:50Z</time>
      </trkpt>
      <trkpt lat="46.71982" lon="-1.90032">
        <ele>6.6</ele>
        <time>2020-06-04T08:17:51Z</time>
      </trkpt>
      <trkpt lat="46.71984" lon="-1.90028">
        <ele>6.6</ele>
        <time>2020-06-04T08:17:52Z</time>
      </trkpt>
      <trkpt lat="46.71987" lon="-1.90024">
        <ele>6.6</ele>
        <time>2020-06-04T08:17:53Z</time>
      </trkpt>
      <trkpt lat="46.7199" lon="-1.9002">
        <ele>6.7</ele>
        <time>2020-06-04T08:17:54Z</time>
      </trkpt>
      <trkpt lat="46.71991" lon="-1.90017">
        <ele>6.7</ele>
        <time>2020-06-04T08:17:55Z</time>
      </trkpt>
      <trkpt lat="46.71993" lon="-1.90014">
        <ele>6.8</ele>
        <time>2020-06-04T08:17:56Z</time>
      </trkpt>
      <trkpt lat="46.71996" lon="-1.9001">
        <ele>6.8</ele>
        <time>2020-06-04T08:17:57Z</time>
      </trkpt>
      <trkpt lat="46.71999" lon="-1.90006">
        <ele>6.8</ele>
        <time>2020-06-04T08:17:58Z</time>
      </trkpt>
      <trkpt lat="46.72" lon="-1.90004">
        <ele>6.9</ele>
        <time>2020-06-04T08:17:59Z</time>
      </trkpt>
      <trkpt lat="46.72003" lon="-1.89999">
        <ele>6.9</ele>
        <time>2020-06-04T08:18:00Z</time>
      </trkpt>
      <trkpt lat="46.72006" lon="-1.89994">
        <ele>6.9</ele>
        <time>2020-06-04T08:18:01Z</time>
      </trkpt>
      <trkpt lat="46.72009" lon="-1.89989">
        <ele>7</ele>
        <time>2020-06-04T08:18:02Z</time>
      </trkpt>
      <trkpt lat="46.72011" lon="-1.89985">
        <ele>7</ele>
        <time>2020-06-04T08:18:03Z</time>
      </trkpt>
      <trkpt lat="46.72014" lon="-1.8998">
        <ele>7.1</ele>
        <time>2020-06-04T08:18:04Z</time>
      </trkpt>
      <trkpt lat="46.72017" lon="-1.89975">
        <ele>7.2</ele>
        <time>2020-06-04T08:18:05Z</time>
      </trkpt>
      <trkpt lat="46.72019" lon="-1.8997">
        <ele>7.3</ele>
        <time>2020-06-04T08:18:06Z</time>
      </trkpt>
      <trkpt lat="46.72023" lon="-1.89965">
        <ele>7.3</ele>
        <time>2020-06-04T08:18:07Z</time>
      </trkpt>
      <trkpt lat="46.72026" lon="-1.8996">
        <ele>7.4</ele>
        <time>2020-06-04T08:18:08Z</time>
      </trkpt>
      <trkpt lat="46.72028" lon="-1.89955">
        <ele>7.4</ele>
        <time>2020-06-04T08:18:09Z</time>
      </trkpt>
      <trkpt lat="46.72031" lon="-1.89952">
        <ele>7.4</ele>
        <time>2020-06-04T08:18:10Z</time>
      </trkpt>
      <trkpt lat="46.72034" lon="-1.89947">
        <ele>7.5</ele>
        <time>2020-06-04T08:18:11Z</time>
      </trkpt>
      <trkpt lat="46.72036" lon="-1.89942">
        <ele>7.5</ele>
        <time>2020-06-04T08:18:12Z</time>
      </trkpt>
      <trkpt lat="46.72039" lon="-1.89939">
        <ele>7.6</ele>
        <time>2020-06-04T08:18:13Z</time>
      </trkpt>
      <trkpt lat="46.72041" lon="-1.89936">
        <ele>7.6</ele>
        <time>2020-06-04T08:18:14Z</time>
      </trkpt>
      <trkpt lat="46.72044" lon="-1.89934">
        <ele>7.6</ele>
        <time>2020-06-04T08:18:15Z</time>
      </trkpt>
      <trkpt lat="46.72049" lon="-1.89933">
        <ele>7.7</ele>
        <time>2020-06-04T08:18:16Z</time>
      </trkpt>
      <trkpt lat="46.72053" lon="-1.89931">
        <ele>7.7</ele>
        <time>2020-06-04T08:18:17Z</time>
      </trkpt>
      <trkpt lat="46.72056" lon="-1.89929">
        <ele>7.7</ele>
        <time>2020-06-04T08:18:18Z</time>
      </trkpt>
      <trkpt lat="46.72059" lon="-1.89926">
        <ele>7.8</ele>
        <time>2020-06-04T08:18:19Z</time>
      </trkpt>
      <trkpt lat="46.72063" lon="-1.89922">
        <ele>7.8</ele>
        <time>2020-06-04T08:18:20Z</time>
      </trkpt>
      <trkpt lat="46.72066" lon="-1.89919">
        <ele>7.8</ele>
        <time>2020-06-04T08:18:21Z</time>
      </trkpt>
      <trkpt lat="46.7207" lon="-1.89917">
        <ele>7.8</ele>
        <time>2020-06-04T08:18:22Z</time>
      </trkpt>
      <trkpt lat="46.72074" lon="-1.89913">
        <ele>7.8</ele>
        <time>2020-06-04T08:18:23Z</time>
      </trkpt>
      <trkpt lat="46.72077" lon="-1.89909">
        <ele>7.9</ele>
        <time>2020-06-04T08:18:24Z</time>
      </trkpt>
      <trkpt lat="46.72081" lon="-1.89906">
        <ele>7.9</ele>
        <time>2020-06-04T08:18:25Z</time>
      </trkpt>
      <trkpt lat="46.72085" lon="-1.89903">
        <ele>8</ele>
        <time>2020-06-04T08:18:26Z</time>
      </trkpt>
      <trkpt lat="46.72089" lon="-1.899">
        <ele>8</ele>
        <time>2020-06-04T08:18:27Z</time>
      </trkpt>
      <trkpt lat="46.72092" lon="-1.89897">
        <ele>8</ele>
        <time>2020-06-04T08:18:28Z</time>
      </trkpt>
      <trkpt lat="46.72097" lon="-1.89893">
        <ele>8.1</ele>
        <time>2020-06-04T08:18:29Z</time>
      </trkpt>
      <trkpt lat="46.72102" lon="-1.89891">
        <ele>8.2</ele>
        <time>2020-06-04T08:18:30Z</time>
      </trkpt>
      <trkpt lat="46.72107" lon="-1.89888">
        <ele>8.2</ele>
        <time>2020-06-04T08:18:31Z</time>
      </trkpt>
      <trkpt lat="46.7211" lon="-1.89884">
        <ele>8.3</ele>
        <time>2020-06-04T08:18:32Z</time>
      </trkpt>
      <trkpt lat="46.72114" lon="-1.89881">
        <ele>8.3</ele>
        <time>2020-06-04T08:18:33Z</time>
      </trkpt>
      <trkpt lat="46.72117" lon="-1.89878">
        <ele>8.4</ele>
        <time>2020-06-04T08:18:34Z</time>
      </trkpt>
      <trkpt lat="46.72121" lon="-1.89876">
        <ele>8.4</ele>
        <time>2020-06-04T08:18:35Z</time>
      </trkpt>
      <trkpt lat="46.72124" lon="-1.89873">
        <ele>8.4</ele>
        <time>2020-06-04T08:18:36Z</time>
      </trkpt>
      <trkpt lat="46.72128" lon="-1.89869">
        <ele>8.4</ele>
        <time>2020-06-04T08:18:37Z</time>
      </trkpt>
      <trkpt lat="46.72132" lon="-1.89866">
        <ele>8.4</ele>
        <time>2020-06-04T08:18:38Z</time>
      </trkpt>
      <trkpt lat="46.72136" lon="-1.89864">
        <ele>8.4</ele>
        <time>2020-06-04T08:18:39Z</time>
      </trkpt>
      <trkpt lat="46.7214" lon="-1.8986">
        <ele>8.4</ele>
        <time>2020-06-04T08:18:40Z</time>
      </trkpt>
      <trkpt lat="46.72144" lon="-1.89857">
        <ele>8.4</ele>
        <time>2020-06-04T08:18:41Z</time>
      </trkpt>
      <trkpt lat="46.72147" lon="-1.89853">
        <ele>8.4</ele>
        <time>2020-06-04T08:18:42Z</time>
      </trkpt>
      <trkpt lat="46.72151" lon="-1.89849">
        <ele>8.5</ele>
        <time>2020-06-04T08:18:43Z</time>
      </trkpt>
      <trkpt lat="46.72155" lon="-1.89846">
        <ele>8.5</ele>
        <time>2020-06-04T08:18:44Z</time>
      </trkpt>
      <trkpt lat="46.72158" lon="-1.89843">
        <ele>8.5</ele>
        <time>2020-06-04T08:18:45Z</time>
      </trkpt>
      <trkpt lat="46.72163" lon="-1.8984">
        <ele>8.5</ele>
        <time>2020-06-04T08:18:46Z</time>
      </trkpt>
      <trkpt lat="46.72168" lon="-1.89836">
        <ele>8.5</ele>
        <time>2020-06-04T08:18:47Z</time>
      </trkpt>
      <trkpt lat="46.72172" lon="-1.89834">
        <ele>8.5</ele>
        <time>2020-06-04T08:18:48Z</time>
      </trkpt>
      <trkpt lat="46.72176" lon="-1.8983">
        <ele>8.5</ele>
        <time>2020-06-04T08:18:49Z</time>
      </trkpt>
      <trkpt lat="46.7218" lon="-1.89827">
        <ele>8.4</ele>
        <time>2020-06-04T08:18:50Z</time>
      </trkpt>
      <trkpt lat="46.72184" lon="-1.89823">
        <ele>8.4</ele>
        <time>2020-06-04T08:18:51Z</time>
      </trkpt>
      <trkpt lat="46.72187" lon="-1.8982">
        <ele>8.3</ele>
        <time>2020-06-04T08:18:52Z</time>
      </trkpt>
      <trkpt lat="46.7219" lon="-1.89815">
        <ele>8.3</ele>
        <time>2020-06-04T08:18:53Z</time>
      </trkpt>
      <trkpt lat="46.72193" lon="-1.89811">
        <ele>8.2</ele>
        <time>2020-06-04T08:18:54Z</time>
      </trkpt>
      <trkpt lat="46.72197" lon="-1.89808">
        <ele>8.2</ele>
        <time>2020-06-04T08:18:55Z</time>
      </trkpt>
      <trkpt lat="46.72201" lon="-1.89807">
        <ele>8.2</ele>
        <time>2020-06-04T08:18:56Z</time>
      </trkpt>
      <trkpt lat="46.72205" lon="-1.89805">
        <ele>8.1</ele>
        <time>2020-06-04T08:18:57Z</time>
      </trkpt>
      <trkpt lat="46.7221" lon="-1.89803">
        <ele>8</ele>
        <time>2020-06-04T08:18:58Z</time>
      </trkpt>
      <trkpt lat="46.72214" lon="-1.898">
        <ele>8</ele>
        <time>2020-06-04T08:18:59Z</time>
      </trkpt>
      <trkpt lat="46.72219" lon="-1.89796">
        <ele>7.9</ele>
        <time>2020-06-04T08:19:00Z</time>
      </trkpt>
      <trkpt lat="46.72224" lon="-1.89793">
        <ele>7.8</ele>
        <time>2020-06-04T08:19:01Z</time>
      </trkpt>
      <trkpt lat="46.72229" lon="-1.89789">
        <ele>7.7</ele>
        <time>2020-06-04T08:19:02Z</time>
      </trkpt>
      <trkpt lat="46.72233" lon="-1.89785">
        <ele>7.6</ele>
        <time>2020-06-04T08:19:03Z</time>
      </trkpt>
      <trkpt lat="46.72236" lon="-1.89782">
        <ele>7.6</ele>
        <time>2020-06-04T08:19:04Z</time>
      </trkpt>
      <trkpt lat="46.7224" lon="-1.89779">
        <ele>7.5</ele>
        <time>2020-06-04T08:19:05Z</time>
      </trkpt>
      <trkpt lat="46.72243" lon="-1.89777">
        <ele>7.5</ele>
        <time>2020-06-04T08:19:06Z</time>
      </trkpt>
      <trkpt lat="46.72245" lon="-1.89774">
        <ele>7.5</ele>
        <time>2020-06-04T08:19:07Z</time>
      </trkpt>
      <trkpt lat="46.72248" lon="-1.89772">
        <ele>7.4</ele>
        <time>2020-06-04T08:19:08Z</time>
      </trkpt>
      <trkpt lat="46.72251" lon="-1.89771">
        <ele>7.4</ele>
        <time>2020-06-04T08:19:09Z</time>
      </trkpt>
      <trkpt lat="46.72254" lon="-1.89769">
        <ele>7.3</ele>
        <time>2020-06-04T08:19:10Z</time>
      </trkpt>
      <trkpt lat="46.72257" lon="-1.8977">
        <ele>7.3</ele>
        <time>2020-06-04T08:19:11Z</time>
      </trkpt>
      <trkpt lat="46.72259" lon="-1.8977">
        <ele>7.3</ele>
        <time>2020-06-04T08:19:12Z</time>
      </trkpt>
      <trkpt lat="46.72261" lon="-1.89775">
        <ele>7.3</ele>
        <time>2020-06-04T08:19:13Z</time>
      </trkpt>
      <trkpt lat="46.72262" lon="-1.8978">
        <ele>7.3</ele>
        <time>2020-06-04T08:19:14Z</time>
      </trkpt>
      <trkpt lat="46.72263" lon="-1.89787">
        <ele>7.3</ele>
        <time>2020-06-04T08:19:15Z</time>
      </trkpt>
      <trkpt lat="46.72265" lon="-1.89794">
        <ele>7.3</ele>
        <time>2020-06-04T08:19:16Z</time>
      </trkpt>
      <trkpt lat="46.72267" lon="-1.89799">
        <ele>7.3</ele>
        <time>2020-06-04T08:19:17Z</time>
      </trkpt>
      <trkpt lat="46.72269" lon="-1.89805">
        <ele>7.3</ele>
        <time>2020-06-04T08:19:18Z</time>
      </trkpt>
      <trkpt lat="46.7227" lon="-1.89813">
        <ele>7.3</ele>
        <time>2020-06-04T08:19:19Z</time>
      </trkpt>
      <trkpt lat="46.72272" lon="-1.89819">
        <ele>7.3</ele>
        <time>2020-06-04T08:19:20Z</time>
      </trkpt>
      <trkpt lat="46.72274" lon="-1.89825">
        <ele>7.3</ele>
        <time>2020-06-04T08:19:21Z</time>
      </trkpt>
      <trkpt lat="46.72276" lon="-1.89831">
        <ele>7.3</ele>
        <time>2020-06-04T08:19:22Z</time>
      </trkpt>
      <trkpt lat="46.72278" lon="-1.89837">
        <ele>7.3</ele>
        <time>2020-06-04T08:19:23Z</time>
      </trkpt>
      <trkpt lat="46.7228" lon="-1.89842">
        <ele>7.3</ele>
        <time>2020-06-04T08:19:24Z</time>
      </trkpt>
      <trkpt lat="46.72282" lon="-1.89849">
        <ele>7.3</ele>
        <time>2020-06-04T08:19:25Z</time>
      </trkpt>
      <trkpt lat="46.72283" lon="-1.89855">
        <ele>7.3</ele>
        <time>2020-06-04T08:19:26Z</time>
      </trkpt>
      <trkpt lat="46.72286" lon="-1.8986">
        <ele>7.3</ele>
        <time>2020-06-04T08:19:27Z</time>
      </trkpt>
      <trkpt lat="46.72288" lon="-1.89866">
        <ele>7.3</ele>
        <time>2020-06-04T08:19:28Z</time>
      </trkpt>
      <trkpt lat="46.7229" lon="-1.89872">
        <ele>7.3</ele>
        <time>2020-06-04T08:19:29Z</time>
      </trkpt>
      <trkpt lat="46.72292" lon="-1.89879">
        <ele>7.3</ele>
        <time>2020-06-04T08:19:30Z</time>
      </trkpt>
      <trkpt lat="46.72295" lon="-1.89886">
        <ele>7.3</ele>
        <time>2020-06-04T08:19:31Z</time>
      </trkpt>
      <trkpt lat="46.72296" lon="-1.89891">
        <ele>7.3</ele>
        <time>2020-06-04T08:19:32Z</time>
      </trkpt>
      <trkpt lat="46.72298" lon="-1.89899">
        <ele>7.2</ele>
        <time>2020-06-04T08:19:33Z</time>
      </trkpt>
      <trkpt lat="46.72301" lon="-1.89906">
        <ele>7.2</ele>
        <time>2020-06-04T08:19:34Z</time>
      </trkpt>
      <trkpt lat="46.72303" lon="-1.89912">
        <ele>7.2</ele>
        <time>2020-06-04T08:19:35Z</time>
      </trkpt>
      <trkpt lat="46.72305" lon="-1.89919">
        <ele>7.1</ele>
        <time>2020-06-04T08:19:36Z</time>
      </trkpt>
      <trkpt lat="46.72307" lon="-1.89925">
        <ele>7.1</ele>
        <time>2020-06-04T08:19:37Z</time>
      </trkpt>
      <trkpt lat="46.72309" lon="-1.89932">
        <ele>7.1</ele>
        <time>2020-06-04T08:19:38Z</time>
      </trkpt>
      <trkpt lat="46.72311" lon="-1.89939">
        <ele>7</ele>
        <time>2020-06-04T08:19:39Z</time>
      </trkpt>
      <trkpt lat="46.72313" lon="-1.89946">
        <ele>7</ele>
        <time>2020-06-04T08:19:40Z</time>
      </trkpt>
      <trkpt lat="46.72315" lon="-1.89952">
        <ele>7</ele>
        <time>2020-06-04T08:19:41Z</time>
      </trkpt>
      <trkpt lat="46.72318" lon="-1.89957">
        <ele>7</ele>
        <time>2020-06-04T08:19:42Z</time>
      </trkpt>
      <trkpt lat="46.72321" lon="-1.89962">
        <ele>7</ele>
        <time>2020-06-04T08:19:43Z</time>
      </trkpt>
      <trkpt lat="46.72325" lon="-1.89966">
        <ele>7</ele>
        <time>2020-06-04T08:19:44Z</time>
      </trkpt>
      <trkpt lat="46.72328" lon="-1.89971">
        <ele>7</ele>
        <time>2020-06-04T08:19:45Z</time>
      </trkpt>
      <trkpt lat="46.72332" lon="-1.89977">
        <ele>6.9</ele>
        <time>2020-06-04T08:19:46Z</time>
      </trkpt>
      <trkpt lat="46.72336" lon="-1.89982">
        <ele>6.9</ele>
        <time>2020-06-04T08:19:47Z</time>
      </trkpt>
      <trkpt lat="46.72339" lon="-1.89986">
        <ele>6.9</ele>
        <time>2020-06-04T08:19:48Z</time>
      </trkpt>
      <trkpt lat="46.72344" lon="-1.89991">
        <ele>6.9</ele>
        <time>2020-06-04T08:19:49Z</time>
      </trkpt>
      <trkpt lat="46.72347" lon="-1.89996">
        <ele>6.8</ele>
        <time>2020-06-04T08:19:50Z</time>
      </trkpt>
      <trkpt lat="46.72351" lon="-1.90001">
        <ele>6.7</ele>
        <time>2020-06-04T08:19:51Z</time>
      </trkpt>
      <trkpt lat="46.72355" lon="-1.90005">
        <ele>6.6</ele>
        <time>2020-06-04T08:19:52Z</time>
      </trkpt>
      <trkpt lat="46.72358" lon="-1.9001">
        <ele>6.5</ele>
        <time>2020-06-04T08:19:53Z</time>
      </trkpt>
      <trkpt lat="46.7236" lon="-1.90014">
        <ele>6.4</ele>
        <time>2020-06-04T08:19:54Z</time>
      </trkpt>
      <trkpt lat="46.72363" lon="-1.9002">
        <ele>6.3</ele>
        <time>2020-06-04T08:19:55Z</time>
      </trkpt>
      <trkpt lat="46.72365" lon="-1.90025">
        <ele>6.3</ele>
        <time>2020-06-04T08:19:56Z</time>
      </trkpt>
      <trkpt lat="46.72368" lon="-1.90031">
        <ele>6.2</ele>
        <time>2020-06-04T08:19:57Z</time>
      </trkpt>
      <trkpt lat="46.72371" lon="-1.90037">
        <ele>6.1</ele>
        <time>2020-06-04T08:19:58Z</time>
      </trkpt>
      <trkpt lat="46.72374" lon="-1.90043">
        <ele>6</ele>
        <time>2020-06-04T08:19:59Z</time>
      </trkpt>
      <trkpt lat="46.72377" lon="-1.9005">
        <ele>5.9</ele>
        <time>2020-06-04T08:20:00Z</time>
      </trkpt>
      <trkpt lat="46.7238" lon="-1.90056">
        <ele>5.8</ele>
        <time>2020-06-04T08:20:01Z</time>
      </trkpt>
      <trkpt lat="46.72382" lon="-1.90063">
        <ele>5.7</ele>
        <time>2020-06-04T08:20:02Z</time>
      </trkpt>
      <trkpt lat="46.72385" lon="-1.90069">
        <ele>5.6</ele>
        <time>2020-06-04T08:20:03Z</time>
      </trkpt>
      <trkpt lat="46.72388" lon="-1.90076">
        <ele>5.6</ele>
        <time>2020-06-04T08:20:04Z</time>
      </trkpt>
      <trkpt lat="46.7239" lon="-1.90082">
        <ele>5.5</ele>
        <time>2020-06-04T08:20:05Z</time>
      </trkpt>
      <trkpt lat="46.72393" lon="-1.9009">
        <ele>5.4</ele>
        <time>2020-06-04T08:20:06Z</time>
      </trkpt>
      <trkpt lat="46.72396" lon="-1.90098">
        <ele>5.4</ele>
        <time>2020-06-04T08:20:07Z</time>
      </trkpt>
      <trkpt lat="46.72399" lon="-1.90104">
        <ele>5.3</ele>
        <time>2020-06-04T08:20:08Z</time>
      </trkpt>
      <trkpt lat="46.72402" lon="-1.90111">
        <ele>5.3</ele>
        <time>2020-06-04T08:20:09Z</time>
      </trkpt>
      <trkpt lat="46.72405" lon="-1.90118">
        <ele>5.3</ele>
        <time>2020-06-04T08:20:10Z</time>
      </trkpt>
      <trkpt lat="46.72408" lon="-1.90125">
        <ele>5.3</ele>
        <time>2020-06-04T08:20:11Z</time>
      </trkpt>
      <trkpt lat="46.72412" lon="-1.90132">
        <ele>5.3</ele>
        <time>2020-06-04T08:20:12Z</time>
      </trkpt>
      <trkpt lat="46.72415" lon="-1.90138">
        <ele>5.3</ele>
        <time>2020-06-04T08:20:13Z</time>
      </trkpt>
      <trkpt lat="46.72417" lon="-1.90145">
        <ele>5.3</ele>
        <time>2020-06-04T08:20:14Z</time>
      </trkpt>
      <trkpt lat="46.7242" lon="-1.90153">
        <ele>5.2</ele>
        <time>2020-06-04T08:20:15Z</time>
      </trkpt>
      <trkpt lat="46.72423" lon="-1.9016">
        <ele>5.1</ele>
        <time>2020-06-04T08:20:16Z</time>
      </trkpt>
      <trkpt lat="46.72426" lon="-1.90168">
        <ele>4.9</ele>
        <time>2020-06-04T08:20:17Z</time>
      </trkpt>
      <trkpt lat="46.72428" lon="-1.90176">
        <ele>4.8</ele>
        <time>2020-06-04T08:20:18Z</time>
      </trkpt>
      <trkpt lat="46.72431" lon="-1.90184">
        <ele>4.7</ele>
        <time>2020-06-04T08:20:19Z</time>
      </trkpt>
      <trkpt lat="46.72435" lon="-1.90191">
        <ele>4.6</ele>
        <time>2020-06-04T08:20:20Z</time>
      </trkpt>
      <trkpt lat="46.72438" lon="-1.90198">
        <ele>4.5</ele>
        <time>2020-06-04T08:20:21Z</time>
      </trkpt>
      <trkpt lat="46.72441" lon="-1.90206">
        <ele>4.4</ele>
        <time>2020-06-04T08:20:22Z</time>
      </trkpt>
      <trkpt lat="46.72445" lon="-1.90212">
        <ele>4.4</ele>
        <time>2020-06-04T08:20:23Z</time>
      </trkpt>
      <trkpt lat="46.72448" lon="-1.90218">
        <ele>4.4</ele>
        <time>2020-06-04T08:20:24Z</time>
      </trkpt>
      <trkpt lat="46.72452" lon="-1.90225">
        <ele>4.3</ele>
        <time>2020-06-04T08:20:25Z</time>
      </trkpt>
      <trkpt lat="46.72455" lon="-1.90231">
        <ele>4.3</ele>
        <time>2020-06-04T08:20:26Z</time>
      </trkpt>
      <trkpt lat="46.72459" lon="-1.90236">
        <ele>4.3</ele>
        <time>2020-06-04T08:20:27Z</time>
      </trkpt>
      <trkpt lat="46.72463" lon="-1.90242">
        <ele>4.2</ele>
        <time>2020-06-04T08:20:28Z</time>
      </trkpt>
      <trkpt lat="46.72468" lon="-1.90246">
        <ele>4.1</ele>
        <time>2020-06-04T08:20:29Z</time>
      </trkpt>
      <trkpt lat="46.72473" lon="-1.90253">
        <ele>4.1</ele>
        <time>2020-06-04T08:20:30Z</time>
      </trkpt>
      <trkpt lat="46.72477" lon="-1.90257">
        <ele>4</ele>
        <time>2020-06-04T08:20:31Z</time>
      </trkpt>
      <trkpt lat="46.72482" lon="-1.90261">
        <ele>3.9</ele>
        <time>2020-06-04T08:20:32Z</time>
      </trkpt>
      <trkpt lat="46.72486" lon="-1.90265">
        <ele>3.8</ele>
        <time>2020-06-04T08:20:33Z</time>
      </trkpt>
      <trkpt lat="46.72491" lon="-1.90269">
        <ele>3.7</ele>
        <time>2020-06-04T08:20:34Z</time>
      </trkpt>
      <trkpt lat="46.72496" lon="-1.90272">
        <ele>3.6</ele>
        <time>2020-06-04T08:20:35Z</time>
      </trkpt>
      <trkpt lat="46.72501" lon="-1.90276">
        <ele>3.6</ele>
        <time>2020-06-04T08:20:36Z</time>
      </trkpt>
      <trkpt lat="46.72505" lon="-1.9028">
        <ele>3.5</ele>
        <time>2020-06-04T08:20:37Z</time>
      </trkpt>
      <trkpt lat="46.7251" lon="-1.90285">
        <ele>3.5</ele>
        <time>2020-06-04T08:20:38Z</time>
      </trkpt>
      <trkpt lat="46.72514" lon="-1.90288">
        <ele>3.5</ele>
        <time>2020-06-04T08:20:39Z</time>
      </trkpt>
      <trkpt lat="46.72519" lon="-1.90293">
        <ele>3.4</ele>
        <time>2020-06-04T08:20:40Z</time>
      </trkpt>
      <trkpt lat="46.72524" lon="-1.90297">
        <ele>3.4</ele>
        <time>2020-06-04T08:20:41Z</time>
      </trkpt>
      <trkpt lat="46.72529" lon="-1.90302">
        <ele>3.4</ele>
        <time>2020-06-04T08:20:42Z</time>
      </trkpt>
      <trkpt lat="46.72535" lon="-1.90309">
        <ele>3.3</ele>
        <time>2020-06-04T08:20:43Z</time>
      </trkpt>
      <trkpt lat="46.7254" lon="-1.90313">
        <ele>3.3</ele>
        <time>2020-06-04T08:20:44Z</time>
      </trkpt>
      <trkpt lat="46.72545" lon="-1.90318">
        <ele>3.2</ele>
        <time>2020-06-04T08:20:45Z</time>
      </trkpt>
      <trkpt lat="46.72551" lon="-1.90323">
        <ele>3.2</ele>
        <time>2020-06-04T08:20:46Z</time>
      </trkpt>
      <trkpt lat="46.72556" lon="-1.90328">
        <ele>3.1</ele>
        <time>2020-06-04T08:20:47Z</time>
      </trkpt>
      <trkpt lat="46.72561" lon="-1.90332">
        <ele>3.1</ele>
        <time>2020-06-04T08:20:48Z</time>
      </trkpt>
      <trkpt lat="46.72566" lon="-1.90337">
        <ele>3.1</ele>
        <time>2020-06-04T08:20:49Z</time>
      </trkpt>
      <trkpt lat="46.72572" lon="-1.90342">
        <ele>3.1</ele>
        <time>2020-06-04T08:20:50Z</time>
      </trkpt>
      <trkpt lat="46.72576" lon="-1.90346">
        <ele>3.2</ele>
        <time>2020-06-04T08:20:51Z</time>
      </trkpt>
      <trkpt lat="46.72581" lon="-1.90351">
        <ele>3.2</ele>
        <time>2020-06-04T08:20:52Z</time>
      </trkpt>
      <trkpt lat="46.72585" lon="-1.90355">
        <ele>3.2</ele>
        <time>2020-06-04T08:20:53Z</time>
      </trkpt>
      <trkpt lat="46.72588" lon="-1.90358">
        <ele>3.2</ele>
        <time>2020-06-04T08:20:54Z</time>
      </trkpt>
      <trkpt lat="46.72591" lon="-1.90362">
        <ele>3.2</ele>
        <time>2020-06-04T08:20:55Z</time>
      </trkpt>
      <trkpt lat="46.72596" lon="-1.90366">
        <ele>3.2</ele>
        <time>2020-06-04T08:20:56Z</time>
      </trkpt>
      <trkpt lat="46.72601" lon="-1.90373">
        <ele>3.2</ele>
        <time>2020-06-04T08:20:57Z</time>
      </trkpt>
      <trkpt lat="46.72606" lon="-1.90378">
        <ele>3.3</ele>
        <time>2020-06-04T08:20:58Z</time>
      </trkpt>
      <trkpt lat="46.72612" lon="-1.90383">
        <ele>3.3</ele>
        <time>2020-06-04T08:20:59Z</time>
      </trkpt>
      <trkpt lat="46.72617" lon="-1.90388">
        <ele>3.4</ele>
        <time>2020-06-04T08:21:00Z</time>
      </trkpt>
      <trkpt lat="46.72621" lon="-1.90392">
        <ele>3.4</ele>
        <time>2020-06-04T08:21:01Z</time>
      </trkpt>
      <trkpt lat="46.72626" lon="-1.90396">
        <ele>3.4</ele>
        <time>2020-06-04T08:21:02Z</time>
      </trkpt>
      <trkpt lat="46.72631" lon="-1.90401">
        <ele>3.5</ele>
        <time>2020-06-04T08:21:03Z</time>
      </trkpt>
      <trkpt lat="46.72637" lon="-1.90406">
        <ele>3.5</ele>
        <time>2020-06-04T08:21:04Z</time>
      </trkpt>
      <trkpt lat="46.72642" lon="-1.90411">
        <ele>3.5</ele>
        <time>2020-06-04T08:21:05Z</time>
      </trkpt>
      <trkpt lat="46.72647" lon="-1.90416">
        <ele>3.5</ele>
        <time>2020-06-04T08:21:06Z</time>
      </trkpt>
      <trkpt lat="46.72652" lon="-1.90422">
        <ele>3.6</ele>
        <time>2020-06-04T08:21:07Z</time>
      </trkpt>
      <trkpt lat="46.72656" lon="-1.90427">
        <ele>3.6</ele>
        <time>2020-06-04T08:21:08Z</time>
      </trkpt>
      <trkpt lat="46.7266" lon="-1.90431">
        <ele>3.6</ele>
        <time>2020-06-04T08:21:09Z</time>
      </trkpt>
      <trkpt lat="46.72665" lon="-1.90436">
        <ele>3.6</ele>
        <time>2020-06-04T08:21:10Z</time>
      </trkpt>
      <trkpt lat="46.72669" lon="-1.90441">
        <ele>3.6</ele>
        <time>2020-06-04T08:21:11Z</time>
      </trkpt>
      <trkpt lat="46.72674" lon="-1.90445">
        <ele>3.6</ele>
        <time>2020-06-04T08:21:12Z</time>
      </trkpt>
      <trkpt lat="46.72679" lon="-1.9045">
        <ele>3.7</ele>
        <time>2020-06-04T08:21:13Z</time>
      </trkpt>
      <trkpt lat="46.72684" lon="-1.90455">
        <ele>3.7</ele>
        <time>2020-06-04T08:21:14Z</time>
      </trkpt>
      <trkpt lat="46.72689" lon="-1.9046">
        <ele>3.7</ele>
        <time>2020-06-04T08:21:15Z</time>
      </trkpt>
      <trkpt lat="46.72694" lon="-1.90465">
        <ele>3.8</ele>
        <time>2020-06-04T08:21:16Z</time>
      </trkpt>
      <trkpt lat="46.72698" lon="-1.90469">
        <ele>3.8</ele>
        <time>2020-06-04T08:21:17Z</time>
      </trkpt>
      <trkpt lat="46.72703" lon="-1.90473">
        <ele>3.8</ele>
        <time>2020-06-04T08:21:18Z</time>
      </trkpt>
      <trkpt lat="46.72708" lon="-1.90478">
        <ele>3.8</ele>
        <time>2020-06-04T08:21:19Z</time>
      </trkpt>
      <trkpt lat="46.72712" lon="-1.90482">
        <ele>3.8</ele>
        <time>2020-06-04T08:21:20Z</time>
      </trkpt>
      <trkpt lat="46.72718" lon="-1.90487">
        <ele>3.8</ele>
        <time>2020-06-04T08:21:21Z</time>
      </trkpt>
      <trkpt lat="46.72722" lon="-1.90492">
        <ele>3.8</ele>
        <time>2020-06-04T08:21:22Z</time>
      </trkpt>
      <trkpt lat="46.72728" lon="-1.90498">
        <ele>3.7</ele>
        <time>2020-06-04T08:21:23Z</time>
      </trkpt>
      <trkpt lat="46.72733" lon="-1.90502">
        <ele>3.7</ele>
        <time>2020-06-04T08:21:24Z</time>
      </trkpt>
      <trkpt lat="46.72738" lon="-1.90507">
        <ele>3.7</ele>
        <time>2020-06-04T08:21:25Z</time>
      </trkpt>
      <trkpt lat="46.72742" lon="-1.90512">
        <ele>3.7</ele>
        <time>2020-06-04T08:21:26Z</time>
      </trkpt>
      <trkpt lat="46.72747" lon="-1.90516">
        <ele>3.7</ele>
        <time>2020-06-04T08:21:27Z</time>
      </trkpt>
      <trkpt lat="46.72752" lon="-1.90521">
        <ele>3.7</ele>
        <time>2020-06-04T08:21:28Z</time>
      </trkpt>
      <trkpt lat="46.72757" lon="-1.90524">
        <ele>3.7</ele>
        <time>2020-06-04T08:21:29Z</time>
      </trkpt>
      <trkpt lat="46.72763" lon="-1.90529">
        <ele>3.7</ele>
        <time>2020-06-04T08:21:30Z</time>
      </trkpt>
      <trkpt lat="46.72768" lon="-1.90534">
        <ele>3.7</ele>
        <time>2020-06-04T08:21:31Z</time>
      </trkpt>
      <trkpt lat="46.72773" lon="-1.90539">
        <ele>3.7</ele>
        <time>2020-06-04T08:21:32Z</time>
      </trkpt>
      <trkpt lat="46.72778" lon="-1.90544">
        <ele>3.7</ele>
        <time>2020-06-04T08:21:33Z</time>
      </trkpt>
      <trkpt lat="46.72783" lon="-1.9055">
        <ele>3.7</ele>
        <time>2020-06-04T08:21:34Z</time>
      </trkpt>
      <trkpt lat="46.72788" lon="-1.90554">
        <ele>3.6</ele>
        <time>2020-06-04T08:21:35Z</time>
      </trkpt>
      <trkpt lat="46.72793" lon="-1.90558">
        <ele>3.6</ele>
        <time>2020-06-04T08:21:36Z</time>
      </trkpt>
      <trkpt lat="46.72798" lon="-1.90563">
        <ele>3.6</ele>
        <time>2020-06-04T08:21:37Z</time>
      </trkpt>
      <trkpt lat="46.72803" lon="-1.90568">
        <ele>3.6</ele>
        <time>2020-06-04T08:21:38Z</time>
      </trkpt>
      <trkpt lat="46.72808" lon="-1.90574">
        <ele>3.6</ele>
        <time>2020-06-04T08:21:39Z</time>
      </trkpt>
      <trkpt lat="46.72813" lon="-1.9058">
        <ele>3.6</ele>
        <time>2020-06-04T08:21:40Z</time>
      </trkpt>
      <trkpt lat="46.72817" lon="-1.90587">
        <ele>3.6</ele>
        <time>2020-06-04T08:21:41Z</time>
      </trkpt>
      <trkpt lat="46.72821" lon="-1.90594">
        <ele>3.6</ele>
        <time>2020-06-04T08:21:42Z</time>
      </trkpt>
      <trkpt lat="46.72824" lon="-1.906">
        <ele>3.6</ele>
        <time>2020-06-04T08:21:43Z</time>
      </trkpt>
      <trkpt lat="46.72828" lon="-1.90606">
        <ele>3.6</ele>
        <time>2020-06-04T08:21:44Z</time>
      </trkpt>
      <trkpt lat="46.72832" lon="-1.90613">
        <ele>3.6</ele>
        <time>2020-06-04T08:21:45Z</time>
      </trkpt>
      <trkpt lat="46.72836" lon="-1.90619">
        <ele>3.6</ele>
        <time>2020-06-04T08:21:46Z</time>
      </trkpt>
      <trkpt lat="46.72841" lon="-1.90626">
        <ele>3.6</ele>
        <time>2020-06-04T08:21:47Z</time>
      </trkpt>
      <trkpt lat="46.72845" lon="-1.90632">
        <ele>3.6</ele>
        <time>2020-06-04T08:21:48Z</time>
      </trkpt>
      <trkpt lat="46.72848" lon="-1.90637">
        <ele>3.6</ele>
        <time>2020-06-04T08:21:49Z</time>
      </trkpt>
      <trkpt lat="46.72851" lon="-1.90642">
        <ele>3.6</ele>
        <time>2020-06-04T08:21:50Z</time>
      </trkpt>
      <trkpt lat="46.72855" lon="-1.90649">
        <ele>3.6</ele>
        <time>2020-06-04T08:21:51Z</time>
      </trkpt>
      <trkpt lat="46.72859" lon="-1.90655">
        <ele>3.6</ele>
        <time>2020-06-04T08:21:52Z</time>
      </trkpt>
      <trkpt lat="46.72863" lon="-1.90661">
        <ele>3.6</ele>
        <time>2020-06-04T08:21:53Z</time>
      </trkpt>
      <trkpt lat="46.72867" lon="-1.90668">
        <ele>3.6</ele>
        <time>2020-06-04T08:21:54Z</time>
      </trkpt>
      <trkpt lat="46.72871" lon="-1.90674">
        <ele>3.6</ele>
        <time>2020-06-04T08:21:55Z</time>
      </trkpt>
      <trkpt lat="46.72875" lon="-1.90679">
        <ele>3.6</ele>
        <time>2020-06-04T08:21:56Z</time>
      </trkpt>
      <trkpt lat="46.7288" lon="-1.90685">
        <ele>3.6</ele>
        <time>2020-06-04T08:21:57Z</time>
      </trkpt>
      <trkpt lat="46.72885" lon="-1.90692">
        <ele>3.6</ele>
        <time>2020-06-04T08:21:58Z</time>
      </trkpt>
      <trkpt lat="46.72889" lon="-1.907">
        <ele>3.6</ele>
        <time>2020-06-04T08:21:59Z</time>
      </trkpt>
      <trkpt lat="46.72894" lon="-1.90707">
        <ele>3.6</ele>
        <time>2020-06-04T08:22:00Z</time>
      </trkpt>
      <trkpt lat="46.72898" lon="-1.90713">
        <ele>3.6</ele>
        <time>2020-06-04T08:22:01Z</time>
      </trkpt>
      <trkpt lat="46.72902" lon="-1.90719">
        <ele>3.6</ele>
        <time>2020-06-04T08:22:02Z</time>
      </trkpt>
      <trkpt lat="46.72905" lon="-1.90725">
        <ele>3.6</ele>
        <time>2020-06-04T08:22:03Z</time>
      </trkpt>
      <trkpt lat="46.72909" lon="-1.9073">
        <ele>3.6</ele>
        <time>2020-06-04T08:22:04Z</time>
      </trkpt>
      <trkpt lat="46.72913" lon="-1.90735">
        <ele>3.6</ele>
        <time>2020-06-04T08:22:05Z</time>
      </trkpt>
      <trkpt lat="46.72916" lon="-1.9074">
        <ele>3.6</ele>
        <time>2020-06-04T08:22:06Z</time>
      </trkpt>
      <trkpt lat="46.7292" lon="-1.90745">
        <ele>3.6</ele>
        <time>2020-06-04T08:22:07Z</time>
      </trkpt>
      <trkpt lat="46.72923" lon="-1.9075">
        <ele>3.6</ele>
        <time>2020-06-04T08:22:08Z</time>
      </trkpt>
      <trkpt lat="46.72927" lon="-1.90756">
        <ele>3.6</ele>
        <time>2020-06-04T08:22:09Z</time>
      </trkpt>
      <trkpt lat="46.72931" lon="-1.90763">
        <ele>3.6</ele>
        <time>2020-06-04T08:22:10Z</time>
      </trkpt>
      <trkpt lat="46.72934" lon="-1.90769">
        <ele>3.6</ele>
        <time>2020-06-04T08:22:11Z</time>
      </trkpt>
      <trkpt lat="46.72938" lon="-1.90775">
        <ele>3.6</ele>
        <time>2020-06-04T08:22:12Z</time>
      </trkpt>
      <trkpt lat="46.72942" lon="-1.90781">
        <ele>3.6</ele>
        <time>2020-06-04T08:22:13Z</time>
      </trkpt>
      <trkpt lat="46.72946" lon="-1.90787">
        <ele>3.6</ele>
        <time>2020-06-04T08:22:14Z</time>
      </trkpt>
      <trkpt lat="46.7295" lon="-1.90794">
        <ele>3.6</ele>
        <time>2020-06-04T08:22:15Z</time>
      </trkpt>
      <trkpt lat="46.72954" lon="-1.90799">
        <ele>3.6</ele>
        <time>2020-06-04T08:22:16Z</time>
      </trkpt>
      <trkpt lat="46.72958" lon="-1.90805">
        <ele>3.6</ele>
        <time>2020-06-04T08:22:17Z</time>
      </trkpt>
      <trkpt lat="46.72961" lon="-1.90812">
        <ele>3.6</ele>
        <time>2020-06-04T08:22:18Z</time>
      </trkpt>
      <trkpt lat="46.72965" lon="-1.90818">
        <ele>3.6</ele>
        <time>2020-06-04T08:22:19Z</time>
      </trkpt>
      <trkpt lat="46.72969" lon="-1.90823">
        <ele>3.6</ele>
        <time>2020-06-04T08:22:20Z</time>
      </trkpt>
      <trkpt lat="46.72972" lon="-1.9083">
        <ele>3.6</ele>
        <time>2020-06-04T08:22:21Z</time>
      </trkpt>
      <trkpt lat="46.72976" lon="-1.90836">
        <ele>3.6</ele>
        <time>2020-06-04T08:22:22Z</time>
      </trkpt>
      <trkpt lat="46.7298" lon="-1.90842">
        <ele>3.6</ele>
        <time>2020-06-04T08:22:23Z</time>
      </trkpt>
      <trkpt lat="46.72984" lon="-1.90847">
        <ele>3.6</ele>
        <time>2020-06-04T08:22:24Z</time>
      </trkpt>
      <trkpt lat="46.72988" lon="-1.90853">
        <ele>3.6</ele>
        <time>2020-06-04T08:22:25Z</time>
      </trkpt>
      <trkpt lat="46.72992" lon="-1.90859">
        <ele>3.6</ele>
        <time>2020-06-04T08:22:26Z</time>
      </trkpt>
      <trkpt lat="46.72995" lon="-1.90865">
        <ele>3.5</ele>
        <time>2020-06-04T08:22:27Z</time>
      </trkpt>
      <trkpt lat="46.72999" lon="-1.90871">
        <ele>3.5</ele>
        <time>2020-06-04T08:22:28Z</time>
      </trkpt>
      <trkpt lat="46.73002" lon="-1.90875">
        <ele>3.5</ele>
        <time>2020-06-04T08:22:29Z</time>
      </trkpt>
      <trkpt lat="46.73005" lon="-1.9088">
        <ele>3.5</ele>
        <time>2020-06-04T08:22:30Z</time>
      </trkpt>
      <trkpt lat="46.73008" lon="-1.90885">
        <ele>3.5</ele>
        <time>2020-06-04T08:22:31Z</time>
      </trkpt>
      <trkpt lat="46.73012" lon="-1.90891">
        <ele>3.5</ele>
        <time>2020-06-04T08:22:32Z</time>
      </trkpt>
      <trkpt lat="46.73016" lon="-1.90896">
        <ele>3.5</ele>
        <time>2020-06-04T08:22:33Z</time>
      </trkpt>
      <trkpt lat="46.73019" lon="-1.90901">
        <ele>3.5</ele>
        <time>2020-06-04T08:22:34Z</time>
      </trkpt>
      <trkpt lat="46.73023" lon="-1.90907">
        <ele>3.5</ele>
        <time>2020-06-04T08:22:35Z</time>
      </trkpt>
      <trkpt lat="46.73027" lon="-1.90913">
        <ele>3.5</ele>
        <time>2020-06-04T08:22:36Z</time>
      </trkpt>
      <trkpt lat="46.7303" lon="-1.90918">
        <ele>3.5</ele>
        <time>2020-06-04T08:22:37Z</time>
      </trkpt>
      <trkpt lat="46.73033" lon="-1.90924">
        <ele>3.5</ele>
        <time>2020-06-04T08:22:38Z</time>
      </trkpt>
      <trkpt lat="46.73037" lon="-1.9093">
        <ele>3.5</ele>
        <time>2020-06-04T08:22:39Z</time>
      </trkpt>
      <trkpt lat="46.7304" lon="-1.90935">
        <ele>3.6</ele>
        <time>2020-06-04T08:22:40Z</time>
      </trkpt>
      <trkpt lat="46.73043" lon="-1.9094">
        <ele>3.6</ele>
        <time>2020-06-04T08:22:41Z</time>
      </trkpt>
      <trkpt lat="46.73046" lon="-1.90943">
        <ele>3.6</ele>
        <time>2020-06-04T08:22:42Z</time>
      </trkpt>
      <trkpt lat="46.73049" lon="-1.90948">
        <ele>3.6</ele>
        <time>2020-06-04T08:22:43Z</time>
      </trkpt>
      <trkpt lat="46.73052" lon="-1.90954">
        <ele>3.6</ele>
        <time>2020-06-04T08:22:44Z</time>
      </trkpt>
      <trkpt lat="46.73055" lon="-1.90957">
        <ele>3.6</ele>
        <time>2020-06-04T08:22:45Z</time>
      </trkpt>
      <trkpt lat="46.73058" lon="-1.90963">
        <ele>3.6</ele>
        <time>2020-06-04T08:22:46Z</time>
      </trkpt>
      <trkpt lat="46.73061" lon="-1.90969">
        <ele>3.7</ele>
        <time>2020-06-04T08:22:47Z</time>
      </trkpt>
      <trkpt lat="46.73065" lon="-1.90974">
        <ele>3.7</ele>
        <time>2020-06-04T08:22:48Z</time>
      </trkpt>
      <trkpt lat="46.73069" lon="-1.9098">
        <ele>3.7</ele>
        <time>2020-06-04T08:22:49Z</time>
      </trkpt>
      <trkpt lat="46.73072" lon="-1.90985">
        <ele>3.8</ele>
        <time>2020-06-04T08:22:50Z</time>
      </trkpt>
      <trkpt lat="46.73075" lon="-1.9099">
        <ele>3.8</ele>
        <time>2020-06-04T08:22:51Z</time>
      </trkpt>
      <trkpt lat="46.73078" lon="-1.90995">
        <ele>3.8</ele>
        <time>2020-06-04T08:22:52Z</time>
      </trkpt>
      <trkpt lat="46.73081" lon="-1.91001">
        <ele>3.9</ele>
        <time>2020-06-04T08:22:53Z</time>
      </trkpt>
      <trkpt lat="46.73084" lon="-1.91005">
        <ele>3.9</ele>
        <time>2020-06-04T08:22:54Z</time>
      </trkpt>
      <trkpt lat="46.73087" lon="-1.9101">
        <ele>4</ele>
        <time>2020-06-04T08:22:55Z</time>
      </trkpt>
      <trkpt lat="46.73091" lon="-1.91014">
        <ele>4.1</ele>
        <time>2020-06-04T08:22:56Z</time>
      </trkpt>
      <trkpt lat="46.73095" lon="-1.91019">
        <ele>4.1</ele>
        <time>2020-06-04T08:22:57Z</time>
      </trkpt>
      <trkpt lat="46.73098" lon="-1.91024">
        <ele>4.2</ele>
        <time>2020-06-04T08:22:58Z</time>
      </trkpt>
      <trkpt lat="46.73102" lon="-1.91029">
        <ele>4.3</ele>
        <time>2020-06-04T08:22:59Z</time>
      </trkpt>
      <trkpt lat="46.73105" lon="-1.91033">
        <ele>4.4</ele>
        <time>2020-06-04T08:23:00Z</time>
      </trkpt>
      <trkpt lat="46.73109" lon="-1.91038">
        <ele>4.5</ele>
        <time>2020-06-04T08:23:01Z</time>
      </trkpt>
      <trkpt lat="46.73112" lon="-1.91042">
        <ele>4.6</ele>
        <time>2020-06-04T08:23:02Z</time>
      </trkpt>
      <trkpt lat="46.73115" lon="-1.91047">
        <ele>4.6</ele>
        <time>2020-06-04T08:23:03Z</time>
      </trkpt>
      <trkpt lat="46.73118" lon="-1.91051">
        <ele>4.7</ele>
        <time>2020-06-04T08:23:04Z</time>
      </trkpt>
      <trkpt lat="46.73122" lon="-1.91056">
        <ele>4.8</ele>
        <time>2020-06-04T08:23:05Z</time>
      </trkpt>
      <trkpt lat="46.73126" lon="-1.91062">
        <ele>4.9</ele>
        <time>2020-06-04T08:23:06Z</time>
      </trkpt>
      <trkpt lat="46.73129" lon="-1.91068">
        <ele>5</ele>
        <time>2020-06-04T08:23:07Z</time>
      </trkpt>
      <trkpt lat="46.73133" lon="-1.91073">
        <ele>5.1</ele>
        <time>2020-06-04T08:23:08Z</time>
      </trkpt>
      <trkpt lat="46.73136" lon="-1.91077">
        <ele>5.1</ele>
        <time>2020-06-04T08:23:09Z</time>
      </trkpt>
      <trkpt lat="46.73139" lon="-1.91082">
        <ele>5.2</ele>
        <time>2020-06-04T08:23:10Z</time>
      </trkpt>
      <trkpt lat="46.73142" lon="-1.91086">
        <ele>5.3</ele>
        <time>2020-06-04T08:23:11Z</time>
      </trkpt>
      <trkpt lat="46.73145" lon="-1.91093">
        <ele>5.4</ele>
        <time>2020-06-04T08:23:12Z</time>
      </trkpt>
      <trkpt lat="46.73148" lon="-1.91097">
        <ele>5.5</ele>
        <time>2020-06-04T08:23:13Z</time>
      </trkpt>
      <trkpt lat="46.73152" lon="-1.91102">
        <ele>5.5</ele>
        <time>2020-06-04T08:23:14Z</time>
      </trkpt>
      <trkpt lat="46.73156" lon="-1.91107">
        <ele>5.6</ele>
        <time>2020-06-04T08:23:15Z</time>
      </trkpt>
      <trkpt lat="46.73159" lon="-1.91113">
        <ele>5.6</ele>
        <time>2020-06-04T08:23:16Z</time>
      </trkpt>
      <trkpt lat="46.73162" lon="-1.91117">
        <ele>5.6</ele>
        <time>2020-06-04T08:23:17Z</time>
      </trkpt>
      <trkpt lat="46.73165" lon="-1.91122">
        <ele>5.6</ele>
        <time>2020-06-04T08:23:18Z</time>
      </trkpt>
      <trkpt lat="46.73168" lon="-1.91125">
        <ele>5.9</ele>
        <time>2020-06-04T08:23:19Z</time>
      </trkpt>
      <trkpt lat="46.73171" lon="-1.91129">
        <ele>6.1</ele>
        <time>2020-06-04T08:23:20Z</time>
      </trkpt>
      <trkpt lat="46.73175" lon="-1.91133">
        <ele>6.3</ele>
        <time>2020-06-04T08:23:21Z</time>
      </trkpt>
      <trkpt lat="46.73178" lon="-1.91139">
        <ele>6.7</ele>
        <time>2020-06-04T08:23:22Z</time>
      </trkpt>
      <trkpt lat="46.73181" lon="-1.91143">
        <ele>7</ele>
        <time>2020-06-04T08:23:23Z</time>
      </trkpt>
      <trkpt lat="46.73184" lon="-1.91147">
        <ele>7.3</ele>
        <time>2020-06-04T08:23:24Z</time>
      </trkpt>
      <trkpt lat="46.73187" lon="-1.91151">
        <ele>7.6</ele>
        <time>2020-06-04T08:23:25Z</time>
      </trkpt>
      <trkpt lat="46.73189" lon="-1.91155">
        <ele>7.8</ele>
        <time>2020-06-04T08:23:26Z</time>
      </trkpt>
      <trkpt lat="46.73191" lon="-1.9116">
        <ele>8.2</ele>
        <time>2020-06-04T08:23:27Z</time>
      </trkpt>
      <trkpt lat="46.73192" lon="-1.91166">
        <ele>8.5</ele>
        <time>2020-06-04T08:23:28Z</time>
      </trkpt>
      <trkpt lat="46.73195" lon="-1.91172">
        <ele>8.9</ele>
        <time>2020-06-04T08:23:29Z</time>
      </trkpt>
      <trkpt lat="46.73197" lon="-1.91177">
        <ele>9.3</ele>
        <time>2020-06-04T08:23:30Z</time>
      </trkpt>
      <trkpt lat="46.73198" lon="-1.91183">
        <ele>9.6</ele>
        <time>2020-06-04T08:23:31Z</time>
      </trkpt>
      <trkpt lat="46.732" lon="-1.91187">
        <ele>9.9</ele>
        <time>2020-06-04T08:23:32Z</time>
      </trkpt>
      <trkpt lat="46.73203" lon="-1.91191">
        <ele>10.2</ele>
        <time>2020-06-04T08:23:33Z</time>
      </trkpt>
      <trkpt lat="46.73205" lon="-1.91195">
        <ele>10.5</ele>
        <time>2020-06-04T08:23:34Z</time>
      </trkpt>
      <trkpt lat="46.73207" lon="-1.91202">
        <ele>10.9</ele>
        <time>2020-06-04T08:23:35Z</time>
      </trkpt>
      <trkpt lat="46.73209" lon="-1.91206">
        <ele>11.2</ele>
        <time>2020-06-04T08:23:36Z</time>
      </trkpt>
      <trkpt lat="46.73212" lon="-1.91211">
        <ele>11.5</ele>
        <time>2020-06-04T08:23:37Z</time>
      </trkpt>
      <trkpt lat="46.73214" lon="-1.91216">
        <ele>11.8</ele>
        <time>2020-06-04T08:23:38Z</time>
      </trkpt>
      <trkpt lat="46.73217" lon="-1.91222">
        <ele>12.1</ele>
        <time>2020-06-04T08:23:39Z</time>
      </trkpt>
      <trkpt lat="46.7322" lon="-1.91228">
        <ele>12.3</ele>
        <time>2020-06-04T08:23:40Z</time>
      </trkpt>
      <trkpt lat="46.73222" lon="-1.91233">
        <ele>12.4</ele>
        <time>2020-06-04T08:23:41Z</time>
      </trkpt>
      <trkpt lat="46.73225" lon="-1.91239">
        <ele>12.4</ele>
        <time>2020-06-04T08:23:42Z</time>
      </trkpt>
      <trkpt lat="46.73228" lon="-1.91246">
        <ele>12.6</ele>
        <time>2020-06-04T08:23:43Z</time>
      </trkpt>
      <trkpt lat="46.73231" lon="-1.91252">
        <ele>12.7</ele>
        <time>2020-06-04T08:23:44Z</time>
      </trkpt>
      <trkpt lat="46.73234" lon="-1.91258">
        <ele>12.8</ele>
        <time>2020-06-04T08:23:45Z</time>
      </trkpt>
      <trkpt lat="46.73236" lon="-1.91263">
        <ele>12.9</ele>
        <time>2020-06-04T08:23:46Z</time>
      </trkpt>
      <trkpt lat="46.73238" lon="-1.91267">
        <ele>13</ele>
        <time>2020-06-04T08:23:47Z</time>
      </trkpt>
      <trkpt lat="46.73241" lon="-1.9127">
        <ele>13</ele>
        <time>2020-06-04T08:23:48Z</time>
      </trkpt>
      <trkpt lat="46.73243" lon="-1.91275">
        <ele>13.1</ele>
        <time>2020-06-04T08:23:49Z</time>
      </trkpt>
      <trkpt lat="46.73245" lon="-1.91278">
        <ele>13.2</ele>
        <time>2020-06-04T08:23:50Z</time>
      </trkpt>
      <trkpt lat="46.73246" lon="-1.91282">
        <ele>13.3</ele>
        <time>2020-06-04T08:23:51Z</time>
      </trkpt>
      <trkpt lat="46.73248" lon="-1.91286">
        <ele>13.3</ele>
        <time>2020-06-04T08:23:52Z</time>
      </trkpt>
      <trkpt lat="46.7325" lon="-1.9129">
        <ele>13.4</ele>
        <time>2020-06-04T08:23:53Z</time>
      </trkpt>
      <trkpt lat="46.73251" lon="-1.91294">
        <ele>13.4</ele>
        <time>2020-06-04T08:23:54Z</time>
      </trkpt>
      <trkpt lat="46.73254" lon="-1.91299">
        <ele>13.5</ele>
        <time>2020-06-04T08:23:55Z</time>
      </trkpt>
      <trkpt lat="46.73255" lon="-1.91301">
        <ele>13.5</ele>
        <time>2020-06-04T08:23:56Z</time>
      </trkpt>
      <trkpt lat="46.73257" lon="-1.91305">
        <ele>13.5</ele>
        <time>2020-06-04T08:23:57Z</time>
      </trkpt>
      <trkpt lat="46.73258" lon="-1.9131">
        <ele>13.6</ele>
        <time>2020-06-04T08:23:58Z</time>
      </trkpt>
      <trkpt lat="46.73259" lon="-1.91314">
        <ele>13.6</ele>
        <time>2020-06-04T08:23:59Z</time>
      </trkpt>
      <trkpt lat="46.73261" lon="-1.91319">
        <ele>13.6</ele>
        <time>2020-06-04T08:24:00Z</time>
      </trkpt>
      <trkpt lat="46.73262" lon="-1.91321">
        <ele>13.7</ele>
        <time>2020-06-04T08:24:01Z</time>
      </trkpt>
      <trkpt lat="46.73264" lon="-1.91326">
        <ele>13.7</ele>
        <time>2020-06-04T08:24:02Z</time>
      </trkpt>
      <trkpt lat="46.73265" lon="-1.91327">
        <ele>13.7</ele>
        <time>2020-06-04T08:24:03Z</time>
      </trkpt>
      <trkpt lat="46.73266" lon="-1.91331">
        <ele>13.7</ele>
        <time>2020-06-04T08:24:04Z</time>
      </trkpt>
      <trkpt lat="46.73268" lon="-1.91336">
        <ele>13.8</ele>
        <time>2020-06-04T08:24:05Z</time>
      </trkpt>
      <trkpt lat="46.73269" lon="-1.91338">
        <ele>13.8</ele>
        <time>2020-06-04T08:24:06Z</time>
      </trkpt>
      <trkpt lat="46.73271" lon="-1.91342">
        <ele>13.8</ele>
        <time>2020-06-04T08:24:07Z</time>
      </trkpt>
      <trkpt lat="46.73272" lon="-1.91344">
        <ele>13.8</ele>
        <time>2020-06-04T08:24:08Z</time>
      </trkpt>
      <trkpt lat="46.73274" lon="-1.91348">
        <ele>13.8</ele>
        <time>2020-06-04T08:24:09Z</time>
      </trkpt>
      <trkpt lat="46.73274" lon="-1.9135">
        <ele>13.8</ele>
        <time>2020-06-04T08:24:10Z</time>
      </trkpt>
      <trkpt lat="46.73276" lon="-1.91354">
        <ele>13.8</ele>
        <time>2020-06-04T08:24:11Z</time>
      </trkpt>
      <trkpt lat="46.73277" lon="-1.91355">
        <ele>13.8</ele>
        <time>2020-06-04T08:24:12Z</time>
      </trkpt>
      <trkpt lat="46.73279" lon="-1.91359">
        <ele>13.8</ele>
        <time>2020-06-04T08:24:13Z</time>
      </trkpt>
      <trkpt lat="46.73281" lon="-1.91363">
        <ele>13.7</ele>
        <time>2020-06-04T08:24:14Z</time>
      </trkpt>
      <trkpt lat="46.73283" lon="-1.91368">
        <ele>13.7</ele>
        <time>2020-06-04T08:24:15Z</time>
      </trkpt>
      <trkpt lat="46.73284" lon="-1.9137">
        <ele>13.7</ele>
        <time>2020-06-04T08:24:16Z</time>
      </trkpt>
      <trkpt lat="46.73285" lon="-1.91374">
        <ele>13.7</ele>
        <time>2020-06-04T08:24:17Z</time>
      </trkpt>
      <trkpt lat="46.73286" lon="-1.91377">
        <ele>13.7</ele>
        <time>2020-06-04T08:24:18Z</time>
      </trkpt>
      <trkpt lat="46.73287" lon="-1.91379">
        <ele>13.7</ele>
        <time>2020-06-04T08:24:19Z</time>
      </trkpt>
      <trkpt lat="46.73287" lon="-1.9138">
        <ele>13.7</ele>
        <time>2020-06-04T08:24:20Z</time>
      </trkpt>
      <trkpt lat="46.73288" lon="-1.91385">
        <ele>13.7</ele>
        <time>2020-06-04T08:24:21Z</time>
      </trkpt>
      <trkpt lat="46.73289" lon="-1.91386">
        <ele>13.7</ele>
        <time>2020-06-04T08:24:22Z</time>
      </trkpt>
      <trkpt lat="46.7329" lon="-1.91389">
        <ele>13.7</ele>
        <time>2020-06-04T08:24:23Z</time>
      </trkpt>
      <trkpt lat="46.73291" lon="-1.91391">
        <ele>13.7</ele>
        <time>2020-06-04T08:24:24Z</time>
      </trkpt>
      <trkpt lat="46.73293" lon="-1.91395">
        <ele>13.7</ele>
        <time>2020-06-04T08:24:25Z</time>
      </trkpt>
      <trkpt lat="46.73293" lon="-1.91396">
        <ele>13.7</ele>
        <time>2020-06-04T08:24:26Z</time>
      </trkpt>
      <trkpt lat="46.73295" lon="-1.914">
        <ele>13.7</ele>
        <time>2020-06-04T08:24:27Z</time>
      </trkpt>
      <trkpt lat="46.73296" lon="-1.91401">
        <ele>13.7</ele>
        <time>2020-06-04T08:24:28Z</time>
      </trkpt>
      <trkpt lat="46.73297" lon="-1.91403">
        <ele>13.7</ele>
        <time>2020-06-04T08:24:29Z</time>
      </trkpt>
      <trkpt lat="46.73298" lon="-1.91405">
        <ele>13.7</ele>
        <time>2020-06-04T08:24:30Z</time>
      </trkpt>
      <trkpt lat="46.73299" lon="-1.91406">
        <ele>13.7</ele>
        <time>2020-06-04T08:24:31Z</time>
      </trkpt>
      <trkpt lat="46.733" lon="-1.91408">
        <ele>13.7</ele>
        <time>2020-06-04T08:24:32Z</time>
      </trkpt>
      <trkpt lat="46.73301" lon="-1.91411">
        <ele>13.7</ele>
        <time>2020-06-04T08:24:33Z</time>
      </trkpt>
      <trkpt lat="46.73302" lon="-1.91412">
        <ele>13.7</ele>
        <time>2020-06-04T08:24:34Z</time>
      </trkpt>
      <trkpt lat="46.73302" lon="-1.91414">
        <ele>13.7</ele>
        <time>2020-06-04T08:24:35Z</time>
      </trkpt>
      <trkpt lat="46.73304" lon="-1.91417">
        <ele>13.7</ele>
        <time>2020-06-04T08:24:36Z</time>
      </trkpt>
      <trkpt lat="46.73305" lon="-1.91419">
        <ele>13.8</ele>
        <time>2020-06-04T08:24:37Z</time>
      </trkpt>
      <trkpt lat="46.73306" lon="-1.91421">
        <ele>13.8</ele>
        <time>2020-06-04T08:24:38Z</time>
      </trkpt>
      <trkpt lat="46.73306" lon="-1.91422">
        <ele>13.8</ele>
        <time>2020-06-04T08:24:39Z</time>
      </trkpt>
      <trkpt lat="46.73307" lon="-1.91424">
        <ele>13.8</ele>
        <time>2020-06-04T08:24:40Z</time>
      </trkpt>
      <trkpt lat="46.73308" lon="-1.91427">
        <ele>13.8</ele>
        <time>2020-06-04T08:24:41Z</time>
      </trkpt>
      <trkpt lat="46.73309" lon="-1.91428">
        <ele>13.8</ele>
        <time>2020-06-04T08:24:42Z</time>
      </trkpt>
      <trkpt lat="46.7331" lon="-1.91431">
        <ele>13.8</ele>
        <time>2020-06-04T08:24:43Z</time>
      </trkpt>
      <trkpt lat="46.73312" lon="-1.91435">
        <ele>13.8</ele>
        <time>2020-06-04T08:24:44Z</time>
      </trkpt>
      <trkpt lat="46.73313" lon="-1.91436">
        <ele>13.8</ele>
        <time>2020-06-04T08:24:45Z</time>
      </trkpt>
      <trkpt lat="46.73315" lon="-1.9144">
        <ele>13.8</ele>
        <time>2020-06-04T08:24:46Z</time>
      </trkpt>
      <trkpt lat="46.73316" lon="-1.91442">
        <ele>13.8</ele>
        <time>2020-06-04T08:24:47Z</time>
      </trkpt>
      <trkpt lat="46.73317" lon="-1.91445">
        <ele>13.8</ele>
        <time>2020-06-04T08:24:48Z</time>
      </trkpt>
      <trkpt lat="46.73319" lon="-1.91445">
        <ele>13.8</ele>
        <time>2020-06-04T08:24:49Z</time>
      </trkpt>
      <trkpt lat="46.7332" lon="-1.91447">
        <ele>13.9</ele>
        <time>2020-06-04T08:24:50Z</time>
      </trkpt>
      <trkpt lat="46.73322" lon="-1.9145">
        <ele>13.9</ele>
        <time>2020-06-04T08:24:51Z</time>
      </trkpt>
      <trkpt lat="46.73322" lon="-1.91452">
        <ele>13.9</ele>
        <time>2020-06-04T08:24:52Z</time>
      </trkpt>
      <trkpt lat="46.73323" lon="-1.91453">
        <ele>13.9</ele>
        <time>2020-06-04T08:24:53Z</time>
      </trkpt>
      <trkpt lat="46.73324" lon="-1.91455">
        <ele>13.9</ele>
        <time>2020-06-04T08:24:54Z</time>
      </trkpt>
      <trkpt lat="46.73325" lon="-1.91457">
        <ele>13.9</ele>
        <time>2020-06-04T08:24:55Z</time>
      </trkpt>
      <trkpt lat="46.73325" lon="-1.91459">
        <ele>13.9</ele>
        <time>2020-06-04T08:24:56Z</time>
      </trkpt>
      <trkpt lat="46.73325" lon="-1.9146">
        <ele>13.9</ele>
        <time>2020-06-04T08:24:57Z</time>
      </trkpt>
      <trkpt lat="46.73325" lon="-1.91461">
        <ele>13.9</ele>
        <time>2020-06-04T08:24:58Z</time>
      </trkpt>
      <trkpt lat="46.73326" lon="-1.91463">
        <ele>13.9</ele>
        <time>2020-06-04T08:24:59Z</time>
      </trkpt>
      <trkpt lat="46.73326" lon="-1.91465">
        <ele>13.9</ele>
        <time>2020-06-04T08:25:00Z</time>
      </trkpt>
      <trkpt lat="46.73326" lon="-1.91468">
        <ele>13.9</ele>
        <time>2020-06-04T08:25:01Z</time>
      </trkpt>
      <trkpt lat="46.73327" lon="-1.91469">
        <ele>13.9</ele>
        <time>2020-06-04T08:25:02Z</time>
      </trkpt>
      <trkpt lat="46.73328" lon="-1.91471">
        <ele>13.9</ele>
        <time>2020-06-04T08:25:03Z</time>
      </trkpt>
      <trkpt lat="46.7333" lon="-1.91475">
        <ele>13.9</ele>
        <time>2020-06-04T08:25:04Z</time>
      </trkpt>
      <trkpt lat="46.7333" lon="-1.91476">
        <ele>14</ele>
        <time>2020-06-04T08:25:05Z</time>
      </trkpt>
      <trkpt lat="46.73331" lon="-1.91478">
        <ele>14</ele>
        <time>2020-06-04T08:25:06Z</time>
      </trkpt>
      <trkpt lat="46.73331" lon="-1.91479">
        <ele>14</ele>
        <time>2020-06-04T08:25:07Z</time>
      </trkpt>
      <trkpt lat="46.73332" lon="-1.91479">
        <ele>14</ele>
        <time>2020-06-04T08:25:08Z</time>
      </trkpt>
      <trkpt lat="46.73331" lon="-1.91478">
        <ele>14</ele>
        <time>2020-06-04T08:25:09Z</time>
      </trkpt>
      <trkpt lat="46.73332" lon="-1.91478">
        <ele>14</ele>
        <time>2020-06-04T08:25:10Z</time>
      </trkpt>
      <trkpt lat="46.73332" lon="-1.91478">
        <ele>14</ele>
        <time>2020-06-04T08:25:11Z</time>
      </trkpt>
      <trkpt lat="46.73332" lon="-1.91478">
        <ele>14</ele>
        <time>2020-06-04T08:25:12Z</time>
      </trkpt>
      <trkpt lat="46.73332" lon="-1.91478">
        <ele>14</ele>
        <time>2020-06-04T08:25:13Z</time>
      </trkpt>
      <trkpt lat="46.73333" lon="-1.91478">
        <ele>14</ele>
        <time>2020-06-04T08:25:14Z</time>
      </trkpt>
      <trkpt lat="46.73332" lon="-1.91477">
        <ele>14</ele>
        <time>2020-06-04T08:25:15Z</time>
      </trkpt>
      <trkpt lat="46.73332" lon="-1.91478">
        <ele>14</ele>
        <time>2020-06-04T08:25:16Z</time>
      </trkpt>
      <trkpt lat="46.73333" lon="-1.91478">
        <ele>14</ele>
        <time>2020-06-04T08:25:17Z</time>
      </trkpt>
      <trkpt lat="46.73336" lon="-1.91483">
        <ele>14</ele>
        <time>2020-06-04T08:25:24Z</time>
      </trkpt>
      <trkpt lat="46.73336" lon="-1.91485">
        <ele>14</ele>
        <time>2020-06-04T08:25:25Z</time>
      </trkpt>
      <trkpt lat="46.73337" lon="-1.91487">
        <ele>14</ele>
        <time>2020-06-04T08:25:26Z</time>
      </trkpt>
      <trkpt lat="46.73337" lon="-1.91489">
        <ele>14</ele>
        <time>2020-06-04T08:25:27Z</time>
      </trkpt>
      <trkpt lat="46.73337" lon="-1.9149">
        <ele>14</ele>
        <time>2020-06-04T08:25:28Z</time>
      </trkpt>
      <trkpt lat="46.73337" lon="-1.91493">
        <ele>14</ele>
        <time>2020-06-04T08:25:29Z</time>
      </trkpt>
      <trkpt lat="46.73337" lon="-1.91496">
        <ele>14</ele>
        <time>2020-06-04T08:25:30Z</time>
      </trkpt>
      <trkpt lat="46.73337" lon="-1.91497">
        <ele>14</ele>
        <time>2020-06-04T08:25:31Z</time>
      </trkpt>
      <trkpt lat="46.73337" lon="-1.91497">
        <ele>14</ele>
        <time>2020-06-04T08:25:32Z</time>
      </trkpt>
      <trkpt lat="46.73336" lon="-1.91498">
        <ele>14</ele>
        <time>2020-06-04T08:25:33Z</time>
      </trkpt>
      <trkpt lat="46.73336" lon="-1.91499">
        <ele>14</ele>
        <time>2020-06-04T08:25:34Z</time>
      </trkpt>
      <trkpt lat="46.73336" lon="-1.915">
        <ele>14</ele>
        <time>2020-06-04T08:25:35Z</time>
      </trkpt>
      <trkpt lat="46.73335" lon="-1.915">
        <ele>14</ele>
        <time>2020-06-04T08:25:36Z</time>
      </trkpt>
      <trkpt lat="46.73335" lon="-1.91501">
        <ele>14</ele>
        <time>2020-06-04T08:25:37Z</time>
      </trkpt>
      <trkpt lat="46.73335" lon="-1.91502">
        <ele>14</ele>
        <time>2020-06-04T08:25:38Z</time>
      </trkpt>
      <trkpt lat="46.73334" lon="-1.91503">
        <ele>14</ele>
        <time>2020-06-04T08:25:39Z</time>
      </trkpt>
      <trkpt lat="46.73334" lon="-1.91503">
        <ele>14</ele>
        <time>2020-06-04T08:25:40Z</time>
      </trkpt>
      <trkpt lat="46.73334" lon="-1.91504">
        <ele>14</ele>
        <time>2020-06-04T08:25:41Z</time>
      </trkpt>
      <trkpt lat="46.73333" lon="-1.91505">
        <ele>14</ele>
        <time>2020-06-04T08:25:42Z</time>
      </trkpt>
      <trkpt lat="46.73333" lon="-1.91506">
        <ele>14</ele>
        <time>2020-06-04T08:26:16Z</time>
      </trkpt>
      <trkpt lat="46.73333" lon="-1.91506">
        <ele>14</ele>
        <time>2020-06-04T08:26:17Z</time>
      </trkpt>
      <trkpt lat="46.73331" lon="-1.91514">
        <ele>14</ele>
        <time>2020-06-04T08:26:18Z</time>
      </trkpt>
      <trkpt lat="46.7333" lon="-1.9152">
        <ele>14</ele>
        <time>2020-06-04T08:26:19Z</time>
      </trkpt>
      <trkpt lat="46.7333" lon="-1.91526">
        <ele>14</ele>
        <time>2020-06-04T08:26:20Z</time>
      </trkpt>
      <trkpt lat="46.73329" lon="-1.91531">
        <ele>14</ele>
        <time>2020-06-04T08:26:21Z</time>
      </trkpt>
      <trkpt lat="46.73329" lon="-1.91536">
        <ele>14</ele>
        <time>2020-06-04T08:26:22Z</time>
      </trkpt>
      <trkpt lat="46.73328" lon="-1.91543">
        <ele>14</ele>
        <time>2020-06-04T08:26:23Z</time>
      </trkpt>
      <trkpt lat="46.73327" lon="-1.91546">
        <ele>14</ele>
        <time>2020-06-04T08:26:24Z</time>
      </trkpt>
      <trkpt lat="46.73326" lon="-1.91555">
        <ele>14.1</ele>
        <time>2020-06-04T08:26:25Z</time>
      </trkpt>
      <trkpt lat="46.73325" lon="-1.91562">
        <ele>14.1</ele>
        <time>2020-06-04T08:26:26Z</time>
      </trkpt>
      <trkpt lat="46.73323" lon="-1.91571">
        <ele>14.2</ele>
        <time>2020-06-04T08:26:27Z</time>
      </trkpt>
      <trkpt lat="46.73323" lon="-1.91578">
        <ele>14.2</ele>
        <time>2020-06-04T08:26:28Z</time>
      </trkpt>
      <trkpt lat="46.73321" lon="-1.91586">
        <ele>14.2</ele>
        <time>2020-06-04T08:26:29Z</time>
      </trkpt>
      <trkpt lat="46.73321" lon="-1.91592">
        <ele>14.2</ele>
        <time>2020-06-04T08:26:30Z</time>
      </trkpt>
      <trkpt lat="46.73319" lon="-1.91599">
        <ele>14.2</ele>
        <time>2020-06-04T08:26:31Z</time>
      </trkpt>
      <trkpt lat="46.73318" lon="-1.91607">
        <ele>14.2</ele>
        <time>2020-06-04T08:26:32Z</time>
      </trkpt>
      <trkpt lat="46.73317" lon="-1.91614">
        <ele>14.2</ele>
        <time>2020-06-04T08:26:33Z</time>
      </trkpt>
      <trkpt lat="46.73316" lon="-1.91621">
        <ele>14.1</ele>
        <time>2020-06-04T08:26:34Z</time>
      </trkpt>
      <trkpt lat="46.73315" lon="-1.91628">
        <ele>14.1</ele>
        <time>2020-06-04T08:26:35Z</time>
      </trkpt>
      <trkpt lat="46.73313" lon="-1.91634">
        <ele>14.1</ele>
        <time>2020-06-04T08:26:36Z</time>
      </trkpt>
      <trkpt lat="46.73313" lon="-1.91642">
        <ele>14</ele>
        <time>2020-06-04T08:26:37Z</time>
      </trkpt>
      <trkpt lat="46.73314" lon="-1.9165">
        <ele>14</ele>
        <time>2020-06-04T08:26:38Z</time>
      </trkpt>
      <trkpt lat="46.73313" lon="-1.91657">
        <ele>13.9</ele>
        <time>2020-06-04T08:26:39Z</time>
      </trkpt>
      <trkpt lat="46.73313" lon="-1.91664">
        <ele>13.9</ele>
        <time>2020-06-04T08:26:40Z</time>
      </trkpt>
      <trkpt lat="46.73313" lon="-1.91671">
        <ele>13.8</ele>
        <time>2020-06-04T08:26:41Z</time>
      </trkpt>
      <trkpt lat="46.73312" lon="-1.9168">
        <ele>13.8</ele>
        <time>2020-06-04T08:26:42Z</time>
      </trkpt>
      <trkpt lat="46.73312" lon="-1.91688">
        <ele>13.7</ele>
        <time>2020-06-04T08:26:43Z</time>
      </trkpt>
      <trkpt lat="46.73311" lon="-1.91697">
        <ele>13.7</ele>
        <time>2020-06-04T08:26:44Z</time>
      </trkpt>
      <trkpt lat="46.7331" lon="-1.91705">
        <ele>13.7</ele>
        <time>2020-06-04T08:26:45Z</time>
      </trkpt>
      <trkpt lat="46.73309" lon="-1.91713">
        <ele>13.7</ele>
        <time>2020-06-04T08:26:46Z</time>
      </trkpt>
      <trkpt lat="46.73308" lon="-1.91721">
        <ele>13.6</ele>
        <time>2020-06-04T08:26:47Z</time>
      </trkpt>
      <trkpt lat="46.73307" lon="-1.91729">
        <ele>13.6</ele>
        <time>2020-06-04T08:26:48Z</time>
      </trkpt>
      <trkpt lat="46.73306" lon="-1.91738">
        <ele>13.5</ele>
        <time>2020-06-04T08:26:49Z</time>
      </trkpt>
      <trkpt lat="46.73305" lon="-1.91748">
        <ele>13.5</ele>
        <time>2020-06-04T08:26:50Z</time>
      </trkpt>
      <trkpt lat="46.73303" lon="-1.91757">
        <ele>13.5</ele>
        <time>2020-06-04T08:26:51Z</time>
      </trkpt>
      <trkpt lat="46.73303" lon="-1.91766">
        <ele>13.4</ele>
        <time>2020-06-04T08:26:52Z</time>
      </trkpt>
      <trkpt lat="46.73302" lon="-1.91775">
        <ele>13.4</ele>
        <time>2020-06-04T08:26:53Z</time>
      </trkpt>
      <trkpt lat="46.73301" lon="-1.91784">
        <ele>13.3</ele>
        <time>2020-06-04T08:26:54Z</time>
      </trkpt>
      <trkpt lat="46.73299" lon="-1.91795">
        <ele>13.2</ele>
        <time>2020-06-04T08:26:55Z</time>
      </trkpt>
      <trkpt lat="46.73298" lon="-1.91804">
        <ele>13.2</ele>
        <time>2020-06-04T08:26:56Z</time>
      </trkpt>
      <trkpt lat="46.73297" lon="-1.91815">
        <ele>13.1</ele>
        <time>2020-06-04T08:26:57Z</time>
      </trkpt>
      <trkpt lat="46.73296" lon="-1.91824">
        <ele>13.1</ele>
        <time>2020-06-04T08:26:58Z</time>
      </trkpt>
      <trkpt lat="46.73295" lon="-1.91836">
        <ele>13</ele>
        <time>2020-06-04T08:26:59Z</time>
      </trkpt>
      <trkpt lat="46.73295" lon="-1.91846">
        <ele>12.9</ele>
        <time>2020-06-04T08:27:00Z</time>
      </trkpt>
      <trkpt lat="46.73294" lon="-1.91857">
        <ele>12.8</ele>
        <time>2020-06-04T08:27:01Z</time>
      </trkpt>
      <trkpt lat="46.73293" lon="-1.91867">
        <ele>12.8</ele>
        <time>2020-06-04T08:27:02Z</time>
      </trkpt>
      <trkpt lat="46.73292" lon="-1.91877">
        <ele>12.7</ele>
        <time>2020-06-04T08:27:03Z</time>
      </trkpt>
      <trkpt lat="46.73291" lon="-1.91886">
        <ele>12.6</ele>
        <time>2020-06-04T08:27:04Z</time>
      </trkpt>
      <trkpt lat="46.7329" lon="-1.91896">
        <ele>12.5</ele>
        <time>2020-06-04T08:27:05Z</time>
      </trkpt>
      <trkpt lat="46.73289" lon="-1.91905">
        <ele>12.4</ele>
        <time>2020-06-04T08:27:06Z</time>
      </trkpt>
      <trkpt lat="46.73288" lon="-1.91914">
        <ele>12.4</ele>
        <time>2020-06-04T08:27:07Z</time>
      </trkpt>
      <trkpt lat="46.73287" lon="-1.91924">
        <ele>12.3</ele>
        <time>2020-06-04T08:27:08Z</time>
      </trkpt>
      <trkpt lat="46.73287" lon="-1.91933">
        <ele>12.2</ele>
        <time>2020-06-04T08:27:09Z</time>
      </trkpt>
      <trkpt lat="46.73286" lon="-1.91942">
        <ele>12.1</ele>
        <time>2020-06-04T08:27:10Z</time>
      </trkpt>
      <trkpt lat="46.73285" lon="-1.91951">
        <ele>12</ele>
        <time>2020-06-04T08:27:11Z</time>
      </trkpt>
      <trkpt lat="46.73285" lon="-1.9196">
        <ele>11.9</ele>
        <time>2020-06-04T08:27:12Z</time>
      </trkpt>
      <trkpt lat="46.73284" lon="-1.91969">
        <ele>11.8</ele>
        <time>2020-06-04T08:27:13Z</time>
      </trkpt>
      <trkpt lat="46.73284" lon="-1.91978">
        <ele>11.7</ele>
        <time>2020-06-04T08:27:14Z</time>
      </trkpt>
      <trkpt lat="46.73283" lon="-1.91986">
        <ele>11.6</ele>
        <time>2020-06-04T08:27:15Z</time>
      </trkpt>
      <trkpt lat="46.73283" lon="-1.91995">
        <ele>11.5</ele>
        <time>2020-06-04T08:27:16Z</time>
      </trkpt>
      <trkpt lat="46.73282" lon="-1.92003">
        <ele>11.5</ele>
        <time>2020-06-04T08:27:17Z</time>
      </trkpt>
      <trkpt lat="46.73282" lon="-1.92011">
        <ele>11.4</ele>
        <time>2020-06-04T08:27:18Z</time>
      </trkpt>
      <trkpt lat="46.73281" lon="-1.92018">
        <ele>11.3</ele>
        <time>2020-06-04T08:27:19Z</time>
      </trkpt>
      <trkpt lat="46.73279" lon="-1.92025">
        <ele>11.2</ele>
        <time>2020-06-04T08:27:20Z</time>
      </trkpt>
      <trkpt lat="46.73278" lon="-1.92032">
        <ele>11.1</ele>
        <time>2020-06-04T08:27:21Z</time>
      </trkpt>
      <trkpt lat="46.73278" lon="-1.92039">
        <ele>11.1</ele>
        <time>2020-06-04T08:27:22Z</time>
      </trkpt>
      <trkpt lat="46.73277" lon="-1.92047">
        <ele>11</ele>
        <time>2020-06-04T08:27:23Z</time>
      </trkpt>
      <trkpt lat="46.73276" lon="-1.92054">
        <ele>11</ele>
        <time>2020-06-04T08:27:24Z</time>
      </trkpt>
      <trkpt lat="46.73275" lon="-1.92063">
        <ele>10.9</ele>
        <time>2020-06-04T08:27:25Z</time>
      </trkpt>
      <trkpt lat="46.73273" lon="-1.92071">
        <ele>10.8</ele>
        <time>2020-06-04T08:27:26Z</time>
      </trkpt>
      <trkpt lat="46.73271" lon="-1.9208">
        <ele>10.8</ele>
        <time>2020-06-04T08:27:27Z</time>
      </trkpt>
      <trkpt lat="46.7327" lon="-1.92089">
        <ele>10.7</ele>
        <time>2020-06-04T08:27:28Z</time>
      </trkpt>
      <trkpt lat="46.73268" lon="-1.92098">
        <ele>10.6</ele>
        <time>2020-06-04T08:27:29Z</time>
      </trkpt>
      <trkpt lat="46.73267" lon="-1.92106">
        <ele>10.6</ele>
        <time>2020-06-04T08:27:30Z</time>
      </trkpt>
      <trkpt lat="46.73265" lon="-1.92115">
        <ele>10.5</ele>
        <time>2020-06-04T08:27:31Z</time>
      </trkpt>
      <trkpt lat="46.73264" lon="-1.92122">
        <ele>10.4</ele>
        <time>2020-06-04T08:27:32Z</time>
      </trkpt>
      <trkpt lat="46.73263" lon="-1.9213">
        <ele>10.4</ele>
        <time>2020-06-04T08:27:33Z</time>
      </trkpt>
      <trkpt lat="46.73261" lon="-1.92138">
        <ele>10.3</ele>
        <time>2020-06-04T08:27:34Z</time>
      </trkpt>
      <trkpt lat="46.73259" lon="-1.92146">
        <ele>10.3</ele>
        <time>2020-06-04T08:27:35Z</time>
      </trkpt>
      <trkpt lat="46.73258" lon="-1.92154">
        <ele>10.2</ele>
        <time>2020-06-04T08:27:36Z</time>
      </trkpt>
      <trkpt lat="46.73256" lon="-1.92161">
        <ele>10.2</ele>
        <time>2020-06-04T08:27:37Z</time>
      </trkpt>
      <trkpt lat="46.73253" lon="-1.92169">
        <ele>10.1</ele>
        <time>2020-06-04T08:27:38Z</time>
      </trkpt>
      <trkpt lat="46.7325" lon="-1.92177">
        <ele>10</ele>
        <time>2020-06-04T08:27:39Z</time>
      </trkpt>
      <trkpt lat="46.73248" lon="-1.92185">
        <ele>10</ele>
        <time>2020-06-04T08:27:40Z</time>
      </trkpt>
      <trkpt lat="46.73245" lon="-1.92193">
        <ele>9.9</ele>
        <time>2020-06-04T08:27:41Z</time>
      </trkpt>
      <trkpt lat="46.73242" lon="-1.922">
        <ele>9.8</ele>
        <time>2020-06-04T08:27:42Z</time>
      </trkpt>
      <trkpt lat="46.73239" lon="-1.92208">
        <ele>9.7</ele>
        <time>2020-06-04T08:27:43Z</time>
      </trkpt>
      <trkpt lat="46.73236" lon="-1.92216">
        <ele>9.6</ele>
        <time>2020-06-04T08:27:44Z</time>
      </trkpt>
      <trkpt lat="46.73232" lon="-1.92223">
        <ele>9.5</ele>
        <time>2020-06-04T08:27:45Z</time>
      </trkpt>
      <trkpt lat="46.73228" lon="-1.9223">
        <ele>9.4</ele>
        <time>2020-06-04T08:27:46Z</time>
      </trkpt>
      <trkpt lat="46.73224" lon="-1.92236">
        <ele>9.3</ele>
        <time>2020-06-04T08:27:47Z</time>
      </trkpt>
      <trkpt lat="46.73221" lon="-1.92241">
        <ele>9.2</ele>
        <time>2020-06-04T08:27:48Z</time>
      </trkpt>
      <trkpt lat="46.73216" lon="-1.92247">
        <ele>9.1</ele>
        <time>2020-06-04T08:27:49Z</time>
      </trkpt>
      <trkpt lat="46.7321" lon="-1.92253">
        <ele>9</ele>
        <time>2020-06-04T08:27:50Z</time>
      </trkpt>
      <trkpt lat="46.73205" lon="-1.92259">
        <ele>8.9</ele>
        <time>2020-06-04T08:27:51Z</time>
      </trkpt>
      <trkpt lat="46.732" lon="-1.92263">
        <ele>8.8</ele>
        <time>2020-06-04T08:27:52Z</time>
      </trkpt>
      <trkpt lat="46.73194" lon="-1.92266">
        <ele>8.7</ele>
        <time>2020-06-04T08:27:53Z</time>
      </trkpt>
      <trkpt lat="46.73188" lon="-1.92269">
        <ele>8.6</ele>
        <time>2020-06-04T08:27:54Z</time>
      </trkpt>
      <trkpt lat="46.73181" lon="-1.92271">
        <ele>8.4</ele>
        <time>2020-06-04T08:27:55Z</time>
      </trkpt>
      <trkpt lat="46.73174" lon="-1.92274">
        <ele>8.3</ele>
        <time>2020-06-04T08:27:56Z</time>
      </trkpt>
      <trkpt lat="46.73168" lon="-1.92277">
        <ele>8.2</ele>
        <time>2020-06-04T08:27:57Z</time>
      </trkpt>
      <trkpt lat="46.73162" lon="-1.92282">
        <ele>8.1</ele>
        <time>2020-06-04T08:27:58Z</time>
      </trkpt>
      <trkpt lat="46.73156" lon="-1.92289">
        <ele>8</ele>
        <time>2020-06-04T08:27:59Z</time>
      </trkpt>
      <trkpt lat="46.73151" lon="-1.92296">
        <ele>7.9</ele>
        <time>2020-06-04T08:28:00Z</time>
      </trkpt>
      <trkpt lat="46.73146" lon="-1.92303">
        <ele>7.9</ele>
        <time>2020-06-04T08:28:01Z</time>
      </trkpt>
      <trkpt lat="46.73142" lon="-1.9231">
        <ele>7.9</ele>
        <time>2020-06-04T08:28:02Z</time>
      </trkpt>
      <trkpt lat="46.73137" lon="-1.92318">
        <ele>7.9</ele>
        <time>2020-06-04T08:28:03Z</time>
      </trkpt>
      <trkpt lat="46.73134" lon="-1.92326">
        <ele>7.9</ele>
        <time>2020-06-04T08:28:04Z</time>
      </trkpt>
      <trkpt lat="46.7313" lon="-1.92334">
        <ele>7.9</ele>
        <time>2020-06-04T08:28:05Z</time>
      </trkpt>
      <trkpt lat="46.73127" lon="-1.92343">
        <ele>7.9</ele>
        <time>2020-06-04T08:28:06Z</time>
      </trkpt>
      <trkpt lat="46.73124" lon="-1.92352">
        <ele>7.9</ele>
        <time>2020-06-04T08:28:07Z</time>
      </trkpt>
      <trkpt lat="46.73121" lon="-1.92361">
        <ele>8</ele>
        <time>2020-06-04T08:28:08Z</time>
      </trkpt>
      <trkpt lat="46.73118" lon="-1.9237">
        <ele>8</ele>
        <time>2020-06-04T08:28:09Z</time>
      </trkpt>
      <trkpt lat="46.73117" lon="-1.92378">
        <ele>8</ele>
        <time>2020-06-04T08:28:10Z</time>
      </trkpt>
      <trkpt lat="46.73114" lon="-1.92387">
        <ele>8.1</ele>
        <time>2020-06-04T08:28:11Z</time>
      </trkpt>
      <trkpt lat="46.73112" lon="-1.92396">
        <ele>8.1</ele>
        <time>2020-06-04T08:28:12Z</time>
      </trkpt>
      <trkpt lat="46.73112" lon="-1.92405">
        <ele>8.2</ele>
        <time>2020-06-04T08:28:13Z</time>
      </trkpt>
      <trkpt lat="46.73111" lon="-1.92414">
        <ele>8.2</ele>
        <time>2020-06-04T08:28:14Z</time>
      </trkpt>
      <trkpt lat="46.7311" lon="-1.92422">
        <ele>8.3</ele>
        <time>2020-06-04T08:28:15Z</time>
      </trkpt>
      <trkpt lat="46.73109" lon="-1.92431">
        <ele>8.3</ele>
        <time>2020-06-04T08:28:16Z</time>
      </trkpt>
      <trkpt lat="46.73108" lon="-1.9244">
        <ele>8.4</ele>
        <time>2020-06-04T08:28:17Z</time>
      </trkpt>
      <trkpt lat="46.73108" lon="-1.92449">
        <ele>8.4</ele>
        <time>2020-06-04T08:28:18Z</time>
      </trkpt>
      <trkpt lat="46.73109" lon="-1.92457">
        <ele>8.4</ele>
        <time>2020-06-04T08:28:19Z</time>
      </trkpt>
      <trkpt lat="46.73109" lon="-1.92465">
        <ele>8.4</ele>
        <time>2020-06-04T08:28:20Z</time>
      </trkpt>
      <trkpt lat="46.73109" lon="-1.92474">
        <ele>8.4</ele>
        <time>2020-06-04T08:28:21Z</time>
      </trkpt>
      <trkpt lat="46.73109" lon="-1.92482">
        <ele>8.4</ele>
        <time>2020-06-04T08:28:22Z</time>
      </trkpt>
      <trkpt lat="46.73108" lon="-1.9249">
        <ele>8.4</ele>
        <time>2020-06-04T08:28:23Z</time>
      </trkpt>
      <trkpt lat="46.73107" lon="-1.92498">
        <ele>8.4</ele>
        <time>2020-06-04T08:28:24Z</time>
      </trkpt>
      <trkpt lat="46.73106" lon="-1.92505">
        <ele>8.4</ele>
        <time>2020-06-04T08:28:25Z</time>
      </trkpt>
      <trkpt lat="46.73103" lon="-1.92512">
        <ele>8.4</ele>
        <time>2020-06-04T08:28:26Z</time>
      </trkpt>
      <trkpt lat="46.73101" lon="-1.9252">
        <ele>8.5</ele>
        <time>2020-06-04T08:28:27Z</time>
      </trkpt>
      <trkpt lat="46.73097" lon="-1.92527">
        <ele>8.5</ele>
        <time>2020-06-04T08:28:28Z</time>
      </trkpt>
      <trkpt lat="46.73094" lon="-1.92534">
        <ele>8.6</ele>
        <time>2020-06-04T08:28:29Z</time>
      </trkpt>
      <trkpt lat="46.7309" lon="-1.92541">
        <ele>8.6</ele>
        <time>2020-06-04T08:28:30Z</time>
      </trkpt>
      <trkpt lat="46.73086" lon="-1.92549">
        <ele>8.6</ele>
        <time>2020-06-04T08:28:31Z</time>
      </trkpt>
      <trkpt lat="46.73082" lon="-1.92557">
        <ele>8.6</ele>
        <time>2020-06-04T08:28:32Z</time>
      </trkpt>
      <trkpt lat="46.73077" lon="-1.92564">
        <ele>8.6</ele>
        <time>2020-06-04T08:28:33Z</time>
      </trkpt>
      <trkpt lat="46.73074" lon="-1.92572">
        <ele>8.5</ele>
        <time>2020-06-04T08:28:34Z</time>
      </trkpt>
      <trkpt lat="46.7307" lon="-1.9258">
        <ele>8.5</ele>
        <time>2020-06-04T08:28:35Z</time>
      </trkpt>
      <trkpt lat="46.73066" lon="-1.92588">
        <ele>8.5</ele>
        <time>2020-06-04T08:28:36Z</time>
      </trkpt>
      <trkpt lat="46.73063" lon="-1.92596">
        <ele>8.4</ele>
        <time>2020-06-04T08:28:37Z</time>
      </trkpt>
      <trkpt lat="46.7306" lon="-1.92605">
        <ele>8.4</ele>
        <time>2020-06-04T08:28:38Z</time>
      </trkpt>
      <trkpt lat="46.73056" lon="-1.92612">
        <ele>8.4</ele>
        <time>2020-06-04T08:28:39Z</time>
      </trkpt>
      <trkpt lat="46.73053" lon="-1.9262">
        <ele>8.3</ele>
        <time>2020-06-04T08:28:40Z</time>
      </trkpt>
      <trkpt lat="46.7305" lon="-1.92629">
        <ele>8.3</ele>
        <time>2020-06-04T08:28:41Z</time>
      </trkpt>
      <trkpt lat="46.73047" lon="-1.92637">
        <ele>8.3</ele>
        <time>2020-06-04T08:28:42Z</time>
      </trkpt>
      <trkpt lat="46.73043" lon="-1.92645">
        <ele>8.3</ele>
        <time>2020-06-04T08:28:43Z</time>
      </trkpt>
      <trkpt lat="46.7304" lon="-1.92653">
        <ele>8.3</ele>
        <time>2020-06-04T08:28:44Z</time>
      </trkpt>
      <trkpt lat="46.73037" lon="-1.92662">
        <ele>8.2</ele>
        <time>2020-06-04T08:28:45Z</time>
      </trkpt>
      <trkpt lat="46.73035" lon="-1.9267">
        <ele>8.1</ele>
        <time>2020-06-04T08:28:46Z</time>
      </trkpt>
      <trkpt lat="46.73033" lon="-1.92678">
        <ele>8.1</ele>
        <time>2020-06-04T08:28:47Z</time>
      </trkpt>
      <trkpt lat="46.73031" lon="-1.92687">
        <ele>8</ele>
        <time>2020-06-04T08:28:48Z</time>
      </trkpt>
      <trkpt lat="46.7303" lon="-1.92695">
        <ele>7.9</ele>
        <time>2020-06-04T08:28:49Z</time>
      </trkpt>
      <trkpt lat="46.73029" lon="-1.92704">
        <ele>7.9</ele>
        <time>2020-06-04T08:28:50Z</time>
      </trkpt>
      <trkpt lat="46.73027" lon="-1.92713">
        <ele>7.8</ele>
        <time>2020-06-04T08:28:51Z</time>
      </trkpt>
      <trkpt lat="46.73025" lon="-1.92721">
        <ele>7.8</ele>
        <time>2020-06-04T08:28:52Z</time>
      </trkpt>
      <trkpt lat="46.73023" lon="-1.9273">
        <ele>7.7</ele>
        <time>2020-06-04T08:28:53Z</time>
      </trkpt>
      <trkpt lat="46.73021" lon="-1.92739">
        <ele>7.6</ele>
        <time>2020-06-04T08:28:54Z</time>
      </trkpt>
      <trkpt lat="46.73019" lon="-1.92747">
        <ele>7.6</ele>
        <time>2020-06-04T08:28:55Z</time>
      </trkpt>
      <trkpt lat="46.73017" lon="-1.92756">
        <ele>7.5</ele>
        <time>2020-06-04T08:28:56Z</time>
      </trkpt>
      <trkpt lat="46.73015" lon="-1.92765">
        <ele>7.4</ele>
        <time>2020-06-04T08:28:57Z</time>
      </trkpt>
      <trkpt lat="46.73014" lon="-1.92774">
        <ele>7.3</ele>
        <time>2020-06-04T08:28:58Z</time>
      </trkpt>
      <trkpt lat="46.73013" lon="-1.92783">
        <ele>7.2</ele>
        <time>2020-06-04T08:28:59Z</time>
      </trkpt>
      <trkpt lat="46.73012" lon="-1.92792">
        <ele>7</ele>
        <time>2020-06-04T08:29:00Z</time>
      </trkpt>
      <trkpt lat="46.73011" lon="-1.92801">
        <ele>6.9</ele>
        <time>2020-06-04T08:29:01Z</time>
      </trkpt>
      <trkpt lat="46.73009" lon="-1.9281">
        <ele>6.8</ele>
        <time>2020-06-04T08:29:02Z</time>
      </trkpt>
      <trkpt lat="46.73007" lon="-1.92819">
        <ele>6.8</ele>
        <time>2020-06-04T08:29:03Z</time>
      </trkpt>
      <trkpt lat="46.73007" lon="-1.92828">
        <ele>6.8</ele>
        <time>2020-06-04T08:29:04Z</time>
      </trkpt>
      <trkpt lat="46.73007" lon="-1.92838">
        <ele>6.8</ele>
        <time>2020-06-04T08:29:05Z</time>
      </trkpt>
      <trkpt lat="46.73009" lon="-1.92847">
        <ele>6.7</ele>
        <time>2020-06-04T08:29:06Z</time>
      </trkpt>
      <trkpt lat="46.73011" lon="-1.92855">
        <ele>6.7</ele>
        <time>2020-06-04T08:29:07Z</time>
      </trkpt>
      <trkpt lat="46.73014" lon="-1.92861">
        <ele>6.6</ele>
        <time>2020-06-04T08:29:08Z</time>
      </trkpt>
      <trkpt lat="46.73016" lon="-1.92865">
        <ele>6.6</ele>
        <time>2020-06-04T08:29:09Z</time>
      </trkpt>
      <trkpt lat="46.73018" lon="-1.92869">
        <ele>6.5</ele>
        <time>2020-06-04T08:29:10Z</time>
      </trkpt>
      <trkpt lat="46.7302" lon="-1.92873">
        <ele>6.5</ele>
        <time>2020-06-04T08:29:11Z</time>
      </trkpt>
      <trkpt lat="46.73022" lon="-1.92877">
        <ele>6.4</ele>
        <time>2020-06-04T08:29:12Z</time>
      </trkpt>
      <trkpt lat="46.73022" lon="-1.92879">
        <ele>6.4</ele>
        <time>2020-06-04T08:29:13Z</time>
      </trkpt>
      <trkpt lat="46.73022" lon="-1.92884">
        <ele>6.4</ele>
        <time>2020-06-04T08:29:14Z</time>
      </trkpt>
      <trkpt lat="46.73021" lon="-1.9289">
        <ele>6.4</ele>
        <time>2020-06-04T08:29:15Z</time>
      </trkpt>
      <trkpt lat="46.73018" lon="-1.92895">
        <ele>6.4</ele>
        <time>2020-06-04T08:29:16Z</time>
      </trkpt>
      <trkpt lat="46.73015" lon="-1.92901">
        <ele>6.3</ele>
        <time>2020-06-04T08:29:17Z</time>
      </trkpt>
      <trkpt lat="46.73012" lon="-1.92907">
        <ele>6.3</ele>
        <time>2020-06-04T08:29:18Z</time>
      </trkpt>
      <trkpt lat="46.73008" lon="-1.92913">
        <ele>6.3</ele>
        <time>2020-06-04T08:29:19Z</time>
      </trkpt>
      <trkpt lat="46.73005" lon="-1.92918">
        <ele>6.2</ele>
        <time>2020-06-04T08:29:20Z</time>
      </trkpt>
      <trkpt lat="46.73001" lon="-1.92924">
        <ele>6.2</ele>
        <time>2020-06-04T08:29:21Z</time>
      </trkpt>
      <trkpt lat="46.72999" lon="-1.92931">
        <ele>6.1</ele>
        <time>2020-06-04T08:29:22Z</time>
      </trkpt>
      <trkpt lat="46.72996" lon="-1.92938">
        <ele>6.1</ele>
        <time>2020-06-04T08:29:23Z</time>
      </trkpt>
      <trkpt lat="46.72994" lon="-1.92946">
        <ele>6</ele>
        <time>2020-06-04T08:29:24Z</time>
      </trkpt>
      <trkpt lat="46.72992" lon="-1.92955">
        <ele>6</ele>
        <time>2020-06-04T08:29:25Z</time>
      </trkpt>
      <trkpt lat="46.72991" lon="-1.92964">
        <ele>5.9</ele>
        <time>2020-06-04T08:29:26Z</time>
      </trkpt>
      <trkpt lat="46.72989" lon="-1.92973">
        <ele>5.9</ele>
        <time>2020-06-04T08:29:27Z</time>
      </trkpt>
      <trkpt lat="46.72988" lon="-1.92982">
        <ele>5.9</ele>
        <time>2020-06-04T08:29:28Z</time>
      </trkpt>
      <trkpt lat="46.72987" lon="-1.92991">
        <ele>5.9</ele>
        <time>2020-06-04T08:29:29Z</time>
      </trkpt>
      <trkpt lat="46.72986" lon="-1.92999">
        <ele>5.9</ele>
        <time>2020-06-04T08:29:30Z</time>
      </trkpt>
      <trkpt lat="46.72986" lon="-1.93009">
        <ele>5.9</ele>
        <time>2020-06-04T08:29:31Z</time>
      </trkpt>
      <trkpt lat="46.72986" lon="-1.93019">
        <ele>5.8</ele>
        <time>2020-06-04T08:29:32Z</time>
      </trkpt>
      <trkpt lat="46.72987" lon="-1.93028">
        <ele>5.7</ele>
        <time>2020-06-04T08:29:33Z</time>
      </trkpt>
      <trkpt lat="46.72988" lon="-1.93036">
        <ele>5.5</ele>
        <time>2020-06-04T08:29:34Z</time>
      </trkpt>
      <trkpt lat="46.72989" lon="-1.93045">
        <ele>5.4</ele>
        <time>2020-06-04T08:29:35Z</time>
      </trkpt>
      <trkpt lat="46.72989" lon="-1.93054">
        <ele>5.3</ele>
        <time>2020-06-04T08:29:36Z</time>
      </trkpt>
      <trkpt lat="46.7299" lon="-1.93062">
        <ele>5.2</ele>
        <time>2020-06-04T08:29:37Z</time>
      </trkpt>
      <trkpt lat="46.72991" lon="-1.9307">
        <ele>5.1</ele>
        <time>2020-06-04T08:29:38Z</time>
      </trkpt>
      <trkpt lat="46.72992" lon="-1.9308">
        <ele>5</ele>
        <time>2020-06-04T08:29:39Z</time>
      </trkpt>
      <trkpt lat="46.72993" lon="-1.93089">
        <ele>4.9</ele>
        <time>2020-06-04T08:29:40Z</time>
      </trkpt>
      <trkpt lat="46.72994" lon="-1.93099">
        <ele>4.8</ele>
        <time>2020-06-04T08:29:41Z</time>
      </trkpt>
      <trkpt lat="46.72995" lon="-1.93109">
        <ele>4.8</ele>
        <time>2020-06-04T08:29:42Z</time>
      </trkpt>
      <trkpt lat="46.72996" lon="-1.93118">
        <ele>4.7</ele>
        <time>2020-06-04T08:29:43Z</time>
      </trkpt>
      <trkpt lat="46.72998" lon="-1.93127">
        <ele>4.6</ele>
        <time>2020-06-04T08:29:44Z</time>
      </trkpt>
      <trkpt lat="46.72999" lon="-1.93136">
        <ele>4.4</ele>
        <time>2020-06-04T08:29:45Z</time>
      </trkpt>
      <trkpt lat="46.73" lon="-1.93146">
        <ele>4.3</ele>
        <time>2020-06-04T08:29:46Z</time>
      </trkpt>
      <trkpt lat="46.73" lon="-1.93156">
        <ele>4.2</ele>
        <time>2020-06-04T08:29:47Z</time>
      </trkpt>
      <trkpt lat="46.73002" lon="-1.93165">
        <ele>4</ele>
        <time>2020-06-04T08:29:48Z</time>
      </trkpt>
      <trkpt lat="46.73003" lon="-1.93174">
        <ele>3.9</ele>
        <time>2020-06-04T08:29:49Z</time>
      </trkpt>
      <trkpt lat="46.73004" lon="-1.93184">
        <ele>3.8</ele>
        <time>2020-06-04T08:29:50Z</time>
      </trkpt>
      <trkpt lat="46.73006" lon="-1.93193">
        <ele>3.7</ele>
        <time>2020-06-04T08:29:51Z</time>
      </trkpt>
      <trkpt lat="46.73008" lon="-1.93202">
        <ele>3.5</ele>
        <time>2020-06-04T08:29:52Z</time>
      </trkpt>
      <trkpt lat="46.73008" lon="-1.93213">
        <ele>3.4</ele>
        <time>2020-06-04T08:29:53Z</time>
      </trkpt>
      <trkpt lat="46.7301" lon="-1.93223">
        <ele>3.3</ele>
        <time>2020-06-04T08:29:54Z</time>
      </trkpt>
      <trkpt lat="46.73011" lon="-1.93233">
        <ele>3.3</ele>
        <time>2020-06-04T08:29:55Z</time>
      </trkpt>
      <trkpt lat="46.73012" lon="-1.93243">
        <ele>3.2</ele>
        <time>2020-06-04T08:29:56Z</time>
      </trkpt>
      <trkpt lat="46.73013" lon="-1.93253">
        <ele>3.2</ele>
        <time>2020-06-04T08:29:57Z</time>
      </trkpt>
      <trkpt lat="46.73014" lon="-1.93264">
        <ele>3.2</ele>
        <time>2020-06-04T08:29:58Z</time>
      </trkpt>
      <trkpt lat="46.73015" lon="-1.93274">
        <ele>3.2</ele>
        <time>2020-06-04T08:29:59Z</time>
      </trkpt>
      <trkpt lat="46.73015" lon="-1.93284">
        <ele>3.2</ele>
        <time>2020-06-04T08:30:00Z</time>
      </trkpt>
      <trkpt lat="46.73016" lon="-1.93294">
        <ele>3.2</ele>
        <time>2020-06-04T08:30:01Z</time>
      </trkpt>
      <trkpt lat="46.73017" lon="-1.93303">
        <ele>3.2</ele>
        <time>2020-06-04T08:30:02Z</time>
      </trkpt>
      <trkpt lat="46.73017" lon="-1.93313">
        <ele>3.2</ele>
        <time>2020-06-04T08:30:03Z</time>
      </trkpt>
      <trkpt lat="46.73017" lon="-1.93323">
        <ele>3.2</ele>
        <time>2020-06-04T08:30:04Z</time>
      </trkpt>
      <trkpt lat="46.73017" lon="-1.93333">
        <ele>3.2</ele>
        <time>2020-06-04T08:30:05Z</time>
      </trkpt>
      <trkpt lat="46.73016" lon="-1.93343">
        <ele>3.1</ele>
        <time>2020-06-04T08:30:06Z</time>
      </trkpt>
      <trkpt lat="46.73016" lon="-1.93352">
        <ele>3.1</ele>
        <time>2020-06-04T08:30:07Z</time>
      </trkpt>
      <trkpt lat="46.73015" lon="-1.93362">
        <ele>3.1</ele>
        <time>2020-06-04T08:30:08Z</time>
      </trkpt>
      <trkpt lat="46.73014" lon="-1.93372">
        <ele>3.1</ele>
        <time>2020-06-04T08:30:09Z</time>
      </trkpt>
      <trkpt lat="46.73013" lon="-1.93381">
        <ele>3.1</ele>
        <time>2020-06-04T08:30:10Z</time>
      </trkpt>
      <trkpt lat="46.73013" lon="-1.93391">
        <ele>3.1</ele>
        <time>2020-06-04T08:30:11Z</time>
      </trkpt>
      <trkpt lat="46.73011" lon="-1.934">
        <ele>3.1</ele>
        <time>2020-06-04T08:30:12Z</time>
      </trkpt>
      <trkpt lat="46.73011" lon="-1.93409">
        <ele>3.1</ele>
        <time>2020-06-04T08:30:13Z</time>
      </trkpt>
      <trkpt lat="46.73009" lon="-1.93419">
        <ele>3.1</ele>
        <time>2020-06-04T08:30:14Z</time>
      </trkpt>
      <trkpt lat="46.73009" lon="-1.93428">
        <ele>3</ele>
        <time>2020-06-04T08:30:15Z</time>
      </trkpt>
      <trkpt lat="46.73008" lon="-1.93438">
        <ele>3</ele>
        <time>2020-06-04T08:30:16Z</time>
      </trkpt>
      <trkpt lat="46.73008" lon="-1.93447">
        <ele>3</ele>
        <time>2020-06-04T08:30:17Z</time>
      </trkpt>
      <trkpt lat="46.73007" lon="-1.93457">
        <ele>3</ele>
        <time>2020-06-04T08:30:18Z</time>
      </trkpt>
      <trkpt lat="46.73006" lon="-1.93467">
        <ele>3</ele>
        <time>2020-06-04T08:30:19Z</time>
      </trkpt>
      <trkpt lat="46.73006" lon="-1.93476">
        <ele>3</ele>
        <time>2020-06-04T08:30:20Z</time>
      </trkpt>
      <trkpt lat="46.73005" lon="-1.93485">
        <ele>3</ele>
        <time>2020-06-04T08:30:21Z</time>
      </trkpt>
      <trkpt lat="46.73004" lon="-1.93494">
        <ele>3.1</ele>
        <time>2020-06-04T08:30:22Z</time>
      </trkpt>
      <trkpt lat="46.73003" lon="-1.93504">
        <ele>3.1</ele>
        <time>2020-06-04T08:30:23Z</time>
      </trkpt>
      <trkpt lat="46.73002" lon="-1.93513">
        <ele>3.2</ele>
        <time>2020-06-04T08:30:24Z</time>
      </trkpt>
      <trkpt lat="46.73001" lon="-1.93522">
        <ele>3.2</ele>
        <time>2020-06-04T08:30:25Z</time>
      </trkpt>
      <trkpt lat="46.72999" lon="-1.93531">
        <ele>3.3</ele>
        <time>2020-06-04T08:30:26Z</time>
      </trkpt>
      <trkpt lat="46.72998" lon="-1.9354">
        <ele>3.4</ele>
        <time>2020-06-04T08:30:27Z</time>
      </trkpt>
      <trkpt lat="46.72997" lon="-1.93548">
        <ele>3.4</ele>
        <time>2020-06-04T08:30:28Z</time>
      </trkpt>
      <trkpt lat="46.72996" lon="-1.93557">
        <ele>3.5</ele>
        <time>2020-06-04T08:30:29Z</time>
      </trkpt>
      <trkpt lat="46.72994" lon="-1.93566">
        <ele>3.6</ele>
        <time>2020-06-04T08:30:30Z</time>
      </trkpt>
      <trkpt lat="46.72992" lon="-1.93574">
        <ele>3.7</ele>
        <time>2020-06-04T08:30:31Z</time>
      </trkpt>
      <trkpt lat="46.7299" lon="-1.93582">
        <ele>3.7</ele>
        <time>2020-06-04T08:30:32Z</time>
      </trkpt>
      <trkpt lat="46.72987" lon="-1.93589">
        <ele>3.8</ele>
        <time>2020-06-04T08:30:33Z</time>
      </trkpt>
      <trkpt lat="46.72985" lon="-1.93597">
        <ele>3.8</ele>
        <time>2020-06-04T08:30:34Z</time>
      </trkpt>
      <trkpt lat="46.72982" lon="-1.93604">
        <ele>3.8</ele>
        <time>2020-06-04T08:30:35Z</time>
      </trkpt>
      <trkpt lat="46.72978" lon="-1.93611">
        <ele>3.8</ele>
        <time>2020-06-04T08:30:36Z</time>
      </trkpt>
      <trkpt lat="46.72975" lon="-1.93619">
        <ele>3.8</ele>
        <time>2020-06-04T08:30:37Z</time>
      </trkpt>
      <trkpt lat="46.72972" lon="-1.93626">
        <ele>3.7</ele>
        <time>2020-06-04T08:30:38Z</time>
      </trkpt>
      <trkpt lat="46.72969" lon="-1.93634">
        <ele>3.7</ele>
        <time>2020-06-04T08:30:39Z</time>
      </trkpt>
      <trkpt lat="46.72965" lon="-1.93641">
        <ele>3.7</ele>
        <time>2020-06-04T08:30:40Z</time>
      </trkpt>
      <trkpt lat="46.72961" lon="-1.93648">
        <ele>3.6</ele>
        <time>2020-06-04T08:30:41Z</time>
      </trkpt>
      <trkpt lat="46.72956" lon="-1.93655">
        <ele>3.6</ele>
        <time>2020-06-04T08:30:42Z</time>
      </trkpt>
      <trkpt lat="46.72952" lon="-1.93662">
        <ele>3.5</ele>
        <time>2020-06-04T08:30:43Z</time>
      </trkpt>
      <trkpt lat="46.72947" lon="-1.93668">
        <ele>3.5</ele>
        <time>2020-06-04T08:30:44Z</time>
      </trkpt>
      <trkpt lat="46.72943" lon="-1.93676">
        <ele>3.5</ele>
        <time>2020-06-04T08:30:45Z</time>
      </trkpt>
      <trkpt lat="46.72938" lon="-1.93683">
        <ele>3.4</ele>
        <time>2020-06-04T08:30:46Z</time>
      </trkpt>
      <trkpt lat="46.72934" lon="-1.9369">
        <ele>3.4</ele>
        <time>2020-06-04T08:30:47Z</time>
      </trkpt>
      <trkpt lat="46.72929" lon="-1.93697">
        <ele>3.4</ele>
        <time>2020-06-04T08:30:48Z</time>
      </trkpt>
      <trkpt lat="46.72924" lon="-1.93704">
        <ele>3.4</ele>
        <time>2020-06-04T08:30:49Z</time>
      </trkpt>
      <trkpt lat="46.7292" lon="-1.93712">
        <ele>3.4</ele>
        <time>2020-06-04T08:30:50Z</time>
      </trkpt>
      <trkpt lat="46.72915" lon="-1.93719">
        <ele>3.4</ele>
        <time>2020-06-04T08:30:51Z</time>
      </trkpt>
      <trkpt lat="46.72911" lon="-1.93727">
        <ele>3.4</ele>
        <time>2020-06-04T08:30:52Z</time>
      </trkpt>
      <trkpt lat="46.72907" lon="-1.93734">
        <ele>3.4</ele>
        <time>2020-06-04T08:30:53Z</time>
      </trkpt>
      <trkpt lat="46.72902" lon="-1.93741">
        <ele>3.4</ele>
        <time>2020-06-04T08:30:54Z</time>
      </trkpt>
      <trkpt lat="46.72897" lon="-1.93749">
        <ele>3.4</ele>
        <time>2020-06-04T08:30:55Z</time>
      </trkpt>
      <trkpt lat="46.72892" lon="-1.93756">
        <ele>3.4</ele>
        <time>2020-06-04T08:30:56Z</time>
      </trkpt>
      <trkpt lat="46.72887" lon="-1.93762">
        <ele>3.4</ele>
        <time>2020-06-04T08:30:57Z</time>
      </trkpt>
      <trkpt lat="46.72882" lon="-1.93769">
        <ele>3.4</ele>
        <time>2020-06-04T08:30:58Z</time>
      </trkpt>
      <trkpt lat="46.72877" lon="-1.93776">
        <ele>3.3</ele>
        <time>2020-06-04T08:30:59Z</time>
      </trkpt>
      <trkpt lat="46.72872" lon="-1.93783">
        <ele>3.3</ele>
        <time>2020-06-04T08:31:00Z</time>
      </trkpt>
      <trkpt lat="46.72868" lon="-1.9379">
        <ele>3.3</ele>
        <time>2020-06-04T08:31:01Z</time>
      </trkpt>
      <trkpt lat="46.72863" lon="-1.93797">
        <ele>3.3</ele>
        <time>2020-06-04T08:31:02Z</time>
      </trkpt>
      <trkpt lat="46.72858" lon="-1.93803">
        <ele>3.3</ele>
        <time>2020-06-04T08:31:03Z</time>
      </trkpt>
      <trkpt lat="46.72853" lon="-1.93809">
        <ele>3.3</ele>
        <time>2020-06-04T08:31:04Z</time>
      </trkpt>
      <trkpt lat="46.72848" lon="-1.93815">
        <ele>3.3</ele>
        <time>2020-06-04T08:31:05Z</time>
      </trkpt>
      <trkpt lat="46.72842" lon="-1.9382">
        <ele>3.3</ele>
        <time>2020-06-04T08:31:06Z</time>
      </trkpt>
      <trkpt lat="46.72837" lon="-1.93826">
        <ele>3.3</ele>
        <time>2020-06-04T08:31:07Z</time>
      </trkpt>
      <trkpt lat="46.72832" lon="-1.93831">
        <ele>3.3</ele>
        <time>2020-06-04T08:31:08Z</time>
      </trkpt>
      <trkpt lat="46.72826" lon="-1.93836">
        <ele>3.3</ele>
        <time>2020-06-04T08:31:09Z</time>
      </trkpt>
      <trkpt lat="46.72821" lon="-1.93841">
        <ele>3.3</ele>
        <time>2020-06-04T08:31:10Z</time>
      </trkpt>
      <trkpt lat="46.72815" lon="-1.93846">
        <ele>3.2</ele>
        <time>2020-06-04T08:31:11Z</time>
      </trkpt>
      <trkpt lat="46.72809" lon="-1.93851">
        <ele>3.2</ele>
        <time>2020-06-04T08:31:12Z</time>
      </trkpt>
      <trkpt lat="46.72803" lon="-1.93856">
        <ele>3.2</ele>
        <time>2020-06-04T08:31:13Z</time>
      </trkpt>
      <trkpt lat="46.72797" lon="-1.9386">
        <ele>3.2</ele>
        <time>2020-06-04T08:31:14Z</time>
      </trkpt>
      <trkpt lat="46.72792" lon="-1.93866">
        <ele>3.2</ele>
        <time>2020-06-04T08:31:15Z</time>
      </trkpt>
      <trkpt lat="46.72786" lon="-1.93871">
        <ele>3.1</ele>
        <time>2020-06-04T08:31:16Z</time>
      </trkpt>
      <trkpt lat="46.7278" lon="-1.93876">
        <ele>3.1</ele>
        <time>2020-06-04T08:31:17Z</time>
      </trkpt>
      <trkpt lat="46.72775" lon="-1.93881">
        <ele>3</ele>
        <time>2020-06-04T08:31:18Z</time>
      </trkpt>
      <trkpt lat="46.72769" lon="-1.93887">
        <ele>3</ele>
        <time>2020-06-04T08:31:19Z</time>
      </trkpt>
      <trkpt lat="46.72764" lon="-1.93892">
        <ele>3</ele>
        <time>2020-06-04T08:31:20Z</time>
      </trkpt>
      <trkpt lat="46.72758" lon="-1.93897">
        <ele>3</ele>
        <time>2020-06-04T08:31:21Z</time>
      </trkpt>
      <trkpt lat="46.72753" lon="-1.93903">
        <ele>2.9</ele>
        <time>2020-06-04T08:31:22Z</time>
      </trkpt>
      <trkpt lat="46.72748" lon="-1.93909">
        <ele>2.9</ele>
        <time>2020-06-04T08:31:23Z</time>
      </trkpt>
      <trkpt lat="46.72743" lon="-1.93914">
        <ele>2.9</ele>
        <time>2020-06-04T08:31:24Z</time>
      </trkpt>
      <trkpt lat="46.72737" lon="-1.93919">
        <ele>2.9</ele>
        <time>2020-06-04T08:31:25Z</time>
      </trkpt>
      <trkpt lat="46.72731" lon="-1.93923">
        <ele>2.9</ele>
        <time>2020-06-04T08:31:26Z</time>
      </trkpt>
      <trkpt lat="46.72726" lon="-1.93927">
        <ele>2.9</ele>
        <time>2020-06-04T08:31:27Z</time>
      </trkpt>
      <trkpt lat="46.7272" lon="-1.9393">
        <ele>2.9</ele>
        <time>2020-06-04T08:31:28Z</time>
      </trkpt>
      <trkpt lat="46.72714" lon="-1.93935">
        <ele>2.9</ele>
        <time>2020-06-04T08:31:29Z</time>
      </trkpt>
      <trkpt lat="46.72709" lon="-1.93938">
        <ele>2.9</ele>
        <time>2020-06-04T08:31:30Z</time>
      </trkpt>
      <trkpt lat="46.72703" lon="-1.93942">
        <ele>2.9</ele>
        <time>2020-06-04T08:31:31Z</time>
      </trkpt>
      <trkpt lat="46.72698" lon="-1.93946">
        <ele>2.9</ele>
        <time>2020-06-04T08:31:32Z</time>
      </trkpt>
      <trkpt lat="46.72692" lon="-1.9395">
        <ele>2.9</ele>
        <time>2020-06-04T08:31:33Z</time>
      </trkpt>
      <trkpt lat="46.72686" lon="-1.93954">
        <ele>2.9</ele>
        <time>2020-06-04T08:31:34Z</time>
      </trkpt>
      <trkpt lat="46.7268" lon="-1.93958">
        <ele>2.9</ele>
        <time>2020-06-04T08:31:35Z</time>
      </trkpt>
      <trkpt lat="46.72674" lon="-1.93962">
        <ele>2.9</ele>
        <time>2020-06-04T08:31:36Z</time>
      </trkpt>
      <trkpt lat="46.72669" lon="-1.93967">
        <ele>2.9</ele>
        <time>2020-06-04T08:31:37Z</time>
      </trkpt>
      <trkpt lat="46.72663" lon="-1.93973">
        <ele>2.9</ele>
        <time>2020-06-04T08:31:38Z</time>
      </trkpt>
      <trkpt lat="46.72659" lon="-1.9398">
        <ele>2.9</ele>
        <time>2020-06-04T08:31:39Z</time>
      </trkpt>
      <trkpt lat="46.72654" lon="-1.93986">
        <ele>3</ele>
        <time>2020-06-04T08:31:40Z</time>
      </trkpt>
      <trkpt lat="46.7265" lon="-1.93994">
        <ele>3</ele>
        <time>2020-06-04T08:31:41Z</time>
      </trkpt>
      <trkpt lat="46.72646" lon="-1.94002">
        <ele>3</ele>
        <time>2020-06-04T08:31:42Z</time>
      </trkpt>
      <trkpt lat="46.72642" lon="-1.94009">
        <ele>3.1</ele>
        <time>2020-06-04T08:31:43Z</time>
      </trkpt>
      <trkpt lat="46.72638" lon="-1.94016">
        <ele>3.2</ele>
        <time>2020-06-04T08:31:44Z</time>
      </trkpt>
      <trkpt lat="46.72634" lon="-1.94024">
        <ele>3.2</ele>
        <time>2020-06-04T08:31:45Z</time>
      </trkpt>
      <trkpt lat="46.7263" lon="-1.94032">
        <ele>3.3</ele>
        <time>2020-06-04T08:31:46Z</time>
      </trkpt>
      <trkpt lat="46.72627" lon="-1.94039">
        <ele>3.4</ele>
        <time>2020-06-04T08:31:47Z</time>
      </trkpt>
      <trkpt lat="46.72623" lon="-1.94047">
        <ele>3.5</ele>
        <time>2020-06-04T08:31:48Z</time>
      </trkpt>
      <trkpt lat="46.7262" lon="-1.94055">
        <ele>3.5</ele>
        <time>2020-06-04T08:31:49Z</time>
      </trkpt>
      <trkpt lat="46.72616" lon="-1.94063">
        <ele>3.5</ele>
        <time>2020-06-04T08:31:50Z</time>
      </trkpt>
      <trkpt lat="46.72613" lon="-1.94071">
        <ele>3.5</ele>
        <time>2020-06-04T08:31:51Z</time>
      </trkpt>
      <trkpt lat="46.7261" lon="-1.94078">
        <ele>3.6</ele>
        <time>2020-06-04T08:31:52Z</time>
      </trkpt>
      <trkpt lat="46.72606" lon="-1.94086">
        <ele>3.6</ele>
        <time>2020-06-04T08:31:53Z</time>
      </trkpt>
      <trkpt lat="46.72603" lon="-1.94093">
        <ele>3.6</ele>
        <time>2020-06-04T08:31:54Z</time>
      </trkpt>
      <trkpt lat="46.726" lon="-1.94101">
        <ele>3.6</ele>
        <time>2020-06-04T08:31:55Z</time>
      </trkpt>
      <trkpt lat="46.72597" lon="-1.94109">
        <ele>3.5</ele>
        <time>2020-06-04T08:31:56Z</time>
      </trkpt>
      <trkpt lat="46.72594" lon="-1.94118">
        <ele>3.5</ele>
        <time>2020-06-04T08:31:57Z</time>
      </trkpt>
      <trkpt lat="46.72591" lon="-1.94125">
        <ele>3.5</ele>
        <time>2020-06-04T08:31:58Z</time>
      </trkpt>
      <trkpt lat="46.72587" lon="-1.94133">
        <ele>3.6</ele>
        <time>2020-06-04T08:31:59Z</time>
      </trkpt>
      <trkpt lat="46.72584" lon="-1.94141">
        <ele>3.6</ele>
        <time>2020-06-04T08:32:00Z</time>
      </trkpt>
      <trkpt lat="46.72581" lon="-1.94149">
        <ele>3.6</ele>
        <time>2020-06-04T08:32:01Z</time>
      </trkpt>
      <trkpt lat="46.72577" lon="-1.94156">
        <ele>3.6</ele>
        <time>2020-06-04T08:32:02Z</time>
      </trkpt>
      <trkpt lat="46.72574" lon="-1.94164">
        <ele>3.6</ele>
        <time>2020-06-04T08:32:03Z</time>
      </trkpt>
      <trkpt lat="46.72571" lon="-1.94172">
        <ele>3.6</ele>
        <time>2020-06-04T08:32:04Z</time>
      </trkpt>
      <trkpt lat="46.72568" lon="-1.94179">
        <ele>3.7</ele>
        <time>2020-06-04T08:32:05Z</time>
      </trkpt>
      <trkpt lat="46.72565" lon="-1.94186">
        <ele>3.7</ele>
        <time>2020-06-04T08:32:06Z</time>
      </trkpt>
      <trkpt lat="46.72562" lon="-1.94194">
        <ele>3.7</ele>
        <time>2020-06-04T08:32:07Z</time>
      </trkpt>
      <trkpt lat="46.72559" lon="-1.942">
        <ele>3.8</ele>
        <time>2020-06-04T08:32:08Z</time>
      </trkpt>
      <trkpt lat="46.72556" lon="-1.94207">
        <ele>3.8</ele>
        <time>2020-06-04T08:32:09Z</time>
      </trkpt>
      <trkpt lat="46.72553" lon="-1.94215">
        <ele>3.9</ele>
        <time>2020-06-04T08:32:10Z</time>
      </trkpt>
      <trkpt lat="46.72551" lon="-1.94222">
        <ele>3.9</ele>
        <time>2020-06-04T08:32:11Z</time>
      </trkpt>
      <trkpt lat="46.72549" lon="-1.94229">
        <ele>4</ele>
        <time>2020-06-04T08:32:12Z</time>
      </trkpt>
      <trkpt lat="46.72547" lon="-1.94236">
        <ele>4.1</ele>
        <time>2020-06-04T08:32:13Z</time>
      </trkpt>
      <trkpt lat="46.72545" lon="-1.94244">
        <ele>4.3</ele>
        <time>2020-06-04T08:32:14Z</time>
      </trkpt>
      <trkpt lat="46.72543" lon="-1.9425">
        <ele>4.4</ele>
        <time>2020-06-04T08:32:15Z</time>
      </trkpt>
      <trkpt lat="46.72541" lon="-1.94257">
        <ele>4.5</ele>
        <time>2020-06-04T08:32:16Z</time>
      </trkpt>
      <trkpt lat="46.72538" lon="-1.94264">
        <ele>4.6</ele>
        <time>2020-06-04T08:32:17Z</time>
      </trkpt>
      <trkpt lat="46.72536" lon="-1.94272">
        <ele>4.7</ele>
        <time>2020-06-04T08:32:18Z</time>
      </trkpt>
      <trkpt lat="46.72533" lon="-1.94279">
        <ele>4.8</ele>
        <time>2020-06-04T08:32:19Z</time>
      </trkpt>
      <trkpt lat="46.7253" lon="-1.94286">
        <ele>4.9</ele>
        <time>2020-06-04T08:32:20Z</time>
      </trkpt>
      <trkpt lat="46.72526" lon="-1.94292">
        <ele>5</ele>
        <time>2020-06-04T08:32:21Z</time>
      </trkpt>
      <trkpt lat="46.72523" lon="-1.94298">
        <ele>5.1</ele>
        <time>2020-06-04T08:32:22Z</time>
      </trkpt>
      <trkpt lat="46.7252" lon="-1.94303">
        <ele>5.2</ele>
        <time>2020-06-04T08:32:23Z</time>
      </trkpt>
      <trkpt lat="46.72515" lon="-1.94307">
        <ele>5.3</ele>
        <time>2020-06-04T08:32:24Z</time>
      </trkpt>
      <trkpt lat="46.72511" lon="-1.94312">
        <ele>5.4</ele>
        <time>2020-06-04T08:32:25Z</time>
      </trkpt>
      <trkpt lat="46.72506" lon="-1.94315">
        <ele>5.4</ele>
        <time>2020-06-04T08:32:26Z</time>
      </trkpt>
      <trkpt lat="46.72501" lon="-1.94318">
        <ele>5.5</ele>
        <time>2020-06-04T08:32:27Z</time>
      </trkpt>
      <trkpt lat="46.72497" lon="-1.94321">
        <ele>5.6</ele>
        <time>2020-06-04T08:32:28Z</time>
      </trkpt>
      <trkpt lat="46.72493" lon="-1.94323">
        <ele>5.6</ele>
        <time>2020-06-04T08:32:29Z</time>
      </trkpt>
      <trkpt lat="46.7249" lon="-1.94326">
        <ele>5.7</ele>
        <time>2020-06-04T08:32:30Z</time>
      </trkpt>
      <trkpt lat="46.7249" lon="-1.94326">
        <ele>5.7</ele>
        <time>2020-06-04T08:32:31Z</time>
      </trkpt>
      <trkpt lat="46.72489" lon="-1.94328">
        <ele>5.7</ele>
        <time>2020-06-04T08:32:32Z</time>
      </trkpt>
      <trkpt lat="46.72489" lon="-1.94331">
        <ele>5.7</ele>
        <time>2020-06-04T08:32:33Z</time>
      </trkpt>
      <trkpt lat="46.7249" lon="-1.94337">
        <ele>5.7</ele>
        <time>2020-06-04T08:32:34Z</time>
      </trkpt>
      <trkpt lat="46.7249" lon="-1.94339">
        <ele>5.7</ele>
        <time>2020-06-04T08:32:35Z</time>
      </trkpt>
      <trkpt lat="46.72491" lon="-1.94342">
        <ele>5.7</ele>
        <time>2020-06-04T08:32:36Z</time>
      </trkpt>
      <trkpt lat="46.72491" lon="-1.94348">
        <ele>5.7</ele>
        <time>2020-06-04T08:32:37Z</time>
      </trkpt>
      <trkpt lat="46.72492" lon="-1.9435">
        <ele>5.7</ele>
        <time>2020-06-04T08:32:38Z</time>
      </trkpt>
      <trkpt lat="46.72493" lon="-1.94355">
        <ele>5.7</ele>
        <time>2020-06-04T08:32:39Z</time>
      </trkpt>
      <trkpt lat="46.72494" lon="-1.94357">
        <ele>5.7</ele>
        <time>2020-06-04T08:32:40Z</time>
      </trkpt>
      <trkpt lat="46.72496" lon="-1.9436">
        <ele>5.8</ele>
        <time>2020-06-04T08:32:41Z</time>
      </trkpt>
      <trkpt lat="46.72498" lon="-1.94364">
        <ele>5.8</ele>
        <time>2020-06-04T08:32:42Z</time>
      </trkpt>
      <trkpt lat="46.725" lon="-1.94367">
        <ele>5.8</ele>
        <time>2020-06-04T08:32:43Z</time>
      </trkpt>
      <trkpt lat="46.72501" lon="-1.94372">
        <ele>5.8</ele>
        <time>2020-06-04T08:32:44Z</time>
      </trkpt>
      <trkpt lat="46.72503" lon="-1.94376">
        <ele>5.9</ele>
        <time>2020-06-04T08:32:45Z</time>
      </trkpt>
      <trkpt lat="46.72505" lon="-1.9438">
        <ele>5.9</ele>
        <time>2020-06-04T08:32:46Z</time>
      </trkpt>
      <trkpt lat="46.72507" lon="-1.94384">
        <ele>5.9</ele>
        <time>2020-06-04T08:32:47Z</time>
      </trkpt>
      <trkpt lat="46.7251" lon="-1.94389">
        <ele>5.9</ele>
        <time>2020-06-04T08:32:48Z</time>
      </trkpt>
      <trkpt lat="46.72513" lon="-1.94393">
        <ele>5.9</ele>
        <time>2020-06-04T08:32:49Z</time>
      </trkpt>
      <trkpt lat="46.72515" lon="-1.94397">
        <ele>5.9</ele>
        <time>2020-06-04T08:32:50Z</time>
      </trkpt>
      <trkpt lat="46.72518" lon="-1.94402">
        <ele>5.9</ele>
        <time>2020-06-04T08:32:51Z</time>
      </trkpt>
      <trkpt lat="46.72521" lon="-1.94407">
        <ele>5.8</ele>
        <time>2020-06-04T08:32:52Z</time>
      </trkpt>
      <trkpt lat="46.72524" lon="-1.94413">
        <ele>5.8</ele>
        <time>2020-06-04T08:32:53Z</time>
      </trkpt>
      <trkpt lat="46.72528" lon="-1.94418">
        <ele>5.8</ele>
        <time>2020-06-04T08:32:54Z</time>
      </trkpt>
      <trkpt lat="46.72532" lon="-1.94424">
        <ele>5.8</ele>
        <time>2020-06-04T08:32:55Z</time>
      </trkpt>
      <trkpt lat="46.72535" lon="-1.94429">
        <ele>5.7</ele>
        <time>2020-06-04T08:32:56Z</time>
      </trkpt>
      <trkpt lat="46.72539" lon="-1.94436">
        <ele>5.7</ele>
        <time>2020-06-04T08:32:57Z</time>
      </trkpt>
      <trkpt lat="46.72542" lon="-1.94442">
        <ele>5.6</ele>
        <time>2020-06-04T08:32:58Z</time>
      </trkpt>
      <trkpt lat="46.72545" lon="-1.94449">
        <ele>5.6</ele>
        <time>2020-06-04T08:32:59Z</time>
      </trkpt>
      <trkpt lat="46.72548" lon="-1.94456">
        <ele>5.5</ele>
        <time>2020-06-04T08:33:00Z</time>
      </trkpt>
      <trkpt lat="46.72551" lon="-1.94462">
        <ele>5.4</ele>
        <time>2020-06-04T08:33:01Z</time>
      </trkpt>
      <trkpt lat="46.72554" lon="-1.9447">
        <ele>5.4</ele>
        <time>2020-06-04T08:33:02Z</time>
      </trkpt>
      <trkpt lat="46.72558" lon="-1.94477">
        <ele>5.3</ele>
        <time>2020-06-04T08:33:03Z</time>
      </trkpt>
      <trkpt lat="46.72562" lon="-1.94482">
        <ele>5.2</ele>
        <time>2020-06-04T08:33:04Z</time>
      </trkpt>
      <trkpt lat="46.72566" lon="-1.94488">
        <ele>5.1</ele>
        <time>2020-06-04T08:33:05Z</time>
      </trkpt>
      <trkpt lat="46.7257" lon="-1.94495">
        <ele>5</ele>
        <time>2020-06-04T08:33:06Z</time>
      </trkpt>
      <trkpt lat="46.72573" lon="-1.94502">
        <ele>4.9</ele>
        <time>2020-06-04T08:33:07Z</time>
      </trkpt>
      <trkpt lat="46.72576" lon="-1.94509">
        <ele>4.8</ele>
        <time>2020-06-04T08:33:08Z</time>
      </trkpt>
      <trkpt lat="46.7258" lon="-1.94516">
        <ele>4.7</ele>
        <time>2020-06-04T08:33:09Z</time>
      </trkpt>
      <trkpt lat="46.72584" lon="-1.94522">
        <ele>4.7</ele>
        <time>2020-06-04T08:33:10Z</time>
      </trkpt>
      <trkpt lat="46.72587" lon="-1.94529">
        <ele>4.6</ele>
        <time>2020-06-04T08:33:11Z</time>
      </trkpt>
      <trkpt lat="46.7259" lon="-1.94536">
        <ele>4.6</ele>
        <time>2020-06-04T08:33:12Z</time>
      </trkpt>
      <trkpt lat="46.72594" lon="-1.94543">
        <ele>4.6</ele>
        <time>2020-06-04T08:33:13Z</time>
      </trkpt>
      <trkpt lat="46.72597" lon="-1.94548">
        <ele>4.6</ele>
        <time>2020-06-04T08:33:14Z</time>
      </trkpt>
      <trkpt lat="46.72601" lon="-1.94555">
        <ele>4.6</ele>
        <time>2020-06-04T08:33:15Z</time>
      </trkpt>
      <trkpt lat="46.72605" lon="-1.94561">
        <ele>4.6</ele>
        <time>2020-06-04T08:33:16Z</time>
      </trkpt>
      <trkpt lat="46.72608" lon="-1.94567">
        <ele>4.6</ele>
        <time>2020-06-04T08:33:17Z</time>
      </trkpt>
      <trkpt lat="46.72612" lon="-1.94574">
        <ele>4.6</ele>
        <time>2020-06-04T08:33:18Z</time>
      </trkpt>
      <trkpt lat="46.72616" lon="-1.9458">
        <ele>4.6</ele>
        <time>2020-06-04T08:33:19Z</time>
      </trkpt>
      <trkpt lat="46.7262" lon="-1.94586">
        <ele>4.5</ele>
        <time>2020-06-04T08:33:20Z</time>
      </trkpt>
      <trkpt lat="46.72623" lon="-1.94593">
        <ele>4.4</ele>
        <time>2020-06-04T08:33:21Z</time>
      </trkpt>
      <trkpt lat="46.72627" lon="-1.94599">
        <ele>4.4</ele>
        <time>2020-06-04T08:33:22Z</time>
      </trkpt>
      <trkpt lat="46.72631" lon="-1.94606">
        <ele>4.3</ele>
        <time>2020-06-04T08:33:23Z</time>
      </trkpt>
      <trkpt lat="46.72635" lon="-1.94613">
        <ele>4.2</ele>
        <time>2020-06-04T08:33:24Z</time>
      </trkpt>
      <trkpt lat="46.72639" lon="-1.9462">
        <ele>4.1</ele>
        <time>2020-06-04T08:33:25Z</time>
      </trkpt>
      <trkpt lat="46.72643" lon="-1.94627">
        <ele>4</ele>
        <time>2020-06-04T08:33:26Z</time>
      </trkpt>
      <trkpt lat="46.72647" lon="-1.94635">
        <ele>4</ele>
        <time>2020-06-04T08:33:27Z</time>
      </trkpt>
      <trkpt lat="46.7265" lon="-1.94642">
        <ele>3.9</ele>
        <time>2020-06-04T08:33:28Z</time>
      </trkpt>
      <trkpt lat="46.72655" lon="-1.9465">
        <ele>3.9</ele>
        <time>2020-06-04T08:33:29Z</time>
      </trkpt>
      <trkpt lat="46.72659" lon="-1.94657">
        <ele>3.9</ele>
        <time>2020-06-04T08:33:30Z</time>
      </trkpt>
      <trkpt lat="46.72663" lon="-1.94664">
        <ele>3.9</ele>
        <time>2020-06-04T08:33:31Z</time>
      </trkpt>
      <trkpt lat="46.72666" lon="-1.94671">
        <ele>3.9</ele>
        <time>2020-06-04T08:33:32Z</time>
      </trkpt>
      <trkpt lat="46.7267" lon="-1.94677">
        <ele>3.9</ele>
        <time>2020-06-04T08:33:33Z</time>
      </trkpt>
      <trkpt lat="46.72673" lon="-1.94684">
        <ele>3.9</ele>
        <time>2020-06-04T08:33:34Z</time>
      </trkpt>
      <trkpt lat="46.72677" lon="-1.94691">
        <ele>3.9</ele>
        <time>2020-06-04T08:33:35Z</time>
      </trkpt>
      <trkpt lat="46.72681" lon="-1.94697">
        <ele>3.9</ele>
        <time>2020-06-04T08:33:36Z</time>
      </trkpt>
      <trkpt lat="46.72686" lon="-1.94704">
        <ele>3.9</ele>
        <time>2020-06-04T08:33:37Z</time>
      </trkpt>
      <trkpt lat="46.72689" lon="-1.94711">
        <ele>4</ele>
        <time>2020-06-04T08:33:38Z</time>
      </trkpt>
      <trkpt lat="46.72693" lon="-1.94717">
        <ele>4</ele>
        <time>2020-06-04T08:33:39Z</time>
      </trkpt>
      <trkpt lat="46.72697" lon="-1.94724">
        <ele>4</ele>
        <time>2020-06-04T08:33:40Z</time>
      </trkpt>
      <trkpt lat="46.72701" lon="-1.94731">
        <ele>4</ele>
        <time>2020-06-04T08:33:41Z</time>
      </trkpt>
      <trkpt lat="46.72704" lon="-1.94738">
        <ele>4</ele>
        <time>2020-06-04T08:33:42Z</time>
      </trkpt>
      <trkpt lat="46.72708" lon="-1.94745">
        <ele>4.1</ele>
        <time>2020-06-04T08:33:43Z</time>
      </trkpt>
      <trkpt lat="46.72713" lon="-1.9475">
        <ele>4.1</ele>
        <time>2020-06-04T08:33:44Z</time>
      </trkpt>
      <trkpt lat="46.72717" lon="-1.94755">
        <ele>4.1</ele>
        <time>2020-06-04T08:33:45Z</time>
      </trkpt>
      <trkpt lat="46.7272" lon="-1.94761">
        <ele>4.2</ele>
        <time>2020-06-04T08:33:46Z</time>
      </trkpt>
      <trkpt lat="46.72724" lon="-1.94766">
        <ele>4.2</ele>
        <time>2020-06-04T08:33:47Z</time>
      </trkpt>
      <trkpt lat="46.72728" lon="-1.94772">
        <ele>4.2</ele>
        <time>2020-06-04T08:33:48Z</time>
      </trkpt>
      <trkpt lat="46.72731" lon="-1.94778">
        <ele>4.2</ele>
        <time>2020-06-04T08:33:49Z</time>
      </trkpt>
      <trkpt lat="46.72734" lon="-1.94784">
        <ele>4.2</ele>
        <time>2020-06-04T08:33:50Z</time>
      </trkpt>
      <trkpt lat="46.72737" lon="-1.94791">
        <ele>4.3</ele>
        <time>2020-06-04T08:33:51Z</time>
      </trkpt>
      <trkpt lat="46.72741" lon="-1.94797">
        <ele>4.3</ele>
        <time>2020-06-04T08:33:52Z</time>
      </trkpt>
      <trkpt lat="46.72745" lon="-1.94803">
        <ele>4.3</ele>
        <time>2020-06-04T08:33:53Z</time>
      </trkpt>
      <trkpt lat="46.72748" lon="-1.94809">
        <ele>4.3</ele>
        <time>2020-06-04T08:33:54Z</time>
      </trkpt>
      <trkpt lat="46.72752" lon="-1.94816">
        <ele>4.3</ele>
        <time>2020-06-04T08:33:55Z</time>
      </trkpt>
      <trkpt lat="46.72755" lon="-1.94822">
        <ele>4.4</ele>
        <time>2020-06-04T08:33:56Z</time>
      </trkpt>
      <trkpt lat="46.72759" lon="-1.94829">
        <ele>4.4</ele>
        <time>2020-06-04T08:33:57Z</time>
      </trkpt>
      <trkpt lat="46.72762" lon="-1.94836">
        <ele>4.5</ele>
        <time>2020-06-04T08:33:58Z</time>
      </trkpt>
      <trkpt lat="46.72765" lon="-1.94842">
        <ele>4.5</ele>
        <time>2020-06-04T08:33:59Z</time>
      </trkpt>
      <trkpt lat="46.72768" lon="-1.94846">
        <ele>4.6</ele>
        <time>2020-06-04T08:34:00Z</time>
      </trkpt>
      <trkpt lat="46.7277" lon="-1.94849">
        <ele>4.6</ele>
        <time>2020-06-04T08:34:01Z</time>
      </trkpt>
      <trkpt lat="46.72771" lon="-1.94851">
        <ele>4.7</ele>
        <time>2020-06-04T08:34:02Z</time>
      </trkpt>
      <trkpt lat="46.7277" lon="-1.94852">
        <ele>4.9</ele>
        <time>2020-06-04T08:34:03Z</time>
      </trkpt>
      <trkpt lat="46.72769" lon="-1.94853">
        <ele>5</ele>
        <time>2020-06-04T08:34:04Z</time>
      </trkpt>
      <trkpt lat="46.72766" lon="-1.94854">
        <ele>5</ele>
        <time>2020-06-04T08:34:05Z</time>
      </trkpt>
      <trkpt lat="46.72765" lon="-1.94854">
        <ele>5</ele>
        <time>2020-06-04T08:34:06Z</time>
      </trkpt>
      <trkpt lat="46.72762" lon="-1.94856">
        <ele>5</ele>
        <time>2020-06-04T08:34:07Z</time>
      </trkpt>
      <trkpt lat="46.72761" lon="-1.94857">
        <ele>5</ele>
        <time>2020-06-04T08:34:08Z</time>
      </trkpt>
      <trkpt lat="46.72758" lon="-1.94859">
        <ele>5.1</ele>
        <time>2020-06-04T08:34:09Z</time>
      </trkpt>
      <trkpt lat="46.72754" lon="-1.9486">
        <ele>5.1</ele>
        <time>2020-06-04T08:34:10Z</time>
      </trkpt>
      <trkpt lat="46.72751" lon="-1.94861">
        <ele>5</ele>
        <time>2020-06-04T08:34:11Z</time>
      </trkpt>
      <trkpt lat="46.72747" lon="-1.94863">
        <ele>5</ele>
        <time>2020-06-04T08:34:12Z</time>
      </trkpt>
      <trkpt lat="46.72746" lon="-1.94867">
        <ele>5</ele>
        <time>2020-06-04T08:34:13Z</time>
      </trkpt>
      <trkpt lat="46.72745" lon="-1.94874">
        <ele>5</ele>
        <time>2020-06-04T08:34:14Z</time>
      </trkpt>
      <trkpt lat="46.72745" lon="-1.9488">
        <ele>5</ele>
        <time>2020-06-04T08:34:15Z</time>
      </trkpt>
      <trkpt lat="46.72744" lon="-1.94885">
        <ele>4.9</ele>
        <time>2020-06-04T08:34:16Z</time>
      </trkpt>
      <trkpt lat="46.72744" lon="-1.94891">
        <ele>4.9</ele>
        <time>2020-06-04T08:34:17Z</time>
      </trkpt>
      <trkpt lat="46.72743" lon="-1.94896">
        <ele>4.9</ele>
        <time>2020-06-04T08:34:18Z</time>
      </trkpt>
      <trkpt lat="46.72742" lon="-1.949">
        <ele>4.9</ele>
        <time>2020-06-04T08:34:19Z</time>
      </trkpt>
      <trkpt lat="46.72741" lon="-1.94904">
        <ele>4.9</ele>
        <time>2020-06-04T08:34:20Z</time>
      </trkpt>
      <trkpt lat="46.7274" lon="-1.94908">
        <ele>4.9</ele>
        <time>2020-06-04T08:34:21Z</time>
      </trkpt>
      <trkpt lat="46.72738" lon="-1.94911">
        <ele>4.9</ele>
        <time>2020-06-04T08:34:22Z</time>
      </trkpt>
      <trkpt lat="46.72736" lon="-1.94913">
        <ele>4.9</ele>
        <time>2020-06-04T08:34:23Z</time>
      </trkpt>
      <trkpt lat="46.72733" lon="-1.94918">
        <ele>4.9</ele>
        <time>2020-06-04T08:34:24Z</time>
      </trkpt>
      <trkpt lat="46.72733" lon="-1.94919">
        <ele>4.9</ele>
        <time>2020-06-04T08:34:25Z</time>
      </trkpt>
      <trkpt lat="46.72732" lon="-1.94923">
        <ele>4.8</ele>
        <time>2020-06-04T08:34:26Z</time>
      </trkpt>
      <trkpt lat="46.72729" lon="-1.94927">
        <ele>4.8</ele>
        <time>2020-06-04T08:34:27Z</time>
      </trkpt>
      <trkpt lat="46.72729" lon="-1.94929">
        <ele>4.8</ele>
        <time>2020-06-04T08:34:28Z</time>
      </trkpt>
      <trkpt lat="46.72727" lon="-1.94933">
        <ele>4.8</ele>
        <time>2020-06-04T08:34:29Z</time>
      </trkpt>
      <trkpt lat="46.72726" lon="-1.94934">
        <ele>4.8</ele>
        <time>2020-06-04T08:34:30Z</time>
      </trkpt>
      <trkpt lat="46.72725" lon="-1.94936">
        <ele>4.8</ele>
        <time>2020-06-04T08:34:31Z</time>
      </trkpt>
      <trkpt lat="46.72724" lon="-1.94938">
        <ele>4.8</ele>
        <time>2020-06-04T08:34:32Z</time>
      </trkpt>
      <trkpt lat="46.72722" lon="-1.94939">
        <ele>4.8</ele>
        <time>2020-06-04T08:34:33Z</time>
      </trkpt>
      <trkpt lat="46.72721" lon="-1.94939">
        <ele>4.8</ele>
        <time>2020-06-04T08:34:34Z</time>
      </trkpt>
      <trkpt lat="46.72719" lon="-1.9494">
        <ele>4.8</ele>
        <time>2020-06-04T08:34:35Z</time>
      </trkpt>
      <trkpt lat="46.72719" lon="-1.94941">
        <ele>4.8</ele>
        <time>2020-06-04T08:34:36Z</time>
      </trkpt>
      <trkpt lat="46.72718" lon="-1.94941">
        <ele>4.8</ele>
        <time>2020-06-04T08:34:37Z</time>
      </trkpt>
      <trkpt lat="46.72717" lon="-1.94941">
        <ele>4.8</ele>
        <time>2020-06-04T08:34:38Z</time>
      </trkpt>
      <trkpt lat="46.72717" lon="-1.9494">
        <ele>4.8</ele>
        <time>2020-06-04T08:34:39Z</time>
      </trkpt>
      <trkpt lat="46.72717" lon="-1.94941">
        <ele>4.8</ele>
        <time>2020-06-04T08:34:40Z</time>
      </trkpt>
      <trkpt lat="46.72718" lon="-1.94941">
        <ele>4.8</ele>
        <time>2020-06-04T08:34:41Z</time>
      </trkpt>
      <trkpt lat="46.72719" lon="-1.94942">
        <ele>4.7</ele>
        <time>2020-06-04T08:34:42Z</time>
      </trkpt>
      <trkpt lat="46.7272" lon="-1.94943">
        <ele>4.7</ele>
        <time>2020-06-04T08:34:43Z</time>
      </trkpt>
      <trkpt lat="46.7272" lon="-1.94943">
        <ele>4.7</ele>
        <time>2020-06-04T08:34:44Z</time>
      </trkpt>
      <trkpt lat="46.7272" lon="-1.94942">
        <ele>4.7</ele>
        <time>2020-06-04T08:34:45Z</time>
      </trkpt>
      <trkpt lat="46.7272" lon="-1.94943">
        <ele>4.7</ele>
        <time>2020-06-04T08:34:46Z</time>
      </trkpt>
      <trkpt lat="46.7272" lon="-1.94943">
        <ele>4.7</ele>
        <time>2020-06-04T08:34:47Z</time>
      </trkpt>
      <trkpt lat="46.72719" lon="-1.94944">
        <ele>4.7</ele>
        <time>2020-06-04T08:34:48Z</time>
      </trkpt>
      <trkpt lat="46.72719" lon="-1.94954">
        <ele>4.7</ele>
        <time>2020-06-04T08:35:06Z</time>
      </trkpt>
      <trkpt lat="46.72719" lon="-1.94957">
        <ele>4.7</ele>
        <time>2020-06-04T08:35:07Z</time>
      </trkpt>
      <trkpt lat="46.72717" lon="-1.9496">
        <ele>4.7</ele>
        <time>2020-06-04T08:35:08Z</time>
      </trkpt>
      <trkpt lat="46.72716" lon="-1.94965">
        <ele>4.7</ele>
        <time>2020-06-04T08:35:09Z</time>
      </trkpt>
      <trkpt lat="46.72716" lon="-1.94969">
        <ele>4.7</ele>
        <time>2020-06-04T08:35:10Z</time>
      </trkpt>
      <trkpt lat="46.72716" lon="-1.94974">
        <ele>4.7</ele>
        <time>2020-06-04T08:35:11Z</time>
      </trkpt>
      <trkpt lat="46.72717" lon="-1.9498">
        <ele>4.8</ele>
        <time>2020-06-04T08:35:12Z</time>
      </trkpt>
      <trkpt lat="46.72717" lon="-1.94985">
        <ele>4.8</ele>
        <time>2020-06-04T08:35:13Z</time>
      </trkpt>
      <trkpt lat="46.72718" lon="-1.9499">
        <ele>4.8</ele>
        <time>2020-06-04T08:35:14Z</time>
      </trkpt>
      <trkpt lat="46.72719" lon="-1.94996">
        <ele>4.8</ele>
        <time>2020-06-04T08:35:15Z</time>
      </trkpt>
      <trkpt lat="46.72719" lon="-1.95002">
        <ele>4.8</ele>
        <time>2020-06-04T08:35:16Z</time>
      </trkpt>
      <trkpt lat="46.72719" lon="-1.95008">
        <ele>4.8</ele>
        <time>2020-06-04T08:35:17Z</time>
      </trkpt>
      <trkpt lat="46.72719" lon="-1.95014">
        <ele>4.9</ele>
        <time>2020-06-04T08:35:18Z</time>
      </trkpt>
      <trkpt lat="46.72719" lon="-1.9502">
        <ele>4.9</ele>
        <time>2020-06-04T08:35:19Z</time>
      </trkpt>
      <trkpt lat="46.72719" lon="-1.95027">
        <ele>4.9</ele>
        <time>2020-06-04T08:35:20Z</time>
      </trkpt>
      <trkpt lat="46.72719" lon="-1.95034">
        <ele>4.9</ele>
        <time>2020-06-04T08:35:21Z</time>
      </trkpt>
      <trkpt lat="46.72719" lon="-1.95041">
        <ele>4.9</ele>
        <time>2020-06-04T08:35:22Z</time>
      </trkpt>
      <trkpt lat="46.72719" lon="-1.95048">
        <ele>4.9</ele>
        <time>2020-06-04T08:35:23Z</time>
      </trkpt>
      <trkpt lat="46.72719" lon="-1.95055">
        <ele>4.9</ele>
        <time>2020-06-04T08:35:24Z</time>
      </trkpt>
      <trkpt lat="46.72719" lon="-1.95062">
        <ele>4.9</ele>
        <time>2020-06-04T08:35:25Z</time>
      </trkpt>
      <trkpt lat="46.7272" lon="-1.95069">
        <ele>4.9</ele>
        <time>2020-06-04T08:35:26Z</time>
      </trkpt>
      <trkpt lat="46.7272" lon="-1.95076">
        <ele>5</ele>
        <time>2020-06-04T08:35:27Z</time>
      </trkpt>
      <trkpt lat="46.7272" lon="-1.95082">
        <ele>5</ele>
        <time>2020-06-04T08:35:28Z</time>
      </trkpt>
      <trkpt lat="46.7272" lon="-1.95089">
        <ele>5</ele>
        <time>2020-06-04T08:35:29Z</time>
      </trkpt>
      <trkpt lat="46.72721" lon="-1.95096">
        <ele>5</ele>
        <time>2020-06-04T08:35:30Z</time>
      </trkpt>
      <trkpt lat="46.72721" lon="-1.95102">
        <ele>5</ele>
        <time>2020-06-04T08:35:31Z</time>
      </trkpt>
      <trkpt lat="46.72721" lon="-1.95109">
        <ele>5</ele>
        <time>2020-06-04T08:35:32Z</time>
      </trkpt>
      <trkpt lat="46.72722" lon="-1.95116">
        <ele>4.9</ele>
        <time>2020-06-04T08:35:33Z</time>
      </trkpt>
      <trkpt lat="46.72722" lon="-1.95123">
        <ele>4.9</ele>
        <time>2020-06-04T08:35:34Z</time>
      </trkpt>
      <trkpt lat="46.72722" lon="-1.9513">
        <ele>4.9</ele>
        <time>2020-06-04T08:35:35Z</time>
      </trkpt>
      <trkpt lat="46.72722" lon="-1.95137">
        <ele>4.9</ele>
        <time>2020-06-04T08:35:36Z</time>
      </trkpt>
      <trkpt lat="46.72722" lon="-1.95144">
        <ele>4.9</ele>
        <time>2020-06-04T08:35:37Z</time>
      </trkpt>
      <trkpt lat="46.72723" lon="-1.95151">
        <ele>5</ele>
        <time>2020-06-04T08:35:38Z</time>
      </trkpt>
      <trkpt lat="46.72723" lon="-1.95158">
        <ele>5</ele>
        <time>2020-06-04T08:35:39Z</time>
      </trkpt>
      <trkpt lat="46.72723" lon="-1.95165">
        <ele>5</ele>
        <time>2020-06-04T08:35:40Z</time>
      </trkpt>
      <trkpt lat="46.72723" lon="-1.95171">
        <ele>5</ele>
        <time>2020-06-04T08:35:41Z</time>
      </trkpt>
      <trkpt lat="46.72723" lon="-1.95178">
        <ele>5</ele>
        <time>2020-06-04T08:35:42Z</time>
      </trkpt>
      <trkpt lat="46.72724" lon="-1.95184">
        <ele>4.9</ele>
        <time>2020-06-04T08:35:43Z</time>
      </trkpt>
      <trkpt lat="46.72723" lon="-1.95191">
        <ele>4.9</ele>
        <time>2020-06-04T08:35:44Z</time>
      </trkpt>
      <trkpt lat="46.72723" lon="-1.95198">
        <ele>4.9</ele>
        <time>2020-06-04T08:35:45Z</time>
      </trkpt>
      <trkpt lat="46.72722" lon="-1.95204">
        <ele>4.8</ele>
        <time>2020-06-04T08:35:46Z</time>
      </trkpt>
      <trkpt lat="46.72722" lon="-1.95211">
        <ele>4.8</ele>
        <time>2020-06-04T08:35:47Z</time>
      </trkpt>
      <trkpt lat="46.72721" lon="-1.95217">
        <ele>4.7</ele>
        <time>2020-06-04T08:35:48Z</time>
      </trkpt>
      <trkpt lat="46.7272" lon="-1.95223">
        <ele>4.7</ele>
        <time>2020-06-04T08:35:49Z</time>
      </trkpt>
      <trkpt lat="46.72719" lon="-1.95229">
        <ele>4.7</ele>
        <time>2020-06-04T08:35:50Z</time>
      </trkpt>
      <trkpt lat="46.72717" lon="-1.95236">
        <ele>4.6</ele>
        <time>2020-06-04T08:35:51Z</time>
      </trkpt>
      <trkpt lat="46.72715" lon="-1.95242">
        <ele>4.6</ele>
        <time>2020-06-04T08:35:52Z</time>
      </trkpt>
      <trkpt lat="46.72713" lon="-1.95249">
        <ele>4.6</ele>
        <time>2020-06-04T08:35:53Z</time>
      </trkpt>
      <trkpt lat="46.72712" lon="-1.95256">
        <ele>4.5</ele>
        <time>2020-06-04T08:35:54Z</time>
      </trkpt>
      <trkpt lat="46.72711" lon="-1.95262">
        <ele>4.5</ele>
        <time>2020-06-04T08:35:55Z</time>
      </trkpt>
      <trkpt lat="46.7271" lon="-1.95269">
        <ele>4.5</ele>
        <time>2020-06-04T08:35:56Z</time>
      </trkpt>
      <trkpt lat="46.72708" lon="-1.95275">
        <ele>4.5</ele>
        <time>2020-06-04T08:35:57Z</time>
      </trkpt>
      <trkpt lat="46.72707" lon="-1.95282">
        <ele>4.4</ele>
        <time>2020-06-04T08:35:58Z</time>
      </trkpt>
      <trkpt lat="46.72705" lon="-1.95288">
        <ele>4.4</ele>
        <time>2020-06-04T08:35:59Z</time>
      </trkpt>
      <trkpt lat="46.72704" lon="-1.95295">
        <ele>4.4</ele>
        <time>2020-06-04T08:36:00Z</time>
      </trkpt>
      <trkpt lat="46.72702" lon="-1.95302">
        <ele>4.3</ele>
        <time>2020-06-04T08:36:01Z</time>
      </trkpt>
      <trkpt lat="46.727" lon="-1.95309">
        <ele>4.3</ele>
        <time>2020-06-04T08:36:02Z</time>
      </trkpt>
      <trkpt lat="46.72699" lon="-1.95315">
        <ele>4.2</ele>
        <time>2020-06-04T08:36:03Z</time>
      </trkpt>
      <trkpt lat="46.72697" lon="-1.95322">
        <ele>4.2</ele>
        <time>2020-06-04T08:36:04Z</time>
      </trkpt>
      <trkpt lat="46.72696" lon="-1.95329">
        <ele>4.2</ele>
        <time>2020-06-04T08:36:05Z</time>
      </trkpt>
      <trkpt lat="46.72695" lon="-1.95336">
        <ele>4.2</ele>
        <time>2020-06-04T08:36:06Z</time>
      </trkpt>
      <trkpt lat="46.72694" lon="-1.95343">
        <ele>4.1</ele>
        <time>2020-06-04T08:36:07Z</time>
      </trkpt>
      <trkpt lat="46.72692" lon="-1.95349">
        <ele>4.1</ele>
        <time>2020-06-04T08:36:08Z</time>
      </trkpt>
      <trkpt lat="46.7269" lon="-1.95355">
        <ele>4.1</ele>
        <time>2020-06-04T08:36:09Z</time>
      </trkpt>
      <trkpt lat="46.72688" lon="-1.95361">
        <ele>4.1</ele>
        <time>2020-06-04T08:36:10Z</time>
      </trkpt>
      <trkpt lat="46.72685" lon="-1.95366">
        <ele>4.1</ele>
        <time>2020-06-04T08:36:11Z</time>
      </trkpt>
      <trkpt lat="46.72682" lon="-1.9537">
        <ele>4.1</ele>
        <time>2020-06-04T08:36:12Z</time>
      </trkpt>
      <trkpt lat="46.72678" lon="-1.95373">
        <ele>4.1</ele>
        <time>2020-06-04T08:36:13Z</time>
      </trkpt>
      <trkpt lat="46.72674" lon="-1.95374">
        <ele>4.1</ele>
        <time>2020-06-04T08:36:14Z</time>
      </trkpt>
      <trkpt lat="46.7267" lon="-1.95374">
        <ele>4.1</ele>
        <time>2020-06-04T08:36:15Z</time>
      </trkpt>
      <trkpt lat="46.72667" lon="-1.95374">
        <ele>4.1</ele>
        <time>2020-06-04T08:36:16Z</time>
      </trkpt>
      <trkpt lat="46.72664" lon="-1.95375">
        <ele>4.1</ele>
        <time>2020-06-04T08:36:17Z</time>
      </trkpt>
      <trkpt lat="46.7266" lon="-1.95376">
        <ele>4.1</ele>
        <time>2020-06-04T08:36:18Z</time>
      </trkpt>
      <trkpt lat="46.72659" lon="-1.95376">
        <ele>4.1</ele>
        <time>2020-06-04T08:36:19Z</time>
      </trkpt>
      <trkpt lat="46.72655" lon="-1.95377">
        <ele>4.1</ele>
        <time>2020-06-04T08:36:20Z</time>
      </trkpt>
      <trkpt lat="46.72654" lon="-1.95377">
        <ele>4.1</ele>
        <time>2020-06-04T08:36:21Z</time>
      </trkpt>
      <trkpt lat="46.7265" lon="-1.95379">
        <ele>4.1</ele>
        <time>2020-06-04T08:36:22Z</time>
      </trkpt>
      <trkpt lat="46.72649" lon="-1.95379">
        <ele>4.1</ele>
        <time>2020-06-04T08:36:23Z</time>
      </trkpt>
      <trkpt lat="46.72646" lon="-1.95381">
        <ele>4.1</ele>
        <time>2020-06-04T08:36:24Z</time>
      </trkpt>
      <trkpt lat="46.72643" lon="-1.95383">
        <ele>4.1</ele>
        <time>2020-06-04T08:36:25Z</time>
      </trkpt>
      <trkpt lat="46.7264" lon="-1.95384">
        <ele>4.2</ele>
        <time>2020-06-04T08:36:26Z</time>
      </trkpt>
      <trkpt lat="46.72636" lon="-1.95386">
        <ele>4.2</ele>
        <time>2020-06-04T08:36:27Z</time>
      </trkpt>
      <trkpt lat="46.72633" lon="-1.95387">
        <ele>4.2</ele>
        <time>2020-06-04T08:36:28Z</time>
      </trkpt>
      <trkpt lat="46.7263" lon="-1.95388">
        <ele>4.2</ele>
        <time>2020-06-04T08:36:29Z</time>
      </trkpt>
      <trkpt lat="46.72626" lon="-1.95389">
        <ele>4.3</ele>
        <time>2020-06-04T08:36:30Z</time>
      </trkpt>
      <trkpt lat="46.72623" lon="-1.9539">
        <ele>4.3</ele>
        <time>2020-06-04T08:36:31Z</time>
      </trkpt>
      <trkpt lat="46.7262" lon="-1.9539">
        <ele>4.3</ele>
        <time>2020-06-04T08:36:32Z</time>
      </trkpt>
      <trkpt lat="46.72616" lon="-1.95391">
        <ele>4.4</ele>
        <time>2020-06-04T08:36:33Z</time>
      </trkpt>
      <trkpt lat="46.72615" lon="-1.95391">
        <ele>4.4</ele>
        <time>2020-06-04T08:36:34Z</time>
      </trkpt>
      <trkpt lat="46.72612" lon="-1.95392">
        <ele>4.4</ele>
        <time>2020-06-04T08:36:35Z</time>
      </trkpt>
      <trkpt lat="46.72609" lon="-1.95392">
        <ele>4.4</ele>
        <time>2020-06-04T08:36:36Z</time>
      </trkpt>
      <trkpt lat="46.72606" lon="-1.95393">
        <ele>4.5</ele>
        <time>2020-06-04T08:36:37Z</time>
      </trkpt>
      <trkpt lat="46.72603" lon="-1.95394">
        <ele>4.5</ele>
        <time>2020-06-04T08:36:38Z</time>
      </trkpt>
      <trkpt lat="46.726" lon="-1.95394">
        <ele>4.5</ele>
        <time>2020-06-04T08:36:39Z</time>
      </trkpt>
      <trkpt lat="46.72596" lon="-1.95393">
        <ele>4.6</ele>
        <time>2020-06-04T08:36:40Z</time>
      </trkpt>
      <trkpt lat="46.72592" lon="-1.95395">
        <ele>4.6</ele>
        <time>2020-06-04T08:36:41Z</time>
      </trkpt>
      <trkpt lat="46.72588" lon="-1.95396">
        <ele>4.6</ele>
        <time>2020-06-04T08:36:42Z</time>
      </trkpt>
      <trkpt lat="46.72585" lon="-1.95397">
        <ele>4.6</ele>
        <time>2020-06-04T08:36:43Z</time>
      </trkpt>
      <trkpt lat="46.72581" lon="-1.95399">
        <ele>4.7</ele>
        <time>2020-06-04T08:36:44Z</time>
      </trkpt>
      <trkpt lat="46.72578" lon="-1.954">
        <ele>4.7</ele>
        <time>2020-06-04T08:36:45Z</time>
      </trkpt>
      <trkpt lat="46.72575" lon="-1.95401">
        <ele>4.7</ele>
        <time>2020-06-04T08:36:46Z</time>
      </trkpt>
      <trkpt lat="46.72572" lon="-1.95401">
        <ele>4.7</ele>
        <time>2020-06-04T08:36:47Z</time>
      </trkpt>
      <trkpt lat="46.72569" lon="-1.95402">
        <ele>4.8</ele>
        <time>2020-06-04T08:36:48Z</time>
      </trkpt>
      <trkpt lat="46.72565" lon="-1.95402">
        <ele>4.8</ele>
        <time>2020-06-04T08:36:49Z</time>
      </trkpt>
      <trkpt lat="46.72562" lon="-1.95403">
        <ele>4.8</ele>
        <time>2020-06-04T08:36:50Z</time>
      </trkpt>
      <trkpt lat="46.72559" lon="-1.95403">
        <ele>4.9</ele>
        <time>2020-06-04T08:36:51Z</time>
      </trkpt>
      <trkpt lat="46.72556" lon="-1.95403">
        <ele>4.9</ele>
        <time>2020-06-04T08:36:52Z</time>
      </trkpt>
      <trkpt lat="46.72552" lon="-1.95402">
        <ele>4.9</ele>
        <time>2020-06-04T08:36:53Z</time>
      </trkpt>
      <trkpt lat="46.72549" lon="-1.954">
        <ele>5</ele>
        <time>2020-06-04T08:36:54Z</time>
      </trkpt>
      <trkpt lat="46.72546" lon="-1.95399">
        <ele>5</ele>
        <time>2020-06-04T08:36:55Z</time>
      </trkpt>
      <trkpt lat="46.72542" lon="-1.95398">
        <ele>5.1</ele>
        <time>2020-06-04T08:36:56Z</time>
      </trkpt>
      <trkpt lat="46.72539" lon="-1.95398">
        <ele>5.1</ele>
        <time>2020-06-04T08:36:57Z</time>
      </trkpt>
      <trkpt lat="46.72536" lon="-1.95397">
        <ele>5.2</ele>
        <time>2020-06-04T08:36:58Z</time>
      </trkpt>
      <trkpt lat="46.72532" lon="-1.95398">
        <ele>5.3</ele>
        <time>2020-06-04T08:36:59Z</time>
      </trkpt>
      <trkpt lat="46.72528" lon="-1.95398">
        <ele>5.3</ele>
        <time>2020-06-04T08:37:00Z</time>
      </trkpt>
      <trkpt lat="46.72525" lon="-1.95398">
        <ele>5.4</ele>
        <time>2020-06-04T08:37:01Z</time>
      </trkpt>
      <trkpt lat="46.72521" lon="-1.95398">
        <ele>5.4</ele>
        <time>2020-06-04T08:37:02Z</time>
      </trkpt>
      <trkpt lat="46.72518" lon="-1.95399">
        <ele>5.5</ele>
        <time>2020-06-04T08:37:03Z</time>
      </trkpt>
      <trkpt lat="46.72515" lon="-1.954">
        <ele>5.5</ele>
        <time>2020-06-04T08:37:04Z</time>
      </trkpt>
      <trkpt lat="46.72511" lon="-1.95401">
        <ele>5.6</ele>
        <time>2020-06-04T08:37:05Z</time>
      </trkpt>
      <trkpt lat="46.72507" lon="-1.95402">
        <ele>5.6</ele>
        <time>2020-06-04T08:37:06Z</time>
      </trkpt>
      <trkpt lat="46.72503" lon="-1.95402">
        <ele>5.7</ele>
        <time>2020-06-04T08:37:07Z</time>
      </trkpt>
      <trkpt lat="46.725" lon="-1.95403">
        <ele>5.7</ele>
        <time>2020-06-04T08:37:08Z</time>
      </trkpt>
      <trkpt lat="46.72496" lon="-1.95403">
        <ele>5.7</ele>
        <time>2020-06-04T08:37:09Z</time>
      </trkpt>
      <trkpt lat="46.72492" lon="-1.95403">
        <ele>5.8</ele>
        <time>2020-06-04T08:37:10Z</time>
      </trkpt>
      <trkpt lat="46.72488" lon="-1.95404">
        <ele>5.8</ele>
        <time>2020-06-04T08:37:11Z</time>
      </trkpt>
      <trkpt lat="46.72484" lon="-1.95404">
        <ele>5.9</ele>
        <time>2020-06-04T08:37:12Z</time>
      </trkpt>
      <trkpt lat="46.72481" lon="-1.95406">
        <ele>5.9</ele>
        <time>2020-06-04T08:37:13Z</time>
      </trkpt>
      <trkpt lat="46.72478" lon="-1.95408">
        <ele>6</ele>
        <time>2020-06-04T08:37:14Z</time>
      </trkpt>
      <trkpt lat="46.72475" lon="-1.95408">
        <ele>6</ele>
        <time>2020-06-04T08:37:15Z</time>
      </trkpt>
      <trkpt lat="46.72471" lon="-1.95408">
        <ele>6.1</ele>
        <time>2020-06-04T08:37:16Z</time>
      </trkpt>
      <trkpt lat="46.72467" lon="-1.95409">
        <ele>6.1</ele>
        <time>2020-06-04T08:37:17Z</time>
      </trkpt>
      <trkpt lat="46.72465" lon="-1.95411">
        <ele>6.1</ele>
        <time>2020-06-04T08:37:18Z</time>
      </trkpt>
      <trkpt lat="46.72462" lon="-1.95412">
        <ele>6.1</ele>
        <time>2020-06-04T08:37:19Z</time>
      </trkpt>
      <trkpt lat="46.72459" lon="-1.95412">
        <ele>6.2</ele>
        <time>2020-06-04T08:37:20Z</time>
      </trkpt>
      <trkpt lat="46.72456" lon="-1.95412">
        <ele>6.2</ele>
        <time>2020-06-04T08:37:21Z</time>
      </trkpt>
      <trkpt lat="46.72453" lon="-1.95411">
        <ele>6.2</ele>
        <time>2020-06-04T08:37:22Z</time>
      </trkpt>
      <trkpt lat="46.7245" lon="-1.95411">
        <ele>6.2</ele>
        <time>2020-06-04T08:37:23Z</time>
      </trkpt>
      <trkpt lat="46.72449" lon="-1.95412">
        <ele>6.2</ele>
        <time>2020-06-04T08:37:24Z</time>
      </trkpt>
      <trkpt lat="46.72447" lon="-1.95412">
        <ele>6.2</ele>
        <time>2020-06-04T08:37:25Z</time>
      </trkpt>
      <trkpt lat="46.72447" lon="-1.95412">
        <ele>6.2</ele>
        <time>2020-06-04T08:37:26Z</time>
      </trkpt>
      <trkpt lat="46.72447" lon="-1.95412">
        <ele>6.2</ele>
        <time>2020-06-04T08:37:27Z</time>
      </trkpt>
      <trkpt lat="46.72447" lon="-1.95412">
        <ele>6.2</ele>
        <time>2020-06-04T08:37:28Z</time>
      </trkpt>
      <trkpt lat="46.72446" lon="-1.95412">
        <ele>6.2</ele>
        <time>2020-06-04T08:37:29Z</time>
      </trkpt>
      <trkpt lat="46.72446" lon="-1.95413">
        <ele>6.3</ele>
        <time>2020-06-04T08:37:30Z</time>
      </trkpt>
      <trkpt lat="46.72444" lon="-1.95418">
        <ele>6.3</ele>
        <time>2020-06-04T08:37:31Z</time>
      </trkpt>
      <trkpt lat="46.72444" lon="-1.9542">
        <ele>6.3</ele>
        <time>2020-06-04T08:37:32Z</time>
      </trkpt>
      <trkpt lat="46.72444" lon="-1.95425">
        <ele>6.4</ele>
        <time>2020-06-04T08:37:33Z</time>
      </trkpt>
      <trkpt lat="46.72444" lon="-1.9543">
        <ele>6.4</ele>
        <time>2020-06-04T08:37:34Z</time>
      </trkpt>
      <trkpt lat="46.72445" lon="-1.95436">
        <ele>6.4</ele>
        <time>2020-06-04T08:37:35Z</time>
      </trkpt>
      <trkpt lat="46.72446" lon="-1.95442">
        <ele>6.5</ele>
        <time>2020-06-04T08:37:36Z</time>
      </trkpt>
      <trkpt lat="46.72446" lon="-1.95448">
        <ele>6.5</ele>
        <time>2020-06-04T08:37:37Z</time>
      </trkpt>
      <trkpt lat="46.72446" lon="-1.95455">
        <ele>6.5</ele>
        <time>2020-06-04T08:37:38Z</time>
      </trkpt>
      <trkpt lat="46.72447" lon="-1.95461">
        <ele>6.6</ele>
        <time>2020-06-04T08:37:39Z</time>
      </trkpt>
      <trkpt lat="46.72447" lon="-1.95468">
        <ele>6.6</ele>
        <time>2020-06-04T08:37:40Z</time>
      </trkpt>
      <trkpt lat="46.72449" lon="-1.95475">
        <ele>6.6</ele>
        <time>2020-06-04T08:37:41Z</time>
      </trkpt>
      <trkpt lat="46.72449" lon="-1.95482">
        <ele>6.6</ele>
        <time>2020-06-04T08:37:42Z</time>
      </trkpt>
      <trkpt lat="46.7245" lon="-1.95489">
        <ele>6.6</ele>
        <time>2020-06-04T08:37:43Z</time>
      </trkpt>
      <trkpt lat="46.7245" lon="-1.95496">
        <ele>6.7</ele>
        <time>2020-06-04T08:37:44Z</time>
      </trkpt>
      <trkpt lat="46.72449" lon="-1.95504">
        <ele>6.7</ele>
        <time>2020-06-04T08:37:45Z</time>
      </trkpt>
      <trkpt lat="46.72449" lon="-1.95511">
        <ele>6.7</ele>
        <time>2020-06-04T08:37:46Z</time>
      </trkpt>
      <trkpt lat="46.72448" lon="-1.95519">
        <ele>6.7</ele>
        <time>2020-06-04T08:37:47Z</time>
      </trkpt>
      <trkpt lat="46.72447" lon="-1.95526">
        <ele>6.7</ele>
        <time>2020-06-04T08:37:48Z</time>
      </trkpt>
      <trkpt lat="46.72448" lon="-1.95534">
        <ele>6.7</ele>
        <time>2020-06-04T08:37:49Z</time>
      </trkpt>
      <trkpt lat="46.72448" lon="-1.95542">
        <ele>6.7</ele>
        <time>2020-06-04T08:37:50Z</time>
      </trkpt>
      <trkpt lat="46.72447" lon="-1.9555">
        <ele>6.7</ele>
        <time>2020-06-04T08:37:51Z</time>
      </trkpt>
      <trkpt lat="46.72446" lon="-1.95557">
        <ele>6.7</ele>
        <time>2020-06-04T08:37:52Z</time>
      </trkpt>
      <trkpt lat="46.72446" lon="-1.95564">
        <ele>6.7</ele>
        <time>2020-06-04T08:37:53Z</time>
      </trkpt>
      <trkpt lat="46.72445" lon="-1.95571">
        <ele>6.7</ele>
        <time>2020-06-04T08:37:54Z</time>
      </trkpt>
      <trkpt lat="46.72444" lon="-1.95578">
        <ele>6.7</ele>
        <time>2020-06-04T08:37:55Z</time>
      </trkpt>
      <trkpt lat="46.72443" lon="-1.95585">
        <ele>6.7</ele>
        <time>2020-06-04T08:37:56Z</time>
      </trkpt>
      <trkpt lat="46.7244" lon="-1.95591">
        <ele>6.7</ele>
        <time>2020-06-04T08:37:57Z</time>
      </trkpt>
      <trkpt lat="46.72436" lon="-1.95596">
        <ele>6.8</ele>
        <time>2020-06-04T08:37:58Z</time>
      </trkpt>
      <trkpt lat="46.72431" lon="-1.956">
        <ele>6.8</ele>
        <time>2020-06-04T08:37:59Z</time>
      </trkpt>
      <trkpt lat="46.72427" lon="-1.95603">
        <ele>6.8</ele>
        <time>2020-06-04T08:38:00Z</time>
      </trkpt>
      <trkpt lat="46.72422" lon="-1.95606">
        <ele>6.8</ele>
        <time>2020-06-04T08:38:01Z</time>
      </trkpt>
      <trkpt lat="46.72417" lon="-1.95608">
        <ele>6.9</ele>
        <time>2020-06-04T08:38:02Z</time>
      </trkpt>
      <trkpt lat="46.72412" lon="-1.95609">
        <ele>6.9</ele>
        <time>2020-06-04T08:38:03Z</time>
      </trkpt>
      <trkpt lat="46.72407" lon="-1.9561">
        <ele>6.9</ele>
        <time>2020-06-04T08:38:04Z</time>
      </trkpt>
      <trkpt lat="46.72401" lon="-1.95611">
        <ele>7</ele>
        <time>2020-06-04T08:38:05Z</time>
      </trkpt>
      <trkpt lat="46.72396" lon="-1.95613">
        <ele>7</ele>
        <time>2020-06-04T08:38:06Z</time>
      </trkpt>
      <trkpt lat="46.72392" lon="-1.95613">
        <ele>7</ele>
        <time>2020-06-04T08:38:07Z</time>
      </trkpt>
      <trkpt lat="46.72387" lon="-1.95614">
        <ele>7</ele>
        <time>2020-06-04T08:38:08Z</time>
      </trkpt>
      <trkpt lat="46.72382" lon="-1.95614">
        <ele>7.1</ele>
        <time>2020-06-04T08:38:09Z</time>
      </trkpt>
      <trkpt lat="46.72377" lon="-1.95614">
        <ele>7.2</ele>
        <time>2020-06-04T08:38:10Z</time>
      </trkpt>
      <trkpt lat="46.72372" lon="-1.95617">
        <ele>7.4</ele>
        <time>2020-06-04T08:38:11Z</time>
      </trkpt>
      <trkpt lat="46.72367" lon="-1.95617">
        <ele>7.6</ele>
        <time>2020-06-04T08:38:12Z</time>
      </trkpt>
      <trkpt lat="46.72362" lon="-1.95618">
        <ele>7.8</ele>
        <time>2020-06-04T08:38:13Z</time>
      </trkpt>
      <trkpt lat="46.72357" lon="-1.9562">
        <ele>8</ele>
        <time>2020-06-04T08:38:14Z</time>
      </trkpt>
      <trkpt lat="46.72352" lon="-1.95619">
        <ele>8.3</ele>
        <time>2020-06-04T08:38:15Z</time>
      </trkpt>
      <trkpt lat="46.72347" lon="-1.95619">
        <ele>8.5</ele>
        <time>2020-06-04T08:38:16Z</time>
      </trkpt>
      <trkpt lat="46.72342" lon="-1.95619">
        <ele>8.7</ele>
        <time>2020-06-04T08:38:17Z</time>
      </trkpt>
      <trkpt lat="46.72337" lon="-1.9562">
        <ele>8.9</ele>
        <time>2020-06-04T08:38:18Z</time>
      </trkpt>
      <trkpt lat="46.72332" lon="-1.95622">
        <ele>9.1</ele>
        <time>2020-06-04T08:38:19Z</time>
      </trkpt>
      <trkpt lat="46.72327" lon="-1.95624">
        <ele>9.3</ele>
        <time>2020-06-04T08:38:20Z</time>
      </trkpt>
      <trkpt lat="46.72322" lon="-1.95626">
        <ele>9.5</ele>
        <time>2020-06-04T08:38:21Z</time>
      </trkpt>
      <trkpt lat="46.72317" lon="-1.95626">
        <ele>9.7</ele>
        <time>2020-06-04T08:38:22Z</time>
      </trkpt>
      <trkpt lat="46.72313" lon="-1.95626">
        <ele>9.8</ele>
        <time>2020-06-04T08:38:23Z</time>
      </trkpt>
      <trkpt lat="46.72308" lon="-1.95626">
        <ele>9.9</ele>
        <time>2020-06-04T08:38:24Z</time>
      </trkpt>
      <trkpt lat="46.72303" lon="-1.95625">
        <ele>9.9</ele>
        <time>2020-06-04T08:38:25Z</time>
      </trkpt>
      <trkpt lat="46.72298" lon="-1.95625">
        <ele>9.9</ele>
        <time>2020-06-04T08:38:26Z</time>
      </trkpt>
      <trkpt lat="46.72294" lon="-1.95627">
        <ele>9.9</ele>
        <time>2020-06-04T08:38:27Z</time>
      </trkpt>
      <trkpt lat="46.72289" lon="-1.95628">
        <ele>9.9</ele>
        <time>2020-06-04T08:38:28Z</time>
      </trkpt>
      <trkpt lat="46.72285" lon="-1.95629">
        <ele>10</ele>
        <time>2020-06-04T08:38:29Z</time>
      </trkpt>
      <trkpt lat="46.7228" lon="-1.95629">
        <ele>10</ele>
        <time>2020-06-04T08:38:30Z</time>
      </trkpt>
      <trkpt lat="46.72275" lon="-1.95628">
        <ele>10.1</ele>
        <time>2020-06-04T08:38:31Z</time>
      </trkpt>
      <trkpt lat="46.7227" lon="-1.95626">
        <ele>10.2</ele>
        <time>2020-06-04T08:38:32Z</time>
      </trkpt>
      <trkpt lat="46.72266" lon="-1.95627">
        <ele>10.3</ele>
        <time>2020-06-04T08:38:33Z</time>
      </trkpt>
      <trkpt lat="46.72261" lon="-1.95627">
        <ele>10.3</ele>
        <time>2020-06-04T08:38:34Z</time>
      </trkpt>
      <trkpt lat="46.72256" lon="-1.95628">
        <ele>10.4</ele>
        <time>2020-06-04T08:38:35Z</time>
      </trkpt>
      <trkpt lat="46.72252" lon="-1.9563">
        <ele>10.5</ele>
        <time>2020-06-04T08:38:36Z</time>
      </trkpt>
      <trkpt lat="46.72247" lon="-1.95634">
        <ele>10.5</ele>
        <time>2020-06-04T08:38:37Z</time>
      </trkpt>
      <trkpt lat="46.72242" lon="-1.95636">
        <ele>10.6</ele>
        <time>2020-06-04T08:38:38Z</time>
      </trkpt>
      <trkpt lat="46.72238" lon="-1.95637">
        <ele>10.6</ele>
        <time>2020-06-04T08:38:39Z</time>
      </trkpt>
      <trkpt lat="46.72233" lon="-1.95639">
        <ele>10.6</ele>
        <time>2020-06-04T08:38:40Z</time>
      </trkpt>
      <trkpt lat="46.72228" lon="-1.95641">
        <ele>10.7</ele>
        <time>2020-06-04T08:38:41Z</time>
      </trkpt>
      <trkpt lat="46.72223" lon="-1.95643">
        <ele>10.7</ele>
        <time>2020-06-04T08:38:42Z</time>
      </trkpt>
      <trkpt lat="46.72218" lon="-1.95645">
        <ele>10.7</ele>
        <time>2020-06-04T08:38:43Z</time>
      </trkpt>
      <trkpt lat="46.72214" lon="-1.95649">
        <ele>10.7</ele>
        <time>2020-06-04T08:38:44Z</time>
      </trkpt>
      <trkpt lat="46.72209" lon="-1.95652">
        <ele>10.8</ele>
        <time>2020-06-04T08:38:45Z</time>
      </trkpt>
      <trkpt lat="46.72205" lon="-1.95656">
        <ele>10.9</ele>
        <time>2020-06-04T08:38:46Z</time>
      </trkpt>
      <trkpt lat="46.72202" lon="-1.9566">
        <ele>11</ele>
        <time>2020-06-04T08:38:47Z</time>
      </trkpt>
      <trkpt lat="46.72198" lon="-1.95664">
        <ele>11</ele>
        <time>2020-06-04T08:38:48Z</time>
      </trkpt>
      <trkpt lat="46.72194" lon="-1.9567">
        <ele>11.1</ele>
        <time>2020-06-04T08:38:49Z</time>
      </trkpt>
      <trkpt lat="46.72191" lon="-1.95674">
        <ele>11.2</ele>
        <time>2020-06-04T08:38:50Z</time>
      </trkpt>
      <trkpt lat="46.72187" lon="-1.9568">
        <ele>11.2</ele>
        <time>2020-06-04T08:38:51Z</time>
      </trkpt>
      <trkpt lat="46.72183" lon="-1.95684">
        <ele>11.3</ele>
        <time>2020-06-04T08:38:52Z</time>
      </trkpt>
      <trkpt lat="46.72179" lon="-1.95689">
        <ele>11.4</ele>
        <time>2020-06-04T08:38:53Z</time>
      </trkpt>
      <trkpt lat="46.72176" lon="-1.95694">
        <ele>11.4</ele>
        <time>2020-06-04T08:38:54Z</time>
      </trkpt>
      <trkpt lat="46.72172" lon="-1.95699">
        <ele>11.5</ele>
        <time>2020-06-04T08:38:55Z</time>
      </trkpt>
      <trkpt lat="46.72169" lon="-1.95704">
        <ele>11.5</ele>
        <time>2020-06-04T08:38:56Z</time>
      </trkpt>
      <trkpt lat="46.72165" lon="-1.95708">
        <ele>11.6</ele>
        <time>2020-06-04T08:38:57Z</time>
      </trkpt>
      <trkpt lat="46.72162" lon="-1.95713">
        <ele>11.6</ele>
        <time>2020-06-04T08:38:58Z</time>
      </trkpt>
      <trkpt lat="46.72159" lon="-1.95718">
        <ele>11.7</ele>
        <time>2020-06-04T08:38:59Z</time>
      </trkpt>
      <trkpt lat="46.72155" lon="-1.95723">
        <ele>11.8</ele>
        <time>2020-06-04T08:39:00Z</time>
      </trkpt>
      <trkpt lat="46.72152" lon="-1.95727">
        <ele>11.8</ele>
        <time>2020-06-04T08:39:01Z</time>
      </trkpt>
      <trkpt lat="46.72148" lon="-1.95733">
        <ele>11.9</ele>
        <time>2020-06-04T08:39:02Z</time>
      </trkpt>
      <trkpt lat="46.72144" lon="-1.95737">
        <ele>12</ele>
        <time>2020-06-04T08:39:03Z</time>
      </trkpt>
      <trkpt lat="46.72139" lon="-1.95741">
        <ele>12</ele>
        <time>2020-06-04T08:39:04Z</time>
      </trkpt>
      <trkpt lat="46.72135" lon="-1.95746">
        <ele>12.1</ele>
        <time>2020-06-04T08:39:05Z</time>
      </trkpt>
      <trkpt lat="46.7213" lon="-1.95751">
        <ele>12.1</ele>
        <time>2020-06-04T08:39:06Z</time>
      </trkpt>
      <trkpt lat="46.72126" lon="-1.95755">
        <ele>12.1</ele>
        <time>2020-06-04T08:39:07Z</time>
      </trkpt>
      <trkpt lat="46.72122" lon="-1.9576">
        <ele>12.2</ele>
        <time>2020-06-04T08:39:08Z</time>
      </trkpt>
      <trkpt lat="46.72117" lon="-1.95765">
        <ele>12.2</ele>
        <time>2020-06-04T08:39:09Z</time>
      </trkpt>
      <trkpt lat="46.72113" lon="-1.95769">
        <ele>12.2</ele>
        <time>2020-06-04T08:39:10Z</time>
      </trkpt>
      <trkpt lat="46.7211" lon="-1.95774">
        <ele>12.2</ele>
        <time>2020-06-04T08:39:11Z</time>
      </trkpt>
      <trkpt lat="46.72106" lon="-1.9578">
        <ele>12.3</ele>
        <time>2020-06-04T08:39:12Z</time>
      </trkpt>
      <trkpt lat="46.72102" lon="-1.95785">
        <ele>12.3</ele>
        <time>2020-06-04T08:39:13Z</time>
      </trkpt>
      <trkpt lat="46.72099" lon="-1.9579">
        <ele>12.4</ele>
        <time>2020-06-04T08:39:14Z</time>
      </trkpt>
      <trkpt lat="46.72095" lon="-1.95796">
        <ele>12.4</ele>
        <time>2020-06-04T08:39:15Z</time>
      </trkpt>
      <trkpt lat="46.72092" lon="-1.958">
        <ele>12.5</ele>
        <time>2020-06-04T08:39:16Z</time>
      </trkpt>
      <trkpt lat="46.72089" lon="-1.95807">
        <ele>12.5</ele>
        <time>2020-06-04T08:39:17Z</time>
      </trkpt>
      <trkpt lat="46.72087" lon="-1.95813">
        <ele>12.6</ele>
        <time>2020-06-04T08:39:18Z</time>
      </trkpt>
      <trkpt lat="46.72084" lon="-1.95819">
        <ele>12.6</ele>
        <time>2020-06-04T08:39:19Z</time>
      </trkpt>
      <trkpt lat="46.72082" lon="-1.95825">
        <ele>12.6</ele>
        <time>2020-06-04T08:39:20Z</time>
      </trkpt>
      <trkpt lat="46.7208" lon="-1.95831">
        <ele>12.6</ele>
        <time>2020-06-04T08:39:21Z</time>
      </trkpt>
      <trkpt lat="46.72078" lon="-1.95837">
        <ele>12.7</ele>
        <time>2020-06-04T08:39:22Z</time>
      </trkpt>
      <trkpt lat="46.72076" lon="-1.95844">
        <ele>12.7</ele>
        <time>2020-06-04T08:39:23Z</time>
      </trkpt>
      <trkpt lat="46.72073" lon="-1.95851">
        <ele>12.7</ele>
        <time>2020-06-04T08:39:24Z</time>
      </trkpt>
      <trkpt lat="46.72071" lon="-1.95858">
        <ele>12.8</ele>
        <time>2020-06-04T08:39:25Z</time>
      </trkpt>
      <trkpt lat="46.72069" lon="-1.95864">
        <ele>12.8</ele>
        <time>2020-06-04T08:39:26Z</time>
      </trkpt>
      <trkpt lat="46.72067" lon="-1.95871">
        <ele>12.8</ele>
        <time>2020-06-04T08:39:27Z</time>
      </trkpt>
      <trkpt lat="46.72065" lon="-1.95878">
        <ele>12.9</ele>
        <time>2020-06-04T08:39:28Z</time>
      </trkpt>
      <trkpt lat="46.72063" lon="-1.95885">
        <ele>12.9</ele>
        <time>2020-06-04T08:39:29Z</time>
      </trkpt>
      <trkpt lat="46.72061" lon="-1.95893">
        <ele>13</ele>
        <time>2020-06-04T08:39:30Z</time>
      </trkpt>
      <trkpt lat="46.7206" lon="-1.959">
        <ele>13</ele>
        <time>2020-06-04T08:39:31Z</time>
      </trkpt>
      <trkpt lat="46.72058" lon="-1.95906">
        <ele>13.1</ele>
        <time>2020-06-04T08:39:32Z</time>
      </trkpt>
      <trkpt lat="46.72055" lon="-1.95913">
        <ele>13.1</ele>
        <time>2020-06-04T08:39:33Z</time>
      </trkpt>
      <trkpt lat="46.72053" lon="-1.9592">
        <ele>13.2</ele>
        <time>2020-06-04T08:39:34Z</time>
      </trkpt>
      <trkpt lat="46.72051" lon="-1.95927">
        <ele>13.2</ele>
        <time>2020-06-04T08:39:35Z</time>
      </trkpt>
      <trkpt lat="46.7205" lon="-1.95934">
        <ele>13.3</ele>
        <time>2020-06-04T08:39:36Z</time>
      </trkpt>
      <trkpt lat="46.72048" lon="-1.95941">
        <ele>13.3</ele>
        <time>2020-06-04T08:39:37Z</time>
      </trkpt>
      <trkpt lat="46.72047" lon="-1.95947">
        <ele>13.4</ele>
        <time>2020-06-04T08:39:38Z</time>
      </trkpt>
      <trkpt lat="46.72045" lon="-1.95954">
        <ele>13.4</ele>
        <time>2020-06-04T08:39:39Z</time>
      </trkpt>
      <trkpt lat="46.72043" lon="-1.9596">
        <ele>13.5</ele>
        <time>2020-06-04T08:39:40Z</time>
      </trkpt>
      <trkpt lat="46.72041" lon="-1.95967">
        <ele>13.6</ele>
        <time>2020-06-04T08:39:41Z</time>
      </trkpt>
      <trkpt lat="46.72038" lon="-1.95973">
        <ele>13.6</ele>
        <time>2020-06-04T08:39:42Z</time>
      </trkpt>
      <trkpt lat="46.72035" lon="-1.95979">
        <ele>13.7</ele>
        <time>2020-06-04T08:39:43Z</time>
      </trkpt>
      <trkpt lat="46.72033" lon="-1.95985">
        <ele>13.8</ele>
        <time>2020-06-04T08:39:44Z</time>
      </trkpt>
      <trkpt lat="46.72031" lon="-1.95992">
        <ele>13.8</ele>
        <time>2020-06-04T08:39:45Z</time>
      </trkpt>
      <trkpt lat="46.72029" lon="-1.95999">
        <ele>13.9</ele>
        <time>2020-06-04T08:39:46Z</time>
      </trkpt>
      <trkpt lat="46.72027" lon="-1.96006">
        <ele>13.9</ele>
        <time>2020-06-04T08:39:47Z</time>
      </trkpt>
      <trkpt lat="46.72026" lon="-1.96014">
        <ele>13.9</ele>
        <time>2020-06-04T08:39:48Z</time>
      </trkpt>
      <trkpt lat="46.72025" lon="-1.96022">
        <ele>13.9</ele>
        <time>2020-06-04T08:39:49Z</time>
      </trkpt>
      <trkpt lat="46.72024" lon="-1.9603">
        <ele>13.9</ele>
        <time>2020-06-04T08:39:50Z</time>
      </trkpt>
      <trkpt lat="46.72022" lon="-1.96037">
        <ele>13.9</ele>
        <time>2020-06-04T08:39:51Z</time>
      </trkpt>
      <trkpt lat="46.7202" lon="-1.96046">
        <ele>13.8</ele>
        <time>2020-06-04T08:39:52Z</time>
      </trkpt>
      <trkpt lat="46.72019" lon="-1.96054">
        <ele>13.8</ele>
        <time>2020-06-04T08:39:53Z</time>
      </trkpt>
      <trkpt lat="46.72017" lon="-1.96062">
        <ele>13.7</ele>
        <time>2020-06-04T08:39:54Z</time>
      </trkpt>
      <trkpt lat="46.72015" lon="-1.9607">
        <ele>13.7</ele>
        <time>2020-06-04T08:39:55Z</time>
      </trkpt>
      <trkpt lat="46.72013" lon="-1.96079">
        <ele>13.6</ele>
        <time>2020-06-04T08:39:56Z</time>
      </trkpt>
      <trkpt lat="46.72011" lon="-1.96087">
        <ele>13.6</ele>
        <time>2020-06-04T08:39:57Z</time>
      </trkpt>
      <trkpt lat="46.72009" lon="-1.96095">
        <ele>13.6</ele>
        <time>2020-06-04T08:39:58Z</time>
      </trkpt>
      <trkpt lat="46.72006" lon="-1.96102">
        <ele>13.5</ele>
        <time>2020-06-04T08:39:59Z</time>
      </trkpt>
      <trkpt lat="46.72003" lon="-1.96109">
        <ele>13.5</ele>
        <time>2020-06-04T08:40:00Z</time>
      </trkpt>
      <trkpt lat="46.72" lon="-1.96117">
        <ele>13.5</ele>
        <time>2020-06-04T08:40:01Z</time>
      </trkpt>
      <trkpt lat="46.71997" lon="-1.96125">
        <ele>13.5</ele>
        <time>2020-06-04T08:40:02Z</time>
      </trkpt>
      <trkpt lat="46.71995" lon="-1.96133">
        <ele>13.4</ele>
        <time>2020-06-04T08:40:03Z</time>
      </trkpt>
      <trkpt lat="46.71994" lon="-1.96141">
        <ele>13.4</ele>
        <time>2020-06-04T08:40:04Z</time>
      </trkpt>
      <trkpt lat="46.71991" lon="-1.96149">
        <ele>13.3</ele>
        <time>2020-06-04T08:40:05Z</time>
      </trkpt>
      <trkpt lat="46.71989" lon="-1.96157">
        <ele>13.2</ele>
        <time>2020-06-04T08:40:06Z</time>
      </trkpt>
      <trkpt lat="46.71987" lon="-1.96165">
        <ele>13.1</ele>
        <time>2020-06-04T08:40:07Z</time>
      </trkpt>
      <trkpt lat="46.71986" lon="-1.96173">
        <ele>13.1</ele>
        <time>2020-06-04T08:40:08Z</time>
      </trkpt>
      <trkpt lat="46.71983" lon="-1.96181">
        <ele>13</ele>
        <time>2020-06-04T08:40:09Z</time>
      </trkpt>
      <trkpt lat="46.71982" lon="-1.96189">
        <ele>12.9</ele>
        <time>2020-06-04T08:40:10Z</time>
      </trkpt>
      <trkpt lat="46.7198" lon="-1.96197">
        <ele>12.8</ele>
        <time>2020-06-04T08:40:11Z</time>
      </trkpt>
      <trkpt lat="46.71978" lon="-1.96204">
        <ele>12.7</ele>
        <time>2020-06-04T08:40:12Z</time>
      </trkpt>
      <trkpt lat="46.71976" lon="-1.96211">
        <ele>12.7</ele>
        <time>2020-06-04T08:40:13Z</time>
      </trkpt>
      <trkpt lat="46.71974" lon="-1.96219">
        <ele>12.7</ele>
        <time>2020-06-04T08:40:14Z</time>
      </trkpt>
      <trkpt lat="46.71971" lon="-1.96226">
        <ele>12.6</ele>
        <time>2020-06-04T08:40:15Z</time>
      </trkpt>
      <trkpt lat="46.71969" lon="-1.96233">
        <ele>12.6</ele>
        <time>2020-06-04T08:40:16Z</time>
      </trkpt>
      <trkpt lat="46.71969" lon="-1.96243">
        <ele>12.6</ele>
        <time>2020-06-04T08:40:17Z</time>
      </trkpt>
      <trkpt lat="46.71967" lon="-1.9625">
        <ele>12.6</ele>
        <time>2020-06-04T08:40:18Z</time>
      </trkpt>
      <trkpt lat="46.71965" lon="-1.96256">
        <ele>12.7</ele>
        <time>2020-06-04T08:40:19Z</time>
      </trkpt>
      <trkpt lat="46.71962" lon="-1.96263">
        <ele>12.7</ele>
        <time>2020-06-04T08:40:20Z</time>
      </trkpt>
      <trkpt lat="46.7196" lon="-1.96271">
        <ele>12.6</ele>
        <time>2020-06-04T08:40:21Z</time>
      </trkpt>
      <trkpt lat="46.71957" lon="-1.96278">
        <ele>12.6</ele>
        <time>2020-06-04T08:40:22Z</time>
      </trkpt>
      <trkpt lat="46.71953" lon="-1.96285">
        <ele>12.6</ele>
        <time>2020-06-04T08:40:23Z</time>
      </trkpt>
      <trkpt lat="46.7195" lon="-1.96291">
        <ele>12.5</ele>
        <time>2020-06-04T08:40:24Z</time>
      </trkpt>
      <trkpt lat="46.71946" lon="-1.96297">
        <ele>12.5</ele>
        <time>2020-06-04T08:40:25Z</time>
      </trkpt>
      <trkpt lat="46.71943" lon="-1.96303">
        <ele>12.5</ele>
        <time>2020-06-04T08:40:26Z</time>
      </trkpt>
      <trkpt lat="46.71939" lon="-1.96308">
        <ele>12.5</ele>
        <time>2020-06-04T08:40:27Z</time>
      </trkpt>
      <trkpt lat="46.71935" lon="-1.96314">
        <ele>12.5</ele>
        <time>2020-06-04T08:40:28Z</time>
      </trkpt>
      <trkpt lat="46.7193" lon="-1.96319">
        <ele>12.5</ele>
        <time>2020-06-04T08:40:29Z</time>
      </trkpt>
      <trkpt lat="46.71926" lon="-1.96325">
        <ele>12.5</ele>
        <time>2020-06-04T08:40:30Z</time>
      </trkpt>
      <trkpt lat="46.71922" lon="-1.96331">
        <ele>12.5</ele>
        <time>2020-06-04T08:40:31Z</time>
      </trkpt>
      <trkpt lat="46.71919" lon="-1.96337">
        <ele>12.5</ele>
        <time>2020-06-04T08:40:32Z</time>
      </trkpt>
      <trkpt lat="46.71916" lon="-1.96344">
        <ele>12.5</ele>
        <time>2020-06-04T08:40:33Z</time>
      </trkpt>
      <trkpt lat="46.71912" lon="-1.96351">
        <ele>12.5</ele>
        <time>2020-06-04T08:40:34Z</time>
      </trkpt>
      <trkpt lat="46.71908" lon="-1.96356">
        <ele>12.5</ele>
        <time>2020-06-04T08:40:35Z</time>
      </trkpt>
      <trkpt lat="46.71903" lon="-1.9636">
        <ele>12.5</ele>
        <time>2020-06-04T08:40:36Z</time>
      </trkpt>
      <trkpt lat="46.719" lon="-1.96365">
        <ele>12.5</ele>
        <time>2020-06-04T08:40:37Z</time>
      </trkpt>
      <trkpt lat="46.71897" lon="-1.9637">
        <ele>12.5</ele>
        <time>2020-06-04T08:40:38Z</time>
      </trkpt>
      <trkpt lat="46.71895" lon="-1.96375">
        <ele>12.5</ele>
        <time>2020-06-04T08:40:39Z</time>
      </trkpt>
      <trkpt lat="46.71892" lon="-1.9638">
        <ele>12.5</ele>
        <time>2020-06-04T08:40:40Z</time>
      </trkpt>
      <trkpt lat="46.7189" lon="-1.96386">
        <ele>12.5</ele>
        <time>2020-06-04T08:40:41Z</time>
      </trkpt>
      <trkpt lat="46.71887" lon="-1.96391">
        <ele>12.5</ele>
        <time>2020-06-04T08:40:42Z</time>
      </trkpt>
      <trkpt lat="46.71884" lon="-1.96396">
        <ele>12.5</ele>
        <time>2020-06-04T08:40:43Z</time>
      </trkpt>
      <trkpt lat="46.71882" lon="-1.96401">
        <ele>12.5</ele>
        <time>2020-06-04T08:40:44Z</time>
      </trkpt>
      <trkpt lat="46.7188" lon="-1.96407">
        <ele>12.6</ele>
        <time>2020-06-04T08:40:45Z</time>
      </trkpt>
      <trkpt lat="46.71878" lon="-1.96412">
        <ele>12.5</ele>
        <time>2020-06-04T08:40:46Z</time>
      </trkpt>
      <trkpt lat="46.71875" lon="-1.96417">
        <ele>12.5</ele>
        <time>2020-06-04T08:40:47Z</time>
      </trkpt>
      <trkpt lat="46.71872" lon="-1.96422">
        <ele>12.5</ele>
        <time>2020-06-04T08:40:48Z</time>
      </trkpt>
      <trkpt lat="46.7187" lon="-1.96428">
        <ele>12.5</ele>
        <time>2020-06-04T08:40:49Z</time>
      </trkpt>
      <trkpt lat="46.71869" lon="-1.96435">
        <ele>12.5</ele>
        <time>2020-06-04T08:40:50Z</time>
      </trkpt>
      <trkpt lat="46.71867" lon="-1.96442">
        <ele>12.5</ele>
        <time>2020-06-04T08:40:51Z</time>
      </trkpt>
      <trkpt lat="46.71866" lon="-1.96449">
        <ele>12.5</ele>
        <time>2020-06-04T08:40:52Z</time>
      </trkpt>
      <trkpt lat="46.71865" lon="-1.96456">
        <ele>12.5</ele>
        <time>2020-06-04T08:40:53Z</time>
      </trkpt>
      <trkpt lat="46.71866" lon="-1.96463">
        <ele>12.5</ele>
        <time>2020-06-04T08:40:54Z</time>
      </trkpt>
      <trkpt lat="46.71866" lon="-1.96471">
        <ele>12.5</ele>
        <time>2020-06-04T08:40:55Z</time>
      </trkpt>
      <trkpt lat="46.71865" lon="-1.96477">
        <ele>12.5</ele>
        <time>2020-06-04T08:40:56Z</time>
      </trkpt>
      <trkpt lat="46.71865" lon="-1.96484">
        <ele>12.4</ele>
        <time>2020-06-04T08:40:57Z</time>
      </trkpt>
      <trkpt lat="46.71864" lon="-1.96489">
        <ele>12.4</ele>
        <time>2020-06-04T08:40:58Z</time>
      </trkpt>
      <trkpt lat="46.71862" lon="-1.96495">
        <ele>12.4</ele>
        <time>2020-06-04T08:40:59Z</time>
      </trkpt>
      <trkpt lat="46.71861" lon="-1.965">
        <ele>12.4</ele>
        <time>2020-06-04T08:41:00Z</time>
      </trkpt>
      <trkpt lat="46.7186" lon="-1.96506">
        <ele>12.4</ele>
        <time>2020-06-04T08:41:01Z</time>
      </trkpt>
      <trkpt lat="46.71859" lon="-1.96512">
        <ele>12.4</ele>
        <time>2020-06-04T08:41:02Z</time>
      </trkpt>
      <trkpt lat="46.71857" lon="-1.96518">
        <ele>12.4</ele>
        <time>2020-06-04T08:41:03Z</time>
      </trkpt>
      <trkpt lat="46.71855" lon="-1.96524">
        <ele>12.4</ele>
        <time>2020-06-04T08:41:04Z</time>
      </trkpt>
      <trkpt lat="46.71854" lon="-1.96531">
        <ele>12.3</ele>
        <time>2020-06-04T08:41:05Z</time>
      </trkpt>
      <trkpt lat="46.71853" lon="-1.96538">
        <ele>12.3</ele>
        <time>2020-06-04T08:41:06Z</time>
      </trkpt>
      <trkpt lat="46.71852" lon="-1.96544">
        <ele>12.3</ele>
        <time>2020-06-04T08:41:07Z</time>
      </trkpt>
      <trkpt lat="46.71852" lon="-1.96551">
        <ele>12.3</ele>
        <time>2020-06-04T08:41:08Z</time>
      </trkpt>
      <trkpt lat="46.71851" lon="-1.96557">
        <ele>12.3</ele>
        <time>2020-06-04T08:41:09Z</time>
      </trkpt>
      <trkpt lat="46.71851" lon="-1.96564">
        <ele>12.3</ele>
        <time>2020-06-04T08:41:10Z</time>
      </trkpt>
      <trkpt lat="46.71851" lon="-1.96571">
        <ele>12.3</ele>
        <time>2020-06-04T08:41:11Z</time>
      </trkpt>
      <trkpt lat="46.71851" lon="-1.96578">
        <ele>12.3</ele>
        <time>2020-06-04T08:41:12Z</time>
      </trkpt>
      <trkpt lat="46.71851" lon="-1.96585">
        <ele>12.3</ele>
        <time>2020-06-04T08:41:13Z</time>
      </trkpt>
      <trkpt lat="46.71852" lon="-1.96592">
        <ele>12.4</ele>
        <time>2020-06-04T08:41:14Z</time>
      </trkpt>
      <trkpt lat="46.71852" lon="-1.966">
        <ele>12.4</ele>
        <time>2020-06-04T08:41:15Z</time>
      </trkpt>
      <trkpt lat="46.71851" lon="-1.96607">
        <ele>12.4</ele>
        <time>2020-06-04T08:41:16Z</time>
      </trkpt>
      <trkpt lat="46.71849" lon="-1.96614">
        <ele>12.5</ele>
        <time>2020-06-04T08:41:17Z</time>
      </trkpt>
      <trkpt lat="46.7185" lon="-1.9662">
        <ele>12.5</ele>
        <time>2020-06-04T08:41:18Z</time>
      </trkpt>
      <trkpt lat="46.71851" lon="-1.96627">
        <ele>12.5</ele>
        <time>2020-06-04T08:41:19Z</time>
      </trkpt>
      <trkpt lat="46.71851" lon="-1.96635">
        <ele>12.5</ele>
        <time>2020-06-04T08:41:20Z</time>
      </trkpt>
      <trkpt lat="46.71852" lon="-1.96642">
        <ele>12.5</ele>
        <time>2020-06-04T08:41:21Z</time>
      </trkpt>
      <trkpt lat="46.71851" lon="-1.9665">
        <ele>12.5</ele>
        <time>2020-06-04T08:41:22Z</time>
      </trkpt>
      <trkpt lat="46.71852" lon="-1.96657">
        <ele>12.5</ele>
        <time>2020-06-04T08:41:23Z</time>
      </trkpt>
      <trkpt lat="46.71852" lon="-1.96664">
        <ele>12.5</ele>
        <time>2020-06-04T08:41:24Z</time>
      </trkpt>
      <trkpt lat="46.71853" lon="-1.96671">
        <ele>12.5</ele>
        <time>2020-06-04T08:41:25Z</time>
      </trkpt>
      <trkpt lat="46.71853" lon="-1.96678">
        <ele>12.5</ele>
        <time>2020-06-04T08:41:26Z</time>
      </trkpt>
      <trkpt lat="46.71853" lon="-1.96685">
        <ele>12.5</ele>
        <time>2020-06-04T08:41:27Z</time>
      </trkpt>
      <trkpt lat="46.71853" lon="-1.96691">
        <ele>12.5</ele>
        <time>2020-06-04T08:41:28Z</time>
      </trkpt>
      <trkpt lat="46.71854" lon="-1.96698">
        <ele>12.5</ele>
        <time>2020-06-04T08:41:29Z</time>
      </trkpt>
      <trkpt lat="46.71855" lon="-1.96705">
        <ele>12.5</ele>
        <time>2020-06-04T08:41:30Z</time>
      </trkpt>
      <trkpt lat="46.71854" lon="-1.96711">
        <ele>12.5</ele>
        <time>2020-06-04T08:41:31Z</time>
      </trkpt>
      <trkpt lat="46.71854" lon="-1.96718">
        <ele>12.5</ele>
        <time>2020-06-04T08:41:32Z</time>
      </trkpt>
      <trkpt lat="46.71855" lon="-1.96724">
        <ele>12.4</ele>
        <time>2020-06-04T08:41:33Z</time>
      </trkpt>
      <trkpt lat="46.71855" lon="-1.9673">
        <ele>12.4</ele>
        <time>2020-06-04T08:41:34Z</time>
      </trkpt>
      <trkpt lat="46.71856" lon="-1.96736">
        <ele>12.4</ele>
        <time>2020-06-04T08:41:35Z</time>
      </trkpt>
      <trkpt lat="46.71857" lon="-1.96742">
        <ele>12.4</ele>
        <time>2020-06-04T08:41:36Z</time>
      </trkpt>
      <trkpt lat="46.71858" lon="-1.96747">
        <ele>12.3</ele>
        <time>2020-06-04T08:41:37Z</time>
      </trkpt>
      <trkpt lat="46.71859" lon="-1.96752">
        <ele>12.3</ele>
        <time>2020-06-04T08:41:38Z</time>
      </trkpt>
      <trkpt lat="46.71859" lon="-1.96757">
        <ele>12.3</ele>
        <time>2020-06-04T08:41:39Z</time>
      </trkpt>
      <trkpt lat="46.7186" lon="-1.96762">
        <ele>12.2</ele>
        <time>2020-06-04T08:41:40Z</time>
      </trkpt>
      <trkpt lat="46.7186" lon="-1.96766">
        <ele>12.2</ele>
        <time>2020-06-04T08:41:41Z</time>
      </trkpt>
      <trkpt lat="46.7186" lon="-1.96771">
        <ele>12.2</ele>
        <time>2020-06-04T08:41:42Z</time>
      </trkpt>
      <trkpt lat="46.7186" lon="-1.96776">
        <ele>12.2</ele>
        <time>2020-06-04T08:41:43Z</time>
      </trkpt>
      <trkpt lat="46.71859" lon="-1.9678">
        <ele>12.2</ele>
        <time>2020-06-04T08:41:44Z</time>
      </trkpt>
      <trkpt lat="46.71859" lon="-1.96786">
        <ele>12.2</ele>
        <time>2020-06-04T08:41:45Z</time>
      </trkpt>
      <trkpt lat="46.71861" lon="-1.96791">
        <ele>12.2</ele>
        <time>2020-06-04T08:41:46Z</time>
      </trkpt>
      <trkpt lat="46.71862" lon="-1.96796">
        <ele>12.2</ele>
        <time>2020-06-04T08:41:47Z</time>
      </trkpt>
      <trkpt lat="46.71864" lon="-1.968">
        <ele>12.2</ele>
        <time>2020-06-04T08:41:48Z</time>
      </trkpt>
      <trkpt lat="46.71865" lon="-1.96806">
        <ele>12.1</ele>
        <time>2020-06-04T08:41:49Z</time>
      </trkpt>
      <trkpt lat="46.71866" lon="-1.96811">
        <ele>12.1</ele>
        <time>2020-06-04T08:41:50Z</time>
      </trkpt>
      <trkpt lat="46.71867" lon="-1.96817">
        <ele>12.1</ele>
        <time>2020-06-04T08:41:51Z</time>
      </trkpt>
      <trkpt lat="46.71869" lon="-1.96823">
        <ele>12.1</ele>
        <time>2020-06-04T08:41:52Z</time>
      </trkpt>
      <trkpt lat="46.71871" lon="-1.96828">
        <ele>12.1</ele>
        <time>2020-06-04T08:41:53Z</time>
      </trkpt>
      <trkpt lat="46.71872" lon="-1.96834">
        <ele>12.1</ele>
        <time>2020-06-04T08:41:54Z</time>
      </trkpt>
      <trkpt lat="46.71874" lon="-1.9684">
        <ele>12</ele>
        <time>2020-06-04T08:41:55Z</time>
      </trkpt>
      <trkpt lat="46.71875" lon="-1.96846">
        <ele>12</ele>
        <time>2020-06-04T08:41:56Z</time>
      </trkpt>
      <trkpt lat="46.71876" lon="-1.96852">
        <ele>12</ele>
        <time>2020-06-04T08:41:57Z</time>
      </trkpt>
      <trkpt lat="46.71875" lon="-1.96856">
        <ele>12</ele>
        <time>2020-06-04T08:41:58Z</time>
      </trkpt>
      <trkpt lat="46.71875" lon="-1.9686">
        <ele>11.9</ele>
        <time>2020-06-04T08:41:59Z</time>
      </trkpt>
      <trkpt lat="46.71874" lon="-1.96865">
        <ele>11.9</ele>
        <time>2020-06-04T08:42:00Z</time>
      </trkpt>
      <trkpt lat="46.71875" lon="-1.96869">
        <ele>11.8</ele>
        <time>2020-06-04T08:42:01Z</time>
      </trkpt>
      <trkpt lat="46.71876" lon="-1.96874">
        <ele>11.7</ele>
        <time>2020-06-04T08:42:02Z</time>
      </trkpt>
      <trkpt lat="46.71877" lon="-1.9688">
        <ele>11.6</ele>
        <time>2020-06-04T08:42:03Z</time>
      </trkpt>
      <trkpt lat="46.71878" lon="-1.96885">
        <ele>11.5</ele>
        <time>2020-06-04T08:42:04Z</time>
      </trkpt>
      <trkpt lat="46.71879" lon="-1.96889">
        <ele>11.5</ele>
        <time>2020-06-04T08:42:05Z</time>
      </trkpt>
      <trkpt lat="46.71879" lon="-1.96893">
        <ele>11.5</ele>
        <time>2020-06-04T08:42:06Z</time>
      </trkpt>
      <trkpt lat="46.7188" lon="-1.96894">
        <ele>11.5</ele>
        <time>2020-06-04T08:42:07Z</time>
      </trkpt>
      <trkpt lat="46.71879" lon="-1.96897">
        <ele>11.5</ele>
        <time>2020-06-04T08:42:08Z</time>
      </trkpt>
      <trkpt lat="46.71879" lon="-1.96899">
        <ele>11.5</ele>
        <time>2020-06-04T08:42:09Z</time>
      </trkpt>
      <trkpt lat="46.71881" lon="-1.96901">
        <ele>11.4</ele>
        <time>2020-06-04T08:42:10Z</time>
      </trkpt>
      <trkpt lat="46.71881" lon="-1.96903">
        <ele>11.4</ele>
        <time>2020-06-04T08:42:11Z</time>
      </trkpt>
      <trkpt lat="46.71882" lon="-1.96904">
        <ele>11.4</ele>
        <time>2020-06-04T08:42:12Z</time>
      </trkpt>
      <trkpt lat="46.71882" lon="-1.96905">
        <ele>11.4</ele>
        <time>2020-06-04T08:42:13Z</time>
      </trkpt>
      <trkpt lat="46.71882" lon="-1.96905">
        <ele>11.4</ele>
        <time>2020-06-04T08:42:14Z</time>
      </trkpt>
      <trkpt lat="46.71883" lon="-1.96906">
        <ele>11.4</ele>
        <time>2020-06-04T08:42:15Z</time>
      </trkpt>
      <trkpt lat="46.71883" lon="-1.96906">
        <ele>11.4</ele>
        <time>2020-06-04T08:42:16Z</time>
      </trkpt>
      <trkpt lat="46.71884" lon="-1.96907">
        <ele>11.4</ele>
        <time>2020-06-04T08:42:17Z</time>
      </trkpt>
      <trkpt lat="46.71884" lon="-1.96908">
        <ele>11.4</ele>
        <time>2020-06-04T08:42:18Z</time>
      </trkpt>
      <trkpt lat="46.71884" lon="-1.96908">
        <ele>11.4</ele>
        <time>2020-06-04T08:42:19Z</time>
      </trkpt>
      <trkpt lat="46.71885" lon="-1.96909">
        <ele>11.4</ele>
        <time>2020-06-04T08:42:20Z</time>
      </trkpt>
      <trkpt lat="46.71885" lon="-1.96909">
        <ele>11.4</ele>
        <time>2020-06-04T08:42:21Z</time>
      </trkpt>
      <trkpt lat="46.71886" lon="-1.9691">
        <ele>11.4</ele>
        <time>2020-06-04T08:42:22Z</time>
      </trkpt>
      <trkpt lat="46.71886" lon="-1.96911">
        <ele>11.4</ele>
        <time>2020-06-04T08:42:23Z</time>
      </trkpt>
      <trkpt lat="46.71887" lon="-1.96911">
        <ele>11.4</ele>
        <time>2020-06-04T08:42:32Z</time>
      </trkpt>
      <trkpt lat="46.71887" lon="-1.96912">
        <ele>11.4</ele>
        <time>2020-06-04T08:42:33Z</time>
      </trkpt>
      <trkpt lat="46.71889" lon="-1.96915">
        <ele>11.3</ele>
        <time>2020-06-04T08:42:34Z</time>
      </trkpt>
      <trkpt lat="46.71891" lon="-1.96919">
        <ele>11.3</ele>
        <time>2020-06-04T08:42:35Z</time>
      </trkpt>
      <trkpt lat="46.71893" lon="-1.96923">
        <ele>11.2</ele>
        <time>2020-06-04T08:42:36Z</time>
      </trkpt>
      <trkpt lat="46.71895" lon="-1.96927">
        <ele>11.2</ele>
        <time>2020-06-04T08:42:37Z</time>
      </trkpt>
      <trkpt lat="46.71897" lon="-1.96932">
        <ele>11.1</ele>
        <time>2020-06-04T08:42:38Z</time>
      </trkpt>
      <trkpt lat="46.719" lon="-1.96937">
        <ele>11</ele>
        <time>2020-06-04T08:42:39Z</time>
      </trkpt>
      <trkpt lat="46.71903" lon="-1.96942">
        <ele>11</ele>
        <time>2020-06-04T08:42:40Z</time>
      </trkpt>
      <trkpt lat="46.71906" lon="-1.96946">
        <ele>10.9</ele>
        <time>2020-06-04T08:42:41Z</time>
      </trkpt>
      <trkpt lat="46.71909" lon="-1.96951">
        <ele>10.8</ele>
        <time>2020-06-04T08:42:42Z</time>
      </trkpt>
      <trkpt lat="46.71912" lon="-1.96957">
        <ele>10.7</ele>
        <time>2020-06-04T08:42:43Z</time>
      </trkpt>
      <trkpt lat="46.71915" lon="-1.96963">
        <ele>10.5</ele>
        <time>2020-06-04T08:42:44Z</time>
      </trkpt>
      <trkpt lat="46.71918" lon="-1.96968">
        <ele>10.4</ele>
        <time>2020-06-04T08:42:45Z</time>
      </trkpt>
      <trkpt lat="46.7192" lon="-1.96974">
        <ele>10.3</ele>
        <time>2020-06-04T08:42:46Z</time>
      </trkpt>
      <trkpt lat="46.71923" lon="-1.96979">
        <ele>10.2</ele>
        <time>2020-06-04T08:42:47Z</time>
      </trkpt>
      <trkpt lat="46.71926" lon="-1.96985">
        <ele>10.1</ele>
        <time>2020-06-04T08:42:48Z</time>
      </trkpt>
      <trkpt lat="46.71928" lon="-1.96991">
        <ele>10</ele>
        <time>2020-06-04T08:42:49Z</time>
      </trkpt>
      <trkpt lat="46.71931" lon="-1.96996">
        <ele>10</ele>
        <time>2020-06-04T08:42:50Z</time>
      </trkpt>
      <trkpt lat="46.71934" lon="-1.97002">
        <ele>9.9</ele>
        <time>2020-06-04T08:42:51Z</time>
      </trkpt>
      <trkpt lat="46.71937" lon="-1.97008">
        <ele>9.8</ele>
        <time>2020-06-04T08:42:52Z</time>
      </trkpt>
      <trkpt lat="46.7194" lon="-1.97014">
        <ele>9.8</ele>
        <time>2020-06-04T08:42:53Z</time>
      </trkpt>
      <trkpt lat="46.71944" lon="-1.97019">
        <ele>9.8</ele>
        <time>2020-06-04T08:42:54Z</time>
      </trkpt>
      <trkpt lat="46.71947" lon="-1.97025">
        <ele>9.6</ele>
        <time>2020-06-04T08:42:55Z</time>
      </trkpt>
      <trkpt lat="46.71951" lon="-1.97031">
        <ele>9.6</ele>
        <time>2020-06-04T08:42:56Z</time>
      </trkpt>
      <trkpt lat="46.71955" lon="-1.97037">
        <ele>9.5</ele>
        <time>2020-06-04T08:42:57Z</time>
      </trkpt>
      <trkpt lat="46.71957" lon="-1.97043">
        <ele>9.4</ele>
        <time>2020-06-04T08:42:58Z</time>
      </trkpt>
      <trkpt lat="46.71961" lon="-1.9705">
        <ele>9.3</ele>
        <time>2020-06-04T08:42:59Z</time>
      </trkpt>
      <trkpt lat="46.71964" lon="-1.97056">
        <ele>9.2</ele>
        <time>2020-06-04T08:43:00Z</time>
      </trkpt>
      <trkpt lat="46.71968" lon="-1.97062">
        <ele>9.1</ele>
        <time>2020-06-04T08:43:01Z</time>
      </trkpt>
      <trkpt lat="46.71971" lon="-1.97068">
        <ele>9.1</ele>
        <time>2020-06-04T08:43:02Z</time>
      </trkpt>
      <trkpt lat="46.71974" lon="-1.97074">
        <ele>9</ele>
        <time>2020-06-04T08:43:03Z</time>
      </trkpt>
      <trkpt lat="46.71977" lon="-1.9708">
        <ele>8.9</ele>
        <time>2020-06-04T08:43:04Z</time>
      </trkpt>
      <trkpt lat="46.71979" lon="-1.97086">
        <ele>8.8</ele>
        <time>2020-06-04T08:43:05Z</time>
      </trkpt>
      <trkpt lat="46.71982" lon="-1.97092">
        <ele>8.8</ele>
        <time>2020-06-04T08:43:06Z</time>
      </trkpt>
      <trkpt lat="46.71984" lon="-1.97098">
        <ele>8.7</ele>
        <time>2020-06-04T08:43:07Z</time>
      </trkpt>
      <trkpt lat="46.71987" lon="-1.97104">
        <ele>8.6</ele>
        <time>2020-06-04T08:43:08Z</time>
      </trkpt>
      <trkpt lat="46.7199" lon="-1.9711">
        <ele>8.6</ele>
        <time>2020-06-04T08:43:09Z</time>
      </trkpt>
      <trkpt lat="46.71993" lon="-1.97116">
        <ele>8.6</ele>
        <time>2020-06-04T08:43:10Z</time>
      </trkpt>
      <trkpt lat="46.71996" lon="-1.97121">
        <ele>8.6</ele>
        <time>2020-06-04T08:43:11Z</time>
      </trkpt>
      <trkpt lat="46.71999" lon="-1.97128">
        <ele>8.5</ele>
        <time>2020-06-04T08:43:12Z</time>
      </trkpt>
      <trkpt lat="46.72002" lon="-1.97135">
        <ele>8.5</ele>
        <time>2020-06-04T08:43:13Z</time>
      </trkpt>
      <trkpt lat="46.72007" lon="-1.97141">
        <ele>8.4</ele>
        <time>2020-06-04T08:43:14Z</time>
      </trkpt>
      <trkpt lat="46.7201" lon="-1.97148">
        <ele>8.2</ele>
        <time>2020-06-04T08:43:15Z</time>
      </trkpt>
      <trkpt lat="46.72013" lon="-1.97154">
        <ele>8.1</ele>
        <time>2020-06-04T08:43:16Z</time>
      </trkpt>
      <trkpt lat="46.72017" lon="-1.97161">
        <ele>8</ele>
        <time>2020-06-04T08:43:17Z</time>
      </trkpt>
      <trkpt lat="46.7202" lon="-1.97169">
        <ele>7.9</ele>
        <time>2020-06-04T08:43:18Z</time>
      </trkpt>
      <trkpt lat="46.72025" lon="-1.97176">
        <ele>7.8</ele>
        <time>2020-06-04T08:43:19Z</time>
      </trkpt>
      <trkpt lat="46.72028" lon="-1.97184">
        <ele>7.7</ele>
        <time>2020-06-04T08:43:20Z</time>
      </trkpt>
      <trkpt lat="46.72032" lon="-1.97192">
        <ele>7.7</ele>
        <time>2020-06-04T08:43:21Z</time>
      </trkpt>
      <trkpt lat="46.72036" lon="-1.972">
        <ele>7.6</ele>
        <time>2020-06-04T08:43:22Z</time>
      </trkpt>
      <trkpt lat="46.72039" lon="-1.97208">
        <ele>7.5</ele>
        <time>2020-06-04T08:43:23Z</time>
      </trkpt>
      <trkpt lat="46.72043" lon="-1.97216">
        <ele>7.5</ele>
        <time>2020-06-04T08:43:24Z</time>
      </trkpt>
      <trkpt lat="46.72047" lon="-1.97224">
        <ele>7.4</ele>
        <time>2020-06-04T08:43:25Z</time>
      </trkpt>
      <trkpt lat="46.72051" lon="-1.97231">
        <ele>7.3</ele>
        <time>2020-06-04T08:43:26Z</time>
      </trkpt>
      <trkpt lat="46.72055" lon="-1.97238">
        <ele>7.2</ele>
        <time>2020-06-04T08:43:27Z</time>
      </trkpt>
      <trkpt lat="46.72059" lon="-1.97244">
        <ele>7.2</ele>
        <time>2020-06-04T08:43:28Z</time>
      </trkpt>
      <trkpt lat="46.72062" lon="-1.97251">
        <ele>7.1</ele>
        <time>2020-06-04T08:43:29Z</time>
      </trkpt>
      <trkpt lat="46.72066" lon="-1.97258">
        <ele>7</ele>
        <time>2020-06-04T08:43:30Z</time>
      </trkpt>
      <trkpt lat="46.72069" lon="-1.97265">
        <ele>7</ele>
        <time>2020-06-04T08:43:31Z</time>
      </trkpt>
      <trkpt lat="46.72072" lon="-1.97271">
        <ele>6.9</ele>
        <time>2020-06-04T08:43:32Z</time>
      </trkpt>
      <trkpt lat="46.72076" lon="-1.97276">
        <ele>6.9</ele>
        <time>2020-06-04T08:43:33Z</time>
      </trkpt>
      <trkpt lat="46.72079" lon="-1.97282">
        <ele>6.8</ele>
        <time>2020-06-04T08:43:34Z</time>
      </trkpt>
      <trkpt lat="46.72082" lon="-1.97289">
        <ele>6.8</ele>
        <time>2020-06-04T08:43:35Z</time>
      </trkpt>
      <trkpt lat="46.72086" lon="-1.97296">
        <ele>6.8</ele>
        <time>2020-06-04T08:43:36Z</time>
      </trkpt>
      <trkpt lat="46.72089" lon="-1.97303">
        <ele>6.7</ele>
        <time>2020-06-04T08:43:37Z</time>
      </trkpt>
      <trkpt lat="46.72093" lon="-1.9731">
        <ele>6.7</ele>
        <time>2020-06-04T08:43:38Z</time>
      </trkpt>
      <trkpt lat="46.72097" lon="-1.97318">
        <ele>6.7</ele>
        <time>2020-06-04T08:43:39Z</time>
      </trkpt>
      <trkpt lat="46.72101" lon="-1.97325">
        <ele>6.7</ele>
        <time>2020-06-04T08:43:40Z</time>
      </trkpt>
      <trkpt lat="46.72105" lon="-1.97332">
        <ele>6.6</ele>
        <time>2020-06-04T08:43:41Z</time>
      </trkpt>
      <trkpt lat="46.72109" lon="-1.97338">
        <ele>6.6</ele>
        <time>2020-06-04T08:43:42Z</time>
      </trkpt>
      <trkpt lat="46.72113" lon="-1.97345">
        <ele>6.6</ele>
        <time>2020-06-04T08:43:43Z</time>
      </trkpt>
      <trkpt lat="46.72117" lon="-1.97352">
        <ele>6.5</ele>
        <time>2020-06-04T08:43:44Z</time>
      </trkpt>
      <trkpt lat="46.72121" lon="-1.97357">
        <ele>6.5</ele>
        <time>2020-06-04T08:43:45Z</time>
      </trkpt>
      <trkpt lat="46.72125" lon="-1.97364">
        <ele>6.5</ele>
        <time>2020-06-04T08:43:46Z</time>
      </trkpt>
      <trkpt lat="46.72128" lon="-1.97372">
        <ele>6.5</ele>
        <time>2020-06-04T08:43:47Z</time>
      </trkpt>
      <trkpt lat="46.72132" lon="-1.97379">
        <ele>6.5</ele>
        <time>2020-06-04T08:43:48Z</time>
      </trkpt>
      <trkpt lat="46.72135" lon="-1.97386">
        <ele>6.4</ele>
        <time>2020-06-04T08:43:49Z</time>
      </trkpt>
      <trkpt lat="46.72138" lon="-1.97393">
        <ele>6.4</ele>
        <time>2020-06-04T08:43:50Z</time>
      </trkpt>
      <trkpt lat="46.72142" lon="-1.97399">
        <ele>6.4</ele>
        <time>2020-06-04T08:43:51Z</time>
      </trkpt>
      <trkpt lat="46.72146" lon="-1.97406">
        <ele>6.4</ele>
        <time>2020-06-04T08:43:52Z</time>
      </trkpt>
      <trkpt lat="46.7215" lon="-1.97413">
        <ele>6.4</ele>
        <time>2020-06-04T08:43:53Z</time>
      </trkpt>
      <trkpt lat="46.72153" lon="-1.9742">
        <ele>6.4</ele>
        <time>2020-06-04T08:43:54Z</time>
      </trkpt>
      <trkpt lat="46.72157" lon="-1.97428">
        <ele>6.4</ele>
        <time>2020-06-04T08:43:55Z</time>
      </trkpt>
      <trkpt lat="46.72161" lon="-1.97435">
        <ele>6.3</ele>
        <time>2020-06-04T08:43:56Z</time>
      </trkpt>
      <trkpt lat="46.72165" lon="-1.97442">
        <ele>6.3</ele>
        <time>2020-06-04T08:43:57Z</time>
      </trkpt>
      <trkpt lat="46.72169" lon="-1.97448">
        <ele>6.3</ele>
        <time>2020-06-04T08:43:58Z</time>
      </trkpt>
      <trkpt lat="46.72172" lon="-1.97455">
        <ele>6.3</ele>
        <time>2020-06-04T08:43:59Z</time>
      </trkpt>
      <trkpt lat="46.72176" lon="-1.97462">
        <ele>6.3</ele>
        <time>2020-06-04T08:44:00Z</time>
      </trkpt>
      <trkpt lat="46.72179" lon="-1.9747">
        <ele>6.2</ele>
        <time>2020-06-04T08:44:01Z</time>
      </trkpt>
      <trkpt lat="46.72184" lon="-1.97476">
        <ele>6.2</ele>
        <time>2020-06-04T08:44:02Z</time>
      </trkpt>
      <trkpt lat="46.72189" lon="-1.97482">
        <ele>6.2</ele>
        <time>2020-06-04T08:44:03Z</time>
      </trkpt>
      <trkpt lat="46.72194" lon="-1.97489">
        <ele>6.2</ele>
        <time>2020-06-04T08:44:04Z</time>
      </trkpt>
      <trkpt lat="46.72199" lon="-1.97496">
        <ele>6.2</ele>
        <time>2020-06-04T08:44:05Z</time>
      </trkpt>
      <trkpt lat="46.72205" lon="-1.97502">
        <ele>6.2</ele>
        <time>2020-06-04T08:44:06Z</time>
      </trkpt>
      <trkpt lat="46.72209" lon="-1.97509">
        <ele>6.1</ele>
        <time>2020-06-04T08:44:07Z</time>
      </trkpt>
      <trkpt lat="46.72214" lon="-1.97515">
        <ele>6.1</ele>
        <time>2020-06-04T08:44:08Z</time>
      </trkpt>
      <trkpt lat="46.72217" lon="-1.97521">
        <ele>6.1</ele>
        <time>2020-06-04T08:44:09Z</time>
      </trkpt>
      <trkpt lat="46.7222" lon="-1.97528">
        <ele>6.1</ele>
        <time>2020-06-04T08:44:10Z</time>
      </trkpt>
      <trkpt lat="46.72225" lon="-1.97535">
        <ele>6</ele>
        <time>2020-06-04T08:44:11Z</time>
      </trkpt>
      <trkpt lat="46.72229" lon="-1.97543">
        <ele>6</ele>
        <time>2020-06-04T08:44:12Z</time>
      </trkpt>
      <trkpt lat="46.72233" lon="-1.9755">
        <ele>6</ele>
        <time>2020-06-04T08:44:13Z</time>
      </trkpt>
      <trkpt lat="46.72237" lon="-1.97557">
        <ele>5.9</ele>
        <time>2020-06-04T08:44:14Z</time>
      </trkpt>
      <trkpt lat="46.72241" lon="-1.97564">
        <ele>5.9</ele>
        <time>2020-06-04T08:44:15Z</time>
      </trkpt>
      <trkpt lat="46.72245" lon="-1.97571">
        <ele>5.9</ele>
        <time>2020-06-04T08:44:16Z</time>
      </trkpt>
      <trkpt lat="46.72249" lon="-1.97579">
        <ele>5.9</ele>
        <time>2020-06-04T08:44:17Z</time>
      </trkpt>
      <trkpt lat="46.72253" lon="-1.97586">
        <ele>5.8</ele>
        <time>2020-06-04T08:44:18Z</time>
      </trkpt>
      <trkpt lat="46.72257" lon="-1.97593">
        <ele>5.7</ele>
        <time>2020-06-04T08:44:19Z</time>
      </trkpt>
      <trkpt lat="46.72261" lon="-1.976">
        <ele>5.7</ele>
        <time>2020-06-04T08:44:20Z</time>
      </trkpt>
      <trkpt lat="46.72265" lon="-1.97607">
        <ele>5.6</ele>
        <time>2020-06-04T08:44:21Z</time>
      </trkpt>
      <trkpt lat="46.72268" lon="-1.97613">
        <ele>5.6</ele>
        <time>2020-06-04T08:44:22Z</time>
      </trkpt>
      <trkpt lat="46.72272" lon="-1.97618">
        <ele>5.6</ele>
        <time>2020-06-04T08:44:23Z</time>
      </trkpt>
      <trkpt lat="46.72275" lon="-1.97625">
        <ele>5.5</ele>
        <time>2020-06-04T08:44:24Z</time>
      </trkpt>
      <trkpt lat="46.7228" lon="-1.97629">
        <ele>5.5</ele>
        <time>2020-06-04T08:44:25Z</time>
      </trkpt>
      <trkpt lat="46.72285" lon="-1.97637">
        <ele>5.5</ele>
        <time>2020-06-04T08:44:26Z</time>
      </trkpt>
      <trkpt lat="46.72289" lon="-1.97645">
        <ele>5.5</ele>
        <time>2020-06-04T08:44:27Z</time>
      </trkpt>
      <trkpt lat="46.72292" lon="-1.97651">
        <ele>5.4</ele>
        <time>2020-06-04T08:44:28Z</time>
      </trkpt>
      <trkpt lat="46.72296" lon="-1.97657">
        <ele>5.4</ele>
        <time>2020-06-04T08:44:29Z</time>
      </trkpt>
      <trkpt lat="46.723" lon="-1.97664">
        <ele>5.4</ele>
        <time>2020-06-04T08:44:30Z</time>
      </trkpt>
      <trkpt lat="46.72304" lon="-1.9767">
        <ele>5.4</ele>
        <time>2020-06-04T08:44:31Z</time>
      </trkpt>
      <trkpt lat="46.72308" lon="-1.97677">
        <ele>5.4</ele>
        <time>2020-06-04T08:44:32Z</time>
      </trkpt>
      <trkpt lat="46.72312" lon="-1.97682">
        <ele>5.3</ele>
        <time>2020-06-04T08:44:33Z</time>
      </trkpt>
      <trkpt lat="46.72316" lon="-1.97687">
        <ele>5.3</ele>
        <time>2020-06-04T08:44:34Z</time>
      </trkpt>
      <trkpt lat="46.72321" lon="-1.97695">
        <ele>5.3</ele>
        <time>2020-06-04T08:44:35Z</time>
      </trkpt>
      <trkpt lat="46.72325" lon="-1.97702">
        <ele>5.3</ele>
        <time>2020-06-04T08:44:36Z</time>
      </trkpt>
      <trkpt lat="46.72329" lon="-1.97708">
        <ele>5.3</ele>
        <time>2020-06-04T08:44:37Z</time>
      </trkpt>
      <trkpt lat="46.72333" lon="-1.97714">
        <ele>5.3</ele>
        <time>2020-06-04T08:44:38Z</time>
      </trkpt>
      <trkpt lat="46.72336" lon="-1.97719">
        <ele>5.3</ele>
        <time>2020-06-04T08:44:39Z</time>
      </trkpt>
      <trkpt lat="46.7234" lon="-1.97724">
        <ele>5.3</ele>
        <time>2020-06-04T08:44:40Z</time>
      </trkpt>
      <trkpt lat="46.72343" lon="-1.97729">
        <ele>5.3</ele>
        <time>2020-06-04T08:44:41Z</time>
      </trkpt>
      <trkpt lat="46.72348" lon="-1.97736">
        <ele>5.3</ele>
        <time>2020-06-04T08:44:42Z</time>
      </trkpt>
      <trkpt lat="46.72353" lon="-1.97743">
        <ele>5.3</ele>
        <time>2020-06-04T08:44:43Z</time>
      </trkpt>
      <trkpt lat="46.72358" lon="-1.97749">
        <ele>5.3</ele>
        <time>2020-06-04T08:44:44Z</time>
      </trkpt>
      <trkpt lat="46.72362" lon="-1.97755">
        <ele>5.2</ele>
        <time>2020-06-04T08:44:45Z</time>
      </trkpt>
      <trkpt lat="46.72365" lon="-1.97762">
        <ele>5.2</ele>
        <time>2020-06-04T08:44:46Z</time>
      </trkpt>
      <trkpt lat="46.72368" lon="-1.97768">
        <ele>5.2</ele>
        <time>2020-06-04T08:44:47Z</time>
      </trkpt>
      <trkpt lat="46.72372" lon="-1.97773">
        <ele>5.2</ele>
        <time>2020-06-04T08:44:48Z</time>
      </trkpt>
      <trkpt lat="46.72375" lon="-1.97779">
        <ele>5.2</ele>
        <time>2020-06-04T08:44:49Z</time>
      </trkpt>
      <trkpt lat="46.72378" lon="-1.97784">
        <ele>5.2</ele>
        <time>2020-06-04T08:44:50Z</time>
      </trkpt>
      <trkpt lat="46.72381" lon="-1.97793">
        <ele>5.2</ele>
        <time>2020-06-04T08:44:51Z</time>
      </trkpt>
      <trkpt lat="46.72384" lon="-1.978">
        <ele>5.2</ele>
        <time>2020-06-04T08:44:52Z</time>
      </trkpt>
      <trkpt lat="46.72386" lon="-1.97807">
        <ele>5.2</ele>
        <time>2020-06-04T08:44:53Z</time>
      </trkpt>
      <trkpt lat="46.72389" lon="-1.97813">
        <ele>5.2</ele>
        <time>2020-06-04T08:44:54Z</time>
      </trkpt>
      <trkpt lat="46.72392" lon="-1.9782">
        <ele>5.2</ele>
        <time>2020-06-04T08:44:55Z</time>
      </trkpt>
      <trkpt lat="46.72395" lon="-1.97825">
        <ele>5.2</ele>
        <time>2020-06-04T08:44:56Z</time>
      </trkpt>
      <trkpt lat="46.72396" lon="-1.97828">
        <ele>5.2</ele>
        <time>2020-06-04T08:44:57Z</time>
      </trkpt>
      <trkpt lat="46.72398" lon="-1.97834">
        <ele>5.2</ele>
        <time>2020-06-04T08:44:58Z</time>
      </trkpt>
      <trkpt lat="46.72397" lon="-1.97841">
        <ele>5</ele>
        <time>2020-06-04T08:44:59Z</time>
      </trkpt>
      <trkpt lat="46.72395" lon="-1.97845">
        <ele>5</ele>
        <time>2020-06-04T08:45:00Z</time>
      </trkpt>
      <trkpt lat="46.72395" lon="-1.9785">
        <ele>5</ele>
        <time>2020-06-04T08:45:01Z</time>
      </trkpt>
      <trkpt lat="46.72396" lon="-1.97852">
        <ele>5</ele>
        <time>2020-06-04T08:45:02Z</time>
      </trkpt>
      <trkpt lat="46.72399" lon="-1.97854">
        <ele>5.1</ele>
        <time>2020-06-04T08:45:03Z</time>
      </trkpt>
      <trkpt lat="46.72402" lon="-1.97855">
        <ele>5.1</ele>
        <time>2020-06-04T08:45:04Z</time>
      </trkpt>
      <trkpt lat="46.72405" lon="-1.97854">
        <ele>5.1</ele>
        <time>2020-06-04T08:45:05Z</time>
      </trkpt>
      <trkpt lat="46.72408" lon="-1.97855">
        <ele>5.1</ele>
        <time>2020-06-04T08:45:06Z</time>
      </trkpt>
      <trkpt lat="46.72411" lon="-1.97855">
        <ele>5</ele>
        <time>2020-06-04T08:45:07Z</time>
      </trkpt>
      <trkpt lat="46.72414" lon="-1.97856">
        <ele>5</ele>
        <time>2020-06-04T08:45:08Z</time>
      </trkpt>
      <trkpt lat="46.72418" lon="-1.97858">
        <ele>5</ele>
        <time>2020-06-04T08:45:09Z</time>
      </trkpt>
      <trkpt lat="46.72422" lon="-1.97863">
        <ele>5</ele>
        <time>2020-06-04T08:45:10Z</time>
      </trkpt>
      <trkpt lat="46.72426" lon="-1.9787">
        <ele>5</ele>
        <time>2020-06-04T08:45:11Z</time>
      </trkpt>
      <trkpt lat="46.7243" lon="-1.97876">
        <ele>5</ele>
        <time>2020-06-04T08:45:12Z</time>
      </trkpt>
      <trkpt lat="46.72434" lon="-1.97881">
        <ele>5</ele>
        <time>2020-06-04T08:45:13Z</time>
      </trkpt>
      <trkpt lat="46.72438" lon="-1.97886">
        <ele>5</ele>
        <time>2020-06-04T08:45:14Z</time>
      </trkpt>
      <trkpt lat="46.72442" lon="-1.97892">
        <ele>5</ele>
        <time>2020-06-04T08:45:15Z</time>
      </trkpt>
      <trkpt lat="46.72445" lon="-1.97897">
        <ele>5</ele>
        <time>2020-06-04T08:45:16Z</time>
      </trkpt>
      <trkpt lat="46.72449" lon="-1.97903">
        <ele>5</ele>
        <time>2020-06-04T08:45:17Z</time>
      </trkpt>
      <trkpt lat="46.72452" lon="-1.97908">
        <ele>5</ele>
        <time>2020-06-04T08:45:18Z</time>
      </trkpt>
      <trkpt lat="46.72455" lon="-1.97911">
        <ele>5</ele>
        <time>2020-06-04T08:45:19Z</time>
      </trkpt>
      <trkpt lat="46.72458" lon="-1.97916">
        <ele>5</ele>
        <time>2020-06-04T08:45:20Z</time>
      </trkpt>
      <trkpt lat="46.72461" lon="-1.97919">
        <ele>5</ele>
        <time>2020-06-04T08:45:21Z</time>
      </trkpt>
      <trkpt lat="46.72465" lon="-1.97922">
        <ele>5</ele>
        <time>2020-06-04T08:45:22Z</time>
      </trkpt>
      <trkpt lat="46.72468" lon="-1.97927">
        <ele>5</ele>
        <time>2020-06-04T08:45:23Z</time>
      </trkpt>
      <trkpt lat="46.72471" lon="-1.97931">
        <ele>5</ele>
        <time>2020-06-04T08:45:24Z</time>
      </trkpt>
      <trkpt lat="46.72474" lon="-1.97936">
        <ele>5</ele>
        <time>2020-06-04T08:45:25Z</time>
      </trkpt>
      <trkpt lat="46.72479" lon="-1.97942">
        <ele>5</ele>
        <time>2020-06-04T08:45:26Z</time>
      </trkpt>
      <trkpt lat="46.72483" lon="-1.97947">
        <ele>5</ele>
        <time>2020-06-04T08:45:27Z</time>
      </trkpt>
      <trkpt lat="46.72487" lon="-1.9795">
        <ele>5</ele>
        <time>2020-06-04T08:45:28Z</time>
      </trkpt>
      <trkpt lat="46.72491" lon="-1.97954">
        <ele>5</ele>
        <time>2020-06-04T08:45:29Z</time>
      </trkpt>
      <trkpt lat="46.72495" lon="-1.97958">
        <ele>5</ele>
        <time>2020-06-04T08:45:30Z</time>
      </trkpt>
      <trkpt lat="46.72498" lon="-1.97964">
        <ele>5</ele>
        <time>2020-06-04T08:45:31Z</time>
      </trkpt>
      <trkpt lat="46.72501" lon="-1.97968">
        <ele>5</ele>
        <time>2020-06-04T08:45:32Z</time>
      </trkpt>
      <trkpt lat="46.72505" lon="-1.97972">
        <ele>4.9</ele>
        <time>2020-06-04T08:45:33Z</time>
      </trkpt>
      <trkpt lat="46.72509" lon="-1.97976">
        <ele>4.9</ele>
        <time>2020-06-04T08:45:34Z</time>
      </trkpt>
      <trkpt lat="46.72514" lon="-1.9798">
        <ele>4.8</ele>
        <time>2020-06-04T08:45:35Z</time>
      </trkpt>
      <trkpt lat="46.72517" lon="-1.97984">
        <ele>4.8</ele>
        <time>2020-06-04T08:45:36Z</time>
      </trkpt>
      <trkpt lat="46.72521" lon="-1.97986">
        <ele>4.7</ele>
        <time>2020-06-04T08:45:37Z</time>
      </trkpt>
      <trkpt lat="46.72525" lon="-1.9799">
        <ele>4.6</ele>
        <time>2020-06-04T08:45:38Z</time>
      </trkpt>
      <trkpt lat="46.7253" lon="-1.97992">
        <ele>4.6</ele>
        <time>2020-06-04T08:45:39Z</time>
      </trkpt>
      <trkpt lat="46.72534" lon="-1.97995">
        <ele>4.5</ele>
        <time>2020-06-04T08:45:40Z</time>
      </trkpt>
      <trkpt lat="46.72538" lon="-1.97998">
        <ele>4.4</ele>
        <time>2020-06-04T08:45:41Z</time>
      </trkpt>
      <trkpt lat="46.72543" lon="-1.98001">
        <ele>4.4</ele>
        <time>2020-06-04T08:45:42Z</time>
      </trkpt>
      <trkpt lat="46.72547" lon="-1.98004">
        <ele>4.4</ele>
        <time>2020-06-04T08:45:43Z</time>
      </trkpt>
      <trkpt lat="46.72553" lon="-1.98007">
        <ele>4.3</ele>
        <time>2020-06-04T08:45:44Z</time>
      </trkpt>
      <trkpt lat="46.72559" lon="-1.9801">
        <ele>4.3</ele>
        <time>2020-06-04T08:45:45Z</time>
      </trkpt>
      <trkpt lat="46.72565" lon="-1.98012">
        <ele>4.3</ele>
        <time>2020-06-04T08:45:46Z</time>
      </trkpt>
      <trkpt lat="46.7257" lon="-1.98015">
        <ele>4.3</ele>
        <time>2020-06-04T08:45:47Z</time>
      </trkpt>
      <trkpt lat="46.72576" lon="-1.98018">
        <ele>4.3</ele>
        <time>2020-06-04T08:45:48Z</time>
      </trkpt>
      <trkpt lat="46.72582" lon="-1.9802">
        <ele>4.3</ele>
        <time>2020-06-04T08:45:49Z</time>
      </trkpt>
      <trkpt lat="46.72586" lon="-1.98024">
        <ele>4.3</ele>
        <time>2020-06-04T08:45:50Z</time>
      </trkpt>
      <trkpt lat="46.72591" lon="-1.98029">
        <ele>4.3</ele>
        <time>2020-06-04T08:45:51Z</time>
      </trkpt>
      <trkpt lat="46.72595" lon="-1.98033">
        <ele>4.3</ele>
        <time>2020-06-04T08:45:52Z</time>
      </trkpt>
      <trkpt lat="46.72599" lon="-1.98037">
        <ele>4.3</ele>
        <time>2020-06-04T08:45:53Z</time>
      </trkpt>
      <trkpt lat="46.72603" lon="-1.9804">
        <ele>4.3</ele>
        <time>2020-06-04T08:45:54Z</time>
      </trkpt>
      <trkpt lat="46.72608" lon="-1.98044">
        <ele>4.3</ele>
        <time>2020-06-04T08:45:55Z</time>
      </trkpt>
      <trkpt lat="46.72612" lon="-1.98046">
        <ele>4.3</ele>
        <time>2020-06-04T08:45:56Z</time>
      </trkpt>
      <trkpt lat="46.72618" lon="-1.98049">
        <ele>4.2</ele>
        <time>2020-06-04T08:45:57Z</time>
      </trkpt>
      <trkpt lat="46.72623" lon="-1.98052">
        <ele>4.2</ele>
        <time>2020-06-04T08:45:58Z</time>
      </trkpt>
      <trkpt lat="46.72628" lon="-1.98055">
        <ele>4.2</ele>
        <time>2020-06-04T08:45:59Z</time>
      </trkpt>
      <trkpt lat="46.72633" lon="-1.98059">
        <ele>4.2</ele>
        <time>2020-06-04T08:46:00Z</time>
      </trkpt>
      <trkpt lat="46.72638" lon="-1.98063">
        <ele>4.2</ele>
        <time>2020-06-04T08:46:01Z</time>
      </trkpt>
      <trkpt lat="46.72643" lon="-1.98067">
        <ele>4.2</ele>
        <time>2020-06-04T08:46:02Z</time>
      </trkpt>
      <trkpt lat="46.72649" lon="-1.98071">
        <ele>4.2</ele>
        <time>2020-06-04T08:46:03Z</time>
      </trkpt>
      <trkpt lat="46.72654" lon="-1.98074">
        <ele>4.2</ele>
        <time>2020-06-04T08:46:04Z</time>
      </trkpt>
      <trkpt lat="46.72659" lon="-1.98077">
        <ele>4.2</ele>
        <time>2020-06-04T08:46:05Z</time>
      </trkpt>
      <trkpt lat="46.72663" lon="-1.98079">
        <ele>4.2</ele>
        <time>2020-06-04T08:46:06Z</time>
      </trkpt>
      <trkpt lat="46.72668" lon="-1.98082">
        <ele>4.2</ele>
        <time>2020-06-04T08:46:07Z</time>
      </trkpt>
      <trkpt lat="46.72673" lon="-1.98085">
        <ele>4.2</ele>
        <time>2020-06-04T08:46:08Z</time>
      </trkpt>
      <trkpt lat="46.72678" lon="-1.9809">
        <ele>4.2</ele>
        <time>2020-06-04T08:46:09Z</time>
      </trkpt>
      <trkpt lat="46.72683" lon="-1.98094">
        <ele>4.2</ele>
        <time>2020-06-04T08:46:10Z</time>
      </trkpt>
      <trkpt lat="46.72687" lon="-1.98098">
        <ele>4.2</ele>
        <time>2020-06-04T08:46:11Z</time>
      </trkpt>
      <trkpt lat="46.72692" lon="-1.98102">
        <ele>4.2</ele>
        <time>2020-06-04T08:46:12Z</time>
      </trkpt>
      <trkpt lat="46.72697" lon="-1.98105">
        <ele>4.2</ele>
        <time>2020-06-04T08:46:13Z</time>
      </trkpt>
      <trkpt lat="46.72702" lon="-1.98108">
        <ele>4.2</ele>
        <time>2020-06-04T08:46:14Z</time>
      </trkpt>
      <trkpt lat="46.72707" lon="-1.98112">
        <ele>4.3</ele>
        <time>2020-06-04T08:46:15Z</time>
      </trkpt>
      <trkpt lat="46.72713" lon="-1.98114">
        <ele>4.3</ele>
        <time>2020-06-04T08:46:16Z</time>
      </trkpt>
      <trkpt lat="46.72717" lon="-1.98116">
        <ele>4.3</ele>
        <time>2020-06-04T08:46:17Z</time>
      </trkpt>
      <trkpt lat="46.72721" lon="-1.98119">
        <ele>4.3</ele>
        <time>2020-06-04T08:46:18Z</time>
      </trkpt>
      <trkpt lat="46.72726" lon="-1.98121">
        <ele>4.4</ele>
        <time>2020-06-04T08:46:19Z</time>
      </trkpt>
      <trkpt lat="46.72731" lon="-1.98122">
        <ele>4.4</ele>
        <time>2020-06-04T08:46:20Z</time>
      </trkpt>
      <trkpt lat="46.72735" lon="-1.98124">
        <ele>4.4</ele>
        <time>2020-06-04T08:46:21Z</time>
      </trkpt>
      <trkpt lat="46.72739" lon="-1.98126">
        <ele>4.4</ele>
        <time>2020-06-04T08:46:22Z</time>
      </trkpt>
      <trkpt lat="46.72743" lon="-1.9813">
        <ele>4.3</ele>
        <time>2020-06-04T08:46:23Z</time>
      </trkpt>
      <trkpt lat="46.72748" lon="-1.98132">
        <ele>4.3</ele>
        <time>2020-06-04T08:46:24Z</time>
      </trkpt>
      <trkpt lat="46.72754" lon="-1.98134">
        <ele>4.3</ele>
        <time>2020-06-04T08:46:25Z</time>
      </trkpt>
      <trkpt lat="46.72759" lon="-1.98136">
        <ele>4.3</ele>
        <time>2020-06-04T08:46:26Z</time>
      </trkpt>
      <trkpt lat="46.72764" lon="-1.98138">
        <ele>4.3</ele>
        <time>2020-06-04T08:46:27Z</time>
      </trkpt>
      <trkpt lat="46.72769" lon="-1.98139">
        <ele>4.3</ele>
        <time>2020-06-04T08:46:28Z</time>
      </trkpt>
      <trkpt lat="46.72773" lon="-1.98141">
        <ele>4.3</ele>
        <time>2020-06-04T08:46:29Z</time>
      </trkpt>
      <trkpt lat="46.72777" lon="-1.98143">
        <ele>4.3</ele>
        <time>2020-06-04T08:46:30Z</time>
      </trkpt>
      <trkpt lat="46.72782" lon="-1.98145">
        <ele>4.3</ele>
        <time>2020-06-04T08:46:31Z</time>
      </trkpt>
      <trkpt lat="46.72788" lon="-1.98147">
        <ele>4.3</ele>
        <time>2020-06-04T08:46:32Z</time>
      </trkpt>
      <trkpt lat="46.72794" lon="-1.9815">
        <ele>4.4</ele>
        <time>2020-06-04T08:46:33Z</time>
      </trkpt>
      <trkpt lat="46.72801" lon="-1.98152">
        <ele>4.4</ele>
        <time>2020-06-04T08:46:34Z</time>
      </trkpt>
      <trkpt lat="46.72807" lon="-1.98155">
        <ele>4.4</ele>
        <time>2020-06-04T08:46:35Z</time>
      </trkpt>
      <trkpt lat="46.72813" lon="-1.98157">
        <ele>4.4</ele>
        <time>2020-06-04T08:46:36Z</time>
      </trkpt>
      <trkpt lat="46.72819" lon="-1.98159">
        <ele>4.4</ele>
        <time>2020-06-04T08:46:37Z</time>
      </trkpt>
      <trkpt lat="46.72825" lon="-1.98161">
        <ele>4.5</ele>
        <time>2020-06-04T08:46:38Z</time>
      </trkpt>
      <trkpt lat="46.7283" lon="-1.98163">
        <ele>4.5</ele>
        <time>2020-06-04T08:46:39Z</time>
      </trkpt>
      <trkpt lat="46.72835" lon="-1.98165">
        <ele>4.5</ele>
        <time>2020-06-04T08:46:40Z</time>
      </trkpt>
      <trkpt lat="46.72839" lon="-1.98167">
        <ele>4.5</ele>
        <time>2020-06-04T08:46:41Z</time>
      </trkpt>
      <trkpt lat="46.72843" lon="-1.98169">
        <ele>4.5</ele>
        <time>2020-06-04T08:46:42Z</time>
      </trkpt>
      <trkpt lat="46.72848" lon="-1.9817">
        <ele>4.5</ele>
        <time>2020-06-04T08:46:43Z</time>
      </trkpt>
      <trkpt lat="46.72853" lon="-1.98172">
        <ele>4.5</ele>
        <time>2020-06-04T08:46:44Z</time>
      </trkpt>
      <trkpt lat="46.72858" lon="-1.98174">
        <ele>4.5</ele>
        <time>2020-06-04T08:46:45Z</time>
      </trkpt>
      <trkpt lat="46.72863" lon="-1.98177">
        <ele>4.5</ele>
        <time>2020-06-04T08:46:46Z</time>
      </trkpt>
      <trkpt lat="46.72867" lon="-1.9818">
        <ele>4.5</ele>
        <time>2020-06-04T08:46:47Z</time>
      </trkpt>
      <trkpt lat="46.72871" lon="-1.98182">
        <ele>4.5</ele>
        <time>2020-06-04T08:46:48Z</time>
      </trkpt>
      <trkpt lat="46.72877" lon="-1.98183">
        <ele>4.5</ele>
        <time>2020-06-04T08:46:49Z</time>
      </trkpt>
      <trkpt lat="46.72881" lon="-1.98185">
        <ele>4.5</ele>
        <time>2020-06-04T08:46:50Z</time>
      </trkpt>
      <trkpt lat="46.72886" lon="-1.98186">
        <ele>4.6</ele>
        <time>2020-06-04T08:46:51Z</time>
      </trkpt>
      <trkpt lat="46.72891" lon="-1.98187">
        <ele>4.6</ele>
        <time>2020-06-04T08:46:52Z</time>
      </trkpt>
      <trkpt lat="46.72895" lon="-1.9819">
        <ele>4.6</ele>
        <time>2020-06-04T08:46:53Z</time>
      </trkpt>
      <trkpt lat="46.72899" lon="-1.98192">
        <ele>4.6</ele>
        <time>2020-06-04T08:46:54Z</time>
      </trkpt>
      <trkpt lat="46.72904" lon="-1.98194">
        <ele>4.6</ele>
        <time>2020-06-04T08:46:55Z</time>
      </trkpt>
      <trkpt lat="46.7291" lon="-1.98196">
        <ele>4.6</ele>
        <time>2020-06-04T08:46:56Z</time>
      </trkpt>
      <trkpt lat="46.72915" lon="-1.98199">
        <ele>4.6</ele>
        <time>2020-06-04T08:46:57Z</time>
      </trkpt>
      <trkpt lat="46.7292" lon="-1.98202">
        <ele>4.6</ele>
        <time>2020-06-04T08:46:58Z</time>
      </trkpt>
      <trkpt lat="46.72925" lon="-1.98204">
        <ele>4.6</ele>
        <time>2020-06-04T08:46:59Z</time>
      </trkpt>
      <trkpt lat="46.7293" lon="-1.98206">
        <ele>4.6</ele>
        <time>2020-06-04T08:47:00Z</time>
      </trkpt>
      <trkpt lat="46.72934" lon="-1.98208">
        <ele>4.7</ele>
        <time>2020-06-04T08:47:01Z</time>
      </trkpt>
      <trkpt lat="46.72939" lon="-1.9821">
        <ele>4.7</ele>
        <time>2020-06-04T08:47:02Z</time>
      </trkpt>
      <trkpt lat="46.72944" lon="-1.98212">
        <ele>4.7</ele>
        <time>2020-06-04T08:47:03Z</time>
      </trkpt>
      <trkpt lat="46.7295" lon="-1.98215">
        <ele>4.8</ele>
        <time>2020-06-04T08:47:04Z</time>
      </trkpt>
      <trkpt lat="46.72955" lon="-1.98217">
        <ele>4.8</ele>
        <time>2020-06-04T08:47:05Z</time>
      </trkpt>
      <trkpt lat="46.72959" lon="-1.98221">
        <ele>4.8</ele>
        <time>2020-06-04T08:47:06Z</time>
      </trkpt>
      <trkpt lat="46.72964" lon="-1.98224">
        <ele>4.8</ele>
        <time>2020-06-04T08:47:07Z</time>
      </trkpt>
      <trkpt lat="46.72969" lon="-1.98227">
        <ele>4.9</ele>
        <time>2020-06-04T08:47:08Z</time>
      </trkpt>
      <trkpt lat="46.72975" lon="-1.98229">
        <ele>4.9</ele>
        <time>2020-06-04T08:47:09Z</time>
      </trkpt>
      <trkpt lat="46.72981" lon="-1.98231">
        <ele>4.9</ele>
        <time>2020-06-04T08:47:10Z</time>
      </trkpt>
      <trkpt lat="46.72987" lon="-1.98234">
        <ele>4.9</ele>
        <time>2020-06-04T08:47:11Z</time>
      </trkpt>
      <trkpt lat="46.72993" lon="-1.98236">
        <ele>5</ele>
        <time>2020-06-04T08:47:12Z</time>
      </trkpt>
      <trkpt lat="46.72998" lon="-1.98238">
        <ele>5</ele>
        <time>2020-06-04T08:47:13Z</time>
      </trkpt>
      <trkpt lat="46.73003" lon="-1.98239">
        <ele>5</ele>
        <time>2020-06-04T08:47:14Z</time>
      </trkpt>
      <trkpt lat="46.73008" lon="-1.98242">
        <ele>5</ele>
        <time>2020-06-04T08:47:15Z</time>
      </trkpt>
      <trkpt lat="46.73012" lon="-1.98244">
        <ele>5</ele>
        <time>2020-06-04T08:47:16Z</time>
      </trkpt>
      <trkpt lat="46.73016" lon="-1.98246">
        <ele>5</ele>
        <time>2020-06-04T08:47:17Z</time>
      </trkpt>
      <trkpt lat="46.7302" lon="-1.98247">
        <ele>5.1</ele>
        <time>2020-06-04T08:47:18Z</time>
      </trkpt>
      <trkpt lat="46.73025" lon="-1.98249">
        <ele>5.1</ele>
        <time>2020-06-04T08:47:19Z</time>
      </trkpt>
      <trkpt lat="46.73029" lon="-1.9825">
        <ele>5.1</ele>
        <time>2020-06-04T08:47:20Z</time>
      </trkpt>
      <trkpt lat="46.73033" lon="-1.98252">
        <ele>5.1</ele>
        <time>2020-06-04T08:47:21Z</time>
      </trkpt>
      <trkpt lat="46.73037" lon="-1.98254">
        <ele>5.2</ele>
        <time>2020-06-04T08:47:22Z</time>
      </trkpt>
      <trkpt lat="46.73041" lon="-1.98256">
        <ele>5.2</ele>
        <time>2020-06-04T08:47:23Z</time>
      </trkpt>
      <trkpt lat="46.73045" lon="-1.98258">
        <ele>5.2</ele>
        <time>2020-06-04T08:47:24Z</time>
      </trkpt>
      <trkpt lat="46.7305" lon="-1.98259">
        <ele>5.3</ele>
        <time>2020-06-04T08:47:25Z</time>
      </trkpt>
      <trkpt lat="46.73054" lon="-1.98261">
        <ele>5.3</ele>
        <time>2020-06-04T08:47:26Z</time>
      </trkpt>
      <trkpt lat="46.73059" lon="-1.98264">
        <ele>5.3</ele>
        <time>2020-06-04T08:47:27Z</time>
      </trkpt>
      <trkpt lat="46.73064" lon="-1.98266">
        <ele>5.3</ele>
        <time>2020-06-04T08:47:28Z</time>
      </trkpt>
      <trkpt lat="46.73069" lon="-1.98269">
        <ele>5.4</ele>
        <time>2020-06-04T08:47:29Z</time>
      </trkpt>
      <trkpt lat="46.73074" lon="-1.98272">
        <ele>5.4</ele>
        <time>2020-06-04T08:47:30Z</time>
      </trkpt>
      <trkpt lat="46.73079" lon="-1.98274">
        <ele>5.4</ele>
        <time>2020-06-04T08:47:31Z</time>
      </trkpt>
      <trkpt lat="46.73085" lon="-1.98276">
        <ele>5.4</ele>
        <time>2020-06-04T08:47:32Z</time>
      </trkpt>
      <trkpt lat="46.73091" lon="-1.98278">
        <ele>5.4</ele>
        <time>2020-06-04T08:47:33Z</time>
      </trkpt>
      <trkpt lat="46.73097" lon="-1.98279">
        <ele>5.4</ele>
        <time>2020-06-04T08:47:34Z</time>
      </trkpt>
      <trkpt lat="46.73103" lon="-1.9828">
        <ele>5.4</ele>
        <time>2020-06-04T08:47:35Z</time>
      </trkpt>
      <trkpt lat="46.73108" lon="-1.98282">
        <ele>5.4</ele>
        <time>2020-06-04T08:47:36Z</time>
      </trkpt>
      <trkpt lat="46.73113" lon="-1.98285">
        <ele>5.4</ele>
        <time>2020-06-04T08:47:37Z</time>
      </trkpt>
      <trkpt lat="46.73118" lon="-1.98287">
        <ele>5.4</ele>
        <time>2020-06-04T08:47:38Z</time>
      </trkpt>
      <trkpt lat="46.73122" lon="-1.98289">
        <ele>5.4</ele>
        <time>2020-06-04T08:47:39Z</time>
      </trkpt>
      <trkpt lat="46.73127" lon="-1.98293">
        <ele>5.4</ele>
        <time>2020-06-04T08:47:40Z</time>
      </trkpt>
      <trkpt lat="46.73132" lon="-1.98295">
        <ele>5.4</ele>
        <time>2020-06-04T08:47:41Z</time>
      </trkpt>
      <trkpt lat="46.73137" lon="-1.98297">
        <ele>5.4</ele>
        <time>2020-06-04T08:47:42Z</time>
      </trkpt>
      <trkpt lat="46.73142" lon="-1.983">
        <ele>5.4</ele>
        <time>2020-06-04T08:47:43Z</time>
      </trkpt>
      <trkpt lat="46.73147" lon="-1.98303">
        <ele>5.4</ele>
        <time>2020-06-04T08:47:44Z</time>
      </trkpt>
      <trkpt lat="46.73152" lon="-1.98305">
        <ele>5.4</ele>
        <time>2020-06-04T08:47:45Z</time>
      </trkpt>
      <trkpt lat="46.73157" lon="-1.98309">
        <ele>5.4</ele>
        <time>2020-06-04T08:47:46Z</time>
      </trkpt>
      <trkpt lat="46.73162" lon="-1.98312">
        <ele>5.4</ele>
        <time>2020-06-04T08:47:47Z</time>
      </trkpt>
      <trkpt lat="46.73167" lon="-1.98315">
        <ele>5.4</ele>
        <time>2020-06-04T08:47:48Z</time>
      </trkpt>
      <trkpt lat="46.73172" lon="-1.98318">
        <ele>5.5</ele>
        <time>2020-06-04T08:47:49Z</time>
      </trkpt>
      <trkpt lat="46.73177" lon="-1.98322">
        <ele>5.5</ele>
        <time>2020-06-04T08:47:50Z</time>
      </trkpt>
      <trkpt lat="46.73181" lon="-1.98324">
        <ele>5.5</ele>
        <time>2020-06-04T08:47:51Z</time>
      </trkpt>
      <trkpt lat="46.73185" lon="-1.98328">
        <ele>5.5</ele>
        <time>2020-06-04T08:47:52Z</time>
      </trkpt>
      <trkpt lat="46.73189" lon="-1.98332">
        <ele>5.5</ele>
        <time>2020-06-04T08:47:53Z</time>
      </trkpt>
      <trkpt lat="46.73193" lon="-1.98335">
        <ele>5.5</ele>
        <time>2020-06-04T08:47:54Z</time>
      </trkpt>
      <trkpt lat="46.73196" lon="-1.98339">
        <ele>5.5</ele>
        <time>2020-06-04T08:47:55Z</time>
      </trkpt>
      <trkpt lat="46.73201" lon="-1.98343">
        <ele>5.5</ele>
        <time>2020-06-04T08:47:56Z</time>
      </trkpt>
      <trkpt lat="46.73205" lon="-1.98347">
        <ele>5.5</ele>
        <time>2020-06-04T08:47:57Z</time>
      </trkpt>
      <trkpt lat="46.73209" lon="-1.98352">
        <ele>5.5</ele>
        <time>2020-06-04T08:47:58Z</time>
      </trkpt>
      <trkpt lat="46.73214" lon="-1.98357">
        <ele>5.5</ele>
        <time>2020-06-04T08:47:59Z</time>
      </trkpt>
      <trkpt lat="46.73219" lon="-1.98361">
        <ele>5.5</ele>
        <time>2020-06-04T08:48:00Z</time>
      </trkpt>
      <trkpt lat="46.73223" lon="-1.98365">
        <ele>5.5</ele>
        <time>2020-06-04T08:48:01Z</time>
      </trkpt>
      <trkpt lat="46.73228" lon="-1.9837">
        <ele>5.5</ele>
        <time>2020-06-04T08:48:02Z</time>
      </trkpt>
      <trkpt lat="46.73233" lon="-1.98375">
        <ele>5.5</ele>
        <time>2020-06-04T08:48:03Z</time>
      </trkpt>
      <trkpt lat="46.73238" lon="-1.98379">
        <ele>5.5</ele>
        <time>2020-06-04T08:48:04Z</time>
      </trkpt>
      <trkpt lat="46.73242" lon="-1.98383">
        <ele>5.5</ele>
        <time>2020-06-04T08:48:05Z</time>
      </trkpt>
      <trkpt lat="46.73247" lon="-1.98388">
        <ele>5.6</ele>
        <time>2020-06-04T08:48:06Z</time>
      </trkpt>
      <trkpt lat="46.73252" lon="-1.98392">
        <ele>5.6</ele>
        <time>2020-06-04T08:48:07Z</time>
      </trkpt>
      <trkpt lat="46.73257" lon="-1.98395">
        <ele>5.7</ele>
        <time>2020-06-04T08:48:08Z</time>
      </trkpt>
      <trkpt lat="46.73262" lon="-1.98399">
        <ele>5.7</ele>
        <time>2020-06-04T08:48:09Z</time>
      </trkpt>
      <trkpt lat="46.73266" lon="-1.98403">
        <ele>5.8</ele>
        <time>2020-06-04T08:48:10Z</time>
      </trkpt>
      <trkpt lat="46.7327" lon="-1.98407">
        <ele>5.9</ele>
        <time>2020-06-04T08:48:11Z</time>
      </trkpt>
      <trkpt lat="46.73274" lon="-1.98411">
        <ele>5.9</ele>
        <time>2020-06-04T08:48:12Z</time>
      </trkpt>
      <trkpt lat="46.73277" lon="-1.98415">
        <ele>5.9</ele>
        <time>2020-06-04T08:48:13Z</time>
      </trkpt>
      <trkpt lat="46.73281" lon="-1.98419">
        <ele>6</ele>
        <time>2020-06-04T08:48:14Z</time>
      </trkpt>
      <trkpt lat="46.73285" lon="-1.98424">
        <ele>6</ele>
        <time>2020-06-04T08:48:15Z</time>
      </trkpt>
      <trkpt lat="46.73289" lon="-1.98428">
        <ele>6.1</ele>
        <time>2020-06-04T08:48:16Z</time>
      </trkpt>
      <trkpt lat="46.73293" lon="-1.98433">
        <ele>6.1</ele>
        <time>2020-06-04T08:48:17Z</time>
      </trkpt>
      <trkpt lat="46.73297" lon="-1.98437">
        <ele>6.2</ele>
        <time>2020-06-04T08:48:18Z</time>
      </trkpt>
      <trkpt lat="46.73302" lon="-1.98442">
        <ele>6.3</ele>
        <time>2020-06-04T08:48:19Z</time>
      </trkpt>
      <trkpt lat="46.73307" lon="-1.98445">
        <ele>6.4</ele>
        <time>2020-06-04T08:48:20Z</time>
      </trkpt>
      <trkpt lat="46.7331" lon="-1.98449">
        <ele>6.4</ele>
        <time>2020-06-04T08:48:21Z</time>
      </trkpt>
      <trkpt lat="46.73315" lon="-1.98454">
        <ele>6.5</ele>
        <time>2020-06-04T08:48:22Z</time>
      </trkpt>
      <trkpt lat="46.73319" lon="-1.98458">
        <ele>6.5</ele>
        <time>2020-06-04T08:48:23Z</time>
      </trkpt>
      <trkpt lat="46.73323" lon="-1.98462">
        <ele>6.5</ele>
        <time>2020-06-04T08:48:24Z</time>
      </trkpt>
      <trkpt lat="46.73327" lon="-1.98466">
        <ele>6.5</ele>
        <time>2020-06-04T08:48:25Z</time>
      </trkpt>
      <trkpt lat="46.73331" lon="-1.98469">
        <ele>6.6</ele>
        <time>2020-06-04T08:48:26Z</time>
      </trkpt>
      <trkpt lat="46.73335" lon="-1.98472">
        <ele>6.6</ele>
        <time>2020-06-04T08:48:27Z</time>
      </trkpt>
      <trkpt lat="46.73339" lon="-1.98477">
        <ele>6.6</ele>
        <time>2020-06-04T08:48:28Z</time>
      </trkpt>
      <trkpt lat="46.73344" lon="-1.98481">
        <ele>6.6</ele>
        <time>2020-06-04T08:48:29Z</time>
      </trkpt>
      <trkpt lat="46.73348" lon="-1.98485">
        <ele>6.6</ele>
        <time>2020-06-04T08:48:30Z</time>
      </trkpt>
      <trkpt lat="46.73352" lon="-1.98491">
        <ele>6.6</ele>
        <time>2020-06-04T08:48:31Z</time>
      </trkpt>
      <trkpt lat="46.73355" lon="-1.98496">
        <ele>6.6</ele>
        <time>2020-06-04T08:48:32Z</time>
      </trkpt>
      <trkpt lat="46.73358" lon="-1.98502">
        <ele>6.6</ele>
        <time>2020-06-04T08:48:33Z</time>
      </trkpt>
      <trkpt lat="46.73362" lon="-1.98509">
        <ele>6.7</ele>
        <time>2020-06-04T08:48:34Z</time>
      </trkpt>
      <trkpt lat="46.73364" lon="-1.98516">
        <ele>6.7</ele>
        <time>2020-06-04T08:48:35Z</time>
      </trkpt>
      <trkpt lat="46.73367" lon="-1.98524">
        <ele>6.7</ele>
        <time>2020-06-04T08:48:36Z</time>
      </trkpt>
      <trkpt lat="46.73371" lon="-1.98531">
        <ele>6.7</ele>
        <time>2020-06-04T08:48:37Z</time>
      </trkpt>
      <trkpt lat="46.73374" lon="-1.98539">
        <ele>6.7</ele>
        <time>2020-06-04T08:48:38Z</time>
      </trkpt>
      <trkpt lat="46.73377" lon="-1.98546">
        <ele>6.7</ele>
        <time>2020-06-04T08:48:39Z</time>
      </trkpt>
      <trkpt lat="46.73379" lon="-1.98554">
        <ele>6.8</ele>
        <time>2020-06-04T08:48:40Z</time>
      </trkpt>
      <trkpt lat="46.73382" lon="-1.98562">
        <ele>6.8</ele>
        <time>2020-06-04T08:48:41Z</time>
      </trkpt>
      <trkpt lat="46.73384" lon="-1.9857">
        <ele>6.8</ele>
        <time>2020-06-04T08:48:42Z</time>
      </trkpt>
      <trkpt lat="46.73385" lon="-1.98578">
        <ele>6.8</ele>
        <time>2020-06-04T08:48:43Z</time>
      </trkpt>
      <trkpt lat="46.73387" lon="-1.98587">
        <ele>6.9</ele>
        <time>2020-06-04T08:48:44Z</time>
      </trkpt>
      <trkpt lat="46.73388" lon="-1.98595">
        <ele>6.9</ele>
        <time>2020-06-04T08:48:45Z</time>
      </trkpt>
      <trkpt lat="46.73388" lon="-1.98604">
        <ele>6.9</ele>
        <time>2020-06-04T08:48:46Z</time>
      </trkpt>
      <trkpt lat="46.73388" lon="-1.98609">
        <ele>6.9</ele>
        <time>2020-06-04T08:48:47Z</time>
      </trkpt>
      <trkpt lat="46.73389" lon="-1.98618">
        <ele>6.9</ele>
        <time>2020-06-04T08:48:48Z</time>
      </trkpt>
      <trkpt lat="46.73389" lon="-1.98627">
        <ele>6.9</ele>
        <time>2020-06-04T08:48:49Z</time>
      </trkpt>
      <trkpt lat="46.73388" lon="-1.98634">
        <ele>6.9</ele>
        <time>2020-06-04T08:48:50Z</time>
      </trkpt>
      <trkpt lat="46.73387" lon="-1.98641">
        <ele>7</ele>
        <time>2020-06-04T08:48:51Z</time>
      </trkpt>
      <trkpt lat="46.73387" lon="-1.98648">
        <ele>7</ele>
        <time>2020-06-04T08:48:52Z</time>
      </trkpt>
      <trkpt lat="46.73385" lon="-1.98655">
        <ele>7</ele>
        <time>2020-06-04T08:48:53Z</time>
      </trkpt>
      <trkpt lat="46.73384" lon="-1.98661">
        <ele>7.1</ele>
        <time>2020-06-04T08:48:54Z</time>
      </trkpt>
      <trkpt lat="46.73384" lon="-1.98667">
        <ele>7.1</ele>
        <time>2020-06-04T08:48:55Z</time>
      </trkpt>
      <trkpt lat="46.73383" lon="-1.98673">
        <ele>7.1</ele>
        <time>2020-06-04T08:48:56Z</time>
      </trkpt>
      <trkpt lat="46.73382" lon="-1.98678">
        <ele>7.2</ele>
        <time>2020-06-04T08:48:57Z</time>
      </trkpt>
      <trkpt lat="46.73382" lon="-1.98686">
        <ele>7.2</ele>
        <time>2020-06-04T08:48:58Z</time>
      </trkpt>
      <trkpt lat="46.73382" lon="-1.98692">
        <ele>7.2</ele>
        <time>2020-06-04T08:48:59Z</time>
      </trkpt>
      <trkpt lat="46.73382" lon="-1.98699">
        <ele>7.3</ele>
        <time>2020-06-04T08:49:00Z</time>
      </trkpt>
      <trkpt lat="46.73382" lon="-1.98702">
        <ele>7.3</ele>
        <time>2020-06-04T08:49:01Z</time>
      </trkpt>
      <trkpt lat="46.73384" lon="-1.98707">
        <ele>7.3</ele>
        <time>2020-06-04T08:49:02Z</time>
      </trkpt>
      <trkpt lat="46.73387" lon="-1.98708">
        <ele>7.3</ele>
        <time>2020-06-04T08:49:03Z</time>
      </trkpt>
      <trkpt lat="46.7339" lon="-1.9871">
        <ele>7.2</ele>
        <time>2020-06-04T08:49:04Z</time>
      </trkpt>
      <trkpt lat="46.73394" lon="-1.98711">
        <ele>7.1</ele>
        <time>2020-06-04T08:49:05Z</time>
      </trkpt>
      <trkpt lat="46.73397" lon="-1.98713">
        <ele>7.1</ele>
        <time>2020-06-04T08:49:06Z</time>
      </trkpt>
      <trkpt lat="46.734" lon="-1.98715">
        <ele>7</ele>
        <time>2020-06-04T08:49:07Z</time>
      </trkpt>
      <trkpt lat="46.73404" lon="-1.98717">
        <ele>7</ele>
        <time>2020-06-04T08:49:08Z</time>
      </trkpt>
      <trkpt lat="46.73407" lon="-1.98719">
        <ele>6.9</ele>
        <time>2020-06-04T08:49:09Z</time>
      </trkpt>
      <trkpt lat="46.73411" lon="-1.98723">
        <ele>6.8</ele>
        <time>2020-06-04T08:49:10Z</time>
      </trkpt>
      <trkpt lat="46.73415" lon="-1.98727">
        <ele>6.8</ele>
        <time>2020-06-04T08:49:11Z</time>
      </trkpt>
      <trkpt lat="46.73419" lon="-1.98731">
        <ele>6.8</ele>
        <time>2020-06-04T08:49:12Z</time>
      </trkpt>
      <trkpt lat="46.73422" lon="-1.98736">
        <ele>6.7</ele>
        <time>2020-06-04T08:49:13Z</time>
      </trkpt>
      <trkpt lat="46.73427" lon="-1.9874">
        <ele>6.7</ele>
        <time>2020-06-04T08:49:14Z</time>
      </trkpt>
      <trkpt lat="46.73432" lon="-1.98745">
        <ele>6.7</ele>
        <time>2020-06-04T08:49:15Z</time>
      </trkpt>
      <trkpt lat="46.73437" lon="-1.98749">
        <ele>6.6</ele>
        <time>2020-06-04T08:49:16Z</time>
      </trkpt>
      <trkpt lat="46.73442" lon="-1.98753">
        <ele>6.6</ele>
        <time>2020-06-04T08:49:17Z</time>
      </trkpt>
      <trkpt lat="46.73447" lon="-1.98759">
        <ele>6.6</ele>
        <time>2020-06-04T08:49:18Z</time>
      </trkpt>
      <trkpt lat="46.73452" lon="-1.98764">
        <ele>6.6</ele>
        <time>2020-06-04T08:49:19Z</time>
      </trkpt>
      <trkpt lat="46.73457" lon="-1.98769">
        <ele>6.6</ele>
        <time>2020-06-04T08:49:20Z</time>
      </trkpt>
      <trkpt lat="46.73463" lon="-1.98775">
        <ele>6.6</ele>
        <time>2020-06-04T08:49:21Z</time>
      </trkpt>
      <trkpt lat="46.73468" lon="-1.98781">
        <ele>6.7</ele>
        <time>2020-06-04T08:49:22Z</time>
      </trkpt>
      <trkpt lat="46.73473" lon="-1.98786">
        <ele>6.7</ele>
        <time>2020-06-04T08:49:23Z</time>
      </trkpt>
      <trkpt lat="46.73477" lon="-1.98791">
        <ele>6.7</ele>
        <time>2020-06-04T08:49:24Z</time>
      </trkpt>
      <trkpt lat="46.73482" lon="-1.98796">
        <ele>6.7</ele>
        <time>2020-06-04T08:49:25Z</time>
      </trkpt>
      <trkpt lat="46.73487" lon="-1.98801">
        <ele>6.7</ele>
        <time>2020-06-04T08:49:26Z</time>
      </trkpt>
      <trkpt lat="46.73492" lon="-1.98806">
        <ele>6.8</ele>
        <time>2020-06-04T08:49:27Z</time>
      </trkpt>
      <trkpt lat="46.73495" lon="-1.9881">
        <ele>6.8</ele>
        <time>2020-06-04T08:49:28Z</time>
      </trkpt>
      <trkpt lat="46.73499" lon="-1.98814">
        <ele>6.8</ele>
        <time>2020-06-04T08:49:29Z</time>
      </trkpt>
      <trkpt lat="46.73504" lon="-1.98818">
        <ele>6.8</ele>
        <time>2020-06-04T08:49:30Z</time>
      </trkpt>
      <trkpt lat="46.73508" lon="-1.98823">
        <ele>6.9</ele>
        <time>2020-06-04T08:49:31Z</time>
      </trkpt>
      <trkpt lat="46.73513" lon="-1.98828">
        <ele>6.9</ele>
        <time>2020-06-04T08:49:32Z</time>
      </trkpt>
      <trkpt lat="46.73517" lon="-1.98832">
        <ele>6.9</ele>
        <time>2020-06-04T08:49:33Z</time>
      </trkpt>
      <trkpt lat="46.73521" lon="-1.98836">
        <ele>6.9</ele>
        <time>2020-06-04T08:49:34Z</time>
      </trkpt>
      <trkpt lat="46.73525" lon="-1.9884">
        <ele>6.9</ele>
        <time>2020-06-04T08:49:35Z</time>
      </trkpt>
      <trkpt lat="46.7353" lon="-1.98844">
        <ele>6.9</ele>
        <time>2020-06-04T08:49:36Z</time>
      </trkpt>
      <trkpt lat="46.73534" lon="-1.98849">
        <ele>7</ele>
        <time>2020-06-04T08:49:37Z</time>
      </trkpt>
      <trkpt lat="46.73539" lon="-1.98854">
        <ele>7</ele>
        <time>2020-06-04T08:49:38Z</time>
      </trkpt>
      <trkpt lat="46.73543" lon="-1.98858">
        <ele>7</ele>
        <time>2020-06-04T08:49:39Z</time>
      </trkpt>
      <trkpt lat="46.73548" lon="-1.98863">
        <ele>7</ele>
        <time>2020-06-04T08:49:40Z</time>
      </trkpt>
      <trkpt lat="46.73552" lon="-1.98867">
        <ele>7</ele>
        <time>2020-06-04T08:49:41Z</time>
      </trkpt>
      <trkpt lat="46.73557" lon="-1.98872">
        <ele>7</ele>
        <time>2020-06-04T08:49:42Z</time>
      </trkpt>
      <trkpt lat="46.73561" lon="-1.98876">
        <ele>7</ele>
        <time>2020-06-04T08:49:43Z</time>
      </trkpt>
      <trkpt lat="46.73565" lon="-1.9888">
        <ele>6.9</ele>
        <time>2020-06-04T08:49:44Z</time>
      </trkpt>
      <trkpt lat="46.7357" lon="-1.98884">
        <ele>6.9</ele>
        <time>2020-06-04T08:49:45Z</time>
      </trkpt>
      <trkpt lat="46.73574" lon="-1.98888">
        <ele>6.9</ele>
        <time>2020-06-04T08:49:46Z</time>
      </trkpt>
      <trkpt lat="46.73578" lon="-1.98892">
        <ele>6.9</ele>
        <time>2020-06-04T08:49:47Z</time>
      </trkpt>
      <trkpt lat="46.73583" lon="-1.98897">
        <ele>6.9</ele>
        <time>2020-06-04T08:49:48Z</time>
      </trkpt>
      <trkpt lat="46.73589" lon="-1.98902">
        <ele>6.8</ele>
        <time>2020-06-04T08:49:49Z</time>
      </trkpt>
      <trkpt lat="46.73594" lon="-1.98907">
        <ele>6.8</ele>
        <time>2020-06-04T08:49:50Z</time>
      </trkpt>
      <trkpt lat="46.73599" lon="-1.98912">
        <ele>6.8</ele>
        <time>2020-06-04T08:49:51Z</time>
      </trkpt>
      <trkpt lat="46.73604" lon="-1.98917">
        <ele>6.8</ele>
        <time>2020-06-04T08:49:52Z</time>
      </trkpt>
      <trkpt lat="46.73609" lon="-1.98922">
        <ele>6.8</ele>
        <time>2020-06-04T08:49:53Z</time>
      </trkpt>
      <trkpt lat="46.73614" lon="-1.98927">
        <ele>6.8</ele>
        <time>2020-06-04T08:49:54Z</time>
      </trkpt>
      <trkpt lat="46.73618" lon="-1.98932">
        <ele>6.8</ele>
        <time>2020-06-04T08:49:55Z</time>
      </trkpt>
      <trkpt lat="46.73622" lon="-1.98936">
        <ele>6.8</ele>
        <time>2020-06-04T08:49:56Z</time>
      </trkpt>
      <trkpt lat="46.73627" lon="-1.98941">
        <ele>6.7</ele>
        <time>2020-06-04T08:49:57Z</time>
      </trkpt>
      <trkpt lat="46.73631" lon="-1.98945">
        <ele>6.7</ele>
        <time>2020-06-04T08:49:58Z</time>
      </trkpt>
      <trkpt lat="46.73637" lon="-1.98951">
        <ele>6.7</ele>
        <time>2020-06-04T08:49:59Z</time>
      </trkpt>
      <trkpt lat="46.73642" lon="-1.98955">
        <ele>6.7</ele>
        <time>2020-06-04T08:50:00Z</time>
      </trkpt>
      <trkpt lat="46.73646" lon="-1.98959">
        <ele>6.7</ele>
        <time>2020-06-04T08:50:01Z</time>
      </trkpt>
      <trkpt lat="46.7365" lon="-1.98963">
        <ele>6.6</ele>
        <time>2020-06-04T08:50:02Z</time>
      </trkpt>
      <trkpt lat="46.73654" lon="-1.98967">
        <ele>6.7</ele>
        <time>2020-06-04T08:50:03Z</time>
      </trkpt>
      <trkpt lat="46.73658" lon="-1.98971">
        <ele>6.7</ele>
        <time>2020-06-04T08:50:04Z</time>
      </trkpt>
      <trkpt lat="46.73661" lon="-1.98974">
        <ele>6.7</ele>
        <time>2020-06-04T08:50:05Z</time>
      </trkpt>
      <trkpt lat="46.73666" lon="-1.98979">
        <ele>6.7</ele>
        <time>2020-06-04T08:50:06Z</time>
      </trkpt>
      <trkpt lat="46.7367" lon="-1.98984">
        <ele>6.7</ele>
        <time>2020-06-04T08:50:07Z</time>
      </trkpt>
      <trkpt lat="46.73674" lon="-1.98987">
        <ele>6.7</ele>
        <time>2020-06-04T08:50:08Z</time>
      </trkpt>
      <trkpt lat="46.73678" lon="-1.98991">
        <ele>6.7</ele>
        <time>2020-06-04T08:50:09Z</time>
      </trkpt>
      <trkpt lat="46.73683" lon="-1.98995">
        <ele>6.7</ele>
        <time>2020-06-04T08:50:10Z</time>
      </trkpt>
      <trkpt lat="46.73688" lon="-1.98999">
        <ele>6.7</ele>
        <time>2020-06-04T08:50:11Z</time>
      </trkpt>
      <trkpt lat="46.73692" lon="-1.99004">
        <ele>6.8</ele>
        <time>2020-06-04T08:50:12Z</time>
      </trkpt>
      <trkpt lat="46.73697" lon="-1.99008">
        <ele>6.8</ele>
        <time>2020-06-04T08:50:13Z</time>
      </trkpt>
      <trkpt lat="46.73701" lon="-1.99011">
        <ele>6.8</ele>
        <time>2020-06-04T08:50:14Z</time>
      </trkpt>
      <trkpt lat="46.73706" lon="-1.99014">
        <ele>6.8</ele>
        <time>2020-06-04T08:50:15Z</time>
      </trkpt>
      <trkpt lat="46.73711" lon="-1.99017">
        <ele>6.9</ele>
        <time>2020-06-04T08:50:16Z</time>
      </trkpt>
      <trkpt lat="46.73716" lon="-1.99022">
        <ele>6.9</ele>
        <time>2020-06-04T08:50:17Z</time>
      </trkpt>
      <trkpt lat="46.73721" lon="-1.99025">
        <ele>6.9</ele>
        <time>2020-06-04T08:50:18Z</time>
      </trkpt>
      <trkpt lat="46.73726" lon="-1.9903">
        <ele>6.9</ele>
        <time>2020-06-04T08:50:19Z</time>
      </trkpt>
      <trkpt lat="46.7373" lon="-1.99034">
        <ele>6.9</ele>
        <time>2020-06-04T08:50:20Z</time>
      </trkpt>
      <trkpt lat="46.73735" lon="-1.99039">
        <ele>6.9</ele>
        <time>2020-06-04T08:50:21Z</time>
      </trkpt>
      <trkpt lat="46.7374" lon="-1.99043">
        <ele>6.8</ele>
        <time>2020-06-04T08:50:22Z</time>
      </trkpt>
      <trkpt lat="46.73743" lon="-1.99046">
        <ele>6.8</ele>
        <time>2020-06-04T08:50:23Z</time>
      </trkpt>
      <trkpt lat="46.73747" lon="-1.99051">
        <ele>6.7</ele>
        <time>2020-06-04T08:50:24Z</time>
      </trkpt>
      <trkpt lat="46.73752" lon="-1.99056">
        <ele>6.6</ele>
        <time>2020-06-04T08:50:25Z</time>
      </trkpt>
      <trkpt lat="46.73757" lon="-1.99062">
        <ele>6.5</ele>
        <time>2020-06-04T08:50:26Z</time>
      </trkpt>
      <trkpt lat="46.73761" lon="-1.99067">
        <ele>6.4</ele>
        <time>2020-06-04T08:50:27Z</time>
      </trkpt>
      <trkpt lat="46.73766" lon="-1.99074">
        <ele>6.3</ele>
        <time>2020-06-04T08:50:28Z</time>
      </trkpt>
      <trkpt lat="46.73771" lon="-1.9908">
        <ele>6.1</ele>
        <time>2020-06-04T08:50:29Z</time>
      </trkpt>
      <trkpt lat="46.73776" lon="-1.99085">
        <ele>6</ele>
        <time>2020-06-04T08:50:30Z</time>
      </trkpt>
      <trkpt lat="46.73781" lon="-1.99091">
        <ele>5.9</ele>
        <time>2020-06-04T08:50:31Z</time>
      </trkpt>
      <trkpt lat="46.73787" lon="-1.99098">
        <ele>5.7</ele>
        <time>2020-06-04T08:50:32Z</time>
      </trkpt>
      <trkpt lat="46.73793" lon="-1.99103">
        <ele>5.6</ele>
        <time>2020-06-04T08:50:33Z</time>
      </trkpt>
      <trkpt lat="46.73798" lon="-1.99108">
        <ele>5.5</ele>
        <time>2020-06-04T08:50:34Z</time>
      </trkpt>
      <trkpt lat="46.73804" lon="-1.99114">
        <ele>5.3</ele>
        <time>2020-06-04T08:50:35Z</time>
      </trkpt>
      <trkpt lat="46.73809" lon="-1.9912">
        <ele>5.2</ele>
        <time>2020-06-04T08:50:36Z</time>
      </trkpt>
      <trkpt lat="46.73815" lon="-1.99126">
        <ele>5.1</ele>
        <time>2020-06-04T08:50:37Z</time>
      </trkpt>
      <trkpt lat="46.73821" lon="-1.99132">
        <ele>4.9</ele>
        <time>2020-06-04T08:50:38Z</time>
      </trkpt>
      <trkpt lat="46.73827" lon="-1.99137">
        <ele>4.8</ele>
        <time>2020-06-04T08:50:39Z</time>
      </trkpt>
      <trkpt lat="46.73832" lon="-1.99143">
        <ele>4.7</ele>
        <time>2020-06-04T08:50:40Z</time>
      </trkpt>
      <trkpt lat="46.73838" lon="-1.99149">
        <ele>4.7</ele>
        <time>2020-06-04T08:50:41Z</time>
      </trkpt>
      <trkpt lat="46.73844" lon="-1.99154">
        <ele>4.6</ele>
        <time>2020-06-04T08:50:42Z</time>
      </trkpt>
      <trkpt lat="46.73849" lon="-1.99159">
        <ele>4.6</ele>
        <time>2020-06-04T08:50:43Z</time>
      </trkpt>
      <trkpt lat="46.73854" lon="-1.99164">
        <ele>4.5</ele>
        <time>2020-06-04T08:50:44Z</time>
      </trkpt>
      <trkpt lat="46.73858" lon="-1.99168">
        <ele>4.5</ele>
        <time>2020-06-04T08:50:45Z</time>
      </trkpt>
      <trkpt lat="46.73862" lon="-1.99171">
        <ele>4.5</ele>
        <time>2020-06-04T08:50:46Z</time>
      </trkpt>
      <trkpt lat="46.73866" lon="-1.99174">
        <ele>4.4</ele>
        <time>2020-06-04T08:50:47Z</time>
      </trkpt>
      <trkpt lat="46.7387" lon="-1.99177">
        <ele>4.4</ele>
        <time>2020-06-04T08:50:48Z</time>
      </trkpt>
      <trkpt lat="46.73874" lon="-1.99181">
        <ele>4.3</ele>
        <time>2020-06-04T08:50:49Z</time>
      </trkpt>
      <trkpt lat="46.73879" lon="-1.99185">
        <ele>4.3</ele>
        <time>2020-06-04T08:50:50Z</time>
      </trkpt>
      <trkpt lat="46.73884" lon="-1.9919">
        <ele>4.3</ele>
        <time>2020-06-04T08:50:51Z</time>
      </trkpt>
      <trkpt lat="46.73888" lon="-1.99195">
        <ele>4.3</ele>
        <time>2020-06-04T08:50:52Z</time>
      </trkpt>
      <trkpt lat="46.73893" lon="-1.992">
        <ele>4.3</ele>
        <time>2020-06-04T08:50:53Z</time>
      </trkpt>
      <trkpt lat="46.73897" lon="-1.99205">
        <ele>4.3</ele>
        <time>2020-06-04T08:50:54Z</time>
      </trkpt>
      <trkpt lat="46.73901" lon="-1.99209">
        <ele>4.3</ele>
        <time>2020-06-04T08:50:55Z</time>
      </trkpt>
      <trkpt lat="46.73904" lon="-1.99213">
        <ele>4.3</ele>
        <time>2020-06-04T08:50:56Z</time>
      </trkpt>
      <trkpt lat="46.73908" lon="-1.99218">
        <ele>4.3</ele>
        <time>2020-06-04T08:50:57Z</time>
      </trkpt>
      <trkpt lat="46.73912" lon="-1.99221">
        <ele>4.3</ele>
        <time>2020-06-04T08:50:58Z</time>
      </trkpt>
      <trkpt lat="46.73917" lon="-1.99225">
        <ele>4.3</ele>
        <time>2020-06-04T08:50:59Z</time>
      </trkpt>
      <trkpt lat="46.73922" lon="-1.99228">
        <ele>4.3</ele>
        <time>2020-06-04T08:51:00Z</time>
      </trkpt>
      <trkpt lat="46.73928" lon="-1.99232">
        <ele>4.4</ele>
        <time>2020-06-04T08:51:01Z</time>
      </trkpt>
      <trkpt lat="46.73933" lon="-1.99234">
        <ele>4.4</ele>
        <time>2020-06-04T08:51:02Z</time>
      </trkpt>
      <trkpt lat="46.73938" lon="-1.99239">
        <ele>4.4</ele>
        <time>2020-06-04T08:51:03Z</time>
      </trkpt>
      <trkpt lat="46.73944" lon="-1.99241">
        <ele>4.4</ele>
        <time>2020-06-04T08:51:04Z</time>
      </trkpt>
      <trkpt lat="46.73949" lon="-1.99244">
        <ele>4.4</ele>
        <time>2020-06-04T08:51:05Z</time>
      </trkpt>
      <trkpt lat="46.73954" lon="-1.99246">
        <ele>4.5</ele>
        <time>2020-06-04T08:51:06Z</time>
      </trkpt>
      <trkpt lat="46.73957" lon="-1.99248">
        <ele>4.5</ele>
        <time>2020-06-04T08:51:07Z</time>
      </trkpt>
      <trkpt lat="46.73961" lon="-1.9925">
        <ele>4.5</ele>
        <time>2020-06-04T08:51:08Z</time>
      </trkpt>
      <trkpt lat="46.73966" lon="-1.99252">
        <ele>4.6</ele>
        <time>2020-06-04T08:51:09Z</time>
      </trkpt>
      <trkpt lat="46.73971" lon="-1.99254">
        <ele>4.6</ele>
        <time>2020-06-04T08:51:10Z</time>
      </trkpt>
      <trkpt lat="46.73975" lon="-1.99255">
        <ele>4.6</ele>
        <time>2020-06-04T08:51:11Z</time>
      </trkpt>
      <trkpt lat="46.73979" lon="-1.99256">
        <ele>4.6</ele>
        <time>2020-06-04T08:51:12Z</time>
      </trkpt>
      <trkpt lat="46.73984" lon="-1.99256">
        <ele>4.7</ele>
        <time>2020-06-04T08:51:13Z</time>
      </trkpt>
      <trkpt lat="46.73989" lon="-1.99258">
        <ele>4.7</ele>
        <time>2020-06-04T08:51:14Z</time>
      </trkpt>
      <trkpt lat="46.73993" lon="-1.99259">
        <ele>4.7</ele>
        <time>2020-06-04T08:51:15Z</time>
      </trkpt>
      <trkpt lat="46.73998" lon="-1.9926">
        <ele>4.7</ele>
        <time>2020-06-04T08:51:16Z</time>
      </trkpt>
      <trkpt lat="46.74002" lon="-1.99262">
        <ele>4.7</ele>
        <time>2020-06-04T08:51:17Z</time>
      </trkpt>
      <trkpt lat="46.74007" lon="-1.99263">
        <ele>4.8</ele>
        <time>2020-06-04T08:51:18Z</time>
      </trkpt>
      <trkpt lat="46.74012" lon="-1.99265">
        <ele>4.8</ele>
        <time>2020-06-04T08:51:19Z</time>
      </trkpt>
      <trkpt lat="46.74016" lon="-1.99267">
        <ele>4.8</ele>
        <time>2020-06-04T08:51:20Z</time>
      </trkpt>
      <trkpt lat="46.74021" lon="-1.99267">
        <ele>4.8</ele>
        <time>2020-06-04T08:51:21Z</time>
      </trkpt>
      <trkpt lat="46.74026" lon="-1.99268">
        <ele>4.8</ele>
        <time>2020-06-04T08:51:22Z</time>
      </trkpt>
      <trkpt lat="46.7403" lon="-1.99267">
        <ele>4.8</ele>
        <time>2020-06-04T08:51:23Z</time>
      </trkpt>
      <trkpt lat="46.74035" lon="-1.99267">
        <ele>4.8</ele>
        <time>2020-06-04T08:51:24Z</time>
      </trkpt>
      <trkpt lat="46.74041" lon="-1.99267">
        <ele>4.8</ele>
        <time>2020-06-04T08:51:25Z</time>
      </trkpt>
      <trkpt lat="46.74045" lon="-1.99268">
        <ele>4.8</ele>
        <time>2020-06-04T08:51:26Z</time>
      </trkpt>
      <trkpt lat="46.74049" lon="-1.99269">
        <ele>4.8</ele>
        <time>2020-06-04T08:51:27Z</time>
      </trkpt>
      <trkpt lat="46.74053" lon="-1.99271">
        <ele>4.8</ele>
        <time>2020-06-04T08:51:28Z</time>
      </trkpt>
      <trkpt lat="46.74057" lon="-1.99273">
        <ele>4.8</ele>
        <time>2020-06-04T08:51:29Z</time>
      </trkpt>
      <trkpt lat="46.7406" lon="-1.99275">
        <ele>4.7</ele>
        <time>2020-06-04T08:51:30Z</time>
      </trkpt>
      <trkpt lat="46.74063" lon="-1.99276">
        <ele>4.7</ele>
        <time>2020-06-04T08:51:31Z</time>
      </trkpt>
      <trkpt lat="46.74067" lon="-1.99276">
        <ele>4.7</ele>
        <time>2020-06-04T08:51:32Z</time>
      </trkpt>
      <trkpt lat="46.74072" lon="-1.99275">
        <ele>4.7</ele>
        <time>2020-06-04T08:51:33Z</time>
      </trkpt>
      <trkpt lat="46.74076" lon="-1.99275">
        <ele>4.6</ele>
        <time>2020-06-04T08:51:34Z</time>
      </trkpt>
      <trkpt lat="46.7408" lon="-1.99276">
        <ele>4.6</ele>
        <time>2020-06-04T08:51:35Z</time>
      </trkpt>
      <trkpt lat="46.74085" lon="-1.99277">
        <ele>4.6</ele>
        <time>2020-06-04T08:51:36Z</time>
      </trkpt>
      <trkpt lat="46.74089" lon="-1.99277">
        <ele>4.6</ele>
        <time>2020-06-04T08:51:37Z</time>
      </trkpt>
      <trkpt lat="46.74095" lon="-1.99276">
        <ele>4.5</ele>
        <time>2020-06-04T08:51:38Z</time>
      </trkpt>
      <trkpt lat="46.74098" lon="-1.99276">
        <ele>4.5</ele>
        <time>2020-06-04T08:51:39Z</time>
      </trkpt>
      <trkpt lat="46.74102" lon="-1.99276">
        <ele>4.5</ele>
        <time>2020-06-04T08:51:40Z</time>
      </trkpt>
      <trkpt lat="46.74105" lon="-1.99277">
        <ele>4.4</ele>
        <time>2020-06-04T08:51:41Z</time>
      </trkpt>
      <trkpt lat="46.74108" lon="-1.99279">
        <ele>4.4</ele>
        <time>2020-06-04T08:51:42Z</time>
      </trkpt>
      <trkpt lat="46.74112" lon="-1.99282">
        <ele>4.4</ele>
        <time>2020-06-04T08:51:43Z</time>
      </trkpt>
      <trkpt lat="46.74115" lon="-1.99286">
        <ele>4.4</ele>
        <time>2020-06-04T08:51:44Z</time>
      </trkpt>
      <trkpt lat="46.74118" lon="-1.99287">
        <ele>4.4</ele>
        <time>2020-06-04T08:51:45Z</time>
      </trkpt>
      <trkpt lat="46.74122" lon="-1.99288">
        <ele>4.4</ele>
        <time>2020-06-04T08:51:46Z</time>
      </trkpt>
      <trkpt lat="46.74127" lon="-1.99289">
        <ele>4.4</ele>
        <time>2020-06-04T08:51:47Z</time>
      </trkpt>
      <trkpt lat="46.74131" lon="-1.99288">
        <ele>4.4</ele>
        <time>2020-06-04T08:51:48Z</time>
      </trkpt>
      <trkpt lat="46.74135" lon="-1.99289">
        <ele>4.4</ele>
        <time>2020-06-04T08:51:49Z</time>
      </trkpt>
      <trkpt lat="46.7414" lon="-1.9929">
        <ele>4.4</ele>
        <time>2020-06-04T08:51:50Z</time>
      </trkpt>
      <trkpt lat="46.74144" lon="-1.99293">
        <ele>4.3</ele>
        <time>2020-06-04T08:51:51Z</time>
      </trkpt>
      <trkpt lat="46.74147" lon="-1.99295">
        <ele>4.3</ele>
        <time>2020-06-04T08:51:52Z</time>
      </trkpt>
      <trkpt lat="46.74148" lon="-1.99299">
        <ele>4.3</ele>
        <time>2020-06-04T08:51:53Z</time>
      </trkpt>
      <trkpt lat="46.74149" lon="-1.99304">
        <ele>4.3</ele>
        <time>2020-06-04T08:51:54Z</time>
      </trkpt>
      <trkpt lat="46.74151" lon="-1.9931">
        <ele>4.3</ele>
        <time>2020-06-04T08:51:55Z</time>
      </trkpt>
      <trkpt lat="46.74154" lon="-1.99314">
        <ele>4.3</ele>
        <time>2020-06-04T08:51:56Z</time>
      </trkpt>
      <trkpt lat="46.74158" lon="-1.99315">
        <ele>4.2</ele>
        <time>2020-06-04T08:51:57Z</time>
      </trkpt>
      <trkpt lat="46.74163" lon="-1.99318">
        <ele>4.2</ele>
        <time>2020-06-04T08:51:58Z</time>
      </trkpt>
      <trkpt lat="46.74167" lon="-1.99322">
        <ele>4.2</ele>
        <time>2020-06-04T08:51:59Z</time>
      </trkpt>
      <trkpt lat="46.74169" lon="-1.99325">
        <ele>4</ele>
        <time>2020-06-04T08:52:00Z</time>
      </trkpt>
      <trkpt lat="46.74171" lon="-1.99328">
        <ele>4</ele>
        <time>2020-06-04T08:52:01Z</time>
      </trkpt>
      <trkpt lat="46.74173" lon="-1.99331">
        <ele>4</ele>
        <time>2020-06-04T08:52:02Z</time>
      </trkpt>
      <trkpt lat="46.74175" lon="-1.99333">
        <ele>4</ele>
        <time>2020-06-04T08:52:03Z</time>
      </trkpt>
      <trkpt lat="46.74179" lon="-1.99335">
        <ele>4</ele>
        <time>2020-06-04T08:52:04Z</time>
      </trkpt>
      <trkpt lat="46.74183" lon="-1.99336">
        <ele>4</ele>
        <time>2020-06-04T08:52:05Z</time>
      </trkpt>
      <trkpt lat="46.74187" lon="-1.9934">
        <ele>4</ele>
        <time>2020-06-04T08:52:06Z</time>
      </trkpt>
      <trkpt lat="46.74192" lon="-1.99343">
        <ele>4</ele>
        <time>2020-06-04T08:52:07Z</time>
      </trkpt>
      <trkpt lat="46.74197" lon="-1.99344">
        <ele>4</ele>
        <time>2020-06-04T08:52:08Z</time>
      </trkpt>
      <trkpt lat="46.74203" lon="-1.99345">
        <ele>4</ele>
        <time>2020-06-04T08:52:09Z</time>
      </trkpt>
      <trkpt lat="46.74206" lon="-1.99347">
        <ele>4.1</ele>
        <time>2020-06-04T08:52:10Z</time>
      </trkpt>
      <trkpt lat="46.74209" lon="-1.99351">
        <ele>4.1</ele>
        <time>2020-06-04T08:52:11Z</time>
      </trkpt>
      <trkpt lat="46.74212" lon="-1.99358">
        <ele>4.2</ele>
        <time>2020-06-04T08:52:12Z</time>
      </trkpt>
      <trkpt lat="46.74213" lon="-1.99364">
        <ele>4.2</ele>
        <time>2020-06-04T08:52:13Z</time>
      </trkpt>
      <trkpt lat="46.74215" lon="-1.99371">
        <ele>4.2</ele>
        <time>2020-06-04T08:52:14Z</time>
      </trkpt>
      <trkpt lat="46.74216" lon="-1.99378">
        <ele>4.2</ele>
        <time>2020-06-04T08:52:15Z</time>
      </trkpt>
      <trkpt lat="46.74216" lon="-1.99386">
        <ele>4.3</ele>
        <time>2020-06-04T08:52:16Z</time>
      </trkpt>
      <trkpt lat="46.74216" lon="-1.99394">
        <ele>4.3</ele>
        <time>2020-06-04T08:52:17Z</time>
      </trkpt>
      <trkpt lat="46.74215" lon="-1.99403">
        <ele>4.3</ele>
        <time>2020-06-04T08:52:18Z</time>
      </trkpt>
      <trkpt lat="46.74215" lon="-1.99411">
        <ele>4.3</ele>
        <time>2020-06-04T08:52:19Z</time>
      </trkpt>
      <trkpt lat="46.74213" lon="-1.99418">
        <ele>4.3</ele>
        <time>2020-06-04T08:52:20Z</time>
      </trkpt>
      <trkpt lat="46.74212" lon="-1.99425">
        <ele>4.3</ele>
        <time>2020-06-04T08:52:21Z</time>
      </trkpt>
      <trkpt lat="46.74211" lon="-1.9943">
        <ele>4.3</ele>
        <time>2020-06-04T08:52:22Z</time>
      </trkpt>
      <trkpt lat="46.7421" lon="-1.99436">
        <ele>4.3</ele>
        <time>2020-06-04T08:52:23Z</time>
      </trkpt>
      <trkpt lat="46.74209" lon="-1.99443">
        <ele>4.3</ele>
        <time>2020-06-04T08:52:24Z</time>
      </trkpt>
      <trkpt lat="46.74208" lon="-1.99451">
        <ele>4.3</ele>
        <time>2020-06-04T08:52:25Z</time>
      </trkpt>
      <trkpt lat="46.74207" lon="-1.99459">
        <ele>4.2</ele>
        <time>2020-06-04T08:52:26Z</time>
      </trkpt>
      <trkpt lat="46.74206" lon="-1.99466">
        <ele>4.2</ele>
        <time>2020-06-04T08:52:27Z</time>
      </trkpt>
      <trkpt lat="46.74203" lon="-1.99473">
        <ele>4.2</ele>
        <time>2020-06-04T08:52:28Z</time>
      </trkpt>
      <trkpt lat="46.74201" lon="-1.9948">
        <ele>4.2</ele>
        <time>2020-06-04T08:52:29Z</time>
      </trkpt>
      <trkpt lat="46.742" lon="-1.99488">
        <ele>4.2</ele>
        <time>2020-06-04T08:52:30Z</time>
      </trkpt>
      <trkpt lat="46.74198" lon="-1.99494">
        <ele>4.2</ele>
        <time>2020-06-04T08:52:31Z</time>
      </trkpt>
      <trkpt lat="46.74197" lon="-1.99501">
        <ele>4.2</ele>
        <time>2020-06-04T08:52:32Z</time>
      </trkpt>
      <trkpt lat="46.74194" lon="-1.99508">
        <ele>4.2</ele>
        <time>2020-06-04T08:52:33Z</time>
      </trkpt>
      <trkpt lat="46.74191" lon="-1.99515">
        <ele>4.2</ele>
        <time>2020-06-04T08:52:34Z</time>
      </trkpt>
      <trkpt lat="46.74189" lon="-1.99524">
        <ele>4.2</ele>
        <time>2020-06-04T08:52:35Z</time>
      </trkpt>
      <trkpt lat="46.74188" lon="-1.99531">
        <ele>4.2</ele>
        <time>2020-06-04T08:52:36Z</time>
      </trkpt>
      <trkpt lat="46.74186" lon="-1.99538">
        <ele>4.2</ele>
        <time>2020-06-04T08:52:37Z</time>
      </trkpt>
      <trkpt lat="46.74183" lon="-1.99545">
        <ele>4.2</ele>
        <time>2020-06-04T08:52:38Z</time>
      </trkpt>
      <trkpt lat="46.74182" lon="-1.99552">
        <ele>4.2</ele>
        <time>2020-06-04T08:52:39Z</time>
      </trkpt>
      <trkpt lat="46.74181" lon="-1.99558">
        <ele>4.2</ele>
        <time>2020-06-04T08:52:40Z</time>
      </trkpt>
      <trkpt lat="46.74179" lon="-1.99566">
        <ele>4.2</ele>
        <time>2020-06-04T08:52:41Z</time>
      </trkpt>
      <trkpt lat="46.74178" lon="-1.99574">
        <ele>4.2</ele>
        <time>2020-06-04T08:52:42Z</time>
      </trkpt>
      <trkpt lat="46.74176" lon="-1.99581">
        <ele>4.2</ele>
        <time>2020-06-04T08:52:43Z</time>
      </trkpt>
      <trkpt lat="46.74174" lon="-1.99589">
        <ele>4.2</ele>
        <time>2020-06-04T08:52:44Z</time>
      </trkpt>
      <trkpt lat="46.74172" lon="-1.99597">
        <ele>4.2</ele>
        <time>2020-06-04T08:52:45Z</time>
      </trkpt>
      <trkpt lat="46.7417" lon="-1.99604">
        <ele>4.2</ele>
        <time>2020-06-04T08:52:46Z</time>
      </trkpt>
      <trkpt lat="46.74167" lon="-1.99612">
        <ele>4.2</ele>
        <time>2020-06-04T08:52:47Z</time>
      </trkpt>
      <trkpt lat="46.74165" lon="-1.9962">
        <ele>4.1</ele>
        <time>2020-06-04T08:52:48Z</time>
      </trkpt>
      <trkpt lat="46.74162" lon="-1.99627">
        <ele>4.1</ele>
        <time>2020-06-04T08:52:49Z</time>
      </trkpt>
      <trkpt lat="46.7416" lon="-1.99635">
        <ele>4.1</ele>
        <time>2020-06-04T08:52:50Z</time>
      </trkpt>
      <trkpt lat="46.74159" lon="-1.99643">
        <ele>4.1</ele>
        <time>2020-06-04T08:52:51Z</time>
      </trkpt>
      <trkpt lat="46.74158" lon="-1.9965">
        <ele>4.1</ele>
        <time>2020-06-04T08:52:52Z</time>
      </trkpt>
      <trkpt lat="46.74157" lon="-1.99659">
        <ele>4.1</ele>
        <time>2020-06-04T08:52:53Z</time>
      </trkpt>
      <trkpt lat="46.74156" lon="-1.99667">
        <ele>4.1</ele>
        <time>2020-06-04T08:52:54Z</time>
      </trkpt>
      <trkpt lat="46.74154" lon="-1.99676">
        <ele>4.1</ele>
        <time>2020-06-04T08:52:55Z</time>
      </trkpt>
      <trkpt lat="46.74153" lon="-1.99684">
        <ele>4.1</ele>
        <time>2020-06-04T08:52:56Z</time>
      </trkpt>
      <trkpt lat="46.74151" lon="-1.99693">
        <ele>4.1</ele>
        <time>2020-06-04T08:52:57Z</time>
      </trkpt>
      <trkpt lat="46.74151" lon="-1.99701">
        <ele>4.1</ele>
        <time>2020-06-04T08:52:58Z</time>
      </trkpt>
      <trkpt lat="46.74151" lon="-1.9971">
        <ele>4.1</ele>
        <time>2020-06-04T08:52:59Z</time>
      </trkpt>
      <trkpt lat="46.7415" lon="-1.99719">
        <ele>4.1</ele>
        <time>2020-06-04T08:53:00Z</time>
      </trkpt>
      <trkpt lat="46.7415" lon="-1.99726">
        <ele>4.1</ele>
        <time>2020-06-04T08:53:01Z</time>
      </trkpt>
      <trkpt lat="46.7415" lon="-1.99734">
        <ele>4.1</ele>
        <time>2020-06-04T08:53:02Z</time>
      </trkpt>
      <trkpt lat="46.7415" lon="-1.99743">
        <ele>4</ele>
        <time>2020-06-04T08:53:03Z</time>
      </trkpt>
      <trkpt lat="46.7415" lon="-1.99751">
        <ele>4</ele>
        <time>2020-06-04T08:53:04Z</time>
      </trkpt>
      <trkpt lat="46.7415" lon="-1.99759">
        <ele>4</ele>
        <time>2020-06-04T08:53:05Z</time>
      </trkpt>
      <trkpt lat="46.74149" lon="-1.99766">
        <ele>4</ele>
        <time>2020-06-04T08:53:06Z</time>
      </trkpt>
      <trkpt lat="46.74147" lon="-1.99773">
        <ele>4</ele>
        <time>2020-06-04T08:53:07Z</time>
      </trkpt>
      <trkpt lat="46.74147" lon="-1.99781">
        <ele>4</ele>
        <time>2020-06-04T08:53:08Z</time>
      </trkpt>
      <trkpt lat="46.74146" lon="-1.9979">
        <ele>3.9</ele>
        <time>2020-06-04T08:53:09Z</time>
      </trkpt>
      <trkpt lat="46.74145" lon="-1.99797">
        <ele>3.9</ele>
        <time>2020-06-04T08:53:10Z</time>
      </trkpt>
      <trkpt lat="46.74144" lon="-1.99804">
        <ele>3.9</ele>
        <time>2020-06-04T08:53:11Z</time>
      </trkpt>
      <trkpt lat="46.74144" lon="-1.99812">
        <ele>3.9</ele>
        <time>2020-06-04T08:53:12Z</time>
      </trkpt>
      <trkpt lat="46.74143" lon="-1.99819">
        <ele>3.9</ele>
        <time>2020-06-04T08:53:13Z</time>
      </trkpt>
      <trkpt lat="46.74143" lon="-1.99827">
        <ele>3.8</ele>
        <time>2020-06-04T08:53:14Z</time>
      </trkpt>
      <trkpt lat="46.74143" lon="-1.99835">
        <ele>3.8</ele>
        <time>2020-06-04T08:53:15Z</time>
      </trkpt>
      <trkpt lat="46.74144" lon="-1.99843">
        <ele>3.8</ele>
        <time>2020-06-04T08:53:16Z</time>
      </trkpt>
      <trkpt lat="46.74142" lon="-1.99851">
        <ele>3.8</ele>
        <time>2020-06-04T08:53:17Z</time>
      </trkpt>
      <trkpt lat="46.74141" lon="-1.9986">
        <ele>3.8</ele>
        <time>2020-06-04T08:53:18Z</time>
      </trkpt>
      <trkpt lat="46.74141" lon="-1.99869">
        <ele>3.8</ele>
        <time>2020-06-04T08:53:19Z</time>
      </trkpt>
      <trkpt lat="46.74141" lon="-1.99878">
        <ele>3.7</ele>
        <time>2020-06-04T08:53:20Z</time>
      </trkpt>
      <trkpt lat="46.7414" lon="-1.99887">
        <ele>3.7</ele>
        <time>2020-06-04T08:53:21Z</time>
      </trkpt>
      <trkpt lat="46.7414" lon="-1.99896">
        <ele>3.7</ele>
        <time>2020-06-04T08:53:22Z</time>
      </trkpt>
      <trkpt lat="46.74139" lon="-1.99904">
        <ele>3.7</ele>
        <time>2020-06-04T08:53:23Z</time>
      </trkpt>
      <trkpt lat="46.74139" lon="-1.99911">
        <ele>3.7</ele>
        <time>2020-06-04T08:53:24Z</time>
      </trkpt>
      <trkpt lat="46.74138" lon="-1.99917">
        <ele>3.7</ele>
        <time>2020-06-04T08:53:25Z</time>
      </trkpt>
      <trkpt lat="46.74137" lon="-1.99925">
        <ele>3.7</ele>
        <time>2020-06-04T08:53:26Z</time>
      </trkpt>
      <trkpt lat="46.74137" lon="-1.99933">
        <ele>3.6</ele>
        <time>2020-06-04T08:53:27Z</time>
      </trkpt>
      <trkpt lat="46.74136" lon="-1.99941">
        <ele>3.6</ele>
        <time>2020-06-04T08:53:28Z</time>
      </trkpt>
      <trkpt lat="46.74137" lon="-1.9995">
        <ele>3.6</ele>
        <time>2020-06-04T08:53:29Z</time>
      </trkpt>
      <trkpt lat="46.74135" lon="-1.99959">
        <ele>3.6</ele>
        <time>2020-06-04T08:53:30Z</time>
      </trkpt>
      <trkpt lat="46.74134" lon="-1.99966">
        <ele>3.6</ele>
        <time>2020-06-04T08:53:31Z</time>
      </trkpt>
      <trkpt lat="46.74134" lon="-1.99975">
        <ele>3.6</ele>
        <time>2020-06-04T08:53:32Z</time>
      </trkpt>
      <trkpt lat="46.74134" lon="-1.99984">
        <ele>3.5</ele>
        <time>2020-06-04T08:53:33Z</time>
      </trkpt>
      <trkpt lat="46.74132" lon="-1.99992">
        <ele>3.5</ele>
        <time>2020-06-04T08:53:34Z</time>
      </trkpt>
      <trkpt lat="46.74131" lon="-2.00001">
        <ele>3.5</ele>
        <time>2020-06-04T08:53:35Z</time>
      </trkpt>
      <trkpt lat="46.7413" lon="-2.00009">
        <ele>3.5</ele>
        <time>2020-06-04T08:53:36Z</time>
      </trkpt>
      <trkpt lat="46.74129" lon="-2.00016">
        <ele>3.4</ele>
        <time>2020-06-04T08:53:37Z</time>
      </trkpt>
      <trkpt lat="46.74129" lon="-2.00024">
        <ele>3.4</ele>
        <time>2020-06-04T08:53:38Z</time>
      </trkpt>
      <trkpt lat="46.74128" lon="-2.0003">
        <ele>3.4</ele>
        <time>2020-06-04T08:53:39Z</time>
      </trkpt>
      <trkpt lat="46.74126" lon="-2.00035">
        <ele>3.4</ele>
        <time>2020-06-04T08:53:40Z</time>
      </trkpt>
      <trkpt lat="46.74126" lon="-2.00043">
        <ele>3.4</ele>
        <time>2020-06-04T08:53:41Z</time>
      </trkpt>
      <trkpt lat="46.74125" lon="-2.0005">
        <ele>3.4</ele>
        <time>2020-06-04T08:53:42Z</time>
      </trkpt>
      <trkpt lat="46.74125" lon="-2.00058">
        <ele>3.4</ele>
        <time>2020-06-04T08:53:43Z</time>
      </trkpt>
      <trkpt lat="46.74123" lon="-2.00065">
        <ele>3.4</ele>
        <time>2020-06-04T08:53:44Z</time>
      </trkpt>
      <trkpt lat="46.74121" lon="-2.00073">
        <ele>3.3</ele>
        <time>2020-06-04T08:53:45Z</time>
      </trkpt>
      <trkpt lat="46.7412" lon="-2.0008">
        <ele>3.3</ele>
        <time>2020-06-04T08:53:46Z</time>
      </trkpt>
      <trkpt lat="46.7412" lon="-2.00087">
        <ele>3.3</ele>
        <time>2020-06-04T08:53:47Z</time>
      </trkpt>
      <trkpt lat="46.74119" lon="-2.00095">
        <ele>3.3</ele>
        <time>2020-06-04T08:53:48Z</time>
      </trkpt>
      <trkpt lat="46.74119" lon="-2.00102">
        <ele>3.3</ele>
        <time>2020-06-04T08:53:49Z</time>
      </trkpt>
      <trkpt lat="46.74118" lon="-2.0011">
        <ele>3.3</ele>
        <time>2020-06-04T08:53:50Z</time>
      </trkpt>
      <trkpt lat="46.74116" lon="-2.00117">
        <ele>3.3</ele>
        <time>2020-06-04T08:53:51Z</time>
      </trkpt>
      <trkpt lat="46.74116" lon="-2.00124">
        <ele>3.3</ele>
        <time>2020-06-04T08:53:52Z</time>
      </trkpt>
      <trkpt lat="46.74114" lon="-2.00132">
        <ele>3.3</ele>
        <time>2020-06-04T08:53:53Z</time>
      </trkpt>
      <trkpt lat="46.74113" lon="-2.0014">
        <ele>3.3</ele>
        <time>2020-06-04T08:53:54Z</time>
      </trkpt>
      <trkpt lat="46.74112" lon="-2.00148">
        <ele>3.3</ele>
        <time>2020-06-04T08:53:55Z</time>
      </trkpt>
      <trkpt lat="46.74111" lon="-2.00156">
        <ele>3.3</ele>
        <time>2020-06-04T08:53:56Z</time>
      </trkpt>
      <trkpt lat="46.74109" lon="-2.00163">
        <ele>3.3</ele>
        <time>2020-06-04T08:53:57Z</time>
      </trkpt>
      <trkpt lat="46.74107" lon="-2.0017">
        <ele>3.4</ele>
        <time>2020-06-04T08:53:58Z</time>
      </trkpt>
      <trkpt lat="46.74106" lon="-2.00179">
        <ele>3.4</ele>
        <time>2020-06-04T08:53:59Z</time>
      </trkpt>
      <trkpt lat="46.74103" lon="-2.00187">
        <ele>3.4</ele>
        <time>2020-06-04T08:54:00Z</time>
      </trkpt>
      <trkpt lat="46.74101" lon="-2.00194">
        <ele>3.4</ele>
        <time>2020-06-04T08:54:01Z</time>
      </trkpt>
      <trkpt lat="46.74099" lon="-2.00202">
        <ele>3.4</ele>
        <time>2020-06-04T08:54:02Z</time>
      </trkpt>
      <trkpt lat="46.74097" lon="-2.0021">
        <ele>3.4</ele>
        <time>2020-06-04T08:54:03Z</time>
      </trkpt>
      <trkpt lat="46.74095" lon="-2.00218">
        <ele>3.5</ele>
        <time>2020-06-04T08:54:04Z</time>
      </trkpt>
      <trkpt lat="46.74092" lon="-2.00226">
        <ele>3.5</ele>
        <time>2020-06-04T08:54:05Z</time>
      </trkpt>
      <trkpt lat="46.7409" lon="-2.00235">
        <ele>3.5</ele>
        <time>2020-06-04T08:54:06Z</time>
      </trkpt>
      <trkpt lat="46.74088" lon="-2.00242">
        <ele>3.5</ele>
        <time>2020-06-04T08:54:07Z</time>
      </trkpt>
      <trkpt lat="46.74085" lon="-2.0025">
        <ele>3.5</ele>
        <time>2020-06-04T08:54:08Z</time>
      </trkpt>
      <trkpt lat="46.74083" lon="-2.00257">
        <ele>3.5</ele>
        <time>2020-06-04T08:54:09Z</time>
      </trkpt>
      <trkpt lat="46.7408" lon="-2.00264">
        <ele>3.5</ele>
        <time>2020-06-04T08:54:10Z</time>
      </trkpt>
      <trkpt lat="46.74078" lon="-2.00271">
        <ele>3.6</ele>
        <time>2020-06-04T08:54:11Z</time>
      </trkpt>
      <trkpt lat="46.74077" lon="-2.00277">
        <ele>3.6</ele>
        <time>2020-06-04T08:54:12Z</time>
      </trkpt>
      <trkpt lat="46.74075" lon="-2.00284">
        <ele>3.5</ele>
        <time>2020-06-04T08:54:13Z</time>
      </trkpt>
      <trkpt lat="46.74075" lon="-2.0029">
        <ele>3.5</ele>
        <time>2020-06-04T08:54:14Z</time>
      </trkpt>
      <trkpt lat="46.74073" lon="-2.00296">
        <ele>3.5</ele>
        <time>2020-06-04T08:54:15Z</time>
      </trkpt>
      <trkpt lat="46.74072" lon="-2.00302">
        <ele>3.5</ele>
        <time>2020-06-04T08:54:16Z</time>
      </trkpt>
      <trkpt lat="46.74071" lon="-2.00308">
        <ele>3.5</ele>
        <time>2020-06-04T08:54:17Z</time>
      </trkpt>
      <trkpt lat="46.74069" lon="-2.00314">
        <ele>3.5</ele>
        <time>2020-06-04T08:54:18Z</time>
      </trkpt>
      <trkpt lat="46.74067" lon="-2.0032">
        <ele>3.6</ele>
        <time>2020-06-04T08:54:19Z</time>
      </trkpt>
      <trkpt lat="46.74065" lon="-2.00326">
        <ele>3.6</ele>
        <time>2020-06-04T08:54:20Z</time>
      </trkpt>
      <trkpt lat="46.74063" lon="-2.00332">
        <ele>3.6</ele>
        <time>2020-06-04T08:54:21Z</time>
      </trkpt>
      <trkpt lat="46.74061" lon="-2.00337">
        <ele>3.6</ele>
        <time>2020-06-04T08:54:22Z</time>
      </trkpt>
      <trkpt lat="46.7406" lon="-2.00344">
        <ele>3.6</ele>
        <time>2020-06-04T08:54:23Z</time>
      </trkpt>
      <trkpt lat="46.74058" lon="-2.0035">
        <ele>3.6</ele>
        <time>2020-06-04T08:54:24Z</time>
      </trkpt>
      <trkpt lat="46.74057" lon="-2.00357">
        <ele>3.6</ele>
        <time>2020-06-04T08:54:25Z</time>
      </trkpt>
      <trkpt lat="46.74056" lon="-2.00364">
        <ele>3.6</ele>
        <time>2020-06-04T08:54:26Z</time>
      </trkpt>
      <trkpt lat="46.74055" lon="-2.00372">
        <ele>3.5</ele>
        <time>2020-06-04T08:54:27Z</time>
      </trkpt>
      <trkpt lat="46.74055" lon="-2.00379">
        <ele>3.5</ele>
        <time>2020-06-04T08:54:28Z</time>
      </trkpt>
      <trkpt lat="46.74054" lon="-2.00386">
        <ele>3.5</ele>
        <time>2020-06-04T08:54:29Z</time>
      </trkpt>
      <trkpt lat="46.74052" lon="-2.00394">
        <ele>3.5</ele>
        <time>2020-06-04T08:54:30Z</time>
      </trkpt>
      <trkpt lat="46.74052" lon="-2.004">
        <ele>3.5</ele>
        <time>2020-06-04T08:54:31Z</time>
      </trkpt>
      <trkpt lat="46.74052" lon="-2.00407">
        <ele>3.5</ele>
        <time>2020-06-04T08:54:32Z</time>
      </trkpt>
      <trkpt lat="46.74051" lon="-2.00413">
        <ele>3.5</ele>
        <time>2020-06-04T08:54:33Z</time>
      </trkpt>
      <trkpt lat="46.74051" lon="-2.0042">
        <ele>3.5</ele>
        <time>2020-06-04T08:54:34Z</time>
      </trkpt>
      <trkpt lat="46.74049" lon="-2.00426">
        <ele>3.5</ele>
        <time>2020-06-04T08:54:35Z</time>
      </trkpt>
      <trkpt lat="46.74049" lon="-2.00434">
        <ele>3.5</ele>
        <time>2020-06-04T08:54:36Z</time>
      </trkpt>
      <trkpt lat="46.74048" lon="-2.00441">
        <ele>3.5</ele>
        <time>2020-06-04T08:54:37Z</time>
      </trkpt>
      <trkpt lat="46.74046" lon="-2.00448">
        <ele>3.5</ele>
        <time>2020-06-04T08:54:38Z</time>
      </trkpt>
      <trkpt lat="46.74045" lon="-2.00455">
        <ele>3.5</ele>
        <time>2020-06-04T08:54:39Z</time>
      </trkpt>
      <trkpt lat="46.74043" lon="-2.00462">
        <ele>3.5</ele>
        <time>2020-06-04T08:54:40Z</time>
      </trkpt>
      <trkpt lat="46.74042" lon="-2.00469">
        <ele>3.5</ele>
        <time>2020-06-04T08:54:41Z</time>
      </trkpt>
      <trkpt lat="46.74041" lon="-2.00478">
        <ele>3.5</ele>
        <time>2020-06-04T08:54:42Z</time>
      </trkpt>
      <trkpt lat="46.74041" lon="-2.00486">
        <ele>3.5</ele>
        <time>2020-06-04T08:54:43Z</time>
      </trkpt>
      <trkpt lat="46.7404" lon="-2.00494">
        <ele>3.4</ele>
        <time>2020-06-04T08:54:44Z</time>
      </trkpt>
      <trkpt lat="46.74039" lon="-2.00501">
        <ele>3.4</ele>
        <time>2020-06-04T08:54:45Z</time>
      </trkpt>
      <trkpt lat="46.74038" lon="-2.00506">
        <ele>3.4</ele>
        <time>2020-06-04T08:54:46Z</time>
      </trkpt>
      <trkpt lat="46.74037" lon="-2.00512">
        <ele>3.4</ele>
        <time>2020-06-04T08:54:47Z</time>
      </trkpt>
      <trkpt lat="46.74035" lon="-2.00518">
        <ele>3.4</ele>
        <time>2020-06-04T08:54:48Z</time>
      </trkpt>
      <trkpt lat="46.74035" lon="-2.00525">
        <ele>3.4</ele>
        <time>2020-06-04T08:54:49Z</time>
      </trkpt>
      <trkpt lat="46.74033" lon="-2.00532">
        <ele>3.4</ele>
        <time>2020-06-04T08:54:50Z</time>
      </trkpt>
      <trkpt lat="46.74033" lon="-2.00539">
        <ele>3.4</ele>
        <time>2020-06-04T08:54:51Z</time>
      </trkpt>
      <trkpt lat="46.74032" lon="-2.00546">
        <ele>3.4</ele>
        <time>2020-06-04T08:54:52Z</time>
      </trkpt>
      <trkpt lat="46.7403" lon="-2.00552">
        <ele>3.4</ele>
        <time>2020-06-04T08:54:53Z</time>
      </trkpt>
      <trkpt lat="46.74029" lon="-2.00558">
        <ele>3.4</ele>
        <time>2020-06-04T08:54:54Z</time>
      </trkpt>
      <trkpt lat="46.74026" lon="-2.00563">
        <ele>3.4</ele>
        <time>2020-06-04T08:54:55Z</time>
      </trkpt>
      <trkpt lat="46.74025" lon="-2.00571">
        <ele>3.4</ele>
        <time>2020-06-04T08:54:56Z</time>
      </trkpt>
      <trkpt lat="46.74024" lon="-2.00579">
        <ele>3.3</ele>
        <time>2020-06-04T08:54:57Z</time>
      </trkpt>
      <trkpt lat="46.74023" lon="-2.00586">
        <ele>3.3</ele>
        <time>2020-06-04T08:54:58Z</time>
      </trkpt>
      <trkpt lat="46.74022" lon="-2.00594">
        <ele>3.3</ele>
        <time>2020-06-04T08:54:59Z</time>
      </trkpt>
      <trkpt lat="46.7402" lon="-2.006">
        <ele>3.3</ele>
        <time>2020-06-04T08:55:00Z</time>
      </trkpt>
      <trkpt lat="46.74019" lon="-2.00607">
        <ele>3.2</ele>
        <time>2020-06-04T08:55:01Z</time>
      </trkpt>
      <trkpt lat="46.74018" lon="-2.00614">
        <ele>3.2</ele>
        <time>2020-06-04T08:55:02Z</time>
      </trkpt>
      <trkpt lat="46.74017" lon="-2.0062">
        <ele>3.2</ele>
        <time>2020-06-04T08:55:03Z</time>
      </trkpt>
      <trkpt lat="46.74017" lon="-2.00627">
        <ele>3.2</ele>
        <time>2020-06-04T08:55:04Z</time>
      </trkpt>
      <trkpt lat="46.74018" lon="-2.00632">
        <ele>3.2</ele>
        <time>2020-06-04T08:55:05Z</time>
      </trkpt>
      <trkpt lat="46.74018" lon="-2.00638">
        <ele>3.2</ele>
        <time>2020-06-04T08:55:06Z</time>
      </trkpt>
      <trkpt lat="46.74017" lon="-2.00643">
        <ele>3.2</ele>
        <time>2020-06-04T08:55:07Z</time>
      </trkpt>
      <trkpt lat="46.74015" lon="-2.00648">
        <ele>3.2</ele>
        <time>2020-06-04T08:55:08Z</time>
      </trkpt>
      <trkpt lat="46.74015" lon="-2.00654">
        <ele>3.2</ele>
        <time>2020-06-04T08:55:09Z</time>
      </trkpt>
      <trkpt lat="46.74015" lon="-2.00661">
        <ele>3.1</ele>
        <time>2020-06-04T08:55:10Z</time>
      </trkpt>
      <trkpt lat="46.74016" lon="-2.00666">
        <ele>3.1</ele>
        <time>2020-06-04T08:55:11Z</time>
      </trkpt>
      <trkpt lat="46.74017" lon="-2.00672">
        <ele>3.1</ele>
        <time>2020-06-04T08:55:12Z</time>
      </trkpt>
      <trkpt lat="46.7402" lon="-2.00676">
        <ele>3.1</ele>
        <time>2020-06-04T08:55:13Z</time>
      </trkpt>
      <trkpt lat="46.74025" lon="-2.00676">
        <ele>3.1</ele>
        <time>2020-06-04T08:55:14Z</time>
      </trkpt>
      <trkpt lat="46.7403" lon="-2.00677">
        <ele>3.1</ele>
        <time>2020-06-04T08:55:15Z</time>
      </trkpt>
      <trkpt lat="46.74034" lon="-2.00677">
        <ele>3.2</ele>
        <time>2020-06-04T08:55:16Z</time>
      </trkpt>
      <trkpt lat="46.74038" lon="-2.00678">
        <ele>3.2</ele>
        <time>2020-06-04T08:55:17Z</time>
      </trkpt>
      <trkpt lat="46.74042" lon="-2.0068">
        <ele>3.2</ele>
        <time>2020-06-04T08:55:18Z</time>
      </trkpt>
      <trkpt lat="46.74046" lon="-2.0068">
        <ele>3.2</ele>
        <time>2020-06-04T08:55:19Z</time>
      </trkpt>
      <trkpt lat="46.7405" lon="-2.00679">
        <ele>3.3</ele>
        <time>2020-06-04T08:55:20Z</time>
      </trkpt>
      <trkpt lat="46.74056" lon="-2.00678">
        <ele>3.3</ele>
        <time>2020-06-04T08:55:21Z</time>
      </trkpt>
      <trkpt lat="46.7406" lon="-2.00678">
        <ele>3.3</ele>
        <time>2020-06-04T08:55:22Z</time>
      </trkpt>
      <trkpt lat="46.74064" lon="-2.00678">
        <ele>3.3</ele>
        <time>2020-06-04T08:55:23Z</time>
      </trkpt>
      <trkpt lat="46.74069" lon="-2.00678">
        <ele>3.3</ele>
        <time>2020-06-04T08:55:24Z</time>
      </trkpt>
      <trkpt lat="46.74072" lon="-2.00677">
        <ele>3.3</ele>
        <time>2020-06-04T08:55:25Z</time>
      </trkpt>
      <trkpt lat="46.74076" lon="-2.00678">
        <ele>3.3</ele>
        <time>2020-06-04T08:55:26Z</time>
      </trkpt>
      <trkpt lat="46.7408" lon="-2.00678">
        <ele>3.3</ele>
        <time>2020-06-04T08:55:27Z</time>
      </trkpt>
      <trkpt lat="46.74083" lon="-2.00679">
        <ele>3.3</ele>
        <time>2020-06-04T08:55:28Z</time>
      </trkpt>
      <trkpt lat="46.74087" lon="-2.0068">
        <ele>3.3</ele>
        <time>2020-06-04T08:55:29Z</time>
      </trkpt>
      <trkpt lat="46.74091" lon="-2.00682">
        <ele>3.3</ele>
        <time>2020-06-04T08:55:30Z</time>
      </trkpt>
      <trkpt lat="46.74095" lon="-2.00685">
        <ele>3.3</ele>
        <time>2020-06-04T08:55:31Z</time>
      </trkpt>
      <trkpt lat="46.741" lon="-2.00687">
        <ele>3.3</ele>
        <time>2020-06-04T08:55:32Z</time>
      </trkpt>
      <trkpt lat="46.74105" lon="-2.00689">
        <ele>3.3</ele>
        <time>2020-06-04T08:55:33Z</time>
      </trkpt>
      <trkpt lat="46.7411" lon="-2.00691">
        <ele>3.3</ele>
        <time>2020-06-04T08:55:34Z</time>
      </trkpt>
      <trkpt lat="46.74115" lon="-2.00694">
        <ele>3.3</ele>
        <time>2020-06-04T08:55:35Z</time>
      </trkpt>
      <trkpt lat="46.74121" lon="-2.00696">
        <ele>3.4</ele>
        <time>2020-06-04T08:55:36Z</time>
      </trkpt>
      <trkpt lat="46.74126" lon="-2.00701">
        <ele>3.4</ele>
        <time>2020-06-04T08:55:37Z</time>
      </trkpt>
      <trkpt lat="46.74131" lon="-2.00705">
        <ele>3.4</ele>
        <time>2020-06-04T08:55:38Z</time>
      </trkpt>
      <trkpt lat="46.74136" lon="-2.00708">
        <ele>3.4</ele>
        <time>2020-06-04T08:55:39Z</time>
      </trkpt>
      <trkpt lat="46.74141" lon="-2.00711">
        <ele>3.3</ele>
        <time>2020-06-04T08:55:40Z</time>
      </trkpt>
      <trkpt lat="46.74146" lon="-2.00714">
        <ele>3.3</ele>
        <time>2020-06-04T08:55:41Z</time>
      </trkpt>
      <trkpt lat="46.74151" lon="-2.00716">
        <ele>3.3</ele>
        <time>2020-06-04T08:55:42Z</time>
      </trkpt>
      <trkpt lat="46.74156" lon="-2.00719">
        <ele>3.3</ele>
        <time>2020-06-04T08:55:43Z</time>
      </trkpt>
      <trkpt lat="46.74159" lon="-2.00722">
        <ele>3.3</ele>
        <time>2020-06-04T08:55:44Z</time>
      </trkpt>
      <trkpt lat="46.74163" lon="-2.00724">
        <ele>3.3</ele>
        <time>2020-06-04T08:55:45Z</time>
      </trkpt>
      <trkpt lat="46.74167" lon="-2.00727">
        <ele>3.3</ele>
        <time>2020-06-04T08:55:46Z</time>
      </trkpt>
      <trkpt lat="46.74172" lon="-2.00731">
        <ele>3.3</ele>
        <time>2020-06-04T08:55:47Z</time>
      </trkpt>
      <trkpt lat="46.74176" lon="-2.00734">
        <ele>3.3</ele>
        <time>2020-06-04T08:55:48Z</time>
      </trkpt>
      <trkpt lat="46.74181" lon="-2.00738">
        <ele>3.3</ele>
        <time>2020-06-04T08:55:49Z</time>
      </trkpt>
      <trkpt lat="46.74186" lon="-2.00741">
        <ele>3.3</ele>
        <time>2020-06-04T08:55:50Z</time>
      </trkpt>
      <trkpt lat="46.7419" lon="-2.00743">
        <ele>3.3</ele>
        <time>2020-06-04T08:55:51Z</time>
      </trkpt>
      <trkpt lat="46.74194" lon="-2.00746">
        <ele>3.3</ele>
        <time>2020-06-04T08:55:52Z</time>
      </trkpt>
      <trkpt lat="46.74198" lon="-2.00749">
        <ele>3.3</ele>
        <time>2020-06-04T08:55:53Z</time>
      </trkpt>
      <trkpt lat="46.74203" lon="-2.00751">
        <ele>3.3</ele>
        <time>2020-06-04T08:55:54Z</time>
      </trkpt>
      <trkpt lat="46.74208" lon="-2.00754">
        <ele>3.2</ele>
        <time>2020-06-04T08:55:55Z</time>
      </trkpt>
      <trkpt lat="46.74212" lon="-2.00756">
        <ele>3.2</ele>
        <time>2020-06-04T08:55:56Z</time>
      </trkpt>
      <trkpt lat="46.74217" lon="-2.00759">
        <ele>3.2</ele>
        <time>2020-06-04T08:55:57Z</time>
      </trkpt>
      <trkpt lat="46.74221" lon="-2.00762">
        <ele>3.2</ele>
        <time>2020-06-04T08:55:58Z</time>
      </trkpt>
      <trkpt lat="46.74226" lon="-2.00763">
        <ele>3.2</ele>
        <time>2020-06-04T08:55:59Z</time>
      </trkpt>
      <trkpt lat="46.7423" lon="-2.00766">
        <ele>3.1</ele>
        <time>2020-06-04T08:56:00Z</time>
      </trkpt>
      <trkpt lat="46.74235" lon="-2.00769">
        <ele>3.1</ele>
        <time>2020-06-04T08:56:01Z</time>
      </trkpt>
      <trkpt lat="46.74239" lon="-2.00772">
        <ele>3.1</ele>
        <time>2020-06-04T08:56:02Z</time>
      </trkpt>
      <trkpt lat="46.74243" lon="-2.00774">
        <ele>3.1</ele>
        <time>2020-06-04T08:56:03Z</time>
      </trkpt>
      <trkpt lat="46.74248" lon="-2.00776">
        <ele>3.1</ele>
        <time>2020-06-04T08:56:04Z</time>
      </trkpt>
      <trkpt lat="46.74253" lon="-2.00779">
        <ele>3.1</ele>
        <time>2020-06-04T08:56:05Z</time>
      </trkpt>
      <trkpt lat="46.74257" lon="-2.00782">
        <ele>3.1</ele>
        <time>2020-06-04T08:56:06Z</time>
      </trkpt>
      <trkpt lat="46.74262" lon="-2.00785">
        <ele>3.1</ele>
        <time>2020-06-04T08:56:07Z</time>
      </trkpt>
      <trkpt lat="46.74267" lon="-2.00788">
        <ele>3.1</ele>
        <time>2020-06-04T08:56:08Z</time>
      </trkpt>
      <trkpt lat="46.74271" lon="-2.00791">
        <ele>3.1</ele>
        <time>2020-06-04T08:56:09Z</time>
      </trkpt>
      <trkpt lat="46.74275" lon="-2.00795">
        <ele>3.1</ele>
        <time>2020-06-04T08:56:10Z</time>
      </trkpt>
      <trkpt lat="46.7428" lon="-2.00797">
        <ele>3.1</ele>
        <time>2020-06-04T08:56:11Z</time>
      </trkpt>
      <trkpt lat="46.74285" lon="-2.00799">
        <ele>3.1</ele>
        <time>2020-06-04T08:56:12Z</time>
      </trkpt>
      <trkpt lat="46.7429" lon="-2.00801">
        <ele>3.1</ele>
        <time>2020-06-04T08:56:13Z</time>
      </trkpt>
      <trkpt lat="46.74294" lon="-2.00803">
        <ele>3.1</ele>
        <time>2020-06-04T08:56:14Z</time>
      </trkpt>
      <trkpt lat="46.74298" lon="-2.00806">
        <ele>3.1</ele>
        <time>2020-06-04T08:56:15Z</time>
      </trkpt>
      <trkpt lat="46.74302" lon="-2.00808">
        <ele>3.1</ele>
        <time>2020-06-04T08:56:16Z</time>
      </trkpt>
      <trkpt lat="46.74306" lon="-2.0081">
        <ele>3.1</ele>
        <time>2020-06-04T08:56:17Z</time>
      </trkpt>
      <trkpt lat="46.74309" lon="-2.00813">
        <ele>3.1</ele>
        <time>2020-06-04T08:56:18Z</time>
      </trkpt>
      <trkpt lat="46.74311" lon="-2.00816">
        <ele>3.1</ele>
        <time>2020-06-04T08:56:19Z</time>
      </trkpt>
      <trkpt lat="46.74312" lon="-2.00821">
        <ele>3.1</ele>
        <time>2020-06-04T08:56:20Z</time>
      </trkpt>
      <trkpt lat="46.74314" lon="-2.00825">
        <ele>3.1</ele>
        <time>2020-06-04T08:56:21Z</time>
      </trkpt>
      <trkpt lat="46.74316" lon="-2.00829">
        <ele>3.1</ele>
        <time>2020-06-04T08:56:22Z</time>
      </trkpt>
      <trkpt lat="46.74318" lon="-2.00835">
        <ele>3.1</ele>
        <time>2020-06-04T08:56:23Z</time>
      </trkpt>
      <trkpt lat="46.74321" lon="-2.0084">
        <ele>3.2</ele>
        <time>2020-06-04T08:56:24Z</time>
      </trkpt>
      <trkpt lat="46.74324" lon="-2.00845">
        <ele>3.2</ele>
        <time>2020-06-04T08:56:25Z</time>
      </trkpt>
      <trkpt lat="46.74327" lon="-2.0085">
        <ele>3.2</ele>
        <time>2020-06-04T08:56:26Z</time>
      </trkpt>
      <trkpt lat="46.7433" lon="-2.00856">
        <ele>3.2</ele>
        <time>2020-06-04T08:56:27Z</time>
      </trkpt>
      <trkpt lat="46.74335" lon="-2.00861">
        <ele>3.2</ele>
        <time>2020-06-04T08:56:28Z</time>
      </trkpt>
      <trkpt lat="46.74339" lon="-2.00865">
        <ele>3.2</ele>
        <time>2020-06-04T08:56:29Z</time>
      </trkpt>
      <trkpt lat="46.74343" lon="-2.00869">
        <ele>3.2</ele>
        <time>2020-06-04T08:56:30Z</time>
      </trkpt>
      <trkpt lat="46.74347" lon="-2.00875">
        <ele>3.2</ele>
        <time>2020-06-04T08:56:31Z</time>
      </trkpt>
      <trkpt lat="46.74351" lon="-2.00879">
        <ele>3.2</ele>
        <time>2020-06-04T08:56:32Z</time>
      </trkpt>
      <trkpt lat="46.74354" lon="-2.00884">
        <ele>3.3</ele>
        <time>2020-06-04T08:56:33Z</time>
      </trkpt>
      <trkpt lat="46.74358" lon="-2.00889">
        <ele>3.3</ele>
        <time>2020-06-04T08:56:34Z</time>
      </trkpt>
      <trkpt lat="46.74362" lon="-2.00893">
        <ele>3.3</ele>
        <time>2020-06-04T08:56:35Z</time>
      </trkpt>
      <trkpt lat="46.74366" lon="-2.00897">
        <ele>3.3</ele>
        <time>2020-06-04T08:56:36Z</time>
      </trkpt>
      <trkpt lat="46.7437" lon="-2.009">
        <ele>3.3</ele>
        <time>2020-06-04T08:56:37Z</time>
      </trkpt>
      <trkpt lat="46.74374" lon="-2.00904">
        <ele>3.3</ele>
        <time>2020-06-04T08:56:38Z</time>
      </trkpt>
      <trkpt lat="46.74378" lon="-2.00908">
        <ele>3.3</ele>
        <time>2020-06-04T08:56:39Z</time>
      </trkpt>
      <trkpt lat="46.74383" lon="-2.00912">
        <ele>3.4</ele>
        <time>2020-06-04T08:56:40Z</time>
      </trkpt>
      <trkpt lat="46.74386" lon="-2.00916">
        <ele>3.4</ele>
        <time>2020-06-04T08:56:41Z</time>
      </trkpt>
      <trkpt lat="46.7439" lon="-2.00919">
        <ele>3.4</ele>
        <time>2020-06-04T08:56:42Z</time>
      </trkpt>
      <trkpt lat="46.74394" lon="-2.00922">
        <ele>3.4</ele>
        <time>2020-06-04T08:56:43Z</time>
      </trkpt>
      <trkpt lat="46.74398" lon="-2.00925">
        <ele>3.4</ele>
        <time>2020-06-04T08:56:44Z</time>
      </trkpt>
      <trkpt lat="46.74402" lon="-2.00929">
        <ele>3.5</ele>
        <time>2020-06-04T08:56:45Z</time>
      </trkpt>
      <trkpt lat="46.74407" lon="-2.00932">
        <ele>3.5</ele>
        <time>2020-06-04T08:56:46Z</time>
      </trkpt>
      <trkpt lat="46.74411" lon="-2.00935">
        <ele>3.5</ele>
        <time>2020-06-04T08:56:47Z</time>
      </trkpt>
      <trkpt lat="46.74416" lon="-2.00937">
        <ele>3.5</ele>
        <time>2020-06-04T08:56:48Z</time>
      </trkpt>
      <trkpt lat="46.7442" lon="-2.0094">
        <ele>3.5</ele>
        <time>2020-06-04T08:56:49Z</time>
      </trkpt>
      <trkpt lat="46.74424" lon="-2.00944">
        <ele>3.5</ele>
        <time>2020-06-04T08:56:50Z</time>
      </trkpt>
      <trkpt lat="46.74429" lon="-2.00947">
        <ele>3.6</ele>
        <time>2020-06-04T08:56:51Z</time>
      </trkpt>
      <trkpt lat="46.74432" lon="-2.0095">
        <ele>3.6</ele>
        <time>2020-06-04T08:56:52Z</time>
      </trkpt>
      <trkpt lat="46.74435" lon="-2.00953">
        <ele>3.6</ele>
        <time>2020-06-04T08:56:53Z</time>
      </trkpt>
      <trkpt lat="46.74439" lon="-2.00956">
        <ele>3.6</ele>
        <time>2020-06-04T08:56:54Z</time>
      </trkpt>
      <trkpt lat="46.74442" lon="-2.0096">
        <ele>3.6</ele>
        <time>2020-06-04T08:56:55Z</time>
      </trkpt>
      <trkpt lat="46.74446" lon="-2.00962">
        <ele>3.6</ele>
        <time>2020-06-04T08:56:56Z</time>
      </trkpt>
      <trkpt lat="46.7445" lon="-2.00966">
        <ele>3.6</ele>
        <time>2020-06-04T08:56:57Z</time>
      </trkpt>
      <trkpt lat="46.74454" lon="-2.00969">
        <ele>3.6</ele>
        <time>2020-06-04T08:56:58Z</time>
      </trkpt>
      <trkpt lat="46.74458" lon="-2.00972">
        <ele>3.7</ele>
        <time>2020-06-04T08:56:59Z</time>
      </trkpt>
      <trkpt lat="46.74462" lon="-2.00975">
        <ele>3.7</ele>
        <time>2020-06-04T08:57:00Z</time>
      </trkpt>
      <trkpt lat="46.74465" lon="-2.00979">
        <ele>3.7</ele>
        <time>2020-06-04T08:57:01Z</time>
      </trkpt>
      <trkpt lat="46.74469" lon="-2.00982">
        <ele>3.7</ele>
        <time>2020-06-04T08:57:02Z</time>
      </trkpt>
      <trkpt lat="46.74473" lon="-2.00987">
        <ele>3.7</ele>
        <time>2020-06-04T08:57:03Z</time>
      </trkpt>
      <trkpt lat="46.74477" lon="-2.0099">
        <ele>3.7</ele>
        <time>2020-06-04T08:57:04Z</time>
      </trkpt>
      <trkpt lat="46.7448" lon="-2.00993">
        <ele>3.7</ele>
        <time>2020-06-04T08:57:05Z</time>
      </trkpt>
      <trkpt lat="46.74484" lon="-2.00997">
        <ele>3.7</ele>
        <time>2020-06-04T08:57:06Z</time>
      </trkpt>
      <trkpt lat="46.74488" lon="-2.01001">
        <ele>3.7</ele>
        <time>2020-06-04T08:57:07Z</time>
      </trkpt>
      <trkpt lat="46.74492" lon="-2.01005">
        <ele>3.8</ele>
        <time>2020-06-04T08:57:08Z</time>
      </trkpt>
      <trkpt lat="46.74497" lon="-2.01008">
        <ele>3.8</ele>
        <time>2020-06-04T08:57:09Z</time>
      </trkpt>
      <trkpt lat="46.74501" lon="-2.01011">
        <ele>3.8</ele>
        <time>2020-06-04T08:57:10Z</time>
      </trkpt>
      <trkpt lat="46.74505" lon="-2.01014">
        <ele>3.8</ele>
        <time>2020-06-04T08:57:11Z</time>
      </trkpt>
      <trkpt lat="46.74508" lon="-2.01017">
        <ele>3.8</ele>
        <time>2020-06-04T08:57:12Z</time>
      </trkpt>
      <trkpt lat="46.74512" lon="-2.0102">
        <ele>3.9</ele>
        <time>2020-06-04T08:57:13Z</time>
      </trkpt>
      <trkpt lat="46.74516" lon="-2.01023">
        <ele>3.9</ele>
        <time>2020-06-04T08:57:14Z</time>
      </trkpt>
      <trkpt lat="46.7452" lon="-2.01026">
        <ele>3.9</ele>
        <time>2020-06-04T08:57:15Z</time>
      </trkpt>
      <trkpt lat="46.74524" lon="-2.0103">
        <ele>3.9</ele>
        <time>2020-06-04T08:57:16Z</time>
      </trkpt>
      <trkpt lat="46.74528" lon="-2.01034">
        <ele>3.9</ele>
        <time>2020-06-04T08:57:17Z</time>
      </trkpt>
      <trkpt lat="46.74531" lon="-2.01037">
        <ele>4</ele>
        <time>2020-06-04T08:57:18Z</time>
      </trkpt>
      <trkpt lat="46.74534" lon="-2.01041">
        <ele>4</ele>
        <time>2020-06-04T08:57:19Z</time>
      </trkpt>
      <trkpt lat="46.74537" lon="-2.01046">
        <ele>4</ele>
        <time>2020-06-04T08:57:20Z</time>
      </trkpt>
      <trkpt lat="46.74541" lon="-2.0105">
        <ele>4</ele>
        <time>2020-06-04T08:57:21Z</time>
      </trkpt>
      <trkpt lat="46.74544" lon="-2.01054">
        <ele>4</ele>
        <time>2020-06-04T08:57:22Z</time>
      </trkpt>
      <trkpt lat="46.74549" lon="-2.01059">
        <ele>4</ele>
        <time>2020-06-04T08:57:23Z</time>
      </trkpt>
      <trkpt lat="46.74553" lon="-2.01063">
        <ele>4</ele>
        <time>2020-06-04T08:57:24Z</time>
      </trkpt>
      <trkpt lat="46.74558" lon="-2.01069">
        <ele>4.1</ele>
        <time>2020-06-04T08:57:25Z</time>
      </trkpt>
      <trkpt lat="46.74563" lon="-2.01072">
        <ele>4.1</ele>
        <time>2020-06-04T08:57:26Z</time>
      </trkpt>
      <trkpt lat="46.74567" lon="-2.01077">
        <ele>4.2</ele>
        <time>2020-06-04T08:57:27Z</time>
      </trkpt>
      <trkpt lat="46.7457" lon="-2.01081">
        <ele>4.2</ele>
        <time>2020-06-04T08:57:28Z</time>
      </trkpt>
      <trkpt lat="46.74573" lon="-2.01085">
        <ele>4.2</ele>
        <time>2020-06-04T08:57:29Z</time>
      </trkpt>
      <trkpt lat="46.74576" lon="-2.01089">
        <ele>4.3</ele>
        <time>2020-06-04T08:57:30Z</time>
      </trkpt>
      <trkpt lat="46.7458" lon="-2.01094">
        <ele>4.4</ele>
        <time>2020-06-04T08:57:31Z</time>
      </trkpt>
      <trkpt lat="46.74584" lon="-2.01098">
        <ele>4.4</ele>
        <time>2020-06-04T08:57:32Z</time>
      </trkpt>
      <trkpt lat="46.74588" lon="-2.01103">
        <ele>4.5</ele>
        <time>2020-06-04T08:57:33Z</time>
      </trkpt>
      <trkpt lat="46.74592" lon="-2.01107">
        <ele>4.6</ele>
        <time>2020-06-04T08:57:34Z</time>
      </trkpt>
      <trkpt lat="46.74596" lon="-2.01111">
        <ele>4.7</ele>
        <time>2020-06-04T08:57:35Z</time>
      </trkpt>
      <trkpt lat="46.746" lon="-2.01115">
        <ele>4.8</ele>
        <time>2020-06-04T08:57:36Z</time>
      </trkpt>
      <trkpt lat="46.74603" lon="-2.0112">
        <ele>4.8</ele>
        <time>2020-06-04T08:57:37Z</time>
      </trkpt>
      <trkpt lat="46.74606" lon="-2.01125">
        <ele>4.9</ele>
        <time>2020-06-04T08:57:38Z</time>
      </trkpt>
      <trkpt lat="46.7461" lon="-2.0113">
        <ele>4.9</ele>
        <time>2020-06-04T08:57:39Z</time>
      </trkpt>
      <trkpt lat="46.74614" lon="-2.01135">
        <ele>5</ele>
        <time>2020-06-04T08:57:40Z</time>
      </trkpt>
      <trkpt lat="46.74618" lon="-2.0114">
        <ele>5</ele>
        <time>2020-06-04T08:57:41Z</time>
      </trkpt>
      <trkpt lat="46.74623" lon="-2.01145">
        <ele>5</ele>
        <time>2020-06-04T08:57:42Z</time>
      </trkpt>
      <trkpt lat="46.74626" lon="-2.01149">
        <ele>5</ele>
        <time>2020-06-04T08:57:43Z</time>
      </trkpt>
      <trkpt lat="46.74629" lon="-2.01153">
        <ele>5.1</ele>
        <time>2020-06-04T08:57:44Z</time>
      </trkpt>
      <trkpt lat="46.74632" lon="-2.01156">
        <ele>5.1</ele>
        <time>2020-06-04T08:57:45Z</time>
      </trkpt>
      <trkpt lat="46.74636" lon="-2.01161">
        <ele>5.1</ele>
        <time>2020-06-04T08:57:46Z</time>
      </trkpt>
      <trkpt lat="46.74639" lon="-2.01165">
        <ele>5.1</ele>
        <time>2020-06-04T08:57:47Z</time>
      </trkpt>
      <trkpt lat="46.74641" lon="-2.0117">
        <ele>5.1</ele>
        <time>2020-06-04T08:57:48Z</time>
      </trkpt>
      <trkpt lat="46.74644" lon="-2.01174">
        <ele>5.1</ele>
        <time>2020-06-04T08:57:49Z</time>
      </trkpt>
      <trkpt lat="46.74648" lon="-2.01178">
        <ele>5.1</ele>
        <time>2020-06-04T08:57:50Z</time>
      </trkpt>
      <trkpt lat="46.74652" lon="-2.01181">
        <ele>5.1</ele>
        <time>2020-06-04T08:57:51Z</time>
      </trkpt>
      <trkpt lat="46.74655" lon="-2.01185">
        <ele>5.1</ele>
        <time>2020-06-04T08:57:52Z</time>
      </trkpt>
      <trkpt lat="46.74659" lon="-2.01189">
        <ele>5.1</ele>
        <time>2020-06-04T08:57:53Z</time>
      </trkpt>
      <trkpt lat="46.74663" lon="-2.01192">
        <ele>5.1</ele>
        <time>2020-06-04T08:57:54Z</time>
      </trkpt>
      <trkpt lat="46.74666" lon="-2.01196">
        <ele>5.1</ele>
        <time>2020-06-04T08:57:55Z</time>
      </trkpt>
      <trkpt lat="46.74671" lon="-2.01199">
        <ele>5.1</ele>
        <time>2020-06-04T08:57:56Z</time>
      </trkpt>
      <trkpt lat="46.74675" lon="-2.01202">
        <ele>5.2</ele>
        <time>2020-06-04T08:57:57Z</time>
      </trkpt>
      <trkpt lat="46.74679" lon="-2.01205">
        <ele>5.2</ele>
        <time>2020-06-04T08:57:58Z</time>
      </trkpt>
      <trkpt lat="46.74683" lon="-2.01207">
        <ele>5.3</ele>
        <time>2020-06-04T08:57:59Z</time>
      </trkpt>
      <trkpt lat="46.74686" lon="-2.0121">
        <ele>5.3</ele>
        <time>2020-06-04T08:58:00Z</time>
      </trkpt>
      <trkpt lat="46.74691" lon="-2.01212">
        <ele>5.3</ele>
        <time>2020-06-04T08:58:01Z</time>
      </trkpt>
      <trkpt lat="46.74696" lon="-2.01216">
        <ele>5.4</ele>
        <time>2020-06-04T08:58:02Z</time>
      </trkpt>
      <trkpt lat="46.747" lon="-2.0122">
        <ele>5.4</ele>
        <time>2020-06-04T08:58:03Z</time>
      </trkpt>
      <trkpt lat="46.74705" lon="-2.01223">
        <ele>5.4</ele>
        <time>2020-06-04T08:58:04Z</time>
      </trkpt>
      <trkpt lat="46.74709" lon="-2.01226">
        <ele>5.4</ele>
        <time>2020-06-04T08:58:05Z</time>
      </trkpt>
      <trkpt lat="46.74713" lon="-2.01229">
        <ele>5.4</ele>
        <time>2020-06-04T08:58:06Z</time>
      </trkpt>
      <trkpt lat="46.74716" lon="-2.01232">
        <ele>5.4</ele>
        <time>2020-06-04T08:58:07Z</time>
      </trkpt>
      <trkpt lat="46.74721" lon="-2.01234">
        <ele>5.4</ele>
        <time>2020-06-04T08:58:08Z</time>
      </trkpt>
      <trkpt lat="46.74724" lon="-2.01236">
        <ele>5.4</ele>
        <time>2020-06-04T08:58:09Z</time>
      </trkpt>
      <trkpt lat="46.74728" lon="-2.01239">
        <ele>5.4</ele>
        <time>2020-06-04T08:58:10Z</time>
      </trkpt>
      <trkpt lat="46.74733" lon="-2.01242">
        <ele>5.4</ele>
        <time>2020-06-04T08:58:11Z</time>
      </trkpt>
      <trkpt lat="46.74737" lon="-2.01245">
        <ele>5.4</ele>
        <time>2020-06-04T08:58:12Z</time>
      </trkpt>
      <trkpt lat="46.74742" lon="-2.01248">
        <ele>5.4</ele>
        <time>2020-06-04T08:58:13Z</time>
      </trkpt>
      <trkpt lat="46.74747" lon="-2.0125">
        <ele>5.4</ele>
        <time>2020-06-04T08:58:14Z</time>
      </trkpt>
      <trkpt lat="46.74752" lon="-2.01253">
        <ele>5.4</ele>
        <time>2020-06-04T08:58:15Z</time>
      </trkpt>
      <trkpt lat="46.74757" lon="-2.01255">
        <ele>5.4</ele>
        <time>2020-06-04T08:58:16Z</time>
      </trkpt>
      <trkpt lat="46.74762" lon="-2.01258">
        <ele>5.4</ele>
        <time>2020-06-04T08:58:17Z</time>
      </trkpt>
      <trkpt lat="46.74766" lon="-2.01261">
        <ele>5.4</ele>
        <time>2020-06-04T08:58:18Z</time>
      </trkpt>
      <trkpt lat="46.7477" lon="-2.01264">
        <ele>5.4</ele>
        <time>2020-06-04T08:58:19Z</time>
      </trkpt>
      <trkpt lat="46.74774" lon="-2.01269">
        <ele>5.4</ele>
        <time>2020-06-04T08:58:20Z</time>
      </trkpt>
      <trkpt lat="46.74778" lon="-2.01272">
        <ele>5.4</ele>
        <time>2020-06-04T08:58:21Z</time>
      </trkpt>
      <trkpt lat="46.74782" lon="-2.01276">
        <ele>5.4</ele>
        <time>2020-06-04T08:58:22Z</time>
      </trkpt>
      <trkpt lat="46.74787" lon="-2.01278">
        <ele>5.4</ele>
        <time>2020-06-04T08:58:23Z</time>
      </trkpt>
      <trkpt lat="46.74791" lon="-2.0128">
        <ele>5.3</ele>
        <time>2020-06-04T08:58:24Z</time>
      </trkpt>
      <trkpt lat="46.74795" lon="-2.01284">
        <ele>5.3</ele>
        <time>2020-06-04T08:58:25Z</time>
      </trkpt>
      <trkpt lat="46.74799" lon="-2.01287">
        <ele>5.3</ele>
        <time>2020-06-04T08:58:26Z</time>
      </trkpt>
      <trkpt lat="46.74805" lon="-2.01289">
        <ele>5.3</ele>
        <time>2020-06-04T08:58:27Z</time>
      </trkpt>
      <trkpt lat="46.7481" lon="-2.01291">
        <ele>5.3</ele>
        <time>2020-06-04T08:58:28Z</time>
      </trkpt>
      <trkpt lat="46.74815" lon="-2.01294">
        <ele>5.3</ele>
        <time>2020-06-04T08:58:29Z</time>
      </trkpt>
      <trkpt lat="46.74819" lon="-2.01296">
        <ele>5.3</ele>
        <time>2020-06-04T08:58:30Z</time>
      </trkpt>
      <trkpt lat="46.74823" lon="-2.01299">
        <ele>5.3</ele>
        <time>2020-06-04T08:58:31Z</time>
      </trkpt>
      <trkpt lat="46.74829" lon="-2.013">
        <ele>5.3</ele>
        <time>2020-06-04T08:58:32Z</time>
      </trkpt>
      <trkpt lat="46.74833" lon="-2.01303">
        <ele>5.3</ele>
        <time>2020-06-04T08:58:33Z</time>
      </trkpt>
      <trkpt lat="46.74837" lon="-2.01305">
        <ele>5.3</ele>
        <time>2020-06-04T08:58:34Z</time>
      </trkpt>
      <trkpt lat="46.74842" lon="-2.01306">
        <ele>5.3</ele>
        <time>2020-06-04T08:58:35Z</time>
      </trkpt>
      <trkpt lat="46.74846" lon="-2.01308">
        <ele>5.3</ele>
        <time>2020-06-04T08:58:36Z</time>
      </trkpt>
      <trkpt lat="46.74851" lon="-2.0131">
        <ele>5.2</ele>
        <time>2020-06-04T08:58:37Z</time>
      </trkpt>
      <trkpt lat="46.74855" lon="-2.01312">
        <ele>5.2</ele>
        <time>2020-06-04T08:58:38Z</time>
      </trkpt>
      <trkpt lat="46.7486" lon="-2.01315">
        <ele>5.2</ele>
        <time>2020-06-04T08:58:39Z</time>
      </trkpt>
      <trkpt lat="46.74865" lon="-2.01317">
        <ele>5.2</ele>
        <time>2020-06-04T08:58:40Z</time>
      </trkpt>
      <trkpt lat="46.74869" lon="-2.0132">
        <ele>5.2</ele>
        <time>2020-06-04T08:58:41Z</time>
      </trkpt>
      <trkpt lat="46.74874" lon="-2.01322">
        <ele>5.1</ele>
        <time>2020-06-04T08:58:42Z</time>
      </trkpt>
      <trkpt lat="46.7488" lon="-2.01324">
        <ele>5.1</ele>
        <time>2020-06-04T08:58:43Z</time>
      </trkpt>
      <trkpt lat="46.74885" lon="-2.01326">
        <ele>5.1</ele>
        <time>2020-06-04T08:58:44Z</time>
      </trkpt>
      <trkpt lat="46.74889" lon="-2.01328">
        <ele>5</ele>
        <time>2020-06-04T08:58:45Z</time>
      </trkpt>
      <trkpt lat="46.74893" lon="-2.0133">
        <ele>5</ele>
        <time>2020-06-04T08:58:46Z</time>
      </trkpt>
      <trkpt lat="46.74898" lon="-2.01332">
        <ele>4.9</ele>
        <time>2020-06-04T08:58:47Z</time>
      </trkpt>
      <trkpt lat="46.74903" lon="-2.01336">
        <ele>4.8</ele>
        <time>2020-06-04T08:58:48Z</time>
      </trkpt>
      <trkpt lat="46.74908" lon="-2.01339">
        <ele>4.8</ele>
        <time>2020-06-04T08:58:49Z</time>
      </trkpt>
      <trkpt lat="46.74912" lon="-2.01343">
        <ele>4.7</ele>
        <time>2020-06-04T08:58:50Z</time>
      </trkpt>
      <trkpt lat="46.74917" lon="-2.01346">
        <ele>4.6</ele>
        <time>2020-06-04T08:58:51Z</time>
      </trkpt>
      <trkpt lat="46.74922" lon="-2.01349">
        <ele>4.6</ele>
        <time>2020-06-04T08:58:52Z</time>
      </trkpt>
      <trkpt lat="46.74926" lon="-2.01352">
        <ele>4.5</ele>
        <time>2020-06-04T08:58:53Z</time>
      </trkpt>
      <trkpt lat="46.74931" lon="-2.01355">
        <ele>4.5</ele>
        <time>2020-06-04T08:58:54Z</time>
      </trkpt>
      <trkpt lat="46.74936" lon="-2.01358">
        <ele>4.4</ele>
        <time>2020-06-04T08:58:55Z</time>
      </trkpt>
      <trkpt lat="46.74942" lon="-2.01361">
        <ele>4.4</ele>
        <time>2020-06-04T08:58:56Z</time>
      </trkpt>
      <trkpt lat="46.74947" lon="-2.01366">
        <ele>4.3</ele>
        <time>2020-06-04T08:58:57Z</time>
      </trkpt>
      <trkpt lat="46.74951" lon="-2.01371">
        <ele>4.3</ele>
        <time>2020-06-04T08:58:58Z</time>
      </trkpt>
      <trkpt lat="46.74956" lon="-2.01376">
        <ele>4.2</ele>
        <time>2020-06-04T08:58:59Z</time>
      </trkpt>
      <trkpt lat="46.74961" lon="-2.01382">
        <ele>4.2</ele>
        <time>2020-06-04T08:59:00Z</time>
      </trkpt>
      <trkpt lat="46.74966" lon="-2.01389">
        <ele>4.2</ele>
        <time>2020-06-04T08:59:01Z</time>
      </trkpt>
      <trkpt lat="46.7497" lon="-2.01396">
        <ele>4.2</ele>
        <time>2020-06-04T08:59:02Z</time>
      </trkpt>
      <trkpt lat="46.74974" lon="-2.01403">
        <ele>4.2</ele>
        <time>2020-06-04T08:59:03Z</time>
      </trkpt>
      <trkpt lat="46.74977" lon="-2.0141">
        <ele>4.2</ele>
        <time>2020-06-04T08:59:04Z</time>
      </trkpt>
      <trkpt lat="46.7498" lon="-2.01417">
        <ele>4.2</ele>
        <time>2020-06-04T08:59:05Z</time>
      </trkpt>
      <trkpt lat="46.74984" lon="-2.01423">
        <ele>4.3</ele>
        <time>2020-06-04T08:59:06Z</time>
      </trkpt>
      <trkpt lat="46.74987" lon="-2.0143">
        <ele>4.3</ele>
        <time>2020-06-04T08:59:07Z</time>
      </trkpt>
      <trkpt lat="46.74991" lon="-2.01435">
        <ele>4.3</ele>
        <time>2020-06-04T08:59:08Z</time>
      </trkpt>
      <trkpt lat="46.74994" lon="-2.01441">
        <ele>4.3</ele>
        <time>2020-06-04T08:59:09Z</time>
      </trkpt>
      <trkpt lat="46.74997" lon="-2.01446">
        <ele>4.2</ele>
        <time>2020-06-04T08:59:10Z</time>
      </trkpt>
      <trkpt lat="46.75" lon="-2.01453">
        <ele>4.2</ele>
        <time>2020-06-04T08:59:11Z</time>
      </trkpt>
      <trkpt lat="46.75003" lon="-2.01459">
        <ele>4.2</ele>
        <time>2020-06-04T08:59:12Z</time>
      </trkpt>
      <trkpt lat="46.75006" lon="-2.01464">
        <ele>4.2</ele>
        <time>2020-06-04T08:59:13Z</time>
      </trkpt>
      <trkpt lat="46.7501" lon="-2.01471">
        <ele>4.2</ele>
        <time>2020-06-04T08:59:14Z</time>
      </trkpt>
      <trkpt lat="46.75012" lon="-2.01477">
        <ele>4.2</ele>
        <time>2020-06-04T08:59:15Z</time>
      </trkpt>
      <trkpt lat="46.75012" lon="-2.01482">
        <ele>4.2</ele>
        <time>2020-06-04T08:59:16Z</time>
      </trkpt>
      <trkpt lat="46.75011" lon="-2.01487">
        <ele>4.2</ele>
        <time>2020-06-04T08:59:17Z</time>
      </trkpt>
      <trkpt lat="46.75012" lon="-2.01489">
        <ele>4.2</ele>
        <time>2020-06-04T08:59:18Z</time>
      </trkpt>
      <trkpt lat="46.75014" lon="-2.01491">
        <ele>4.2</ele>
        <time>2020-06-04T08:59:19Z</time>
      </trkpt>
      <trkpt lat="46.75015" lon="-2.01494">
        <ele>4.1</ele>
        <time>2020-06-04T08:59:20Z</time>
      </trkpt>
      <trkpt lat="46.75016" lon="-2.01495">
        <ele>4.1</ele>
        <time>2020-06-04T08:59:21Z</time>
      </trkpt>
      <trkpt lat="46.75017" lon="-2.01496">
        <ele>4.1</ele>
        <time>2020-06-04T08:59:22Z</time>
      </trkpt>
      <trkpt lat="46.75019" lon="-2.01497">
        <ele>4.1</ele>
        <time>2020-06-04T08:59:23Z</time>
      </trkpt>
      <trkpt lat="46.75021" lon="-2.01498">
        <ele>4.1</ele>
        <time>2020-06-04T08:59:24Z</time>
      </trkpt>
      <trkpt lat="46.75022" lon="-2.01499">
        <ele>4.1</ele>
        <time>2020-06-04T08:59:25Z</time>
      </trkpt>
      <trkpt lat="46.75023" lon="-2.01499">
        <ele>4.1</ele>
        <time>2020-06-04T08:59:26Z</time>
      </trkpt>
      <trkpt lat="46.75025" lon="-2.01502">
        <ele>4.1</ele>
        <time>2020-06-04T08:59:27Z</time>
      </trkpt>
      <trkpt lat="46.75028" lon="-2.01506">
        <ele>4.1</ele>
        <time>2020-06-04T08:59:28Z</time>
      </trkpt>
      <trkpt lat="46.75032" lon="-2.01511">
        <ele>4</ele>
        <time>2020-06-04T08:59:29Z</time>
      </trkpt>
      <trkpt lat="46.75035" lon="-2.01516">
        <ele>4</ele>
        <time>2020-06-04T08:59:30Z</time>
      </trkpt>
      <trkpt lat="46.75037" lon="-2.01522">
        <ele>4</ele>
        <time>2020-06-04T08:59:31Z</time>
      </trkpt>
      <trkpt lat="46.75041" lon="-2.01528">
        <ele>4.1</ele>
        <time>2020-06-04T08:59:32Z</time>
      </trkpt>
      <trkpt lat="46.75045" lon="-2.01533">
        <ele>4.1</ele>
        <time>2020-06-04T08:59:33Z</time>
      </trkpt>
      <trkpt lat="46.75048" lon="-2.01538">
        <ele>4.1</ele>
        <time>2020-06-04T08:59:34Z</time>
      </trkpt>
      <trkpt lat="46.75053" lon="-2.01542">
        <ele>4.1</ele>
        <time>2020-06-04T08:59:35Z</time>
      </trkpt>
      <trkpt lat="46.75058" lon="-2.01546">
        <ele>4.1</ele>
        <time>2020-06-04T08:59:36Z</time>
      </trkpt>
      <trkpt lat="46.75062" lon="-2.0155">
        <ele>4.1</ele>
        <time>2020-06-04T08:59:37Z</time>
      </trkpt>
      <trkpt lat="46.75065" lon="-2.01553">
        <ele>4.1</ele>
        <time>2020-06-04T08:59:38Z</time>
      </trkpt>
      <trkpt lat="46.75068" lon="-2.01557">
        <ele>4.1</ele>
        <time>2020-06-04T08:59:39Z</time>
      </trkpt>
      <trkpt lat="46.75071" lon="-2.01561">
        <ele>4.1</ele>
        <time>2020-06-04T08:59:40Z</time>
      </trkpt>
      <trkpt lat="46.75075" lon="-2.01565">
        <ele>4.1</ele>
        <time>2020-06-04T08:59:41Z</time>
      </trkpt>
      <trkpt lat="46.75077" lon="-2.01569">
        <ele>4.1</ele>
        <time>2020-06-04T08:59:42Z</time>
      </trkpt>
      <trkpt lat="46.7508" lon="-2.01572">
        <ele>4.1</ele>
        <time>2020-06-04T08:59:43Z</time>
      </trkpt>
      <trkpt lat="46.75082" lon="-2.01574">
        <ele>4.1</ele>
        <time>2020-06-04T08:59:44Z</time>
      </trkpt>
      <trkpt lat="46.75085" lon="-2.01577">
        <ele>4.1</ele>
        <time>2020-06-04T08:59:45Z</time>
      </trkpt>
      <trkpt lat="46.75087" lon="-2.01581">
        <ele>4.1</ele>
        <time>2020-06-04T08:59:46Z</time>
      </trkpt>
      <trkpt lat="46.75088" lon="-2.01583">
        <ele>4.1</ele>
        <time>2020-06-04T08:59:47Z</time>
      </trkpt>
      <trkpt lat="46.75091" lon="-2.01586">
        <ele>4</ele>
        <time>2020-06-04T08:59:48Z</time>
      </trkpt>
      <trkpt lat="46.75093" lon="-2.01587">
        <ele>4</ele>
        <time>2020-06-04T08:59:49Z</time>
      </trkpt>
      <trkpt lat="46.75096" lon="-2.01589">
        <ele>4</ele>
        <time>2020-06-04T08:59:50Z</time>
      </trkpt>
      <trkpt lat="46.75097" lon="-2.0159">
        <ele>4</ele>
        <time>2020-06-04T08:59:51Z</time>
      </trkpt>
      <trkpt lat="46.75101" lon="-2.01593">
        <ele>4</ele>
        <time>2020-06-04T08:59:52Z</time>
      </trkpt>
      <trkpt lat="46.75102" lon="-2.01595">
        <ele>4</ele>
        <time>2020-06-04T08:59:53Z</time>
      </trkpt>
      <trkpt lat="46.75105" lon="-2.016">
        <ele>4.1</ele>
        <time>2020-06-04T08:59:54Z</time>
      </trkpt>
      <trkpt lat="46.75106" lon="-2.01603">
        <ele>4.1</ele>
        <time>2020-06-04T08:59:55Z</time>
      </trkpt>
      <trkpt lat="46.75106" lon="-2.0161">
        <ele>4.1</ele>
        <time>2020-06-04T08:59:56Z</time>
      </trkpt>
      <trkpt lat="46.75105" lon="-2.01616">
        <ele>4.2</ele>
        <time>2020-06-04T08:59:57Z</time>
      </trkpt>
      <trkpt lat="46.75106" lon="-2.0162">
        <ele>4.2</ele>
        <time>2020-06-04T08:59:58Z</time>
      </trkpt>
      <trkpt lat="46.75107" lon="-2.01625">
        <ele>4.2</ele>
        <time>2020-06-04T08:59:59Z</time>
      </trkpt>
      <trkpt lat="46.75107" lon="-2.01629">
        <ele>4.2</ele>
        <time>2020-06-04T09:00:00Z</time>
      </trkpt>
      <trkpt lat="46.75107" lon="-2.01633">
        <ele>4.3</ele>
        <time>2020-06-04T09:00:01Z</time>
      </trkpt>
      <trkpt lat="46.7511" lon="-2.01635">
        <ele>4.3</ele>
        <time>2020-06-04T09:00:02Z</time>
      </trkpt>
      <trkpt lat="46.75111" lon="-2.01636">
        <ele>4.3</ele>
        <time>2020-06-04T09:00:03Z</time>
      </trkpt>
      <trkpt lat="46.75112" lon="-2.01637">
        <ele>4.3</ele>
        <time>2020-06-04T09:00:04Z</time>
      </trkpt>
      <trkpt lat="46.75114" lon="-2.01638">
        <ele>4.3</ele>
        <time>2020-06-04T09:00:05Z</time>
      </trkpt>
      <trkpt lat="46.75117" lon="-2.0164">
        <ele>4.3</ele>
        <time>2020-06-04T09:00:06Z</time>
      </trkpt>
      <trkpt lat="46.75119" lon="-2.01641">
        <ele>4.3</ele>
        <time>2020-06-04T09:00:07Z</time>
      </trkpt>
      <trkpt lat="46.7512" lon="-2.01646">
        <ele>4.3</ele>
        <time>2020-06-04T09:00:08Z</time>
      </trkpt>
      <trkpt lat="46.7512" lon="-2.01649">
        <ele>4.3</ele>
        <time>2020-06-04T09:00:09Z</time>
      </trkpt>
      <trkpt lat="46.7512" lon="-2.01651">
        <ele>4.3</ele>
        <time>2020-06-04T09:00:10Z</time>
      </trkpt>
      <trkpt lat="46.75119" lon="-2.01652">
        <ele>4.3</ele>
        <time>2020-06-04T09:00:11Z</time>
      </trkpt>
      <trkpt lat="46.75119" lon="-2.01653">
        <ele>4.3</ele>
        <time>2020-06-04T09:00:12Z</time>
      </trkpt>
      <trkpt lat="46.75119" lon="-2.01654">
        <ele>4.3</ele>
        <time>2020-06-04T09:00:13Z</time>
      </trkpt>
      <trkpt lat="46.75118" lon="-2.01656">
        <ele>4.3</ele>
        <time>2020-06-04T09:00:14Z</time>
      </trkpt>
      <trkpt lat="46.75117" lon="-2.01656">
        <ele>4.3</ele>
        <time>2020-06-04T09:00:15Z</time>
      </trkpt>
      <trkpt lat="46.75117" lon="-2.01656">
        <ele>4.3</ele>
        <time>2020-06-04T09:00:16Z</time>
      </trkpt>
      <trkpt lat="46.75117" lon="-2.01655">
        <ele>4.3</ele>
        <time>2020-06-04T09:00:17Z</time>
      </trkpt>
      <trkpt lat="46.75117" lon="-2.01654">
        <ele>4.3</ele>
        <time>2020-06-04T09:00:18Z</time>
      </trkpt>
      <trkpt lat="46.75117" lon="-2.01654">
        <ele>4.3</ele>
        <time>2020-06-04T09:00:19Z</time>
      </trkpt>
      <trkpt lat="46.75116" lon="-2.01654">
        <ele>4.3</ele>
        <time>2020-06-04T09:00:20Z</time>
      </trkpt>
      <trkpt lat="46.75116" lon="-2.01654">
        <ele>4.3</ele>
        <time>2020-06-04T09:00:21Z</time>
      </trkpt>
      <trkpt lat="46.75116" lon="-2.01654">
        <ele>4.3</ele>
        <time>2020-06-04T09:00:22Z</time>
      </trkpt>
      <trkpt lat="46.75116" lon="-2.01654">
        <ele>4.3</ele>
        <time>2020-06-04T09:00:23Z</time>
      </trkpt>
      <trkpt lat="46.75116" lon="-2.01654">
        <ele>4.3</ele>
        <time>2020-06-04T09:00:24Z</time>
      </trkpt>
      <trkpt lat="46.75116" lon="-2.01654">
        <ele>4.3</ele>
        <time>2020-06-04T09:00:25Z</time>
      </trkpt>
      <trkpt lat="46.75111" lon="-2.01644">
        <ele>4.3</ele>
        <time>2020-06-04T09:00:33Z</time>
      </trkpt>
      <trkpt lat="46.75109" lon="-2.01639">
        <ele>4.3</ele>
        <time>2020-06-04T09:00:34Z</time>
      </trkpt>
      <trkpt lat="46.75107" lon="-2.01634">
        <ele>4.3</ele>
        <time>2020-06-04T09:00:35Z</time>
      </trkpt>
      <trkpt lat="46.75105" lon="-2.01629">
        <ele>4.2</ele>
        <time>2020-06-04T09:00:36Z</time>
      </trkpt>
      <trkpt lat="46.75104" lon="-2.01624">
        <ele>4.2</ele>
        <time>2020-06-04T09:00:37Z</time>
      </trkpt>
      <trkpt lat="46.75103" lon="-2.01618">
        <ele>4.2</ele>
        <time>2020-06-04T09:00:38Z</time>
      </trkpt>
      <trkpt lat="46.75102" lon="-2.01613">
        <ele>4.2</ele>
        <time>2020-06-04T09:00:39Z</time>
      </trkpt>
      <trkpt lat="46.75101" lon="-2.01608">
        <ele>4.2</ele>
        <time>2020-06-04T09:00:40Z</time>
      </trkpt>
      <trkpt lat="46.75101" lon="-2.01603">
        <ele>4.1</ele>
        <time>2020-06-04T09:00:41Z</time>
      </trkpt>
      <trkpt lat="46.75101" lon="-2.01597">
        <ele>4.1</ele>
        <time>2020-06-04T09:00:42Z</time>
      </trkpt>
      <trkpt lat="46.751" lon="-2.01592">
        <ele>4.1</ele>
        <time>2020-06-04T09:00:43Z</time>
      </trkpt>
      <trkpt lat="46.75098" lon="-2.01587">
        <ele>4.1</ele>
        <time>2020-06-04T09:00:44Z</time>
      </trkpt>
      <trkpt lat="46.75096" lon="-2.01584">
        <ele>4.1</ele>
        <time>2020-06-04T09:00:45Z</time>
      </trkpt>
      <trkpt lat="46.75098" lon="-2.01579">
        <ele>4.1</ele>
        <time>2020-06-04T09:00:46Z</time>
      </trkpt>
      <trkpt lat="46.75099" lon="-2.01578">
        <ele>4</ele>
        <time>2020-06-04T09:00:47Z</time>
      </trkpt>
      <trkpt lat="46.75102" lon="-2.01575">
        <ele>4</ele>
        <time>2020-06-04T09:00:48Z</time>
      </trkpt>
      <trkpt lat="46.75104" lon="-2.01577">
        <ele>4</ele>
        <time>2020-06-04T09:00:49Z</time>
      </trkpt>
      <trkpt lat="46.75107" lon="-2.01578">
        <ele>3.9</ele>
        <time>2020-06-04T09:00:50Z</time>
      </trkpt>
      <trkpt lat="46.7511" lon="-2.01579">
        <ele>3.9</ele>
        <time>2020-06-04T09:00:51Z</time>
      </trkpt>
      <trkpt lat="46.75113" lon="-2.01578">
        <ele>3.9</ele>
        <time>2020-06-04T09:00:52Z</time>
      </trkpt>
      <trkpt lat="46.75116" lon="-2.01577">
        <ele>3.8</ele>
        <time>2020-06-04T09:00:53Z</time>
      </trkpt>
      <trkpt lat="46.75119" lon="-2.01577">
        <ele>3.7</ele>
        <time>2020-06-04T09:00:54Z</time>
      </trkpt>
      <trkpt lat="46.75122" lon="-2.01577">
        <ele>3.7</ele>
        <time>2020-06-04T09:00:55Z</time>
      </trkpt>
      <trkpt lat="46.75126" lon="-2.01576">
        <ele>3.7</ele>
        <time>2020-06-04T09:00:56Z</time>
      </trkpt>
      <trkpt lat="46.75127" lon="-2.01576">
        <ele>3.7</ele>
        <time>2020-06-04T09:00:57Z</time>
      </trkpt>
      <trkpt lat="46.7513" lon="-2.01575">
        <ele>3.7</ele>
        <time>2020-06-04T09:00:58Z</time>
      </trkpt>
      <trkpt lat="46.75133" lon="-2.01571">
        <ele>3.7</ele>
        <time>2020-06-04T09:00:59Z</time>
      </trkpt>
      <trkpt lat="46.75135" lon="-2.0157">
        <ele>3.7</ele>
        <time>2020-06-04T09:01:00Z</time>
      </trkpt>
      <trkpt lat="46.75138" lon="-2.01567">
        <ele>3.7</ele>
        <time>2020-06-04T09:01:01Z</time>
      </trkpt>
      <trkpt lat="46.75139" lon="-2.01567">
        <ele>3.7</ele>
        <time>2020-06-04T09:01:02Z</time>
      </trkpt>
      <trkpt lat="46.75141" lon="-2.01572">
        <ele>3.7</ele>
        <time>2020-06-04T09:01:03Z</time>
      </trkpt>
      <trkpt lat="46.75142" lon="-2.01578">
        <ele>3.6</ele>
        <time>2020-06-04T09:01:04Z</time>
      </trkpt>
      <trkpt lat="46.75142" lon="-2.01584">
        <ele>3.7</ele>
        <time>2020-06-04T09:01:05Z</time>
      </trkpt>
      <trkpt lat="46.75141" lon="-2.01586">
        <ele>3.7</ele>
        <time>2020-06-04T09:01:06Z</time>
      </trkpt>
      <trkpt lat="46.75139" lon="-2.01589">
        <ele>3.7</ele>
        <time>2020-06-04T09:01:07Z</time>
      </trkpt>
      <trkpt lat="46.75138" lon="-2.01593">
        <ele>3.8</ele>
        <time>2020-06-04T09:01:08Z</time>
      </trkpt>
      <trkpt lat="46.75138" lon="-2.01598">
        <ele>3.8</ele>
        <time>2020-06-04T09:01:09Z</time>
      </trkpt>
      <trkpt lat="46.75138" lon="-2.01602">
        <ele>3.8</ele>
        <time>2020-06-04T09:01:10Z</time>
      </trkpt>
      <trkpt lat="46.75138" lon="-2.01608">
        <ele>3.9</ele>
        <time>2020-06-04T09:01:11Z</time>
      </trkpt>
      <trkpt lat="46.75138" lon="-2.01609">
        <ele>3.9</ele>
        <time>2020-06-04T09:01:12Z</time>
      </trkpt>
      <trkpt lat="46.75138" lon="-2.01614">
        <ele>3.9</ele>
        <time>2020-06-04T09:01:13Z</time>
      </trkpt>
      <trkpt lat="46.75138" lon="-2.01616">
        <ele>4</ele>
        <time>2020-06-04T09:01:14Z</time>
      </trkpt>
      <trkpt lat="46.75138" lon="-2.01621">
        <ele>4</ele>
        <time>2020-06-04T09:01:15Z</time>
      </trkpt>
      <trkpt lat="46.75138" lon="-2.01622">
        <ele>4</ele>
        <time>2020-06-04T09:01:16Z</time>
      </trkpt>
      <trkpt lat="46.75138" lon="-2.01625">
        <ele>4.1</ele>
        <time>2020-06-04T09:01:17Z</time>
      </trkpt>
      <trkpt lat="46.75137" lon="-2.01627">
        <ele>4.1</ele>
        <time>2020-06-04T09:01:18Z</time>
      </trkpt>
      <trkpt lat="46.75138" lon="-2.01629">
        <ele>4.1</ele>
        <time>2020-06-04T09:01:19Z</time>
      </trkpt>
      <trkpt lat="46.75138" lon="-2.01631">
        <ele>4.1</ele>
        <time>2020-06-04T09:01:20Z</time>
      </trkpt>
      <trkpt lat="46.75139" lon="-2.01632">
        <ele>4.1</ele>
        <time>2020-06-04T09:01:21Z</time>
      </trkpt>
      <trkpt lat="46.75139" lon="-2.01632">
        <ele>4.1</ele>
        <time>2020-06-04T09:01:22Z</time>
      </trkpt>
      <trkpt lat="46.75139" lon="-2.01633">
        <ele>4.1</ele>
        <time>2020-06-04T09:01:23Z</time>
      </trkpt>
      <trkpt lat="46.75139" lon="-2.01634">
        <ele>4.1</ele>
        <time>2020-06-04T09:01:24Z</time>
      </trkpt>
      <trkpt lat="46.75139" lon="-2.01634">
        <ele>4.1</ele>
        <time>2020-06-04T09:01:25Z</time>
      </trkpt>
      <trkpt lat="46.7514" lon="-2.01634">
        <ele>4.1</ele>
        <time>2020-06-04T09:01:26Z</time>
      </trkpt>
      <trkpt lat="46.75139" lon="-2.01634">
        <ele>4.1</ele>
        <time>2020-06-04T09:01:27Z</time>
      </trkpt>
      <trkpt lat="46.75139" lon="-2.01634">
        <ele>4.1</ele>
        <time>2020-06-04T09:01:28Z</time>
      </trkpt>
      <trkpt lat="46.7514" lon="-2.01634">
        <ele>4.1</ele>
        <time>2020-06-04T09:01:29Z</time>
      </trkpt>
      <trkpt lat="46.75139" lon="-2.01634">
        <ele>4.1</ele>
        <time>2020-06-04T09:01:30Z</time>
      </trkpt>
      <trkpt lat="46.75139" lon="-2.01635">
        <ele>4.1</ele>
        <time>2020-06-04T09:01:31Z</time>
      </trkpt>
      <trkpt lat="46.75139" lon="-2.01636">
        <ele>4.1</ele>
        <time>2020-06-04T09:01:32Z</time>
      </trkpt>
      <trkpt lat="46.75139" lon="-2.01638">
        <ele>4.1</ele>
        <time>2020-06-04T09:01:33Z</time>
      </trkpt>
      <trkpt lat="46.7514" lon="-2.0164">
        <ele>4.1</ele>
        <time>2020-06-04T09:01:34Z</time>
      </trkpt>
      <trkpt lat="46.75143" lon="-2.01644">
        <ele>4.1</ele>
        <time>2020-06-04T09:01:35Z</time>
      </trkpt>
      <trkpt lat="46.75144" lon="-2.01645">
        <ele>4.1</ele>
        <time>2020-06-04T09:01:36Z</time>
      </trkpt>
      <trkpt lat="46.75146" lon="-2.01649">
        <ele>4.1</ele>
        <time>2020-06-04T09:01:37Z</time>
      </trkpt>
      <trkpt lat="46.75149" lon="-2.01653">
        <ele>4</ele>
        <time>2020-06-04T09:01:38Z</time>
      </trkpt>
      <trkpt lat="46.75151" lon="-2.01658">
        <ele>4</ele>
        <time>2020-06-04T09:01:39Z</time>
      </trkpt>
      <trkpt lat="46.75152" lon="-2.01661">
        <ele>4</ele>
        <time>2020-06-04T09:01:40Z</time>
      </trkpt>
      <trkpt lat="46.75155" lon="-2.01666">
        <ele>4</ele>
        <time>2020-06-04T09:01:41Z</time>
      </trkpt>
      <trkpt lat="46.75159" lon="-2.01671">
        <ele>4</ele>
        <time>2020-06-04T09:01:42Z</time>
      </trkpt>
      <trkpt lat="46.75162" lon="-2.01676">
        <ele>4</ele>
        <time>2020-06-04T09:01:43Z</time>
      </trkpt>
      <trkpt lat="46.75167" lon="-2.01682">
        <ele>4</ele>
        <time>2020-06-04T09:01:44Z</time>
      </trkpt>
      <trkpt lat="46.7517" lon="-2.01688">
        <ele>3.9</ele>
        <time>2020-06-04T09:01:45Z</time>
      </trkpt>
      <trkpt lat="46.75174" lon="-2.01695">
        <ele>3.9</ele>
        <time>2020-06-04T09:01:46Z</time>
      </trkpt>
      <trkpt lat="46.75179" lon="-2.017">
        <ele>3.8</ele>
        <time>2020-06-04T09:01:47Z</time>
      </trkpt>
      <trkpt lat="46.75182" lon="-2.01707">
        <ele>3.8</ele>
        <time>2020-06-04T09:01:48Z</time>
      </trkpt>
      <trkpt lat="46.75186" lon="-2.01712">
        <ele>3.7</ele>
        <time>2020-06-04T09:01:49Z</time>
      </trkpt>
      <trkpt lat="46.7519" lon="-2.01718">
        <ele>3.7</ele>
        <time>2020-06-04T09:01:50Z</time>
      </trkpt>
      <trkpt lat="46.75193" lon="-2.01723">
        <ele>3.6</ele>
        <time>2020-06-04T09:01:51Z</time>
      </trkpt>
      <trkpt lat="46.75198" lon="-2.01729">
        <ele>3.5</ele>
        <time>2020-06-04T09:01:52Z</time>
      </trkpt>
      <trkpt lat="46.75202" lon="-2.01736">
        <ele>3.5</ele>
        <time>2020-06-04T09:01:53Z</time>
      </trkpt>
      <trkpt lat="46.75206" lon="-2.01741">
        <ele>3.4</ele>
        <time>2020-06-04T09:01:54Z</time>
      </trkpt>
      <trkpt lat="46.7521" lon="-2.01746">
        <ele>3.4</ele>
        <time>2020-06-04T09:01:55Z</time>
      </trkpt>
      <trkpt lat="46.75214" lon="-2.0175">
        <ele>3.4</ele>
        <time>2020-06-04T09:01:56Z</time>
      </trkpt>
      <trkpt lat="46.75217" lon="-2.01753">
        <ele>3.3</ele>
        <time>2020-06-04T09:01:57Z</time>
      </trkpt>
      <trkpt lat="46.7522" lon="-2.01758">
        <ele>3.3</ele>
        <time>2020-06-04T09:01:58Z</time>
      </trkpt>
      <trkpt lat="46.75224" lon="-2.01764">
        <ele>3.2</ele>
        <time>2020-06-04T09:01:59Z</time>
      </trkpt>
      <trkpt lat="46.75228" lon="-2.0177">
        <ele>3.2</ele>
        <time>2020-06-04T09:02:00Z</time>
      </trkpt>
      <trkpt lat="46.75231" lon="-2.01776">
        <ele>3.1</ele>
        <time>2020-06-04T09:02:01Z</time>
      </trkpt>
      <trkpt lat="46.75235" lon="-2.01781">
        <ele>3.1</ele>
        <time>2020-06-04T09:02:02Z</time>
      </trkpt>
      <trkpt lat="46.75239" lon="-2.01787">
        <ele>3</ele>
        <time>2020-06-04T09:02:03Z</time>
      </trkpt>
      <trkpt lat="46.75244" lon="-2.01792">
        <ele>3</ele>
        <time>2020-06-04T09:02:04Z</time>
      </trkpt>
      <trkpt lat="46.75248" lon="-2.01797">
        <ele>3</ele>
        <time>2020-06-04T09:02:05Z</time>
      </trkpt>
      <trkpt lat="46.75252" lon="-2.01803">
        <ele>2.9</ele>
        <time>2020-06-04T09:02:06Z</time>
      </trkpt>
      <trkpt lat="46.75256" lon="-2.01809">
        <ele>2.9</ele>
        <time>2020-06-04T09:02:07Z</time>
      </trkpt>
      <trkpt lat="46.7526" lon="-2.01815">
        <ele>2.9</ele>
        <time>2020-06-04T09:02:08Z</time>
      </trkpt>
      <trkpt lat="46.75265" lon="-2.01821">
        <ele>3</ele>
        <time>2020-06-04T09:02:09Z</time>
      </trkpt>
      <trkpt lat="46.75269" lon="-2.01827">
        <ele>3</ele>
        <time>2020-06-04T09:02:10Z</time>
      </trkpt>
      <trkpt lat="46.75274" lon="-2.01833">
        <ele>3</ele>
        <time>2020-06-04T09:02:11Z</time>
      </trkpt>
      <trkpt lat="46.75278" lon="-2.01839">
        <ele>3</ele>
        <time>2020-06-04T09:02:12Z</time>
      </trkpt>
      <trkpt lat="46.75282" lon="-2.01845">
        <ele>3.1</ele>
        <time>2020-06-04T09:02:13Z</time>
      </trkpt>
      <trkpt lat="46.75287" lon="-2.01851">
        <ele>3.1</ele>
        <time>2020-06-04T09:02:14Z</time>
      </trkpt>
      <trkpt lat="46.75292" lon="-2.01858">
        <ele>3.1</ele>
        <time>2020-06-04T09:02:15Z</time>
      </trkpt>
      <trkpt lat="46.75297" lon="-2.01865">
        <ele>3.1</ele>
        <time>2020-06-04T09:02:16Z</time>
      </trkpt>
      <trkpt lat="46.75302" lon="-2.01874">
        <ele>3.1</ele>
        <time>2020-06-04T09:02:17Z</time>
      </trkpt>
      <trkpt lat="46.75305" lon="-2.01881">
        <ele>3.1</ele>
        <time>2020-06-04T09:02:18Z</time>
      </trkpt>
      <trkpt lat="46.7531" lon="-2.01889">
        <ele>3.1</ele>
        <time>2020-06-04T09:02:19Z</time>
      </trkpt>
      <trkpt lat="46.75313" lon="-2.01895">
        <ele>3.1</ele>
        <time>2020-06-04T09:02:20Z</time>
      </trkpt>
      <trkpt lat="46.75319" lon="-2.01904">
        <ele>3.1</ele>
        <time>2020-06-04T09:02:21Z</time>
      </trkpt>
      <trkpt lat="46.75324" lon="-2.01913">
        <ele>3.1</ele>
        <time>2020-06-04T09:02:22Z</time>
      </trkpt>
      <trkpt lat="46.7533" lon="-2.01922">
        <ele>3.1</ele>
        <time>2020-06-04T09:02:23Z</time>
      </trkpt>
      <trkpt lat="46.75335" lon="-2.0193">
        <ele>3.1</ele>
        <time>2020-06-04T09:02:24Z</time>
      </trkpt>
      <trkpt lat="46.7534" lon="-2.01939">
        <ele>3.1</ele>
        <time>2020-06-04T09:02:25Z</time>
      </trkpt>
      <trkpt lat="46.75345" lon="-2.01946">
        <ele>3.1</ele>
        <time>2020-06-04T09:02:26Z</time>
      </trkpt>
      <trkpt lat="46.7535" lon="-2.01953">
        <ele>3.1</ele>
        <time>2020-06-04T09:02:27Z</time>
      </trkpt>
      <trkpt lat="46.75354" lon="-2.01961">
        <ele>3.1</ele>
        <time>2020-06-04T09:02:28Z</time>
      </trkpt>
      <trkpt lat="46.75358" lon="-2.01968">
        <ele>3.2</ele>
        <time>2020-06-04T09:02:29Z</time>
      </trkpt>
      <trkpt lat="46.75362" lon="-2.01975">
        <ele>3.2</ele>
        <time>2020-06-04T09:02:30Z</time>
      </trkpt>
      <trkpt lat="46.75366" lon="-2.01981">
        <ele>3.2</ele>
        <time>2020-06-04T09:02:31Z</time>
      </trkpt>
      <trkpt lat="46.75369" lon="-2.01988">
        <ele>3.2</ele>
        <time>2020-06-04T09:02:32Z</time>
      </trkpt>
      <trkpt lat="46.75371" lon="-2.01992">
        <ele>3.2</ele>
        <time>2020-06-04T09:02:33Z</time>
      </trkpt>
      <trkpt lat="46.75373" lon="-2.01996">
        <ele>3.2</ele>
        <time>2020-06-04T09:02:34Z</time>
      </trkpt>
      <trkpt lat="46.75375" lon="-2.02001">
        <ele>3.2</ele>
        <time>2020-06-04T09:02:35Z</time>
      </trkpt>
      <trkpt lat="46.75377" lon="-2.02005">
        <ele>3.2</ele>
        <time>2020-06-04T09:02:36Z</time>
      </trkpt>
      <trkpt lat="46.75381" lon="-2.02008">
        <ele>3.2</ele>
        <time>2020-06-04T09:02:37Z</time>
      </trkpt>
      <trkpt lat="46.75384" lon="-2.02011">
        <ele>3.2</ele>
        <time>2020-06-04T09:02:38Z</time>
      </trkpt>
      <trkpt lat="46.75388" lon="-2.02014">
        <ele>3.2</ele>
        <time>2020-06-04T09:02:39Z</time>
      </trkpt>
      <trkpt lat="46.7539" lon="-2.02017">
        <ele>3.2</ele>
        <time>2020-06-04T09:02:40Z</time>
      </trkpt>
      <trkpt lat="46.75393" lon="-2.02021">
        <ele>3.2</ele>
        <time>2020-06-04T09:02:41Z</time>
      </trkpt>
      <trkpt lat="46.75395" lon="-2.02025">
        <ele>3.2</ele>
        <time>2020-06-04T09:02:42Z</time>
      </trkpt>
      <trkpt lat="46.75399" lon="-2.02028">
        <ele>3.2</ele>
        <time>2020-06-04T09:02:43Z</time>
      </trkpt>
      <trkpt lat="46.75401" lon="-2.0203">
        <ele>3.2</ele>
        <time>2020-06-04T09:02:44Z</time>
      </trkpt>
      <trkpt lat="46.75404" lon="-2.02033">
        <ele>3.3</ele>
        <time>2020-06-04T09:02:45Z</time>
      </trkpt>
      <trkpt lat="46.75405" lon="-2.02035">
        <ele>3.3</ele>
        <time>2020-06-04T09:02:46Z</time>
      </trkpt>
      <trkpt lat="46.75408" lon="-2.02038">
        <ele>3.3</ele>
        <time>2020-06-04T09:02:47Z</time>
      </trkpt>
      <trkpt lat="46.7541" lon="-2.02041">
        <ele>3.3</ele>
        <time>2020-06-04T09:02:48Z</time>
      </trkpt>
      <trkpt lat="46.75413" lon="-2.02045">
        <ele>3.3</ele>
        <time>2020-06-04T09:02:49Z</time>
      </trkpt>
      <trkpt lat="46.75416" lon="-2.02048">
        <ele>3.3</ele>
        <time>2020-06-04T09:02:50Z</time>
      </trkpt>
      <trkpt lat="46.75419" lon="-2.02052">
        <ele>3.4</ele>
        <time>2020-06-04T09:02:51Z</time>
      </trkpt>
      <trkpt lat="46.7542" lon="-2.02054">
        <ele>3.4</ele>
        <time>2020-06-04T09:02:52Z</time>
      </trkpt>
      <trkpt lat="46.75423" lon="-2.02058">
        <ele>3.4</ele>
        <time>2020-06-04T09:02:53Z</time>
      </trkpt>
      <trkpt lat="46.75426" lon="-2.02062">
        <ele>3.4</ele>
        <time>2020-06-04T09:02:54Z</time>
      </trkpt>
      <trkpt lat="46.75429" lon="-2.02066">
        <ele>3.5</ele>
        <time>2020-06-04T09:02:55Z</time>
      </trkpt>
      <trkpt lat="46.75432" lon="-2.02071">
        <ele>3.5</ele>
        <time>2020-06-04T09:02:56Z</time>
      </trkpt>
      <trkpt lat="46.75436" lon="-2.02076">
        <ele>3.6</ele>
        <time>2020-06-04T09:02:57Z</time>
      </trkpt>
      <trkpt lat="46.75439" lon="-2.02081">
        <ele>3.6</ele>
        <time>2020-06-04T09:02:58Z</time>
      </trkpt>
      <trkpt lat="46.75443" lon="-2.02086">
        <ele>3.7</ele>
        <time>2020-06-04T09:02:59Z</time>
      </trkpt>
      <trkpt lat="46.75447" lon="-2.02091">
        <ele>3.7</ele>
        <time>2020-06-04T09:03:00Z</time>
      </trkpt>
      <trkpt lat="46.7545" lon="-2.02096">
        <ele>3.8</ele>
        <time>2020-06-04T09:03:01Z</time>
      </trkpt>
      <trkpt lat="46.75453" lon="-2.02101">
        <ele>3.8</ele>
        <time>2020-06-04T09:03:02Z</time>
      </trkpt>
      <trkpt lat="46.75456" lon="-2.02106">
        <ele>3.8</ele>
        <time>2020-06-04T09:03:03Z</time>
      </trkpt>
      <trkpt lat="46.75458" lon="-2.02109">
        <ele>3.9</ele>
        <time>2020-06-04T09:03:04Z</time>
      </trkpt>
      <trkpt lat="46.7546" lon="-2.02114">
        <ele>3.9</ele>
        <time>2020-06-04T09:03:05Z</time>
      </trkpt>
      <trkpt lat="46.75463" lon="-2.02119">
        <ele>3.9</ele>
        <time>2020-06-04T09:03:06Z</time>
      </trkpt>
      <trkpt lat="46.75466" lon="-2.02124">
        <ele>3.9</ele>
        <time>2020-06-04T09:03:07Z</time>
      </trkpt>
      <trkpt lat="46.75468" lon="-2.0213">
        <ele>3.9</ele>
        <time>2020-06-04T09:03:08Z</time>
      </trkpt>
      <trkpt lat="46.7547" lon="-2.02135">
        <ele>3.9</ele>
        <time>2020-06-04T09:03:09Z</time>
      </trkpt>
      <trkpt lat="46.75474" lon="-2.02143">
        <ele>4</ele>
        <time>2020-06-04T09:03:10Z</time>
      </trkpt>
      <trkpt lat="46.75477" lon="-2.02149">
        <ele>4</ele>
        <time>2020-06-04T09:03:11Z</time>
      </trkpt>
      <trkpt lat="46.75479" lon="-2.02155">
        <ele>4</ele>
        <time>2020-06-04T09:03:12Z</time>
      </trkpt>
      <trkpt lat="46.75481" lon="-2.02162">
        <ele>4</ele>
        <time>2020-06-04T09:03:13Z</time>
      </trkpt>
      <trkpt lat="46.75483" lon="-2.02168">
        <ele>4</ele>
        <time>2020-06-04T09:03:14Z</time>
      </trkpt>
      <trkpt lat="46.75485" lon="-2.02173">
        <ele>4</ele>
        <time>2020-06-04T09:03:15Z</time>
      </trkpt>
      <trkpt lat="46.75487" lon="-2.0218">
        <ele>4</ele>
        <time>2020-06-04T09:03:16Z</time>
      </trkpt>
      <trkpt lat="46.75489" lon="-2.02186">
        <ele>4</ele>
        <time>2020-06-04T09:03:17Z</time>
      </trkpt>
      <trkpt lat="46.75491" lon="-2.02193">
        <ele>4</ele>
        <time>2020-06-04T09:03:18Z</time>
      </trkpt>
      <trkpt lat="46.75493" lon="-2.022">
        <ele>4</ele>
        <time>2020-06-04T09:03:19Z</time>
      </trkpt>
      <trkpt lat="46.75494" lon="-2.02204">
        <ele>4</ele>
        <time>2020-06-04T09:03:20Z</time>
      </trkpt>
      <trkpt lat="46.75495" lon="-2.0221">
        <ele>4</ele>
        <time>2020-06-04T09:03:21Z</time>
      </trkpt>
      <trkpt lat="46.75497" lon="-2.02216">
        <ele>4</ele>
        <time>2020-06-04T09:03:22Z</time>
      </trkpt>
      <trkpt lat="46.75499" lon="-2.02222">
        <ele>4</ele>
        <time>2020-06-04T09:03:23Z</time>
      </trkpt>
      <trkpt lat="46.75501" lon="-2.02229">
        <ele>4.1</ele>
        <time>2020-06-04T09:03:24Z</time>
      </trkpt>
      <trkpt lat="46.75504" lon="-2.02235">
        <ele>4.1</ele>
        <time>2020-06-04T09:03:25Z</time>
      </trkpt>
      <trkpt lat="46.75506" lon="-2.0224">
        <ele>4.1</ele>
        <time>2020-06-04T09:03:26Z</time>
      </trkpt>
      <trkpt lat="46.75509" lon="-2.02245">
        <ele>4.1</ele>
        <time>2020-06-04T09:03:27Z</time>
      </trkpt>
      <trkpt lat="46.75512" lon="-2.0225">
        <ele>4.1</ele>
        <time>2020-06-04T09:03:28Z</time>
      </trkpt>
      <trkpt lat="46.75516" lon="-2.02255">
        <ele>4.2</ele>
        <time>2020-06-04T09:03:29Z</time>
      </trkpt>
      <trkpt lat="46.75519" lon="-2.02258">
        <ele>4.2</ele>
        <time>2020-06-04T09:03:30Z</time>
      </trkpt>
      <trkpt lat="46.75522" lon="-2.02262">
        <ele>4.2</ele>
        <time>2020-06-04T09:03:31Z</time>
      </trkpt>
      <trkpt lat="46.75526" lon="-2.02267">
        <ele>4.2</ele>
        <time>2020-06-04T09:03:32Z</time>
      </trkpt>
      <trkpt lat="46.7553" lon="-2.02272">
        <ele>4.2</ele>
        <time>2020-06-04T09:03:33Z</time>
      </trkpt>
      <trkpt lat="46.75535" lon="-2.02275">
        <ele>4.2</ele>
        <time>2020-06-04T09:03:34Z</time>
      </trkpt>
      <trkpt lat="46.75539" lon="-2.02279">
        <ele>4.2</ele>
        <time>2020-06-04T09:03:35Z</time>
      </trkpt>
      <trkpt lat="46.75542" lon="-2.02282">
        <ele>4.2</ele>
        <time>2020-06-04T09:03:36Z</time>
      </trkpt>
      <trkpt lat="46.75543" lon="-2.02283">
        <ele>4.3</ele>
        <time>2020-06-04T09:03:37Z</time>
      </trkpt>
      <trkpt lat="46.75547" lon="-2.02287">
        <ele>4.3</ele>
        <time>2020-06-04T09:03:38Z</time>
      </trkpt>
      <trkpt lat="46.75551" lon="-2.02289">
        <ele>4.3</ele>
        <time>2020-06-04T09:03:39Z</time>
      </trkpt>
      <trkpt lat="46.75555" lon="-2.02291">
        <ele>4.3</ele>
        <time>2020-06-04T09:03:40Z</time>
      </trkpt>
      <trkpt lat="46.7556" lon="-2.02294">
        <ele>4.3</ele>
        <time>2020-06-04T09:03:41Z</time>
      </trkpt>
      <trkpt lat="46.75563" lon="-2.02297">
        <ele>4.3</ele>
        <time>2020-06-04T09:03:42Z</time>
      </trkpt>
      <trkpt lat="46.75566" lon="-2.023">
        <ele>4.3</ele>
        <time>2020-06-04T09:03:43Z</time>
      </trkpt>
      <trkpt lat="46.7557" lon="-2.02303">
        <ele>4.3</ele>
        <time>2020-06-04T09:03:44Z</time>
      </trkpt>
      <trkpt lat="46.75574" lon="-2.02305">
        <ele>4.3</ele>
        <time>2020-06-04T09:03:45Z</time>
      </trkpt>
      <trkpt lat="46.75579" lon="-2.02307">
        <ele>4.3</ele>
        <time>2020-06-04T09:03:46Z</time>
      </trkpt>
      <trkpt lat="46.75582" lon="-2.0231">
        <ele>4.3</ele>
        <time>2020-06-04T09:03:47Z</time>
      </trkpt>
      <trkpt lat="46.75585" lon="-2.02314">
        <ele>4.3</ele>
        <time>2020-06-04T09:03:48Z</time>
      </trkpt>
      <trkpt lat="46.75589" lon="-2.02317">
        <ele>4.4</ele>
        <time>2020-06-04T09:03:49Z</time>
      </trkpt>
      <trkpt lat="46.75593" lon="-2.02321">
        <ele>4.4</ele>
        <time>2020-06-04T09:03:50Z</time>
      </trkpt>
      <trkpt lat="46.75597" lon="-2.02324">
        <ele>4.4</ele>
        <time>2020-06-04T09:03:51Z</time>
      </trkpt>
      <trkpt lat="46.75601" lon="-2.02328">
        <ele>4.4</ele>
        <time>2020-06-04T09:03:52Z</time>
      </trkpt>
      <trkpt lat="46.75605" lon="-2.02332">
        <ele>4.4</ele>
        <time>2020-06-04T09:03:53Z</time>
      </trkpt>
      <trkpt lat="46.7561" lon="-2.02336">
        <ele>4.4</ele>
        <time>2020-06-04T09:03:54Z</time>
      </trkpt>
      <trkpt lat="46.75614" lon="-2.0234">
        <ele>4.4</ele>
        <time>2020-06-04T09:03:55Z</time>
      </trkpt>
      <trkpt lat="46.75618" lon="-2.02343">
        <ele>4.4</ele>
        <time>2020-06-04T09:03:56Z</time>
      </trkpt>
      <trkpt lat="46.75622" lon="-2.02346">
        <ele>4.4</ele>
        <time>2020-06-04T09:03:57Z</time>
      </trkpt>
      <trkpt lat="46.75627" lon="-2.02349">
        <ele>4.4</ele>
        <time>2020-06-04T09:03:58Z</time>
      </trkpt>
      <trkpt lat="46.75631" lon="-2.02353">
        <ele>4.5</ele>
        <time>2020-06-04T09:03:59Z</time>
      </trkpt>
      <trkpt lat="46.75635" lon="-2.02356">
        <ele>4.5</ele>
        <time>2020-06-04T09:04:00Z</time>
      </trkpt>
      <trkpt lat="46.75639" lon="-2.0236">
        <ele>4.5</ele>
        <time>2020-06-04T09:04:01Z</time>
      </trkpt>
      <trkpt lat="46.75643" lon="-2.02364">
        <ele>4.5</ele>
        <time>2020-06-04T09:04:02Z</time>
      </trkpt>
      <trkpt lat="46.75647" lon="-2.02369">
        <ele>4.5</ele>
        <time>2020-06-04T09:04:03Z</time>
      </trkpt>
      <trkpt lat="46.75651" lon="-2.02374">
        <ele>4.5</ele>
        <time>2020-06-04T09:04:04Z</time>
      </trkpt>
      <trkpt lat="46.75654" lon="-2.02378">
        <ele>4.5</ele>
        <time>2020-06-04T09:04:05Z</time>
      </trkpt>
      <trkpt lat="46.75658" lon="-2.02382">
        <ele>4.5</ele>
        <time>2020-06-04T09:04:06Z</time>
      </trkpt>
      <trkpt lat="46.75662" lon="-2.02386">
        <ele>4.6</ele>
        <time>2020-06-04T09:04:07Z</time>
      </trkpt>
      <trkpt lat="46.75666" lon="-2.02391">
        <ele>4.6</ele>
        <time>2020-06-04T09:04:08Z</time>
      </trkpt>
      <trkpt lat="46.7567" lon="-2.02395">
        <ele>4.6</ele>
        <time>2020-06-04T09:04:09Z</time>
      </trkpt>
      <trkpt lat="46.75673" lon="-2.024">
        <ele>4.6</ele>
        <time>2020-06-04T09:04:10Z</time>
      </trkpt>
      <trkpt lat="46.75676" lon="-2.02404">
        <ele>4.6</ele>
        <time>2020-06-04T09:04:11Z</time>
      </trkpt>
      <trkpt lat="46.75678" lon="-2.02408">
        <ele>4.6</ele>
        <time>2020-06-04T09:04:12Z</time>
      </trkpt>
      <trkpt lat="46.75681" lon="-2.02412">
        <ele>4.7</ele>
        <time>2020-06-04T09:04:13Z</time>
      </trkpt>
      <trkpt lat="46.75685" lon="-2.02416">
        <ele>4.7</ele>
        <time>2020-06-04T09:04:14Z</time>
      </trkpt>
      <trkpt lat="46.75687" lon="-2.02419">
        <ele>4.7</ele>
        <time>2020-06-04T09:04:15Z</time>
      </trkpt>
      <trkpt lat="46.7569" lon="-2.02423">
        <ele>4.7</ele>
        <time>2020-06-04T09:04:16Z</time>
      </trkpt>
      <trkpt lat="46.75694" lon="-2.02427">
        <ele>4.7</ele>
        <time>2020-06-04T09:04:17Z</time>
      </trkpt>
      <trkpt lat="46.75697" lon="-2.02431">
        <ele>4.7</ele>
        <time>2020-06-04T09:04:18Z</time>
      </trkpt>
      <trkpt lat="46.75699" lon="-2.02435">
        <ele>4.7</ele>
        <time>2020-06-04T09:04:19Z</time>
      </trkpt>
      <trkpt lat="46.75702" lon="-2.02439">
        <ele>4.8</ele>
        <time>2020-06-04T09:04:20Z</time>
      </trkpt>
      <trkpt lat="46.75704" lon="-2.02442">
        <ele>4.7</ele>
        <time>2020-06-04T09:04:21Z</time>
      </trkpt>
      <trkpt lat="46.75706" lon="-2.02444">
        <ele>4.7</ele>
        <time>2020-06-04T09:04:22Z</time>
      </trkpt>
      <trkpt lat="46.75709" lon="-2.02446">
        <ele>4.7</ele>
        <time>2020-06-04T09:04:23Z</time>
      </trkpt>
      <trkpt lat="46.75711" lon="-2.02449">
        <ele>4.7</ele>
        <time>2020-06-04T09:04:24Z</time>
      </trkpt>
      <trkpt lat="46.75714" lon="-2.02451">
        <ele>4.6</ele>
        <time>2020-06-04T09:04:25Z</time>
      </trkpt>
      <trkpt lat="46.75717" lon="-2.02453">
        <ele>4.6</ele>
        <time>2020-06-04T09:04:26Z</time>
      </trkpt>
      <trkpt lat="46.7572" lon="-2.02455">
        <ele>4.6</ele>
        <time>2020-06-04T09:04:27Z</time>
      </trkpt>
      <trkpt lat="46.75724" lon="-2.02458">
        <ele>4.6</ele>
        <time>2020-06-04T09:04:28Z</time>
      </trkpt>
      <trkpt lat="46.75729" lon="-2.0246">
        <ele>4.6</ele>
        <time>2020-06-04T09:04:29Z</time>
      </trkpt>
      <trkpt lat="46.75734" lon="-2.02463">
        <ele>4.5</ele>
        <time>2020-06-04T09:04:30Z</time>
      </trkpt>
      <trkpt lat="46.75739" lon="-2.02465">
        <ele>4.5</ele>
        <time>2020-06-04T09:04:31Z</time>
      </trkpt>
      <trkpt lat="46.75743" lon="-2.02466">
        <ele>4.5</ele>
        <time>2020-06-04T09:04:32Z</time>
      </trkpt>
      <trkpt lat="46.75747" lon="-2.02467">
        <ele>4.5</ele>
        <time>2020-06-04T09:04:33Z</time>
      </trkpt>
      <trkpt lat="46.75752" lon="-2.02468">
        <ele>4.5</ele>
        <time>2020-06-04T09:04:34Z</time>
      </trkpt>
      <trkpt lat="46.75757" lon="-2.02471">
        <ele>4.4</ele>
        <time>2020-06-04T09:04:35Z</time>
      </trkpt>
      <trkpt lat="46.75762" lon="-2.02472">
        <ele>4.4</ele>
        <time>2020-06-04T09:04:36Z</time>
      </trkpt>
      <trkpt lat="46.75767" lon="-2.02474">
        <ele>4.4</ele>
        <time>2020-06-04T09:04:37Z</time>
      </trkpt>
      <trkpt lat="46.75772" lon="-2.02474">
        <ele>4.4</ele>
        <time>2020-06-04T09:04:38Z</time>
      </trkpt>
      <trkpt lat="46.75777" lon="-2.02476">
        <ele>4.4</ele>
        <time>2020-06-04T09:04:39Z</time>
      </trkpt>
      <trkpt lat="46.75783" lon="-2.02475">
        <ele>4.4</ele>
        <time>2020-06-04T09:04:40Z</time>
      </trkpt>
      <trkpt lat="46.75788" lon="-2.02475">
        <ele>4.4</ele>
        <time>2020-06-04T09:04:41Z</time>
      </trkpt>
      <trkpt lat="46.75792" lon="-2.02475">
        <ele>4.4</ele>
        <time>2020-06-04T09:04:42Z</time>
      </trkpt>
      <trkpt lat="46.75797" lon="-2.02473">
        <ele>4.4</ele>
        <time>2020-06-04T09:04:43Z</time>
      </trkpt>
      <trkpt lat="46.75801" lon="-2.02471">
        <ele>4.4</ele>
        <time>2020-06-04T09:04:44Z</time>
      </trkpt>
      <trkpt lat="46.75803" lon="-2.02471">
        <ele>4.4</ele>
        <time>2020-06-04T09:04:45Z</time>
      </trkpt>
      <trkpt lat="46.75807" lon="-2.0247">
        <ele>4.4</ele>
        <time>2020-06-04T09:04:46Z</time>
      </trkpt>
      <trkpt lat="46.75812" lon="-2.0247">
        <ele>4.4</ele>
        <time>2020-06-04T09:04:47Z</time>
      </trkpt>
      <trkpt lat="46.75817" lon="-2.02471">
        <ele>4.5</ele>
        <time>2020-06-04T09:04:48Z</time>
      </trkpt>
      <trkpt lat="46.75821" lon="-2.02474">
        <ele>4.5</ele>
        <time>2020-06-04T09:04:49Z</time>
      </trkpt>
      <trkpt lat="46.75824" lon="-2.02478">
        <ele>4.5</ele>
        <time>2020-06-04T09:04:50Z</time>
      </trkpt>
      <trkpt lat="46.75829" lon="-2.0248">
        <ele>4.6</ele>
        <time>2020-06-04T09:04:51Z</time>
      </trkpt>
      <trkpt lat="46.75834" lon="-2.02481">
        <ele>4.6</ele>
        <time>2020-06-04T09:04:52Z</time>
      </trkpt>
      <trkpt lat="46.75839" lon="-2.02482">
        <ele>4.6</ele>
        <time>2020-06-04T09:04:53Z</time>
      </trkpt>
      <trkpt lat="46.75845" lon="-2.02484">
        <ele>4.6</ele>
        <time>2020-06-04T09:04:54Z</time>
      </trkpt>
      <trkpt lat="46.7585" lon="-2.02486">
        <ele>4.6</ele>
        <time>2020-06-04T09:04:55Z</time>
      </trkpt>
      <trkpt lat="46.75855" lon="-2.02488">
        <ele>4.7</ele>
        <time>2020-06-04T09:04:56Z</time>
      </trkpt>
      <trkpt lat="46.75859" lon="-2.02489">
        <ele>4.7</ele>
        <time>2020-06-04T09:04:57Z</time>
      </trkpt>
      <trkpt lat="46.75864" lon="-2.0249">
        <ele>4.7</ele>
        <time>2020-06-04T09:04:58Z</time>
      </trkpt>
      <trkpt lat="46.75868" lon="-2.02491">
        <ele>4.7</ele>
        <time>2020-06-04T09:04:59Z</time>
      </trkpt>
      <trkpt lat="46.75873" lon="-2.02492">
        <ele>4.8</ele>
        <time>2020-06-04T09:05:00Z</time>
      </trkpt>
      <trkpt lat="46.75876" lon="-2.02493">
        <ele>4.8</ele>
        <time>2020-06-04T09:05:01Z</time>
      </trkpt>
      <trkpt lat="46.7588" lon="-2.02494">
        <ele>4.8</ele>
        <time>2020-06-04T09:05:02Z</time>
      </trkpt>
      <trkpt lat="46.75884" lon="-2.02494">
        <ele>4.9</ele>
        <time>2020-06-04T09:05:03Z</time>
      </trkpt>
      <trkpt lat="46.75888" lon="-2.02494">
        <ele>5</ele>
        <time>2020-06-04T09:05:04Z</time>
      </trkpt>
      <trkpt lat="46.75892" lon="-2.02496">
        <ele>5</ele>
        <time>2020-06-04T09:05:05Z</time>
      </trkpt>
      <trkpt lat="46.75896" lon="-2.02498">
        <ele>5.1</ele>
        <time>2020-06-04T09:05:06Z</time>
      </trkpt>
      <trkpt lat="46.75899" lon="-2.02501">
        <ele>5.2</ele>
        <time>2020-06-04T09:05:07Z</time>
      </trkpt>
      <trkpt lat="46.75903" lon="-2.02503">
        <ele>5.3</ele>
        <time>2020-06-04T09:05:08Z</time>
      </trkpt>
      <trkpt lat="46.75906" lon="-2.02505">
        <ele>5.3</ele>
        <time>2020-06-04T09:05:09Z</time>
      </trkpt>
      <trkpt lat="46.75909" lon="-2.02506">
        <ele>5.4</ele>
        <time>2020-06-04T09:05:10Z</time>
      </trkpt>
      <trkpt lat="46.75913" lon="-2.02507">
        <ele>5.5</ele>
        <time>2020-06-04T09:05:11Z</time>
      </trkpt>
      <trkpt lat="46.75916" lon="-2.02508">
        <ele>5.5</ele>
        <time>2020-06-04T09:05:12Z</time>
      </trkpt>
      <trkpt lat="46.7592" lon="-2.02509">
        <ele>5.6</ele>
        <time>2020-06-04T09:05:13Z</time>
      </trkpt>
      <trkpt lat="46.75923" lon="-2.0251">
        <ele>5.6</ele>
        <time>2020-06-04T09:05:14Z</time>
      </trkpt>
      <trkpt lat="46.75927" lon="-2.02512">
        <ele>5.7</ele>
        <time>2020-06-04T09:05:15Z</time>
      </trkpt>
      <trkpt lat="46.75931" lon="-2.02515">
        <ele>5.8</ele>
        <time>2020-06-04T09:05:16Z</time>
      </trkpt>
      <trkpt lat="46.75934" lon="-2.02518">
        <ele>5.8</ele>
        <time>2020-06-04T09:05:17Z</time>
      </trkpt>
      <trkpt lat="46.75938" lon="-2.0252">
        <ele>5.9</ele>
        <time>2020-06-04T09:05:18Z</time>
      </trkpt>
      <trkpt lat="46.7594" lon="-2.02523">
        <ele>5.9</ele>
        <time>2020-06-04T09:05:19Z</time>
      </trkpt>
      <trkpt lat="46.75942" lon="-2.02525">
        <ele>6</ele>
        <time>2020-06-04T09:05:20Z</time>
      </trkpt>
      <trkpt lat="46.75946" lon="-2.02527">
        <ele>6</ele>
        <time>2020-06-04T09:05:21Z</time>
      </trkpt>
      <trkpt lat="46.75949" lon="-2.02529">
        <ele>6.1</ele>
        <time>2020-06-04T09:05:22Z</time>
      </trkpt>
      <trkpt lat="46.75952" lon="-2.02531">
        <ele>6.1</ele>
        <time>2020-06-04T09:05:23Z</time>
      </trkpt>
      <trkpt lat="46.75954" lon="-2.02534">
        <ele>6.2</ele>
        <time>2020-06-04T09:05:24Z</time>
      </trkpt>
      <trkpt lat="46.75957" lon="-2.02537">
        <ele>6.2</ele>
        <time>2020-06-04T09:05:25Z</time>
      </trkpt>
      <trkpt lat="46.75959" lon="-2.0254">
        <ele>6.2</ele>
        <time>2020-06-04T09:05:26Z</time>
      </trkpt>
      <trkpt lat="46.75962" lon="-2.02544">
        <ele>6.3</ele>
        <time>2020-06-04T09:05:27Z</time>
      </trkpt>
      <trkpt lat="46.75965" lon="-2.02548">
        <ele>6.3</ele>
        <time>2020-06-04T09:05:28Z</time>
      </trkpt>
      <trkpt lat="46.75967" lon="-2.02552">
        <ele>6.3</ele>
        <time>2020-06-04T09:05:29Z</time>
      </trkpt>
      <trkpt lat="46.75967" lon="-2.02558">
        <ele>6.3</ele>
        <time>2020-06-04T09:05:30Z</time>
      </trkpt>
      <trkpt lat="46.75966" lon="-2.02563">
        <ele>6.3</ele>
        <time>2020-06-04T09:05:31Z</time>
      </trkpt>
      <trkpt lat="46.75968" lon="-2.02567">
        <ele>6.4</ele>
        <time>2020-06-04T09:05:32Z</time>
      </trkpt>
      <trkpt lat="46.75968" lon="-2.02567">
        <ele>6.4</ele>
        <time>2020-06-04T09:05:33Z</time>
      </trkpt>
      <trkpt lat="46.75971" lon="-2.02568">
        <ele>6.4</ele>
        <time>2020-06-04T09:05:34Z</time>
      </trkpt>
      <trkpt lat="46.75972" lon="-2.02568">
        <ele>6.4</ele>
        <time>2020-06-04T09:05:35Z</time>
      </trkpt>
      <trkpt lat="46.75975" lon="-2.02567">
        <ele>6.4</ele>
        <time>2020-06-04T09:05:36Z</time>
      </trkpt>
      <trkpt lat="46.75979" lon="-2.02567">
        <ele>6.4</ele>
        <time>2020-06-04T09:05:37Z</time>
      </trkpt>
      <trkpt lat="46.75982" lon="-2.02566">
        <ele>6.4</ele>
        <time>2020-06-04T09:05:38Z</time>
      </trkpt>
      <trkpt lat="46.75985" lon="-2.02567">
        <ele>6.4</ele>
        <time>2020-06-04T09:05:39Z</time>
      </trkpt>
      <trkpt lat="46.75988" lon="-2.02568">
        <ele>6.4</ele>
        <time>2020-06-04T09:05:40Z</time>
      </trkpt>
      <trkpt lat="46.75992" lon="-2.02571">
        <ele>6.4</ele>
        <time>2020-06-04T09:05:41Z</time>
      </trkpt>
      <trkpt lat="46.75995" lon="-2.02575">
        <ele>6.4</ele>
        <time>2020-06-04T09:05:42Z</time>
      </trkpt>
      <trkpt lat="46.75999" lon="-2.0258">
        <ele>6.4</ele>
        <time>2020-06-04T09:05:43Z</time>
      </trkpt>
      <trkpt lat="46.76003" lon="-2.02586">
        <ele>6.5</ele>
        <time>2020-06-04T09:05:44Z</time>
      </trkpt>
      <trkpt lat="46.76007" lon="-2.02591">
        <ele>6.5</ele>
        <time>2020-06-04T09:05:45Z</time>
      </trkpt>
      <trkpt lat="46.76012" lon="-2.02596">
        <ele>6.5</ele>
        <time>2020-06-04T09:05:46Z</time>
      </trkpt>
      <trkpt lat="46.76015" lon="-2.02601">
        <ele>6.5</ele>
        <time>2020-06-04T09:05:47Z</time>
      </trkpt>
      <trkpt lat="46.76019" lon="-2.02604">
        <ele>6.5</ele>
        <time>2020-06-04T09:05:48Z</time>
      </trkpt>
      <trkpt lat="46.76024" lon="-2.0261">
        <ele>6.4</ele>
        <time>2020-06-04T09:05:49Z</time>
      </trkpt>
      <trkpt lat="46.76027" lon="-2.02615">
        <ele>6.3</ele>
        <time>2020-06-04T09:05:50Z</time>
      </trkpt>
      <trkpt lat="46.76032" lon="-2.02622">
        <ele>6.1</ele>
        <time>2020-06-04T09:05:51Z</time>
      </trkpt>
      <trkpt lat="46.76036" lon="-2.02628">
        <ele>6.1</ele>
        <time>2020-06-04T09:05:52Z</time>
      </trkpt>
      <trkpt lat="46.76039" lon="-2.02633">
        <ele>6</ele>
        <time>2020-06-04T09:05:53Z</time>
      </trkpt>
      <trkpt lat="46.76043" lon="-2.02639">
        <ele>5.9</ele>
        <time>2020-06-04T09:05:54Z</time>
      </trkpt>
      <trkpt lat="46.76047" lon="-2.02645">
        <ele>5.9</ele>
        <time>2020-06-04T09:05:55Z</time>
      </trkpt>
      <trkpt lat="46.76051" lon="-2.02651">
        <ele>5.8</ele>
        <time>2020-06-04T09:05:56Z</time>
      </trkpt>
      <trkpt lat="46.76055" lon="-2.02658">
        <ele>5.8</ele>
        <time>2020-06-04T09:05:57Z</time>
      </trkpt>
      <trkpt lat="46.7606" lon="-2.02665">
        <ele>5.8</ele>
        <time>2020-06-04T09:05:58Z</time>
      </trkpt>
      <trkpt lat="46.76064" lon="-2.02671">
        <ele>5.7</ele>
        <time>2020-06-04T09:05:59Z</time>
      </trkpt>
      <trkpt lat="46.76069" lon="-2.02675">
        <ele>5.7</ele>
        <time>2020-06-04T09:06:00Z</time>
      </trkpt>
      <trkpt lat="46.76073" lon="-2.0268">
        <ele>5.7</ele>
        <time>2020-06-04T09:06:01Z</time>
      </trkpt>
      <trkpt lat="46.76078" lon="-2.02685">
        <ele>5.6</ele>
        <time>2020-06-04T09:06:02Z</time>
      </trkpt>
      <trkpt lat="46.76084" lon="-2.02689">
        <ele>5.6</ele>
        <time>2020-06-04T09:06:03Z</time>
      </trkpt>
      <trkpt lat="46.76089" lon="-2.02694">
        <ele>5.6</ele>
        <time>2020-06-04T09:06:04Z</time>
      </trkpt>
      <trkpt lat="46.76095" lon="-2.02699">
        <ele>5.6</ele>
        <time>2020-06-04T09:06:05Z</time>
      </trkpt>
      <trkpt lat="46.76099" lon="-2.02703">
        <ele>5.6</ele>
        <time>2020-06-04T09:06:06Z</time>
      </trkpt>
      <trkpt lat="46.76103" lon="-2.02707">
        <ele>5.6</ele>
        <time>2020-06-04T09:06:07Z</time>
      </trkpt>
      <trkpt lat="46.76107" lon="-2.02711">
        <ele>5.5</ele>
        <time>2020-06-04T09:06:08Z</time>
      </trkpt>
      <trkpt lat="46.7611" lon="-2.02714">
        <ele>5.5</ele>
        <time>2020-06-04T09:06:09Z</time>
      </trkpt>
      <trkpt lat="46.76113" lon="-2.02718">
        <ele>5.5</ele>
        <time>2020-06-04T09:06:10Z</time>
      </trkpt>
      <trkpt lat="46.76117" lon="-2.02722">
        <ele>5.5</ele>
        <time>2020-06-04T09:06:11Z</time>
      </trkpt>
      <trkpt lat="46.76122" lon="-2.02725">
        <ele>5.5</ele>
        <time>2020-06-04T09:06:12Z</time>
      </trkpt>
      <trkpt lat="46.76126" lon="-2.02729">
        <ele>5.5</ele>
        <time>2020-06-04T09:06:13Z</time>
      </trkpt>
      <trkpt lat="46.7613" lon="-2.02733">
        <ele>5.5</ele>
        <time>2020-06-04T09:06:14Z</time>
      </trkpt>
      <trkpt lat="46.76135" lon="-2.02737">
        <ele>5.6</ele>
        <time>2020-06-04T09:06:15Z</time>
      </trkpt>
      <trkpt lat="46.7614" lon="-2.02739">
        <ele>5.6</ele>
        <time>2020-06-04T09:06:16Z</time>
      </trkpt>
      <trkpt lat="46.76145" lon="-2.02742">
        <ele>5.6</ele>
        <time>2020-06-04T09:06:17Z</time>
      </trkpt>
      <trkpt lat="46.76149" lon="-2.02748">
        <ele>5.6</ele>
        <time>2020-06-04T09:06:18Z</time>
      </trkpt>
      <trkpt lat="46.76153" lon="-2.02752">
        <ele>5.6</ele>
        <time>2020-06-04T09:06:19Z</time>
      </trkpt>
      <trkpt lat="46.76157" lon="-2.02757">
        <ele>5.6</ele>
        <time>2020-06-04T09:06:20Z</time>
      </trkpt>
      <trkpt lat="46.76161" lon="-2.02761">
        <ele>5.6</ele>
        <time>2020-06-04T09:06:21Z</time>
      </trkpt>
      <trkpt lat="46.76167" lon="-2.02764">
        <ele>5.6</ele>
        <time>2020-06-04T09:06:22Z</time>
      </trkpt>
      <trkpt lat="46.76172" lon="-2.02766">
        <ele>5.6</ele>
        <time>2020-06-04T09:06:23Z</time>
      </trkpt>
      <trkpt lat="46.76175" lon="-2.02772">
        <ele>5.6</ele>
        <time>2020-06-04T09:06:24Z</time>
      </trkpt>
      <trkpt lat="46.7618" lon="-2.02775">
        <ele>5.6</ele>
        <time>2020-06-04T09:06:25Z</time>
      </trkpt>
      <trkpt lat="46.76185" lon="-2.02778">
        <ele>5.6</ele>
        <time>2020-06-04T09:06:26Z</time>
      </trkpt>
      <trkpt lat="46.7619" lon="-2.0278">
        <ele>5.6</ele>
        <time>2020-06-04T09:06:27Z</time>
      </trkpt>
      <trkpt lat="46.76194" lon="-2.02784">
        <ele>5.6</ele>
        <time>2020-06-04T09:06:28Z</time>
      </trkpt>
      <trkpt lat="46.76199" lon="-2.02787">
        <ele>5.6</ele>
        <time>2020-06-04T09:06:29Z</time>
      </trkpt>
      <trkpt lat="46.76203" lon="-2.0279">
        <ele>5.6</ele>
        <time>2020-06-04T09:06:30Z</time>
      </trkpt>
      <trkpt lat="46.76207" lon="-2.02793">
        <ele>5.7</ele>
        <time>2020-06-04T09:06:31Z</time>
      </trkpt>
      <trkpt lat="46.76211" lon="-2.02795">
        <ele>5.7</ele>
        <time>2020-06-04T09:06:32Z</time>
      </trkpt>
      <trkpt lat="46.76216" lon="-2.02798">
        <ele>5.7</ele>
        <time>2020-06-04T09:06:33Z</time>
      </trkpt>
      <trkpt lat="46.7622" lon="-2.02801">
        <ele>5.7</ele>
        <time>2020-06-04T09:06:34Z</time>
      </trkpt>
      <trkpt lat="46.76224" lon="-2.02807">
        <ele>5.7</ele>
        <time>2020-06-04T09:06:35Z</time>
      </trkpt>
      <trkpt lat="46.76227" lon="-2.02811">
        <ele>5.7</ele>
        <time>2020-06-04T09:06:36Z</time>
      </trkpt>
      <trkpt lat="46.76231" lon="-2.02815">
        <ele>5.7</ele>
        <time>2020-06-04T09:06:37Z</time>
      </trkpt>
      <trkpt lat="46.76235" lon="-2.02818">
        <ele>5.7</ele>
        <time>2020-06-04T09:06:38Z</time>
      </trkpt>
      <trkpt lat="46.76238" lon="-2.02822">
        <ele>5.7</ele>
        <time>2020-06-04T09:06:39Z</time>
      </trkpt>
      <trkpt lat="46.76241" lon="-2.02827">
        <ele>5.7</ele>
        <time>2020-06-04T09:06:40Z</time>
      </trkpt>
      <trkpt lat="46.76244" lon="-2.02831">
        <ele>5.8</ele>
        <time>2020-06-04T09:06:41Z</time>
      </trkpt>
      <trkpt lat="46.76247" lon="-2.02836">
        <ele>5.8</ele>
        <time>2020-06-04T09:06:42Z</time>
      </trkpt>
      <trkpt lat="46.76251" lon="-2.02839">
        <ele>5.8</ele>
        <time>2020-06-04T09:06:43Z</time>
      </trkpt>
      <trkpt lat="46.76254" lon="-2.02843">
        <ele>5.7</ele>
        <time>2020-06-04T09:06:44Z</time>
      </trkpt>
      <trkpt lat="46.76257" lon="-2.02847">
        <ele>5.7</ele>
        <time>2020-06-04T09:06:45Z</time>
      </trkpt>
      <trkpt lat="46.76261" lon="-2.02852">
        <ele>5.7</ele>
        <time>2020-06-04T09:06:46Z</time>
      </trkpt>
      <trkpt lat="46.76266" lon="-2.02855">
        <ele>5.7</ele>
        <time>2020-06-04T09:06:47Z</time>
      </trkpt>
      <trkpt lat="46.7627" lon="-2.02861">
        <ele>5.7</ele>
        <time>2020-06-04T09:06:48Z</time>
      </trkpt>
      <trkpt lat="46.76273" lon="-2.02866">
        <ele>5.7</ele>
        <time>2020-06-04T09:06:49Z</time>
      </trkpt>
      <trkpt lat="46.76277" lon="-2.0287">
        <ele>5.7</ele>
        <time>2020-06-04T09:06:50Z</time>
      </trkpt>
      <trkpt lat="46.76282" lon="-2.02873">
        <ele>5.7</ele>
        <time>2020-06-04T09:06:51Z</time>
      </trkpt>
      <trkpt lat="46.76286" lon="-2.02876">
        <ele>5.7</ele>
        <time>2020-06-04T09:06:52Z</time>
      </trkpt>
      <trkpt lat="46.76291" lon="-2.02879">
        <ele>5.7</ele>
        <time>2020-06-04T09:06:53Z</time>
      </trkpt>
      <trkpt lat="46.76296" lon="-2.02882">
        <ele>5.7</ele>
        <time>2020-06-04T09:06:54Z</time>
      </trkpt>
      <trkpt lat="46.76301" lon="-2.02884">
        <ele>5.7</ele>
        <time>2020-06-04T09:06:55Z</time>
      </trkpt>
      <trkpt lat="46.76307" lon="-2.02888">
        <ele>5.8</ele>
        <time>2020-06-04T09:06:56Z</time>
      </trkpt>
      <trkpt lat="46.76312" lon="-2.02892">
        <ele>5.9</ele>
        <time>2020-06-04T09:06:57Z</time>
      </trkpt>
      <trkpt lat="46.76317" lon="-2.02895">
        <ele>5.9</ele>
        <time>2020-06-04T09:06:58Z</time>
      </trkpt>
      <trkpt lat="46.76322" lon="-2.02898">
        <ele>6</ele>
        <time>2020-06-04T09:06:59Z</time>
      </trkpt>
      <trkpt lat="46.76327" lon="-2.02901">
        <ele>6.1</ele>
        <time>2020-06-04T09:07:00Z</time>
      </trkpt>
      <trkpt lat="46.76332" lon="-2.02905">
        <ele>6.1</ele>
        <time>2020-06-04T09:07:01Z</time>
      </trkpt>
      <trkpt lat="46.76337" lon="-2.0291">
        <ele>6.2</ele>
        <time>2020-06-04T09:07:02Z</time>
      </trkpt>
      <trkpt lat="46.76341" lon="-2.02914">
        <ele>6.2</ele>
        <time>2020-06-04T09:07:03Z</time>
      </trkpt>
      <trkpt lat="46.76346" lon="-2.0292">
        <ele>6.2</ele>
        <time>2020-06-04T09:07:04Z</time>
      </trkpt>
      <trkpt lat="46.7635" lon="-2.02927">
        <ele>6.2</ele>
        <time>2020-06-04T09:07:05Z</time>
      </trkpt>
      <trkpt lat="46.76353" lon="-2.02934">
        <ele>6.2</ele>
        <time>2020-06-04T09:07:06Z</time>
      </trkpt>
      <trkpt lat="46.76357" lon="-2.0294">
        <ele>6.2</ele>
        <time>2020-06-04T09:07:07Z</time>
      </trkpt>
      <trkpt lat="46.7636" lon="-2.02946">
        <ele>6.2</ele>
        <time>2020-06-04T09:07:08Z</time>
      </trkpt>
      <trkpt lat="46.76363" lon="-2.02952">
        <ele>6.2</ele>
        <time>2020-06-04T09:07:09Z</time>
      </trkpt>
      <trkpt lat="46.76366" lon="-2.0296">
        <ele>6.1</ele>
        <time>2020-06-04T09:07:10Z</time>
      </trkpt>
      <trkpt lat="46.76367" lon="-2.02966">
        <ele>6.1</ele>
        <time>2020-06-04T09:07:11Z</time>
      </trkpt>
      <trkpt lat="46.76368" lon="-2.02973">
        <ele>6.1</ele>
        <time>2020-06-04T09:07:12Z</time>
      </trkpt>
      <trkpt lat="46.7637" lon="-2.02982">
        <ele>6</ele>
        <time>2020-06-04T09:07:13Z</time>
      </trkpt>
      <trkpt lat="46.76373" lon="-2.02989">
        <ele>6</ele>
        <time>2020-06-04T09:07:14Z</time>
      </trkpt>
      <trkpt lat="46.76375" lon="-2.02997">
        <ele>6</ele>
        <time>2020-06-04T09:07:15Z</time>
      </trkpt>
      <trkpt lat="46.76375" lon="-2.03005">
        <ele>6</ele>
        <time>2020-06-04T09:07:16Z</time>
      </trkpt>
      <trkpt lat="46.76375" lon="-2.03013">
        <ele>6</ele>
        <time>2020-06-04T09:07:17Z</time>
      </trkpt>
      <trkpt lat="46.76376" lon="-2.03021">
        <ele>6</ele>
        <time>2020-06-04T09:07:18Z</time>
      </trkpt>
      <trkpt lat="46.76376" lon="-2.0303">
        <ele>6</ele>
        <time>2020-06-04T09:07:19Z</time>
      </trkpt>
      <trkpt lat="46.76376" lon="-2.03037">
        <ele>6.1</ele>
        <time>2020-06-04T09:07:20Z</time>
      </trkpt>
      <trkpt lat="46.76377" lon="-2.03045">
        <ele>6.1</ele>
        <time>2020-06-04T09:07:21Z</time>
      </trkpt>
      <trkpt lat="46.76377" lon="-2.03052">
        <ele>6.1</ele>
        <time>2020-06-04T09:07:22Z</time>
      </trkpt>
      <trkpt lat="46.76378" lon="-2.0306">
        <ele>6.2</ele>
        <time>2020-06-04T09:07:23Z</time>
      </trkpt>
      <trkpt lat="46.76379" lon="-2.03068">
        <ele>6.2</ele>
        <time>2020-06-04T09:07:24Z</time>
      </trkpt>
      <trkpt lat="46.76379" lon="-2.03076">
        <ele>6.2</ele>
        <time>2020-06-04T09:07:25Z</time>
      </trkpt>
      <trkpt lat="46.76379" lon="-2.03085">
        <ele>6.2</ele>
        <time>2020-06-04T09:07:26Z</time>
      </trkpt>
      <trkpt lat="46.76378" lon="-2.03092">
        <ele>6.3</ele>
        <time>2020-06-04T09:07:27Z</time>
      </trkpt>
      <trkpt lat="46.76378" lon="-2.03098">
        <ele>6.3</ele>
        <time>2020-06-04T09:07:28Z</time>
      </trkpt>
      <trkpt lat="46.76378" lon="-2.03105">
        <ele>6.3</ele>
        <time>2020-06-04T09:07:29Z</time>
      </trkpt>
      <trkpt lat="46.76379" lon="-2.03111">
        <ele>6.3</ele>
        <time>2020-06-04T09:07:30Z</time>
      </trkpt>
      <trkpt lat="46.7638" lon="-2.03119">
        <ele>6.3</ele>
        <time>2020-06-04T09:07:31Z</time>
      </trkpt>
      <trkpt lat="46.7638" lon="-2.03126">
        <ele>6.3</ele>
        <time>2020-06-04T09:07:32Z</time>
      </trkpt>
      <trkpt lat="46.76379" lon="-2.03133">
        <ele>6.3</ele>
        <time>2020-06-04T09:07:33Z</time>
      </trkpt>
      <trkpt lat="46.76379" lon="-2.03138">
        <ele>6.3</ele>
        <time>2020-06-04T09:07:34Z</time>
      </trkpt>
      <trkpt lat="46.76379" lon="-2.03143">
        <ele>6.3</ele>
        <time>2020-06-04T09:07:35Z</time>
      </trkpt>
      <trkpt lat="46.76381" lon="-2.03149">
        <ele>6.3</ele>
        <time>2020-06-04T09:07:36Z</time>
      </trkpt>
      <trkpt lat="46.76383" lon="-2.03157">
        <ele>6.3</ele>
        <time>2020-06-04T09:07:37Z</time>
      </trkpt>
      <trkpt lat="46.76386" lon="-2.03164">
        <ele>6.2</ele>
        <time>2020-06-04T09:07:38Z</time>
      </trkpt>
      <trkpt lat="46.7639" lon="-2.03171">
        <ele>6.2</ele>
        <time>2020-06-04T09:07:39Z</time>
      </trkpt>
      <trkpt lat="46.76393" lon="-2.03177">
        <ele>6.1</ele>
        <time>2020-06-04T09:07:40Z</time>
      </trkpt>
      <trkpt lat="46.76398" lon="-2.03183">
        <ele>6.1</ele>
        <time>2020-06-04T09:07:41Z</time>
      </trkpt>
      <trkpt lat="46.764" lon="-2.03188">
        <ele>6</ele>
        <time>2020-06-04T09:07:42Z</time>
      </trkpt>
      <trkpt lat="46.76403" lon="-2.03194">
        <ele>5.9</ele>
        <time>2020-06-04T09:07:43Z</time>
      </trkpt>
      <trkpt lat="46.76407" lon="-2.032">
        <ele>5.8</ele>
        <time>2020-06-04T09:07:44Z</time>
      </trkpt>
      <trkpt lat="46.76411" lon="-2.03206">
        <ele>5.7</ele>
        <time>2020-06-04T09:07:45Z</time>
      </trkpt>
      <trkpt lat="46.76415" lon="-2.03212">
        <ele>5.6</ele>
        <time>2020-06-04T09:07:46Z</time>
      </trkpt>
      <trkpt lat="46.76417" lon="-2.03218">
        <ele>5.5</ele>
        <time>2020-06-04T09:07:47Z</time>
      </trkpt>
      <trkpt lat="46.7642" lon="-2.03225">
        <ele>5.4</ele>
        <time>2020-06-04T09:07:48Z</time>
      </trkpt>
      <trkpt lat="46.76423" lon="-2.03232">
        <ele>5.4</ele>
        <time>2020-06-04T09:07:49Z</time>
      </trkpt>
      <trkpt lat="46.76426" lon="-2.03237">
        <ele>5.4</ele>
        <time>2020-06-04T09:07:50Z</time>
      </trkpt>
      <trkpt lat="46.76429" lon="-2.03244">
        <ele>5.3</ele>
        <time>2020-06-04T09:07:51Z</time>
      </trkpt>
      <trkpt lat="46.76433" lon="-2.0325">
        <ele>5.3</ele>
        <time>2020-06-04T09:07:52Z</time>
      </trkpt>
      <trkpt lat="46.76435" lon="-2.03256">
        <ele>5.3</ele>
        <time>2020-06-04T09:07:53Z</time>
      </trkpt>
      <trkpt lat="46.76438" lon="-2.03261">
        <ele>5.3</ele>
        <time>2020-06-04T09:07:54Z</time>
      </trkpt>
      <trkpt lat="46.76441" lon="-2.03267">
        <ele>5.3</ele>
        <time>2020-06-04T09:07:55Z</time>
      </trkpt>
      <trkpt lat="46.76445" lon="-2.03273">
        <ele>5.3</ele>
        <time>2020-06-04T09:07:56Z</time>
      </trkpt>
      <trkpt lat="46.76448" lon="-2.03278">
        <ele>5.3</ele>
        <time>2020-06-04T09:07:57Z</time>
      </trkpt>
      <trkpt lat="46.76451" lon="-2.03283">
        <ele>5.3</ele>
        <time>2020-06-04T09:07:58Z</time>
      </trkpt>
      <trkpt lat="46.76456" lon="-2.03289">
        <ele>5.3</ele>
        <time>2020-06-04T09:07:59Z</time>
      </trkpt>
      <trkpt lat="46.76458" lon="-2.03295">
        <ele>5.3</ele>
        <time>2020-06-04T09:08:00Z</time>
      </trkpt>
      <trkpt lat="46.76461" lon="-2.03302">
        <ele>5.3</ele>
        <time>2020-06-04T09:08:01Z</time>
      </trkpt>
      <trkpt lat="46.76464" lon="-2.03308">
        <ele>5.3</ele>
        <time>2020-06-04T09:08:02Z</time>
      </trkpt>
      <trkpt lat="46.76467" lon="-2.03314">
        <ele>5.3</ele>
        <time>2020-06-04T09:08:03Z</time>
      </trkpt>
      <trkpt lat="46.76471" lon="-2.0332">
        <ele>5.3</ele>
        <time>2020-06-04T09:08:04Z</time>
      </trkpt>
      <trkpt lat="46.76475" lon="-2.03326">
        <ele>5.3</ele>
        <time>2020-06-04T09:08:05Z</time>
      </trkpt>
      <trkpt lat="46.76478" lon="-2.03333">
        <ele>5.4</ele>
        <time>2020-06-04T09:08:06Z</time>
      </trkpt>
      <trkpt lat="46.76482" lon="-2.0334">
        <ele>5.4</ele>
        <time>2020-06-04T09:08:07Z</time>
      </trkpt>
      <trkpt lat="46.76484" lon="-2.03347">
        <ele>5.4</ele>
        <time>2020-06-04T09:08:08Z</time>
      </trkpt>
      <trkpt lat="46.76486" lon="-2.03354">
        <ele>5.4</ele>
        <time>2020-06-04T09:08:09Z</time>
      </trkpt>
      <trkpt lat="46.76488" lon="-2.0336">
        <ele>5.4</ele>
        <time>2020-06-04T09:08:10Z</time>
      </trkpt>
      <trkpt lat="46.7649" lon="-2.03367">
        <ele>5.4</ele>
        <time>2020-06-04T09:08:11Z</time>
      </trkpt>
      <trkpt lat="46.76492" lon="-2.03374">
        <ele>5.4</ele>
        <time>2020-06-04T09:08:12Z</time>
      </trkpt>
      <trkpt lat="46.76493" lon="-2.03381">
        <ele>5.4</ele>
        <time>2020-06-04T09:08:13Z</time>
      </trkpt>
      <trkpt lat="46.76494" lon="-2.03387">
        <ele>5.5</ele>
        <time>2020-06-04T09:08:14Z</time>
      </trkpt>
      <trkpt lat="46.76495" lon="-2.03393">
        <ele>5.5</ele>
        <time>2020-06-04T09:08:15Z</time>
      </trkpt>
      <trkpt lat="46.76496" lon="-2.03399">
        <ele>5.5</ele>
        <time>2020-06-04T09:08:16Z</time>
      </trkpt>
      <trkpt lat="46.76496" lon="-2.03406">
        <ele>5.6</ele>
        <time>2020-06-04T09:08:17Z</time>
      </trkpt>
      <trkpt lat="46.76497" lon="-2.03414">
        <ele>5.6</ele>
        <time>2020-06-04T09:08:18Z</time>
      </trkpt>
      <trkpt lat="46.76498" lon="-2.03421">
        <ele>5.7</ele>
        <time>2020-06-04T09:08:19Z</time>
      </trkpt>
      <trkpt lat="46.765" lon="-2.03427">
        <ele>5.7</ele>
        <time>2020-06-04T09:08:20Z</time>
      </trkpt>
      <trkpt lat="46.76503" lon="-2.03432">
        <ele>5.8</ele>
        <time>2020-06-04T09:08:21Z</time>
      </trkpt>
      <trkpt lat="46.76506" lon="-2.03437">
        <ele>5.8</ele>
        <time>2020-06-04T09:08:22Z</time>
      </trkpt>
      <trkpt lat="46.76508" lon="-2.03442">
        <ele>5.9</ele>
        <time>2020-06-04T09:08:23Z</time>
      </trkpt>
      <trkpt lat="46.76511" lon="-2.03447">
        <ele>5.9</ele>
        <time>2020-06-04T09:08:24Z</time>
      </trkpt>
      <trkpt lat="46.76513" lon="-2.03451">
        <ele>6</ele>
        <time>2020-06-04T09:08:25Z</time>
      </trkpt>
      <trkpt lat="46.76515" lon="-2.03455">
        <ele>6</ele>
        <time>2020-06-04T09:08:26Z</time>
      </trkpt>
      <trkpt lat="46.76517" lon="-2.03459">
        <ele>6.1</ele>
        <time>2020-06-04T09:08:27Z</time>
      </trkpt>
      <trkpt lat="46.7652" lon="-2.03464">
        <ele>6.1</ele>
        <time>2020-06-04T09:08:28Z</time>
      </trkpt>
      <trkpt lat="46.76523" lon="-2.03468">
        <ele>6.2</ele>
        <time>2020-06-04T09:08:29Z</time>
      </trkpt>
      <trkpt lat="46.76525" lon="-2.03473">
        <ele>6.2</ele>
        <time>2020-06-04T09:08:30Z</time>
      </trkpt>
      <trkpt lat="46.76528" lon="-2.03478">
        <ele>6.3</ele>
        <time>2020-06-04T09:08:31Z</time>
      </trkpt>
      <trkpt lat="46.76531" lon="-2.03483">
        <ele>6.3</ele>
        <time>2020-06-04T09:08:32Z</time>
      </trkpt>
      <trkpt lat="46.76534" lon="-2.03489">
        <ele>6.4</ele>
        <time>2020-06-04T09:08:33Z</time>
      </trkpt>
      <trkpt lat="46.76538" lon="-2.03495">
        <ele>6.4</ele>
        <time>2020-06-04T09:08:34Z</time>
      </trkpt>
      <trkpt lat="46.76542" lon="-2.03502">
        <ele>6.5</ele>
        <time>2020-06-04T09:08:35Z</time>
      </trkpt>
      <trkpt lat="46.76545" lon="-2.03508">
        <ele>6.6</ele>
        <time>2020-06-04T09:08:36Z</time>
      </trkpt>
      <trkpt lat="46.76549" lon="-2.03513">
        <ele>6.7</ele>
        <time>2020-06-04T09:08:37Z</time>
      </trkpt>
      <trkpt lat="46.76551" lon="-2.03518">
        <ele>6.7</ele>
        <time>2020-06-04T09:08:38Z</time>
      </trkpt>
      <trkpt lat="46.76554" lon="-2.03522">
        <ele>6.8</ele>
        <time>2020-06-04T09:08:39Z</time>
      </trkpt>
      <trkpt lat="46.76558" lon="-2.03526">
        <ele>6.9</ele>
        <time>2020-06-04T09:08:40Z</time>
      </trkpt>
      <trkpt lat="46.76561" lon="-2.03531">
        <ele>6.9</ele>
        <time>2020-06-04T09:08:41Z</time>
      </trkpt>
      <trkpt lat="46.76564" lon="-2.03536">
        <ele>7</ele>
        <time>2020-06-04T09:08:42Z</time>
      </trkpt>
      <trkpt lat="46.76566" lon="-2.03544">
        <ele>7</ele>
        <time>2020-06-04T09:08:43Z</time>
      </trkpt>
      <trkpt lat="46.76569" lon="-2.0355">
        <ele>7.1</ele>
        <time>2020-06-04T09:08:44Z</time>
      </trkpt>
      <trkpt lat="46.7657" lon="-2.03555">
        <ele>7.2</ele>
        <time>2020-06-04T09:08:45Z</time>
      </trkpt>
      <trkpt lat="46.76573" lon="-2.03561">
        <ele>7.2</ele>
        <time>2020-06-04T09:08:46Z</time>
      </trkpt>
      <trkpt lat="46.76575" lon="-2.03567">
        <ele>7.3</ele>
        <time>2020-06-04T09:08:47Z</time>
      </trkpt>
      <trkpt lat="46.76577" lon="-2.03575">
        <ele>7.3</ele>
        <time>2020-06-04T09:08:48Z</time>
      </trkpt>
      <trkpt lat="46.76578" lon="-2.03581">
        <ele>7.4</ele>
        <time>2020-06-04T09:08:49Z</time>
      </trkpt>
      <trkpt lat="46.7658" lon="-2.03587">
        <ele>7.5</ele>
        <time>2020-06-04T09:08:50Z</time>
      </trkpt>
      <trkpt lat="46.76581" lon="-2.03592">
        <ele>7.5</ele>
        <time>2020-06-04T09:08:51Z</time>
      </trkpt>
      <trkpt lat="46.76581" lon="-2.03597">
        <ele>7.6</ele>
        <time>2020-06-04T09:08:52Z</time>
      </trkpt>
      <trkpt lat="46.76583" lon="-2.03603">
        <ele>7.7</ele>
        <time>2020-06-04T09:08:53Z</time>
      </trkpt>
      <trkpt lat="46.76584" lon="-2.03609">
        <ele>7.8</ele>
        <time>2020-06-04T09:08:54Z</time>
      </trkpt>
      <trkpt lat="46.76587" lon="-2.03616">
        <ele>7.9</ele>
        <time>2020-06-04T09:08:55Z</time>
      </trkpt>
      <trkpt lat="46.76589" lon="-2.03623">
        <ele>7.9</ele>
        <time>2020-06-04T09:08:56Z</time>
      </trkpt>
      <trkpt lat="46.7659" lon="-2.03629">
        <ele>8</ele>
        <time>2020-06-04T09:08:57Z</time>
      </trkpt>
      <trkpt lat="46.76592" lon="-2.03634">
        <ele>8</ele>
        <time>2020-06-04T09:08:58Z</time>
      </trkpt>
      <trkpt lat="46.76592" lon="-2.03641">
        <ele>8</ele>
        <time>2020-06-04T09:08:59Z</time>
      </trkpt>
      <trkpt lat="46.76593" lon="-2.03647">
        <ele>8.1</ele>
        <time>2020-06-04T09:09:00Z</time>
      </trkpt>
      <trkpt lat="46.76594" lon="-2.03654">
        <ele>8.1</ele>
        <time>2020-06-04T09:09:01Z</time>
      </trkpt>
      <trkpt lat="46.76596" lon="-2.0366">
        <ele>8.1</ele>
        <time>2020-06-04T09:09:02Z</time>
      </trkpt>
      <trkpt lat="46.76598" lon="-2.03666">
        <ele>8.1</ele>
        <time>2020-06-04T09:09:03Z</time>
      </trkpt>
      <trkpt lat="46.76599" lon="-2.03672">
        <ele>8.1</ele>
        <time>2020-06-04T09:09:04Z</time>
      </trkpt>
      <trkpt lat="46.76601" lon="-2.03679">
        <ele>8.1</ele>
        <time>2020-06-04T09:09:05Z</time>
      </trkpt>
      <trkpt lat="46.76603" lon="-2.03685">
        <ele>8.1</ele>
        <time>2020-06-04T09:09:06Z</time>
      </trkpt>
      <trkpt lat="46.76604" lon="-2.03693">
        <ele>8</ele>
        <time>2020-06-04T09:09:07Z</time>
      </trkpt>
      <trkpt lat="46.76605" lon="-2.037">
        <ele>8</ele>
        <time>2020-06-04T09:09:08Z</time>
      </trkpt>
      <trkpt lat="46.76605" lon="-2.03708">
        <ele>8</ele>
        <time>2020-06-04T09:09:09Z</time>
      </trkpt>
      <trkpt lat="46.76606" lon="-2.03716">
        <ele>7.9</ele>
        <time>2020-06-04T09:09:10Z</time>
      </trkpt>
      <trkpt lat="46.76606" lon="-2.03723">
        <ele>7.9</ele>
        <time>2020-06-04T09:09:11Z</time>
      </trkpt>
      <trkpt lat="46.76607" lon="-2.03731">
        <ele>7.8</ele>
        <time>2020-06-04T09:09:12Z</time>
      </trkpt>
      <trkpt lat="46.76608" lon="-2.03739">
        <ele>7.6</ele>
        <time>2020-06-04T09:09:13Z</time>
      </trkpt>
      <trkpt lat="46.7661" lon="-2.03746">
        <ele>7.5</ele>
        <time>2020-06-04T09:09:14Z</time>
      </trkpt>
      <trkpt lat="46.76612" lon="-2.03753">
        <ele>7.3</ele>
        <time>2020-06-04T09:09:15Z</time>
      </trkpt>
      <trkpt lat="46.76613" lon="-2.03759">
        <ele>7.2</ele>
        <time>2020-06-04T09:09:16Z</time>
      </trkpt>
      <trkpt lat="46.76615" lon="-2.03767">
        <ele>7.1</ele>
        <time>2020-06-04T09:09:17Z</time>
      </trkpt>
      <trkpt lat="46.76617" lon="-2.03775">
        <ele>6.9</ele>
        <time>2020-06-04T09:09:18Z</time>
      </trkpt>
      <trkpt lat="46.76618" lon="-2.03783">
        <ele>6.8</ele>
        <time>2020-06-04T09:09:19Z</time>
      </trkpt>
      <trkpt lat="46.76619" lon="-2.03791">
        <ele>6.7</ele>
        <time>2020-06-04T09:09:20Z</time>
      </trkpt>
      <trkpt lat="46.76619" lon="-2.03801">
        <ele>6.5</ele>
        <time>2020-06-04T09:09:21Z</time>
      </trkpt>
      <trkpt lat="46.76619" lon="-2.03809">
        <ele>6.3</ele>
        <time>2020-06-04T09:09:22Z</time>
      </trkpt>
      <trkpt lat="46.76618" lon="-2.03819">
        <ele>6.2</ele>
        <time>2020-06-04T09:09:23Z</time>
      </trkpt>
      <trkpt lat="46.76618" lon="-2.03828">
        <ele>6</ele>
        <time>2020-06-04T09:09:24Z</time>
      </trkpt>
      <trkpt lat="46.76616" lon="-2.03836">
        <ele>5.8</ele>
        <time>2020-06-04T09:09:25Z</time>
      </trkpt>
      <trkpt lat="46.76614" lon="-2.03845">
        <ele>5.6</ele>
        <time>2020-06-04T09:09:26Z</time>
      </trkpt>
      <trkpt lat="46.76614" lon="-2.03854">
        <ele>5.4</ele>
        <time>2020-06-04T09:09:27Z</time>
      </trkpt>
      <trkpt lat="46.76614" lon="-2.03863">
        <ele>5.3</ele>
        <time>2020-06-04T09:09:28Z</time>
      </trkpt>
      <trkpt lat="46.76615" lon="-2.03873">
        <ele>5.1</ele>
        <time>2020-06-04T09:09:29Z</time>
      </trkpt>
      <trkpt lat="46.76614" lon="-2.03883">
        <ele>5</ele>
        <time>2020-06-04T09:09:30Z</time>
      </trkpt>
      <trkpt lat="46.76614" lon="-2.03891">
        <ele>4.9</ele>
        <time>2020-06-04T09:09:31Z</time>
      </trkpt>
      <trkpt lat="46.76615" lon="-2.039">
        <ele>4.7</ele>
        <time>2020-06-04T09:09:32Z</time>
      </trkpt>
      <trkpt lat="46.76617" lon="-2.03908">
        <ele>4.6</ele>
        <time>2020-06-04T09:09:33Z</time>
      </trkpt>
      <trkpt lat="46.76617" lon="-2.03916">
        <ele>4.5</ele>
        <time>2020-06-04T09:09:34Z</time>
      </trkpt>
      <trkpt lat="46.76617" lon="-2.03925">
        <ele>4.3</ele>
        <time>2020-06-04T09:09:35Z</time>
      </trkpt>
      <trkpt lat="46.76618" lon="-2.03935">
        <ele>4.2</ele>
        <time>2020-06-04T09:09:36Z</time>
      </trkpt>
      <trkpt lat="46.76617" lon="-2.03943">
        <ele>4.1</ele>
        <time>2020-06-04T09:09:37Z</time>
      </trkpt>
      <trkpt lat="46.76616" lon="-2.03951">
        <ele>3.9</ele>
        <time>2020-06-04T09:09:38Z</time>
      </trkpt>
      <trkpt lat="46.76618" lon="-2.03959">
        <ele>3.8</ele>
        <time>2020-06-04T09:09:39Z</time>
      </trkpt>
      <trkpt lat="46.7662" lon="-2.03969">
        <ele>3.7</ele>
        <time>2020-06-04T09:09:40Z</time>
      </trkpt>
      <trkpt lat="46.76622" lon="-2.0398">
        <ele>3.6</ele>
        <time>2020-06-04T09:09:41Z</time>
      </trkpt>
      <trkpt lat="46.76624" lon="-2.03989">
        <ele>3.5</ele>
        <time>2020-06-04T09:09:42Z</time>
      </trkpt>
      <trkpt lat="46.76628" lon="-2.03999">
        <ele>3.5</ele>
        <time>2020-06-04T09:09:43Z</time>
      </trkpt>
      <trkpt lat="46.76632" lon="-2.04008">
        <ele>3.4</ele>
        <time>2020-06-04T09:09:44Z</time>
      </trkpt>
      <trkpt lat="46.76636" lon="-2.04017">
        <ele>3.3</ele>
        <time>2020-06-04T09:09:45Z</time>
      </trkpt>
      <trkpt lat="46.7664" lon="-2.04026">
        <ele>3.3</ele>
        <time>2020-06-04T09:09:46Z</time>
      </trkpt>
      <trkpt lat="46.76644" lon="-2.04034">
        <ele>3.2</ele>
        <time>2020-06-04T09:09:47Z</time>
      </trkpt>
      <trkpt lat="46.76648" lon="-2.04042">
        <ele>3.2</ele>
        <time>2020-06-04T09:09:48Z</time>
      </trkpt>
      <trkpt lat="46.76651" lon="-2.04051">
        <ele>3.2</ele>
        <time>2020-06-04T09:09:49Z</time>
      </trkpt>
      <trkpt lat="46.76654" lon="-2.04059">
        <ele>3.2</ele>
        <time>2020-06-04T09:09:50Z</time>
      </trkpt>
      <trkpt lat="46.76656" lon="-2.04065">
        <ele>3.2</ele>
        <time>2020-06-04T09:09:51Z</time>
      </trkpt>
      <trkpt lat="46.7666" lon="-2.04074">
        <ele>3.2</ele>
        <time>2020-06-04T09:09:52Z</time>
      </trkpt>
      <trkpt lat="46.76664" lon="-2.04082">
        <ele>3.2</ele>
        <time>2020-06-04T09:09:53Z</time>
      </trkpt>
      <trkpt lat="46.76666" lon="-2.04087">
        <ele>3.2</ele>
        <time>2020-06-04T09:09:54Z</time>
      </trkpt>
      <trkpt lat="46.76669" lon="-2.04093">
        <ele>3.2</ele>
        <time>2020-06-04T09:09:55Z</time>
      </trkpt>
      <trkpt lat="46.76673" lon="-2.04101">
        <ele>3.2</ele>
        <time>2020-06-04T09:09:56Z</time>
      </trkpt>
      <trkpt lat="46.76676" lon="-2.04108">
        <ele>3.2</ele>
        <time>2020-06-04T09:09:57Z</time>
      </trkpt>
      <trkpt lat="46.76678" lon="-2.04114">
        <ele>3.2</ele>
        <time>2020-06-04T09:09:58Z</time>
      </trkpt>
      <trkpt lat="46.7668" lon="-2.04121">
        <ele>3.3</ele>
        <time>2020-06-04T09:09:59Z</time>
      </trkpt>
      <trkpt lat="46.76683" lon="-2.04129">
        <ele>3.3</ele>
        <time>2020-06-04T09:10:00Z</time>
      </trkpt>
      <trkpt lat="46.76686" lon="-2.04135">
        <ele>3.3</ele>
        <time>2020-06-04T09:10:01Z</time>
      </trkpt>
      <trkpt lat="46.76689" lon="-2.0414">
        <ele>3.3</ele>
        <time>2020-06-04T09:10:02Z</time>
      </trkpt>
      <trkpt lat="46.76691" lon="-2.04146">
        <ele>3.3</ele>
        <time>2020-06-04T09:10:03Z</time>
      </trkpt>
      <trkpt lat="46.76693" lon="-2.04152">
        <ele>3.4</ele>
        <time>2020-06-04T09:10:04Z</time>
      </trkpt>
      <trkpt lat="46.76697" lon="-2.04158">
        <ele>3.4</ele>
        <time>2020-06-04T09:10:05Z</time>
      </trkpt>
      <trkpt lat="46.767" lon="-2.04164">
        <ele>3.4</ele>
        <time>2020-06-04T09:10:06Z</time>
      </trkpt>
      <trkpt lat="46.76704" lon="-2.04171">
        <ele>3.4</ele>
        <time>2020-06-04T09:10:07Z</time>
      </trkpt>
      <trkpt lat="46.76706" lon="-2.0418">
        <ele>3.4</ele>
        <time>2020-06-04T09:10:08Z</time>
      </trkpt>
      <trkpt lat="46.76709" lon="-2.04185">
        <ele>3.4</ele>
        <time>2020-06-04T09:10:09Z</time>
      </trkpt>
      <trkpt lat="46.76711" lon="-2.04192">
        <ele>3.4</ele>
        <time>2020-06-04T09:10:10Z</time>
      </trkpt>
      <trkpt lat="46.76714" lon="-2.04198">
        <ele>3.4</ele>
        <time>2020-06-04T09:10:11Z</time>
      </trkpt>
      <trkpt lat="46.76716" lon="-2.04203">
        <ele>3.4</ele>
        <time>2020-06-04T09:10:12Z</time>
      </trkpt>
      <trkpt lat="46.76718" lon="-2.04208">
        <ele>3.4</ele>
        <time>2020-06-04T09:10:13Z</time>
      </trkpt>
      <trkpt lat="46.7672" lon="-2.04213">
        <ele>3.4</ele>
        <time>2020-06-04T09:10:14Z</time>
      </trkpt>
      <trkpt lat="46.76723" lon="-2.04221">
        <ele>3.4</ele>
        <time>2020-06-04T09:10:15Z</time>
      </trkpt>
      <trkpt lat="46.76725" lon="-2.04225">
        <ele>3.4</ele>
        <time>2020-06-04T09:10:16Z</time>
      </trkpt>
      <trkpt lat="46.76727" lon="-2.04229">
        <ele>3.4</ele>
        <time>2020-06-04T09:10:17Z</time>
      </trkpt>
      <trkpt lat="46.76727" lon="-2.0423">
        <ele>3.4</ele>
        <time>2020-06-04T09:10:18Z</time>
      </trkpt>
      <trkpt lat="46.76728" lon="-2.04234">
        <ele>3.4</ele>
        <time>2020-06-04T09:10:19Z</time>
      </trkpt>
      <trkpt lat="46.76729" lon="-2.04235">
        <ele>3.4</ele>
        <time>2020-06-04T09:10:20Z</time>
      </trkpt>
      <trkpt lat="46.76731" lon="-2.04239">
        <ele>3.4</ele>
        <time>2020-06-04T09:10:21Z</time>
      </trkpt>
      <trkpt lat="46.76732" lon="-2.04241">
        <ele>3.4</ele>
        <time>2020-06-04T09:10:22Z</time>
      </trkpt>
      <trkpt lat="46.76735" lon="-2.04244">
        <ele>3.3</ele>
        <time>2020-06-04T09:10:23Z</time>
      </trkpt>
      <trkpt lat="46.76736" lon="-2.04245">
        <ele>3.3</ele>
        <time>2020-06-04T09:10:24Z</time>
      </trkpt>
      <trkpt lat="46.76739" lon="-2.04247">
        <ele>3.3</ele>
        <time>2020-06-04T09:10:25Z</time>
      </trkpt>
      <trkpt lat="46.76741" lon="-2.04247">
        <ele>3.3</ele>
        <time>2020-06-04T09:10:26Z</time>
      </trkpt>
      <trkpt lat="46.76743" lon="-2.0425">
        <ele>3.3</ele>
        <time>2020-06-04T09:10:27Z</time>
      </trkpt>
      <trkpt lat="46.76746" lon="-2.04252">
        <ele>3.4</ele>
        <time>2020-06-04T09:10:28Z</time>
      </trkpt>
      <trkpt lat="46.76749" lon="-2.04256">
        <ele>3.3</ele>
        <time>2020-06-04T09:10:29Z</time>
      </trkpt>
      <trkpt lat="46.76752" lon="-2.04259">
        <ele>3.3</ele>
        <time>2020-06-04T09:10:30Z</time>
      </trkpt>
      <trkpt lat="46.76756" lon="-2.04263">
        <ele>3.3</ele>
        <time>2020-06-04T09:10:31Z</time>
      </trkpt>
      <trkpt lat="46.76759" lon="-2.04268">
        <ele>3.3</ele>
        <time>2020-06-04T09:10:32Z</time>
      </trkpt>
      <trkpt lat="46.76762" lon="-2.04274">
        <ele>3.3</ele>
        <time>2020-06-04T09:10:33Z</time>
      </trkpt>
      <trkpt lat="46.76765" lon="-2.04278">
        <ele>3.3</ele>
        <time>2020-06-04T09:10:34Z</time>
      </trkpt>
      <trkpt lat="46.7677" lon="-2.04283">
        <ele>3.3</ele>
        <time>2020-06-04T09:10:35Z</time>
      </trkpt>
      <trkpt lat="46.76775" lon="-2.04289">
        <ele>3.3</ele>
        <time>2020-06-04T09:10:36Z</time>
      </trkpt>
      <trkpt lat="46.76781" lon="-2.04294">
        <ele>3.3</ele>
        <time>2020-06-04T09:10:37Z</time>
      </trkpt>
      <trkpt lat="46.76785" lon="-2.04298">
        <ele>3.3</ele>
        <time>2020-06-04T09:10:38Z</time>
      </trkpt>
      <trkpt lat="46.76789" lon="-2.04302">
        <ele>3.3</ele>
        <time>2020-06-04T09:10:39Z</time>
      </trkpt>
      <trkpt lat="46.76794" lon="-2.04306">
        <ele>3.3</ele>
        <time>2020-06-04T09:10:40Z</time>
      </trkpt>
      <trkpt lat="46.76798" lon="-2.0431">
        <ele>3.3</ele>
        <time>2020-06-04T09:10:41Z</time>
      </trkpt>
      <trkpt lat="46.76802" lon="-2.04315">
        <ele>3.3</ele>
        <time>2020-06-04T09:10:42Z</time>
      </trkpt>
      <trkpt lat="46.76807" lon="-2.04319">
        <ele>3.2</ele>
        <time>2020-06-04T09:10:43Z</time>
      </trkpt>
      <trkpt lat="46.76812" lon="-2.04324">
        <ele>3.2</ele>
        <time>2020-06-04T09:10:44Z</time>
      </trkpt>
      <trkpt lat="46.76817" lon="-2.04328">
        <ele>3.2</ele>
        <time>2020-06-04T09:10:45Z</time>
      </trkpt>
      <trkpt lat="46.76821" lon="-2.04331">
        <ele>3.2</ele>
        <time>2020-06-04T09:10:46Z</time>
      </trkpt>
      <trkpt lat="46.76827" lon="-2.04335">
        <ele>3.2</ele>
        <time>2020-06-04T09:10:47Z</time>
      </trkpt>
      <trkpt lat="46.76831" lon="-2.0434">
        <ele>3.2</ele>
        <time>2020-06-04T09:10:48Z</time>
      </trkpt>
      <trkpt lat="46.76835" lon="-2.04345">
        <ele>3.2</ele>
        <time>2020-06-04T09:10:49Z</time>
      </trkpt>
      <trkpt lat="46.76839" lon="-2.04349">
        <ele>3.2</ele>
        <time>2020-06-04T09:10:50Z</time>
      </trkpt>
      <trkpt lat="46.76843" lon="-2.04354">
        <ele>3.2</ele>
        <time>2020-06-04T09:10:51Z</time>
      </trkpt>
      <trkpt lat="46.76847" lon="-2.04359">
        <ele>3.2</ele>
        <time>2020-06-04T09:10:52Z</time>
      </trkpt>
      <trkpt lat="46.76851" lon="-2.04364">
        <ele>3.2</ele>
        <time>2020-06-04T09:10:53Z</time>
      </trkpt>
      <trkpt lat="46.76856" lon="-2.04367">
        <ele>3.1</ele>
        <time>2020-06-04T09:10:54Z</time>
      </trkpt>
      <trkpt lat="46.76859" lon="-2.04372">
        <ele>3.1</ele>
        <time>2020-06-04T09:10:55Z</time>
      </trkpt>
      <trkpt lat="46.76864" lon="-2.04377">
        <ele>3.1</ele>
        <time>2020-06-04T09:10:56Z</time>
      </trkpt>
      <trkpt lat="46.76869" lon="-2.04381">
        <ele>3.1</ele>
        <time>2020-06-04T09:10:57Z</time>
      </trkpt>
      <trkpt lat="46.76873" lon="-2.04385">
        <ele>3.1</ele>
        <time>2020-06-04T09:10:58Z</time>
      </trkpt>
      <trkpt lat="46.76877" lon="-2.0439">
        <ele>3.1</ele>
        <time>2020-06-04T09:10:59Z</time>
      </trkpt>
      <trkpt lat="46.76882" lon="-2.04395">
        <ele>3.1</ele>
        <time>2020-06-04T09:11:00Z</time>
      </trkpt>
      <trkpt lat="46.76887" lon="-2.044">
        <ele>3.1</ele>
        <time>2020-06-04T09:11:01Z</time>
      </trkpt>
      <trkpt lat="46.76892" lon="-2.04404">
        <ele>3.1</ele>
        <time>2020-06-04T09:11:02Z</time>
      </trkpt>
      <trkpt lat="46.76896" lon="-2.04409">
        <ele>3.1</ele>
        <time>2020-06-04T09:11:03Z</time>
      </trkpt>
      <trkpt lat="46.76899" lon="-2.04415">
        <ele>3.1</ele>
        <time>2020-06-04T09:11:04Z</time>
      </trkpt>
      <trkpt lat="46.76903" lon="-2.0442">
        <ele>3.1</ele>
        <time>2020-06-04T09:11:05Z</time>
      </trkpt>
      <trkpt lat="46.76907" lon="-2.04426">
        <ele>3.1</ele>
        <time>2020-06-04T09:11:06Z</time>
      </trkpt>
      <trkpt lat="46.76912" lon="-2.04432">
        <ele>3.1</ele>
        <time>2020-06-04T09:11:07Z</time>
      </trkpt>
      <trkpt lat="46.76916" lon="-2.04438">
        <ele>3.1</ele>
        <time>2020-06-04T09:11:08Z</time>
      </trkpt>
      <trkpt lat="46.7692" lon="-2.04444">
        <ele>3.1</ele>
        <time>2020-06-04T09:11:09Z</time>
      </trkpt>
      <trkpt lat="46.76924" lon="-2.0445">
        <ele>3.1</ele>
        <time>2020-06-04T09:11:10Z</time>
      </trkpt>
      <trkpt lat="46.76927" lon="-2.04457">
        <ele>3.1</ele>
        <time>2020-06-04T09:11:11Z</time>
      </trkpt>
      <trkpt lat="46.76931" lon="-2.04463">
        <ele>3.1</ele>
        <time>2020-06-04T09:11:12Z</time>
      </trkpt>
      <trkpt lat="46.76936" lon="-2.0447">
        <ele>3.1</ele>
        <time>2020-06-04T09:11:13Z</time>
      </trkpt>
      <trkpt lat="46.7694" lon="-2.04477">
        <ele>3.1</ele>
        <time>2020-06-04T09:11:14Z</time>
      </trkpt>
      <trkpt lat="46.76945" lon="-2.04483">
        <ele>3.1</ele>
        <time>2020-06-04T09:11:15Z</time>
      </trkpt>
      <trkpt lat="46.76949" lon="-2.04489">
        <ele>3.2</ele>
        <time>2020-06-04T09:11:16Z</time>
      </trkpt>
      <trkpt lat="46.76952" lon="-2.04495">
        <ele>3.2</ele>
        <time>2020-06-04T09:11:17Z</time>
      </trkpt>
      <trkpt lat="46.76955" lon="-2.04501">
        <ele>3.2</ele>
        <time>2020-06-04T09:11:18Z</time>
      </trkpt>
      <trkpt lat="46.76958" lon="-2.04507">
        <ele>3.2</ele>
        <time>2020-06-04T09:11:19Z</time>
      </trkpt>
      <trkpt lat="46.76963" lon="-2.04514">
        <ele>3.2</ele>
        <time>2020-06-04T09:11:20Z</time>
      </trkpt>
      <trkpt lat="46.76968" lon="-2.04521">
        <ele>3.2</ele>
        <time>2020-06-04T09:11:21Z</time>
      </trkpt>
      <trkpt lat="46.76973" lon="-2.04528">
        <ele>3.1</ele>
        <time>2020-06-04T09:11:22Z</time>
      </trkpt>
      <trkpt lat="46.76976" lon="-2.04534">
        <ele>3.1</ele>
        <time>2020-06-04T09:11:23Z</time>
      </trkpt>
      <trkpt lat="46.76981" lon="-2.0454">
        <ele>3.1</ele>
        <time>2020-06-04T09:11:24Z</time>
      </trkpt>
      <trkpt lat="46.76984" lon="-2.04546">
        <ele>3.1</ele>
        <time>2020-06-04T09:11:25Z</time>
      </trkpt>
      <trkpt lat="46.76988" lon="-2.04551">
        <ele>3.1</ele>
        <time>2020-06-04T09:11:26Z</time>
      </trkpt>
      <trkpt lat="46.76992" lon="-2.04556">
        <ele>3.1</ele>
        <time>2020-06-04T09:11:27Z</time>
      </trkpt>
      <trkpt lat="46.76996" lon="-2.04561">
        <ele>3.1</ele>
        <time>2020-06-04T09:11:28Z</time>
      </trkpt>
      <trkpt lat="46.76999" lon="-2.04566">
        <ele>3.1</ele>
        <time>2020-06-04T09:11:29Z</time>
      </trkpt>
      <trkpt lat="46.77003" lon="-2.04572">
        <ele>3.1</ele>
        <time>2020-06-04T09:11:30Z</time>
      </trkpt>
      <trkpt lat="46.77007" lon="-2.04578">
        <ele>3.1</ele>
        <time>2020-06-04T09:11:31Z</time>
      </trkpt>
      <trkpt lat="46.77011" lon="-2.04585">
        <ele>3.1</ele>
        <time>2020-06-04T09:11:32Z</time>
      </trkpt>
      <trkpt lat="46.77015" lon="-2.04591">
        <ele>3.1</ele>
        <time>2020-06-04T09:11:33Z</time>
      </trkpt>
      <trkpt lat="46.77019" lon="-2.04597">
        <ele>3.2</ele>
        <time>2020-06-04T09:11:34Z</time>
      </trkpt>
      <trkpt lat="46.77023" lon="-2.04603">
        <ele>3.2</ele>
        <time>2020-06-04T09:11:35Z</time>
      </trkpt>
      <trkpt lat="46.77026" lon="-2.04609">
        <ele>3.2</ele>
        <time>2020-06-04T09:11:36Z</time>
      </trkpt>
      <trkpt lat="46.7703" lon="-2.04614">
        <ele>3.2</ele>
        <time>2020-06-04T09:11:37Z</time>
      </trkpt>
      <trkpt lat="46.77034" lon="-2.0462">
        <ele>3.2</ele>
        <time>2020-06-04T09:11:38Z</time>
      </trkpt>
      <trkpt lat="46.77038" lon="-2.04626">
        <ele>3.2</ele>
        <time>2020-06-04T09:11:39Z</time>
      </trkpt>
      <trkpt lat="46.7704" lon="-2.04631">
        <ele>3.2</ele>
        <time>2020-06-04T09:11:40Z</time>
      </trkpt>
      <trkpt lat="46.77046" lon="-2.04639">
        <ele>3.2</ele>
        <time>2020-06-04T09:11:41Z</time>
      </trkpt>
      <trkpt lat="46.77049" lon="-2.04645">
        <ele>3.2</ele>
        <time>2020-06-04T09:11:42Z</time>
      </trkpt>
      <trkpt lat="46.77052" lon="-2.04652">
        <ele>3.2</ele>
        <time>2020-06-04T09:11:43Z</time>
      </trkpt>
      <trkpt lat="46.77054" lon="-2.04658">
        <ele>3.2</ele>
        <time>2020-06-04T09:11:44Z</time>
      </trkpt>
      <trkpt lat="46.77057" lon="-2.04665">
        <ele>3.2</ele>
        <time>2020-06-04T09:11:45Z</time>
      </trkpt>
      <trkpt lat="46.77059" lon="-2.0467">
        <ele>3.2</ele>
        <time>2020-06-04T09:11:46Z</time>
      </trkpt>
      <trkpt lat="46.77062" lon="-2.04677">
        <ele>3.2</ele>
        <time>2020-06-04T09:11:47Z</time>
      </trkpt>
      <trkpt lat="46.77065" lon="-2.04685">
        <ele>3.2</ele>
        <time>2020-06-04T09:11:48Z</time>
      </trkpt>
      <trkpt lat="46.77068" lon="-2.04693">
        <ele>3.3</ele>
        <time>2020-06-04T09:11:49Z</time>
      </trkpt>
      <trkpt lat="46.77071" lon="-2.04701">
        <ele>3.3</ele>
        <time>2020-06-04T09:11:50Z</time>
      </trkpt>
      <trkpt lat="46.77073" lon="-2.04707">
        <ele>3.3</ele>
        <time>2020-06-04T09:11:51Z</time>
      </trkpt>
      <trkpt lat="46.77076" lon="-2.04715">
        <ele>3.3</ele>
        <time>2020-06-04T09:11:52Z</time>
      </trkpt>
      <trkpt lat="46.7708" lon="-2.04723">
        <ele>3.3</ele>
        <time>2020-06-04T09:11:53Z</time>
      </trkpt>
      <trkpt lat="46.77082" lon="-2.0473">
        <ele>3.3</ele>
        <time>2020-06-04T09:11:54Z</time>
      </trkpt>
      <trkpt lat="46.77084" lon="-2.04737">
        <ele>3.3</ele>
        <time>2020-06-04T09:11:55Z</time>
      </trkpt>
      <trkpt lat="46.77087" lon="-2.04744">
        <ele>3.3</ele>
        <time>2020-06-04T09:11:56Z</time>
      </trkpt>
      <trkpt lat="46.7709" lon="-2.04751">
        <ele>3.4</ele>
        <time>2020-06-04T09:11:57Z</time>
      </trkpt>
      <trkpt lat="46.77092" lon="-2.04756">
        <ele>3.4</ele>
        <time>2020-06-04T09:11:58Z</time>
      </trkpt>
      <trkpt lat="46.77095" lon="-2.04762">
        <ele>3.4</ele>
        <time>2020-06-04T09:11:59Z</time>
      </trkpt>
      <trkpt lat="46.77097" lon="-2.04769">
        <ele>3.4</ele>
        <time>2020-06-04T09:12:00Z</time>
      </trkpt>
      <trkpt lat="46.77099" lon="-2.04776">
        <ele>3.4</ele>
        <time>2020-06-04T09:12:01Z</time>
      </trkpt>
      <trkpt lat="46.77102" lon="-2.04783">
        <ele>3.4</ele>
        <time>2020-06-04T09:12:02Z</time>
      </trkpt>
      <trkpt lat="46.77104" lon="-2.04789">
        <ele>3.4</ele>
        <time>2020-06-04T09:12:03Z</time>
      </trkpt>
      <trkpt lat="46.77108" lon="-2.04798">
        <ele>3.5</ele>
        <time>2020-06-04T09:12:04Z</time>
      </trkpt>
      <trkpt lat="46.77111" lon="-2.04805">
        <ele>3.5</ele>
        <time>2020-06-04T09:12:05Z</time>
      </trkpt>
      <trkpt lat="46.77114" lon="-2.04811">
        <ele>3.5</ele>
        <time>2020-06-04T09:12:06Z</time>
      </trkpt>
      <trkpt lat="46.77116" lon="-2.04817">
        <ele>3.5</ele>
        <time>2020-06-04T09:12:07Z</time>
      </trkpt>
      <trkpt lat="46.77119" lon="-2.04824">
        <ele>3.6</ele>
        <time>2020-06-04T09:12:08Z</time>
      </trkpt>
      <trkpt lat="46.7712" lon="-2.04829">
        <ele>3.6</ele>
        <time>2020-06-04T09:12:09Z</time>
      </trkpt>
      <trkpt lat="46.77122" lon="-2.04835">
        <ele>3.6</ele>
        <time>2020-06-04T09:12:10Z</time>
      </trkpt>
      <trkpt lat="46.77125" lon="-2.0484">
        <ele>3.6</ele>
        <time>2020-06-04T09:12:11Z</time>
      </trkpt>
      <trkpt lat="46.77126" lon="-2.04845">
        <ele>3.6</ele>
        <time>2020-06-04T09:12:12Z</time>
      </trkpt>
      <trkpt lat="46.77129" lon="-2.04849">
        <ele>3.6</ele>
        <time>2020-06-04T09:12:13Z</time>
      </trkpt>
      <trkpt lat="46.77132" lon="-2.04853">
        <ele>3.6</ele>
        <time>2020-06-04T09:12:14Z</time>
      </trkpt>
      <trkpt lat="46.77136" lon="-2.04856">
        <ele>3.7</ele>
        <time>2020-06-04T09:12:15Z</time>
      </trkpt>
      <trkpt lat="46.77142" lon="-2.04857">
        <ele>3.6</ele>
        <time>2020-06-04T09:12:16Z</time>
      </trkpt>
      <trkpt lat="46.77149" lon="-2.04857">
        <ele>3.6</ele>
        <time>2020-06-04T09:12:17Z</time>
      </trkpt>
      <trkpt lat="46.77155" lon="-2.04856">
        <ele>3.6</ele>
        <time>2020-06-04T09:12:18Z</time>
      </trkpt>
      <trkpt lat="46.77161" lon="-2.04855">
        <ele>3.6</ele>
        <time>2020-06-04T09:12:19Z</time>
      </trkpt>
      <trkpt lat="46.77168" lon="-2.04857">
        <ele>3.6</ele>
        <time>2020-06-04T09:12:20Z</time>
      </trkpt>
      <trkpt lat="46.77174" lon="-2.04859">
        <ele>3.6</ele>
        <time>2020-06-04T09:12:21Z</time>
      </trkpt>
      <trkpt lat="46.77179" lon="-2.04865">
        <ele>3.6</ele>
        <time>2020-06-04T09:12:22Z</time>
      </trkpt>
      <trkpt lat="46.77183" lon="-2.04871">
        <ele>3.6</ele>
        <time>2020-06-04T09:12:23Z</time>
      </trkpt>
      <trkpt lat="46.77185" lon="-2.04878">
        <ele>3.7</ele>
        <time>2020-06-04T09:12:24Z</time>
      </trkpt>
      <trkpt lat="46.77186" lon="-2.04885">
        <ele>3.7</ele>
        <time>2020-06-04T09:12:25Z</time>
      </trkpt>
      <trkpt lat="46.77187" lon="-2.04892">
        <ele>3.8</ele>
        <time>2020-06-04T09:12:26Z</time>
      </trkpt>
      <trkpt lat="46.77187" lon="-2.04898">
        <ele>3.8</ele>
        <time>2020-06-04T09:12:27Z</time>
      </trkpt>
      <trkpt lat="46.77188" lon="-2.04904">
        <ele>3.9</ele>
        <time>2020-06-04T09:12:28Z</time>
      </trkpt>
      <trkpt lat="46.77189" lon="-2.04909">
        <ele>3.9</ele>
        <time>2020-06-04T09:12:29Z</time>
      </trkpt>
      <trkpt lat="46.77191" lon="-2.04913">
        <ele>3.9</ele>
        <time>2020-06-04T09:12:30Z</time>
      </trkpt>
      <trkpt lat="46.77194" lon="-2.04916">
        <ele>3.9</ele>
        <time>2020-06-04T09:12:31Z</time>
      </trkpt>
      <trkpt lat="46.77198" lon="-2.04919">
        <ele>3.9</ele>
        <time>2020-06-04T09:12:32Z</time>
      </trkpt>
      <trkpt lat="46.77202" lon="-2.04921">
        <ele>3.9</ele>
        <time>2020-06-04T09:12:33Z</time>
      </trkpt>
      <trkpt lat="46.77207" lon="-2.04924">
        <ele>3.9</ele>
        <time>2020-06-04T09:12:34Z</time>
      </trkpt>
      <trkpt lat="46.77212" lon="-2.04927">
        <ele>3.9</ele>
        <time>2020-06-04T09:12:35Z</time>
      </trkpt>
      <trkpt lat="46.77217" lon="-2.0493">
        <ele>3.9</ele>
        <time>2020-06-04T09:12:36Z</time>
      </trkpt>
      <trkpt lat="46.77222" lon="-2.04932">
        <ele>3.8</ele>
        <time>2020-06-04T09:12:37Z</time>
      </trkpt>
      <trkpt lat="46.77226" lon="-2.04934">
        <ele>3.8</ele>
        <time>2020-06-04T09:12:38Z</time>
      </trkpt>
      <trkpt lat="46.77232" lon="-2.04937">
        <ele>3.8</ele>
        <time>2020-06-04T09:12:39Z</time>
      </trkpt>
      <trkpt lat="46.77236" lon="-2.04941">
        <ele>3.7</ele>
        <time>2020-06-04T09:12:40Z</time>
      </trkpt>
      <trkpt lat="46.77241" lon="-2.04945">
        <ele>3.7</ele>
        <time>2020-06-04T09:12:41Z</time>
      </trkpt>
      <trkpt lat="46.77247" lon="-2.0495">
        <ele>3.6</ele>
        <time>2020-06-04T09:12:42Z</time>
      </trkpt>
      <trkpt lat="46.77251" lon="-2.04955">
        <ele>3.6</ele>
        <time>2020-06-04T09:12:43Z</time>
      </trkpt>
      <trkpt lat="46.77256" lon="-2.0496">
        <ele>3.6</ele>
        <time>2020-06-04T09:12:44Z</time>
      </trkpt>
      <trkpt lat="46.77261" lon="-2.04965">
        <ele>3.5</ele>
        <time>2020-06-04T09:12:45Z</time>
      </trkpt>
      <trkpt lat="46.77265" lon="-2.0497">
        <ele>3.5</ele>
        <time>2020-06-04T09:12:46Z</time>
      </trkpt>
      <trkpt lat="46.77269" lon="-2.04975">
        <ele>3.5</ele>
        <time>2020-06-04T09:12:47Z</time>
      </trkpt>
      <trkpt lat="46.77273" lon="-2.0498">
        <ele>3.5</ele>
        <time>2020-06-04T09:12:48Z</time>
      </trkpt>
      <trkpt lat="46.77277" lon="-2.04984">
        <ele>3.5</ele>
        <time>2020-06-04T09:12:49Z</time>
      </trkpt>
      <trkpt lat="46.7728" lon="-2.04988">
        <ele>3.5</ele>
        <time>2020-06-04T09:12:50Z</time>
      </trkpt>
      <trkpt lat="46.77283" lon="-2.04992">
        <ele>3.5</ele>
        <time>2020-06-04T09:12:51Z</time>
      </trkpt>
      <trkpt lat="46.77285" lon="-2.04996">
        <ele>3.5</ele>
        <time>2020-06-04T09:12:52Z</time>
      </trkpt>
      <trkpt lat="46.77288" lon="-2.05001">
        <ele>3.5</ele>
        <time>2020-06-04T09:12:53Z</time>
      </trkpt>
      <trkpt lat="46.77291" lon="-2.05006">
        <ele>3.5</ele>
        <time>2020-06-04T09:12:54Z</time>
      </trkpt>
      <trkpt lat="46.77294" lon="-2.05011">
        <ele>3.5</ele>
        <time>2020-06-04T09:12:55Z</time>
      </trkpt>
      <trkpt lat="46.77297" lon="-2.05016">
        <ele>3.5</ele>
        <time>2020-06-04T09:12:56Z</time>
      </trkpt>
      <trkpt lat="46.773" lon="-2.05021">
        <ele>3.5</ele>
        <time>2020-06-04T09:12:57Z</time>
      </trkpt>
      <trkpt lat="46.77303" lon="-2.05027">
        <ele>3.4</ele>
        <time>2020-06-04T09:12:58Z</time>
      </trkpt>
      <trkpt lat="46.77306" lon="-2.05031">
        <ele>3.4</ele>
        <time>2020-06-04T09:12:59Z</time>
      </trkpt>
      <trkpt lat="46.77309" lon="-2.05036">
        <ele>3.4</ele>
        <time>2020-06-04T09:13:00Z</time>
      </trkpt>
      <trkpt lat="46.77313" lon="-2.0504">
        <ele>3.4</ele>
        <time>2020-06-04T09:13:01Z</time>
      </trkpt>
      <trkpt lat="46.77316" lon="-2.05044">
        <ele>3.4</ele>
        <time>2020-06-04T09:13:02Z</time>
      </trkpt>
      <trkpt lat="46.77319" lon="-2.05048">
        <ele>3.4</ele>
        <time>2020-06-04T09:13:03Z</time>
      </trkpt>
      <trkpt lat="46.77322" lon="-2.05052">
        <ele>3.4</ele>
        <time>2020-06-04T09:13:04Z</time>
      </trkpt>
      <trkpt lat="46.77326" lon="-2.05056">
        <ele>3.4</ele>
        <time>2020-06-04T09:13:05Z</time>
      </trkpt>
      <trkpt lat="46.77328" lon="-2.0506">
        <ele>3.4</ele>
        <time>2020-06-04T09:13:06Z</time>
      </trkpt>
      <trkpt lat="46.77331" lon="-2.05064">
        <ele>3.4</ele>
        <time>2020-06-04T09:13:07Z</time>
      </trkpt>
      <trkpt lat="46.77335" lon="-2.05068">
        <ele>3.4</ele>
        <time>2020-06-04T09:13:08Z</time>
      </trkpt>
      <trkpt lat="46.77339" lon="-2.05072">
        <ele>3.4</ele>
        <time>2020-06-04T09:13:09Z</time>
      </trkpt>
      <trkpt lat="46.77342" lon="-2.05076">
        <ele>3.4</ele>
        <time>2020-06-04T09:13:10Z</time>
      </trkpt>
      <trkpt lat="46.77346" lon="-2.05081">
        <ele>3.4</ele>
        <time>2020-06-04T09:13:11Z</time>
      </trkpt>
      <trkpt lat="46.7735" lon="-2.05084">
        <ele>3.4</ele>
        <time>2020-06-04T09:13:12Z</time>
      </trkpt>
      <trkpt lat="46.77353" lon="-2.0509">
        <ele>3.4</ele>
        <time>2020-06-04T09:13:13Z</time>
      </trkpt>
      <trkpt lat="46.77357" lon="-2.05094">
        <ele>3.4</ele>
        <time>2020-06-04T09:13:14Z</time>
      </trkpt>
      <trkpt lat="46.7736" lon="-2.05099">
        <ele>3.5</ele>
        <time>2020-06-04T09:13:15Z</time>
      </trkpt>
      <trkpt lat="46.77364" lon="-2.05104">
        <ele>3.5</ele>
        <time>2020-06-04T09:13:16Z</time>
      </trkpt>
      <trkpt lat="46.77367" lon="-2.0511">
        <ele>3.5</ele>
        <time>2020-06-04T09:13:17Z</time>
      </trkpt>
      <trkpt lat="46.7737" lon="-2.05114">
        <ele>3.5</ele>
        <time>2020-06-04T09:13:18Z</time>
      </trkpt>
      <trkpt lat="46.77373" lon="-2.05119">
        <ele>3.5</ele>
        <time>2020-06-04T09:13:19Z</time>
      </trkpt>
      <trkpt lat="46.77376" lon="-2.05122">
        <ele>3.5</ele>
        <time>2020-06-04T09:13:20Z</time>
      </trkpt>
      <trkpt lat="46.77379" lon="-2.05126">
        <ele>3.5</ele>
        <time>2020-06-04T09:13:21Z</time>
      </trkpt>
      <trkpt lat="46.77382" lon="-2.0513">
        <ele>3.5</ele>
        <time>2020-06-04T09:13:22Z</time>
      </trkpt>
      <trkpt lat="46.77384" lon="-2.05134">
        <ele>3.5</ele>
        <time>2020-06-04T09:13:23Z</time>
      </trkpt>
      <trkpt lat="46.77386" lon="-2.05137">
        <ele>3.5</ele>
        <time>2020-06-04T09:13:24Z</time>
      </trkpt>
      <trkpt lat="46.77389" lon="-2.05141">
        <ele>3.4</ele>
        <time>2020-06-04T09:13:25Z</time>
      </trkpt>
      <trkpt lat="46.77391" lon="-2.05145">
        <ele>3.4</ele>
        <time>2020-06-04T09:13:26Z</time>
      </trkpt>
      <trkpt lat="46.77394" lon="-2.05148">
        <ele>3.4</ele>
        <time>2020-06-04T09:13:27Z</time>
      </trkpt>
      <trkpt lat="46.77397" lon="-2.05152">
        <ele>3.4</ele>
        <time>2020-06-04T09:13:28Z</time>
      </trkpt>
      <trkpt lat="46.774" lon="-2.05157">
        <ele>3.4</ele>
        <time>2020-06-04T09:13:29Z</time>
      </trkpt>
      <trkpt lat="46.77404" lon="-2.05161">
        <ele>3.4</ele>
        <time>2020-06-04T09:13:30Z</time>
      </trkpt>
      <trkpt lat="46.77408" lon="-2.05165">
        <ele>3.4</ele>
        <time>2020-06-04T09:13:31Z</time>
      </trkpt>
      <trkpt lat="46.7741" lon="-2.0517">
        <ele>3.4</ele>
        <time>2020-06-04T09:13:32Z</time>
      </trkpt>
      <trkpt lat="46.77413" lon="-2.05174">
        <ele>3.4</ele>
        <time>2020-06-04T09:13:33Z</time>
      </trkpt>
      <trkpt lat="46.77416" lon="-2.05178">
        <ele>3.4</ele>
        <time>2020-06-04T09:13:34Z</time>
      </trkpt>
      <trkpt lat="46.77419" lon="-2.05181">
        <ele>3.4</ele>
        <time>2020-06-04T09:13:35Z</time>
      </trkpt>
      <trkpt lat="46.77423" lon="-2.05187">
        <ele>3.4</ele>
        <time>2020-06-04T09:13:36Z</time>
      </trkpt>
      <trkpt lat="46.77427" lon="-2.05191">
        <ele>3.4</ele>
        <time>2020-06-04T09:13:37Z</time>
      </trkpt>
      <trkpt lat="46.7743" lon="-2.05196">
        <ele>3.4</ele>
        <time>2020-06-04T09:13:38Z</time>
      </trkpt>
      <trkpt lat="46.77434" lon="-2.05201">
        <ele>3.4</ele>
        <time>2020-06-04T09:13:39Z</time>
      </trkpt>
      <trkpt lat="46.77438" lon="-2.05206">
        <ele>3.3</ele>
        <time>2020-06-04T09:13:40Z</time>
      </trkpt>
      <trkpt lat="46.77442" lon="-2.05212">
        <ele>3.3</ele>
        <time>2020-06-04T09:13:41Z</time>
      </trkpt>
      <trkpt lat="46.77445" lon="-2.05217">
        <ele>3.3</ele>
        <time>2020-06-04T09:13:42Z</time>
      </trkpt>
      <trkpt lat="46.77447" lon="-2.05221">
        <ele>3.3</ele>
        <time>2020-06-04T09:13:43Z</time>
      </trkpt>
      <trkpt lat="46.7745" lon="-2.05227">
        <ele>3.3</ele>
        <time>2020-06-04T09:13:44Z</time>
      </trkpt>
      <trkpt lat="46.77453" lon="-2.0523">
        <ele>3.3</ele>
        <time>2020-06-04T09:13:45Z</time>
      </trkpt>
      <trkpt lat="46.77455" lon="-2.05234">
        <ele>3.3</ele>
        <time>2020-06-04T09:13:46Z</time>
      </trkpt>
      <trkpt lat="46.77458" lon="-2.05238">
        <ele>3.3</ele>
        <time>2020-06-04T09:13:47Z</time>
      </trkpt>
      <trkpt lat="46.77461" lon="-2.05241">
        <ele>3.3</ele>
        <time>2020-06-04T09:13:48Z</time>
      </trkpt>
      <trkpt lat="46.77463" lon="-2.05245">
        <ele>3.3</ele>
        <time>2020-06-04T09:13:49Z</time>
      </trkpt>
      <trkpt lat="46.77465" lon="-2.05249">
        <ele>3.3</ele>
        <time>2020-06-04T09:13:50Z</time>
      </trkpt>
      <trkpt lat="46.77468" lon="-2.05254">
        <ele>3.3</ele>
        <time>2020-06-04T09:13:51Z</time>
      </trkpt>
      <trkpt lat="46.77471" lon="-2.05259">
        <ele>3.3</ele>
        <time>2020-06-04T09:13:52Z</time>
      </trkpt>
      <trkpt lat="46.77474" lon="-2.05263">
        <ele>3.3</ele>
        <time>2020-06-04T09:13:53Z</time>
      </trkpt>
      <trkpt lat="46.77477" lon="-2.05268">
        <ele>3.3</ele>
        <time>2020-06-04T09:13:54Z</time>
      </trkpt>
      <trkpt lat="46.7748" lon="-2.05273">
        <ele>3.3</ele>
        <time>2020-06-04T09:13:55Z</time>
      </trkpt>
      <trkpt lat="46.77484" lon="-2.05278">
        <ele>3.4</ele>
        <time>2020-06-04T09:13:56Z</time>
      </trkpt>
      <trkpt lat="46.77487" lon="-2.05283">
        <ele>3.4</ele>
        <time>2020-06-04T09:13:57Z</time>
      </trkpt>
      <trkpt lat="46.77491" lon="-2.05287">
        <ele>3.4</ele>
        <time>2020-06-04T09:13:58Z</time>
      </trkpt>
      <trkpt lat="46.77495" lon="-2.05292">
        <ele>3.4</ele>
        <time>2020-06-04T09:13:59Z</time>
      </trkpt>
      <trkpt lat="46.77499" lon="-2.05296">
        <ele>3.4</ele>
        <time>2020-06-04T09:14:00Z</time>
      </trkpt>
      <trkpt lat="46.77503" lon="-2.05301">
        <ele>3.5</ele>
        <time>2020-06-04T09:14:01Z</time>
      </trkpt>
      <trkpt lat="46.77506" lon="-2.05305">
        <ele>3.5</ele>
        <time>2020-06-04T09:14:02Z</time>
      </trkpt>
      <trkpt lat="46.7751" lon="-2.0531">
        <ele>3.5</ele>
        <time>2020-06-04T09:14:03Z</time>
      </trkpt>
      <trkpt lat="46.77513" lon="-2.05314">
        <ele>3.5</ele>
        <time>2020-06-04T09:14:04Z</time>
      </trkpt>
      <trkpt lat="46.77517" lon="-2.05318">
        <ele>3.6</ele>
        <time>2020-06-04T09:14:05Z</time>
      </trkpt>
      <trkpt lat="46.77521" lon="-2.05322">
        <ele>3.6</ele>
        <time>2020-06-04T09:14:06Z</time>
      </trkpt>
      <trkpt lat="46.77525" lon="-2.05325">
        <ele>3.6</ele>
        <time>2020-06-04T09:14:07Z</time>
      </trkpt>
      <trkpt lat="46.77527" lon="-2.05329">
        <ele>3.6</ele>
        <time>2020-06-04T09:14:08Z</time>
      </trkpt>
      <trkpt lat="46.77532" lon="-2.05333">
        <ele>3.7</ele>
        <time>2020-06-04T09:14:09Z</time>
      </trkpt>
      <trkpt lat="46.77535" lon="-2.05336">
        <ele>3.7</ele>
        <time>2020-06-04T09:14:10Z</time>
      </trkpt>
      <trkpt lat="46.77539" lon="-2.05341">
        <ele>3.7</ele>
        <time>2020-06-04T09:14:11Z</time>
      </trkpt>
      <trkpt lat="46.77542" lon="-2.05345">
        <ele>3.7</ele>
        <time>2020-06-04T09:14:12Z</time>
      </trkpt>
      <trkpt lat="46.77546" lon="-2.05349">
        <ele>3.7</ele>
        <time>2020-06-04T09:14:13Z</time>
      </trkpt>
      <trkpt lat="46.77549" lon="-2.05354">
        <ele>3.8</ele>
        <time>2020-06-04T09:14:14Z</time>
      </trkpt>
      <trkpt lat="46.77553" lon="-2.05358">
        <ele>3.8</ele>
        <time>2020-06-04T09:14:15Z</time>
      </trkpt>
      <trkpt lat="46.77556" lon="-2.05362">
        <ele>3.8</ele>
        <time>2020-06-04T09:14:16Z</time>
      </trkpt>
      <trkpt lat="46.7756" lon="-2.05367">
        <ele>3.9</ele>
        <time>2020-06-04T09:14:17Z</time>
      </trkpt>
      <trkpt lat="46.77564" lon="-2.05372">
        <ele>3.9</ele>
        <time>2020-06-04T09:14:18Z</time>
      </trkpt>
      <trkpt lat="46.77567" lon="-2.05377">
        <ele>3.9</ele>
        <time>2020-06-04T09:14:19Z</time>
      </trkpt>
      <trkpt lat="46.77571" lon="-2.05381">
        <ele>4</ele>
        <time>2020-06-04T09:14:20Z</time>
      </trkpt>
      <trkpt lat="46.77574" lon="-2.05386">
        <ele>4</ele>
        <time>2020-06-04T09:14:21Z</time>
      </trkpt>
      <trkpt lat="46.77577" lon="-2.05389">
        <ele>4</ele>
        <time>2020-06-04T09:14:22Z</time>
      </trkpt>
      <trkpt lat="46.7758" lon="-2.05393">
        <ele>4.1</ele>
        <time>2020-06-04T09:14:23Z</time>
      </trkpt>
      <trkpt lat="46.77582" lon="-2.05398">
        <ele>4.1</ele>
        <time>2020-06-04T09:14:24Z</time>
      </trkpt>
      <trkpt lat="46.77583" lon="-2.05399">
        <ele>4.1</ele>
        <time>2020-06-04T09:14:25Z</time>
      </trkpt>
      <trkpt lat="46.77585" lon="-2.05402">
        <ele>4.1</ele>
        <time>2020-06-04T09:14:26Z</time>
      </trkpt>
      <trkpt lat="46.77587" lon="-2.05405">
        <ele>4.1</ele>
        <time>2020-06-04T09:14:27Z</time>
      </trkpt>
      <trkpt lat="46.77589" lon="-2.05407">
        <ele>4.1</ele>
        <time>2020-06-04T09:14:28Z</time>
      </trkpt>
      <trkpt lat="46.77592" lon="-2.0541">
        <ele>4.1</ele>
        <time>2020-06-04T09:14:29Z</time>
      </trkpt>
      <trkpt lat="46.77595" lon="-2.05413">
        <ele>4.1</ele>
        <time>2020-06-04T09:14:30Z</time>
      </trkpt>
      <trkpt lat="46.77596" lon="-2.05414">
        <ele>4.1</ele>
        <time>2020-06-04T09:14:31Z</time>
      </trkpt>
      <trkpt lat="46.77598" lon="-2.0542">
        <ele>4.1</ele>
        <time>2020-06-04T09:14:32Z</time>
      </trkpt>
      <trkpt lat="46.77599" lon="-2.05422">
        <ele>4.2</ele>
        <time>2020-06-04T09:14:33Z</time>
      </trkpt>
      <trkpt lat="46.77601" lon="-2.05426">
        <ele>4.2</ele>
        <time>2020-06-04T09:14:34Z</time>
      </trkpt>
      <trkpt lat="46.77603" lon="-2.05429">
        <ele>4.2</ele>
        <time>2020-06-04T09:14:35Z</time>
      </trkpt>
      <trkpt lat="46.77606" lon="-2.05433">
        <ele>4.2</ele>
        <time>2020-06-04T09:14:36Z</time>
      </trkpt>
      <trkpt lat="46.77608" lon="-2.05439">
        <ele>4.2</ele>
        <time>2020-06-04T09:14:37Z</time>
      </trkpt>
      <trkpt lat="46.77611" lon="-2.05444">
        <ele>4.2</ele>
        <time>2020-06-04T09:14:38Z</time>
      </trkpt>
      <trkpt lat="46.77612" lon="-2.05448">
        <ele>4.3</ele>
        <time>2020-06-04T09:14:39Z</time>
      </trkpt>
      <trkpt lat="46.77614" lon="-2.05452">
        <ele>4.3</ele>
        <time>2020-06-04T09:14:40Z</time>
      </trkpt>
      <trkpt lat="46.77617" lon="-2.05457">
        <ele>4.3</ele>
        <time>2020-06-04T09:14:41Z</time>
      </trkpt>
      <trkpt lat="46.7762" lon="-2.05461">
        <ele>4.4</ele>
        <time>2020-06-04T09:14:42Z</time>
      </trkpt>
      <trkpt lat="46.77622" lon="-2.05467">
        <ele>4.4</ele>
        <time>2020-06-04T09:14:43Z</time>
      </trkpt>
      <trkpt lat="46.77624" lon="-2.05471">
        <ele>4.5</ele>
        <time>2020-06-04T09:14:44Z</time>
      </trkpt>
      <trkpt lat="46.77627" lon="-2.05476">
        <ele>4.5</ele>
        <time>2020-06-04T09:14:45Z</time>
      </trkpt>
      <trkpt lat="46.7763" lon="-2.0548">
        <ele>4.6</ele>
        <time>2020-06-04T09:14:46Z</time>
      </trkpt>
      <trkpt lat="46.77632" lon="-2.05484">
        <ele>4.6</ele>
        <time>2020-06-04T09:14:47Z</time>
      </trkpt>
      <trkpt lat="46.77634" lon="-2.05488">
        <ele>4.7</ele>
        <time>2020-06-04T09:14:48Z</time>
      </trkpt>
      <trkpt lat="46.77637" lon="-2.05492">
        <ele>4.7</ele>
        <time>2020-06-04T09:14:49Z</time>
      </trkpt>
      <trkpt lat="46.77641" lon="-2.05497">
        <ele>4.8</ele>
        <time>2020-06-04T09:14:50Z</time>
      </trkpt>
      <trkpt lat="46.77643" lon="-2.05502">
        <ele>4.8</ele>
        <time>2020-06-04T09:14:51Z</time>
      </trkpt>
      <trkpt lat="46.77646" lon="-2.05507">
        <ele>4.8</ele>
        <time>2020-06-04T09:14:52Z</time>
      </trkpt>
      <trkpt lat="46.77649" lon="-2.0551">
        <ele>4.9</ele>
        <time>2020-06-04T09:14:53Z</time>
      </trkpt>
      <trkpt lat="46.77651" lon="-2.05515">
        <ele>4.9</ele>
        <time>2020-06-04T09:14:54Z</time>
      </trkpt>
      <trkpt lat="46.77655" lon="-2.05518">
        <ele>4.9</ele>
        <time>2020-06-04T09:14:55Z</time>
      </trkpt>
      <trkpt lat="46.77658" lon="-2.05521">
        <ele>4.9</ele>
        <time>2020-06-04T09:14:56Z</time>
      </trkpt>
      <trkpt lat="46.77661" lon="-2.05526">
        <ele>4.9</ele>
        <time>2020-06-04T09:14:57Z</time>
      </trkpt>
      <trkpt lat="46.77664" lon="-2.0553">
        <ele>4.9</ele>
        <time>2020-06-04T09:14:58Z</time>
      </trkpt>
      <trkpt lat="46.77668" lon="-2.05534">
        <ele>4.9</ele>
        <time>2020-06-04T09:14:59Z</time>
      </trkpt>
      <trkpt lat="46.77671" lon="-2.05539">
        <ele>4.9</ele>
        <time>2020-06-04T09:15:00Z</time>
      </trkpt>
      <trkpt lat="46.77675" lon="-2.05543">
        <ele>4.9</ele>
        <time>2020-06-04T09:15:01Z</time>
      </trkpt>
      <trkpt lat="46.77678" lon="-2.05546">
        <ele>4.9</ele>
        <time>2020-06-04T09:15:02Z</time>
      </trkpt>
      <trkpt lat="46.77682" lon="-2.05551">
        <ele>4.9</ele>
        <time>2020-06-04T09:15:03Z</time>
      </trkpt>
      <trkpt lat="46.77685" lon="-2.05554">
        <ele>4.9</ele>
        <time>2020-06-04T09:15:04Z</time>
      </trkpt>
      <trkpt lat="46.77687" lon="-2.05557">
        <ele>4.9</ele>
        <time>2020-06-04T09:15:05Z</time>
      </trkpt>
      <trkpt lat="46.7769" lon="-2.0556">
        <ele>4.9</ele>
        <time>2020-06-04T09:15:06Z</time>
      </trkpt>
      <trkpt lat="46.77694" lon="-2.05562">
        <ele>4.9</ele>
        <time>2020-06-04T09:15:07Z</time>
      </trkpt>
      <trkpt lat="46.77698" lon="-2.05564">
        <ele>4.9</ele>
        <time>2020-06-04T09:15:08Z</time>
      </trkpt>
      <trkpt lat="46.777" lon="-2.05564">
        <ele>4.9</ele>
        <time>2020-06-04T09:15:09Z</time>
      </trkpt>
      <trkpt lat="46.77703" lon="-2.05566">
        <ele>4.9</ele>
        <time>2020-06-04T09:15:10Z</time>
      </trkpt>
      <trkpt lat="46.77706" lon="-2.05569">
        <ele>4.9</ele>
        <time>2020-06-04T09:15:11Z</time>
      </trkpt>
      <trkpt lat="46.77707" lon="-2.05574">
        <ele>4.9</ele>
        <time>2020-06-04T09:15:12Z</time>
      </trkpt>
      <trkpt lat="46.77706" lon="-2.0558">
        <ele>4.8</ele>
        <time>2020-06-04T09:15:13Z</time>
      </trkpt>
      <trkpt lat="46.77704" lon="-2.05585">
        <ele>4.8</ele>
        <time>2020-06-04T09:15:14Z</time>
      </trkpt>
      <trkpt lat="46.77702" lon="-2.05589">
        <ele>4.8</ele>
        <time>2020-06-04T09:15:15Z</time>
      </trkpt>
      <trkpt lat="46.77699" lon="-2.05594">
        <ele>4.8</ele>
        <time>2020-06-04T09:15:16Z</time>
      </trkpt>
      <trkpt lat="46.77697" lon="-2.05597">
        <ele>4.7</ele>
        <time>2020-06-04T09:15:17Z</time>
      </trkpt>
      <trkpt lat="46.77693" lon="-2.05601">
        <ele>4.7</ele>
        <time>2020-06-04T09:15:18Z</time>
      </trkpt>
      <trkpt lat="46.77691" lon="-2.05605">
        <ele>4.7</ele>
        <time>2020-06-04T09:15:19Z</time>
      </trkpt>
      <trkpt lat="46.77689" lon="-2.05609">
        <ele>4.7</ele>
        <time>2020-06-04T09:15:20Z</time>
      </trkpt>
      <trkpt lat="46.77686" lon="-2.05611">
        <ele>4.7</ele>
        <time>2020-06-04T09:15:21Z</time>
      </trkpt>
      <trkpt lat="46.77684" lon="-2.05614">
        <ele>4.7</ele>
        <time>2020-06-04T09:15:22Z</time>
      </trkpt>
      <trkpt lat="46.77682" lon="-2.05617">
        <ele>4.7</ele>
        <time>2020-06-04T09:15:23Z</time>
      </trkpt>
      <trkpt lat="46.77681" lon="-2.05622">
        <ele>4.7</ele>
        <time>2020-06-04T09:15:24Z</time>
      </trkpt>
      <trkpt lat="46.77678" lon="-2.05628">
        <ele>4.7</ele>
        <time>2020-06-04T09:15:25Z</time>
      </trkpt>
      <trkpt lat="46.77677" lon="-2.05635">
        <ele>4.6</ele>
        <time>2020-06-04T09:15:26Z</time>
      </trkpt>
      <trkpt lat="46.77675" lon="-2.0564">
        <ele>4.6</ele>
        <time>2020-06-04T09:15:27Z</time>
      </trkpt>
      <trkpt lat="46.77673" lon="-2.05645">
        <ele>4.6</ele>
        <time>2020-06-04T09:15:28Z</time>
      </trkpt>
      <trkpt lat="46.77671" lon="-2.05651">
        <ele>4.6</ele>
        <time>2020-06-04T09:15:29Z</time>
      </trkpt>
      <trkpt lat="46.77669" lon="-2.05657">
        <ele>4.6</ele>
        <time>2020-06-04T09:15:30Z</time>
      </trkpt>
      <trkpt lat="46.77667" lon="-2.05663">
        <ele>4.6</ele>
        <time>2020-06-04T09:15:31Z</time>
      </trkpt>
      <trkpt lat="46.77665" lon="-2.05669">
        <ele>4.6</ele>
        <time>2020-06-04T09:15:32Z</time>
      </trkpt>
      <trkpt lat="46.77663" lon="-2.05675">
        <ele>4.6</ele>
        <time>2020-06-04T09:15:33Z</time>
      </trkpt>
      <trkpt lat="46.77661" lon="-2.0568">
        <ele>4.6</ele>
        <time>2020-06-04T09:15:34Z</time>
      </trkpt>
      <trkpt lat="46.77658" lon="-2.05685">
        <ele>4.6</ele>
        <time>2020-06-04T09:15:35Z</time>
      </trkpt>
      <trkpt lat="46.77657" lon="-2.0569">
        <ele>4.6</ele>
        <time>2020-06-04T09:15:36Z</time>
      </trkpt>
      <trkpt lat="46.77656" lon="-2.05696">
        <ele>4.6</ele>
        <time>2020-06-04T09:15:37Z</time>
      </trkpt>
      <trkpt lat="46.77655" lon="-2.05702">
        <ele>4.6</ele>
        <time>2020-06-04T09:15:38Z</time>
      </trkpt>
      <trkpt lat="46.77653" lon="-2.05708">
        <ele>4.6</ele>
        <time>2020-06-04T09:15:39Z</time>
      </trkpt>
      <trkpt lat="46.77652" lon="-2.05715">
        <ele>4.5</ele>
        <time>2020-06-04T09:15:40Z</time>
      </trkpt>
      <trkpt lat="46.77649" lon="-2.0572">
        <ele>4.5</ele>
        <time>2020-06-04T09:15:41Z</time>
      </trkpt>
      <trkpt lat="46.77648" lon="-2.05726">
        <ele>4.5</ele>
        <time>2020-06-04T09:15:42Z</time>
      </trkpt>
      <trkpt lat="46.77645" lon="-2.05733">
        <ele>4.6</ele>
        <time>2020-06-04T09:15:43Z</time>
      </trkpt>
      <trkpt lat="46.77642" lon="-2.05737">
        <ele>4.7</ele>
        <time>2020-06-04T09:15:44Z</time>
      </trkpt>
      <trkpt lat="46.77641" lon="-2.05744">
        <ele>4.8</ele>
        <time>2020-06-04T09:15:45Z</time>
      </trkpt>
      <trkpt lat="46.77638" lon="-2.0575">
        <ele>4.9</ele>
        <time>2020-06-04T09:15:46Z</time>
      </trkpt>
      <trkpt lat="46.77636" lon="-2.05756">
        <ele>5</ele>
        <time>2020-06-04T09:15:47Z</time>
      </trkpt>
      <trkpt lat="46.77633" lon="-2.05762">
        <ele>5.1</ele>
        <time>2020-06-04T09:15:48Z</time>
      </trkpt>
      <trkpt lat="46.7763" lon="-2.05768">
        <ele>5.3</ele>
        <time>2020-06-04T09:15:49Z</time>
      </trkpt>
      <trkpt lat="46.77627" lon="-2.05774">
        <ele>5.5</ele>
        <time>2020-06-04T09:15:50Z</time>
      </trkpt>
      <trkpt lat="46.77625" lon="-2.05781">
        <ele>5.7</ele>
        <time>2020-06-04T09:15:51Z</time>
      </trkpt>
      <trkpt lat="46.77621" lon="-2.05787">
        <ele>5.9</ele>
        <time>2020-06-04T09:15:52Z</time>
      </trkpt>
      <trkpt lat="46.77619" lon="-2.05792">
        <ele>6.1</ele>
        <time>2020-06-04T09:15:53Z</time>
      </trkpt>
      <trkpt lat="46.77617" lon="-2.05798">
        <ele>6.3</ele>
        <time>2020-06-04T09:15:54Z</time>
      </trkpt>
      <trkpt lat="46.77615" lon="-2.05806">
        <ele>6.6</ele>
        <time>2020-06-04T09:15:55Z</time>
      </trkpt>
      <trkpt lat="46.77613" lon="-2.05813">
        <ele>6.8</ele>
        <time>2020-06-04T09:15:56Z</time>
      </trkpt>
      <trkpt lat="46.77611" lon="-2.05818">
        <ele>7</ele>
        <time>2020-06-04T09:15:57Z</time>
      </trkpt>
      <trkpt lat="46.77609" lon="-2.05825">
        <ele>7.2</ele>
        <time>2020-06-04T09:15:58Z</time>
      </trkpt>
      <trkpt lat="46.77607" lon="-2.05831">
        <ele>7.3</ele>
        <time>2020-06-04T09:15:59Z</time>
      </trkpt>
      <trkpt lat="46.77606" lon="-2.05836">
        <ele>7.4</ele>
        <time>2020-06-04T09:16:00Z</time>
      </trkpt>
      <trkpt lat="46.77604" lon="-2.05842">
        <ele>7.5</ele>
        <time>2020-06-04T09:16:01Z</time>
      </trkpt>
      <trkpt lat="46.77601" lon="-2.05848">
        <ele>7.6</ele>
        <time>2020-06-04T09:16:02Z</time>
      </trkpt>
      <trkpt lat="46.776" lon="-2.05853">
        <ele>7.7</ele>
        <time>2020-06-04T09:16:03Z</time>
      </trkpt>
      <trkpt lat="46.77598" lon="-2.05858">
        <ele>7.8</ele>
        <time>2020-06-04T09:16:04Z</time>
      </trkpt>
      <trkpt lat="46.77597" lon="-2.05862">
        <ele>7.9</ele>
        <time>2020-06-04T09:16:05Z</time>
      </trkpt>
      <trkpt lat="46.77594" lon="-2.05866">
        <ele>7.9</ele>
        <time>2020-06-04T09:16:06Z</time>
      </trkpt>
      <trkpt lat="46.77593" lon="-2.05871">
        <ele>8</ele>
        <time>2020-06-04T09:16:07Z</time>
      </trkpt>
      <trkpt lat="46.77592" lon="-2.05875">
        <ele>8</ele>
        <time>2020-06-04T09:16:08Z</time>
      </trkpt>
      <trkpt lat="46.77593" lon="-2.0588">
        <ele>8</ele>
        <time>2020-06-04T09:16:09Z</time>
      </trkpt>
      <trkpt lat="46.77593" lon="-2.05882">
        <ele>8</ele>
        <time>2020-06-04T09:16:10Z</time>
      </trkpt>
      <trkpt lat="46.77594" lon="-2.05886">
        <ele>7.9</ele>
        <time>2020-06-04T09:16:11Z</time>
      </trkpt>
      <trkpt lat="46.77595" lon="-2.05891">
        <ele>7.9</ele>
        <time>2020-06-04T09:16:12Z</time>
      </trkpt>
      <trkpt lat="46.77598" lon="-2.05897">
        <ele>7.9</ele>
        <time>2020-06-04T09:16:13Z</time>
      </trkpt>
      <trkpt lat="46.77602" lon="-2.05902">
        <ele>7.9</ele>
        <time>2020-06-04T09:16:14Z</time>
      </trkpt>
      <trkpt lat="46.77606" lon="-2.05907">
        <ele>7.9</ele>
        <time>2020-06-04T09:16:15Z</time>
      </trkpt>
      <trkpt lat="46.77609" lon="-2.05912">
        <ele>7.9</ele>
        <time>2020-06-04T09:16:16Z</time>
      </trkpt>
      <trkpt lat="46.77613" lon="-2.05918">
        <ele>7.9</ele>
        <time>2020-06-04T09:16:17Z</time>
      </trkpt>
      <trkpt lat="46.77616" lon="-2.05923">
        <ele>7.9</ele>
        <time>2020-06-04T09:16:18Z</time>
      </trkpt>
      <trkpt lat="46.77619" lon="-2.05928">
        <ele>7.9</ele>
        <time>2020-06-04T09:16:19Z</time>
      </trkpt>
      <trkpt lat="46.77623" lon="-2.05933">
        <ele>7.9</ele>
        <time>2020-06-04T09:16:20Z</time>
      </trkpt>
      <trkpt lat="46.77627" lon="-2.05938">
        <ele>7.9</ele>
        <time>2020-06-04T09:16:21Z</time>
      </trkpt>
      <trkpt lat="46.7763" lon="-2.05942">
        <ele>7.9</ele>
        <time>2020-06-04T09:16:22Z</time>
      </trkpt>
      <trkpt lat="46.77634" lon="-2.05946">
        <ele>7.9</ele>
        <time>2020-06-04T09:16:23Z</time>
      </trkpt>
      <trkpt lat="46.77638" lon="-2.05951">
        <ele>7.9</ele>
        <time>2020-06-04T09:16:24Z</time>
      </trkpt>
      <trkpt lat="46.77642" lon="-2.05957">
        <ele>7.9</ele>
        <time>2020-06-04T09:16:25Z</time>
      </trkpt>
      <trkpt lat="46.77645" lon="-2.05961">
        <ele>7.9</ele>
        <time>2020-06-04T09:16:26Z</time>
      </trkpt>
      <trkpt lat="46.77647" lon="-2.05965">
        <ele>7.9</ele>
        <time>2020-06-04T09:16:27Z</time>
      </trkpt>
      <trkpt lat="46.77648" lon="-2.05969">
        <ele>7.9</ele>
        <time>2020-06-04T09:16:28Z</time>
      </trkpt>
      <trkpt lat="46.77647" lon="-2.05973">
        <ele>7.9</ele>
        <time>2020-06-04T09:16:29Z</time>
      </trkpt>
      <trkpt lat="46.77647" lon="-2.05976">
        <ele>7.9</ele>
        <time>2020-06-04T09:16:30Z</time>
      </trkpt>
      <trkpt lat="46.77645" lon="-2.0598">
        <ele>7.7</ele>
        <time>2020-06-04T09:16:31Z</time>
      </trkpt>
      <trkpt lat="46.77643" lon="-2.05984">
        <ele>7.7</ele>
        <time>2020-06-04T09:16:32Z</time>
      </trkpt>
      <trkpt lat="46.7764" lon="-2.05986">
        <ele>7.7</ele>
        <time>2020-06-04T09:16:33Z</time>
      </trkpt>
      <trkpt lat="46.77637" lon="-2.05988">
        <ele>7.6</ele>
        <time>2020-06-04T09:16:34Z</time>
      </trkpt>
      <trkpt lat="46.77634" lon="-2.0599">
        <ele>7.6</ele>
        <time>2020-06-04T09:16:35Z</time>
      </trkpt>
      <trkpt lat="46.77633" lon="-2.05991">
        <ele>7.6</ele>
        <time>2020-06-04T09:16:36Z</time>
      </trkpt>
      <trkpt lat="46.7763" lon="-2.05993">
        <ele>7.6</ele>
        <time>2020-06-04T09:16:37Z</time>
      </trkpt>
      <trkpt lat="46.77629" lon="-2.05995">
        <ele>7.6</ele>
        <time>2020-06-04T09:16:38Z</time>
      </trkpt>
      <trkpt lat="46.77628" lon="-2.05996">
        <ele>7.6</ele>
        <time>2020-06-04T09:16:39Z</time>
      </trkpt>
      <trkpt lat="46.77627" lon="-2.05996">
        <ele>7.6</ele>
        <time>2020-06-04T09:16:40Z</time>
      </trkpt>
      <trkpt lat="46.77628" lon="-2.05997">
        <ele>7.6</ele>
        <time>2020-06-04T09:16:41Z</time>
      </trkpt>
      <trkpt lat="46.77628" lon="-2.05997">
        <ele>7.6</ele>
        <time>2020-06-04T09:16:42Z</time>
      </trkpt>
      <trkpt lat="46.77628" lon="-2.05996">
        <ele>7.6</ele>
        <time>2020-06-04T09:16:43Z</time>
      </trkpt>
      <trkpt lat="46.77628" lon="-2.05997">
        <ele>7.6</ele>
        <time>2020-06-04T09:16:44Z</time>
      </trkpt>
      <trkpt lat="46.77627" lon="-2.05998">
        <ele>7.6</ele>
        <time>2020-06-04T09:16:45Z</time>
      </trkpt>
      <trkpt lat="46.77628" lon="-2.05998">
        <ele>7.6</ele>
        <time>2020-06-04T09:16:46Z</time>
      </trkpt>
      <trkpt lat="46.77629" lon="-2.05998">
        <ele>7.6</ele>
        <time>2020-06-04T09:16:47Z</time>
      </trkpt>
      <trkpt lat="46.7763" lon="-2.05999">
        <ele>7.6</ele>
        <time>2020-06-04T09:16:48Z</time>
      </trkpt>
      <trkpt lat="46.7763" lon="-2.06">
        <ele>7.6</ele>
        <time>2020-06-04T09:16:49Z</time>
      </trkpt>
      <trkpt lat="46.77631" lon="-2.06">
        <ele>7.6</ele>
        <time>2020-06-04T09:16:50Z</time>
      </trkpt>
      <trkpt lat="46.77632" lon="-2.06001">
        <ele>7.6</ele>
        <time>2020-06-04T09:16:51Z</time>
      </trkpt>
      <trkpt lat="46.77633" lon="-2.06001">
        <ele>7.6</ele>
        <time>2020-06-04T09:16:52Z</time>
      </trkpt>
      <trkpt lat="46.77633" lon="-2.06002">
        <ele>7.6</ele>
        <time>2020-06-04T09:21:27Z</time>
      </trkpt>
      <trkpt lat="46.77634" lon="-2.06002">
        <ele>7.6</ele>
        <time>2020-06-04T09:21:28Z</time>
      </trkpt>
      <trkpt lat="46.77636" lon="-2.06005">
        <ele>7.6</ele>
        <time>2020-06-04T09:21:29Z</time>
      </trkpt>
      <trkpt lat="46.77636" lon="-2.06006">
        <ele>7.6</ele>
        <time>2020-06-04T09:21:30Z</time>
      </trkpt>
      <trkpt lat="46.77637" lon="-2.06007">
        <ele>7.6</ele>
        <time>2020-06-04T09:21:31Z</time>
      </trkpt>
      <trkpt lat="46.77639" lon="-2.06011">
        <ele>7.6</ele>
        <time>2020-06-04T09:21:32Z</time>
      </trkpt>
      <trkpt lat="46.7764" lon="-2.06012">
        <ele>7.6</ele>
        <time>2020-06-04T09:21:33Z</time>
      </trkpt>
      <trkpt lat="46.77643" lon="-2.06017">
        <ele>7.6</ele>
        <time>2020-06-04T09:21:34Z</time>
      </trkpt>
      <trkpt lat="46.77644" lon="-2.06018">
        <ele>7.6</ele>
        <time>2020-06-04T09:21:35Z</time>
      </trkpt>
      <trkpt lat="46.77646" lon="-2.06022">
        <ele>7.6</ele>
        <time>2020-06-04T09:21:36Z</time>
      </trkpt>
      <trkpt lat="46.77646" lon="-2.06023">
        <ele>7.6</ele>
        <time>2020-06-04T09:21:37Z</time>
      </trkpt>
      <trkpt lat="46.7765" lon="-2.06026">
        <ele>7.6</ele>
        <time>2020-06-04T09:21:38Z</time>
      </trkpt>
      <trkpt lat="46.77651" lon="-2.06027">
        <ele>7.6</ele>
        <time>2020-06-04T09:21:39Z</time>
      </trkpt>
      <trkpt lat="46.77653" lon="-2.0603">
        <ele>7.6</ele>
        <time>2020-06-04T09:21:40Z</time>
      </trkpt>
      <trkpt lat="46.77656" lon="-2.06033">
        <ele>7.6</ele>
        <time>2020-06-04T09:21:41Z</time>
      </trkpt>
      <trkpt lat="46.77658" lon="-2.06036">
        <ele>7.5</ele>
        <time>2020-06-04T09:21:42Z</time>
      </trkpt>
      <trkpt lat="46.7766" lon="-2.0604">
        <ele>7.5</ele>
        <time>2020-06-04T09:21:43Z</time>
      </trkpt>
      <trkpt lat="46.77661" lon="-2.06044">
        <ele>7.5</ele>
        <time>2020-06-04T09:21:44Z</time>
      </trkpt>
      <trkpt lat="46.77663" lon="-2.06048">
        <ele>7.5</ele>
        <time>2020-06-04T09:21:45Z</time>
      </trkpt>
      <trkpt lat="46.77665" lon="-2.06052">
        <ele>7.5</ele>
        <time>2020-06-04T09:21:46Z</time>
      </trkpt>
      <trkpt lat="46.77667" lon="-2.06055">
        <ele>7.5</ele>
        <time>2020-06-04T09:21:47Z</time>
      </trkpt>
      <trkpt lat="46.77669" lon="-2.06058">
        <ele>7.5</ele>
        <time>2020-06-04T09:21:48Z</time>
      </trkpt>
      <trkpt lat="46.77672" lon="-2.06062">
        <ele>7.5</ele>
        <time>2020-06-04T09:21:49Z</time>
      </trkpt>
      <trkpt lat="46.77674" lon="-2.06065">
        <ele>7.5</ele>
        <time>2020-06-04T09:21:50Z</time>
      </trkpt>
      <trkpt lat="46.77675" lon="-2.06065">
        <ele>7.5</ele>
        <time>2020-06-04T09:21:51Z</time>
      </trkpt>
      <trkpt lat="46.77678" lon="-2.06067">
        <ele>7.5</ele>
        <time>2020-06-04T09:21:52Z</time>
      </trkpt>
      <trkpt lat="46.77678" lon="-2.06069">
        <ele>7.5</ele>
        <time>2020-06-04T09:21:53Z</time>
      </trkpt>
      <trkpt lat="46.77681" lon="-2.06071">
        <ele>7.5</ele>
        <time>2020-06-04T09:21:54Z</time>
      </trkpt>
      <trkpt lat="46.77684" lon="-2.06075">
        <ele>7.5</ele>
        <time>2020-06-04T09:21:55Z</time>
      </trkpt>
      <trkpt lat="46.77687" lon="-2.06079">
        <ele>7.5</ele>
        <time>2020-06-04T09:21:56Z</time>
      </trkpt>
      <trkpt lat="46.77691" lon="-2.06082">
        <ele>7.5</ele>
        <time>2020-06-04T09:21:57Z</time>
      </trkpt>
      <trkpt lat="46.77694" lon="-2.06086">
        <ele>7.5</ele>
        <time>2020-06-04T09:21:58Z</time>
      </trkpt>
      <trkpt lat="46.77698" lon="-2.06092">
        <ele>7.5</ele>
        <time>2020-06-04T09:21:59Z</time>
      </trkpt>
      <trkpt lat="46.77702" lon="-2.06098">
        <ele>7.5</ele>
        <time>2020-06-04T09:22:00Z</time>
      </trkpt>
      <trkpt lat="46.77705" lon="-2.06103">
        <ele>7.5</ele>
        <time>2020-06-04T09:22:01Z</time>
      </trkpt>
      <trkpt lat="46.77708" lon="-2.06108">
        <ele>7.4</ele>
        <time>2020-06-04T09:22:02Z</time>
      </trkpt>
      <trkpt lat="46.77711" lon="-2.06112">
        <ele>7.4</ele>
        <time>2020-06-04T09:22:03Z</time>
      </trkpt>
      <trkpt lat="46.77715" lon="-2.06117">
        <ele>7.4</ele>
        <time>2020-06-04T09:22:04Z</time>
      </trkpt>
      <trkpt lat="46.77718" lon="-2.06122">
        <ele>7.4</ele>
        <time>2020-06-04T09:22:05Z</time>
      </trkpt>
      <trkpt lat="46.77721" lon="-2.06127">
        <ele>7.4</ele>
        <time>2020-06-04T09:22:06Z</time>
      </trkpt>
      <trkpt lat="46.77725" lon="-2.06132">
        <ele>7.4</ele>
        <time>2020-06-04T09:22:07Z</time>
      </trkpt>
      <trkpt lat="46.77728" lon="-2.06136">
        <ele>7.4</ele>
        <time>2020-06-04T09:22:08Z</time>
      </trkpt>
      <trkpt lat="46.77731" lon="-2.06141">
        <ele>7.4</ele>
        <time>2020-06-04T09:22:09Z</time>
      </trkpt>
      <trkpt lat="46.77735" lon="-2.06146">
        <ele>7.4</ele>
        <time>2020-06-04T09:22:10Z</time>
      </trkpt>
      <trkpt lat="46.77739" lon="-2.06151">
        <ele>7.3</ele>
        <time>2020-06-04T09:22:11Z</time>
      </trkpt>
      <trkpt lat="46.77742" lon="-2.06156">
        <ele>7.3</ele>
        <time>2020-06-04T09:22:12Z</time>
      </trkpt>
      <trkpt lat="46.77745" lon="-2.0616">
        <ele>7.3</ele>
        <time>2020-06-04T09:22:13Z</time>
      </trkpt>
      <trkpt lat="46.77748" lon="-2.06165">
        <ele>7.3</ele>
        <time>2020-06-04T09:22:14Z</time>
      </trkpt>
      <trkpt lat="46.77751" lon="-2.0617">
        <ele>7.3</ele>
        <time>2020-06-04T09:22:15Z</time>
      </trkpt>
      <trkpt lat="46.77754" lon="-2.06175">
        <ele>7.3</ele>
        <time>2020-06-04T09:22:16Z</time>
      </trkpt>
      <trkpt lat="46.77757" lon="-2.0618">
        <ele>7.3</ele>
        <time>2020-06-04T09:22:17Z</time>
      </trkpt>
      <trkpt lat="46.77759" lon="-2.06184">
        <ele>7.3</ele>
        <time>2020-06-04T09:22:18Z</time>
      </trkpt>
      <trkpt lat="46.77762" lon="-2.06189">
        <ele>7.3</ele>
        <time>2020-06-04T09:22:19Z</time>
      </trkpt>
      <trkpt lat="46.77764" lon="-2.06194">
        <ele>7.3</ele>
        <time>2020-06-04T09:22:20Z</time>
      </trkpt>
      <trkpt lat="46.77767" lon="-2.06198">
        <ele>7.3</ele>
        <time>2020-06-04T09:22:21Z</time>
      </trkpt>
      <trkpt lat="46.7777" lon="-2.06203">
        <ele>7.3</ele>
        <time>2020-06-04T09:22:22Z</time>
      </trkpt>
      <trkpt lat="46.77772" lon="-2.06208">
        <ele>7.3</ele>
        <time>2020-06-04T09:22:23Z</time>
      </trkpt>
      <trkpt lat="46.77775" lon="-2.06213">
        <ele>7.3</ele>
        <time>2020-06-04T09:22:24Z</time>
      </trkpt>
      <trkpt lat="46.77778" lon="-2.06219">
        <ele>7.3</ele>
        <time>2020-06-04T09:22:25Z</time>
      </trkpt>
      <trkpt lat="46.77781" lon="-2.06225">
        <ele>7.3</ele>
        <time>2020-06-04T09:22:26Z</time>
      </trkpt>
      <trkpt lat="46.77783" lon="-2.06231">
        <ele>7.3</ele>
        <time>2020-06-04T09:22:27Z</time>
      </trkpt>
      <trkpt lat="46.77785" lon="-2.06236">
        <ele>7.3</ele>
        <time>2020-06-04T09:22:28Z</time>
      </trkpt>
      <trkpt lat="46.77788" lon="-2.06241">
        <ele>7.3</ele>
        <time>2020-06-04T09:22:29Z</time>
      </trkpt>
      <trkpt lat="46.77791" lon="-2.06246">
        <ele>7.3</ele>
        <time>2020-06-04T09:22:30Z</time>
      </trkpt>
      <trkpt lat="46.77794" lon="-2.06251">
        <ele>7.3</ele>
        <time>2020-06-04T09:22:31Z</time>
      </trkpt>
      <trkpt lat="46.77798" lon="-2.06255">
        <ele>7.2</ele>
        <time>2020-06-04T09:22:32Z</time>
      </trkpt>
      <trkpt lat="46.77801" lon="-2.0626">
        <ele>7.2</ele>
        <time>2020-06-04T09:22:33Z</time>
      </trkpt>
      <trkpt lat="46.77804" lon="-2.06264">
        <ele>7.2</ele>
        <time>2020-06-04T09:22:34Z</time>
      </trkpt>
      <trkpt lat="46.77807" lon="-2.06269">
        <ele>7.2</ele>
        <time>2020-06-04T09:22:35Z</time>
      </trkpt>
      <trkpt lat="46.7781" lon="-2.06274">
        <ele>7.2</ele>
        <time>2020-06-04T09:22:36Z</time>
      </trkpt>
      <trkpt lat="46.77813" lon="-2.06279">
        <ele>7.1</ele>
        <time>2020-06-04T09:22:37Z</time>
      </trkpt>
      <trkpt lat="46.77815" lon="-2.06284">
        <ele>7.1</ele>
        <time>2020-06-04T09:22:38Z</time>
      </trkpt>
      <trkpt lat="46.77817" lon="-2.06288">
        <ele>7.1</ele>
        <time>2020-06-04T09:22:39Z</time>
      </trkpt>
      <trkpt lat="46.7782" lon="-2.06294">
        <ele>7.1</ele>
        <time>2020-06-04T09:22:40Z</time>
      </trkpt>
      <trkpt lat="46.77822" lon="-2.063">
        <ele>7</ele>
        <time>2020-06-04T09:22:41Z</time>
      </trkpt>
      <trkpt lat="46.77824" lon="-2.06305">
        <ele>7</ele>
        <time>2020-06-04T09:22:42Z</time>
      </trkpt>
      <trkpt lat="46.77826" lon="-2.0631">
        <ele>6.9</ele>
        <time>2020-06-04T09:22:43Z</time>
      </trkpt>
      <trkpt lat="46.77829" lon="-2.06315">
        <ele>6.9</ele>
        <time>2020-06-04T09:22:44Z</time>
      </trkpt>
      <trkpt lat="46.77832" lon="-2.0632">
        <ele>6.9</ele>
        <time>2020-06-04T09:22:45Z</time>
      </trkpt>
      <trkpt lat="46.77834" lon="-2.06324">
        <ele>6.8</ele>
        <time>2020-06-04T09:22:46Z</time>
      </trkpt>
      <trkpt lat="46.77837" lon="-2.06328">
        <ele>6.8</ele>
        <time>2020-06-04T09:22:47Z</time>
      </trkpt>
      <trkpt lat="46.77839" lon="-2.06334">
        <ele>6.7</ele>
        <time>2020-06-04T09:22:48Z</time>
      </trkpt>
      <trkpt lat="46.77843" lon="-2.06338">
        <ele>6.7</ele>
        <time>2020-06-04T09:22:49Z</time>
      </trkpt>
      <trkpt lat="46.77846" lon="-2.06343">
        <ele>6.6</ele>
        <time>2020-06-04T09:22:50Z</time>
      </trkpt>
      <trkpt lat="46.77849" lon="-2.06348">
        <ele>6.6</ele>
        <time>2020-06-04T09:22:51Z</time>
      </trkpt>
      <trkpt lat="46.77852" lon="-2.06355">
        <ele>6.3</ele>
        <time>2020-06-04T09:22:52Z</time>
      </trkpt>
      <trkpt lat="46.77855" lon="-2.0636">
        <ele>6.3</ele>
        <time>2020-06-04T09:22:53Z</time>
      </trkpt>
      <trkpt lat="46.77857" lon="-2.06366">
        <ele>6.3</ele>
        <time>2020-06-04T09:22:54Z</time>
      </trkpt>
      <trkpt lat="46.77859" lon="-2.06372">
        <ele>6.3</ele>
        <time>2020-06-04T09:22:55Z</time>
      </trkpt>
      <trkpt lat="46.77861" lon="-2.06377">
        <ele>6.3</ele>
        <time>2020-06-04T09:22:56Z</time>
      </trkpt>
      <trkpt lat="46.77863" lon="-2.06383">
        <ele>6.3</ele>
        <time>2020-06-04T09:22:57Z</time>
      </trkpt>
      <trkpt lat="46.77865" lon="-2.06388">
        <ele>6.3</ele>
        <time>2020-06-04T09:22:58Z</time>
      </trkpt>
      <trkpt lat="46.77868" lon="-2.06393">
        <ele>6.3</ele>
        <time>2020-06-04T09:22:59Z</time>
      </trkpt>
      <trkpt lat="46.77871" lon="-2.06398">
        <ele>6.3</ele>
        <time>2020-06-04T09:23:00Z</time>
      </trkpt>
      <trkpt lat="46.77873" lon="-2.06403">
        <ele>6.4</ele>
        <time>2020-06-04T09:23:01Z</time>
      </trkpt>
      <trkpt lat="46.77876" lon="-2.06408">
        <ele>6.4</ele>
        <time>2020-06-04T09:23:02Z</time>
      </trkpt>
      <trkpt lat="46.77878" lon="-2.06412">
        <ele>6.4</ele>
        <time>2020-06-04T09:23:03Z</time>
      </trkpt>
      <trkpt lat="46.7788" lon="-2.06415">
        <ele>6.4</ele>
        <time>2020-06-04T09:23:04Z</time>
      </trkpt>
      <trkpt lat="46.77882" lon="-2.0642">
        <ele>6.4</ele>
        <time>2020-06-04T09:23:05Z</time>
      </trkpt>
      <trkpt lat="46.77882" lon="-2.06421">
        <ele>6.4</ele>
        <time>2020-06-04T09:23:06Z</time>
      </trkpt>
      <trkpt lat="46.77884" lon="-2.06425">
        <ele>6.4</ele>
        <time>2020-06-04T09:23:07Z</time>
      </trkpt>
      <trkpt lat="46.77886" lon="-2.0643">
        <ele>6.4</ele>
        <time>2020-06-04T09:23:08Z</time>
      </trkpt>
      <trkpt lat="46.77888" lon="-2.06434">
        <ele>6.4</ele>
        <time>2020-06-04T09:23:09Z</time>
      </trkpt>
      <trkpt lat="46.7789" lon="-2.06438">
        <ele>6.4</ele>
        <time>2020-06-04T09:23:10Z</time>
      </trkpt>
      <trkpt lat="46.77893" lon="-2.06443">
        <ele>6.4</ele>
        <time>2020-06-04T09:23:11Z</time>
      </trkpt>
      <trkpt lat="46.77895" lon="-2.06446">
        <ele>6.4</ele>
        <time>2020-06-04T09:23:12Z</time>
      </trkpt>
      <trkpt lat="46.77898" lon="-2.0645">
        <ele>6.4</ele>
        <time>2020-06-04T09:23:13Z</time>
      </trkpt>
      <trkpt lat="46.779" lon="-2.06454">
        <ele>6.4</ele>
        <time>2020-06-04T09:23:14Z</time>
      </trkpt>
      <trkpt lat="46.77903" lon="-2.06458">
        <ele>6.4</ele>
        <time>2020-06-04T09:23:15Z</time>
      </trkpt>
      <trkpt lat="46.77906" lon="-2.06462">
        <ele>6.4</ele>
        <time>2020-06-04T09:23:16Z</time>
      </trkpt>
      <trkpt lat="46.77911" lon="-2.06466">
        <ele>6.4</ele>
        <time>2020-06-04T09:23:17Z</time>
      </trkpt>
      <trkpt lat="46.77916" lon="-2.06468">
        <ele>6.4</ele>
        <time>2020-06-04T09:23:18Z</time>
      </trkpt>
      <trkpt lat="46.77921" lon="-2.06471">
        <ele>6.5</ele>
        <time>2020-06-04T09:23:19Z</time>
      </trkpt>
      <trkpt lat="46.77924" lon="-2.06475">
        <ele>6.5</ele>
        <time>2020-06-04T09:23:20Z</time>
      </trkpt>
      <trkpt lat="46.77926" lon="-2.0648">
        <ele>6.5</ele>
        <time>2020-06-04T09:23:21Z</time>
      </trkpt>
      <trkpt lat="46.7793" lon="-2.06483">
        <ele>6.5</ele>
        <time>2020-06-04T09:23:22Z</time>
      </trkpt>
      <trkpt lat="46.77932" lon="-2.06486">
        <ele>6.5</ele>
        <time>2020-06-04T09:23:23Z</time>
      </trkpt>
      <trkpt lat="46.77935" lon="-2.0649">
        <ele>6.5</ele>
        <time>2020-06-04T09:23:24Z</time>
      </trkpt>
      <trkpt lat="46.77938" lon="-2.06494">
        <ele>6.5</ele>
        <time>2020-06-04T09:23:25Z</time>
      </trkpt>
      <trkpt lat="46.77941" lon="-2.06499">
        <ele>6.5</ele>
        <time>2020-06-04T09:23:26Z</time>
      </trkpt>
      <trkpt lat="46.77944" lon="-2.06503">
        <ele>6.5</ele>
        <time>2020-06-04T09:23:27Z</time>
      </trkpt>
      <trkpt lat="46.77945" lon="-2.06508">
        <ele>6.5</ele>
        <time>2020-06-04T09:23:28Z</time>
      </trkpt>
      <trkpt lat="46.77947" lon="-2.06513">
        <ele>6.5</ele>
        <time>2020-06-04T09:23:29Z</time>
      </trkpt>
      <trkpt lat="46.7795" lon="-2.06517">
        <ele>6.6</ele>
        <time>2020-06-04T09:23:30Z</time>
      </trkpt>
      <trkpt lat="46.77953" lon="-2.06522">
        <ele>6.6</ele>
        <time>2020-06-04T09:23:31Z</time>
      </trkpt>
      <trkpt lat="46.77955" lon="-2.06526">
        <ele>6.6</ele>
        <time>2020-06-04T09:23:32Z</time>
      </trkpt>
      <trkpt lat="46.77958" lon="-2.06531">
        <ele>6.6</ele>
        <time>2020-06-04T09:23:33Z</time>
      </trkpt>
      <trkpt lat="46.77961" lon="-2.06534">
        <ele>6.6</ele>
        <time>2020-06-04T09:23:34Z</time>
      </trkpt>
      <trkpt lat="46.77964" lon="-2.06539">
        <ele>7</ele>
        <time>2020-06-04T09:23:35Z</time>
      </trkpt>
      <trkpt lat="46.77968" lon="-2.06543">
        <ele>7</ele>
        <time>2020-06-04T09:23:36Z</time>
      </trkpt>
      <trkpt lat="46.7797" lon="-2.06548">
        <ele>7</ele>
        <time>2020-06-04T09:23:37Z</time>
      </trkpt>
      <trkpt lat="46.77972" lon="-2.06552">
        <ele>7</ele>
        <time>2020-06-04T09:23:38Z</time>
      </trkpt>
      <trkpt lat="46.77974" lon="-2.06557">
        <ele>7</ele>
        <time>2020-06-04T09:23:39Z</time>
      </trkpt>
      <trkpt lat="46.77977" lon="-2.06563">
        <ele>7</ele>
        <time>2020-06-04T09:23:40Z</time>
      </trkpt>
      <trkpt lat="46.77981" lon="-2.06569">
        <ele>7</ele>
        <time>2020-06-04T09:23:41Z</time>
      </trkpt>
      <trkpt lat="46.77984" lon="-2.06574">
        <ele>7</ele>
        <time>2020-06-04T09:23:42Z</time>
      </trkpt>
      <trkpt lat="46.77987" lon="-2.06579">
        <ele>7.1</ele>
        <time>2020-06-04T09:23:43Z</time>
      </trkpt>
      <trkpt lat="46.77989" lon="-2.06584">
        <ele>7.1</ele>
        <time>2020-06-04T09:23:44Z</time>
      </trkpt>
      <trkpt lat="46.77993" lon="-2.06588">
        <ele>7.1</ele>
        <time>2020-06-04T09:23:45Z</time>
      </trkpt>
      <trkpt lat="46.77997" lon="-2.06592">
        <ele>7.1</ele>
        <time>2020-06-04T09:23:46Z</time>
      </trkpt>
      <trkpt lat="46.78002" lon="-2.06594">
        <ele>7.2</ele>
        <time>2020-06-04T09:23:47Z</time>
      </trkpt>
      <trkpt lat="46.78007" lon="-2.06596">
        <ele>7.2</ele>
        <time>2020-06-04T09:23:48Z</time>
      </trkpt>
      <trkpt lat="46.78011" lon="-2.06597">
        <ele>7.2</ele>
        <time>2020-06-04T09:23:49Z</time>
      </trkpt>
      <trkpt lat="46.78015" lon="-2.06599">
        <ele>7.2</ele>
        <time>2020-06-04T09:23:50Z</time>
      </trkpt>
      <trkpt lat="46.78019" lon="-2.06603">
        <ele>7.2</ele>
        <time>2020-06-04T09:23:51Z</time>
      </trkpt>
      <trkpt lat="46.78022" lon="-2.06608">
        <ele>7.2</ele>
        <time>2020-06-04T09:23:52Z</time>
      </trkpt>
      <trkpt lat="46.78025" lon="-2.06614">
        <ele>7.2</ele>
        <time>2020-06-04T09:23:53Z</time>
      </trkpt>
      <trkpt lat="46.78028" lon="-2.06619">
        <ele>7.2</ele>
        <time>2020-06-04T09:23:54Z</time>
      </trkpt>
      <trkpt lat="46.78031" lon="-2.06625">
        <ele>7.1</ele>
        <time>2020-06-04T09:23:55Z</time>
      </trkpt>
      <trkpt lat="46.78033" lon="-2.06631">
        <ele>7.1</ele>
        <time>2020-06-04T09:23:56Z</time>
      </trkpt>
      <trkpt lat="46.78034" lon="-2.06637">
        <ele>7.1</ele>
        <time>2020-06-04T09:23:57Z</time>
      </trkpt>
      <trkpt lat="46.78036" lon="-2.06642">
        <ele>7.1</ele>
        <time>2020-06-04T09:23:58Z</time>
      </trkpt>
      <trkpt lat="46.78038" lon="-2.06649">
        <ele>7</ele>
        <time>2020-06-04T09:23:59Z</time>
      </trkpt>
      <trkpt lat="46.78038" lon="-2.06655">
        <ele>7</ele>
        <time>2020-06-04T09:24:00Z</time>
      </trkpt>
      <trkpt lat="46.7804" lon="-2.06661">
        <ele>7</ele>
        <time>2020-06-04T09:24:01Z</time>
      </trkpt>
      <trkpt lat="46.78041" lon="-2.06666">
        <ele>7</ele>
        <time>2020-06-04T09:24:02Z</time>
      </trkpt>
      <trkpt lat="46.78043" lon="-2.06671">
        <ele>6.9</ele>
        <time>2020-06-04T09:24:03Z</time>
      </trkpt>
      <trkpt lat="46.78045" lon="-2.06676">
        <ele>6.9</ele>
        <time>2020-06-04T09:24:04Z</time>
      </trkpt>
      <trkpt lat="46.78048" lon="-2.06681">
        <ele>6.9</ele>
        <time>2020-06-04T09:24:05Z</time>
      </trkpt>
      <trkpt lat="46.78051" lon="-2.06685">
        <ele>6.9</ele>
        <time>2020-06-04T09:24:06Z</time>
      </trkpt>
      <trkpt lat="46.78053" lon="-2.06688">
        <ele>6.9</ele>
        <time>2020-06-04T09:24:07Z</time>
      </trkpt>
      <trkpt lat="46.78055" lon="-2.06693">
        <ele>6.8</ele>
        <time>2020-06-04T09:24:08Z</time>
      </trkpt>
      <trkpt lat="46.78058" lon="-2.06697">
        <ele>6.8</ele>
        <time>2020-06-04T09:24:09Z</time>
      </trkpt>
      <trkpt lat="46.78059" lon="-2.06702">
        <ele>6.8</ele>
        <time>2020-06-04T09:24:10Z</time>
      </trkpt>
      <trkpt lat="46.78061" lon="-2.06706">
        <ele>6.8</ele>
        <time>2020-06-04T09:24:11Z</time>
      </trkpt>
      <trkpt lat="46.78064" lon="-2.0671">
        <ele>6.8</ele>
        <time>2020-06-04T09:24:12Z</time>
      </trkpt>
      <trkpt lat="46.78067" lon="-2.06713">
        <ele>6.8</ele>
        <time>2020-06-04T09:24:13Z</time>
      </trkpt>
      <trkpt lat="46.7807" lon="-2.06714">
        <ele>6.8</ele>
        <time>2020-06-04T09:24:14Z</time>
      </trkpt>
      <trkpt lat="46.78075" lon="-2.06714">
        <ele>6.8</ele>
        <time>2020-06-04T09:24:15Z</time>
      </trkpt>
      <trkpt lat="46.78079" lon="-2.06715">
        <ele>6.8</ele>
        <time>2020-06-04T09:24:16Z</time>
      </trkpt>
      <trkpt lat="46.78084" lon="-2.06718">
        <ele>6.8</ele>
        <time>2020-06-04T09:24:17Z</time>
      </trkpt>
      <trkpt lat="46.78089" lon="-2.0672">
        <ele>6.8</ele>
        <time>2020-06-04T09:24:18Z</time>
      </trkpt>
      <trkpt lat="46.78093" lon="-2.06723">
        <ele>6.8</ele>
        <time>2020-06-04T09:24:19Z</time>
      </trkpt>
      <trkpt lat="46.78096" lon="-2.06727">
        <ele>6.8</ele>
        <time>2020-06-04T09:24:20Z</time>
      </trkpt>
      <trkpt lat="46.781" lon="-2.06732">
        <ele>6.8</ele>
        <time>2020-06-04T09:24:21Z</time>
      </trkpt>
      <trkpt lat="46.78103" lon="-2.06737">
        <ele>6.8</ele>
        <time>2020-06-04T09:24:22Z</time>
      </trkpt>
      <trkpt lat="46.78105" lon="-2.06742">
        <ele>6.8</ele>
        <time>2020-06-04T09:24:23Z</time>
      </trkpt>
      <trkpt lat="46.78108" lon="-2.06747">
        <ele>6.8</ele>
        <time>2020-06-04T09:24:24Z</time>
      </trkpt>
      <trkpt lat="46.78111" lon="-2.06752">
        <ele>6.8</ele>
        <time>2020-06-04T09:24:25Z</time>
      </trkpt>
      <trkpt lat="46.78113" lon="-2.06757">
        <ele>6.8</ele>
        <time>2020-06-04T09:24:26Z</time>
      </trkpt>
      <trkpt lat="46.78117" lon="-2.06762">
        <ele>6.8</ele>
        <time>2020-06-04T09:24:27Z</time>
      </trkpt>
      <trkpt lat="46.78119" lon="-2.06766">
        <ele>6.8</ele>
        <time>2020-06-04T09:24:28Z</time>
      </trkpt>
      <trkpt lat="46.78122" lon="-2.0677">
        <ele>6.8</ele>
        <time>2020-06-04T09:24:29Z</time>
      </trkpt>
      <trkpt lat="46.78124" lon="-2.06774">
        <ele>6.8</ele>
        <time>2020-06-04T09:24:30Z</time>
      </trkpt>
      <trkpt lat="46.78126" lon="-2.06777">
        <ele>6.8</ele>
        <time>2020-06-04T09:24:31Z</time>
      </trkpt>
      <trkpt lat="46.78127" lon="-2.06779">
        <ele>6.8</ele>
        <time>2020-06-04T09:24:32Z</time>
      </trkpt>
      <trkpt lat="46.78129" lon="-2.06781">
        <ele>6.8</ele>
        <time>2020-06-04T09:24:33Z</time>
      </trkpt>
      <trkpt lat="46.78132" lon="-2.06783">
        <ele>6.8</ele>
        <time>2020-06-04T09:24:34Z</time>
      </trkpt>
      <trkpt lat="46.78134" lon="-2.06786">
        <ele>6.8</ele>
        <time>2020-06-04T09:24:35Z</time>
      </trkpt>
      <trkpt lat="46.78136" lon="-2.0679">
        <ele>6.8</ele>
        <time>2020-06-04T09:24:36Z</time>
      </trkpt>
      <trkpt lat="46.78138" lon="-2.06794">
        <ele>6.8</ele>
        <time>2020-06-04T09:24:37Z</time>
      </trkpt>
      <trkpt lat="46.78139" lon="-2.06799">
        <ele>6.8</ele>
        <time>2020-06-04T09:24:38Z</time>
      </trkpt>
      <trkpt lat="46.78141" lon="-2.06805">
        <ele>6.8</ele>
        <time>2020-06-04T09:24:39Z</time>
      </trkpt>
      <trkpt lat="46.78142" lon="-2.0681">
        <ele>6.8</ele>
        <time>2020-06-04T09:24:40Z</time>
      </trkpt>
      <trkpt lat="46.78144" lon="-2.06815">
        <ele>6.8</ele>
        <time>2020-06-04T09:24:41Z</time>
      </trkpt>
      <trkpt lat="46.78146" lon="-2.0682">
        <ele>6.8</ele>
        <time>2020-06-04T09:24:42Z</time>
      </trkpt>
      <trkpt lat="46.78148" lon="-2.06825">
        <ele>6.8</ele>
        <time>2020-06-04T09:24:43Z</time>
      </trkpt>
      <trkpt lat="46.78149" lon="-2.0683">
        <ele>6.8</ele>
        <time>2020-06-04T09:24:44Z</time>
      </trkpt>
      <trkpt lat="46.78151" lon="-2.06836">
        <ele>6.8</ele>
        <time>2020-06-04T09:24:45Z</time>
      </trkpt>
      <trkpt lat="46.78151" lon="-2.06841">
        <ele>6.8</ele>
        <time>2020-06-04T09:24:46Z</time>
      </trkpt>
      <trkpt lat="46.78152" lon="-2.06847">
        <ele>6.8</ele>
        <time>2020-06-04T09:24:47Z</time>
      </trkpt>
      <trkpt lat="46.78153" lon="-2.06854">
        <ele>6.8</ele>
        <time>2020-06-04T09:24:48Z</time>
      </trkpt>
      <trkpt lat="46.78154" lon="-2.06861">
        <ele>6.8</ele>
        <time>2020-06-04T09:24:49Z</time>
      </trkpt>
      <trkpt lat="46.78155" lon="-2.06866">
        <ele>6.8</ele>
        <time>2020-06-04T09:24:50Z</time>
      </trkpt>
      <trkpt lat="46.78156" lon="-2.06872">
        <ele>6.8</ele>
        <time>2020-06-04T09:24:51Z</time>
      </trkpt>
      <trkpt lat="46.78158" lon="-2.06877">
        <ele>6.8</ele>
        <time>2020-06-04T09:24:52Z</time>
      </trkpt>
      <trkpt lat="46.78161" lon="-2.06882">
        <ele>6.8</ele>
        <time>2020-06-04T09:24:53Z</time>
      </trkpt>
      <trkpt lat="46.78164" lon="-2.06887">
        <ele>6.8</ele>
        <time>2020-06-04T09:24:54Z</time>
      </trkpt>
      <trkpt lat="46.78167" lon="-2.06892">
        <ele>6.8</ele>
        <time>2020-06-04T09:24:55Z</time>
      </trkpt>
      <trkpt lat="46.78169" lon="-2.06896">
        <ele>6.8</ele>
        <time>2020-06-04T09:24:56Z</time>
      </trkpt>
      <trkpt lat="46.78172" lon="-2.069">
        <ele>6.8</ele>
        <time>2020-06-04T09:24:57Z</time>
      </trkpt>
      <trkpt lat="46.78174" lon="-2.06904">
        <ele>6.8</ele>
        <time>2020-06-04T09:24:58Z</time>
      </trkpt>
      <trkpt lat="46.78177" lon="-2.06909">
        <ele>6.8</ele>
        <time>2020-06-04T09:24:59Z</time>
      </trkpt>
      <trkpt lat="46.78179" lon="-2.06913">
        <ele>6.8</ele>
        <time>2020-06-04T09:25:00Z</time>
      </trkpt>
      <trkpt lat="46.78182" lon="-2.06918">
        <ele>6.8</ele>
        <time>2020-06-04T09:25:01Z</time>
      </trkpt>
      <trkpt lat="46.78185" lon="-2.06923">
        <ele>6.8</ele>
        <time>2020-06-04T09:25:02Z</time>
      </trkpt>
      <trkpt lat="46.78187" lon="-2.06929">
        <ele>6.8</ele>
        <time>2020-06-04T09:25:03Z</time>
      </trkpt>
      <trkpt lat="46.7819" lon="-2.06934">
        <ele>6.8</ele>
        <time>2020-06-04T09:25:04Z</time>
      </trkpt>
      <trkpt lat="46.78193" lon="-2.06938">
        <ele>6.8</ele>
        <time>2020-06-04T09:25:05Z</time>
      </trkpt>
      <trkpt lat="46.78195" lon="-2.06942">
        <ele>6.8</ele>
        <time>2020-06-04T09:25:06Z</time>
      </trkpt>
      <trkpt lat="46.78198" lon="-2.06947">
        <ele>6.8</ele>
        <time>2020-06-04T09:25:07Z</time>
      </trkpt>
      <trkpt lat="46.78201" lon="-2.06951">
        <ele>6.8</ele>
        <time>2020-06-04T09:25:08Z</time>
      </trkpt>
      <trkpt lat="46.78203" lon="-2.06956">
        <ele>6.8</ele>
        <time>2020-06-04T09:25:09Z</time>
      </trkpt>
      <trkpt lat="46.78206" lon="-2.06961">
        <ele>6.8</ele>
        <time>2020-06-04T09:25:10Z</time>
      </trkpt>
      <trkpt lat="46.78208" lon="-2.06966">
        <ele>6.8</ele>
        <time>2020-06-04T09:25:11Z</time>
      </trkpt>
      <trkpt lat="46.78211" lon="-2.0697">
        <ele>6.8</ele>
        <time>2020-06-04T09:25:12Z</time>
      </trkpt>
      <trkpt lat="46.78213" lon="-2.06975">
        <ele>6.8</ele>
        <time>2020-06-04T09:25:13Z</time>
      </trkpt>
      <trkpt lat="46.78215" lon="-2.0698">
        <ele>6.8</ele>
        <time>2020-06-04T09:25:14Z</time>
      </trkpt>
      <trkpt lat="46.78218" lon="-2.06984">
        <ele>6.8</ele>
        <time>2020-06-04T09:25:15Z</time>
      </trkpt>
      <trkpt lat="46.78221" lon="-2.06989">
        <ele>6.8</ele>
        <time>2020-06-04T09:25:16Z</time>
      </trkpt>
      <trkpt lat="46.78223" lon="-2.06993">
        <ele>6.8</ele>
        <time>2020-06-04T09:25:17Z</time>
      </trkpt>
      <trkpt lat="46.78226" lon="-2.06998">
        <ele>6.8</ele>
        <time>2020-06-04T09:25:18Z</time>
      </trkpt>
      <trkpt lat="46.78228" lon="-2.07003">
        <ele>6.8</ele>
        <time>2020-06-04T09:25:19Z</time>
      </trkpt>
      <trkpt lat="46.78231" lon="-2.07008">
        <ele>6.8</ele>
        <time>2020-06-04T09:25:20Z</time>
      </trkpt>
      <trkpt lat="46.78234" lon="-2.07013">
        <ele>6.8</ele>
        <time>2020-06-04T09:25:21Z</time>
      </trkpt>
      <trkpt lat="46.78237" lon="-2.07018">
        <ele>6.8</ele>
        <time>2020-06-04T09:25:22Z</time>
      </trkpt>
      <trkpt lat="46.78241" lon="-2.07022">
        <ele>6.9</ele>
        <time>2020-06-04T09:25:23Z</time>
      </trkpt>
      <trkpt lat="46.78244" lon="-2.07026">
        <ele>6.9</ele>
        <time>2020-06-04T09:25:24Z</time>
      </trkpt>
      <trkpt lat="46.78247" lon="-2.07031">
        <ele>6.9</ele>
        <time>2020-06-04T09:25:25Z</time>
      </trkpt>
      <trkpt lat="46.7825" lon="-2.07037">
        <ele>6.9</ele>
        <time>2020-06-04T09:25:26Z</time>
      </trkpt>
      <trkpt lat="46.78253" lon="-2.07042">
        <ele>6.9</ele>
        <time>2020-06-04T09:25:27Z</time>
      </trkpt>
      <trkpt lat="46.78256" lon="-2.07048">
        <ele>6.9</ele>
        <time>2020-06-04T09:25:28Z</time>
      </trkpt>
      <trkpt lat="46.78259" lon="-2.07053">
        <ele>6.9</ele>
        <time>2020-06-04T09:25:29Z</time>
      </trkpt>
      <trkpt lat="46.78261" lon="-2.07058">
        <ele>6.9</ele>
        <time>2020-06-04T09:25:30Z</time>
      </trkpt>
      <trkpt lat="46.78264" lon="-2.07062">
        <ele>6.9</ele>
        <time>2020-06-04T09:25:31Z</time>
      </trkpt>
      <trkpt lat="46.78266" lon="-2.07067">
        <ele>6.9</ele>
        <time>2020-06-04T09:25:32Z</time>
      </trkpt>
      <trkpt lat="46.78269" lon="-2.07072">
        <ele>6.9</ele>
        <time>2020-06-04T09:25:33Z</time>
      </trkpt>
      <trkpt lat="46.78271" lon="-2.07077">
        <ele>6.9</ele>
        <time>2020-06-04T09:25:34Z</time>
      </trkpt>
      <trkpt lat="46.78274" lon="-2.07083">
        <ele>6.9</ele>
        <time>2020-06-04T09:25:35Z</time>
      </trkpt>
      <trkpt lat="46.78276" lon="-2.07087">
        <ele>6.9</ele>
        <time>2020-06-04T09:25:36Z</time>
      </trkpt>
      <trkpt lat="46.78279" lon="-2.07091">
        <ele>6.9</ele>
        <time>2020-06-04T09:25:37Z</time>
      </trkpt>
      <trkpt lat="46.78281" lon="-2.07097">
        <ele>6.9</ele>
        <time>2020-06-04T09:25:38Z</time>
      </trkpt>
      <trkpt lat="46.78283" lon="-2.07103">
        <ele>6.9</ele>
        <time>2020-06-04T09:25:39Z</time>
      </trkpt>
      <trkpt lat="46.78285" lon="-2.07109">
        <ele>6.9</ele>
        <time>2020-06-04T09:25:40Z</time>
      </trkpt>
      <trkpt lat="46.78287" lon="-2.07114">
        <ele>6.9</ele>
        <time>2020-06-04T09:25:41Z</time>
      </trkpt>
      <trkpt lat="46.78289" lon="-2.0712">
        <ele>6.9</ele>
        <time>2020-06-04T09:25:42Z</time>
      </trkpt>
      <trkpt lat="46.78293" lon="-2.07124">
        <ele>6.9</ele>
        <time>2020-06-04T09:25:43Z</time>
      </trkpt>
      <trkpt lat="46.78295" lon="-2.07129">
        <ele>6.9</ele>
        <time>2020-06-04T09:25:44Z</time>
      </trkpt>
      <trkpt lat="46.78298" lon="-2.07134">
        <ele>6.9</ele>
        <time>2020-06-04T09:25:45Z</time>
      </trkpt>
      <trkpt lat="46.783" lon="-2.07139">
        <ele>6.9</ele>
        <time>2020-06-04T09:25:46Z</time>
      </trkpt>
      <trkpt lat="46.78302" lon="-2.07144">
        <ele>6.9</ele>
        <time>2020-06-04T09:25:47Z</time>
      </trkpt>
      <trkpt lat="46.78304" lon="-2.07149">
        <ele>6.9</ele>
        <time>2020-06-04T09:25:48Z</time>
      </trkpt>
      <trkpt lat="46.78307" lon="-2.07153">
        <ele>6.9</ele>
        <time>2020-06-04T09:25:49Z</time>
      </trkpt>
      <trkpt lat="46.78309" lon="-2.07157">
        <ele>6.9</ele>
        <time>2020-06-04T09:25:50Z</time>
      </trkpt>
      <trkpt lat="46.78311" lon="-2.07162">
        <ele>6.8</ele>
        <time>2020-06-04T09:25:51Z</time>
      </trkpt>
      <trkpt lat="46.78313" lon="-2.07167">
        <ele>6.8</ele>
        <time>2020-06-04T09:25:52Z</time>
      </trkpt>
      <trkpt lat="46.78315" lon="-2.07171">
        <ele>6.8</ele>
        <time>2020-06-04T09:25:53Z</time>
      </trkpt>
      <trkpt lat="46.78317" lon="-2.07177">
        <ele>6.8</ele>
        <time>2020-06-04T09:25:54Z</time>
      </trkpt>
      <trkpt lat="46.78319" lon="-2.07182">
        <ele>6.9</ele>
        <time>2020-06-04T09:25:55Z</time>
      </trkpt>
      <trkpt lat="46.78322" lon="-2.07187">
        <ele>6.9</ele>
        <time>2020-06-04T09:25:56Z</time>
      </trkpt>
      <trkpt lat="46.78324" lon="-2.07192">
        <ele>6.9</ele>
        <time>2020-06-04T09:25:57Z</time>
      </trkpt>
      <trkpt lat="46.78326" lon="-2.07196">
        <ele>6.9</ele>
        <time>2020-06-04T09:25:58Z</time>
      </trkpt>
      <trkpt lat="46.78329" lon="-2.07201">
        <ele>6.9</ele>
        <time>2020-06-04T09:25:59Z</time>
      </trkpt>
      <trkpt lat="46.78331" lon="-2.07207">
        <ele>6.9</ele>
        <time>2020-06-04T09:26:00Z</time>
      </trkpt>
      <trkpt lat="46.78333" lon="-2.07212">
        <ele>6.9</ele>
        <time>2020-06-04T09:26:01Z</time>
      </trkpt>
      <trkpt lat="46.78336" lon="-2.07217">
        <ele>6.9</ele>
        <time>2020-06-04T09:26:02Z</time>
      </trkpt>
      <trkpt lat="46.78339" lon="-2.07222">
        <ele>6.9</ele>
        <time>2020-06-04T09:26:03Z</time>
      </trkpt>
      <trkpt lat="46.78341" lon="-2.07227">
        <ele>6.9</ele>
        <time>2020-06-04T09:26:04Z</time>
      </trkpt>
      <trkpt lat="46.78342" lon="-2.07233">
        <ele>6.9</ele>
        <time>2020-06-04T09:26:05Z</time>
      </trkpt>
      <trkpt lat="46.78345" lon="-2.07238">
        <ele>6.9</ele>
        <time>2020-06-04T09:26:06Z</time>
      </trkpt>
      <trkpt lat="46.78348" lon="-2.07242">
        <ele>6.9</ele>
        <time>2020-06-04T09:26:07Z</time>
      </trkpt>
      <trkpt lat="46.7835" lon="-2.07247">
        <ele>6.9</ele>
        <time>2020-06-04T09:26:08Z</time>
      </trkpt>
      <trkpt lat="46.78353" lon="-2.07252">
        <ele>6.9</ele>
        <time>2020-06-04T09:26:09Z</time>
      </trkpt>
      <trkpt lat="46.78356" lon="-2.07256">
        <ele>6.9</ele>
        <time>2020-06-04T09:26:10Z</time>
      </trkpt>
      <trkpt lat="46.78359" lon="-2.0726">
        <ele>7</ele>
        <time>2020-06-04T09:26:11Z</time>
      </trkpt>
      <trkpt lat="46.78361" lon="-2.07264">
        <ele>7</ele>
        <time>2020-06-04T09:26:12Z</time>
      </trkpt>
      <trkpt lat="46.78363" lon="-2.07269">
        <ele>7</ele>
        <time>2020-06-04T09:26:13Z</time>
      </trkpt>
      <trkpt lat="46.78366" lon="-2.07275">
        <ele>7</ele>
        <time>2020-06-04T09:26:14Z</time>
      </trkpt>
      <trkpt lat="46.78368" lon="-2.0728">
        <ele>7</ele>
        <time>2020-06-04T09:26:15Z</time>
      </trkpt>
      <trkpt lat="46.7837" lon="-2.07286">
        <ele>7</ele>
        <time>2020-06-04T09:26:16Z</time>
      </trkpt>
      <trkpt lat="46.78372" lon="-2.07292">
        <ele>7</ele>
        <time>2020-06-04T09:26:17Z</time>
      </trkpt>
      <trkpt lat="46.78375" lon="-2.07297">
        <ele>7</ele>
        <time>2020-06-04T09:26:18Z</time>
      </trkpt>
      <trkpt lat="46.78378" lon="-2.07303">
        <ele>7</ele>
        <time>2020-06-04T09:26:19Z</time>
      </trkpt>
      <trkpt lat="46.7838" lon="-2.07308">
        <ele>7</ele>
        <time>2020-06-04T09:26:20Z</time>
      </trkpt>
      <trkpt lat="46.78383" lon="-2.07313">
        <ele>7</ele>
        <time>2020-06-04T09:26:21Z</time>
      </trkpt>
      <trkpt lat="46.78386" lon="-2.07317">
        <ele>6.9</ele>
        <time>2020-06-04T09:26:22Z</time>
      </trkpt>
      <trkpt lat="46.78388" lon="-2.07322">
        <ele>6.9</ele>
        <time>2020-06-04T09:26:23Z</time>
      </trkpt>
      <trkpt lat="46.7839" lon="-2.07327">
        <ele>6.9</ele>
        <time>2020-06-04T09:26:24Z</time>
      </trkpt>
      <trkpt lat="46.78392" lon="-2.07332">
        <ele>6.9</ele>
        <time>2020-06-04T09:26:25Z</time>
      </trkpt>
      <trkpt lat="46.78395" lon="-2.07338">
        <ele>6.9</ele>
        <time>2020-06-04T09:26:26Z</time>
      </trkpt>
      <trkpt lat="46.78397" lon="-2.07344">
        <ele>6.8</ele>
        <time>2020-06-04T09:26:27Z</time>
      </trkpt>
      <trkpt lat="46.78399" lon="-2.07349">
        <ele>6.8</ele>
        <time>2020-06-04T09:26:28Z</time>
      </trkpt>
      <trkpt lat="46.78401" lon="-2.07354">
        <ele>6.8</ele>
        <time>2020-06-04T09:26:29Z</time>
      </trkpt>
      <trkpt lat="46.78403" lon="-2.0736">
        <ele>6.7</ele>
        <time>2020-06-04T09:26:30Z</time>
      </trkpt>
      <trkpt lat="46.78405" lon="-2.07365">
        <ele>6.7</ele>
        <time>2020-06-04T09:26:31Z</time>
      </trkpt>
      <trkpt lat="46.78407" lon="-2.07371">
        <ele>6.7</ele>
        <time>2020-06-04T09:26:32Z</time>
      </trkpt>
      <trkpt lat="46.7841" lon="-2.07376">
        <ele>6.6</ele>
        <time>2020-06-04T09:26:33Z</time>
      </trkpt>
      <trkpt lat="46.78412" lon="-2.07383">
        <ele>6.6</ele>
        <time>2020-06-04T09:26:34Z</time>
      </trkpt>
      <trkpt lat="46.78415" lon="-2.07388">
        <ele>6.5</ele>
        <time>2020-06-04T09:26:35Z</time>
      </trkpt>
      <trkpt lat="46.78418" lon="-2.07393">
        <ele>6.5</ele>
        <time>2020-06-04T09:26:36Z</time>
      </trkpt>
      <trkpt lat="46.7842" lon="-2.07399">
        <ele>6.4</ele>
        <time>2020-06-04T09:26:37Z</time>
      </trkpt>
      <trkpt lat="46.78423" lon="-2.07404">
        <ele>6.4</ele>
        <time>2020-06-04T09:26:38Z</time>
      </trkpt>
      <trkpt lat="46.78426" lon="-2.0741">
        <ele>6.3</ele>
        <time>2020-06-04T09:26:39Z</time>
      </trkpt>
      <trkpt lat="46.78428" lon="-2.07416">
        <ele>6.2</ele>
        <time>2020-06-04T09:26:40Z</time>
      </trkpt>
      <trkpt lat="46.7843" lon="-2.07422">
        <ele>6.2</ele>
        <time>2020-06-04T09:26:41Z</time>
      </trkpt>
      <trkpt lat="46.78433" lon="-2.07428">
        <ele>6.1</ele>
        <time>2020-06-04T09:26:42Z</time>
      </trkpt>
      <trkpt lat="46.78436" lon="-2.07434">
        <ele>6.1</ele>
        <time>2020-06-04T09:26:43Z</time>
      </trkpt>
      <trkpt lat="46.78438" lon="-2.0744">
        <ele>6</ele>
        <time>2020-06-04T09:26:44Z</time>
      </trkpt>
      <trkpt lat="46.78441" lon="-2.07446">
        <ele>6</ele>
        <time>2020-06-04T09:26:45Z</time>
      </trkpt>
      <trkpt lat="46.78443" lon="-2.07453">
        <ele>5.9</ele>
        <time>2020-06-04T09:26:46Z</time>
      </trkpt>
      <trkpt lat="46.78445" lon="-2.07458">
        <ele>5.9</ele>
        <time>2020-06-04T09:26:47Z</time>
      </trkpt>
      <trkpt lat="46.78447" lon="-2.07464">
        <ele>5.8</ele>
        <time>2020-06-04T09:26:48Z</time>
      </trkpt>
      <trkpt lat="46.78449" lon="-2.0747">
        <ele>5.7</ele>
        <time>2020-06-04T09:26:49Z</time>
      </trkpt>
      <trkpt lat="46.78451" lon="-2.07474">
        <ele>5.7</ele>
        <time>2020-06-04T09:26:50Z</time>
      </trkpt>
      <trkpt lat="46.78454" lon="-2.07479">
        <ele>5.6</ele>
        <time>2020-06-04T09:26:51Z</time>
      </trkpt>
      <trkpt lat="46.78457" lon="-2.07484">
        <ele>5.6</ele>
        <time>2020-06-04T09:26:52Z</time>
      </trkpt>
      <trkpt lat="46.78459" lon="-2.07489">
        <ele>5.5</ele>
        <time>2020-06-04T09:26:53Z</time>
      </trkpt>
      <trkpt lat="46.78461" lon="-2.07494">
        <ele>5.5</ele>
        <time>2020-06-04T09:26:54Z</time>
      </trkpt>
      <trkpt lat="46.78463" lon="-2.075">
        <ele>5.4</ele>
        <time>2020-06-04T09:26:55Z</time>
      </trkpt>
      <trkpt lat="46.78465" lon="-2.07505">
        <ele>5.4</ele>
        <time>2020-06-04T09:26:56Z</time>
      </trkpt>
      <trkpt lat="46.78469" lon="-2.07512">
        <ele>5.4</ele>
        <time>2020-06-04T09:26:57Z</time>
      </trkpt>
      <trkpt lat="46.78471" lon="-2.07519">
        <ele>5.3</ele>
        <time>2020-06-04T09:26:58Z</time>
      </trkpt>
      <trkpt lat="46.78473" lon="-2.07525">
        <ele>5.3</ele>
        <time>2020-06-04T09:26:59Z</time>
      </trkpt>
      <trkpt lat="46.78476" lon="-2.07533">
        <ele>5.3</ele>
        <time>2020-06-04T09:27:00Z</time>
      </trkpt>
      <trkpt lat="46.7848" lon="-2.07541">
        <ele>5.3</ele>
        <time>2020-06-04T09:27:01Z</time>
      </trkpt>
      <trkpt lat="46.78482" lon="-2.07548">
        <ele>5.2</ele>
        <time>2020-06-04T09:27:02Z</time>
      </trkpt>
      <trkpt lat="46.78483" lon="-2.07555">
        <ele>5.2</ele>
        <time>2020-06-04T09:27:03Z</time>
      </trkpt>
      <trkpt lat="46.78485" lon="-2.07561">
        <ele>5.2</ele>
        <time>2020-06-04T09:27:04Z</time>
      </trkpt>
      <trkpt lat="46.78488" lon="-2.07567">
        <ele>5.2</ele>
        <time>2020-06-04T09:27:05Z</time>
      </trkpt>
      <trkpt lat="46.7849" lon="-2.07573">
        <ele>5.2</ele>
        <time>2020-06-04T09:27:06Z</time>
      </trkpt>
      <trkpt lat="46.78494" lon="-2.07577">
        <ele>5.2</ele>
        <time>2020-06-04T09:27:07Z</time>
      </trkpt>
      <trkpt lat="46.78496" lon="-2.07582">
        <ele>5.2</ele>
        <time>2020-06-04T09:27:08Z</time>
      </trkpt>
      <trkpt lat="46.78499" lon="-2.07587">
        <ele>5.2</ele>
        <time>2020-06-04T09:27:09Z</time>
      </trkpt>
      <trkpt lat="46.78503" lon="-2.07592">
        <ele>5.3</ele>
        <time>2020-06-04T09:27:10Z</time>
      </trkpt>
      <trkpt lat="46.78507" lon="-2.07595">
        <ele>5.4</ele>
        <time>2020-06-04T09:27:11Z</time>
      </trkpt>
      <trkpt lat="46.7851" lon="-2.07599">
        <ele>5.5</ele>
        <time>2020-06-04T09:27:12Z</time>
      </trkpt>
      <trkpt lat="46.78512" lon="-2.07604">
        <ele>5.6</ele>
        <time>2020-06-04T09:27:13Z</time>
      </trkpt>
      <trkpt lat="46.78515" lon="-2.07608">
        <ele>5.6</ele>
        <time>2020-06-04T09:27:14Z</time>
      </trkpt>
      <trkpt lat="46.78517" lon="-2.07613">
        <ele>5.9</ele>
        <time>2020-06-04T09:27:15Z</time>
      </trkpt>
      <trkpt lat="46.7852" lon="-2.07618">
        <ele>5.9</ele>
        <time>2020-06-04T09:27:16Z</time>
      </trkpt>
      <trkpt lat="46.78522" lon="-2.07623">
        <ele>6</ele>
        <time>2020-06-04T09:27:17Z</time>
      </trkpt>
      <trkpt lat="46.78524" lon="-2.07628">
        <ele>6</ele>
        <time>2020-06-04T09:27:18Z</time>
      </trkpt>
      <trkpt lat="46.78526" lon="-2.07633">
        <ele>6.1</ele>
        <time>2020-06-04T09:27:19Z</time>
      </trkpt>
      <trkpt lat="46.78528" lon="-2.07638">
        <ele>6.2</ele>
        <time>2020-06-04T09:27:20Z</time>
      </trkpt>
      <trkpt lat="46.7853" lon="-2.07644">
        <ele>6.2</ele>
        <time>2020-06-04T09:27:21Z</time>
      </trkpt>
      <trkpt lat="46.78532" lon="-2.07649">
        <ele>6.3</ele>
        <time>2020-06-04T09:27:22Z</time>
      </trkpt>
      <trkpt lat="46.78534" lon="-2.07654">
        <ele>6.3</ele>
        <time>2020-06-04T09:27:23Z</time>
      </trkpt>
      <trkpt lat="46.78534" lon="-2.07658">
        <ele>6.4</ele>
        <time>2020-06-04T09:27:24Z</time>
      </trkpt>
      <trkpt lat="46.78536" lon="-2.07663">
        <ele>6.4</ele>
        <time>2020-06-04T09:27:25Z</time>
      </trkpt>
      <trkpt lat="46.78538" lon="-2.07668">
        <ele>6.4</ele>
        <time>2020-06-04T09:27:26Z</time>
      </trkpt>
      <trkpt lat="46.7854" lon="-2.07672">
        <ele>6.4</ele>
        <time>2020-06-04T09:27:27Z</time>
      </trkpt>
      <trkpt lat="46.78543" lon="-2.07677">
        <ele>6.4</ele>
        <time>2020-06-04T09:27:28Z</time>
      </trkpt>
      <trkpt lat="46.78545" lon="-2.07682">
        <ele>6.5</ele>
        <time>2020-06-04T09:27:29Z</time>
      </trkpt>
      <trkpt lat="46.78549" lon="-2.07687">
        <ele>6.5</ele>
        <time>2020-06-04T09:27:30Z</time>
      </trkpt>
      <trkpt lat="46.78553" lon="-2.07691">
        <ele>6.5</ele>
        <time>2020-06-04T09:27:31Z</time>
      </trkpt>
      <trkpt lat="46.78555" lon="-2.07697">
        <ele>6.5</ele>
        <time>2020-06-04T09:27:32Z</time>
      </trkpt>
      <trkpt lat="46.78556" lon="-2.07702">
        <ele>6.6</ele>
        <time>2020-06-04T09:27:33Z</time>
      </trkpt>
      <trkpt lat="46.78558" lon="-2.07707">
        <ele>6.6</ele>
        <time>2020-06-04T09:27:34Z</time>
      </trkpt>
      <trkpt lat="46.78561" lon="-2.07712">
        <ele>6.6</ele>
        <time>2020-06-04T09:27:35Z</time>
      </trkpt>
      <trkpt lat="46.78562" lon="-2.07715">
        <ele>6.6</ele>
        <time>2020-06-04T09:27:36Z</time>
      </trkpt>
      <trkpt lat="46.78564" lon="-2.07719">
        <ele>6.6</ele>
        <time>2020-06-04T09:27:37Z</time>
      </trkpt>
      <trkpt lat="46.78565" lon="-2.07724">
        <ele>6.7</ele>
        <time>2020-06-04T09:27:38Z</time>
      </trkpt>
      <trkpt lat="46.78566" lon="-2.07729">
        <ele>6.7</ele>
        <time>2020-06-04T09:27:39Z</time>
      </trkpt>
      <trkpt lat="46.78568" lon="-2.07734">
        <ele>6.7</ele>
        <time>2020-06-04T09:27:40Z</time>
      </trkpt>
      <trkpt lat="46.7857" lon="-2.07739">
        <ele>6.7</ele>
        <time>2020-06-04T09:27:41Z</time>
      </trkpt>
      <trkpt lat="46.78571" lon="-2.07744">
        <ele>6.7</ele>
        <time>2020-06-04T09:27:42Z</time>
      </trkpt>
      <trkpt lat="46.78572" lon="-2.07749">
        <ele>6.7</ele>
        <time>2020-06-04T09:27:43Z</time>
      </trkpt>
      <trkpt lat="46.78575" lon="-2.07751">
        <ele>6.7</ele>
        <time>2020-06-04T09:27:44Z</time>
      </trkpt>
      <trkpt lat="46.78577" lon="-2.07756">
        <ele>6.7</ele>
        <time>2020-06-04T09:27:45Z</time>
      </trkpt>
      <trkpt lat="46.78577" lon="-2.07758">
        <ele>6.7</ele>
        <time>2020-06-04T09:27:46Z</time>
      </trkpt>
      <trkpt lat="46.7858" lon="-2.07762">
        <ele>6.7</ele>
        <time>2020-06-04T09:27:47Z</time>
      </trkpt>
      <trkpt lat="46.78581" lon="-2.07765">
        <ele>6.7</ele>
        <time>2020-06-04T09:27:48Z</time>
      </trkpt>
      <trkpt lat="46.78583" lon="-2.0777">
        <ele>6.7</ele>
        <time>2020-06-04T09:27:49Z</time>
      </trkpt>
      <trkpt lat="46.78584" lon="-2.07771">
        <ele>6.7</ele>
        <time>2020-06-04T09:27:50Z</time>
      </trkpt>
      <trkpt lat="46.78586" lon="-2.07775">
        <ele>6.7</ele>
        <time>2020-06-04T09:27:51Z</time>
      </trkpt>
      <trkpt lat="46.78588" lon="-2.07777">
        <ele>6.7</ele>
        <time>2020-06-04T09:27:52Z</time>
      </trkpt>
      <trkpt lat="46.78589" lon="-2.07783">
        <ele>6.7</ele>
        <time>2020-06-04T09:27:53Z</time>
      </trkpt>
      <trkpt lat="46.7859" lon="-2.07785">
        <ele>6.8</ele>
        <time>2020-06-04T09:27:54Z</time>
      </trkpt>
      <trkpt lat="46.78593" lon="-2.07788">
        <ele>6.8</ele>
        <time>2020-06-04T09:27:55Z</time>
      </trkpt>
      <trkpt lat="46.78593" lon="-2.07794">
        <ele>6.8</ele>
        <time>2020-06-04T09:27:56Z</time>
      </trkpt>
      <trkpt lat="46.78594" lon="-2.07798">
        <ele>6.8</ele>
        <time>2020-06-04T09:27:57Z</time>
      </trkpt>
      <trkpt lat="46.78596" lon="-2.07802">
        <ele>6.8</ele>
        <time>2020-06-04T09:27:58Z</time>
      </trkpt>
      <trkpt lat="46.78598" lon="-2.07806">
        <ele>6.8</ele>
        <time>2020-06-04T09:27:59Z</time>
      </trkpt>
      <trkpt lat="46.786" lon="-2.0781">
        <ele>6.8</ele>
        <time>2020-06-04T09:28:00Z</time>
      </trkpt>
      <trkpt lat="46.78602" lon="-2.07815">
        <ele>6.8</ele>
        <time>2020-06-04T09:28:01Z</time>
      </trkpt>
      <trkpt lat="46.78603" lon="-2.07819">
        <ele>6.8</ele>
        <time>2020-06-04T09:28:02Z</time>
      </trkpt>
      <trkpt lat="46.78606" lon="-2.07824">
        <ele>6.8</ele>
        <time>2020-06-04T09:28:03Z</time>
      </trkpt>
      <trkpt lat="46.78606" lon="-2.0783">
        <ele>6.8</ele>
        <time>2020-06-04T09:28:04Z</time>
      </trkpt>
      <trkpt lat="46.78608" lon="-2.07834">
        <ele>6.8</ele>
        <time>2020-06-04T09:28:05Z</time>
      </trkpt>
      <trkpt lat="46.78609" lon="-2.07839">
        <ele>6.8</ele>
        <time>2020-06-04T09:28:06Z</time>
      </trkpt>
      <trkpt lat="46.78611" lon="-2.07843">
        <ele>6.8</ele>
        <time>2020-06-04T09:28:07Z</time>
      </trkpt>
      <trkpt lat="46.78613" lon="-2.07848">
        <ele>6.8</ele>
        <time>2020-06-04T09:28:08Z</time>
      </trkpt>
      <trkpt lat="46.78616" lon="-2.07852">
        <ele>6.8</ele>
        <time>2020-06-04T09:28:09Z</time>
      </trkpt>
      <trkpt lat="46.78618" lon="-2.07858">
        <ele>6.8</ele>
        <time>2020-06-04T09:28:10Z</time>
      </trkpt>
      <trkpt lat="46.7862" lon="-2.07862">
        <ele>6.8</ele>
        <time>2020-06-04T09:28:11Z</time>
      </trkpt>
      <trkpt lat="46.78622" lon="-2.07867">
        <ele>6.8</ele>
        <time>2020-06-04T09:28:12Z</time>
      </trkpt>
      <trkpt lat="46.78624" lon="-2.07872">
        <ele>6.8</ele>
        <time>2020-06-04T09:28:13Z</time>
      </trkpt>
      <trkpt lat="46.78625" lon="-2.07877">
        <ele>6.8</ele>
        <time>2020-06-04T09:28:14Z</time>
      </trkpt>
      <trkpt lat="46.78627" lon="-2.07882">
        <ele>6.8</ele>
        <time>2020-06-04T09:28:15Z</time>
      </trkpt>
      <trkpt lat="46.78629" lon="-2.07886">
        <ele>6.8</ele>
        <time>2020-06-04T09:28:16Z</time>
      </trkpt>
      <trkpt lat="46.78631" lon="-2.0789">
        <ele>6.8</ele>
        <time>2020-06-04T09:28:17Z</time>
      </trkpt>
      <trkpt lat="46.78633" lon="-2.07894">
        <ele>6.8</ele>
        <time>2020-06-04T09:28:18Z</time>
      </trkpt>
      <trkpt lat="46.78634" lon="-2.07899">
        <ele>6.8</ele>
        <time>2020-06-04T09:28:19Z</time>
      </trkpt>
      <trkpt lat="46.78637" lon="-2.07905">
        <ele>6.8</ele>
        <time>2020-06-04T09:28:20Z</time>
      </trkpt>
      <trkpt lat="46.78639" lon="-2.0791">
        <ele>6.7</ele>
        <time>2020-06-04T09:28:21Z</time>
      </trkpt>
      <trkpt lat="46.7864" lon="-2.07916">
        <ele>6.7</ele>
        <time>2020-06-04T09:28:22Z</time>
      </trkpt>
      <trkpt lat="46.78642" lon="-2.07922">
        <ele>6.6</ele>
        <time>2020-06-04T09:28:23Z</time>
      </trkpt>
      <trkpt lat="46.78644" lon="-2.07926">
        <ele>6.6</ele>
        <time>2020-06-04T09:28:24Z</time>
      </trkpt>
      <trkpt lat="46.78645" lon="-2.0793">
        <ele>6.5</ele>
        <time>2020-06-04T09:28:25Z</time>
      </trkpt>
      <trkpt lat="46.78647" lon="-2.07935">
        <ele>6.5</ele>
        <time>2020-06-04T09:28:26Z</time>
      </trkpt>
      <trkpt lat="46.78649" lon="-2.07941">
        <ele>6.5</ele>
        <time>2020-06-04T09:28:27Z</time>
      </trkpt>
      <trkpt lat="46.78652" lon="-2.07946">
        <ele>6.4</ele>
        <time>2020-06-04T09:28:28Z</time>
      </trkpt>
      <trkpt lat="46.78653" lon="-2.07952">
        <ele>6.4</ele>
        <time>2020-06-04T09:28:29Z</time>
      </trkpt>
      <trkpt lat="46.78655" lon="-2.07957">
        <ele>6.3</ele>
        <time>2020-06-04T09:28:30Z</time>
      </trkpt>
      <trkpt lat="46.78657" lon="-2.07963">
        <ele>6.3</ele>
        <time>2020-06-04T09:28:31Z</time>
      </trkpt>
      <trkpt lat="46.78658" lon="-2.07968">
        <ele>6.3</ele>
        <time>2020-06-04T09:28:32Z</time>
      </trkpt>
      <trkpt lat="46.7866" lon="-2.07973">
        <ele>5.9</ele>
        <time>2020-06-04T09:28:33Z</time>
      </trkpt>
      <trkpt lat="46.78661" lon="-2.07978">
        <ele>5.9</ele>
        <time>2020-06-04T09:28:34Z</time>
      </trkpt>
      <trkpt lat="46.78663" lon="-2.07982">
        <ele>5.9</ele>
        <time>2020-06-04T09:28:35Z</time>
      </trkpt>
      <trkpt lat="46.78664" lon="-2.07987">
        <ele>5.9</ele>
        <time>2020-06-04T09:28:36Z</time>
      </trkpt>
      <trkpt lat="46.78665" lon="-2.07989">
        <ele>5.9</ele>
        <time>2020-06-04T09:28:37Z</time>
      </trkpt>
      <trkpt lat="46.78667" lon="-2.07994">
        <ele>5.9</ele>
        <time>2020-06-04T09:28:38Z</time>
      </trkpt>
      <trkpt lat="46.7867" lon="-2.07999">
        <ele>5.9</ele>
        <time>2020-06-04T09:28:39Z</time>
      </trkpt>
      <trkpt lat="46.78672" lon="-2.08003">
        <ele>6</ele>
        <time>2020-06-04T09:28:40Z</time>
      </trkpt>
      <trkpt lat="46.78674" lon="-2.08008">
        <ele>6</ele>
        <time>2020-06-04T09:28:41Z</time>
      </trkpt>
      <trkpt lat="46.78676" lon="-2.08013">
        <ele>6</ele>
        <time>2020-06-04T09:28:42Z</time>
      </trkpt>
      <trkpt lat="46.78678" lon="-2.08018">
        <ele>6</ele>
        <time>2020-06-04T09:28:43Z</time>
      </trkpt>
      <trkpt lat="46.78681" lon="-2.08023">
        <ele>6</ele>
        <time>2020-06-04T09:28:44Z</time>
      </trkpt>
      <trkpt lat="46.78684" lon="-2.08029">
        <ele>6</ele>
        <time>2020-06-04T09:28:45Z</time>
      </trkpt>
      <trkpt lat="46.78686" lon="-2.08034">
        <ele>5.9</ele>
        <time>2020-06-04T09:28:46Z</time>
      </trkpt>
      <trkpt lat="46.78689" lon="-2.0804">
        <ele>5.9</ele>
        <time>2020-06-04T09:28:47Z</time>
      </trkpt>
      <trkpt lat="46.78691" lon="-2.08046">
        <ele>5.8</ele>
        <time>2020-06-04T09:28:48Z</time>
      </trkpt>
      <trkpt lat="46.78694" lon="-2.08053">
        <ele>5.8</ele>
        <time>2020-06-04T09:28:49Z</time>
      </trkpt>
      <trkpt lat="46.78696" lon="-2.08059">
        <ele>5.7</ele>
        <time>2020-06-04T09:28:50Z</time>
      </trkpt>
      <trkpt lat="46.78699" lon="-2.08065">
        <ele>5.7</ele>
        <time>2020-06-04T09:28:51Z</time>
      </trkpt>
      <trkpt lat="46.78701" lon="-2.08071">
        <ele>5.6</ele>
        <time>2020-06-04T09:28:52Z</time>
      </trkpt>
      <trkpt lat="46.78704" lon="-2.08075">
        <ele>5.5</ele>
        <time>2020-06-04T09:28:53Z</time>
      </trkpt>
      <trkpt lat="46.78706" lon="-2.08081">
        <ele>5.5</ele>
        <time>2020-06-04T09:28:54Z</time>
      </trkpt>
      <trkpt lat="46.78708" lon="-2.08086">
        <ele>5.5</ele>
        <time>2020-06-04T09:28:55Z</time>
      </trkpt>
      <trkpt lat="46.78711" lon="-2.08092">
        <ele>5.5</ele>
        <time>2020-06-04T09:28:56Z</time>
      </trkpt>
      <trkpt lat="46.78714" lon="-2.08098">
        <ele>5.4</ele>
        <time>2020-06-04T09:28:57Z</time>
      </trkpt>
      <trkpt lat="46.78717" lon="-2.08103">
        <ele>5.4</ele>
        <time>2020-06-04T09:28:58Z</time>
      </trkpt>
      <trkpt lat="46.78719" lon="-2.08109">
        <ele>5.4</ele>
        <time>2020-06-04T09:28:59Z</time>
      </trkpt>
      <trkpt lat="46.78721" lon="-2.08115">
        <ele>5.3</ele>
        <time>2020-06-04T09:29:00Z</time>
      </trkpt>
      <trkpt lat="46.78724" lon="-2.08121">
        <ele>5.3</ele>
        <time>2020-06-04T09:29:01Z</time>
      </trkpt>
      <trkpt lat="46.78726" lon="-2.08127">
        <ele>5.2</ele>
        <time>2020-06-04T09:29:02Z</time>
      </trkpt>
      <trkpt lat="46.78728" lon="-2.08134">
        <ele>5.2</ele>
        <time>2020-06-04T09:29:03Z</time>
      </trkpt>
      <trkpt lat="46.78731" lon="-2.0814">
        <ele>5.1</ele>
        <time>2020-06-04T09:29:04Z</time>
      </trkpt>
      <trkpt lat="46.78733" lon="-2.08147">
        <ele>5</ele>
        <time>2020-06-04T09:29:05Z</time>
      </trkpt>
      <trkpt lat="46.78736" lon="-2.08154">
        <ele>4.9</ele>
        <time>2020-06-04T09:29:06Z</time>
      </trkpt>
      <trkpt lat="46.78739" lon="-2.0816">
        <ele>4.8</ele>
        <time>2020-06-04T09:29:07Z</time>
      </trkpt>
      <trkpt lat="46.78742" lon="-2.08167">
        <ele>4.7</ele>
        <time>2020-06-04T09:29:08Z</time>
      </trkpt>
      <trkpt lat="46.78745" lon="-2.08174">
        <ele>4.7</ele>
        <time>2020-06-04T09:29:09Z</time>
      </trkpt>
      <trkpt lat="46.78747" lon="-2.0818">
        <ele>4.6</ele>
        <time>2020-06-04T09:29:10Z</time>
      </trkpt>
      <trkpt lat="46.7875" lon="-2.08185">
        <ele>4.5</ele>
        <time>2020-06-04T09:29:11Z</time>
      </trkpt>
      <trkpt lat="46.78753" lon="-2.08192">
        <ele>4.5</ele>
        <time>2020-06-04T09:29:12Z</time>
      </trkpt>
      <trkpt lat="46.78757" lon="-2.08198">
        <ele>4.4</ele>
        <time>2020-06-04T09:29:13Z</time>
      </trkpt>
      <trkpt lat="46.7876" lon="-2.08204">
        <ele>4.4</ele>
        <time>2020-06-04T09:29:14Z</time>
      </trkpt>
      <trkpt lat="46.78763" lon="-2.0821">
        <ele>4.4</ele>
        <time>2020-06-04T09:29:15Z</time>
      </trkpt>
      <trkpt lat="46.78766" lon="-2.08216">
        <ele>4.3</ele>
        <time>2020-06-04T09:29:16Z</time>
      </trkpt>
      <trkpt lat="46.78769" lon="-2.08222">
        <ele>4.3</ele>
        <time>2020-06-04T09:29:17Z</time>
      </trkpt>
      <trkpt lat="46.78772" lon="-2.08228">
        <ele>4.2</ele>
        <time>2020-06-04T09:29:18Z</time>
      </trkpt>
      <trkpt lat="46.78776" lon="-2.08233">
        <ele>4.1</ele>
        <time>2020-06-04T09:29:19Z</time>
      </trkpt>
      <trkpt lat="46.78779" lon="-2.08239">
        <ele>4.2</ele>
        <time>2020-06-04T09:29:20Z</time>
      </trkpt>
      <trkpt lat="46.78781" lon="-2.08245">
        <ele>4.5</ele>
        <time>2020-06-04T09:29:21Z</time>
      </trkpt>
      <trkpt lat="46.78784" lon="-2.08251">
        <ele>4.5</ele>
        <time>2020-06-04T09:29:22Z</time>
      </trkpt>
      <trkpt lat="46.78787" lon="-2.08256">
        <ele>4.6</ele>
        <time>2020-06-04T09:29:23Z</time>
      </trkpt>
      <trkpt lat="46.7879" lon="-2.08262">
        <ele>4.7</ele>
        <time>2020-06-04T09:29:24Z</time>
      </trkpt>
      <trkpt lat="46.78793" lon="-2.08266">
        <ele>4.8</ele>
        <time>2020-06-04T09:29:25Z</time>
      </trkpt>
      <trkpt lat="46.78795" lon="-2.08269">
        <ele>4.8</ele>
        <time>2020-06-04T09:29:26Z</time>
      </trkpt>
      <trkpt lat="46.78797" lon="-2.08273">
        <ele>4.9</ele>
        <time>2020-06-04T09:29:27Z</time>
      </trkpt>
      <trkpt lat="46.78799" lon="-2.08277">
        <ele>4.9</ele>
        <time>2020-06-04T09:29:28Z</time>
      </trkpt>
      <trkpt lat="46.78801" lon="-2.08281">
        <ele>5</ele>
        <time>2020-06-04T09:29:29Z</time>
      </trkpt>
      <trkpt lat="46.78803" lon="-2.08285">
        <ele>5.1</ele>
        <time>2020-06-04T09:29:30Z</time>
      </trkpt>
      <trkpt lat="46.78806" lon="-2.08288">
        <ele>5.1</ele>
        <time>2020-06-04T09:29:31Z</time>
      </trkpt>
      <trkpt lat="46.78807" lon="-2.08292">
        <ele>5.2</ele>
        <time>2020-06-04T09:29:32Z</time>
      </trkpt>
      <trkpt lat="46.78807" lon="-2.08294">
        <ele>5.2</ele>
        <time>2020-06-04T09:29:33Z</time>
      </trkpt>
      <trkpt lat="46.7881" lon="-2.08299">
        <ele>5.3</ele>
        <time>2020-06-04T09:29:34Z</time>
      </trkpt>
      <trkpt lat="46.78812" lon="-2.08303">
        <ele>5.3</ele>
        <time>2020-06-04T09:29:35Z</time>
      </trkpt>
      <trkpt lat="46.78813" lon="-2.08307">
        <ele>5.4</ele>
        <time>2020-06-04T09:29:36Z</time>
      </trkpt>
      <trkpt lat="46.78815" lon="-2.08311">
        <ele>5.4</ele>
        <time>2020-06-04T09:29:37Z</time>
      </trkpt>
      <trkpt lat="46.78816" lon="-2.08316">
        <ele>5.5</ele>
        <time>2020-06-04T09:29:38Z</time>
      </trkpt>
      <trkpt lat="46.78817" lon="-2.08318">
        <ele>5.5</ele>
        <time>2020-06-04T09:29:39Z</time>
      </trkpt>
      <trkpt lat="46.78819" lon="-2.08323">
        <ele>5.6</ele>
        <time>2020-06-04T09:29:40Z</time>
      </trkpt>
      <trkpt lat="46.7882" lon="-2.08325">
        <ele>5.6</ele>
        <time>2020-06-04T09:29:41Z</time>
      </trkpt>
      <trkpt lat="46.78822" lon="-2.08329">
        <ele>5.6</ele>
        <time>2020-06-04T09:29:42Z</time>
      </trkpt>
      <trkpt lat="46.78824" lon="-2.08332">
        <ele>5.7</ele>
        <time>2020-06-04T09:29:43Z</time>
      </trkpt>
      <trkpt lat="46.78826" lon="-2.08335">
        <ele>5.7</ele>
        <time>2020-06-04T09:29:44Z</time>
      </trkpt>
      <trkpt lat="46.78828" lon="-2.08339">
        <ele>5.8</ele>
        <time>2020-06-04T09:29:45Z</time>
      </trkpt>
      <trkpt lat="46.78829" lon="-2.08343">
        <ele>5.8</ele>
        <time>2020-06-04T09:29:46Z</time>
      </trkpt>
      <trkpt lat="46.78832" lon="-2.08346">
        <ele>5.8</ele>
        <time>2020-06-04T09:29:47Z</time>
      </trkpt>
      <trkpt lat="46.78833" lon="-2.08351">
        <ele>5.9</ele>
        <time>2020-06-04T09:29:48Z</time>
      </trkpt>
      <trkpt lat="46.78835" lon="-2.08356">
        <ele>5.9</ele>
        <time>2020-06-04T09:29:49Z</time>
      </trkpt>
      <trkpt lat="46.78838" lon="-2.08359">
        <ele>6</ele>
        <time>2020-06-04T09:29:50Z</time>
      </trkpt>
      <trkpt lat="46.7884" lon="-2.08361">
        <ele>6</ele>
        <time>2020-06-04T09:29:51Z</time>
      </trkpt>
      <trkpt lat="46.78843" lon="-2.08362">
        <ele>6</ele>
        <time>2020-06-04T09:29:52Z</time>
      </trkpt>
      <trkpt lat="46.78847" lon="-2.08362">
        <ele>5.9</ele>
        <time>2020-06-04T09:29:53Z</time>
      </trkpt>
      <trkpt lat="46.7885" lon="-2.08362">
        <ele>5.9</ele>
        <time>2020-06-04T09:29:54Z</time>
      </trkpt>
      <trkpt lat="46.78855" lon="-2.08361">
        <ele>5.9</ele>
        <time>2020-06-04T09:29:55Z</time>
      </trkpt>
      <trkpt lat="46.78859" lon="-2.08361">
        <ele>5.9</ele>
        <time>2020-06-04T09:29:56Z</time>
      </trkpt>
      <trkpt lat="46.78863" lon="-2.08361">
        <ele>5.9</ele>
        <time>2020-06-04T09:29:57Z</time>
      </trkpt>
      <trkpt lat="46.78868" lon="-2.08362">
        <ele>5.9</ele>
        <time>2020-06-04T09:29:58Z</time>
      </trkpt>
      <trkpt lat="46.78872" lon="-2.08362">
        <ele>5.9</ele>
        <time>2020-06-04T09:29:59Z</time>
      </trkpt>
      <trkpt lat="46.78875" lon="-2.08365">
        <ele>5.9</ele>
        <time>2020-06-04T09:30:00Z</time>
      </trkpt>
      <trkpt lat="46.78878" lon="-2.08368">
        <ele>5.8</ele>
        <time>2020-06-04T09:30:01Z</time>
      </trkpt>
      <trkpt lat="46.78881" lon="-2.08371">
        <ele>5.8</ele>
        <time>2020-06-04T09:30:02Z</time>
      </trkpt>
      <trkpt lat="46.78884" lon="-2.08374">
        <ele>5.8</ele>
        <time>2020-06-04T09:30:03Z</time>
      </trkpt>
      <trkpt lat="46.78888" lon="-2.08374">
        <ele>5.8</ele>
        <time>2020-06-04T09:30:04Z</time>
      </trkpt>
      <trkpt lat="46.78889" lon="-2.08374">
        <ele>5.8</ele>
        <time>2020-06-04T09:30:05Z</time>
      </trkpt>
      <trkpt lat="46.78891" lon="-2.08375">
        <ele>5.8</ele>
        <time>2020-06-04T09:30:06Z</time>
      </trkpt>
      <trkpt lat="46.78895" lon="-2.08377">
        <ele>5.7</ele>
        <time>2020-06-04T09:30:07Z</time>
      </trkpt>
      <trkpt lat="46.78899" lon="-2.0838">
        <ele>5.7</ele>
        <time>2020-06-04T09:30:08Z</time>
      </trkpt>
      <trkpt lat="46.78905" lon="-2.08381">
        <ele>5.7</ele>
        <time>2020-06-04T09:30:09Z</time>
      </trkpt>
      <trkpt lat="46.78911" lon="-2.08382">
        <ele>5.6</ele>
        <time>2020-06-04T09:30:10Z</time>
      </trkpt>
      <trkpt lat="46.78915" lon="-2.08384">
        <ele>5.6</ele>
        <time>2020-06-04T09:30:11Z</time>
      </trkpt>
      <trkpt lat="46.7892" lon="-2.08389">
        <ele>5.6</ele>
        <time>2020-06-04T09:30:12Z</time>
      </trkpt>
      <trkpt lat="46.78923" lon="-2.08395">
        <ele>5.5</ele>
        <time>2020-06-04T09:30:13Z</time>
      </trkpt>
      <trkpt lat="46.78926" lon="-2.08404">
        <ele>5.5</ele>
        <time>2020-06-04T09:30:14Z</time>
      </trkpt>
      <trkpt lat="46.78925" lon="-2.08411">
        <ele>5.5</ele>
        <time>2020-06-04T09:30:15Z</time>
      </trkpt>
      <trkpt lat="46.78922" lon="-2.08416">
        <ele>5.5</ele>
        <time>2020-06-04T09:30:16Z</time>
      </trkpt>
      <trkpt lat="46.7892" lon="-2.08422">
        <ele>5.5</ele>
        <time>2020-06-04T09:30:17Z</time>
      </trkpt>
      <trkpt lat="46.78917" lon="-2.08426">
        <ele>5.5</ele>
        <time>2020-06-04T09:30:18Z</time>
      </trkpt>
      <trkpt lat="46.78915" lon="-2.0843">
        <ele>5.5</ele>
        <time>2020-06-04T09:30:19Z</time>
      </trkpt>
      <trkpt lat="46.78914" lon="-2.08434">
        <ele>5.5</ele>
        <time>2020-06-04T09:30:20Z</time>
      </trkpt>
      <trkpt lat="46.78913" lon="-2.08437">
        <ele>5.5</ele>
        <time>2020-06-04T09:30:21Z</time>
      </trkpt>
      <trkpt lat="46.78912" lon="-2.08442">
        <ele>5.5</ele>
        <time>2020-06-04T09:30:22Z</time>
      </trkpt>
      <trkpt lat="46.78912" lon="-2.08447">
        <ele>5.5</ele>
        <time>2020-06-04T09:30:23Z</time>
      </trkpt>
      <trkpt lat="46.78913" lon="-2.08449">
        <ele>5.5</ele>
        <time>2020-06-04T09:30:24Z</time>
      </trkpt>
      <trkpt lat="46.78912" lon="-2.08453">
        <ele>5.5</ele>
        <time>2020-06-04T09:30:25Z</time>
      </trkpt>
      <trkpt lat="46.78912" lon="-2.08454">
        <ele>5.5</ele>
        <time>2020-06-04T09:30:26Z</time>
      </trkpt>
      <trkpt lat="46.7891" lon="-2.08452">
        <ele>5.5</ele>
        <time>2020-06-04T09:30:27Z</time>
      </trkpt>
      <trkpt lat="46.78909" lon="-2.08451">
        <ele>5.5</ele>
        <time>2020-06-04T09:30:28Z</time>
      </trkpt>
      <trkpt lat="46.78909" lon="-2.08446">
        <ele>5.5</ele>
        <time>2020-06-04T09:30:29Z</time>
      </trkpt>
      <trkpt lat="46.78909" lon="-2.08445">
        <ele>5.5</ele>
        <time>2020-06-04T09:30:30Z</time>
      </trkpt>
      <trkpt lat="46.7891" lon="-2.08443">
        <ele>5.5</ele>
        <time>2020-06-04T09:30:31Z</time>
      </trkpt>
      <trkpt lat="46.78911" lon="-2.08441">
        <ele>5.5</ele>
        <time>2020-06-04T09:30:32Z</time>
      </trkpt>
      <trkpt lat="46.78911" lon="-2.08436">
        <ele>5.5</ele>
        <time>2020-06-04T09:30:33Z</time>
      </trkpt>
      <trkpt lat="46.78913" lon="-2.08431">
        <ele>5.5</ele>
        <time>2020-06-04T09:30:34Z</time>
      </trkpt>
      <trkpt lat="46.78913" lon="-2.08426">
        <ele>5.5</ele>
        <time>2020-06-04T09:30:35Z</time>
      </trkpt>
      <trkpt lat="46.78912" lon="-2.08422">
        <ele>5.5</ele>
        <time>2020-06-04T09:30:36Z</time>
      </trkpt>
      <trkpt lat="46.78911" lon="-2.08417">
        <ele>5.5</ele>
        <time>2020-06-04T09:30:37Z</time>
      </trkpt>
      <trkpt lat="46.78909" lon="-2.0841">
        <ele>5.5</ele>
        <time>2020-06-04T09:30:38Z</time>
      </trkpt>
      <trkpt lat="46.78908" lon="-2.08405">
        <ele>5.5</ele>
        <time>2020-06-04T09:30:39Z</time>
      </trkpt>
      <trkpt lat="46.78907" lon="-2.08399">
        <ele>5.5</ele>
        <time>2020-06-04T09:30:40Z</time>
      </trkpt>
      <trkpt lat="46.78908" lon="-2.08392">
        <ele>5.6</ele>
        <time>2020-06-04T09:30:41Z</time>
      </trkpt>
      <trkpt lat="46.78913" lon="-2.08386">
        <ele>5.6</ele>
        <time>2020-06-04T09:30:42Z</time>
      </trkpt>
      <trkpt lat="46.78917" lon="-2.08384">
        <ele>5.6</ele>
        <time>2020-06-04T09:30:43Z</time>
      </trkpt>
      <trkpt lat="46.78921" lon="-2.08381">
        <ele>5.6</ele>
        <time>2020-06-04T09:30:44Z</time>
      </trkpt>
      <trkpt lat="46.78924" lon="-2.08376">
        <ele>5.6</ele>
        <time>2020-06-04T09:30:45Z</time>
      </trkpt>
      <trkpt lat="46.78927" lon="-2.0837">
        <ele>5.6</ele>
        <time>2020-06-04T09:30:46Z</time>
      </trkpt>
      <trkpt lat="46.78931" lon="-2.08365">
        <ele>5.5</ele>
        <time>2020-06-04T09:30:47Z</time>
      </trkpt>
      <trkpt lat="46.78933" lon="-2.08359">
        <ele>5.5</ele>
        <time>2020-06-04T09:30:48Z</time>
      </trkpt>
      <trkpt lat="46.78935" lon="-2.08354">
        <ele>5.5</ele>
        <time>2020-06-04T09:30:49Z</time>
      </trkpt>
      <trkpt lat="46.78937" lon="-2.08349">
        <ele>5.5</ele>
        <time>2020-06-04T09:30:50Z</time>
      </trkpt>
      <trkpt lat="46.78938" lon="-2.08345">
        <ele>5.4</ele>
        <time>2020-06-04T09:30:51Z</time>
      </trkpt>
      <trkpt lat="46.7894" lon="-2.08345">
        <ele>5.4</ele>
        <time>2020-06-04T09:30:52Z</time>
      </trkpt>
      <trkpt lat="46.78941" lon="-2.08342">
        <ele>5.4</ele>
        <time>2020-06-04T09:30:53Z</time>
      </trkpt>
      <trkpt lat="46.78942" lon="-2.08338">
        <ele>5.4</ele>
        <time>2020-06-04T09:30:54Z</time>
      </trkpt>
      <trkpt lat="46.78942" lon="-2.08337">
        <ele>5.4</ele>
        <time>2020-06-04T09:30:55Z</time>
      </trkpt>
      <trkpt lat="46.78943" lon="-2.08335">
        <ele>5.4</ele>
        <time>2020-06-04T09:30:56Z</time>
      </trkpt>
      <trkpt lat="46.78945" lon="-2.08334">
        <ele>5.4</ele>
        <time>2020-06-04T09:30:57Z</time>
      </trkpt>
      <trkpt lat="46.78948" lon="-2.08332">
        <ele>5.4</ele>
        <time>2020-06-04T09:30:58Z</time>
      </trkpt>
      <trkpt lat="46.78949" lon="-2.08331">
        <ele>5.4</ele>
        <time>2020-06-04T09:30:59Z</time>
      </trkpt>
      <trkpt lat="46.7895" lon="-2.08328">
        <ele>5.3</ele>
        <time>2020-06-04T09:31:00Z</time>
      </trkpt>
      <trkpt lat="46.7895" lon="-2.08327">
        <ele>5.3</ele>
        <time>2020-06-04T09:31:01Z</time>
      </trkpt>
      <trkpt lat="46.7895" lon="-2.08325">
        <ele>5.3</ele>
        <time>2020-06-04T09:31:02Z</time>
      </trkpt>
      <trkpt lat="46.78951" lon="-2.08322">
        <ele>5.3</ele>
        <time>2020-06-04T09:31:03Z</time>
      </trkpt>
      <trkpt lat="46.78952" lon="-2.0832">
        <ele>5.3</ele>
        <time>2020-06-04T09:31:04Z</time>
      </trkpt>
      <trkpt lat="46.78952" lon="-2.08318">
        <ele>5.3</ele>
        <time>2020-06-04T09:31:05Z</time>
      </trkpt>
      <trkpt lat="46.78953" lon="-2.08317">
        <ele>5.3</ele>
        <time>2020-06-04T09:31:06Z</time>
      </trkpt>
      <trkpt lat="46.78953" lon="-2.08315">
        <ele>5.2</ele>
        <time>2020-06-04T09:31:07Z</time>
      </trkpt>
      <trkpt lat="46.78954" lon="-2.08314">
        <ele>5.2</ele>
        <time>2020-06-04T09:31:08Z</time>
      </trkpt>
      <trkpt lat="46.78954" lon="-2.08315">
        <ele>5.2</ele>
        <time>2020-06-04T09:31:09Z</time>
      </trkpt>
      <trkpt lat="46.78955" lon="-2.08315">
        <ele>5.2</ele>
        <time>2020-06-04T09:31:10Z</time>
      </trkpt>
      <trkpt lat="46.78955" lon="-2.08314">
        <ele>5.2</ele>
        <time>2020-06-04T09:31:11Z</time>
      </trkpt>
      <trkpt lat="46.78956" lon="-2.08313">
        <ele>5.2</ele>
        <time>2020-06-04T09:31:12Z</time>
      </trkpt>
      <trkpt lat="46.78956" lon="-2.08311">
        <ele>5.2</ele>
        <time>2020-06-04T09:31:13Z</time>
      </trkpt>
      <trkpt lat="46.78956" lon="-2.08309">
        <ele>5.1</ele>
        <time>2020-06-04T09:31:14Z</time>
      </trkpt>
      <trkpt lat="46.78957" lon="-2.08307">
        <ele>5.1</ele>
        <time>2020-06-04T09:31:15Z</time>
      </trkpt>
      <trkpt lat="46.78957" lon="-2.08306">
        <ele>5.1</ele>
        <time>2020-06-04T09:31:16Z</time>
      </trkpt>
      <trkpt lat="46.78957" lon="-2.08304">
        <ele>5.1</ele>
        <time>2020-06-04T09:31:17Z</time>
      </trkpt>
      <trkpt lat="46.78957" lon="-2.08303">
        <ele>5.1</ele>
        <time>2020-06-04T09:31:18Z</time>
      </trkpt>
      <trkpt lat="46.78959" lon="-2.08301">
        <ele>5.1</ele>
        <time>2020-06-04T09:31:19Z</time>
      </trkpt>
      <trkpt lat="46.7896" lon="-2.083">
        <ele>5.1</ele>
        <time>2020-06-04T09:31:20Z</time>
      </trkpt>
      <trkpt lat="46.78962" lon="-2.08298">
        <ele>5</ele>
        <time>2020-06-04T09:31:21Z</time>
      </trkpt>
      <trkpt lat="46.78963" lon="-2.08298">
        <ele>5</ele>
        <time>2020-06-04T09:31:22Z</time>
      </trkpt>
      <trkpt lat="46.78965" lon="-2.08299">
        <ele>5</ele>
        <time>2020-06-04T09:31:23Z</time>
      </trkpt>
      <trkpt lat="46.78966" lon="-2.08298">
        <ele>5</ele>
        <time>2020-06-04T09:31:24Z</time>
      </trkpt>
      <trkpt lat="46.78969" lon="-2.08294">
        <ele>5</ele>
        <time>2020-06-04T09:31:25Z</time>
      </trkpt>
      <trkpt lat="46.78969" lon="-2.08293">
        <ele>4.9</ele>
        <time>2020-06-04T09:31:26Z</time>
      </trkpt>
      <trkpt lat="46.78971" lon="-2.0829">
        <ele>4.9</ele>
        <time>2020-06-04T09:31:27Z</time>
      </trkpt>
      <trkpt lat="46.78973" lon="-2.08289">
        <ele>4.9</ele>
        <time>2020-06-04T09:31:28Z</time>
      </trkpt>
      <trkpt lat="46.78974" lon="-2.0829">
        <ele>4.9</ele>
        <time>2020-06-04T09:31:29Z</time>
      </trkpt>
      <trkpt lat="46.78976" lon="-2.08292">
        <ele>4.9</ele>
        <time>2020-06-04T09:31:30Z</time>
      </trkpt>
      <trkpt lat="46.78977" lon="-2.08292">
        <ele>4.8</ele>
        <time>2020-06-04T09:31:31Z</time>
      </trkpt>
      <trkpt lat="46.78978" lon="-2.08291">
        <ele>4.8</ele>
        <time>2020-06-04T09:31:32Z</time>
      </trkpt>
      <trkpt lat="46.78978" lon="-2.0829">
        <ele>4.8</ele>
        <time>2020-06-04T09:31:33Z</time>
      </trkpt>
      <trkpt lat="46.78979" lon="-2.08288">
        <ele>4.8</ele>
        <time>2020-06-04T09:31:34Z</time>
      </trkpt>
      <trkpt lat="46.78979" lon="-2.08287">
        <ele>4.8</ele>
        <time>2020-06-04T09:31:35Z</time>
      </trkpt>
      <trkpt lat="46.78979" lon="-2.08286">
        <ele>4.8</ele>
        <time>2020-06-04T09:31:36Z</time>
      </trkpt>
      <trkpt lat="46.7898" lon="-2.08286">
        <ele>4.8</ele>
        <time>2020-06-04T09:31:37Z</time>
      </trkpt>
      <trkpt lat="46.7898" lon="-2.08286">
        <ele>4.8</ele>
        <time>2020-06-04T09:31:38Z</time>
      </trkpt>
      <trkpt lat="46.7898" lon="-2.08286">
        <ele>4.8</ele>
        <time>2020-06-04T09:31:39Z</time>
      </trkpt>
      <trkpt lat="46.78981" lon="-2.08285">
        <ele>4.8</ele>
        <time>2020-06-04T09:31:40Z</time>
      </trkpt>
      <trkpt lat="46.78981" lon="-2.08285">
        <ele>4.8</ele>
        <time>2020-06-04T09:31:41Z</time>
      </trkpt>
      <trkpt lat="46.78981" lon="-2.08285">
        <ele>4.8</ele>
        <time>2020-06-04T09:31:42Z</time>
      </trkpt>
      <trkpt lat="46.78982" lon="-2.08285">
        <ele>4.8</ele>
        <time>2020-06-04T09:31:43Z</time>
      </trkpt>
      <trkpt lat="46.78982" lon="-2.08284">
        <ele>4.8</ele>
        <time>2020-06-04T09:31:44Z</time>
      </trkpt>
      <trkpt lat="46.78986" lon="-2.08285">
        <ele>4.7</ele>
        <time>2020-06-04T09:31:45Z</time>
      </trkpt>
      <trkpt lat="46.78988" lon="-2.08286">
        <ele>4.7</ele>
        <time>2020-06-04T09:31:46Z</time>
      </trkpt>
      <trkpt lat="46.78993" lon="-2.08288">
        <ele>4.6</ele>
        <time>2020-06-04T09:31:47Z</time>
      </trkpt>
      <trkpt lat="46.78998" lon="-2.08292">
        <ele>4.6</ele>
        <time>2020-06-04T09:31:48Z</time>
      </trkpt>
      <trkpt lat="46.79002" lon="-2.08295">
        <ele>4.5</ele>
        <time>2020-06-04T09:31:49Z</time>
      </trkpt>
      <trkpt lat="46.79007" lon="-2.08298">
        <ele>4.5</ele>
        <time>2020-06-04T09:31:50Z</time>
      </trkpt>
      <trkpt lat="46.79011" lon="-2.08301">
        <ele>4.5</ele>
        <time>2020-06-04T09:31:51Z</time>
      </trkpt>
      <trkpt lat="46.79015" lon="-2.08304">
        <ele>4.4</ele>
        <time>2020-06-04T09:31:52Z</time>
      </trkpt>
      <trkpt lat="46.7902" lon="-2.08306">
        <ele>4.4</ele>
        <time>2020-06-04T09:31:53Z</time>
      </trkpt>
      <trkpt lat="46.79024" lon="-2.08309">
        <ele>4.3</ele>
        <time>2020-06-04T09:31:54Z</time>
      </trkpt>
      <trkpt lat="46.79028" lon="-2.08314">
        <ele>4.3</ele>
        <time>2020-06-04T09:31:55Z</time>
      </trkpt>
      <trkpt lat="46.79033" lon="-2.08317">
        <ele>4.3</ele>
        <time>2020-06-04T09:31:56Z</time>
      </trkpt>
      <trkpt lat="46.79037" lon="-2.0832">
        <ele>4.2</ele>
        <time>2020-06-04T09:31:57Z</time>
      </trkpt>
      <trkpt lat="46.79039" lon="-2.08323">
        <ele>4.2</ele>
        <time>2020-06-04T09:31:58Z</time>
      </trkpt>
      <trkpt lat="46.79044" lon="-2.08323">
        <ele>4.1</ele>
        <time>2020-06-04T09:31:59Z</time>
      </trkpt>
      <trkpt lat="46.79049" lon="-2.08322">
        <ele>4.1</ele>
        <time>2020-06-04T09:32:00Z</time>
      </trkpt>
      <trkpt lat="46.79052" lon="-2.08317">
        <ele>4.1</ele>
        <time>2020-06-04T09:32:01Z</time>
      </trkpt>
      <trkpt lat="46.79057" lon="-2.08313">
        <ele>4</ele>
        <time>2020-06-04T09:32:02Z</time>
      </trkpt>
      <trkpt lat="46.79061" lon="-2.08309">
        <ele>4</ele>
        <time>2020-06-04T09:32:03Z</time>
      </trkpt>
      <trkpt lat="46.79065" lon="-2.08306">
        <ele>4</ele>
        <time>2020-06-04T09:32:04Z</time>
      </trkpt>
      <trkpt lat="46.79069" lon="-2.08303">
        <ele>3.9</ele>
        <time>2020-06-04T09:32:05Z</time>
      </trkpt>
      <trkpt lat="46.79073" lon="-2.08299">
        <ele>3.9</ele>
        <time>2020-06-04T09:32:06Z</time>
      </trkpt>
      <trkpt lat="46.79078" lon="-2.08295">
        <ele>3.8</ele>
        <time>2020-06-04T09:32:07Z</time>
      </trkpt>
      <trkpt lat="46.79082" lon="-2.0829">
        <ele>3.7</ele>
        <time>2020-06-04T09:32:08Z</time>
      </trkpt>
      <trkpt lat="46.79086" lon="-2.08285">
        <ele>3.7</ele>
        <time>2020-06-04T09:32:09Z</time>
      </trkpt>
      <trkpt lat="46.79091" lon="-2.08281">
        <ele>3.6</ele>
        <time>2020-06-04T09:32:10Z</time>
      </trkpt>
      <trkpt lat="46.79095" lon="-2.08276">
        <ele>3.6</ele>
        <time>2020-06-04T09:32:11Z</time>
      </trkpt>
      <trkpt lat="46.791" lon="-2.0827">
        <ele>3.6</ele>
        <time>2020-06-04T09:32:12Z</time>
      </trkpt>
      <trkpt lat="46.79103" lon="-2.08265">
        <ele>3.6</ele>
        <time>2020-06-04T09:32:13Z</time>
      </trkpt>
      <trkpt lat="46.79108" lon="-2.08259">
        <ele>3.5</ele>
        <time>2020-06-04T09:32:14Z</time>
      </trkpt>
      <trkpt lat="46.7911" lon="-2.08254">
        <ele>3.5</ele>
        <time>2020-06-04T09:32:15Z</time>
      </trkpt>
      <trkpt lat="46.79113" lon="-2.08248">
        <ele>3.5</ele>
        <time>2020-06-04T09:32:16Z</time>
      </trkpt>
      <trkpt lat="46.79116" lon="-2.08242">
        <ele>3.5</ele>
        <time>2020-06-04T09:32:17Z</time>
      </trkpt>
      <trkpt lat="46.79119" lon="-2.08237">
        <ele>3.5</ele>
        <time>2020-06-04T09:32:18Z</time>
      </trkpt>
      <trkpt lat="46.79121" lon="-2.08232">
        <ele>3.5</ele>
        <time>2020-06-04T09:32:19Z</time>
      </trkpt>
      <trkpt lat="46.79124" lon="-2.08227">
        <ele>3.5</ele>
        <time>2020-06-04T09:32:20Z</time>
      </trkpt>
      <trkpt lat="46.79127" lon="-2.08222">
        <ele>3.4</ele>
        <time>2020-06-04T09:32:21Z</time>
      </trkpt>
      <trkpt lat="46.7913" lon="-2.08217">
        <ele>3.4</ele>
        <time>2020-06-04T09:32:22Z</time>
      </trkpt>
      <trkpt lat="46.79132" lon="-2.08212">
        <ele>3.4</ele>
        <time>2020-06-04T09:32:23Z</time>
      </trkpt>
      <trkpt lat="46.79135" lon="-2.08207">
        <ele>3.4</ele>
        <time>2020-06-04T09:32:24Z</time>
      </trkpt>
      <trkpt lat="46.79138" lon="-2.08202">
        <ele>3.5</ele>
        <time>2020-06-04T09:32:25Z</time>
      </trkpt>
      <trkpt lat="46.7914" lon="-2.08198">
        <ele>3.5</ele>
        <time>2020-06-04T09:32:26Z</time>
      </trkpt>
      <trkpt lat="46.79142" lon="-2.08194">
        <ele>3.5</ele>
        <time>2020-06-04T09:32:27Z</time>
      </trkpt>
      <trkpt lat="46.79144" lon="-2.08188">
        <ele>3.5</ele>
        <time>2020-06-04T09:32:28Z</time>
      </trkpt>
      <trkpt lat="46.79147" lon="-2.08184">
        <ele>3.5</ele>
        <time>2020-06-04T09:32:29Z</time>
      </trkpt>
      <trkpt lat="46.79149" lon="-2.08179">
        <ele>3.6</ele>
        <time>2020-06-04T09:32:30Z</time>
      </trkpt>
      <trkpt lat="46.79151" lon="-2.08175">
        <ele>3.6</ele>
        <time>2020-06-04T09:32:31Z</time>
      </trkpt>
      <trkpt lat="46.79153" lon="-2.08172">
        <ele>3.7</ele>
        <time>2020-06-04T09:32:32Z</time>
      </trkpt>
      <trkpt lat="46.79155" lon="-2.08172">
        <ele>3.7</ele>
        <time>2020-06-04T09:32:33Z</time>
      </trkpt>
      <trkpt lat="46.79157" lon="-2.08172">
        <ele>3.7</ele>
        <time>2020-06-04T09:32:34Z</time>
      </trkpt>
      <trkpt lat="46.7916" lon="-2.08174">
        <ele>3.7</ele>
        <time>2020-06-04T09:32:35Z</time>
      </trkpt>
      <trkpt lat="46.79161" lon="-2.08175">
        <ele>3.7</ele>
        <time>2020-06-04T09:32:36Z</time>
      </trkpt>
      <trkpt lat="46.79164" lon="-2.08176">
        <ele>3.7</ele>
        <time>2020-06-04T09:32:37Z</time>
      </trkpt>
      <trkpt lat="46.79165" lon="-2.08176">
        <ele>3.7</ele>
        <time>2020-06-04T09:32:38Z</time>
      </trkpt>
      <trkpt lat="46.79168" lon="-2.08177">
        <ele>3.7</ele>
        <time>2020-06-04T09:32:39Z</time>
      </trkpt>
      <trkpt lat="46.79169" lon="-2.08177">
        <ele>3.7</ele>
        <time>2020-06-04T09:32:40Z</time>
      </trkpt>
      <trkpt lat="46.7917" lon="-2.08177">
        <ele>3.7</ele>
        <time>2020-06-04T09:32:41Z</time>
      </trkpt>
      <trkpt lat="46.7917" lon="-2.08178">
        <ele>3.7</ele>
        <time>2020-06-04T09:32:42Z</time>
      </trkpt>
      <trkpt lat="46.7917" lon="-2.08178">
        <ele>3.7</ele>
        <time>2020-06-04T09:32:43Z</time>
      </trkpt>
      <trkpt lat="46.7917" lon="-2.08177">
        <ele>3.7</ele>
        <time>2020-06-04T09:32:44Z</time>
      </trkpt>
      <trkpt lat="46.7917" lon="-2.08176">
        <ele>3.7</ele>
        <time>2020-06-04T09:32:45Z</time>
      </trkpt>
      <trkpt lat="46.79171" lon="-2.08174">
        <ele>3.8</ele>
        <time>2020-06-04T09:32:46Z</time>
      </trkpt>
      <trkpt lat="46.79171" lon="-2.08172">
        <ele>3.8</ele>
        <time>2020-06-04T09:32:47Z</time>
      </trkpt>
      <trkpt lat="46.79173" lon="-2.08168">
        <ele>3.8</ele>
        <time>2020-06-04T09:32:48Z</time>
      </trkpt>
      <trkpt lat="46.79173" lon="-2.08167">
        <ele>3.8</ele>
        <time>2020-06-04T09:32:49Z</time>
      </trkpt>
      <trkpt lat="46.79174" lon="-2.08162">
        <ele>3.8</ele>
        <time>2020-06-04T09:32:50Z</time>
      </trkpt>
      <trkpt lat="46.79175" lon="-2.0816">
        <ele>3.8</ele>
        <time>2020-06-04T09:32:51Z</time>
      </trkpt>
      <trkpt lat="46.79176" lon="-2.08155">
        <ele>3.8</ele>
        <time>2020-06-04T09:32:52Z</time>
      </trkpt>
      <trkpt lat="46.79177" lon="-2.0815">
        <ele>3.7</ele>
        <time>2020-06-04T09:32:53Z</time>
      </trkpt>
      <trkpt lat="46.79177" lon="-2.08149">
        <ele>3.7</ele>
        <time>2020-06-04T09:32:54Z</time>
      </trkpt>
      <trkpt lat="46.79178" lon="-2.08147">
        <ele>3.7</ele>
        <time>2020-06-04T09:32:55Z</time>
      </trkpt>
      <trkpt lat="46.79179" lon="-2.08145">
        <ele>3.7</ele>
        <time>2020-06-04T09:32:56Z</time>
      </trkpt>
      <trkpt lat="46.79179" lon="-2.08144">
        <ele>3.7</ele>
        <time>2020-06-04T09:32:57Z</time>
      </trkpt>
      <trkpt lat="46.7918" lon="-2.08144">
        <ele>3.7</ele>
        <time>2020-06-04T09:32:58Z</time>
      </trkpt>
      <trkpt lat="46.7918" lon="-2.08144">
        <ele>3.7</ele>
        <time>2020-06-04T09:32:59Z</time>
      </trkpt>
      <trkpt lat="46.7918" lon="-2.08144">
        <ele>3.7</ele>
        <time>2020-06-04T09:33:00Z</time>
      </trkpt>
      <trkpt lat="46.79181" lon="-2.08144">
        <ele>3.7</ele>
        <time>2020-06-04T09:33:01Z</time>
      </trkpt>
      <trkpt lat="46.7918" lon="-2.08144">
        <ele>3.7</ele>
        <time>2020-06-04T09:33:02Z</time>
      </trkpt>
      <trkpt lat="46.79181" lon="-2.08142">
        <ele>3.8</ele>
        <time>2020-06-04T09:33:03Z</time>
      </trkpt>
      <trkpt lat="46.79181" lon="-2.08142">
        <ele>3.8</ele>
        <time>2020-06-04T09:33:04Z</time>
      </trkpt>
      <trkpt lat="46.7918" lon="-2.08142">
        <ele>3.8</ele>
        <time>2020-06-04T09:33:05Z</time>
      </trkpt>
      <trkpt lat="46.7918" lon="-2.08142">
        <ele>3.8</ele>
        <time>2020-06-04T09:33:06Z</time>
      </trkpt>
      <trkpt lat="46.79179" lon="-2.08141">
        <ele>3.8</ele>
        <time>2020-06-04T09:33:07Z</time>
      </trkpt>
      <trkpt lat="46.79179" lon="-2.08141">
        <ele>3.8</ele>
        <time>2020-06-04T09:33:08Z</time>
      </trkpt>
      <trkpt lat="46.79179" lon="-2.0814">
        <ele>3.8</ele>
        <time>2020-06-04T09:33:09Z</time>
      </trkpt>
      <trkpt lat="46.79179" lon="-2.0814">
        <ele>3.8</ele>
        <time>2020-06-04T09:33:10Z</time>
      </trkpt>
      <trkpt lat="46.7918" lon="-2.08141">
        <ele>3.8</ele>
        <time>2020-06-04T09:33:11Z</time>
      </trkpt>
      <trkpt lat="46.7918" lon="-2.0814">
        <ele>3.8</ele>
        <time>2020-06-04T09:33:12Z</time>
      </trkpt>
      <trkpt lat="46.79181" lon="-2.08139">
        <ele>3.8</ele>
        <time>2020-06-04T09:33:13Z</time>
      </trkpt>
      <trkpt lat="46.79183" lon="-2.08137">
        <ele>3.8</ele>
        <time>2020-06-04T09:33:14Z</time>
      </trkpt>
      <trkpt lat="46.79185" lon="-2.08136">
        <ele>3.8</ele>
        <time>2020-06-04T09:34:09Z</time>
      </trkpt>
      <trkpt lat="46.79187" lon="-2.08134">
        <ele>3.8</ele>
        <time>2020-06-04T09:34:10Z</time>
      </trkpt>
      <trkpt lat="46.79189" lon="-2.08133">
        <ele>3.8</ele>
        <time>2020-06-04T09:34:11Z</time>
      </trkpt>
      <trkpt lat="46.7919" lon="-2.08129">
        <ele>3.8</ele>
        <time>2020-06-04T09:34:12Z</time>
      </trkpt>
      <trkpt lat="46.7919" lon="-2.08127">
        <ele>3.8</ele>
        <time>2020-06-04T09:34:13Z</time>
      </trkpt>
      <trkpt lat="46.79192" lon="-2.08122">
        <ele>3.8</ele>
        <time>2020-06-04T09:34:14Z</time>
      </trkpt>
      <trkpt lat="46.79193" lon="-2.0812">
        <ele>3.9</ele>
        <time>2020-06-04T09:34:15Z</time>
      </trkpt>
      <trkpt lat="46.79194" lon="-2.08116">
        <ele>3.9</ele>
        <time>2020-06-04T09:34:16Z</time>
      </trkpt>
      <trkpt lat="46.79194" lon="-2.08115">
        <ele>3.9</ele>
        <time>2020-06-04T09:34:17Z</time>
      </trkpt>
      <trkpt lat="46.79194" lon="-2.08114">
        <ele>3.9</ele>
        <time>2020-06-04T09:34:18Z</time>
      </trkpt>
      <trkpt lat="46.79195" lon="-2.08111">
        <ele>3.9</ele>
        <time>2020-06-04T09:34:19Z</time>
      </trkpt>
      <trkpt lat="46.79197" lon="-2.08105">
        <ele>3.9</ele>
        <time>2020-06-04T09:34:20Z</time>
      </trkpt>
      <trkpt lat="46.792" lon="-2.08099">
        <ele>4</ele>
        <time>2020-06-04T09:34:21Z</time>
      </trkpt>
      <trkpt lat="46.79203" lon="-2.08096">
        <ele>4</ele>
        <time>2020-06-04T09:34:22Z</time>
      </trkpt>
      <trkpt lat="46.79206" lon="-2.08092">
        <ele>4</ele>
        <time>2020-06-04T09:34:23Z</time>
      </trkpt>
      <trkpt lat="46.79209" lon="-2.08089">
        <ele>4</ele>
        <time>2020-06-04T09:34:24Z</time>
      </trkpt>
      <trkpt lat="46.79211" lon="-2.08085">
        <ele>4.1</ele>
        <time>2020-06-04T09:34:25Z</time>
      </trkpt>
      <trkpt lat="46.79214" lon="-2.08083">
        <ele>4.1</ele>
        <time>2020-06-04T09:34:26Z</time>
      </trkpt>
      <trkpt lat="46.79217" lon="-2.08082">
        <ele>4.1</ele>
        <time>2020-06-04T09:34:27Z</time>
      </trkpt>
      <trkpt lat="46.7922" lon="-2.08078">
        <ele>4.1</ele>
        <time>2020-06-04T09:34:28Z</time>
      </trkpt>
      <trkpt lat="46.79223" lon="-2.08075">
        <ele>4.1</ele>
        <time>2020-06-04T09:34:29Z</time>
      </trkpt>
      <trkpt lat="46.79226" lon="-2.08071">
        <ele>4.1</ele>
        <time>2020-06-04T09:34:30Z</time>
      </trkpt>
      <trkpt lat="46.7923" lon="-2.08068">
        <ele>4.1</ele>
        <time>2020-06-04T09:34:31Z</time>
      </trkpt>
      <trkpt lat="46.79233" lon="-2.08065">
        <ele>4.1</ele>
        <time>2020-06-04T09:34:32Z</time>
      </trkpt>
      <trkpt lat="46.79236" lon="-2.08062">
        <ele>4.1</ele>
        <time>2020-06-04T09:34:33Z</time>
      </trkpt>
      <trkpt lat="46.79238" lon="-2.0806">
        <ele>4.1</ele>
        <time>2020-06-04T09:34:34Z</time>
      </trkpt>
      <trkpt lat="46.79241" lon="-2.08057">
        <ele>4.1</ele>
        <time>2020-06-04T09:34:35Z</time>
      </trkpt>
      <trkpt lat="46.79242" lon="-2.08056">
        <ele>4.1</ele>
        <time>2020-06-04T09:34:36Z</time>
      </trkpt>
      <trkpt lat="46.79244" lon="-2.08052">
        <ele>4</ele>
        <time>2020-06-04T09:34:37Z</time>
      </trkpt>
      <trkpt lat="46.79245" lon="-2.08051">
        <ele>4</ele>
        <time>2020-06-04T09:34:38Z</time>
      </trkpt>
      <trkpt lat="46.79247" lon="-2.08048">
        <ele>4</ele>
        <time>2020-06-04T09:34:39Z</time>
      </trkpt>
      <trkpt lat="46.79251" lon="-2.08044">
        <ele>4</ele>
        <time>2020-06-04T09:34:40Z</time>
      </trkpt>
      <trkpt lat="46.79254" lon="-2.08042">
        <ele>4</ele>
        <time>2020-06-04T09:34:41Z</time>
      </trkpt>
      <trkpt lat="46.79256" lon="-2.08041">
        <ele>4</ele>
        <time>2020-06-04T09:34:42Z</time>
      </trkpt>
      <trkpt lat="46.7926" lon="-2.08039">
        <ele>3.9</ele>
        <time>2020-06-04T09:34:43Z</time>
      </trkpt>
      <trkpt lat="46.79263" lon="-2.08038">
        <ele>3.9</ele>
        <time>2020-06-04T09:34:44Z</time>
      </trkpt>
      <trkpt lat="46.79266" lon="-2.08036">
        <ele>3.9</ele>
        <time>2020-06-04T09:34:45Z</time>
      </trkpt>
      <trkpt lat="46.79269" lon="-2.08034">
        <ele>3.9</ele>
        <time>2020-06-04T09:34:46Z</time>
      </trkpt>
      <trkpt lat="46.79272" lon="-2.08031">
        <ele>3.9</ele>
        <time>2020-06-04T09:34:47Z</time>
      </trkpt>
      <trkpt lat="46.79276" lon="-2.08028">
        <ele>3.9</ele>
        <time>2020-06-04T09:34:48Z</time>
      </trkpt>
      <trkpt lat="46.79279" lon="-2.08025">
        <ele>3.9</ele>
        <time>2020-06-04T09:34:49Z</time>
      </trkpt>
      <trkpt lat="46.79282" lon="-2.0802">
        <ele>3.9</ele>
        <time>2020-06-04T09:34:50Z</time>
      </trkpt>
      <trkpt lat="46.79284" lon="-2.08015">
        <ele>3.9</ele>
        <time>2020-06-04T09:34:51Z</time>
      </trkpt>
      <trkpt lat="46.79285" lon="-2.0801">
        <ele>4</ele>
        <time>2020-06-04T09:34:52Z</time>
      </trkpt>
      <trkpt lat="46.79287" lon="-2.08005">
        <ele>4</ele>
        <time>2020-06-04T09:34:53Z</time>
      </trkpt>
      <trkpt lat="46.7929" lon="-2.08">
        <ele>4</ele>
        <time>2020-06-04T09:34:54Z</time>
      </trkpt>
      <trkpt lat="46.79292" lon="-2.07996">
        <ele>4</ele>
        <time>2020-06-04T09:34:55Z</time>
      </trkpt>
      <trkpt lat="46.79293" lon="-2.07992">
        <ele>4</ele>
        <time>2020-06-04T09:34:56Z</time>
      </trkpt>
      <trkpt lat="46.79294" lon="-2.07992">
        <ele>4</ele>
        <time>2020-06-04T09:34:57Z</time>
      </trkpt>
      <trkpt lat="46.79295" lon="-2.07991">
        <ele>4</ele>
        <time>2020-06-04T09:34:58Z</time>
      </trkpt>
      <trkpt lat="46.79297" lon="-2.07991">
        <ele>4</ele>
        <time>2020-06-04T09:34:59Z</time>
      </trkpt>
      <trkpt lat="46.79298" lon="-2.07991">
        <ele>4</ele>
        <time>2020-06-04T09:35:00Z</time>
      </trkpt>
      <trkpt lat="46.79298" lon="-2.07991">
        <ele>4</ele>
        <time>2020-06-04T09:35:01Z</time>
      </trkpt>
      <trkpt lat="46.79298" lon="-2.07991">
        <ele>4</ele>
        <time>2020-06-04T09:35:02Z</time>
      </trkpt>
      <trkpt lat="46.79299" lon="-2.07991">
        <ele>4</ele>
        <time>2020-06-04T09:35:03Z</time>
      </trkpt>
      <trkpt lat="46.79299" lon="-2.07991">
        <ele>4</ele>
        <time>2020-06-04T09:35:04Z</time>
      </trkpt>
      <trkpt lat="46.79299" lon="-2.07992">
        <ele>4</ele>
        <time>2020-06-04T09:35:05Z</time>
      </trkpt>
      <trkpt lat="46.79299" lon="-2.07993">
        <ele>3.9</ele>
        <time>2020-06-04T09:35:06Z</time>
      </trkpt>
      <trkpt lat="46.79299" lon="-2.07994">
        <ele>3.9</ele>
        <time>2020-06-04T09:35:07Z</time>
      </trkpt>
      <trkpt lat="46.79299" lon="-2.07994">
        <ele>3.9</ele>
        <time>2020-06-04T09:35:08Z</time>
      </trkpt>
      <trkpt lat="46.79298" lon="-2.07995">
        <ele>3.9</ele>
        <time>2020-06-04T09:35:09Z</time>
      </trkpt>
      <trkpt lat="46.79299" lon="-2.07995">
        <ele>3.9</ele>
        <time>2020-06-04T09:35:10Z</time>
      </trkpt>
      <trkpt lat="46.79299" lon="-2.07994">
        <ele>3.9</ele>
        <time>2020-06-04T09:35:11Z</time>
      </trkpt>
      <trkpt lat="46.79299" lon="-2.07993">
        <ele>3.9</ele>
        <time>2020-06-04T09:35:12Z</time>
      </trkpt>
      <trkpt lat="46.79299" lon="-2.07992">
        <ele>3.9</ele>
        <time>2020-06-04T09:35:13Z</time>
      </trkpt>
      <trkpt lat="46.79299" lon="-2.07992">
        <ele>3.9</ele>
        <time>2020-06-04T09:35:14Z</time>
      </trkpt>
      <trkpt lat="46.79298" lon="-2.07992">
        <ele>3.9</ele>
        <time>2020-06-04T09:35:15Z</time>
      </trkpt>
      <trkpt lat="46.79298" lon="-2.07991">
        <ele>3.9</ele>
        <time>2020-06-04T09:35:16Z</time>
      </trkpt>
      <trkpt lat="46.79297" lon="-2.07991">
        <ele>3.9</ele>
        <time>2020-06-04T09:35:17Z</time>
      </trkpt>
      <trkpt lat="46.79296" lon="-2.0799">
        <ele>3.9</ele>
        <time>2020-06-04T09:35:18Z</time>
      </trkpt>
      <trkpt lat="46.79296" lon="-2.07991">
        <ele>3.9</ele>
        <time>2020-06-04T09:35:19Z</time>
      </trkpt>
      <trkpt lat="46.79296" lon="-2.07991">
        <ele>3.9</ele>
        <time>2020-06-04T09:35:20Z</time>
      </trkpt>
      <trkpt lat="46.79295" lon="-2.07991">
        <ele>3.9</ele>
        <time>2020-06-04T09:35:21Z</time>
      </trkpt>
      <trkpt lat="46.79295" lon="-2.07993">
        <ele>3.9</ele>
        <time>2020-06-04T09:35:22Z</time>
      </trkpt>
      <trkpt lat="46.79296" lon="-2.07994">
        <ele>3.9</ele>
        <time>2020-06-04T09:35:23Z</time>
      </trkpt>
      <trkpt lat="46.79297" lon="-2.07995">
        <ele>3.9</ele>
        <time>2020-06-04T09:35:24Z</time>
      </trkpt>
      <trkpt lat="46.79297" lon="-2.07995">
        <ele>3.9</ele>
        <time>2020-06-04T09:35:25Z</time>
      </trkpt>
      <trkpt lat="46.79297" lon="-2.07995">
        <ele>3.9</ele>
        <time>2020-06-04T09:35:26Z</time>
      </trkpt>
      <trkpt lat="46.79297" lon="-2.07995">
        <ele>3.9</ele>
        <time>2020-06-04T09:35:27Z</time>
      </trkpt>
      <trkpt lat="46.79297" lon="-2.07995">
        <ele>3.9</ele>
        <time>2020-06-04T09:35:28Z</time>
      </trkpt>
      <trkpt lat="46.79316" lon="-2.07994">
        <ele>3.9</ele>
        <time>2020-06-04T09:42:48Z</time>
      </trkpt>
      <trkpt lat="46.79316" lon="-2.07993">
        <ele>3.9</ele>
        <time>2020-06-04T09:42:49Z</time>
      </trkpt>
      <trkpt lat="46.79318" lon="-2.07991">
        <ele>3.9</ele>
        <time>2020-06-04T09:42:50Z</time>
      </trkpt>
      <trkpt lat="46.7932" lon="-2.07987">
        <ele>3.9</ele>
        <time>2020-06-04T09:42:51Z</time>
      </trkpt>
      <trkpt lat="46.79321" lon="-2.07985">
        <ele>3.9</ele>
        <time>2020-06-04T09:42:52Z</time>
      </trkpt>
      <trkpt lat="46.79323" lon="-2.07982">
        <ele>3.9</ele>
        <time>2020-06-04T09:42:53Z</time>
      </trkpt>
      <trkpt lat="46.79326" lon="-2.07977">
        <ele>3.9</ele>
        <time>2020-06-04T09:42:54Z</time>
      </trkpt>
      <trkpt lat="46.79328" lon="-2.07971">
        <ele>4</ele>
        <time>2020-06-04T09:42:55Z</time>
      </trkpt>
      <trkpt lat="46.7933" lon="-2.07966">
        <ele>4</ele>
        <time>2020-06-04T09:42:56Z</time>
      </trkpt>
      <trkpt lat="46.79332" lon="-2.07961">
        <ele>4</ele>
        <time>2020-06-04T09:42:57Z</time>
      </trkpt>
      <trkpt lat="46.79333" lon="-2.07956">
        <ele>4</ele>
        <time>2020-06-04T09:42:58Z</time>
      </trkpt>
      <trkpt lat="46.79335" lon="-2.07953">
        <ele>4.1</ele>
        <time>2020-06-04T09:42:59Z</time>
      </trkpt>
      <trkpt lat="46.79337" lon="-2.0795">
        <ele>4.1</ele>
        <time>2020-06-04T09:43:00Z</time>
      </trkpt>
      <trkpt lat="46.79339" lon="-2.07946">
        <ele>4.1</ele>
        <time>2020-06-04T09:43:01Z</time>
      </trkpt>
      <trkpt lat="46.79342" lon="-2.07945">
        <ele>4.2</ele>
        <time>2020-06-04T09:43:02Z</time>
      </trkpt>
      <trkpt lat="46.79346" lon="-2.07942">
        <ele>4.2</ele>
        <time>2020-06-04T09:43:03Z</time>
      </trkpt>
      <trkpt lat="46.7935" lon="-2.0794">
        <ele>4.3</ele>
        <time>2020-06-04T09:43:04Z</time>
      </trkpt>
      <trkpt lat="46.79353" lon="-2.07937">
        <ele>4.3</ele>
        <time>2020-06-04T09:43:05Z</time>
      </trkpt>
      <trkpt lat="46.79357" lon="-2.07934">
        <ele>4.4</ele>
        <time>2020-06-04T09:43:06Z</time>
      </trkpt>
      <trkpt lat="46.7936" lon="-2.07931">
        <ele>4.4</ele>
        <time>2020-06-04T09:43:07Z</time>
      </trkpt>
      <trkpt lat="46.79364" lon="-2.0793">
        <ele>4.5</ele>
        <time>2020-06-04T09:43:08Z</time>
      </trkpt>
      <trkpt lat="46.79369" lon="-2.07928">
        <ele>4.5</ele>
        <time>2020-06-04T09:43:09Z</time>
      </trkpt>
      <trkpt lat="46.79372" lon="-2.07926">
        <ele>4.6</ele>
        <time>2020-06-04T09:43:10Z</time>
      </trkpt>
      <trkpt lat="46.79376" lon="-2.07925">
        <ele>4.6</ele>
        <time>2020-06-04T09:43:11Z</time>
      </trkpt>
      <trkpt lat="46.7938" lon="-2.07923">
        <ele>4.6</ele>
        <time>2020-06-04T09:43:12Z</time>
      </trkpt>
      <trkpt lat="46.79385" lon="-2.07921">
        <ele>4.7</ele>
        <time>2020-06-04T09:43:13Z</time>
      </trkpt>
      <trkpt lat="46.79389" lon="-2.07918">
        <ele>4.7</ele>
        <time>2020-06-04T09:43:14Z</time>
      </trkpt>
      <trkpt lat="46.79394" lon="-2.07913">
        <ele>4.7</ele>
        <time>2020-06-04T09:43:15Z</time>
      </trkpt>
      <trkpt lat="46.79399" lon="-2.07909">
        <ele>4.7</ele>
        <time>2020-06-04T09:43:16Z</time>
      </trkpt>
      <trkpt lat="46.79403" lon="-2.07905">
        <ele>4.7</ele>
        <time>2020-06-04T09:43:17Z</time>
      </trkpt>
      <trkpt lat="46.79407" lon="-2.07903">
        <ele>4.8</ele>
        <time>2020-06-04T09:43:18Z</time>
      </trkpt>
      <trkpt lat="46.79412" lon="-2.079">
        <ele>4.8</ele>
        <time>2020-06-04T09:43:19Z</time>
      </trkpt>
      <trkpt lat="46.79416" lon="-2.07897">
        <ele>4.9</ele>
        <time>2020-06-04T09:43:20Z</time>
      </trkpt>
      <trkpt lat="46.79421" lon="-2.07892">
        <ele>5</ele>
        <time>2020-06-04T09:43:21Z</time>
      </trkpt>
      <trkpt lat="46.79425" lon="-2.07887">
        <ele>5.1</ele>
        <time>2020-06-04T09:43:22Z</time>
      </trkpt>
      <trkpt lat="46.79429" lon="-2.07882">
        <ele>5.2</ele>
        <time>2020-06-04T09:43:23Z</time>
      </trkpt>
      <trkpt lat="46.79433" lon="-2.07879">
        <ele>5.2</ele>
        <time>2020-06-04T09:43:24Z</time>
      </trkpt>
      <trkpt lat="46.79437" lon="-2.07875">
        <ele>5.3</ele>
        <time>2020-06-04T09:43:25Z</time>
      </trkpt>
      <trkpt lat="46.7944" lon="-2.07871">
        <ele>5.4</ele>
        <time>2020-06-04T09:43:26Z</time>
      </trkpt>
      <trkpt lat="46.79444" lon="-2.07867">
        <ele>5.5</ele>
        <time>2020-06-04T09:43:27Z</time>
      </trkpt>
      <trkpt lat="46.79447" lon="-2.07863">
        <ele>5.7</ele>
        <time>2020-06-04T09:43:28Z</time>
      </trkpt>
      <trkpt lat="46.79449" lon="-2.07859">
        <ele>5.8</ele>
        <time>2020-06-04T09:43:29Z</time>
      </trkpt>
      <trkpt lat="46.79451" lon="-2.07855">
        <ele>5.9</ele>
        <time>2020-06-04T09:43:30Z</time>
      </trkpt>
      <trkpt lat="46.79453" lon="-2.0785">
        <ele>6.1</ele>
        <time>2020-06-04T09:43:31Z</time>
      </trkpt>
      <trkpt lat="46.79454" lon="-2.07846">
        <ele>6.2</ele>
        <time>2020-06-04T09:43:32Z</time>
      </trkpt>
      <trkpt lat="46.79455" lon="-2.0784">
        <ele>6.4</ele>
        <time>2020-06-04T09:43:33Z</time>
      </trkpt>
      <trkpt lat="46.79457" lon="-2.07835">
        <ele>6.6</ele>
        <time>2020-06-04T09:43:34Z</time>
      </trkpt>
      <trkpt lat="46.79459" lon="-2.0783">
        <ele>6.8</ele>
        <time>2020-06-04T09:43:35Z</time>
      </trkpt>
      <trkpt lat="46.79461" lon="-2.07824">
        <ele>7</ele>
        <time>2020-06-04T09:43:36Z</time>
      </trkpt>
      <trkpt lat="46.79463" lon="-2.07818">
        <ele>7.2</ele>
        <time>2020-06-04T09:43:37Z</time>
      </trkpt>
      <trkpt lat="46.79465" lon="-2.07813">
        <ele>7.4</ele>
        <time>2020-06-04T09:43:38Z</time>
      </trkpt>
      <trkpt lat="46.79467" lon="-2.07807">
        <ele>7.7</ele>
        <time>2020-06-04T09:43:39Z</time>
      </trkpt>
      <trkpt lat="46.79469" lon="-2.07802">
        <ele>7.9</ele>
        <time>2020-06-04T09:43:40Z</time>
      </trkpt>
      <trkpt lat="46.79472" lon="-2.07797">
        <ele>8.2</ele>
        <time>2020-06-04T09:43:41Z</time>
      </trkpt>
      <trkpt lat="46.79474" lon="-2.07792">
        <ele>8.4</ele>
        <time>2020-06-04T09:43:42Z</time>
      </trkpt>
      <trkpt lat="46.79477" lon="-2.07788">
        <ele>8.7</ele>
        <time>2020-06-04T09:43:43Z</time>
      </trkpt>
      <trkpt lat="46.79481" lon="-2.07784">
        <ele>9</ele>
        <time>2020-06-04T09:43:44Z</time>
      </trkpt>
      <trkpt lat="46.79484" lon="-2.0778">
        <ele>9.2</ele>
        <time>2020-06-04T09:43:45Z</time>
      </trkpt>
      <trkpt lat="46.79487" lon="-2.07776">
        <ele>9.5</ele>
        <time>2020-06-04T09:43:46Z</time>
      </trkpt>
      <trkpt lat="46.79489" lon="-2.07772">
        <ele>9.7</ele>
        <time>2020-06-04T09:43:47Z</time>
      </trkpt>
      <trkpt lat="46.79492" lon="-2.07768">
        <ele>10</ele>
        <time>2020-06-04T09:43:48Z</time>
      </trkpt>
      <trkpt lat="46.79496" lon="-2.07766">
        <ele>10.3</ele>
        <time>2020-06-04T09:43:49Z</time>
      </trkpt>
      <trkpt lat="46.79499" lon="-2.07764">
        <ele>10.5</ele>
        <time>2020-06-04T09:43:50Z</time>
      </trkpt>
      <trkpt lat="46.79502" lon="-2.07762">
        <ele>10.8</ele>
        <time>2020-06-04T09:43:51Z</time>
      </trkpt>
      <trkpt lat="46.79505" lon="-2.0776">
        <ele>11</ele>
        <time>2020-06-04T09:43:52Z</time>
      </trkpt>
      <trkpt lat="46.79507" lon="-2.07758">
        <ele>11.2</ele>
        <time>2020-06-04T09:43:53Z</time>
      </trkpt>
      <trkpt lat="46.79511" lon="-2.07757">
        <ele>11.5</ele>
        <time>2020-06-04T09:43:54Z</time>
      </trkpt>
      <trkpt lat="46.79514" lon="-2.07756">
        <ele>11.8</ele>
        <time>2020-06-04T09:43:55Z</time>
      </trkpt>
      <trkpt lat="46.79517" lon="-2.07756">
        <ele>12.1</ele>
        <time>2020-06-04T09:43:56Z</time>
      </trkpt>
      <trkpt lat="46.79519" lon="-2.07756">
        <ele>12.2</ele>
        <time>2020-06-04T09:43:57Z</time>
      </trkpt>
      <trkpt lat="46.79522" lon="-2.07755">
        <ele>12.5</ele>
        <time>2020-06-04T09:43:58Z</time>
      </trkpt>
      <trkpt lat="46.79523" lon="-2.07755">
        <ele>12.6</ele>
        <time>2020-06-04T09:43:59Z</time>
      </trkpt>
      <trkpt lat="46.79526" lon="-2.07754">
        <ele>12.9</ele>
        <time>2020-06-04T09:44:00Z</time>
      </trkpt>
      <trkpt lat="46.79527" lon="-2.07754">
        <ele>13</ele>
        <time>2020-06-04T09:44:01Z</time>
      </trkpt>
      <trkpt lat="46.7953" lon="-2.07752">
        <ele>13.2</ele>
        <time>2020-06-04T09:44:02Z</time>
      </trkpt>
      <trkpt lat="46.79531" lon="-2.07751">
        <ele>13.3</ele>
        <time>2020-06-04T09:44:03Z</time>
      </trkpt>
      <trkpt lat="46.79532" lon="-2.07751">
        <ele>13.4</ele>
        <time>2020-06-04T09:44:04Z</time>
      </trkpt>
      <trkpt lat="46.79533" lon="-2.0775">
        <ele>13.5</ele>
        <time>2020-06-04T09:44:05Z</time>
      </trkpt>
      <trkpt lat="46.79534" lon="-2.0775">
        <ele>13.6</ele>
        <time>2020-06-04T09:44:06Z</time>
      </trkpt>
      <trkpt lat="46.79536" lon="-2.0775">
        <ele>13.7</ele>
        <time>2020-06-04T09:44:07Z</time>
      </trkpt>
      <trkpt lat="46.79537" lon="-2.0775">
        <ele>13.8</ele>
        <time>2020-06-04T09:44:08Z</time>
      </trkpt>
      <trkpt lat="46.7954" lon="-2.0775">
        <ele>14</ele>
        <time>2020-06-04T09:44:09Z</time>
      </trkpt>
      <trkpt lat="46.79541" lon="-2.0775">
        <ele>14.1</ele>
        <time>2020-06-04T09:44:10Z</time>
      </trkpt>
      <trkpt lat="46.79544" lon="-2.07751">
        <ele>14.3</ele>
        <time>2020-06-04T09:44:11Z</time>
      </trkpt>
      <trkpt lat="46.79546" lon="-2.0775">
        <ele>14.3</ele>
        <time>2020-06-04T09:44:12Z</time>
      </trkpt>
      <trkpt lat="46.79548" lon="-2.07749">
        <ele>14.4</ele>
        <time>2020-06-04T09:44:13Z</time>
      </trkpt>
      <trkpt lat="46.79549" lon="-2.07749">
        <ele>14.5</ele>
        <time>2020-06-04T09:44:14Z</time>
      </trkpt>
      <trkpt lat="46.7955" lon="-2.07749">
        <ele>14.5</ele>
        <time>2020-06-04T09:44:15Z</time>
      </trkpt>
      <trkpt lat="46.79552" lon="-2.07748">
        <ele>14.6</ele>
        <time>2020-06-04T09:44:16Z</time>
      </trkpt>
      <trkpt lat="46.79553" lon="-2.07748">
        <ele>14.6</ele>
        <time>2020-06-04T09:44:17Z</time>
      </trkpt>
      <trkpt lat="46.79555" lon="-2.07748">
        <ele>14.7</ele>
        <time>2020-06-04T09:44:18Z</time>
      </trkpt>
      <trkpt lat="46.79556" lon="-2.07747">
        <ele>14.7</ele>
        <time>2020-06-04T09:44:19Z</time>
      </trkpt>
      <trkpt lat="46.7956" lon="-2.07746">
        <ele>14.8</ele>
        <time>2020-06-04T09:44:20Z</time>
      </trkpt>
      <trkpt lat="46.79561" lon="-2.07745">
        <ele>14.8</ele>
        <time>2020-06-04T09:44:21Z</time>
      </trkpt>
      <trkpt lat="46.79564" lon="-2.07742">
        <ele>14.8</ele>
        <time>2020-06-04T09:44:22Z</time>
      </trkpt>
      <trkpt lat="46.79566" lon="-2.07741">
        <ele>14.8</ele>
        <time>2020-06-04T09:44:23Z</time>
      </trkpt>
      <trkpt lat="46.79569" lon="-2.07739">
        <ele>14.8</ele>
        <time>2020-06-04T09:44:24Z</time>
      </trkpt>
      <trkpt lat="46.79571" lon="-2.07739">
        <ele>14.8</ele>
        <time>2020-06-04T09:44:25Z</time>
      </trkpt>
      <trkpt lat="46.79574" lon="-2.07737">
        <ele>14.7</ele>
        <time>2020-06-04T09:44:26Z</time>
      </trkpt>
      <trkpt lat="46.79579" lon="-2.07736">
        <ele>14.6</ele>
        <time>2020-06-04T09:44:27Z</time>
      </trkpt>
      <trkpt lat="46.79585" lon="-2.07732">
        <ele>14.4</ele>
        <time>2020-06-04T09:44:28Z</time>
      </trkpt>
      <trkpt lat="46.7959" lon="-2.0773">
        <ele>14.2</ele>
        <time>2020-06-04T09:44:29Z</time>
      </trkpt>
      <trkpt lat="46.79595" lon="-2.07728">
        <ele>14</ele>
        <time>2020-06-04T09:44:30Z</time>
      </trkpt>
      <trkpt lat="46.79601" lon="-2.07725">
        <ele>13.8</ele>
        <time>2020-06-04T09:44:31Z</time>
      </trkpt>
      <trkpt lat="46.7961" lon="-2.07722">
        <ele>13.4</ele>
        <time>2020-06-04T09:44:32Z</time>
      </trkpt>
      <trkpt lat="46.79618" lon="-2.07722">
        <ele>13.4</ele>
        <time>2020-06-04T09:44:33Z</time>
      </trkpt>
      <trkpt lat="46.79626" lon="-2.07721">
        <ele>13.4</ele>
        <time>2020-06-04T09:44:34Z</time>
      </trkpt>
      <trkpt lat="46.79633" lon="-2.07719">
        <ele>13.4</ele>
        <time>2020-06-04T09:44:35Z</time>
      </trkpt>
      <trkpt lat="46.79641" lon="-2.07716">
        <ele>13.3</ele>
        <time>2020-06-04T09:44:36Z</time>
      </trkpt>
      <trkpt lat="46.79647" lon="-2.07712">
        <ele>13.2</ele>
        <time>2020-06-04T09:44:37Z</time>
      </trkpt>
      <trkpt lat="46.79653" lon="-2.07708">
        <ele>13.1</ele>
        <time>2020-06-04T09:44:38Z</time>
      </trkpt>
      <trkpt lat="46.79658" lon="-2.07705">
        <ele>13</ele>
        <time>2020-06-04T09:44:39Z</time>
      </trkpt>
      <trkpt lat="46.79664" lon="-2.07701">
        <ele>12.8</ele>
        <time>2020-06-04T09:44:40Z</time>
      </trkpt>
      <trkpt lat="46.79671" lon="-2.07697">
        <ele>12.7</ele>
        <time>2020-06-04T09:44:41Z</time>
      </trkpt>
      <trkpt lat="46.79677" lon="-2.07693">
        <ele>12.5</ele>
        <time>2020-06-04T09:44:42Z</time>
      </trkpt>
      <trkpt lat="46.79683" lon="-2.07689">
        <ele>12.4</ele>
        <time>2020-06-04T09:44:43Z</time>
      </trkpt>
      <trkpt lat="46.79689" lon="-2.07684">
        <ele>12.3</ele>
        <time>2020-06-04T09:44:44Z</time>
      </trkpt>
      <trkpt lat="46.79695" lon="-2.0768">
        <ele>12.2</ele>
        <time>2020-06-04T09:44:45Z</time>
      </trkpt>
      <trkpt lat="46.797" lon="-2.07675">
        <ele>12.1</ele>
        <time>2020-06-04T09:44:46Z</time>
      </trkpt>
      <trkpt lat="46.79706" lon="-2.07672">
        <ele>12</ele>
        <time>2020-06-04T09:44:47Z</time>
      </trkpt>
      <trkpt lat="46.79712" lon="-2.07668">
        <ele>11.9</ele>
        <time>2020-06-04T09:44:48Z</time>
      </trkpt>
      <trkpt lat="46.79719" lon="-2.07665">
        <ele>11.9</ele>
        <time>2020-06-04T09:44:49Z</time>
      </trkpt>
      <trkpt lat="46.79727" lon="-2.07663">
        <ele>11.9</ele>
        <time>2020-06-04T09:44:50Z</time>
      </trkpt>
      <trkpt lat="46.79733" lon="-2.07661">
        <ele>11.9</ele>
        <time>2020-06-04T09:44:51Z</time>
      </trkpt>
      <trkpt lat="46.7974" lon="-2.07661">
        <ele>11.9</ele>
        <time>2020-06-04T09:44:52Z</time>
      </trkpt>
      <trkpt lat="46.79745" lon="-2.07661">
        <ele>11.9</ele>
        <time>2020-06-04T09:44:53Z</time>
      </trkpt>
      <trkpt lat="46.79751" lon="-2.07662">
        <ele>11.9</ele>
        <time>2020-06-04T09:44:54Z</time>
      </trkpt>
      <trkpt lat="46.79757" lon="-2.07663">
        <ele>11.9</ele>
        <time>2020-06-04T09:44:55Z</time>
      </trkpt>
      <trkpt lat="46.79763" lon="-2.07665">
        <ele>11.9</ele>
        <time>2020-06-04T09:44:56Z</time>
      </trkpt>
      <trkpt lat="46.79768" lon="-2.07667">
        <ele>11.9</ele>
        <time>2020-06-04T09:44:57Z</time>
      </trkpt>
      <trkpt lat="46.79775" lon="-2.07669">
        <ele>11.8</ele>
        <time>2020-06-04T09:44:58Z</time>
      </trkpt>
      <trkpt lat="46.79781" lon="-2.07671">
        <ele>11.7</ele>
        <time>2020-06-04T09:44:59Z</time>
      </trkpt>
      <trkpt lat="46.79787" lon="-2.07674">
        <ele>11.6</ele>
        <time>2020-06-04T09:45:00Z</time>
      </trkpt>
      <trkpt lat="46.79793" lon="-2.07675">
        <ele>11.4</ele>
        <time>2020-06-04T09:45:01Z</time>
      </trkpt>
      <trkpt lat="46.798" lon="-2.07677">
        <ele>11.2</ele>
        <time>2020-06-04T09:45:02Z</time>
      </trkpt>
      <trkpt lat="46.79807" lon="-2.0768">
        <ele>11</ele>
        <time>2020-06-04T09:45:03Z</time>
      </trkpt>
      <trkpt lat="46.79812" lon="-2.07684">
        <ele>10.9</ele>
        <time>2020-06-04T09:45:04Z</time>
      </trkpt>
      <trkpt lat="46.79817" lon="-2.07693">
        <ele>10.8</ele>
        <time>2020-06-04T09:45:05Z</time>
      </trkpt>
      <trkpt lat="46.7982" lon="-2.07701">
        <ele>10.7</ele>
        <time>2020-06-04T09:45:06Z</time>
      </trkpt>
      <trkpt lat="46.79821" lon="-2.07709">
        <ele>10.8</ele>
        <time>2020-06-04T09:45:07Z</time>
      </trkpt>
      <trkpt lat="46.79821" lon="-2.07718">
        <ele>10.8</ele>
        <time>2020-06-04T09:45:08Z</time>
      </trkpt>
      <trkpt lat="46.79822" lon="-2.07727">
        <ele>10.8</ele>
        <time>2020-06-04T09:45:09Z</time>
      </trkpt>
      <trkpt lat="46.79822" lon="-2.07735">
        <ele>10.9</ele>
        <time>2020-06-04T09:45:10Z</time>
      </trkpt>
      <trkpt lat="46.79823" lon="-2.07742">
        <ele>10.9</ele>
        <time>2020-06-04T09:45:11Z</time>
      </trkpt>
      <trkpt lat="46.79823" lon="-2.07749">
        <ele>10.9</ele>
        <time>2020-06-04T09:45:12Z</time>
      </trkpt>
      <trkpt lat="46.79824" lon="-2.07756">
        <ele>10.9</ele>
        <time>2020-06-04T09:45:13Z</time>
      </trkpt>
      <trkpt lat="46.79824" lon="-2.07762">
        <ele>11</ele>
        <time>2020-06-04T09:45:14Z</time>
      </trkpt>
      <trkpt lat="46.79825" lon="-2.07768">
        <ele>11</ele>
        <time>2020-06-04T09:45:15Z</time>
      </trkpt>
      <trkpt lat="46.79826" lon="-2.07776">
        <ele>10.9</ele>
        <time>2020-06-04T09:45:16Z</time>
      </trkpt>
      <trkpt lat="46.79828" lon="-2.07783">
        <ele>10.9</ele>
        <time>2020-06-04T09:45:17Z</time>
      </trkpt>
      <trkpt lat="46.7983" lon="-2.07789">
        <ele>10.8</ele>
        <time>2020-06-04T09:45:18Z</time>
      </trkpt>
      <trkpt lat="46.79833" lon="-2.07795">
        <ele>10.7</ele>
        <time>2020-06-04T09:45:19Z</time>
      </trkpt>
      <trkpt lat="46.79835" lon="-2.07802">
        <ele>10.5</ele>
        <time>2020-06-04T09:45:20Z</time>
      </trkpt>
      <trkpt lat="46.79837" lon="-2.07808">
        <ele>10.3</ele>
        <time>2020-06-04T09:45:21Z</time>
      </trkpt>
      <trkpt lat="46.7984" lon="-2.07814">
        <ele>10</ele>
        <time>2020-06-04T09:45:22Z</time>
      </trkpt>
      <trkpt lat="46.79842" lon="-2.07818">
        <ele>9.8</ele>
        <time>2020-06-04T09:45:23Z</time>
      </trkpt>
      <trkpt lat="46.79844" lon="-2.07823">
        <ele>9.6</ele>
        <time>2020-06-04T09:45:24Z</time>
      </trkpt>
      <trkpt lat="46.79847" lon="-2.07828">
        <ele>9.3</ele>
        <time>2020-06-04T09:45:25Z</time>
      </trkpt>
      <trkpt lat="46.7985" lon="-2.07832">
        <ele>9.1</ele>
        <time>2020-06-04T09:45:26Z</time>
      </trkpt>
      <trkpt lat="46.79852" lon="-2.07838">
        <ele>8.8</ele>
        <time>2020-06-04T09:45:27Z</time>
      </trkpt>
      <trkpt lat="46.79855" lon="-2.07844">
        <ele>8.5</ele>
        <time>2020-06-04T09:45:28Z</time>
      </trkpt>
      <trkpt lat="46.79857" lon="-2.07848">
        <ele>8.3</ele>
        <time>2020-06-04T09:45:29Z</time>
      </trkpt>
      <trkpt lat="46.7986" lon="-2.07853">
        <ele>8</ele>
        <time>2020-06-04T09:45:30Z</time>
      </trkpt>
      <trkpt lat="46.79863" lon="-2.07857">
        <ele>7.7</ele>
        <time>2020-06-04T09:45:31Z</time>
      </trkpt>
      <trkpt lat="46.79865" lon="-2.07863">
        <ele>7.5</ele>
        <time>2020-06-04T09:45:32Z</time>
      </trkpt>
      <trkpt lat="46.79869" lon="-2.07868">
        <ele>7.2</ele>
        <time>2020-06-04T09:45:33Z</time>
      </trkpt>
      <trkpt lat="46.79874" lon="-2.07875">
        <ele>6.9</ele>
        <time>2020-06-04T09:45:34Z</time>
      </trkpt>
      <trkpt lat="46.79877" lon="-2.07882">
        <ele>6.6</ele>
        <time>2020-06-04T09:45:35Z</time>
      </trkpt>
      <trkpt lat="46.7988" lon="-2.07888">
        <ele>6.4</ele>
        <time>2020-06-04T09:45:36Z</time>
      </trkpt>
      <trkpt lat="46.79883" lon="-2.07896">
        <ele>6.2</ele>
        <time>2020-06-04T09:45:37Z</time>
      </trkpt>
      <trkpt lat="46.79886" lon="-2.07903">
        <ele>6</ele>
        <time>2020-06-04T09:45:38Z</time>
      </trkpt>
      <trkpt lat="46.79888" lon="-2.0791">
        <ele>5.9</ele>
        <time>2020-06-04T09:45:39Z</time>
      </trkpt>
      <trkpt lat="46.7989" lon="-2.07919">
        <ele>5.7</ele>
        <time>2020-06-04T09:45:40Z</time>
      </trkpt>
      <trkpt lat="46.79893" lon="-2.07928">
        <ele>5.6</ele>
        <time>2020-06-04T09:45:41Z</time>
      </trkpt>
      <trkpt lat="46.79895" lon="-2.07937">
        <ele>5.4</ele>
        <time>2020-06-04T09:45:42Z</time>
      </trkpt>
      <trkpt lat="46.79897" lon="-2.07945">
        <ele>5.3</ele>
        <time>2020-06-04T09:45:43Z</time>
      </trkpt>
      <trkpt lat="46.79899" lon="-2.07953">
        <ele>5.2</ele>
        <time>2020-06-04T09:45:44Z</time>
      </trkpt>
      <trkpt lat="46.79901" lon="-2.07961">
        <ele>5</ele>
        <time>2020-06-04T09:45:45Z</time>
      </trkpt>
      <trkpt lat="46.79903" lon="-2.07967">
        <ele>4.9</ele>
        <time>2020-06-04T09:45:46Z</time>
      </trkpt>
      <trkpt lat="46.79906" lon="-2.07971">
        <ele>4.9</ele>
        <time>2020-06-04T09:45:47Z</time>
      </trkpt>
      <trkpt lat="46.79909" lon="-2.07977">
        <ele>4.8</ele>
        <time>2020-06-04T09:45:48Z</time>
      </trkpt>
      <trkpt lat="46.7991" lon="-2.07983">
        <ele>4.7</ele>
        <time>2020-06-04T09:45:49Z</time>
      </trkpt>
      <trkpt lat="46.79911" lon="-2.0799">
        <ele>4.6</ele>
        <time>2020-06-04T09:45:50Z</time>
      </trkpt>
      <trkpt lat="46.79912" lon="-2.07996">
        <ele>4.5</ele>
        <time>2020-06-04T09:45:51Z</time>
      </trkpt>
      <trkpt lat="46.79914" lon="-2.08002">
        <ele>4.5</ele>
        <time>2020-06-04T09:45:52Z</time>
      </trkpt>
      <trkpt lat="46.79916" lon="-2.08009">
        <ele>4.5</ele>
        <time>2020-06-04T09:45:53Z</time>
      </trkpt>
      <trkpt lat="46.79918" lon="-2.08016">
        <ele>4.4</ele>
        <time>2020-06-04T09:45:54Z</time>
      </trkpt>
      <trkpt lat="46.79921" lon="-2.08024">
        <ele>4.4</ele>
        <time>2020-06-04T09:45:55Z</time>
      </trkpt>
      <trkpt lat="46.79923" lon="-2.08031">
        <ele>4.4</ele>
        <time>2020-06-04T09:45:56Z</time>
      </trkpt>
      <trkpt lat="46.79925" lon="-2.08039">
        <ele>4.4</ele>
        <time>2020-06-04T09:45:57Z</time>
      </trkpt>
      <trkpt lat="46.79927" lon="-2.08048">
        <ele>4.4</ele>
        <time>2020-06-04T09:45:58Z</time>
      </trkpt>
      <trkpt lat="46.79928" lon="-2.08056">
        <ele>4.4</ele>
        <time>2020-06-04T09:45:59Z</time>
      </trkpt>
      <trkpt lat="46.79929" lon="-2.08065">
        <ele>4.5</ele>
        <time>2020-06-04T09:46:00Z</time>
      </trkpt>
      <trkpt lat="46.79929" lon="-2.08074">
        <ele>4.5</ele>
        <time>2020-06-04T09:46:01Z</time>
      </trkpt>
      <trkpt lat="46.79929" lon="-2.08081">
        <ele>4.5</ele>
        <time>2020-06-04T09:46:02Z</time>
      </trkpt>
      <trkpt lat="46.79929" lon="-2.0809">
        <ele>4.5</ele>
        <time>2020-06-04T09:46:03Z</time>
      </trkpt>
      <trkpt lat="46.79929" lon="-2.08099">
        <ele>4.5</ele>
        <time>2020-06-04T09:46:04Z</time>
      </trkpt>
      <trkpt lat="46.7993" lon="-2.08106">
        <ele>4.5</ele>
        <time>2020-06-04T09:46:05Z</time>
      </trkpt>
      <trkpt lat="46.79929" lon="-2.08115">
        <ele>4.6</ele>
        <time>2020-06-04T09:46:06Z</time>
      </trkpt>
      <trkpt lat="46.7993" lon="-2.08122">
        <ele>4.6</ele>
        <time>2020-06-04T09:46:07Z</time>
      </trkpt>
      <trkpt lat="46.7993" lon="-2.08129">
        <ele>4.6</ele>
        <time>2020-06-04T09:46:08Z</time>
      </trkpt>
      <trkpt lat="46.7993" lon="-2.08136">
        <ele>4.6</ele>
        <time>2020-06-04T09:46:09Z</time>
      </trkpt>
      <trkpt lat="46.7993" lon="-2.08143">
        <ele>4.6</ele>
        <time>2020-06-04T09:46:10Z</time>
      </trkpt>
      <trkpt lat="46.79931" lon="-2.08149">
        <ele>4.6</ele>
        <time>2020-06-04T09:46:11Z</time>
      </trkpt>
      <trkpt lat="46.79932" lon="-2.08155">
        <ele>4.6</ele>
        <time>2020-06-04T09:46:12Z</time>
      </trkpt>
      <trkpt lat="46.79933" lon="-2.08161">
        <ele>4.6</ele>
        <time>2020-06-04T09:46:13Z</time>
      </trkpt>
      <trkpt lat="46.79933" lon="-2.08166">
        <ele>4.6</ele>
        <time>2020-06-04T09:46:14Z</time>
      </trkpt>
      <trkpt lat="46.79933" lon="-2.08174">
        <ele>4.6</ele>
        <time>2020-06-04T09:46:15Z</time>
      </trkpt>
      <trkpt lat="46.79934" lon="-2.0818">
        <ele>4.6</ele>
        <time>2020-06-04T09:46:16Z</time>
      </trkpt>
      <trkpt lat="46.79935" lon="-2.08187">
        <ele>4.6</ele>
        <time>2020-06-04T09:46:17Z</time>
      </trkpt>
      <trkpt lat="46.79936" lon="-2.08193">
        <ele>4.6</ele>
        <time>2020-06-04T09:46:18Z</time>
      </trkpt>
      <trkpt lat="46.79937" lon="-2.08199">
        <ele>4.6</ele>
        <time>2020-06-04T09:46:19Z</time>
      </trkpt>
      <trkpt lat="46.79938" lon="-2.08206">
        <ele>4.6</ele>
        <time>2020-06-04T09:46:20Z</time>
      </trkpt>
      <trkpt lat="46.7994" lon="-2.08213">
        <ele>4.6</ele>
        <time>2020-06-04T09:46:21Z</time>
      </trkpt>
      <trkpt lat="46.79941" lon="-2.08219">
        <ele>4.6</ele>
        <time>2020-06-04T09:46:22Z</time>
      </trkpt>
      <trkpt lat="46.79942" lon="-2.08227">
        <ele>4.7</ele>
        <time>2020-06-04T09:46:23Z</time>
      </trkpt>
      <trkpt lat="46.79944" lon="-2.08234">
        <ele>4.7</ele>
        <time>2020-06-04T09:46:24Z</time>
      </trkpt>
      <trkpt lat="46.79946" lon="-2.0824">
        <ele>4.7</ele>
        <time>2020-06-04T09:46:25Z</time>
      </trkpt>
      <trkpt lat="46.79947" lon="-2.08247">
        <ele>4.8</ele>
        <time>2020-06-04T09:46:26Z</time>
      </trkpt>
      <trkpt lat="46.7995" lon="-2.08254">
        <ele>4.8</ele>
        <time>2020-06-04T09:46:27Z</time>
      </trkpt>
      <trkpt lat="46.79952" lon="-2.08262">
        <ele>4.9</ele>
        <time>2020-06-04T09:46:28Z</time>
      </trkpt>
      <trkpt lat="46.79955" lon="-2.0827">
        <ele>5</ele>
        <time>2020-06-04T09:46:29Z</time>
      </trkpt>
      <trkpt lat="46.79958" lon="-2.08277">
        <ele>5.2</ele>
        <time>2020-06-04T09:46:30Z</time>
      </trkpt>
      <trkpt lat="46.7996" lon="-2.08283">
        <ele>5.2</ele>
        <time>2020-06-04T09:46:31Z</time>
      </trkpt>
      <trkpt lat="46.79962" lon="-2.0829">
        <ele>5.3</ele>
        <time>2020-06-04T09:46:32Z</time>
      </trkpt>
      <trkpt lat="46.79965" lon="-2.08296">
        <ele>5.3</ele>
        <time>2020-06-04T09:46:33Z</time>
      </trkpt>
      <trkpt lat="46.79968" lon="-2.08302">
        <ele>5.4</ele>
        <time>2020-06-04T09:46:34Z</time>
      </trkpt>
      <trkpt lat="46.79971" lon="-2.08308">
        <ele>5.4</ele>
        <time>2020-06-04T09:46:35Z</time>
      </trkpt>
      <trkpt lat="46.79972" lon="-2.08315">
        <ele>5.5</ele>
        <time>2020-06-04T09:46:36Z</time>
      </trkpt>
      <trkpt lat="46.79973" lon="-2.0832">
        <ele>5.5</ele>
        <time>2020-06-04T09:46:37Z</time>
      </trkpt>
      <trkpt lat="46.79974" lon="-2.08327">
        <ele>5.5</ele>
        <time>2020-06-04T09:46:38Z</time>
      </trkpt>
      <trkpt lat="46.79976" lon="-2.08334">
        <ele>5.6</ele>
        <time>2020-06-04T09:46:39Z</time>
      </trkpt>
      <trkpt lat="46.79977" lon="-2.08341">
        <ele>5.7</ele>
        <time>2020-06-04T09:46:40Z</time>
      </trkpt>
      <trkpt lat="46.79978" lon="-2.08348">
        <ele>5.7</ele>
        <time>2020-06-04T09:46:41Z</time>
      </trkpt>
      <trkpt lat="46.79979" lon="-2.08354">
        <ele>5.8</ele>
        <time>2020-06-04T09:46:42Z</time>
      </trkpt>
      <trkpt lat="46.79981" lon="-2.0836">
        <ele>5.8</ele>
        <time>2020-06-04T09:46:43Z</time>
      </trkpt>
      <trkpt lat="46.79981" lon="-2.08366">
        <ele>5.9</ele>
        <time>2020-06-04T09:46:44Z</time>
      </trkpt>
      <trkpt lat="46.79982" lon="-2.08371">
        <ele>6</ele>
        <time>2020-06-04T09:46:45Z</time>
      </trkpt>
      <trkpt lat="46.79983" lon="-2.08376">
        <ele>6</ele>
        <time>2020-06-04T09:46:46Z</time>
      </trkpt>
      <trkpt lat="46.79985" lon="-2.08383">
        <ele>6.1</ele>
        <time>2020-06-04T09:46:47Z</time>
      </trkpt>
      <trkpt lat="46.79986" lon="-2.08389">
        <ele>6.1</ele>
        <time>2020-06-04T09:46:48Z</time>
      </trkpt>
      <trkpt lat="46.79988" lon="-2.08394">
        <ele>6.1</ele>
        <time>2020-06-04T09:46:49Z</time>
      </trkpt>
      <trkpt lat="46.79989" lon="-2.08399">
        <ele>6.1</ele>
        <time>2020-06-04T09:46:50Z</time>
      </trkpt>
      <trkpt lat="46.7999" lon="-2.08405">
        <ele>6.1</ele>
        <time>2020-06-04T09:46:51Z</time>
      </trkpt>
      <trkpt lat="46.79992" lon="-2.0841">
        <ele>6.2</ele>
        <time>2020-06-04T09:46:52Z</time>
      </trkpt>
      <trkpt lat="46.79994" lon="-2.08414">
        <ele>6.2</ele>
        <time>2020-06-04T09:46:53Z</time>
      </trkpt>
      <trkpt lat="46.79996" lon="-2.08419">
        <ele>6.2</ele>
        <time>2020-06-04T09:46:54Z</time>
      </trkpt>
      <trkpt lat="46.79998" lon="-2.08425">
        <ele>6.2</ele>
        <time>2020-06-04T09:46:55Z</time>
      </trkpt>
      <trkpt lat="46.8" lon="-2.08431">
        <ele>6.2</ele>
        <time>2020-06-04T09:46:56Z</time>
      </trkpt>
      <trkpt lat="46.80001" lon="-2.08437">
        <ele>6.2</ele>
        <time>2020-06-04T09:46:57Z</time>
      </trkpt>
      <trkpt lat="46.80003" lon="-2.08445">
        <ele>6.2</ele>
        <time>2020-06-04T09:46:58Z</time>
      </trkpt>
      <trkpt lat="46.80005" lon="-2.08451">
        <ele>6.2</ele>
        <time>2020-06-04T09:46:59Z</time>
      </trkpt>
      <trkpt lat="46.80007" lon="-2.0846">
        <ele>6.2</ele>
        <time>2020-06-04T09:47:00Z</time>
      </trkpt>
      <trkpt lat="46.80008" lon="-2.08466">
        <ele>6.2</ele>
        <time>2020-06-04T09:47:01Z</time>
      </trkpt>
      <trkpt lat="46.80009" lon="-2.08472">
        <ele>6.2</ele>
        <time>2020-06-04T09:47:02Z</time>
      </trkpt>
      <trkpt lat="46.8001" lon="-2.08479">
        <ele>6.2</ele>
        <time>2020-06-04T09:47:03Z</time>
      </trkpt>
      <trkpt lat="46.80011" lon="-2.08485">
        <ele>6.1</ele>
        <time>2020-06-04T09:47:04Z</time>
      </trkpt>
      <trkpt lat="46.80012" lon="-2.08492">
        <ele>6.1</ele>
        <time>2020-06-04T09:47:05Z</time>
      </trkpt>
      <trkpt lat="46.80014" lon="-2.08499">
        <ele>6.1</ele>
        <time>2020-06-04T09:47:06Z</time>
      </trkpt>
      <trkpt lat="46.80015" lon="-2.08506">
        <ele>6</ele>
        <time>2020-06-04T09:47:07Z</time>
      </trkpt>
      <trkpt lat="46.80017" lon="-2.08513">
        <ele>6</ele>
        <time>2020-06-04T09:47:08Z</time>
      </trkpt>
      <trkpt lat="46.80018" lon="-2.08521">
        <ele>6</ele>
        <time>2020-06-04T09:47:09Z</time>
      </trkpt>
      <trkpt lat="46.80019" lon="-2.08529">
        <ele>6</ele>
        <time>2020-06-04T09:47:10Z</time>
      </trkpt>
      <trkpt lat="46.80019" lon="-2.08536">
        <ele>6</ele>
        <time>2020-06-04T09:47:11Z</time>
      </trkpt>
      <trkpt lat="46.80019" lon="-2.08542">
        <ele>6</ele>
        <time>2020-06-04T09:47:12Z</time>
      </trkpt>
      <trkpt lat="46.8002" lon="-2.0855">
        <ele>6</ele>
        <time>2020-06-04T09:47:13Z</time>
      </trkpt>
      <trkpt lat="46.8002" lon="-2.08559">
        <ele>6</ele>
        <time>2020-06-04T09:47:14Z</time>
      </trkpt>
      <trkpt lat="46.8002" lon="-2.08566">
        <ele>6</ele>
        <time>2020-06-04T09:47:15Z</time>
      </trkpt>
      <trkpt lat="46.8002" lon="-2.08574">
        <ele>6</ele>
        <time>2020-06-04T09:47:16Z</time>
      </trkpt>
      <trkpt lat="46.8002" lon="-2.08583">
        <ele>6</ele>
        <time>2020-06-04T09:47:17Z</time>
      </trkpt>
      <trkpt lat="46.8002" lon="-2.08592">
        <ele>6</ele>
        <time>2020-06-04T09:47:18Z</time>
      </trkpt>
      <trkpt lat="46.80021" lon="-2.08602">
        <ele>6</ele>
        <time>2020-06-04T09:47:19Z</time>
      </trkpt>
      <trkpt lat="46.80021" lon="-2.0861">
        <ele>5.9</ele>
        <time>2020-06-04T09:47:20Z</time>
      </trkpt>
      <trkpt lat="46.80023" lon="-2.08618">
        <ele>5.9</ele>
        <time>2020-06-04T09:47:21Z</time>
      </trkpt>
      <trkpt lat="46.80024" lon="-2.08624">
        <ele>5.9</ele>
        <time>2020-06-04T09:47:22Z</time>
      </trkpt>
      <trkpt lat="46.80026" lon="-2.08631">
        <ele>5.9</ele>
        <time>2020-06-04T09:47:23Z</time>
      </trkpt>
      <trkpt lat="46.80028" lon="-2.08638">
        <ele>5.8</ele>
        <time>2020-06-04T09:47:24Z</time>
      </trkpt>
      <trkpt lat="46.8003" lon="-2.08646">
        <ele>5.8</ele>
        <time>2020-06-04T09:47:25Z</time>
      </trkpt>
      <trkpt lat="46.80033" lon="-2.08654">
        <ele>5.8</ele>
        <time>2020-06-04T09:47:26Z</time>
      </trkpt>
      <trkpt lat="46.80035" lon="-2.08662">
        <ele>5.8</ele>
        <time>2020-06-04T09:47:27Z</time>
      </trkpt>
      <trkpt lat="46.80037" lon="-2.08669">
        <ele>5.8</ele>
        <time>2020-06-04T09:47:28Z</time>
      </trkpt>
      <trkpt lat="46.80039" lon="-2.08675">
        <ele>5.8</ele>
        <time>2020-06-04T09:47:29Z</time>
      </trkpt>
      <trkpt lat="46.80043" lon="-2.08681">
        <ele>5.8</ele>
        <time>2020-06-04T09:47:30Z</time>
      </trkpt>
      <trkpt lat="46.80047" lon="-2.08688">
        <ele>5.8</ele>
        <time>2020-06-04T09:47:31Z</time>
      </trkpt>
      <trkpt lat="46.80052" lon="-2.08695">
        <ele>5.9</ele>
        <time>2020-06-04T09:47:32Z</time>
      </trkpt>
      <trkpt lat="46.80057" lon="-2.08701">
        <ele>6</ele>
        <time>2020-06-04T09:47:33Z</time>
      </trkpt>
      <trkpt lat="46.80061" lon="-2.08707">
        <ele>6.1</ele>
        <time>2020-06-04T09:47:34Z</time>
      </trkpt>
      <trkpt lat="46.80065" lon="-2.08712">
        <ele>6.2</ele>
        <time>2020-06-04T09:47:35Z</time>
      </trkpt>
      <trkpt lat="46.8007" lon="-2.08716">
        <ele>6.3</ele>
        <time>2020-06-04T09:47:36Z</time>
      </trkpt>
      <trkpt lat="46.80073" lon="-2.08721">
        <ele>6.4</ele>
        <time>2020-06-04T09:47:37Z</time>
      </trkpt>
      <trkpt lat="46.80076" lon="-2.08726">
        <ele>6.5</ele>
        <time>2020-06-04T09:47:38Z</time>
      </trkpt>
      <trkpt lat="46.80079" lon="-2.08733">
        <ele>6.6</ele>
        <time>2020-06-04T09:47:39Z</time>
      </trkpt>
      <trkpt lat="46.80081" lon="-2.08739">
        <ele>6.7</ele>
        <time>2020-06-04T09:47:40Z</time>
      </trkpt>
      <trkpt lat="46.80084" lon="-2.08746">
        <ele>6.9</ele>
        <time>2020-06-04T09:47:41Z</time>
      </trkpt>
      <trkpt lat="46.80086" lon="-2.08753">
        <ele>7</ele>
        <time>2020-06-04T09:47:42Z</time>
      </trkpt>
      <trkpt lat="46.80088" lon="-2.08759">
        <ele>7.2</ele>
        <time>2020-06-04T09:47:43Z</time>
      </trkpt>
      <trkpt lat="46.8009" lon="-2.08764">
        <ele>7.4</ele>
        <time>2020-06-04T09:47:44Z</time>
      </trkpt>
      <trkpt lat="46.80092" lon="-2.0877">
        <ele>7.6</ele>
        <time>2020-06-04T09:47:45Z</time>
      </trkpt>
      <trkpt lat="46.80094" lon="-2.08776">
        <ele>7.9</ele>
        <time>2020-06-04T09:47:46Z</time>
      </trkpt>
      <trkpt lat="46.80095" lon="-2.08782">
        <ele>8.1</ele>
        <time>2020-06-04T09:47:47Z</time>
      </trkpt>
      <trkpt lat="46.80097" lon="-2.08787">
        <ele>8.3</ele>
        <time>2020-06-04T09:47:48Z</time>
      </trkpt>
      <trkpt lat="46.80098" lon="-2.08793">
        <ele>8.5</ele>
        <time>2020-06-04T09:47:49Z</time>
      </trkpt>
      <trkpt lat="46.80099" lon="-2.08798">
        <ele>8.7</ele>
        <time>2020-06-04T09:47:50Z</time>
      </trkpt>
      <trkpt lat="46.801" lon="-2.08804">
        <ele>8.9</ele>
        <time>2020-06-04T09:47:51Z</time>
      </trkpt>
      <trkpt lat="46.801" lon="-2.08809">
        <ele>9.1</ele>
        <time>2020-06-04T09:47:52Z</time>
      </trkpt>
      <trkpt lat="46.80102" lon="-2.08816">
        <ele>9.3</ele>
        <time>2020-06-04T09:47:53Z</time>
      </trkpt>
      <trkpt lat="46.80102" lon="-2.08823">
        <ele>9.4</ele>
        <time>2020-06-04T09:47:54Z</time>
      </trkpt>
      <trkpt lat="46.80103" lon="-2.08828">
        <ele>9.4</ele>
        <time>2020-06-04T09:47:55Z</time>
      </trkpt>
      <trkpt lat="46.80104" lon="-2.08835">
        <ele>9.4</ele>
        <time>2020-06-04T09:47:56Z</time>
      </trkpt>
      <trkpt lat="46.80105" lon="-2.08841">
        <ele>9.6</ele>
        <time>2020-06-04T09:47:57Z</time>
      </trkpt>
      <trkpt lat="46.80105" lon="-2.08846">
        <ele>9.8</ele>
        <time>2020-06-04T09:47:58Z</time>
      </trkpt>
      <trkpt lat="46.80106" lon="-2.08851">
        <ele>10</ele>
        <time>2020-06-04T09:47:59Z</time>
      </trkpt>
      <trkpt lat="46.80107" lon="-2.08856">
        <ele>10.2</ele>
        <time>2020-06-04T09:48:00Z</time>
      </trkpt>
      <trkpt lat="46.80107" lon="-2.08862">
        <ele>10.4</ele>
        <time>2020-06-04T09:48:01Z</time>
      </trkpt>
      <trkpt lat="46.80109" lon="-2.08868">
        <ele>10.8</ele>
        <time>2020-06-04T09:48:02Z</time>
      </trkpt>
      <trkpt lat="46.80111" lon="-2.08874">
        <ele>11</ele>
        <time>2020-06-04T09:48:03Z</time>
      </trkpt>
      <trkpt lat="46.80115" lon="-2.08878">
        <ele>11.3</ele>
        <time>2020-06-04T09:48:04Z</time>
      </trkpt>
      <trkpt lat="46.80118" lon="-2.08883">
        <ele>11.7</ele>
        <time>2020-06-04T09:48:05Z</time>
      </trkpt>
      <trkpt lat="46.80121" lon="-2.08887">
        <ele>12</ele>
        <time>2020-06-04T09:48:06Z</time>
      </trkpt>
      <trkpt lat="46.80123" lon="-2.08893">
        <ele>12.3</ele>
        <time>2020-06-04T09:48:07Z</time>
      </trkpt>
      <trkpt lat="46.80125" lon="-2.08899">
        <ele>12.6</ele>
        <time>2020-06-04T09:48:08Z</time>
      </trkpt>
      <trkpt lat="46.80127" lon="-2.08905">
        <ele>13</ele>
        <time>2020-06-04T09:48:09Z</time>
      </trkpt>
      <trkpt lat="46.80129" lon="-2.08911">
        <ele>13.3</ele>
        <time>2020-06-04T09:48:10Z</time>
      </trkpt>
      <trkpt lat="46.8013" lon="-2.08916">
        <ele>13.6</ele>
        <time>2020-06-04T09:48:11Z</time>
      </trkpt>
      <trkpt lat="46.80132" lon="-2.08922">
        <ele>13.9</ele>
        <time>2020-06-04T09:48:12Z</time>
      </trkpt>
      <trkpt lat="46.80133" lon="-2.08928">
        <ele>14.1</ele>
        <time>2020-06-04T09:48:13Z</time>
      </trkpt>
      <trkpt lat="46.80134" lon="-2.08933">
        <ele>14.4</ele>
        <time>2020-06-04T09:48:14Z</time>
      </trkpt>
      <trkpt lat="46.80135" lon="-2.08938">
        <ele>14.7</ele>
        <time>2020-06-04T09:48:15Z</time>
      </trkpt>
      <trkpt lat="46.80135" lon="-2.08945">
        <ele>15</ele>
        <time>2020-06-04T09:48:16Z</time>
      </trkpt>
      <trkpt lat="46.80136" lon="-2.0895">
        <ele>15.3</ele>
        <time>2020-06-04T09:48:17Z</time>
      </trkpt>
      <trkpt lat="46.80137" lon="-2.08956">
        <ele>15.6</ele>
        <time>2020-06-04T09:48:18Z</time>
      </trkpt>
      <trkpt lat="46.80138" lon="-2.08962">
        <ele>15.8</ele>
        <time>2020-06-04T09:48:19Z</time>
      </trkpt>
      <trkpt lat="46.80139" lon="-2.08967">
        <ele>16.1</ele>
        <time>2020-06-04T09:48:20Z</time>
      </trkpt>
      <trkpt lat="46.80141" lon="-2.08973">
        <ele>16.3</ele>
        <time>2020-06-04T09:48:21Z</time>
      </trkpt>
      <trkpt lat="46.80142" lon="-2.08979">
        <ele>16.6</ele>
        <time>2020-06-04T09:48:22Z</time>
      </trkpt>
      <trkpt lat="46.80143" lon="-2.08984">
        <ele>16.8</ele>
        <time>2020-06-04T09:48:23Z</time>
      </trkpt>
      <trkpt lat="46.80145" lon="-2.0899">
        <ele>17</ele>
        <time>2020-06-04T09:48:24Z</time>
      </trkpt>
      <trkpt lat="46.80147" lon="-2.08995">
        <ele>17.2</ele>
        <time>2020-06-04T09:48:25Z</time>
      </trkpt>
      <trkpt lat="46.80148" lon="-2.09001">
        <ele>17.4</ele>
        <time>2020-06-04T09:48:26Z</time>
      </trkpt>
      <trkpt lat="46.80149" lon="-2.09007">
        <ele>17.6</ele>
        <time>2020-06-04T09:48:27Z</time>
      </trkpt>
      <trkpt lat="46.80149" lon="-2.09013">
        <ele>17.8</ele>
        <time>2020-06-04T09:48:28Z</time>
      </trkpt>
      <trkpt lat="46.80149" lon="-2.09018">
        <ele>18</ele>
        <time>2020-06-04T09:48:29Z</time>
      </trkpt>
      <trkpt lat="46.8015" lon="-2.09025">
        <ele>18.2</ele>
        <time>2020-06-04T09:48:30Z</time>
      </trkpt>
      <trkpt lat="46.80151" lon="-2.09031">
        <ele>18.4</ele>
        <time>2020-06-04T09:48:31Z</time>
      </trkpt>
      <trkpt lat="46.80152" lon="-2.09037">
        <ele>18.6</ele>
        <time>2020-06-04T09:48:32Z</time>
      </trkpt>
      <trkpt lat="46.80152" lon="-2.09043">
        <ele>18.7</ele>
        <time>2020-06-04T09:48:33Z</time>
      </trkpt>
      <trkpt lat="46.80152" lon="-2.0905">
        <ele>18.9</ele>
        <time>2020-06-04T09:48:34Z</time>
      </trkpt>
      <trkpt lat="46.80153" lon="-2.09058">
        <ele>19.2</ele>
        <time>2020-06-04T09:48:35Z</time>
      </trkpt>
      <trkpt lat="46.80153" lon="-2.09066">
        <ele>19.4</ele>
        <time>2020-06-04T09:48:36Z</time>
      </trkpt>
      <trkpt lat="46.80155" lon="-2.09073">
        <ele>19.5</ele>
        <time>2020-06-04T09:48:37Z</time>
      </trkpt>
      <trkpt lat="46.80155" lon="-2.09079">
        <ele>19.6</ele>
        <time>2020-06-04T09:48:38Z</time>
      </trkpt>
      <trkpt lat="46.80156" lon="-2.09084">
        <ele>19.7</ele>
        <time>2020-06-04T09:48:39Z</time>
      </trkpt>
      <trkpt lat="46.80157" lon="-2.0909">
        <ele>19.8</ele>
        <time>2020-06-04T09:48:40Z</time>
      </trkpt>
      <trkpt lat="46.80158" lon="-2.09094">
        <ele>19.8</ele>
        <time>2020-06-04T09:48:41Z</time>
      </trkpt>
      <trkpt lat="46.80159" lon="-2.09099">
        <ele>19.9</ele>
        <time>2020-06-04T09:48:42Z</time>
      </trkpt>
      <trkpt lat="46.80159" lon="-2.09103">
        <ele>19.9</ele>
        <time>2020-06-04T09:48:43Z</time>
      </trkpt>
      <trkpt lat="46.8016" lon="-2.09107">
        <ele>20</ele>
        <time>2020-06-04T09:48:44Z</time>
      </trkpt>
      <trkpt lat="46.80161" lon="-2.09111">
        <ele>20</ele>
        <time>2020-06-04T09:48:45Z</time>
      </trkpt>
      <trkpt lat="46.80161" lon="-2.09115">
        <ele>20</ele>
        <time>2020-06-04T09:48:46Z</time>
      </trkpt>
      <trkpt lat="46.80162" lon="-2.0912">
        <ele>20.1</ele>
        <time>2020-06-04T09:48:47Z</time>
      </trkpt>
      <trkpt lat="46.80162" lon="-2.09122">
        <ele>20.1</ele>
        <time>2020-06-04T09:48:48Z</time>
      </trkpt>
      <trkpt lat="46.80164" lon="-2.09126">
        <ele>20.2</ele>
        <time>2020-06-04T09:48:49Z</time>
      </trkpt>
      <trkpt lat="46.80164" lon="-2.09127">
        <ele>20.2</ele>
        <time>2020-06-04T09:48:50Z</time>
      </trkpt>
      <trkpt lat="46.80166" lon="-2.09131">
        <ele>20.2</ele>
        <time>2020-06-04T09:48:51Z</time>
      </trkpt>
      <trkpt lat="46.80166" lon="-2.09133">
        <ele>20.3</ele>
        <time>2020-06-04T09:48:52Z</time>
      </trkpt>
      <trkpt lat="46.80168" lon="-2.09137">
        <ele>20.3</ele>
        <time>2020-06-04T09:48:53Z</time>
      </trkpt>
      <trkpt lat="46.80168" lon="-2.09139">
        <ele>20.3</ele>
        <time>2020-06-04T09:48:54Z</time>
      </trkpt>
      <trkpt lat="46.8017" lon="-2.09143">
        <ele>20.4</ele>
        <time>2020-06-04T09:48:55Z</time>
      </trkpt>
      <trkpt lat="46.80171" lon="-2.09144">
        <ele>20.4</ele>
        <time>2020-06-04T09:48:56Z</time>
      </trkpt>
      <trkpt lat="46.80172" lon="-2.09145">
        <ele>20.4</ele>
        <time>2020-06-04T09:48:57Z</time>
      </trkpt>
      <trkpt lat="46.80174" lon="-2.09146">
        <ele>20.5</ele>
        <time>2020-06-04T09:48:58Z</time>
      </trkpt>
      <trkpt lat="46.80174" lon="-2.09148">
        <ele>20.5</ele>
        <time>2020-06-04T09:48:59Z</time>
      </trkpt>
      <trkpt lat="46.80175" lon="-2.0915">
        <ele>20.5</ele>
        <time>2020-06-04T09:49:00Z</time>
      </trkpt>
      <trkpt lat="46.80175" lon="-2.09152">
        <ele>20.5</ele>
        <time>2020-06-04T09:49:01Z</time>
      </trkpt>
      <trkpt lat="46.80176" lon="-2.09154">
        <ele>20.5</ele>
        <time>2020-06-04T09:49:02Z</time>
      </trkpt>
      <trkpt lat="46.80177" lon="-2.09157">
        <ele>20.6</ele>
        <time>2020-06-04T09:49:03Z</time>
      </trkpt>
      <trkpt lat="46.80177" lon="-2.09159">
        <ele>20.6</ele>
        <time>2020-06-04T09:49:04Z</time>
      </trkpt>
      <trkpt lat="46.80178" lon="-2.09161">
        <ele>20.6</ele>
        <time>2020-06-04T09:49:05Z</time>
      </trkpt>
      <trkpt lat="46.80178" lon="-2.09163">
        <ele>20.6</ele>
        <time>2020-06-04T09:49:06Z</time>
      </trkpt>
      <trkpt lat="46.8018" lon="-2.09168">
        <ele>20.6</ele>
        <time>2020-06-04T09:49:07Z</time>
      </trkpt>
      <trkpt lat="46.8018" lon="-2.09169">
        <ele>20.6</ele>
        <time>2020-06-04T09:49:08Z</time>
      </trkpt>
      <trkpt lat="46.80181" lon="-2.09174">
        <ele>20.6</ele>
        <time>2020-06-04T09:49:09Z</time>
      </trkpt>
      <trkpt lat="46.80182" lon="-2.09175">
        <ele>20.7</ele>
        <time>2020-06-04T09:49:10Z</time>
      </trkpt>
      <trkpt lat="46.80182" lon="-2.09177">
        <ele>20.7</ele>
        <time>2020-06-04T09:49:11Z</time>
      </trkpt>
      <trkpt lat="46.80183" lon="-2.09179">
        <ele>20.7</ele>
        <time>2020-06-04T09:49:12Z</time>
      </trkpt>
      <trkpt lat="46.80186" lon="-2.09182">
        <ele>20.7</ele>
        <time>2020-06-04T09:49:13Z</time>
      </trkpt>
      <trkpt lat="46.80187" lon="-2.09183">
        <ele>20.7</ele>
        <time>2020-06-04T09:49:14Z</time>
      </trkpt>
      <trkpt lat="46.80189" lon="-2.09187">
        <ele>20.7</ele>
        <time>2020-06-04T09:49:15Z</time>
      </trkpt>
      <trkpt lat="46.80191" lon="-2.09191">
        <ele>20.8</ele>
        <time>2020-06-04T09:49:16Z</time>
      </trkpt>
      <trkpt lat="46.80192" lon="-2.09193">
        <ele>20.8</ele>
        <time>2020-06-04T09:49:17Z</time>
      </trkpt>
      <trkpt lat="46.80193" lon="-2.09197">
        <ele>20.8</ele>
        <time>2020-06-04T09:49:18Z</time>
      </trkpt>
      <trkpt lat="46.80194" lon="-2.09198">
        <ele>20.8</ele>
        <time>2020-06-04T09:49:19Z</time>
      </trkpt>
      <trkpt lat="46.80196" lon="-2.09202">
        <ele>20.8</ele>
        <time>2020-06-04T09:49:20Z</time>
      </trkpt>
      <trkpt lat="46.80196" lon="-2.09203">
        <ele>20.8</ele>
        <time>2020-06-04T09:49:21Z</time>
      </trkpt>
      <trkpt lat="46.80198" lon="-2.09207">
        <ele>20.9</ele>
        <time>2020-06-04T09:49:22Z</time>
      </trkpt>
      <trkpt lat="46.802" lon="-2.09211">
        <ele>20.9</ele>
        <time>2020-06-04T09:49:23Z</time>
      </trkpt>
      <trkpt lat="46.80201" lon="-2.09215">
        <ele>21</ele>
        <time>2020-06-04T09:49:24Z</time>
      </trkpt>
      <trkpt lat="46.80203" lon="-2.09219">
        <ele>21</ele>
        <time>2020-06-04T09:49:25Z</time>
      </trkpt>
      <trkpt lat="46.80204" lon="-2.09223">
        <ele>21.1</ele>
        <time>2020-06-04T09:49:26Z</time>
      </trkpt>
      <trkpt lat="46.80205" lon="-2.09225">
        <ele>21.1</ele>
        <time>2020-06-04T09:49:27Z</time>
      </trkpt>
      <trkpt lat="46.80206" lon="-2.09228">
        <ele>21.2</ele>
        <time>2020-06-04T09:49:28Z</time>
      </trkpt>
      <trkpt lat="46.80208" lon="-2.09233">
        <ele>21.2</ele>
        <time>2020-06-04T09:49:29Z</time>
      </trkpt>
      <trkpt lat="46.80209" lon="-2.09234">
        <ele>21.2</ele>
        <time>2020-06-04T09:49:30Z</time>
      </trkpt>
      <trkpt lat="46.80211" lon="-2.09239">
        <ele>21.3</ele>
        <time>2020-06-04T09:49:31Z</time>
      </trkpt>
      <trkpt lat="46.80211" lon="-2.09241">
        <ele>21.3</ele>
        <time>2020-06-04T09:49:32Z</time>
      </trkpt>
      <trkpt lat="46.80213" lon="-2.09245">
        <ele>21.3</ele>
        <time>2020-06-04T09:49:33Z</time>
      </trkpt>
      <trkpt lat="46.80214" lon="-2.09249">
        <ele>21.4</ele>
        <time>2020-06-04T09:49:34Z</time>
      </trkpt>
      <trkpt lat="46.80216" lon="-2.09253">
        <ele>21.4</ele>
        <time>2020-06-04T09:49:35Z</time>
      </trkpt>
      <trkpt lat="46.80217" lon="-2.09258">
        <ele>21.4</ele>
        <time>2020-06-04T09:49:36Z</time>
      </trkpt>
      <trkpt lat="46.80219" lon="-2.09263">
        <ele>21.4</ele>
        <time>2020-06-04T09:49:37Z</time>
      </trkpt>
      <trkpt lat="46.80221" lon="-2.09268">
        <ele>21.4</ele>
        <time>2020-06-04T09:49:38Z</time>
      </trkpt>
      <trkpt lat="46.80222" lon="-2.09273">
        <ele>21.4</ele>
        <time>2020-06-04T09:49:39Z</time>
      </trkpt>
      <trkpt lat="46.80224" lon="-2.09278">
        <ele>21.4</ele>
        <time>2020-06-04T09:49:40Z</time>
      </trkpt>
      <trkpt lat="46.80226" lon="-2.09284">
        <ele>21.4</ele>
        <time>2020-06-04T09:49:41Z</time>
      </trkpt>
      <trkpt lat="46.80228" lon="-2.0929">
        <ele>21.4</ele>
        <time>2020-06-04T09:49:42Z</time>
      </trkpt>
      <trkpt lat="46.8023" lon="-2.09295">
        <ele>21.4</ele>
        <time>2020-06-04T09:49:43Z</time>
      </trkpt>
      <trkpt lat="46.80233" lon="-2.093">
        <ele>21.4</ele>
        <time>2020-06-04T09:49:44Z</time>
      </trkpt>
      <trkpt lat="46.80235" lon="-2.09305">
        <ele>21.4</ele>
        <time>2020-06-04T09:49:45Z</time>
      </trkpt>
      <trkpt lat="46.80236" lon="-2.0931">
        <ele>21.4</ele>
        <time>2020-06-04T09:49:46Z</time>
      </trkpt>
      <trkpt lat="46.80239" lon="-2.09314">
        <ele>21.4</ele>
        <time>2020-06-04T09:49:47Z</time>
      </trkpt>
      <trkpt lat="46.80241" lon="-2.09319">
        <ele>21.4</ele>
        <time>2020-06-04T09:49:48Z</time>
      </trkpt>
      <trkpt lat="46.80242" lon="-2.09324">
        <ele>21.4</ele>
        <time>2020-06-04T09:49:49Z</time>
      </trkpt>
      <trkpt lat="46.80244" lon="-2.09329">
        <ele>21.4</ele>
        <time>2020-06-04T09:49:50Z</time>
      </trkpt>
      <trkpt lat="46.80244" lon="-2.09334">
        <ele>21.4</ele>
        <time>2020-06-04T09:49:51Z</time>
      </trkpt>
      <trkpt lat="46.80245" lon="-2.09339">
        <ele>21.4</ele>
        <time>2020-06-04T09:49:52Z</time>
      </trkpt>
      <trkpt lat="46.80247" lon="-2.09344">
        <ele>21.4</ele>
        <time>2020-06-04T09:49:53Z</time>
      </trkpt>
      <trkpt lat="46.80247" lon="-2.09349">
        <ele>21.4</ele>
        <time>2020-06-04T09:49:54Z</time>
      </trkpt>
      <trkpt lat="46.80248" lon="-2.09353">
        <ele>21.4</ele>
        <time>2020-06-04T09:49:55Z</time>
      </trkpt>
      <trkpt lat="46.80248" lon="-2.09357">
        <ele>21.4</ele>
        <time>2020-06-04T09:49:56Z</time>
      </trkpt>
      <trkpt lat="46.80249" lon="-2.09361">
        <ele>21.4</ele>
        <time>2020-06-04T09:49:57Z</time>
      </trkpt>
      <trkpt lat="46.80249" lon="-2.09367">
        <ele>21.3</ele>
        <time>2020-06-04T09:49:58Z</time>
      </trkpt>
      <trkpt lat="46.8025" lon="-2.09373">
        <ele>21.3</ele>
        <time>2020-06-04T09:49:59Z</time>
      </trkpt>
      <trkpt lat="46.80251" lon="-2.09379">
        <ele>21.2</ele>
        <time>2020-06-04T09:50:00Z</time>
      </trkpt>
      <trkpt lat="46.80251" lon="-2.09386">
        <ele>21.2</ele>
        <time>2020-06-04T09:50:01Z</time>
      </trkpt>
      <trkpt lat="46.80252" lon="-2.09392">
        <ele>21.1</ele>
        <time>2020-06-04T09:50:02Z</time>
      </trkpt>
      <trkpt lat="46.80253" lon="-2.09399">
        <ele>21.1</ele>
        <time>2020-06-04T09:50:03Z</time>
      </trkpt>
      <trkpt lat="46.80254" lon="-2.09406">
        <ele>21</ele>
        <time>2020-06-04T09:50:04Z</time>
      </trkpt>
      <trkpt lat="46.80255" lon="-2.09413">
        <ele>20.9</ele>
        <time>2020-06-04T09:50:05Z</time>
      </trkpt>
      <trkpt lat="46.80255" lon="-2.0942">
        <ele>20.8</ele>
        <time>2020-06-04T09:50:06Z</time>
      </trkpt>
      <trkpt lat="46.80256" lon="-2.09426">
        <ele>20.7</ele>
        <time>2020-06-04T09:50:07Z</time>
      </trkpt>
      <trkpt lat="46.80259" lon="-2.09431">
        <ele>20.6</ele>
        <time>2020-06-04T09:50:08Z</time>
      </trkpt>
      <trkpt lat="46.80261" lon="-2.09437">
        <ele>20.5</ele>
        <time>2020-06-04T09:50:09Z</time>
      </trkpt>
      <trkpt lat="46.80264" lon="-2.09443">
        <ele>20.4</ele>
        <time>2020-06-04T09:50:10Z</time>
      </trkpt>
      <trkpt lat="46.80266" lon="-2.0945">
        <ele>20.4</ele>
        <time>2020-06-04T09:50:11Z</time>
      </trkpt>
      <trkpt lat="46.80268" lon="-2.09456">
        <ele>20.3</ele>
        <time>2020-06-04T09:50:12Z</time>
      </trkpt>
      <trkpt lat="46.80269" lon="-2.09463">
        <ele>20.2</ele>
        <time>2020-06-04T09:50:13Z</time>
      </trkpt>
      <trkpt lat="46.80269" lon="-2.0947">
        <ele>20.2</ele>
        <time>2020-06-04T09:50:14Z</time>
      </trkpt>
      <trkpt lat="46.80271" lon="-2.09476">
        <ele>20.2</ele>
        <time>2020-06-04T09:50:15Z</time>
      </trkpt>
      <trkpt lat="46.80273" lon="-2.09483">
        <ele>20.3</ele>
        <time>2020-06-04T09:50:16Z</time>
      </trkpt>
      <trkpt lat="46.80274" lon="-2.09489">
        <ele>20.3</ele>
        <time>2020-06-04T09:50:17Z</time>
      </trkpt>
      <trkpt lat="46.80275" lon="-2.09495">
        <ele>20.3</ele>
        <time>2020-06-04T09:50:18Z</time>
      </trkpt>
      <trkpt lat="46.80277" lon="-2.095">
        <ele>20.3</ele>
        <time>2020-06-04T09:50:19Z</time>
      </trkpt>
      <trkpt lat="46.80279" lon="-2.09506">
        <ele>20.4</ele>
        <time>2020-06-04T09:50:20Z</time>
      </trkpt>
      <trkpt lat="46.8028" lon="-2.09513">
        <ele>20.4</ele>
        <time>2020-06-04T09:50:21Z</time>
      </trkpt>
      <trkpt lat="46.80282" lon="-2.09519">
        <ele>20.4</ele>
        <time>2020-06-04T09:50:22Z</time>
      </trkpt>
      <trkpt lat="46.80284" lon="-2.09524">
        <ele>20.5</ele>
        <time>2020-06-04T09:50:23Z</time>
      </trkpt>
      <trkpt lat="46.80285" lon="-2.0953">
        <ele>20.5</ele>
        <time>2020-06-04T09:50:24Z</time>
      </trkpt>
      <trkpt lat="46.80286" lon="-2.09535">
        <ele>20.5</ele>
        <time>2020-06-04T09:50:25Z</time>
      </trkpt>
      <trkpt lat="46.80287" lon="-2.09542">
        <ele>20.4</ele>
        <time>2020-06-04T09:50:26Z</time>
      </trkpt>
      <trkpt lat="46.80288" lon="-2.09548">
        <ele>20.4</ele>
        <time>2020-06-04T09:50:27Z</time>
      </trkpt>
      <trkpt lat="46.80289" lon="-2.09554">
        <ele>20.3</ele>
        <time>2020-06-04T09:50:28Z</time>
      </trkpt>
      <trkpt lat="46.8029" lon="-2.09561">
        <ele>20.2</ele>
        <time>2020-06-04T09:50:29Z</time>
      </trkpt>
      <trkpt lat="46.80292" lon="-2.09568">
        <ele>20</ele>
        <time>2020-06-04T09:50:30Z</time>
      </trkpt>
      <trkpt lat="46.80294" lon="-2.09575">
        <ele>19.9</ele>
        <time>2020-06-04T09:50:31Z</time>
      </trkpt>
      <trkpt lat="46.80296" lon="-2.09582">
        <ele>19.8</ele>
        <time>2020-06-04T09:50:32Z</time>
      </trkpt>
      <trkpt lat="46.80298" lon="-2.09589">
        <ele>19.7</ele>
        <time>2020-06-04T09:50:33Z</time>
      </trkpt>
      <trkpt lat="46.80301" lon="-2.09596">
        <ele>19.5</ele>
        <time>2020-06-04T09:50:34Z</time>
      </trkpt>
      <trkpt lat="46.80304" lon="-2.09602">
        <ele>19.4</ele>
        <time>2020-06-04T09:50:35Z</time>
      </trkpt>
      <trkpt lat="46.80306" lon="-2.09609">
        <ele>19.3</ele>
        <time>2020-06-04T09:50:36Z</time>
      </trkpt>
      <trkpt lat="46.80309" lon="-2.09614">
        <ele>19.2</ele>
        <time>2020-06-04T09:50:37Z</time>
      </trkpt>
      <trkpt lat="46.80311" lon="-2.09621">
        <ele>19</ele>
        <time>2020-06-04T09:50:38Z</time>
      </trkpt>
      <trkpt lat="46.80314" lon="-2.09627">
        <ele>18.8</ele>
        <time>2020-06-04T09:50:39Z</time>
      </trkpt>
      <trkpt lat="46.80317" lon="-2.09634">
        <ele>18.5</ele>
        <time>2020-06-04T09:50:40Z</time>
      </trkpt>
      <trkpt lat="46.8032" lon="-2.0964">
        <ele>18.3</ele>
        <time>2020-06-04T09:50:41Z</time>
      </trkpt>
      <trkpt lat="46.80324" lon="-2.09646">
        <ele>18</ele>
        <time>2020-06-04T09:50:42Z</time>
      </trkpt>
      <trkpt lat="46.80327" lon="-2.09652">
        <ele>17.7</ele>
        <time>2020-06-04T09:50:43Z</time>
      </trkpt>
      <trkpt lat="46.80331" lon="-2.09658">
        <ele>17.4</ele>
        <time>2020-06-04T09:50:44Z</time>
      </trkpt>
      <trkpt lat="46.80335" lon="-2.09666">
        <ele>17.1</ele>
        <time>2020-06-04T09:50:45Z</time>
      </trkpt>
      <trkpt lat="46.80338" lon="-2.09676">
        <ele>16.8</ele>
        <time>2020-06-04T09:50:46Z</time>
      </trkpt>
      <trkpt lat="46.8034" lon="-2.09687">
        <ele>16.6</ele>
        <time>2020-06-04T09:50:47Z</time>
      </trkpt>
      <trkpt lat="46.80342" lon="-2.09698">
        <ele>16.6</ele>
        <time>2020-06-04T09:50:48Z</time>
      </trkpt>
      <trkpt lat="46.80344" lon="-2.09709">
        <ele>16.5</ele>
        <time>2020-06-04T09:50:49Z</time>
      </trkpt>
      <trkpt lat="46.80347" lon="-2.09722">
        <ele>16.5</ele>
        <time>2020-06-04T09:50:50Z</time>
      </trkpt>
      <trkpt lat="46.8035" lon="-2.09732">
        <ele>16.4</ele>
        <time>2020-06-04T09:50:51Z</time>
      </trkpt>
      <trkpt lat="46.80355" lon="-2.09741">
        <ele>16.4</ele>
        <time>2020-06-04T09:50:52Z</time>
      </trkpt>
      <trkpt lat="46.8036" lon="-2.09751">
        <ele>16.4</ele>
        <time>2020-06-04T09:50:53Z</time>
      </trkpt>
      <trkpt lat="46.80364" lon="-2.09758">
        <ele>16.3</ele>
        <time>2020-06-04T09:50:54Z</time>
      </trkpt>
      <trkpt lat="46.80367" lon="-2.09764">
        <ele>16.4</ele>
        <time>2020-06-04T09:50:55Z</time>
      </trkpt>
      <trkpt lat="46.80371" lon="-2.09772">
        <ele>16.4</ele>
        <time>2020-06-04T09:50:56Z</time>
      </trkpt>
      <trkpt lat="46.80374" lon="-2.09778">
        <ele>16.4</ele>
        <time>2020-06-04T09:50:57Z</time>
      </trkpt>
      <trkpt lat="46.80377" lon="-2.09784">
        <ele>16.4</ele>
        <time>2020-06-04T09:50:58Z</time>
      </trkpt>
      <trkpt lat="46.80378" lon="-2.09791">
        <ele>16.5</ele>
        <time>2020-06-04T09:50:59Z</time>
      </trkpt>
      <trkpt lat="46.80379" lon="-2.09796">
        <ele>16.5</ele>
        <time>2020-06-04T09:51:00Z</time>
      </trkpt>
      <trkpt lat="46.8038" lon="-2.09801">
        <ele>16.5</ele>
        <time>2020-06-04T09:51:01Z</time>
      </trkpt>
      <trkpt lat="46.80381" lon="-2.09806">
        <ele>16.5</ele>
        <time>2020-06-04T09:51:02Z</time>
      </trkpt>
      <trkpt lat="46.80383" lon="-2.09811">
        <ele>16.5</ele>
        <time>2020-06-04T09:51:03Z</time>
      </trkpt>
      <trkpt lat="46.80386" lon="-2.09816">
        <ele>16.5</ele>
        <time>2020-06-04T09:51:04Z</time>
      </trkpt>
      <trkpt lat="46.80388" lon="-2.09821">
        <ele>16.4</ele>
        <time>2020-06-04T09:51:05Z</time>
      </trkpt>
      <trkpt lat="46.80391" lon="-2.09824">
        <ele>16.4</ele>
        <time>2020-06-04T09:51:06Z</time>
      </trkpt>
      <trkpt lat="46.80395" lon="-2.09827">
        <ele>16.4</ele>
        <time>2020-06-04T09:51:07Z</time>
      </trkpt>
      <trkpt lat="46.80399" lon="-2.09829">
        <ele>16.4</ele>
        <time>2020-06-04T09:51:08Z</time>
      </trkpt>
      <trkpt lat="46.80403" lon="-2.09832">
        <ele>16.4</ele>
        <time>2020-06-04T09:51:09Z</time>
      </trkpt>
      <trkpt lat="46.80407" lon="-2.09835">
        <ele>16.3</ele>
        <time>2020-06-04T09:51:10Z</time>
      </trkpt>
      <trkpt lat="46.80412" lon="-2.09838">
        <ele>16.3</ele>
        <time>2020-06-04T09:51:11Z</time>
      </trkpt>
      <trkpt lat="46.80416" lon="-2.09839">
        <ele>16.1</ele>
        <time>2020-06-04T09:51:12Z</time>
      </trkpt>
      <trkpt lat="46.80421" lon="-2.09842">
        <ele>15.9</ele>
        <time>2020-06-04T09:51:13Z</time>
      </trkpt>
      <trkpt lat="46.80425" lon="-2.09845">
        <ele>15.8</ele>
        <time>2020-06-04T09:51:14Z</time>
      </trkpt>
      <trkpt lat="46.80428" lon="-2.09848">
        <ele>15.6</ele>
        <time>2020-06-04T09:51:15Z</time>
      </trkpt>
      <trkpt lat="46.80432" lon="-2.09853">
        <ele>15.3</ele>
        <time>2020-06-04T09:51:16Z</time>
      </trkpt>
      <trkpt lat="46.80436" lon="-2.09857">
        <ele>15</ele>
        <time>2020-06-04T09:51:17Z</time>
      </trkpt>
      <trkpt lat="46.80441" lon="-2.09861">
        <ele>14.7</ele>
        <time>2020-06-04T09:51:18Z</time>
      </trkpt>
      <trkpt lat="46.80445" lon="-2.09866">
        <ele>14.4</ele>
        <time>2020-06-04T09:51:19Z</time>
      </trkpt>
      <trkpt lat="46.80449" lon="-2.09872">
        <ele>14</ele>
        <time>2020-06-04T09:51:20Z</time>
      </trkpt>
      <trkpt lat="46.80453" lon="-2.09879">
        <ele>13.6</ele>
        <time>2020-06-04T09:51:21Z</time>
      </trkpt>
      <trkpt lat="46.80457" lon="-2.09887">
        <ele>13.1</ele>
        <time>2020-06-04T09:51:22Z</time>
      </trkpt>
      <trkpt lat="46.8046" lon="-2.09895">
        <ele>12.6</ele>
        <time>2020-06-04T09:51:23Z</time>
      </trkpt>
      <trkpt lat="46.80464" lon="-2.09904">
        <ele>12.2</ele>
        <time>2020-06-04T09:51:24Z</time>
      </trkpt>
      <trkpt lat="46.80467" lon="-2.09913">
        <ele>11.7</ele>
        <time>2020-06-04T09:51:25Z</time>
      </trkpt>
      <trkpt lat="46.80469" lon="-2.09922">
        <ele>11.2</ele>
        <time>2020-06-04T09:51:26Z</time>
      </trkpt>
      <trkpt lat="46.80471" lon="-2.09933">
        <ele>10.6</ele>
        <time>2020-06-04T09:51:27Z</time>
      </trkpt>
      <trkpt lat="46.80473" lon="-2.09945">
        <ele>10</ele>
        <time>2020-06-04T09:51:28Z</time>
      </trkpt>
      <trkpt lat="46.80475" lon="-2.09955">
        <ele>9.6</ele>
        <time>2020-06-04T09:51:29Z</time>
      </trkpt>
      <trkpt lat="46.80477" lon="-2.09966">
        <ele>9.3</ele>
        <time>2020-06-04T09:51:30Z</time>
      </trkpt>
      <trkpt lat="46.80482" lon="-2.09975">
        <ele>9.1</ele>
        <time>2020-06-04T09:51:31Z</time>
      </trkpt>
      <trkpt lat="46.80485" lon="-2.09986">
        <ele>9</ele>
        <time>2020-06-04T09:51:32Z</time>
      </trkpt>
      <trkpt lat="46.8049" lon="-2.09997">
        <ele>8.9</ele>
        <time>2020-06-04T09:51:33Z</time>
      </trkpt>
      <trkpt lat="46.80494" lon="-2.10008">
        <ele>8.5</ele>
        <time>2020-06-04T09:51:34Z</time>
      </trkpt>
      <trkpt lat="46.80497" lon="-2.10019">
        <ele>8.1</ele>
        <time>2020-06-04T09:51:35Z</time>
      </trkpt>
      <trkpt lat="46.805" lon="-2.1003">
        <ele>7.8</ele>
        <time>2020-06-04T09:51:36Z</time>
      </trkpt>
      <trkpt lat="46.80502" lon="-2.10042">
        <ele>7.4</ele>
        <time>2020-06-04T09:51:37Z</time>
      </trkpt>
      <trkpt lat="46.80504" lon="-2.10053">
        <ele>7</ele>
        <time>2020-06-04T09:51:38Z</time>
      </trkpt>
      <trkpt lat="46.80507" lon="-2.10064">
        <ele>6.7</ele>
        <time>2020-06-04T09:51:39Z</time>
      </trkpt>
      <trkpt lat="46.80508" lon="-2.10073">
        <ele>6.5</ele>
        <time>2020-06-04T09:51:40Z</time>
      </trkpt>
      <trkpt lat="46.80509" lon="-2.10083">
        <ele>6.2</ele>
        <time>2020-06-04T09:51:41Z</time>
      </trkpt>
      <trkpt lat="46.80509" lon="-2.10091">
        <ele>6.1</ele>
        <time>2020-06-04T09:51:42Z</time>
      </trkpt>
      <trkpt lat="46.80509" lon="-2.10098">
        <ele>6</ele>
        <time>2020-06-04T09:51:43Z</time>
      </trkpt>
      <trkpt lat="46.80509" lon="-2.10106">
        <ele>5.9</ele>
        <time>2020-06-04T09:51:44Z</time>
      </trkpt>
      <trkpt lat="46.80508" lon="-2.10113">
        <ele>5.8</ele>
        <time>2020-06-04T09:51:45Z</time>
      </trkpt>
      <trkpt lat="46.80507" lon="-2.10118">
        <ele>5.7</ele>
        <time>2020-06-04T09:51:46Z</time>
      </trkpt>
      <trkpt lat="46.80507" lon="-2.10122">
        <ele>5.7</ele>
        <time>2020-06-04T09:51:47Z</time>
      </trkpt>
      <trkpt lat="46.80507" lon="-2.10123">
        <ele>5.7</ele>
        <time>2020-06-04T09:51:48Z</time>
      </trkpt>
      <trkpt lat="46.80506" lon="-2.10129">
        <ele>5.7</ele>
        <time>2020-06-04T09:51:49Z</time>
      </trkpt>
      <trkpt lat="46.80506" lon="-2.10131">
        <ele>5.7</ele>
        <time>2020-06-04T09:51:50Z</time>
      </trkpt>
      <trkpt lat="46.80508" lon="-2.10135">
        <ele>5.8</ele>
        <time>2020-06-04T09:51:51Z</time>
      </trkpt>
      <trkpt lat="46.80508" lon="-2.10136">
        <ele>5.8</ele>
        <time>2020-06-04T09:51:52Z</time>
      </trkpt>
      <trkpt lat="46.80508" lon="-2.10138">
        <ele>5.8</ele>
        <time>2020-06-04T09:51:53Z</time>
      </trkpt>
      <trkpt lat="46.8051" lon="-2.10139">
        <ele>5.8</ele>
        <time>2020-06-04T09:51:54Z</time>
      </trkpt>
      <trkpt lat="46.80511" lon="-2.1014">
        <ele>5.8</ele>
        <time>2020-06-04T09:51:55Z</time>
      </trkpt>
      <trkpt lat="46.80512" lon="-2.10142">
        <ele>5.8</ele>
        <time>2020-06-04T09:51:56Z</time>
      </trkpt>
      <trkpt lat="46.80514" lon="-2.10147">
        <ele>5.8</ele>
        <time>2020-06-04T09:51:57Z</time>
      </trkpt>
      <trkpt lat="46.80514" lon="-2.10148">
        <ele>5.8</ele>
        <time>2020-06-04T09:51:58Z</time>
      </trkpt>
      <trkpt lat="46.80516" lon="-2.1015">
        <ele>5.8</ele>
        <time>2020-06-04T09:51:59Z</time>
      </trkpt>
      <trkpt lat="46.80516" lon="-2.10151">
        <ele>5.8</ele>
        <time>2020-06-04T09:52:00Z</time>
      </trkpt>
      <trkpt lat="46.80518" lon="-2.10153">
        <ele>5.8</ele>
        <time>2020-06-04T09:52:01Z</time>
      </trkpt>
      <trkpt lat="46.80519" lon="-2.10153">
        <ele>5.8</ele>
        <time>2020-06-04T09:52:02Z</time>
      </trkpt>
      <trkpt lat="46.8052" lon="-2.10154">
        <ele>5.7</ele>
        <time>2020-06-04T09:52:03Z</time>
      </trkpt>
      <trkpt lat="46.80522" lon="-2.10157">
        <ele>5.7</ele>
        <time>2020-06-04T09:52:04Z</time>
      </trkpt>
      <trkpt lat="46.80522" lon="-2.10159">
        <ele>5.7</ele>
        <time>2020-06-04T09:52:05Z</time>
      </trkpt>
      <trkpt lat="46.80524" lon="-2.10164">
        <ele>5.7</ele>
        <time>2020-06-04T09:52:06Z</time>
      </trkpt>
      <trkpt lat="46.80525" lon="-2.10165">
        <ele>5.7</ele>
        <time>2020-06-04T09:52:07Z</time>
      </trkpt>
      <trkpt lat="46.80526" lon="-2.10169">
        <ele>5.7</ele>
        <time>2020-06-04T09:52:08Z</time>
      </trkpt>
      <trkpt lat="46.80527" lon="-2.10174">
        <ele>5.7</ele>
        <time>2020-06-04T09:52:09Z</time>
      </trkpt>
      <trkpt lat="46.80529" lon="-2.10178">
        <ele>5.7</ele>
        <time>2020-06-04T09:52:10Z</time>
      </trkpt>
      <trkpt lat="46.80531" lon="-2.10183">
        <ele>5.7</ele>
        <time>2020-06-04T09:52:11Z</time>
      </trkpt>
      <trkpt lat="46.80533" lon="-2.10186">
        <ele>5.7</ele>
        <time>2020-06-04T09:52:12Z</time>
      </trkpt>
      <trkpt lat="46.80535" lon="-2.10191">
        <ele>5.7</ele>
        <time>2020-06-04T09:52:13Z</time>
      </trkpt>
      <trkpt lat="46.80537" lon="-2.10196">
        <ele>5.7</ele>
        <time>2020-06-04T09:52:14Z</time>
      </trkpt>
      <trkpt lat="46.8054" lon="-2.102">
        <ele>5.7</ele>
        <time>2020-06-04T09:52:15Z</time>
      </trkpt>
      <trkpt lat="46.80541" lon="-2.10204">
        <ele>5.7</ele>
        <time>2020-06-04T09:52:16Z</time>
      </trkpt>
      <trkpt lat="46.80543" lon="-2.10208">
        <ele>5.7</ele>
        <time>2020-06-04T09:52:17Z</time>
      </trkpt>
      <trkpt lat="46.80543" lon="-2.10213">
        <ele>5.7</ele>
        <time>2020-06-04T09:52:18Z</time>
      </trkpt>
      <trkpt lat="46.80546" lon="-2.10216">
        <ele>5.7</ele>
        <time>2020-06-04T09:52:19Z</time>
      </trkpt>
      <trkpt lat="46.80547" lon="-2.10219">
        <ele>5.7</ele>
        <time>2020-06-04T09:52:20Z</time>
      </trkpt>
      <trkpt lat="46.80548" lon="-2.10224">
        <ele>5.8</ele>
        <time>2020-06-04T09:52:21Z</time>
      </trkpt>
      <trkpt lat="46.80548" lon="-2.1023">
        <ele>5.8</ele>
        <time>2020-06-04T09:52:22Z</time>
      </trkpt>
      <trkpt lat="46.80549" lon="-2.10237">
        <ele>5.8</ele>
        <time>2020-06-04T09:52:23Z</time>
      </trkpt>
      <trkpt lat="46.8055" lon="-2.10243">
        <ele>5.8</ele>
        <time>2020-06-04T09:52:24Z</time>
      </trkpt>
      <trkpt lat="46.80551" lon="-2.1025">
        <ele>5.8</ele>
        <time>2020-06-04T09:52:25Z</time>
      </trkpt>
      <trkpt lat="46.80552" lon="-2.10256">
        <ele>5.9</ele>
        <time>2020-06-04T09:52:26Z</time>
      </trkpt>
      <trkpt lat="46.80552" lon="-2.10262">
        <ele>5.9</ele>
        <time>2020-06-04T09:52:27Z</time>
      </trkpt>
      <trkpt lat="46.80553" lon="-2.10267">
        <ele>5.9</ele>
        <time>2020-06-04T09:52:28Z</time>
      </trkpt>
      <trkpt lat="46.80554" lon="-2.10273">
        <ele>6</ele>
        <time>2020-06-04T09:52:29Z</time>
      </trkpt>
      <trkpt lat="46.80556" lon="-2.10278">
        <ele>6</ele>
        <time>2020-06-04T09:52:30Z</time>
      </trkpt>
      <trkpt lat="46.80557" lon="-2.10282">
        <ele>6</ele>
        <time>2020-06-04T09:52:31Z</time>
      </trkpt>
      <trkpt lat="46.80558" lon="-2.10287">
        <ele>6.1</ele>
        <time>2020-06-04T09:52:32Z</time>
      </trkpt>
      <trkpt lat="46.80559" lon="-2.10293">
        <ele>6.2</ele>
        <time>2020-06-04T09:52:33Z</time>
      </trkpt>
      <trkpt lat="46.80561" lon="-2.10299">
        <ele>6.2</ele>
        <time>2020-06-04T09:52:34Z</time>
      </trkpt>
      <trkpt lat="46.80563" lon="-2.10304">
        <ele>6.3</ele>
        <time>2020-06-04T09:52:35Z</time>
      </trkpt>
      <trkpt lat="46.80565" lon="-2.1031">
        <ele>6.4</ele>
        <time>2020-06-04T09:52:36Z</time>
      </trkpt>
      <trkpt lat="46.80567" lon="-2.10315">
        <ele>6.5</ele>
        <time>2020-06-04T09:52:37Z</time>
      </trkpt>
      <trkpt lat="46.80569" lon="-2.10321">
        <ele>6.5</ele>
        <time>2020-06-04T09:52:38Z</time>
      </trkpt>
      <trkpt lat="46.8057" lon="-2.10326">
        <ele>6.6</ele>
        <time>2020-06-04T09:52:39Z</time>
      </trkpt>
      <trkpt lat="46.80572" lon="-2.10331">
        <ele>6.6</ele>
        <time>2020-06-04T09:52:40Z</time>
      </trkpt>
      <trkpt lat="46.80574" lon="-2.10335">
        <ele>6.7</ele>
        <time>2020-06-04T09:52:41Z</time>
      </trkpt>
      <trkpt lat="46.80575" lon="-2.10341">
        <ele>6.7</ele>
        <time>2020-06-04T09:52:42Z</time>
      </trkpt>
      <trkpt lat="46.80576" lon="-2.10347">
        <ele>6.7</ele>
        <time>2020-06-04T09:52:43Z</time>
      </trkpt>
      <trkpt lat="46.80577" lon="-2.10354">
        <ele>6.7</ele>
        <time>2020-06-04T09:52:44Z</time>
      </trkpt>
      <trkpt lat="46.80578" lon="-2.10361">
        <ele>6.7</ele>
        <time>2020-06-04T09:52:45Z</time>
      </trkpt>
      <trkpt lat="46.80578" lon="-2.10368">
        <ele>6.7</ele>
        <time>2020-06-04T09:52:46Z</time>
      </trkpt>
      <trkpt lat="46.80579" lon="-2.10375">
        <ele>6.7</ele>
        <time>2020-06-04T09:52:47Z</time>
      </trkpt>
      <trkpt lat="46.8058" lon="-2.10383">
        <ele>6.7</ele>
        <time>2020-06-04T09:52:48Z</time>
      </trkpt>
      <trkpt lat="46.80578" lon="-2.1039">
        <ele>6.7</ele>
        <time>2020-06-04T09:52:49Z</time>
      </trkpt>
      <trkpt lat="46.80578" lon="-2.10398">
        <ele>6.6</ele>
        <time>2020-06-04T09:52:50Z</time>
      </trkpt>
      <trkpt lat="46.80578" lon="-2.10404">
        <ele>6.6</ele>
        <time>2020-06-04T09:52:51Z</time>
      </trkpt>
      <trkpt lat="46.8058" lon="-2.10411">
        <ele>6.6</ele>
        <time>2020-06-04T09:52:52Z</time>
      </trkpt>
      <trkpt lat="46.80581" lon="-2.10417">
        <ele>6.6</ele>
        <time>2020-06-04T09:52:53Z</time>
      </trkpt>
      <trkpt lat="46.80582" lon="-2.10423">
        <ele>6.6</ele>
        <time>2020-06-04T09:52:54Z</time>
      </trkpt>
      <trkpt lat="46.80583" lon="-2.1043">
        <ele>6.6</ele>
        <time>2020-06-04T09:52:55Z</time>
      </trkpt>
      <trkpt lat="46.80585" lon="-2.10435">
        <ele>6.6</ele>
        <time>2020-06-04T09:52:56Z</time>
      </trkpt>
      <trkpt lat="46.80585" lon="-2.10442">
        <ele>6.7</ele>
        <time>2020-06-04T09:52:57Z</time>
      </trkpt>
      <trkpt lat="46.80586" lon="-2.10448">
        <ele>6.7</ele>
        <time>2020-06-04T09:52:58Z</time>
      </trkpt>
      <trkpt lat="46.80587" lon="-2.10454">
        <ele>6.7</ele>
        <time>2020-06-04T09:52:59Z</time>
      </trkpt>
      <trkpt lat="46.80588" lon="-2.1046">
        <ele>6.8</ele>
        <time>2020-06-04T09:53:00Z</time>
      </trkpt>
      <trkpt lat="46.80588" lon="-2.10467">
        <ele>6.8</ele>
        <time>2020-06-04T09:53:01Z</time>
      </trkpt>
      <trkpt lat="46.80588" lon="-2.10473">
        <ele>6.9</ele>
        <time>2020-06-04T09:53:02Z</time>
      </trkpt>
      <trkpt lat="46.80591" lon="-2.10479">
        <ele>6.9</ele>
        <time>2020-06-04T09:53:03Z</time>
      </trkpt>
      <trkpt lat="46.80591" lon="-2.10485">
        <ele>7</ele>
        <time>2020-06-04T09:53:04Z</time>
      </trkpt>
      <trkpt lat="46.80592" lon="-2.10492">
        <ele>7.1</ele>
        <time>2020-06-04T09:53:05Z</time>
      </trkpt>
      <trkpt lat="46.80592" lon="-2.10498">
        <ele>7.2</ele>
        <time>2020-06-04T09:53:06Z</time>
      </trkpt>
      <trkpt lat="46.80593" lon="-2.10504">
        <ele>7.3</ele>
        <time>2020-06-04T09:53:07Z</time>
      </trkpt>
      <trkpt lat="46.80593" lon="-2.1051">
        <ele>7.4</ele>
        <time>2020-06-04T09:53:08Z</time>
      </trkpt>
      <trkpt lat="46.80593" lon="-2.10516">
        <ele>7.6</ele>
        <time>2020-06-04T09:53:09Z</time>
      </trkpt>
      <trkpt lat="46.80593" lon="-2.10523">
        <ele>7.7</ele>
        <time>2020-06-04T09:53:10Z</time>
      </trkpt>
      <trkpt lat="46.80594" lon="-2.10529">
        <ele>7.9</ele>
        <time>2020-06-04T09:53:11Z</time>
      </trkpt>
      <trkpt lat="46.80594" lon="-2.10536">
        <ele>8</ele>
        <time>2020-06-04T09:53:12Z</time>
      </trkpt>
      <trkpt lat="46.80594" lon="-2.10542">
        <ele>8.2</ele>
        <time>2020-06-04T09:53:13Z</time>
      </trkpt>
      <trkpt lat="46.80595" lon="-2.10549">
        <ele>8.4</ele>
        <time>2020-06-04T09:53:14Z</time>
      </trkpt>
      <trkpt lat="46.80596" lon="-2.10556">
        <ele>8.6</ele>
        <time>2020-06-04T09:53:15Z</time>
      </trkpt>
      <trkpt lat="46.80596" lon="-2.10563">
        <ele>8.8</ele>
        <time>2020-06-04T09:53:16Z</time>
      </trkpt>
      <trkpt lat="46.80596" lon="-2.10569">
        <ele>9</ele>
        <time>2020-06-04T09:53:17Z</time>
      </trkpt>
      <trkpt lat="46.80597" lon="-2.10574">
        <ele>9.2</ele>
        <time>2020-06-04T09:53:18Z</time>
      </trkpt>
      <trkpt lat="46.80599" lon="-2.10579">
        <ele>9.4</ele>
        <time>2020-06-04T09:53:19Z</time>
      </trkpt>
      <trkpt lat="46.80599" lon="-2.10585">
        <ele>9.5</ele>
        <time>2020-06-04T09:53:20Z</time>
      </trkpt>
      <trkpt lat="46.806" lon="-2.1059">
        <ele>9.7</ele>
        <time>2020-06-04T09:53:21Z</time>
      </trkpt>
      <trkpt lat="46.80601" lon="-2.10595">
        <ele>9.8</ele>
        <time>2020-06-04T09:53:22Z</time>
      </trkpt>
      <trkpt lat="46.80601" lon="-2.10599">
        <ele>9.9</ele>
        <time>2020-06-04T09:53:23Z</time>
      </trkpt>
      <trkpt lat="46.80601" lon="-2.10604">
        <ele>10</ele>
        <time>2020-06-04T09:53:24Z</time>
      </trkpt>
      <trkpt lat="46.80602" lon="-2.10609">
        <ele>10.1</ele>
        <time>2020-06-04T09:53:25Z</time>
      </trkpt>
      <trkpt lat="46.80604" lon="-2.10614">
        <ele>10.2</ele>
        <time>2020-06-04T09:53:26Z</time>
      </trkpt>
      <trkpt lat="46.80604" lon="-2.10619">
        <ele>10.3</ele>
        <time>2020-06-04T09:53:27Z</time>
      </trkpt>
      <trkpt lat="46.80604" lon="-2.10625">
        <ele>10.4</ele>
        <time>2020-06-04T09:53:28Z</time>
      </trkpt>
      <trkpt lat="46.80604" lon="-2.1063">
        <ele>10.5</ele>
        <time>2020-06-04T09:53:29Z</time>
      </trkpt>
      <trkpt lat="46.80604" lon="-2.10637">
        <ele>10.5</ele>
        <time>2020-06-04T09:53:30Z</time>
      </trkpt>
      <trkpt lat="46.80606" lon="-2.10643">
        <ele>10.5</ele>
        <time>2020-06-04T09:53:31Z</time>
      </trkpt>
      <trkpt lat="46.80607" lon="-2.10649">
        <ele>10.5</ele>
        <time>2020-06-04T09:53:32Z</time>
      </trkpt>
      <trkpt lat="46.80609" lon="-2.10656">
        <ele>10.4</ele>
        <time>2020-06-04T09:53:33Z</time>
      </trkpt>
      <trkpt lat="46.80611" lon="-2.10665">
        <ele>10.4</ele>
        <time>2020-06-04T09:53:34Z</time>
      </trkpt>
      <trkpt lat="46.80613" lon="-2.10673">
        <ele>10.3</ele>
        <time>2020-06-04T09:53:35Z</time>
      </trkpt>
      <trkpt lat="46.80615" lon="-2.10682">
        <ele>10.2</ele>
        <time>2020-06-04T09:53:36Z</time>
      </trkpt>
      <trkpt lat="46.80617" lon="-2.1069">
        <ele>10</ele>
        <time>2020-06-04T09:53:37Z</time>
      </trkpt>
      <trkpt lat="46.8062" lon="-2.10699">
        <ele>9.8</ele>
        <time>2020-06-04T09:53:38Z</time>
      </trkpt>
      <trkpt lat="46.80624" lon="-2.10711">
        <ele>9.4</ele>
        <time>2020-06-04T09:53:39Z</time>
      </trkpt>
      <trkpt lat="46.80629" lon="-2.10723">
        <ele>9</ele>
        <time>2020-06-04T09:53:40Z</time>
      </trkpt>
      <trkpt lat="46.80635" lon="-2.10732">
        <ele>8.6</ele>
        <time>2020-06-04T09:53:41Z</time>
      </trkpt>
      <trkpt lat="46.80641" lon="-2.1074">
        <ele>8.2</ele>
        <time>2020-06-04T09:53:42Z</time>
      </trkpt>
      <trkpt lat="46.80646" lon="-2.10748">
        <ele>7.9</ele>
        <time>2020-06-04T09:53:43Z</time>
      </trkpt>
      <trkpt lat="46.80652" lon="-2.10758">
        <ele>7.5</ele>
        <time>2020-06-04T09:53:44Z</time>
      </trkpt>
      <trkpt lat="46.80657" lon="-2.10768">
        <ele>7.1</ele>
        <time>2020-06-04T09:53:45Z</time>
      </trkpt>
      <trkpt lat="46.80664" lon="-2.10781">
        <ele>6.6</ele>
        <time>2020-06-04T09:53:46Z</time>
      </trkpt>
      <trkpt lat="46.8067" lon="-2.10793">
        <ele>6.2</ele>
        <time>2020-06-04T09:53:47Z</time>
      </trkpt>
      <trkpt lat="46.80676" lon="-2.10804">
        <ele>6</ele>
        <time>2020-06-04T09:53:48Z</time>
      </trkpt>
      <trkpt lat="46.80681" lon="-2.10812">
        <ele>5.8</ele>
        <time>2020-06-04T09:53:49Z</time>
      </trkpt>
      <trkpt lat="46.80687" lon="-2.10819">
        <ele>5.7</ele>
        <time>2020-06-04T09:53:50Z</time>
      </trkpt>
      <trkpt lat="46.80692" lon="-2.10827">
        <ele>5.7</ele>
        <time>2020-06-04T09:53:51Z</time>
      </trkpt>
      <trkpt lat="46.80697" lon="-2.10836">
        <ele>5.6</ele>
        <time>2020-06-04T09:53:52Z</time>
      </trkpt>
      <trkpt lat="46.807" lon="-2.10844">
        <ele>5.6</ele>
        <time>2020-06-04T09:53:53Z</time>
      </trkpt>
      <trkpt lat="46.80706" lon="-2.10853">
        <ele>5.6</ele>
        <time>2020-06-04T09:53:54Z</time>
      </trkpt>
      <trkpt lat="46.8071" lon="-2.10861">
        <ele>5.6</ele>
        <time>2020-06-04T09:53:55Z</time>
      </trkpt>
      <trkpt lat="46.80714" lon="-2.10867">
        <ele>5.6</ele>
        <time>2020-06-04T09:53:56Z</time>
      </trkpt>
      <trkpt lat="46.80716" lon="-2.10871">
        <ele>5.6</ele>
        <time>2020-06-04T09:53:57Z</time>
      </trkpt>
      <trkpt lat="46.8072" lon="-2.10879">
        <ele>5.7</ele>
        <time>2020-06-04T09:53:58Z</time>
      </trkpt>
      <trkpt lat="46.80723" lon="-2.10885">
        <ele>5.7</ele>
        <time>2020-06-04T09:53:59Z</time>
      </trkpt>
      <trkpt lat="46.80726" lon="-2.10891">
        <ele>5.8</ele>
        <time>2020-06-04T09:54:00Z</time>
      </trkpt>
      <trkpt lat="46.80731" lon="-2.10897">
        <ele>5.9</ele>
        <time>2020-06-04T09:54:01Z</time>
      </trkpt>
      <trkpt lat="46.80734" lon="-2.10903">
        <ele>6</ele>
        <time>2020-06-04T09:54:02Z</time>
      </trkpt>
      <trkpt lat="46.80737" lon="-2.10907">
        <ele>6.1</ele>
        <time>2020-06-04T09:54:03Z</time>
      </trkpt>
      <trkpt lat="46.80742" lon="-2.10911">
        <ele>6.1</ele>
        <time>2020-06-04T09:54:04Z</time>
      </trkpt>
      <trkpt lat="46.80746" lon="-2.10916">
        <ele>6.1</ele>
        <time>2020-06-04T09:54:05Z</time>
      </trkpt>
      <trkpt lat="46.80749" lon="-2.10921">
        <ele>6.1</ele>
        <time>2020-06-04T09:54:06Z</time>
      </trkpt>
      <trkpt lat="46.80752" lon="-2.10927">
        <ele>6.1</ele>
        <time>2020-06-04T09:54:07Z</time>
      </trkpt>
      <trkpt lat="46.80757" lon="-2.10933">
        <ele>6.1</ele>
        <time>2020-06-04T09:54:08Z</time>
      </trkpt>
      <trkpt lat="46.80761" lon="-2.1094">
        <ele>6</ele>
        <time>2020-06-04T09:54:09Z</time>
      </trkpt>
      <trkpt lat="46.80765" lon="-2.10946">
        <ele>6</ele>
        <time>2020-06-04T09:54:10Z</time>
      </trkpt>
      <trkpt lat="46.80769" lon="-2.10953">
        <ele>5.9</ele>
        <time>2020-06-04T09:54:11Z</time>
      </trkpt>
      <trkpt lat="46.80773" lon="-2.1096">
        <ele>5.9</ele>
        <time>2020-06-04T09:54:12Z</time>
      </trkpt>
      <trkpt lat="46.80776" lon="-2.10966">
        <ele>5.9</ele>
        <time>2020-06-04T09:54:13Z</time>
      </trkpt>
      <trkpt lat="46.8078" lon="-2.10974">
        <ele>5.9</ele>
        <time>2020-06-04T09:54:14Z</time>
      </trkpt>
      <trkpt lat="46.80782" lon="-2.10982">
        <ele>6</ele>
        <time>2020-06-04T09:54:15Z</time>
      </trkpt>
      <trkpt lat="46.80785" lon="-2.1099">
        <ele>6.1</ele>
        <time>2020-06-04T09:54:16Z</time>
      </trkpt>
      <trkpt lat="46.80788" lon="-2.10997">
        <ele>6.2</ele>
        <time>2020-06-04T09:54:17Z</time>
      </trkpt>
      <trkpt lat="46.8079" lon="-2.11004">
        <ele>6.3</ele>
        <time>2020-06-04T09:54:18Z</time>
      </trkpt>
      <trkpt lat="46.80792" lon="-2.11011">
        <ele>6.5</ele>
        <time>2020-06-04T09:54:19Z</time>
      </trkpt>
      <trkpt lat="46.80794" lon="-2.11019">
        <ele>6.7</ele>
        <time>2020-06-04T09:54:20Z</time>
      </trkpt>
      <trkpt lat="46.80796" lon="-2.11026">
        <ele>6.9</ele>
        <time>2020-06-04T09:54:21Z</time>
      </trkpt>
      <trkpt lat="46.80797" lon="-2.11033">
        <ele>7.2</ele>
        <time>2020-06-04T09:54:22Z</time>
      </trkpt>
      <trkpt lat="46.80799" lon="-2.11039">
        <ele>7.4</ele>
        <time>2020-06-04T09:54:23Z</time>
      </trkpt>
      <trkpt lat="46.80801" lon="-2.11047">
        <ele>7.6</ele>
        <time>2020-06-04T09:54:24Z</time>
      </trkpt>
      <trkpt lat="46.80803" lon="-2.11053">
        <ele>7.8</ele>
        <time>2020-06-04T09:54:25Z</time>
      </trkpt>
      <trkpt lat="46.80804" lon="-2.11057">
        <ele>7.9</ele>
        <time>2020-06-04T09:54:26Z</time>
      </trkpt>
      <trkpt lat="46.80805" lon="-2.11063">
        <ele>8.1</ele>
        <time>2020-06-04T09:54:27Z</time>
      </trkpt>
      <trkpt lat="46.80805" lon="-2.11065">
        <ele>8.1</ele>
        <time>2020-06-04T09:54:28Z</time>
      </trkpt>
      <trkpt lat="46.80806" lon="-2.11069">
        <ele>8.2</ele>
        <time>2020-06-04T09:54:29Z</time>
      </trkpt>
      <trkpt lat="46.80807" lon="-2.11073">
        <ele>8.3</ele>
        <time>2020-06-04T09:54:30Z</time>
      </trkpt>
      <trkpt lat="46.80809" lon="-2.11077">
        <ele>8.3</ele>
        <time>2020-06-04T09:54:31Z</time>
      </trkpt>
      <trkpt lat="46.80809" lon="-2.11078">
        <ele>8.4</ele>
        <time>2020-06-04T09:54:32Z</time>
      </trkpt>
      <trkpt lat="46.80809" lon="-2.11079">
        <ele>8.4</ele>
        <time>2020-06-04T09:54:33Z</time>
      </trkpt>
      <trkpt lat="46.8081" lon="-2.1108">
        <ele>8.4</ele>
        <time>2020-06-04T09:54:34Z</time>
      </trkpt>
      <trkpt lat="46.80811" lon="-2.11081">
        <ele>8.4</ele>
        <time>2020-06-04T09:54:35Z</time>
      </trkpt>
      <trkpt lat="46.80811" lon="-2.11082">
        <ele>8.4</ele>
        <time>2020-06-04T09:54:36Z</time>
      </trkpt>
      <trkpt lat="46.80812" lon="-2.11084">
        <ele>8.4</ele>
        <time>2020-06-04T09:54:37Z</time>
      </trkpt>
      <trkpt lat="46.80813" lon="-2.11086">
        <ele>8.4</ele>
        <time>2020-06-04T09:54:38Z</time>
      </trkpt>
      <trkpt lat="46.80815" lon="-2.1109">
        <ele>8.4</ele>
        <time>2020-06-04T09:54:39Z</time>
      </trkpt>
      <trkpt lat="46.80816" lon="-2.11091">
        <ele>8.4</ele>
        <time>2020-06-04T09:54:40Z</time>
      </trkpt>
      <trkpt lat="46.80817" lon="-2.11096">
        <ele>8.4</ele>
        <time>2020-06-04T09:54:41Z</time>
      </trkpt>
      <trkpt lat="46.80818" lon="-2.11098">
        <ele>8.3</ele>
        <time>2020-06-04T09:54:42Z</time>
      </trkpt>
      <trkpt lat="46.80819" lon="-2.11102">
        <ele>8.3</ele>
        <time>2020-06-04T09:54:43Z</time>
      </trkpt>
      <trkpt lat="46.80819" lon="-2.11104">
        <ele>8.3</ele>
        <time>2020-06-04T09:54:44Z</time>
      </trkpt>
      <trkpt lat="46.80821" lon="-2.11109">
        <ele>8.2</ele>
        <time>2020-06-04T09:54:45Z</time>
      </trkpt>
      <trkpt lat="46.80821" lon="-2.11111">
        <ele>8.1</ele>
        <time>2020-06-04T09:54:46Z</time>
      </trkpt>
      <trkpt lat="46.80822" lon="-2.11116">
        <ele>8</ele>
        <time>2020-06-04T09:54:47Z</time>
      </trkpt>
      <trkpt lat="46.80824" lon="-2.11121">
        <ele>7.9</ele>
        <time>2020-06-04T09:54:48Z</time>
      </trkpt>
      <trkpt lat="46.80825" lon="-2.11126">
        <ele>7.8</ele>
        <time>2020-06-04T09:54:49Z</time>
      </trkpt>
      <trkpt lat="46.80826" lon="-2.11132">
        <ele>7.6</ele>
        <time>2020-06-04T09:54:50Z</time>
      </trkpt>
      <trkpt lat="46.80827" lon="-2.11138">
        <ele>7.5</ele>
        <time>2020-06-04T09:54:51Z</time>
      </trkpt>
      <trkpt lat="46.80828" lon="-2.11144">
        <ele>7.3</ele>
        <time>2020-06-04T09:54:52Z</time>
      </trkpt>
      <trkpt lat="46.8083" lon="-2.11148">
        <ele>7.2</ele>
        <time>2020-06-04T09:54:53Z</time>
      </trkpt>
      <trkpt lat="46.80831" lon="-2.11153">
        <ele>7</ele>
        <time>2020-06-04T09:54:54Z</time>
      </trkpt>
      <trkpt lat="46.80832" lon="-2.11158">
        <ele>6.9</ele>
        <time>2020-06-04T09:54:55Z</time>
      </trkpt>
      <trkpt lat="46.80833" lon="-2.11163">
        <ele>6.8</ele>
        <time>2020-06-04T09:54:56Z</time>
      </trkpt>
      <trkpt lat="46.80835" lon="-2.11168">
        <ele>6.7</ele>
        <time>2020-06-04T09:54:57Z</time>
      </trkpt>
      <trkpt lat="46.80836" lon="-2.11171">
        <ele>6.6</ele>
        <time>2020-06-04T09:54:58Z</time>
      </trkpt>
      <trkpt lat="46.80839" lon="-2.11174">
        <ele>6.5</ele>
        <time>2020-06-04T09:54:59Z</time>
      </trkpt>
      <trkpt lat="46.80841" lon="-2.11175">
        <ele>6.5</ele>
        <time>2020-06-04T09:55:00Z</time>
      </trkpt>
      <trkpt lat="46.80844" lon="-2.11176">
        <ele>6.4</ele>
        <time>2020-06-04T09:55:01Z</time>
      </trkpt>
      <trkpt lat="46.80845" lon="-2.11177">
        <ele>6.4</ele>
        <time>2020-06-04T09:55:02Z</time>
      </trkpt>
      <trkpt lat="46.80847" lon="-2.11179">
        <ele>6.4</ele>
        <time>2020-06-04T09:55:03Z</time>
      </trkpt>
      <trkpt lat="46.80847" lon="-2.1118">
        <ele>6.4</ele>
        <time>2020-06-04T09:55:04Z</time>
      </trkpt>
      <trkpt lat="46.80848" lon="-2.11184">
        <ele>6.3</ele>
        <time>2020-06-04T09:55:05Z</time>
      </trkpt>
      <trkpt lat="46.80851" lon="-2.11188">
        <ele>6.3</ele>
        <time>2020-06-04T09:55:06Z</time>
      </trkpt>
      <trkpt lat="46.80852" lon="-2.11191">
        <ele>6.3</ele>
        <time>2020-06-04T09:55:07Z</time>
      </trkpt>
      <trkpt lat="46.80854" lon="-2.11195">
        <ele>6.3</ele>
        <time>2020-06-04T09:55:08Z</time>
      </trkpt>
      <trkpt lat="46.80855" lon="-2.11197">
        <ele>6.3</ele>
        <time>2020-06-04T09:55:09Z</time>
      </trkpt>
      <trkpt lat="46.80856" lon="-2.112">
        <ele>6.3</ele>
        <time>2020-06-04T09:55:10Z</time>
      </trkpt>
      <trkpt lat="46.80858" lon="-2.11204">
        <ele>6.3</ele>
        <time>2020-06-04T09:55:11Z</time>
      </trkpt>
      <trkpt lat="46.8086" lon="-2.11207">
        <ele>6.3</ele>
        <time>2020-06-04T09:55:12Z</time>
      </trkpt>
      <trkpt lat="46.80862" lon="-2.1121">
        <ele>6.3</ele>
        <time>2020-06-04T09:55:13Z</time>
      </trkpt>
      <trkpt lat="46.80864" lon="-2.11214">
        <ele>6.3</ele>
        <time>2020-06-04T09:55:14Z</time>
      </trkpt>
      <trkpt lat="46.80866" lon="-2.11217">
        <ele>6.3</ele>
        <time>2020-06-04T09:55:15Z</time>
      </trkpt>
      <trkpt lat="46.80868" lon="-2.11221">
        <ele>6.2</ele>
        <time>2020-06-04T09:55:16Z</time>
      </trkpt>
      <trkpt lat="46.8087" lon="-2.11225">
        <ele>6.2</ele>
        <time>2020-06-04T09:55:17Z</time>
      </trkpt>
      <trkpt lat="46.80872" lon="-2.11229">
        <ele>6.2</ele>
        <time>2020-06-04T09:55:18Z</time>
      </trkpt>
      <trkpt lat="46.80874" lon="-2.11235">
        <ele>6.2</ele>
        <time>2020-06-04T09:55:19Z</time>
      </trkpt>
      <trkpt lat="46.80875" lon="-2.1124">
        <ele>6.2</ele>
        <time>2020-06-04T09:55:20Z</time>
      </trkpt>
      <trkpt lat="46.80877" lon="-2.11246">
        <ele>6.1</ele>
        <time>2020-06-04T09:55:21Z</time>
      </trkpt>
      <trkpt lat="46.80878" lon="-2.11251">
        <ele>6.1</ele>
        <time>2020-06-04T09:55:22Z</time>
      </trkpt>
      <trkpt lat="46.80879" lon="-2.11256">
        <ele>6.1</ele>
        <time>2020-06-04T09:55:23Z</time>
      </trkpt>
      <trkpt lat="46.8088" lon="-2.11262">
        <ele>6.1</ele>
        <time>2020-06-04T09:55:24Z</time>
      </trkpt>
      <trkpt lat="46.8088" lon="-2.11268">
        <ele>6.1</ele>
        <time>2020-06-04T09:55:25Z</time>
      </trkpt>
      <trkpt lat="46.80882" lon="-2.11273">
        <ele>6.1</ele>
        <time>2020-06-04T09:55:26Z</time>
      </trkpt>
      <trkpt lat="46.80882" lon="-2.11278">
        <ele>6.1</ele>
        <time>2020-06-04T09:55:27Z</time>
      </trkpt>
      <trkpt lat="46.80884" lon="-2.11284">
        <ele>6.1</ele>
        <time>2020-06-04T09:55:28Z</time>
      </trkpt>
      <trkpt lat="46.80885" lon="-2.1129">
        <ele>6.1</ele>
        <time>2020-06-04T09:55:29Z</time>
      </trkpt>
      <trkpt lat="46.80886" lon="-2.11296">
        <ele>6</ele>
        <time>2020-06-04T09:55:30Z</time>
      </trkpt>
      <trkpt lat="46.80888" lon="-2.11302">
        <ele>6</ele>
        <time>2020-06-04T09:55:31Z</time>
      </trkpt>
      <trkpt lat="46.8089" lon="-2.11306">
        <ele>6</ele>
        <time>2020-06-04T09:55:32Z</time>
      </trkpt>
      <trkpt lat="46.80891" lon="-2.11311">
        <ele>5.9</ele>
        <time>2020-06-04T09:55:33Z</time>
      </trkpt>
      <trkpt lat="46.80892" lon="-2.11316">
        <ele>5.9</ele>
        <time>2020-06-04T09:55:34Z</time>
      </trkpt>
      <trkpt lat="46.80895" lon="-2.11321">
        <ele>5.9</ele>
        <time>2020-06-04T09:55:35Z</time>
      </trkpt>
      <trkpt lat="46.80896" lon="-2.11326">
        <ele>5.8</ele>
        <time>2020-06-04T09:55:36Z</time>
      </trkpt>
      <trkpt lat="46.80897" lon="-2.11331">
        <ele>5.8</ele>
        <time>2020-06-04T09:55:37Z</time>
      </trkpt>
      <trkpt lat="46.80899" lon="-2.11336">
        <ele>5.7</ele>
        <time>2020-06-04T09:55:38Z</time>
      </trkpt>
      <trkpt lat="46.809" lon="-2.11341">
        <ele>5.7</ele>
        <time>2020-06-04T09:55:39Z</time>
      </trkpt>
      <trkpt lat="46.80902" lon="-2.11346">
        <ele>5.7</ele>
        <time>2020-06-04T09:55:40Z</time>
      </trkpt>
      <trkpt lat="46.80904" lon="-2.11352">
        <ele>5.6</ele>
        <time>2020-06-04T09:55:41Z</time>
      </trkpt>
      <trkpt lat="46.80906" lon="-2.11358">
        <ele>5.6</ele>
        <time>2020-06-04T09:55:42Z</time>
      </trkpt>
      <trkpt lat="46.80907" lon="-2.11365">
        <ele>5.6</ele>
        <time>2020-06-04T09:55:43Z</time>
      </trkpt>
      <trkpt lat="46.80909" lon="-2.11371">
        <ele>5.6</ele>
        <time>2020-06-04T09:55:44Z</time>
      </trkpt>
      <trkpt lat="46.80911" lon="-2.11377">
        <ele>5.6</ele>
        <time>2020-06-04T09:55:45Z</time>
      </trkpt>
      <trkpt lat="46.80914" lon="-2.11382">
        <ele>5.5</ele>
        <time>2020-06-04T09:55:46Z</time>
      </trkpt>
      <trkpt lat="46.80916" lon="-2.11388">
        <ele>5.5</ele>
        <time>2020-06-04T09:55:47Z</time>
      </trkpt>
      <trkpt lat="46.80918" lon="-2.11393">
        <ele>5.5</ele>
        <time>2020-06-04T09:55:48Z</time>
      </trkpt>
      <trkpt lat="46.8092" lon="-2.11399">
        <ele>5.5</ele>
        <time>2020-06-04T09:55:49Z</time>
      </trkpt>
      <trkpt lat="46.80922" lon="-2.11405">
        <ele>5.5</ele>
        <time>2020-06-04T09:55:50Z</time>
      </trkpt>
      <trkpt lat="46.80925" lon="-2.11411">
        <ele>5.5</ele>
        <time>2020-06-04T09:55:51Z</time>
      </trkpt>
      <trkpt lat="46.80926" lon="-2.11417">
        <ele>5.6</ele>
        <time>2020-06-04T09:55:52Z</time>
      </trkpt>
      <trkpt lat="46.80929" lon="-2.11424">
        <ele>5.6</ele>
        <time>2020-06-04T09:55:53Z</time>
      </trkpt>
      <trkpt lat="46.80931" lon="-2.11429">
        <ele>5.7</ele>
        <time>2020-06-04T09:55:54Z</time>
      </trkpt>
      <trkpt lat="46.80933" lon="-2.11434">
        <ele>5.7</ele>
        <time>2020-06-04T09:55:55Z</time>
      </trkpt>
      <trkpt lat="46.80935" lon="-2.1144">
        <ele>5.8</ele>
        <time>2020-06-04T09:55:56Z</time>
      </trkpt>
      <trkpt lat="46.80936" lon="-2.11446">
        <ele>5.8</ele>
        <time>2020-06-04T09:55:57Z</time>
      </trkpt>
      <trkpt lat="46.80938" lon="-2.11451">
        <ele>5.9</ele>
        <time>2020-06-04T09:55:58Z</time>
      </trkpt>
      <trkpt lat="46.8094" lon="-2.11457">
        <ele>6</ele>
        <time>2020-06-04T09:55:59Z</time>
      </trkpt>
      <trkpt lat="46.80942" lon="-2.11463">
        <ele>6</ele>
        <time>2020-06-04T09:56:00Z</time>
      </trkpt>
      <trkpt lat="46.80943" lon="-2.11469">
        <ele>6.1</ele>
        <time>2020-06-04T09:56:01Z</time>
      </trkpt>
      <trkpt lat="46.80945" lon="-2.11475">
        <ele>6.2</ele>
        <time>2020-06-04T09:56:02Z</time>
      </trkpt>
      <trkpt lat="46.80947" lon="-2.1148">
        <ele>6.2</ele>
        <time>2020-06-04T09:56:03Z</time>
      </trkpt>
      <trkpt lat="46.8095" lon="-2.11485">
        <ele>6.3</ele>
        <time>2020-06-04T09:56:04Z</time>
      </trkpt>
      <trkpt lat="46.80953" lon="-2.1149">
        <ele>6.3</ele>
        <time>2020-06-04T09:56:05Z</time>
      </trkpt>
      <trkpt lat="46.80955" lon="-2.11497">
        <ele>6.3</ele>
        <time>2020-06-04T09:56:06Z</time>
      </trkpt>
      <trkpt lat="46.80958" lon="-2.11501">
        <ele>6.3</ele>
        <time>2020-06-04T09:56:07Z</time>
      </trkpt>
      <trkpt lat="46.80961" lon="-2.11507">
        <ele>6.4</ele>
        <time>2020-06-04T09:56:08Z</time>
      </trkpt>
      <trkpt lat="46.80964" lon="-2.11512">
        <ele>6.4</ele>
        <time>2020-06-04T09:56:09Z</time>
      </trkpt>
      <trkpt lat="46.80966" lon="-2.11517">
        <ele>6.4</ele>
        <time>2020-06-04T09:56:10Z</time>
      </trkpt>
      <trkpt lat="46.80968" lon="-2.11523">
        <ele>6.4</ele>
        <time>2020-06-04T09:56:11Z</time>
      </trkpt>
      <trkpt lat="46.8097" lon="-2.11528">
        <ele>6.4</ele>
        <time>2020-06-04T09:56:12Z</time>
      </trkpt>
      <trkpt lat="46.80971" lon="-2.11534">
        <ele>6.4</ele>
        <time>2020-06-04T09:56:13Z</time>
      </trkpt>
      <trkpt lat="46.80973" lon="-2.11539">
        <ele>6.4</ele>
        <time>2020-06-04T09:56:14Z</time>
      </trkpt>
      <trkpt lat="46.80975" lon="-2.11544">
        <ele>6.3</ele>
        <time>2020-06-04T09:56:15Z</time>
      </trkpt>
      <trkpt lat="46.80977" lon="-2.1155">
        <ele>6.3</ele>
        <time>2020-06-04T09:56:16Z</time>
      </trkpt>
      <trkpt lat="46.80979" lon="-2.11556">
        <ele>6.3</ele>
        <time>2020-06-04T09:56:17Z</time>
      </trkpt>
      <trkpt lat="46.80981" lon="-2.11564">
        <ele>6.3</ele>
        <time>2020-06-04T09:56:18Z</time>
      </trkpt>
      <trkpt lat="46.80984" lon="-2.11572">
        <ele>6.3</ele>
        <time>2020-06-04T09:56:19Z</time>
      </trkpt>
      <trkpt lat="46.80987" lon="-2.11578">
        <ele>6.3</ele>
        <time>2020-06-04T09:56:20Z</time>
      </trkpt>
      <trkpt lat="46.80989" lon="-2.11584">
        <ele>6.3</ele>
        <time>2020-06-04T09:56:21Z</time>
      </trkpt>
      <trkpt lat="46.80991" lon="-2.1159">
        <ele>6.3</ele>
        <time>2020-06-04T09:56:22Z</time>
      </trkpt>
      <trkpt lat="46.80993" lon="-2.11597">
        <ele>6.3</ele>
        <time>2020-06-04T09:56:23Z</time>
      </trkpt>
      <trkpt lat="46.80995" lon="-2.11603">
        <ele>6.3</ele>
        <time>2020-06-04T09:56:24Z</time>
      </trkpt>
      <trkpt lat="46.80998" lon="-2.11608">
        <ele>6.3</ele>
        <time>2020-06-04T09:56:25Z</time>
      </trkpt>
      <trkpt lat="46.81" lon="-2.11615">
        <ele>6.3</ele>
        <time>2020-06-04T09:56:26Z</time>
      </trkpt>
      <trkpt lat="46.81002" lon="-2.11621">
        <ele>6.3</ele>
        <time>2020-06-04T09:56:27Z</time>
      </trkpt>
      <trkpt lat="46.81003" lon="-2.11628">
        <ele>6.3</ele>
        <time>2020-06-04T09:56:28Z</time>
      </trkpt>
      <trkpt lat="46.81004" lon="-2.11634">
        <ele>6.3</ele>
        <time>2020-06-04T09:56:29Z</time>
      </trkpt>
      <trkpt lat="46.81004" lon="-2.11642">
        <ele>6.3</ele>
        <time>2020-06-04T09:56:30Z</time>
      </trkpt>
      <trkpt lat="46.81005" lon="-2.11648">
        <ele>6.4</ele>
        <time>2020-06-04T09:56:31Z</time>
      </trkpt>
      <trkpt lat="46.81006" lon="-2.11655">
        <ele>6.4</ele>
        <time>2020-06-04T09:56:32Z</time>
      </trkpt>
      <trkpt lat="46.81007" lon="-2.11664">
        <ele>6.5</ele>
        <time>2020-06-04T09:56:33Z</time>
      </trkpt>
      <trkpt lat="46.81008" lon="-2.11671">
        <ele>6.5</ele>
        <time>2020-06-04T09:56:34Z</time>
      </trkpt>
      <trkpt lat="46.81007" lon="-2.11677">
        <ele>6.5</ele>
        <time>2020-06-04T09:56:35Z</time>
      </trkpt>
      <trkpt lat="46.81007" lon="-2.11684">
        <ele>6.6</ele>
        <time>2020-06-04T09:56:36Z</time>
      </trkpt>
      <trkpt lat="46.81007" lon="-2.1169">
        <ele>6.6</ele>
        <time>2020-06-04T09:56:37Z</time>
      </trkpt>
      <trkpt lat="46.81008" lon="-2.11695">
        <ele>6.7</ele>
        <time>2020-06-04T09:56:38Z</time>
      </trkpt>
      <trkpt lat="46.81009" lon="-2.11701">
        <ele>6.7</ele>
        <time>2020-06-04T09:56:39Z</time>
      </trkpt>
      <trkpt lat="46.81009" lon="-2.11707">
        <ele>6.8</ele>
        <time>2020-06-04T09:56:40Z</time>
      </trkpt>
      <trkpt lat="46.8101" lon="-2.11712">
        <ele>6.8</ele>
        <time>2020-06-04T09:56:41Z</time>
      </trkpt>
      <trkpt lat="46.81011" lon="-2.11718">
        <ele>6.9</ele>
        <time>2020-06-04T09:56:42Z</time>
      </trkpt>
      <trkpt lat="46.81012" lon="-2.11721">
        <ele>6.9</ele>
        <time>2020-06-04T09:56:43Z</time>
      </trkpt>
      <trkpt lat="46.81015" lon="-2.11725">
        <ele>7</ele>
        <time>2020-06-04T09:56:44Z</time>
      </trkpt>
      <trkpt lat="46.81017" lon="-2.11729">
        <ele>7</ele>
        <time>2020-06-04T09:56:45Z</time>
      </trkpt>
      <trkpt lat="46.81019" lon="-2.11734">
        <ele>7.1</ele>
        <time>2020-06-04T09:56:46Z</time>
      </trkpt>
      <trkpt lat="46.81021" lon="-2.11739">
        <ele>7.1</ele>
        <time>2020-06-04T09:56:47Z</time>
      </trkpt>
      <trkpt lat="46.81023" lon="-2.11743">
        <ele>7.2</ele>
        <time>2020-06-04T09:56:48Z</time>
      </trkpt>
      <trkpt lat="46.81025" lon="-2.11748">
        <ele>7.2</ele>
        <time>2020-06-04T09:56:49Z</time>
      </trkpt>
      <trkpt lat="46.81027" lon="-2.11754">
        <ele>7.3</ele>
        <time>2020-06-04T09:56:50Z</time>
      </trkpt>
      <trkpt lat="46.81029" lon="-2.11759">
        <ele>7.3</ele>
        <time>2020-06-04T09:56:51Z</time>
      </trkpt>
      <trkpt lat="46.81031" lon="-2.11764">
        <ele>7.4</ele>
        <time>2020-06-04T09:56:52Z</time>
      </trkpt>
      <trkpt lat="46.81034" lon="-2.11769">
        <ele>7.4</ele>
        <time>2020-06-04T09:56:53Z</time>
      </trkpt>
      <trkpt lat="46.81037" lon="-2.11775">
        <ele>7.4</ele>
        <time>2020-06-04T09:56:54Z</time>
      </trkpt>
      <trkpt lat="46.81039" lon="-2.11779">
        <ele>7.4</ele>
        <time>2020-06-04T09:56:55Z</time>
      </trkpt>
      <trkpt lat="46.81041" lon="-2.11784">
        <ele>7.5</ele>
        <time>2020-06-04T09:56:56Z</time>
      </trkpt>
      <trkpt lat="46.81043" lon="-2.11788">
        <ele>7.5</ele>
        <time>2020-06-04T09:56:57Z</time>
      </trkpt>
      <trkpt lat="46.81045" lon="-2.11793">
        <ele>7.5</ele>
        <time>2020-06-04T09:56:58Z</time>
      </trkpt>
      <trkpt lat="46.81047" lon="-2.11798">
        <ele>7.5</ele>
        <time>2020-06-04T09:56:59Z</time>
      </trkpt>
      <trkpt lat="46.81049" lon="-2.11803">
        <ele>7.5</ele>
        <time>2020-06-04T09:57:00Z</time>
      </trkpt>
      <trkpt lat="46.81051" lon="-2.11807">
        <ele>7.6</ele>
        <time>2020-06-04T09:57:01Z</time>
      </trkpt>
      <trkpt lat="46.81054" lon="-2.11813">
        <ele>7.6</ele>
        <time>2020-06-04T09:57:02Z</time>
      </trkpt>
      <trkpt lat="46.81056" lon="-2.11818">
        <ele>7.6</ele>
        <time>2020-06-04T09:57:03Z</time>
      </trkpt>
      <trkpt lat="46.81058" lon="-2.11823">
        <ele>7.6</ele>
        <time>2020-06-04T09:57:04Z</time>
      </trkpt>
      <trkpt lat="46.81059" lon="-2.11824">
        <ele>7.6</ele>
        <time>2020-06-04T09:57:05Z</time>
      </trkpt>
      <trkpt lat="46.81062" lon="-2.11827">
        <ele>7.7</ele>
        <time>2020-06-04T09:57:06Z</time>
      </trkpt>
      <trkpt lat="46.81065" lon="-2.1183">
        <ele>7.7</ele>
        <time>2020-06-04T09:57:07Z</time>
      </trkpt>
      <trkpt lat="46.81068" lon="-2.11833">
        <ele>7.7</ele>
        <time>2020-06-04T09:57:08Z</time>
      </trkpt>
      <trkpt lat="46.81072" lon="-2.11834">
        <ele>7.7</ele>
        <time>2020-06-04T09:57:09Z</time>
      </trkpt>
      <trkpt lat="46.81076" lon="-2.11836">
        <ele>7.7</ele>
        <time>2020-06-04T09:57:10Z</time>
      </trkpt>
      <trkpt lat="46.81078" lon="-2.11835">
        <ele>7.7</ele>
        <time>2020-06-04T09:57:11Z</time>
      </trkpt>
      <trkpt lat="46.81081" lon="-2.11837">
        <ele>7.7</ele>
        <time>2020-06-04T09:57:12Z</time>
      </trkpt>
      <trkpt lat="46.81082" lon="-2.11837">
        <ele>7.6</ele>
        <time>2020-06-04T09:57:13Z</time>
      </trkpt>
      <trkpt lat="46.81086" lon="-2.11838">
        <ele>7.6</ele>
        <time>2020-06-04T09:57:14Z</time>
      </trkpt>
      <trkpt lat="46.81089" lon="-2.1184">
        <ele>7.5</ele>
        <time>2020-06-04T09:57:15Z</time>
      </trkpt>
      <trkpt lat="46.81092" lon="-2.11843">
        <ele>7.4</ele>
        <time>2020-06-04T09:57:16Z</time>
      </trkpt>
      <trkpt lat="46.81096" lon="-2.11845">
        <ele>7.3</ele>
        <time>2020-06-04T09:57:17Z</time>
      </trkpt>
      <trkpt lat="46.81099" lon="-2.11847">
        <ele>7.2</ele>
        <time>2020-06-04T09:57:18Z</time>
      </trkpt>
      <trkpt lat="46.81103" lon="-2.11849">
        <ele>7.1</ele>
        <time>2020-06-04T09:57:19Z</time>
      </trkpt>
      <trkpt lat="46.81107" lon="-2.11851">
        <ele>7</ele>
        <time>2020-06-04T09:57:20Z</time>
      </trkpt>
      <trkpt lat="46.81112" lon="-2.11854">
        <ele>6.9</ele>
        <time>2020-06-04T09:57:21Z</time>
      </trkpt>
      <trkpt lat="46.81116" lon="-2.11856">
        <ele>6.7</ele>
        <time>2020-06-04T09:57:22Z</time>
      </trkpt>
      <trkpt lat="46.81121" lon="-2.11858">
        <ele>6.6</ele>
        <time>2020-06-04T09:57:23Z</time>
      </trkpt>
      <trkpt lat="46.81127" lon="-2.11861">
        <ele>6.5</ele>
        <time>2020-06-04T09:57:24Z</time>
      </trkpt>
      <trkpt lat="46.81133" lon="-2.11861">
        <ele>6.3</ele>
        <time>2020-06-04T09:57:25Z</time>
      </trkpt>
      <trkpt lat="46.81139" lon="-2.11862">
        <ele>6.2</ele>
        <time>2020-06-04T09:57:26Z</time>
      </trkpt>
      <trkpt lat="46.81144" lon="-2.11864">
        <ele>6</ele>
        <time>2020-06-04T09:57:27Z</time>
      </trkpt>
      <trkpt lat="46.81148" lon="-2.11866">
        <ele>5.9</ele>
        <time>2020-06-04T09:57:28Z</time>
      </trkpt>
      <trkpt lat="46.81153" lon="-2.11868">
        <ele>5.8</ele>
        <time>2020-06-04T09:57:29Z</time>
      </trkpt>
      <trkpt lat="46.81159" lon="-2.11871">
        <ele>5.7</ele>
        <time>2020-06-04T09:57:30Z</time>
      </trkpt>
      <trkpt lat="46.81165" lon="-2.11873">
        <ele>5.7</ele>
        <time>2020-06-04T09:57:31Z</time>
      </trkpt>
      <trkpt lat="46.81171" lon="-2.11877">
        <ele>5.6</ele>
        <time>2020-06-04T09:57:32Z</time>
      </trkpt>
      <trkpt lat="46.81177" lon="-2.11879">
        <ele>5.5</ele>
        <time>2020-06-04T09:57:33Z</time>
      </trkpt>
      <trkpt lat="46.81181" lon="-2.11881">
        <ele>5.5</ele>
        <time>2020-06-04T09:57:34Z</time>
      </trkpt>
      <trkpt lat="46.81185" lon="-2.11886">
        <ele>5.5</ele>
        <time>2020-06-04T09:57:35Z</time>
      </trkpt>
      <trkpt lat="46.81191" lon="-2.11889">
        <ele>5.4</ele>
        <time>2020-06-04T09:57:36Z</time>
      </trkpt>
      <trkpt lat="46.81194" lon="-2.11895">
        <ele>5.4</ele>
        <time>2020-06-04T09:57:37Z</time>
      </trkpt>
      <trkpt lat="46.81198" lon="-2.11901">
        <ele>5.4</ele>
        <time>2020-06-04T09:57:38Z</time>
      </trkpt>
      <trkpt lat="46.81201" lon="-2.11906">
        <ele>5.4</ele>
        <time>2020-06-04T09:57:39Z</time>
      </trkpt>
      <trkpt lat="46.81204" lon="-2.11912">
        <ele>5.4</ele>
        <time>2020-06-04T09:57:40Z</time>
      </trkpt>
      <trkpt lat="46.81207" lon="-2.11917">
        <ele>5.4</ele>
        <time>2020-06-04T09:57:41Z</time>
      </trkpt>
      <trkpt lat="46.8121" lon="-2.11923">
        <ele>5.5</ele>
        <time>2020-06-04T09:57:42Z</time>
      </trkpt>
      <trkpt lat="46.81213" lon="-2.1193">
        <ele>5.5</ele>
        <time>2020-06-04T09:57:43Z</time>
      </trkpt>
      <trkpt lat="46.81215" lon="-2.11936">
        <ele>5.5</ele>
        <time>2020-06-04T09:57:44Z</time>
      </trkpt>
      <trkpt lat="46.81218" lon="-2.11941">
        <ele>5.6</ele>
        <time>2020-06-04T09:57:45Z</time>
      </trkpt>
      <trkpt lat="46.8122" lon="-2.11946">
        <ele>5.6</ele>
        <time>2020-06-04T09:57:46Z</time>
      </trkpt>
      <trkpt lat="46.81223" lon="-2.11952">
        <ele>5.6</ele>
        <time>2020-06-04T09:57:47Z</time>
      </trkpt>
      <trkpt lat="46.81227" lon="-2.11956">
        <ele>5.7</ele>
        <time>2020-06-04T09:57:48Z</time>
      </trkpt>
      <trkpt lat="46.8123" lon="-2.11961">
        <ele>5.7</ele>
        <time>2020-06-04T09:57:49Z</time>
      </trkpt>
      <trkpt lat="46.81233" lon="-2.11967">
        <ele>5.8</ele>
        <time>2020-06-04T09:57:50Z</time>
      </trkpt>
      <trkpt lat="46.81236" lon="-2.11972">
        <ele>5.8</ele>
        <time>2020-06-04T09:57:51Z</time>
      </trkpt>
      <trkpt lat="46.81239" lon="-2.11978">
        <ele>5.9</ele>
        <time>2020-06-04T09:57:52Z</time>
      </trkpt>
      <trkpt lat="46.81243" lon="-2.11983">
        <ele>5.9</ele>
        <time>2020-06-04T09:57:53Z</time>
      </trkpt>
      <trkpt lat="46.81246" lon="-2.11988">
        <ele>6</ele>
        <time>2020-06-04T09:57:54Z</time>
      </trkpt>
      <trkpt lat="46.81249" lon="-2.11993">
        <ele>6</ele>
        <time>2020-06-04T09:57:55Z</time>
      </trkpt>
      <trkpt lat="46.81252" lon="-2.11999">
        <ele>6</ele>
        <time>2020-06-04T09:57:56Z</time>
      </trkpt>
      <trkpt lat="46.81254" lon="-2.12005">
        <ele>6</ele>
        <time>2020-06-04T09:57:57Z</time>
      </trkpt>
      <trkpt lat="46.81256" lon="-2.12012">
        <ele>6</ele>
        <time>2020-06-04T09:57:58Z</time>
      </trkpt>
      <trkpt lat="46.81258" lon="-2.12017">
        <ele>6</ele>
        <time>2020-06-04T09:57:59Z</time>
      </trkpt>
      <trkpt lat="46.81261" lon="-2.12024">
        <ele>6</ele>
        <time>2020-06-04T09:58:00Z</time>
      </trkpt>
      <trkpt lat="46.81263" lon="-2.1203">
        <ele>6</ele>
        <time>2020-06-04T09:58:01Z</time>
      </trkpt>
      <trkpt lat="46.81265" lon="-2.12035">
        <ele>6</ele>
        <time>2020-06-04T09:58:02Z</time>
      </trkpt>
      <trkpt lat="46.81267" lon="-2.12039">
        <ele>6</ele>
        <time>2020-06-04T09:58:03Z</time>
      </trkpt>
      <trkpt lat="46.81269" lon="-2.12043">
        <ele>6</ele>
        <time>2020-06-04T09:58:04Z</time>
      </trkpt>
      <trkpt lat="46.8127" lon="-2.12048">
        <ele>6</ele>
        <time>2020-06-04T09:58:05Z</time>
      </trkpt>
      <trkpt lat="46.81272" lon="-2.12053">
        <ele>6</ele>
        <time>2020-06-04T09:58:06Z</time>
      </trkpt>
      <trkpt lat="46.81274" lon="-2.12059">
        <ele>6</ele>
        <time>2020-06-04T09:58:07Z</time>
      </trkpt>
      <trkpt lat="46.81276" lon="-2.12065">
        <ele>6</ele>
        <time>2020-06-04T09:58:08Z</time>
      </trkpt>
      <trkpt lat="46.81279" lon="-2.12071">
        <ele>6</ele>
        <time>2020-06-04T09:58:09Z</time>
      </trkpt>
      <trkpt lat="46.81281" lon="-2.12076">
        <ele>6</ele>
        <time>2020-06-04T09:58:10Z</time>
      </trkpt>
      <trkpt lat="46.81284" lon="-2.1208">
        <ele>6</ele>
        <time>2020-06-04T09:58:11Z</time>
      </trkpt>
      <trkpt lat="46.81287" lon="-2.12085">
        <ele>6</ele>
        <time>2020-06-04T09:58:12Z</time>
      </trkpt>
      <trkpt lat="46.81289" lon="-2.1209">
        <ele>6</ele>
        <time>2020-06-04T09:58:13Z</time>
      </trkpt>
      <trkpt lat="46.81292" lon="-2.12095">
        <ele>6</ele>
        <time>2020-06-04T09:58:14Z</time>
      </trkpt>
      <trkpt lat="46.81296" lon="-2.121">
        <ele>5.9</ele>
        <time>2020-06-04T09:58:15Z</time>
      </trkpt>
      <trkpt lat="46.81297" lon="-2.12105">
        <ele>5.9</ele>
        <time>2020-06-04T09:58:16Z</time>
      </trkpt>
      <trkpt lat="46.813" lon="-2.12111">
        <ele>5.8</ele>
        <time>2020-06-04T09:58:17Z</time>
      </trkpt>
      <trkpt lat="46.81301" lon="-2.12115">
        <ele>5.7</ele>
        <time>2020-06-04T09:58:18Z</time>
      </trkpt>
      <trkpt lat="46.81304" lon="-2.1212">
        <ele>5.7</ele>
        <time>2020-06-04T09:58:19Z</time>
      </trkpt>
      <trkpt lat="46.81306" lon="-2.12125">
        <ele>5.6</ele>
        <time>2020-06-04T09:58:20Z</time>
      </trkpt>
      <trkpt lat="46.81309" lon="-2.1213">
        <ele>5.6</ele>
        <time>2020-06-04T09:58:21Z</time>
      </trkpt>
      <trkpt lat="46.81311" lon="-2.12135">
        <ele>5.5</ele>
        <time>2020-06-04T09:58:22Z</time>
      </trkpt>
      <trkpt lat="46.81313" lon="-2.12139">
        <ele>5.4</ele>
        <time>2020-06-04T09:58:23Z</time>
      </trkpt>
      <trkpt lat="46.81316" lon="-2.12144">
        <ele>5.3</ele>
        <time>2020-06-04T09:58:24Z</time>
      </trkpt>
      <trkpt lat="46.81318" lon="-2.12149">
        <ele>5.3</ele>
        <time>2020-06-04T09:58:25Z</time>
      </trkpt>
      <trkpt lat="46.81319" lon="-2.12153">
        <ele>5.2</ele>
        <time>2020-06-04T09:58:26Z</time>
      </trkpt>
      <trkpt lat="46.81322" lon="-2.12158">
        <ele>5.1</ele>
        <time>2020-06-04T09:58:27Z</time>
      </trkpt>
      <trkpt lat="46.81325" lon="-2.12162">
        <ele>5</ele>
        <time>2020-06-04T09:58:28Z</time>
      </trkpt>
      <trkpt lat="46.81327" lon="-2.12166">
        <ele>5</ele>
        <time>2020-06-04T09:58:29Z</time>
      </trkpt>
      <trkpt lat="46.81328" lon="-2.1217">
        <ele>5</ele>
        <time>2020-06-04T09:58:30Z</time>
      </trkpt>
      <trkpt lat="46.8133" lon="-2.12176">
        <ele>5</ele>
        <time>2020-06-04T09:58:31Z</time>
      </trkpt>
      <trkpt lat="46.81332" lon="-2.12181">
        <ele>5</ele>
        <time>2020-06-04T09:58:32Z</time>
      </trkpt>
      <trkpt lat="46.81335" lon="-2.12185">
        <ele>5</ele>
        <time>2020-06-04T09:58:33Z</time>
      </trkpt>
      <trkpt lat="46.81334" lon="-2.1219">
        <ele>5</ele>
        <time>2020-06-04T09:58:34Z</time>
      </trkpt>
      <trkpt lat="46.81334" lon="-2.12192">
        <ele>5.1</ele>
        <time>2020-06-04T09:58:35Z</time>
      </trkpt>
      <trkpt lat="46.81333" lon="-2.12196">
        <ele>5.1</ele>
        <time>2020-06-04T09:58:36Z</time>
      </trkpt>
      <trkpt lat="46.81331" lon="-2.12201">
        <ele>5.2</ele>
        <time>2020-06-04T09:58:37Z</time>
      </trkpt>
      <trkpt lat="46.81329" lon="-2.12202">
        <ele>5.3</ele>
        <time>2020-06-04T09:58:38Z</time>
      </trkpt>
      <trkpt lat="46.81327" lon="-2.12204">
        <ele>5.3</ele>
        <time>2020-06-04T09:58:39Z</time>
      </trkpt>
      <trkpt lat="46.81324" lon="-2.12206">
        <ele>5.4</ele>
        <time>2020-06-04T09:58:40Z</time>
      </trkpt>
      <trkpt lat="46.81323" lon="-2.12207">
        <ele>5.5</ele>
        <time>2020-06-04T09:58:41Z</time>
      </trkpt>
      <trkpt lat="46.8132" lon="-2.1221">
        <ele>5.6</ele>
        <time>2020-06-04T09:58:42Z</time>
      </trkpt>
      <trkpt lat="46.81319" lon="-2.12211">
        <ele>5.6</ele>
        <time>2020-06-04T09:58:43Z</time>
      </trkpt>
      <trkpt lat="46.81316" lon="-2.12214">
        <ele>5.7</ele>
        <time>2020-06-04T09:58:44Z</time>
      </trkpt>
      <trkpt lat="46.81312" lon="-2.12218">
        <ele>5.9</ele>
        <time>2020-06-04T09:58:45Z</time>
      </trkpt>
      <trkpt lat="46.81311" lon="-2.12219">
        <ele>5.9</ele>
        <time>2020-06-04T09:58:46Z</time>
      </trkpt>
      <trkpt lat="46.81308" lon="-2.12223">
        <ele>6</ele>
        <time>2020-06-04T09:58:47Z</time>
      </trkpt>
      <trkpt lat="46.81306" lon="-2.12228">
        <ele>6.1</ele>
        <time>2020-06-04T09:58:48Z</time>
      </trkpt>
      <trkpt lat="46.81304" lon="-2.12231">
        <ele>6.2</ele>
        <time>2020-06-04T09:58:49Z</time>
      </trkpt>
      <trkpt lat="46.81302" lon="-2.12234">
        <ele>6.2</ele>
        <time>2020-06-04T09:58:50Z</time>
      </trkpt>
      <trkpt lat="46.813" lon="-2.12237">
        <ele>6.3</ele>
        <time>2020-06-04T09:58:51Z</time>
      </trkpt>
      <trkpt lat="46.81298" lon="-2.12242">
        <ele>6.4</ele>
        <time>2020-06-04T09:58:52Z</time>
      </trkpt>
      <trkpt lat="46.81297" lon="-2.12246">
        <ele>6.5</ele>
        <time>2020-06-04T09:58:53Z</time>
      </trkpt>
      <trkpt lat="46.81295" lon="-2.12251">
        <ele>6.5</ele>
        <time>2020-06-04T09:58:54Z</time>
      </trkpt>
      <trkpt lat="46.81292" lon="-2.12255">
        <ele>6.6</ele>
        <time>2020-06-04T09:58:55Z</time>
      </trkpt>
      <trkpt lat="46.8129" lon="-2.1226">
        <ele>6.7</ele>
        <time>2020-06-04T09:58:56Z</time>
      </trkpt>
      <trkpt lat="46.81288" lon="-2.12265">
        <ele>6.8</ele>
        <time>2020-06-04T09:58:57Z</time>
      </trkpt>
      <trkpt lat="46.81286" lon="-2.12269">
        <ele>6.9</ele>
        <time>2020-06-04T09:58:58Z</time>
      </trkpt>
      <trkpt lat="46.81283" lon="-2.12274">
        <ele>6.9</ele>
        <time>2020-06-04T09:58:59Z</time>
      </trkpt>
      <trkpt lat="46.8128" lon="-2.12278">
        <ele>7</ele>
        <time>2020-06-04T09:59:00Z</time>
      </trkpt>
      <trkpt lat="46.81278" lon="-2.12282">
        <ele>7</ele>
        <time>2020-06-04T09:59:01Z</time>
      </trkpt>
      <trkpt lat="46.81276" lon="-2.12286">
        <ele>7.1</ele>
        <time>2020-06-04T09:59:02Z</time>
      </trkpt>
      <trkpt lat="46.81274" lon="-2.12292">
        <ele>7.1</ele>
        <time>2020-06-04T09:59:03Z</time>
      </trkpt>
      <trkpt lat="46.81273" lon="-2.12297">
        <ele>7.1</ele>
        <time>2020-06-04T09:59:04Z</time>
      </trkpt>
      <trkpt lat="46.81274" lon="-2.12298">
        <ele>7.1</ele>
        <time>2020-06-04T09:59:05Z</time>
      </trkpt>
      <trkpt lat="46.81276" lon="-2.12301">
        <ele>7.1</ele>
        <time>2020-06-04T09:59:06Z</time>
      </trkpt>
      <trkpt lat="46.81277" lon="-2.12302">
        <ele>7.1</ele>
        <time>2020-06-04T09:59:07Z</time>
      </trkpt>
      <trkpt lat="46.81279" lon="-2.12305">
        <ele>7.1</ele>
        <time>2020-06-04T09:59:08Z</time>
      </trkpt>
      <trkpt lat="46.8128" lon="-2.12307">
        <ele>7.1</ele>
        <time>2020-06-04T09:59:09Z</time>
      </trkpt>
      <trkpt lat="46.81282" lon="-2.1231">
        <ele>7.2</ele>
        <time>2020-06-04T09:59:10Z</time>
      </trkpt>
      <trkpt lat="46.81284" lon="-2.12313">
        <ele>7.2</ele>
        <time>2020-06-04T09:59:11Z</time>
      </trkpt>
      <trkpt lat="46.81287" lon="-2.12315">
        <ele>7.2</ele>
        <time>2020-06-04T09:59:12Z</time>
      </trkpt>
      <trkpt lat="46.81288" lon="-2.1232">
        <ele>7.3</ele>
        <time>2020-06-04T09:59:13Z</time>
      </trkpt>
      <trkpt lat="46.81289" lon="-2.12322">
        <ele>7.3</ele>
        <time>2020-06-04T09:59:14Z</time>
      </trkpt>
      <trkpt lat="46.8129" lon="-2.12326">
        <ele>7.4</ele>
        <time>2020-06-04T09:59:15Z</time>
      </trkpt>
      <trkpt lat="46.81291" lon="-2.12328">
        <ele>7.4</ele>
        <time>2020-06-04T09:59:16Z</time>
      </trkpt>
      <trkpt lat="46.81292" lon="-2.12333">
        <ele>7.5</ele>
        <time>2020-06-04T09:59:17Z</time>
      </trkpt>
      <trkpt lat="46.81292" lon="-2.12335">
        <ele>7.5</ele>
        <time>2020-06-04T09:59:18Z</time>
      </trkpt>
      <trkpt lat="46.81295" lon="-2.12338">
        <ele>7.5</ele>
        <time>2020-06-04T09:59:19Z</time>
      </trkpt>
      <trkpt lat="46.81295" lon="-2.12339">
        <ele>7.6</ele>
        <time>2020-06-04T09:59:20Z</time>
      </trkpt>
      <trkpt lat="46.81297" lon="-2.12343">
        <ele>7.6</ele>
        <time>2020-06-04T09:59:21Z</time>
      </trkpt>
      <trkpt lat="46.81298" lon="-2.12348">
        <ele>7.7</ele>
        <time>2020-06-04T09:59:22Z</time>
      </trkpt>
      <trkpt lat="46.81299" lon="-2.1235">
        <ele>7.7</ele>
        <time>2020-06-04T09:59:23Z</time>
      </trkpt>
      <trkpt lat="46.81301" lon="-2.12354">
        <ele>7.8</ele>
        <time>2020-06-04T09:59:24Z</time>
      </trkpt>
      <trkpt lat="46.81303" lon="-2.12358">
        <ele>7.9</ele>
        <time>2020-06-04T09:59:25Z</time>
      </trkpt>
      <trkpt lat="46.81304" lon="-2.12362">
        <ele>7.9</ele>
        <time>2020-06-04T09:59:26Z</time>
      </trkpt>
      <trkpt lat="46.81306" lon="-2.12367">
        <ele>8</ele>
        <time>2020-06-04T09:59:27Z</time>
      </trkpt>
      <trkpt lat="46.81307" lon="-2.12373">
        <ele>8.1</ele>
        <time>2020-06-04T09:59:28Z</time>
      </trkpt>
      <trkpt lat="46.81309" lon="-2.12378">
        <ele>8.2</ele>
        <time>2020-06-04T09:59:29Z</time>
      </trkpt>
      <trkpt lat="46.81312" lon="-2.12382">
        <ele>8.4</ele>
        <time>2020-06-04T09:59:30Z</time>
      </trkpt>
      <trkpt lat="46.81315" lon="-2.12386">
        <ele>8.5</ele>
        <time>2020-06-04T09:59:31Z</time>
      </trkpt>
      <trkpt lat="46.81318" lon="-2.12389">
        <ele>8.7</ele>
        <time>2020-06-04T09:59:32Z</time>
      </trkpt>
      <trkpt lat="46.81321" lon="-2.12392">
        <ele>8.8</ele>
        <time>2020-06-04T09:59:33Z</time>
      </trkpt>
      <trkpt lat="46.81325" lon="-2.12392">
        <ele>8.9</ele>
        <time>2020-06-04T09:59:34Z</time>
      </trkpt>
      <trkpt lat="46.81329" lon="-2.12391">
        <ele>9</ele>
        <time>2020-06-04T09:59:35Z</time>
      </trkpt>
      <trkpt lat="46.81332" lon="-2.12389">
        <ele>9.1</ele>
        <time>2020-06-04T09:59:36Z</time>
      </trkpt>
      <trkpt lat="46.81335" lon="-2.12386">
        <ele>9.2</ele>
        <time>2020-06-04T09:59:37Z</time>
      </trkpt>
      <trkpt lat="46.81337" lon="-2.12384">
        <ele>9.3</ele>
        <time>2020-06-04T09:59:38Z</time>
      </trkpt>
      <trkpt lat="46.8134" lon="-2.12382">
        <ele>9.4</ele>
        <time>2020-06-04T09:59:39Z</time>
      </trkpt>
      <trkpt lat="46.81344" lon="-2.12381">
        <ele>9.5</ele>
        <time>2020-06-04T09:59:40Z</time>
      </trkpt>
      <trkpt lat="46.81347" lon="-2.1238">
        <ele>9.6</ele>
        <time>2020-06-04T09:59:41Z</time>
      </trkpt>
      <trkpt lat="46.81351" lon="-2.12378">
        <ele>9.6</ele>
        <time>2020-06-04T09:59:42Z</time>
      </trkpt>
      <trkpt lat="46.81354" lon="-2.12378">
        <ele>9.7</ele>
        <time>2020-06-04T09:59:43Z</time>
      </trkpt>
      <trkpt lat="46.81357" lon="-2.12376">
        <ele>9.8</ele>
        <time>2020-06-04T09:59:44Z</time>
      </trkpt>
      <trkpt lat="46.81361" lon="-2.12376">
        <ele>9.9</ele>
        <time>2020-06-04T09:59:45Z</time>
      </trkpt>
      <trkpt lat="46.81364" lon="-2.12376">
        <ele>10</ele>
        <time>2020-06-04T09:59:46Z</time>
      </trkpt>
      <trkpt lat="46.81367" lon="-2.12376">
        <ele>10.1</ele>
        <time>2020-06-04T09:59:47Z</time>
      </trkpt>
      <trkpt lat="46.8137" lon="-2.12377">
        <ele>10.2</ele>
        <time>2020-06-04T09:59:48Z</time>
      </trkpt>
      <trkpt lat="46.81371" lon="-2.12377">
        <ele>10.3</ele>
        <time>2020-06-04T09:59:49Z</time>
      </trkpt>
      <trkpt lat="46.81374" lon="-2.12379">
        <ele>10.4</ele>
        <time>2020-06-04T09:59:50Z</time>
      </trkpt>
      <trkpt lat="46.81375" lon="-2.12379">
        <ele>10.4</ele>
        <time>2020-06-04T09:59:51Z</time>
      </trkpt>
      <trkpt lat="46.81379" lon="-2.12381">
        <ele>10.5</ele>
        <time>2020-06-04T09:59:52Z</time>
      </trkpt>
      <trkpt lat="46.8138" lon="-2.12382">
        <ele>10.5</ele>
        <time>2020-06-04T09:59:53Z</time>
      </trkpt>
      <trkpt lat="46.81384" lon="-2.12384">
        <ele>10.7</ele>
        <time>2020-06-04T09:59:54Z</time>
      </trkpt>
      <trkpt lat="46.81385" lon="-2.12385">
        <ele>10.7</ele>
        <time>2020-06-04T09:59:55Z</time>
      </trkpt>
      <trkpt lat="46.81389" lon="-2.12387">
        <ele>10.8</ele>
        <time>2020-06-04T09:59:56Z</time>
      </trkpt>
      <trkpt lat="46.81392" lon="-2.1239">
        <ele>10.8</ele>
        <time>2020-06-04T09:59:57Z</time>
      </trkpt>
      <trkpt lat="46.81393" lon="-2.12391">
        <ele>10.8</ele>
        <time>2020-06-04T09:59:58Z</time>
      </trkpt>
      <trkpt lat="46.81395" lon="-2.12394">
        <ele>10.9</ele>
        <time>2020-06-04T09:59:59Z</time>
      </trkpt>
      <trkpt lat="46.81397" lon="-2.12398">
        <ele>10.9</ele>
        <time>2020-06-04T10:00:00Z</time>
      </trkpt>
      <trkpt lat="46.81399" lon="-2.12402">
        <ele>10.9</ele>
        <time>2020-06-04T10:00:01Z</time>
      </trkpt>
      <trkpt lat="46.81401" lon="-2.12405">
        <ele>10.9</ele>
        <time>2020-06-04T10:00:02Z</time>
      </trkpt>
      <trkpt lat="46.81403" lon="-2.1241">
        <ele>10.9</ele>
        <time>2020-06-04T10:00:03Z</time>
      </trkpt>
      <trkpt lat="46.81403" lon="-2.12412">
        <ele>10.9</ele>
        <time>2020-06-04T10:00:04Z</time>
      </trkpt>
      <trkpt lat="46.81405" lon="-2.12416">
        <ele>10.9</ele>
        <time>2020-06-04T10:00:05Z</time>
      </trkpt>
      <trkpt lat="46.81406" lon="-2.12418">
        <ele>10.9</ele>
        <time>2020-06-04T10:00:06Z</time>
      </trkpt>
      <trkpt lat="46.81409" lon="-2.12424">
        <ele>10.8</ele>
        <time>2020-06-04T10:00:07Z</time>
      </trkpt>
      <trkpt lat="46.81411" lon="-2.12428">
        <ele>10.8</ele>
        <time>2020-06-04T10:00:08Z</time>
      </trkpt>
      <trkpt lat="46.81413" lon="-2.12431">
        <ele>10.7</ele>
        <time>2020-06-04T10:00:09Z</time>
      </trkpt>
      <trkpt lat="46.81414" lon="-2.12432">
        <ele>10.7</ele>
        <time>2020-06-04T10:00:10Z</time>
      </trkpt>
      <trkpt lat="46.81418" lon="-2.12435">
        <ele>10.6</ele>
        <time>2020-06-04T10:00:11Z</time>
      </trkpt>
      <trkpt lat="46.81419" lon="-2.12436">
        <ele>10.5</ele>
        <time>2020-06-04T10:00:12Z</time>
      </trkpt>
      <trkpt lat="46.81424" lon="-2.12439">
        <ele>10.4</ele>
        <time>2020-06-04T10:00:13Z</time>
      </trkpt>
      <trkpt lat="46.8143" lon="-2.12442">
        <ele>10.2</ele>
        <time>2020-06-04T10:00:14Z</time>
      </trkpt>
      <trkpt lat="46.81432" lon="-2.12445">
        <ele>10</ele>
        <time>2020-06-04T10:00:15Z</time>
      </trkpt>
      <trkpt lat="46.81436" lon="-2.12448">
        <ele>9.8</ele>
        <time>2020-06-04T10:00:16Z</time>
      </trkpt>
      <trkpt lat="46.81442" lon="-2.1245">
        <ele>9.5</ele>
        <time>2020-06-04T10:00:17Z</time>
      </trkpt>
      <trkpt lat="46.81449" lon="-2.12453">
        <ele>9.1</ele>
        <time>2020-06-04T10:00:18Z</time>
      </trkpt>
      <trkpt lat="46.81456" lon="-2.12456">
        <ele>8.6</ele>
        <time>2020-06-04T10:00:19Z</time>
      </trkpt>
      <trkpt lat="46.81462" lon="-2.12459">
        <ele>8.2</ele>
        <time>2020-06-04T10:00:20Z</time>
      </trkpt>
      <trkpt lat="46.81468" lon="-2.12463">
        <ele>7.8</ele>
        <time>2020-06-04T10:00:21Z</time>
      </trkpt>
      <trkpt lat="46.81476" lon="-2.12468">
        <ele>7.4</ele>
        <time>2020-06-04T10:00:22Z</time>
      </trkpt>
      <trkpt lat="46.81482" lon="-2.12472">
        <ele>7.1</ele>
        <time>2020-06-04T10:00:23Z</time>
      </trkpt>
      <trkpt lat="46.81489" lon="-2.12476">
        <ele>6.9</ele>
        <time>2020-06-04T10:00:24Z</time>
      </trkpt>
      <trkpt lat="46.81495" lon="-2.1248">
        <ele>6.6</ele>
        <time>2020-06-04T10:00:25Z</time>
      </trkpt>
      <trkpt lat="46.81501" lon="-2.12484">
        <ele>6.4</ele>
        <time>2020-06-04T10:00:26Z</time>
      </trkpt>
      <trkpt lat="46.81507" lon="-2.12489">
        <ele>6.3</ele>
        <time>2020-06-04T10:00:27Z</time>
      </trkpt>
      <trkpt lat="46.81513" lon="-2.12495">
        <ele>6.3</ele>
        <time>2020-06-04T10:00:28Z</time>
      </trkpt>
      <trkpt lat="46.81519" lon="-2.12502">
        <ele>6.3</ele>
        <time>2020-06-04T10:00:29Z</time>
      </trkpt>
      <trkpt lat="46.81525" lon="-2.12509">
        <ele>6.3</ele>
        <time>2020-06-04T10:00:30Z</time>
      </trkpt>
      <trkpt lat="46.8153" lon="-2.12515">
        <ele>6.4</ele>
        <time>2020-06-04T10:00:31Z</time>
      </trkpt>
      <trkpt lat="46.81535" lon="-2.12521">
        <ele>6.4</ele>
        <time>2020-06-04T10:00:32Z</time>
      </trkpt>
      <trkpt lat="46.81539" lon="-2.12528">
        <ele>6.5</ele>
        <time>2020-06-04T10:00:33Z</time>
      </trkpt>
      <trkpt lat="46.81544" lon="-2.12536">
        <ele>6.5</ele>
        <time>2020-06-04T10:00:34Z</time>
      </trkpt>
      <trkpt lat="46.81549" lon="-2.12545">
        <ele>6.4</ele>
        <time>2020-06-04T10:00:35Z</time>
      </trkpt>
      <trkpt lat="46.81553" lon="-2.12552">
        <ele>6.4</ele>
        <time>2020-06-04T10:00:36Z</time>
      </trkpt>
      <trkpt lat="46.81557" lon="-2.12559">
        <ele>6.3</ele>
        <time>2020-06-04T10:00:37Z</time>
      </trkpt>
      <trkpt lat="46.81561" lon="-2.12565">
        <ele>6.2</ele>
        <time>2020-06-04T10:00:38Z</time>
      </trkpt>
      <trkpt lat="46.81567" lon="-2.12572">
        <ele>6.1</ele>
        <time>2020-06-04T10:00:39Z</time>
      </trkpt>
      <trkpt lat="46.81572" lon="-2.12578">
        <ele>6</ele>
        <time>2020-06-04T10:00:40Z</time>
      </trkpt>
      <trkpt lat="46.81577" lon="-2.12584">
        <ele>6</ele>
        <time>2020-06-04T10:00:41Z</time>
      </trkpt>
      <trkpt lat="46.81584" lon="-2.12591">
        <ele>6</ele>
        <time>2020-06-04T10:00:42Z</time>
      </trkpt>
      <trkpt lat="46.81589" lon="-2.12596">
        <ele>6</ele>
        <time>2020-06-04T10:00:43Z</time>
      </trkpt>
      <trkpt lat="46.81594" lon="-2.12603">
        <ele>6</ele>
        <time>2020-06-04T10:00:44Z</time>
      </trkpt>
      <trkpt lat="46.81598" lon="-2.1261">
        <ele>6</ele>
        <time>2020-06-04T10:00:45Z</time>
      </trkpt>
      <trkpt lat="46.81602" lon="-2.12617">
        <ele>5.9</ele>
        <time>2020-06-04T10:00:46Z</time>
      </trkpt>
      <trkpt lat="46.81605" lon="-2.12625">
        <ele>5.9</ele>
        <time>2020-06-04T10:00:47Z</time>
      </trkpt>
      <trkpt lat="46.81607" lon="-2.12632">
        <ele>5.8</ele>
        <time>2020-06-04T10:00:48Z</time>
      </trkpt>
      <trkpt lat="46.81609" lon="-2.12639">
        <ele>5.7</ele>
        <time>2020-06-04T10:00:49Z</time>
      </trkpt>
      <trkpt lat="46.81613" lon="-2.12645">
        <ele>5.5</ele>
        <time>2020-06-04T10:00:50Z</time>
      </trkpt>
      <trkpt lat="46.81618" lon="-2.12651">
        <ele>5.4</ele>
        <time>2020-06-04T10:00:51Z</time>
      </trkpt>
      <trkpt lat="46.81621" lon="-2.12658">
        <ele>5.3</ele>
        <time>2020-06-04T10:00:52Z</time>
      </trkpt>
      <trkpt lat="46.81625" lon="-2.12666">
        <ele>5.1</ele>
        <time>2020-06-04T10:00:53Z</time>
      </trkpt>
      <trkpt lat="46.8163" lon="-2.12674">
        <ele>4.9</ele>
        <time>2020-06-04T10:00:54Z</time>
      </trkpt>
      <trkpt lat="46.81634" lon="-2.12684">
        <ele>4.7</ele>
        <time>2020-06-04T10:00:55Z</time>
      </trkpt>
      <trkpt lat="46.81638" lon="-2.12694">
        <ele>4.6</ele>
        <time>2020-06-04T10:00:56Z</time>
      </trkpt>
      <trkpt lat="46.81641" lon="-2.12704">
        <ele>4.4</ele>
        <time>2020-06-04T10:00:57Z</time>
      </trkpt>
      <trkpt lat="46.81643" lon="-2.12716">
        <ele>4.3</ele>
        <time>2020-06-04T10:00:58Z</time>
      </trkpt>
      <trkpt lat="46.81644" lon="-2.12727">
        <ele>4.2</ele>
        <time>2020-06-04T10:00:59Z</time>
      </trkpt>
      <trkpt lat="46.81645" lon="-2.12738">
        <ele>4.1</ele>
        <time>2020-06-04T10:01:00Z</time>
      </trkpt>
      <trkpt lat="46.81648" lon="-2.1275">
        <ele>4</ele>
        <time>2020-06-04T10:01:01Z</time>
      </trkpt>
      <trkpt lat="46.81652" lon="-2.1276">
        <ele>4</ele>
        <time>2020-06-04T10:01:02Z</time>
      </trkpt>
      <trkpt lat="46.81656" lon="-2.1277">
        <ele>3.9</ele>
        <time>2020-06-04T10:01:03Z</time>
      </trkpt>
      <trkpt lat="46.8166" lon="-2.1278">
        <ele>3.8</ele>
        <time>2020-06-04T10:01:04Z</time>
      </trkpt>
      <trkpt lat="46.81664" lon="-2.12791">
        <ele>3.8</ele>
        <time>2020-06-04T10:01:05Z</time>
      </trkpt>
      <trkpt lat="46.81667" lon="-2.12799">
        <ele>3.8</ele>
        <time>2020-06-04T10:01:06Z</time>
      </trkpt>
      <trkpt lat="46.81671" lon="-2.12808">
        <ele>3.9</ele>
        <time>2020-06-04T10:01:07Z</time>
      </trkpt>
      <trkpt lat="46.81675" lon="-2.12817">
        <ele>4.1</ele>
        <time>2020-06-04T10:01:08Z</time>
      </trkpt>
      <trkpt lat="46.81679" lon="-2.12827">
        <ele>4.2</ele>
        <time>2020-06-04T10:01:09Z</time>
      </trkpt>
      <trkpt lat="46.81682" lon="-2.12833">
        <ele>4.3</ele>
        <time>2020-06-04T10:01:10Z</time>
      </trkpt>
      <trkpt lat="46.81685" lon="-2.12841">
        <ele>4.4</ele>
        <time>2020-06-04T10:01:11Z</time>
      </trkpt>
      <trkpt lat="46.81688" lon="-2.12849">
        <ele>4.5</ele>
        <time>2020-06-04T10:01:12Z</time>
      </trkpt>
      <trkpt lat="46.81692" lon="-2.12857">
        <ele>4.5</ele>
        <time>2020-06-04T10:01:13Z</time>
      </trkpt>
      <trkpt lat="46.81695" lon="-2.12866">
        <ele>4.6</ele>
        <time>2020-06-04T10:01:14Z</time>
      </trkpt>
      <trkpt lat="46.81699" lon="-2.12874">
        <ele>4.6</ele>
        <time>2020-06-04T10:01:15Z</time>
      </trkpt>
      <trkpt lat="46.81704" lon="-2.12882">
        <ele>4.6</ele>
        <time>2020-06-04T10:01:16Z</time>
      </trkpt>
      <trkpt lat="46.81708" lon="-2.12888">
        <ele>4.6</ele>
        <time>2020-06-04T10:01:17Z</time>
      </trkpt>
      <trkpt lat="46.81712" lon="-2.12895">
        <ele>4.6</ele>
        <time>2020-06-04T10:01:18Z</time>
      </trkpt>
      <trkpt lat="46.81716" lon="-2.12902">
        <ele>4.6</ele>
        <time>2020-06-04T10:01:19Z</time>
      </trkpt>
      <trkpt lat="46.8172" lon="-2.12909">
        <ele>4.5</ele>
        <time>2020-06-04T10:01:20Z</time>
      </trkpt>
      <trkpt lat="46.81725" lon="-2.12915">
        <ele>4.5</ele>
        <time>2020-06-04T10:01:21Z</time>
      </trkpt>
      <trkpt lat="46.81731" lon="-2.12921">
        <ele>4.4</ele>
        <time>2020-06-04T10:01:22Z</time>
      </trkpt>
      <trkpt lat="46.81735" lon="-2.12928">
        <ele>4.3</ele>
        <time>2020-06-04T10:01:23Z</time>
      </trkpt>
      <trkpt lat="46.8174" lon="-2.12933">
        <ele>4.3</ele>
        <time>2020-06-04T10:01:24Z</time>
      </trkpt>
      <trkpt lat="46.81745" lon="-2.12939">
        <ele>4.2</ele>
        <time>2020-06-04T10:01:25Z</time>
      </trkpt>
      <trkpt lat="46.8175" lon="-2.12946">
        <ele>4.2</ele>
        <time>2020-06-04T10:01:26Z</time>
      </trkpt>
      <trkpt lat="46.81755" lon="-2.12954">
        <ele>4.1</ele>
        <time>2020-06-04T10:01:27Z</time>
      </trkpt>
      <trkpt lat="46.8176" lon="-2.12961">
        <ele>4.1</ele>
        <time>2020-06-04T10:01:28Z</time>
      </trkpt>
      <trkpt lat="46.81765" lon="-2.12969">
        <ele>4.1</ele>
        <time>2020-06-04T10:01:29Z</time>
      </trkpt>
      <trkpt lat="46.81769" lon="-2.12976">
        <ele>4.1</ele>
        <time>2020-06-04T10:01:30Z</time>
      </trkpt>
      <trkpt lat="46.81774" lon="-2.12984">
        <ele>4.1</ele>
        <time>2020-06-04T10:01:31Z</time>
      </trkpt>
      <trkpt lat="46.81779" lon="-2.12991">
        <ele>4.2</ele>
        <time>2020-06-04T10:01:32Z</time>
      </trkpt>
      <trkpt lat="46.81783" lon="-2.12998">
        <ele>4.3</ele>
        <time>2020-06-04T10:01:33Z</time>
      </trkpt>
      <trkpt lat="46.81787" lon="-2.13004">
        <ele>4.4</ele>
        <time>2020-06-04T10:01:34Z</time>
      </trkpt>
      <trkpt lat="46.8179" lon="-2.13009">
        <ele>4.5</ele>
        <time>2020-06-04T10:01:35Z</time>
      </trkpt>
      <trkpt lat="46.81793" lon="-2.13014">
        <ele>4.6</ele>
        <time>2020-06-04T10:01:36Z</time>
      </trkpt>
      <trkpt lat="46.81796" lon="-2.13018">
        <ele>4.6</ele>
        <time>2020-06-04T10:01:37Z</time>
      </trkpt>
      <trkpt lat="46.818" lon="-2.13023">
        <ele>4.7</ele>
        <time>2020-06-04T10:01:38Z</time>
      </trkpt>
      <trkpt lat="46.81802" lon="-2.13026">
        <ele>4.7</ele>
        <time>2020-06-04T10:01:39Z</time>
      </trkpt>
      <trkpt lat="46.81805" lon="-2.13031">
        <ele>4.7</ele>
        <time>2020-06-04T10:01:40Z</time>
      </trkpt>
      <trkpt lat="46.81808" lon="-2.13034">
        <ele>4.7</ele>
        <time>2020-06-04T10:01:41Z</time>
      </trkpt>
      <trkpt lat="46.81811" lon="-2.13037">
        <ele>4.8</ele>
        <time>2020-06-04T10:01:42Z</time>
      </trkpt>
      <trkpt lat="46.81812" lon="-2.13038">
        <ele>4.8</ele>
        <time>2020-06-04T10:01:43Z</time>
      </trkpt>
      <trkpt lat="46.81813" lon="-2.13038">
        <ele>4.8</ele>
        <time>2020-06-04T10:01:44Z</time>
      </trkpt>
      <trkpt lat="46.81815" lon="-2.13038">
        <ele>4.8</ele>
        <time>2020-06-04T10:01:45Z</time>
      </trkpt>
      <trkpt lat="46.81817" lon="-2.13041">
        <ele>4.8</ele>
        <time>2020-06-04T10:01:46Z</time>
      </trkpt>
      <trkpt lat="46.81817" lon="-2.13041">
        <ele>4.8</ele>
        <time>2020-06-04T10:01:47Z</time>
      </trkpt>
      <trkpt lat="46.81818" lon="-2.13042">
        <ele>4.8</ele>
        <time>2020-06-04T10:01:48Z</time>
      </trkpt>
      <trkpt lat="46.81821" lon="-2.13044">
        <ele>4.8</ele>
        <time>2020-06-04T10:01:49Z</time>
      </trkpt>
      <trkpt lat="46.81821" lon="-2.13044">
        <ele>4.8</ele>
        <time>2020-06-04T10:01:50Z</time>
      </trkpt>
      <trkpt lat="46.81824" lon="-2.13047">
        <ele>4.8</ele>
        <time>2020-06-04T10:01:51Z</time>
      </trkpt>
      <trkpt lat="46.81825" lon="-2.13048">
        <ele>4.8</ele>
        <time>2020-06-04T10:01:52Z</time>
      </trkpt>
      <trkpt lat="46.81829" lon="-2.1305">
        <ele>4.7</ele>
        <time>2020-06-04T10:01:53Z</time>
      </trkpt>
      <trkpt lat="46.8183" lon="-2.1305">
        <ele>4.7</ele>
        <time>2020-06-04T10:01:54Z</time>
      </trkpt>
      <trkpt lat="46.81833" lon="-2.13052">
        <ele>4.7</ele>
        <time>2020-06-04T10:01:55Z</time>
      </trkpt>
      <trkpt lat="46.81835" lon="-2.13053">
        <ele>4.7</ele>
        <time>2020-06-04T10:01:56Z</time>
      </trkpt>
      <trkpt lat="46.81839" lon="-2.13054">
        <ele>4.7</ele>
        <time>2020-06-04T10:01:57Z</time>
      </trkpt>
      <trkpt lat="46.81843" lon="-2.13056">
        <ele>4.6</ele>
        <time>2020-06-04T10:01:58Z</time>
      </trkpt>
      <trkpt lat="46.81846" lon="-2.13058">
        <ele>4.6</ele>
        <time>2020-06-04T10:01:59Z</time>
      </trkpt>
      <trkpt lat="46.8185" lon="-2.13059">
        <ele>4.5</ele>
        <time>2020-06-04T10:02:00Z</time>
      </trkpt>
      <trkpt lat="46.81853" lon="-2.13062">
        <ele>4.4</ele>
        <time>2020-06-04T10:02:01Z</time>
      </trkpt>
      <trkpt lat="46.81857" lon="-2.13064">
        <ele>4.4</ele>
        <time>2020-06-04T10:02:02Z</time>
      </trkpt>
      <trkpt lat="46.81861" lon="-2.13065">
        <ele>4.3</ele>
        <time>2020-06-04T10:02:03Z</time>
      </trkpt>
      <trkpt lat="46.81866" lon="-2.13064">
        <ele>4.2</ele>
        <time>2020-06-04T10:02:04Z</time>
      </trkpt>
      <trkpt lat="46.81871" lon="-2.13065">
        <ele>4.2</ele>
        <time>2020-06-04T10:02:05Z</time>
      </trkpt>
      <trkpt lat="46.81875" lon="-2.13067">
        <ele>4.1</ele>
        <time>2020-06-04T10:02:06Z</time>
      </trkpt>
      <trkpt lat="46.81878" lon="-2.1307">
        <ele>4.1</ele>
        <time>2020-06-04T10:02:07Z</time>
      </trkpt>
      <trkpt lat="46.81882" lon="-2.13074">
        <ele>4.1</ele>
        <time>2020-06-04T10:02:08Z</time>
      </trkpt>
      <trkpt lat="46.81887" lon="-2.13077">
        <ele>4.1</ele>
        <time>2020-06-04T10:02:09Z</time>
      </trkpt>
      <trkpt lat="46.8189" lon="-2.13082">
        <ele>4</ele>
        <time>2020-06-04T10:02:10Z</time>
      </trkpt>
      <trkpt lat="46.81893" lon="-2.13086">
        <ele>4</ele>
        <time>2020-06-04T10:02:11Z</time>
      </trkpt>
      <trkpt lat="46.81895" lon="-2.13091">
        <ele>4</ele>
        <time>2020-06-04T10:02:12Z</time>
      </trkpt>
      <trkpt lat="46.81897" lon="-2.13095">
        <ele>4.1</ele>
        <time>2020-06-04T10:02:13Z</time>
      </trkpt>
      <trkpt lat="46.819" lon="-2.13099">
        <ele>4.1</ele>
        <time>2020-06-04T10:02:14Z</time>
      </trkpt>
      <trkpt lat="46.81902" lon="-2.13102">
        <ele>4.1</ele>
        <time>2020-06-04T10:02:15Z</time>
      </trkpt>
      <trkpt lat="46.81904" lon="-2.13105">
        <ele>4.1</ele>
        <time>2020-06-04T10:02:16Z</time>
      </trkpt>
      <trkpt lat="46.81906" lon="-2.13109">
        <ele>4.2</ele>
        <time>2020-06-04T10:02:17Z</time>
      </trkpt>
      <trkpt lat="46.81908" lon="-2.13112">
        <ele>4.2</ele>
        <time>2020-06-04T10:02:18Z</time>
      </trkpt>
      <trkpt lat="46.8191" lon="-2.13116">
        <ele>4.2</ele>
        <time>2020-06-04T10:02:19Z</time>
      </trkpt>
      <trkpt lat="46.81912" lon="-2.13119">
        <ele>4.3</ele>
        <time>2020-06-04T10:02:20Z</time>
      </trkpt>
      <trkpt lat="46.81915" lon="-2.13122">
        <ele>4.3</ele>
        <time>2020-06-04T10:02:21Z</time>
      </trkpt>
      <trkpt lat="46.81918" lon="-2.13126">
        <ele>4.4</ele>
        <time>2020-06-04T10:02:22Z</time>
      </trkpt>
      <trkpt lat="46.8192" lon="-2.13129">
        <ele>4.5</ele>
        <time>2020-06-04T10:02:23Z</time>
      </trkpt>
      <trkpt lat="46.81923" lon="-2.13131">
        <ele>4.6</ele>
        <time>2020-06-04T10:02:24Z</time>
      </trkpt>
      <trkpt lat="46.81926" lon="-2.13134">
        <ele>4.7</ele>
        <time>2020-06-04T10:02:25Z</time>
      </trkpt>
      <trkpt lat="46.81927" lon="-2.13135">
        <ele>4.7</ele>
        <time>2020-06-04T10:02:26Z</time>
      </trkpt>
      <trkpt lat="46.8193" lon="-2.13135">
        <ele>4.8</ele>
        <time>2020-06-04T10:02:27Z</time>
      </trkpt>
      <trkpt lat="46.81933" lon="-2.13137">
        <ele>4.9</ele>
        <time>2020-06-04T10:02:28Z</time>
      </trkpt>
      <trkpt lat="46.81934" lon="-2.13139">
        <ele>5</ele>
        <time>2020-06-04T10:02:29Z</time>
      </trkpt>
      <trkpt lat="46.81937" lon="-2.13142">
        <ele>5.1</ele>
        <time>2020-06-04T10:02:30Z</time>
      </trkpt>
      <trkpt lat="46.8194" lon="-2.13144">
        <ele>5.2</ele>
        <time>2020-06-04T10:02:31Z</time>
      </trkpt>
      <trkpt lat="46.81942" lon="-2.13149">
        <ele>5.3</ele>
        <time>2020-06-04T10:02:32Z</time>
      </trkpt>
      <trkpt lat="46.81945" lon="-2.13153">
        <ele>5.4</ele>
        <time>2020-06-04T10:02:33Z</time>
      </trkpt>
      <trkpt lat="46.81948" lon="-2.13159">
        <ele>5.6</ele>
        <time>2020-06-04T10:02:34Z</time>
      </trkpt>
      <trkpt lat="46.81952" lon="-2.13164">
        <ele>5.7</ele>
        <time>2020-06-04T10:02:35Z</time>
      </trkpt>
      <trkpt lat="46.81955" lon="-2.13168">
        <ele>5.8</ele>
        <time>2020-06-04T10:02:36Z</time>
      </trkpt>
      <trkpt lat="46.81958" lon="-2.13172">
        <ele>5.9</ele>
        <time>2020-06-04T10:02:37Z</time>
      </trkpt>
      <trkpt lat="46.81961" lon="-2.13178">
        <ele>5.9</ele>
        <time>2020-06-04T10:02:38Z</time>
      </trkpt>
      <trkpt lat="46.81963" lon="-2.13185">
        <ele>5.9</ele>
        <time>2020-06-04T10:02:39Z</time>
      </trkpt>
      <trkpt lat="46.81966" lon="-2.13191">
        <ele>5.9</ele>
        <time>2020-06-04T10:02:40Z</time>
      </trkpt>
      <trkpt lat="46.81969" lon="-2.13196">
        <ele>5.8</ele>
        <time>2020-06-04T10:02:41Z</time>
      </trkpt>
      <trkpt lat="46.81971" lon="-2.132">
        <ele>5.8</ele>
        <time>2020-06-04T10:02:42Z</time>
      </trkpt>
      <trkpt lat="46.81973" lon="-2.13205">
        <ele>5.7</ele>
        <time>2020-06-04T10:02:43Z</time>
      </trkpt>
      <trkpt lat="46.81977" lon="-2.13214">
        <ele>5.5</ele>
        <time>2020-06-04T10:02:44Z</time>
      </trkpt>
      <trkpt lat="46.81981" lon="-2.13227">
        <ele>5.3</ele>
        <time>2020-06-04T10:02:45Z</time>
      </trkpt>
      <trkpt lat="46.81983" lon="-2.13239">
        <ele>5.1</ele>
        <time>2020-06-04T10:02:46Z</time>
      </trkpt>
      <trkpt lat="46.81983" lon="-2.13249">
        <ele>5.1</ele>
        <time>2020-06-04T10:02:47Z</time>
      </trkpt>
      <trkpt lat="46.81982" lon="-2.13257">
        <ele>5</ele>
        <time>2020-06-04T10:02:48Z</time>
      </trkpt>
      <trkpt lat="46.81982" lon="-2.13267">
        <ele>5</ele>
        <time>2020-06-04T10:02:49Z</time>
      </trkpt>
      <trkpt lat="46.81982" lon="-2.13278">
        <ele>5</ele>
        <time>2020-06-04T10:02:50Z</time>
      </trkpt>
      <trkpt lat="46.81982" lon="-2.13288">
        <ele>5.1</ele>
        <time>2020-06-04T10:02:51Z</time>
      </trkpt>
      <trkpt lat="46.81983" lon="-2.13301">
        <ele>5.2</ele>
        <time>2020-06-04T10:02:52Z</time>
      </trkpt>
      <trkpt lat="46.81982" lon="-2.1331">
        <ele>5.3</ele>
        <time>2020-06-04T10:02:53Z</time>
      </trkpt>
      <trkpt lat="46.81981" lon="-2.13317">
        <ele>5.4</ele>
        <time>2020-06-04T10:02:54Z</time>
      </trkpt>
      <trkpt lat="46.81982" lon="-2.13324">
        <ele>5.4</ele>
        <time>2020-06-04T10:02:55Z</time>
      </trkpt>
      <trkpt lat="46.81982" lon="-2.1333">
        <ele>5.5</ele>
        <time>2020-06-04T10:02:56Z</time>
      </trkpt>
      <trkpt lat="46.81982" lon="-2.13338">
        <ele>5.6</ele>
        <time>2020-06-04T10:02:57Z</time>
      </trkpt>
      <trkpt lat="46.81981" lon="-2.13345">
        <ele>5.7</ele>
        <time>2020-06-04T10:02:58Z</time>
      </trkpt>
      <trkpt lat="46.81981" lon="-2.13349">
        <ele>5.8</ele>
        <time>2020-06-04T10:02:59Z</time>
      </trkpt>
      <trkpt lat="46.8198" lon="-2.13355">
        <ele>5.9</ele>
        <time>2020-06-04T10:03:00Z</time>
      </trkpt>
      <trkpt lat="46.8198" lon="-2.13357">
        <ele>5.9</ele>
        <time>2020-06-04T10:03:01Z</time>
      </trkpt>
      <trkpt lat="46.8198" lon="-2.13364">
        <ele>6.1</ele>
        <time>2020-06-04T10:03:02Z</time>
      </trkpt>
      <trkpt lat="46.8198" lon="-2.13368">
        <ele>6.1</ele>
        <time>2020-06-04T10:03:03Z</time>
      </trkpt>
      <trkpt lat="46.8198" lon="-2.13373">
        <ele>6.3</ele>
        <time>2020-06-04T10:03:04Z</time>
      </trkpt>
      <trkpt lat="46.8198" lon="-2.13375">
        <ele>6.3</ele>
        <time>2020-06-04T10:03:05Z</time>
      </trkpt>
      <trkpt lat="46.81979" lon="-2.1338">
        <ele>6.4</ele>
        <time>2020-06-04T10:03:06Z</time>
      </trkpt>
      <trkpt lat="46.81978" lon="-2.13381">
        <ele>6.5</ele>
        <time>2020-06-04T10:03:07Z</time>
      </trkpt>
      <trkpt lat="46.81977" lon="-2.13388">
        <ele>6.6</ele>
        <time>2020-06-04T10:03:08Z</time>
      </trkpt>
      <trkpt lat="46.81976" lon="-2.13394">
        <ele>6.8</ele>
        <time>2020-06-04T10:03:09Z</time>
      </trkpt>
      <trkpt lat="46.81976" lon="-2.13398">
        <ele>6.9</ele>
        <time>2020-06-04T10:03:10Z</time>
      </trkpt>
      <trkpt lat="46.81975" lon="-2.13402">
        <ele>7</ele>
        <time>2020-06-04T10:03:11Z</time>
      </trkpt>
      <trkpt lat="46.81974" lon="-2.13406">
        <ele>7.1</ele>
        <time>2020-06-04T10:03:12Z</time>
      </trkpt>
      <trkpt lat="46.81974" lon="-2.13412">
        <ele>7.2</ele>
        <time>2020-06-04T10:03:13Z</time>
      </trkpt>
      <trkpt lat="46.81974" lon="-2.13413">
        <ele>7.2</ele>
        <time>2020-06-04T10:03:14Z</time>
      </trkpt>
      <trkpt lat="46.81974" lon="-2.13417">
        <ele>7.3</ele>
        <time>2020-06-04T10:03:15Z</time>
      </trkpt>
      <trkpt lat="46.81974" lon="-2.13419">
        <ele>7.3</ele>
        <time>2020-06-04T10:03:16Z</time>
      </trkpt>
      <trkpt lat="46.81974" lon="-2.13423">
        <ele>7.3</ele>
        <time>2020-06-04T10:03:17Z</time>
      </trkpt>
      <trkpt lat="46.81974" lon="-2.13425">
        <ele>7.4</ele>
        <time>2020-06-04T10:03:18Z</time>
      </trkpt>
      <trkpt lat="46.81974" lon="-2.13427">
        <ele>7.4</ele>
        <time>2020-06-04T10:03:19Z</time>
      </trkpt>
      <trkpt lat="46.81974" lon="-2.1343">
        <ele>7.4</ele>
        <time>2020-06-04T10:03:20Z</time>
      </trkpt>
      <trkpt lat="46.81976" lon="-2.13434">
        <ele>7.5</ele>
        <time>2020-06-04T10:03:21Z</time>
      </trkpt>
      <trkpt lat="46.81976" lon="-2.13436">
        <ele>7.5</ele>
        <time>2020-06-04T10:03:22Z</time>
      </trkpt>
      <trkpt lat="46.81977" lon="-2.13442">
        <ele>7.6</ele>
        <time>2020-06-04T10:03:23Z</time>
      </trkpt>
      <trkpt lat="46.81977" lon="-2.13445">
        <ele>7.6</ele>
        <time>2020-06-04T10:03:24Z</time>
      </trkpt>
      <trkpt lat="46.81978" lon="-2.1345">
        <ele>7.7</ele>
        <time>2020-06-04T10:03:25Z</time>
      </trkpt>
      <trkpt lat="46.81977" lon="-2.13451">
        <ele>7.7</ele>
        <time>2020-06-04T10:03:26Z</time>
      </trkpt>
      <trkpt lat="46.81978" lon="-2.13457">
        <ele>7.7</ele>
        <time>2020-06-04T10:03:27Z</time>
      </trkpt>
      <trkpt lat="46.81979" lon="-2.1346">
        <ele>7.7</ele>
        <time>2020-06-04T10:03:28Z</time>
      </trkpt>
      <trkpt lat="46.8198" lon="-2.13464">
        <ele>7.8</ele>
        <time>2020-06-04T10:03:29Z</time>
      </trkpt>
      <trkpt lat="46.81981" lon="-2.13467">
        <ele>7.8</ele>
        <time>2020-06-04T10:03:30Z</time>
      </trkpt>
      <trkpt lat="46.81982" lon="-2.13471">
        <ele>7.8</ele>
        <time>2020-06-04T10:03:31Z</time>
      </trkpt>
      <trkpt lat="46.81984" lon="-2.13475">
        <ele>7.8</ele>
        <time>2020-06-04T10:03:32Z</time>
      </trkpt>
      <trkpt lat="46.81985" lon="-2.1348">
        <ele>7.9</ele>
        <time>2020-06-04T10:03:33Z</time>
      </trkpt>
      <trkpt lat="46.81986" lon="-2.13481">
        <ele>7.9</ele>
        <time>2020-06-04T10:03:34Z</time>
      </trkpt>
      <trkpt lat="46.81986" lon="-2.13486">
        <ele>7.9</ele>
        <time>2020-06-04T10:03:35Z</time>
      </trkpt>
      <trkpt lat="46.81986" lon="-2.13489">
        <ele>7.9</ele>
        <time>2020-06-04T10:03:36Z</time>
      </trkpt>
      <trkpt lat="46.81988" lon="-2.13493">
        <ele>8</ele>
        <time>2020-06-04T10:03:37Z</time>
      </trkpt>
      <trkpt lat="46.81988" lon="-2.13498">
        <ele>8</ele>
        <time>2020-06-04T10:03:38Z</time>
      </trkpt>
      <trkpt lat="46.81989" lon="-2.135">
        <ele>8</ele>
        <time>2020-06-04T10:03:39Z</time>
      </trkpt>
      <trkpt lat="46.8199" lon="-2.13503">
        <ele>8.1</ele>
        <time>2020-06-04T10:03:40Z</time>
      </trkpt>
      <trkpt lat="46.8199" lon="-2.13505">
        <ele>8.1</ele>
        <time>2020-06-04T10:03:41Z</time>
      </trkpt>
      <trkpt lat="46.81991" lon="-2.13509">
        <ele>8.1</ele>
        <time>2020-06-04T10:03:42Z</time>
      </trkpt>
      <trkpt lat="46.81992" lon="-2.13514">
        <ele>8.2</ele>
        <time>2020-06-04T10:03:43Z</time>
      </trkpt>
      <trkpt lat="46.81993" lon="-2.13519">
        <ele>8.2</ele>
        <time>2020-06-04T10:03:44Z</time>
      </trkpt>
      <trkpt lat="46.81993" lon="-2.13521">
        <ele>8.2</ele>
        <time>2020-06-04T10:03:45Z</time>
      </trkpt>
      <trkpt lat="46.81994" lon="-2.13525">
        <ele>8.3</ele>
        <time>2020-06-04T10:03:46Z</time>
      </trkpt>
      <trkpt lat="46.81995" lon="-2.1353">
        <ele>8.3</ele>
        <time>2020-06-04T10:03:47Z</time>
      </trkpt>
      <trkpt lat="46.81995" lon="-2.13532">
        <ele>8.3</ele>
        <time>2020-06-04T10:03:48Z</time>
      </trkpt>
      <trkpt lat="46.81996" lon="-2.13536">
        <ele>8.4</ele>
        <time>2020-06-04T10:03:49Z</time>
      </trkpt>
      <trkpt lat="46.81997" lon="-2.13541">
        <ele>8.4</ele>
        <time>2020-06-04T10:03:50Z</time>
      </trkpt>
      <trkpt lat="46.81998" lon="-2.13545">
        <ele>8.5</ele>
        <time>2020-06-04T10:03:51Z</time>
      </trkpt>
      <trkpt lat="46.81999" lon="-2.13549">
        <ele>8.5</ele>
        <time>2020-06-04T10:03:52Z</time>
      </trkpt>
      <trkpt lat="46.82" lon="-2.13553">
        <ele>8.5</ele>
        <time>2020-06-04T10:03:53Z</time>
      </trkpt>
      <trkpt lat="46.82002" lon="-2.13557">
        <ele>8.5</ele>
        <time>2020-06-04T10:03:54Z</time>
      </trkpt>
      <trkpt lat="46.82003" lon="-2.13562">
        <ele>8.5</ele>
        <time>2020-06-04T10:03:55Z</time>
      </trkpt>
      <trkpt lat="46.82005" lon="-2.13567">
        <ele>8.5</ele>
        <time>2020-06-04T10:03:56Z</time>
      </trkpt>
      <trkpt lat="46.82006" lon="-2.13573">
        <ele>8.5</ele>
        <time>2020-06-04T10:03:57Z</time>
      </trkpt>
      <trkpt lat="46.82008" lon="-2.13577">
        <ele>8.5</ele>
        <time>2020-06-04T10:03:58Z</time>
      </trkpt>
      <trkpt lat="46.8201" lon="-2.13583">
        <ele>8.5</ele>
        <time>2020-06-04T10:03:59Z</time>
      </trkpt>
      <trkpt lat="46.82011" lon="-2.13588">
        <ele>8.5</ele>
        <time>2020-06-04T10:04:00Z</time>
      </trkpt>
      <trkpt lat="46.82012" lon="-2.13593">
        <ele>8.5</ele>
        <time>2020-06-04T10:04:01Z</time>
      </trkpt>
      <trkpt lat="46.82013" lon="-2.13597">
        <ele>8.5</ele>
        <time>2020-06-04T10:04:02Z</time>
      </trkpt>
      <trkpt lat="46.82014" lon="-2.13601">
        <ele>8.5</ele>
        <time>2020-06-04T10:04:03Z</time>
      </trkpt>
      <trkpt lat="46.82015" lon="-2.13605">
        <ele>8.5</ele>
        <time>2020-06-04T10:04:04Z</time>
      </trkpt>
      <trkpt lat="46.82017" lon="-2.13609">
        <ele>8.5</ele>
        <time>2020-06-04T10:04:05Z</time>
      </trkpt>
      <trkpt lat="46.82018" lon="-2.13613">
        <ele>8.5</ele>
        <time>2020-06-04T10:04:06Z</time>
      </trkpt>
      <trkpt lat="46.82019" lon="-2.13618">
        <ele>8.5</ele>
        <time>2020-06-04T10:04:07Z</time>
      </trkpt>
      <trkpt lat="46.82021" lon="-2.13624">
        <ele>8.5</ele>
        <time>2020-06-04T10:04:08Z</time>
      </trkpt>
      <trkpt lat="46.82021" lon="-2.1363">
        <ele>8.5</ele>
        <time>2020-06-04T10:04:09Z</time>
      </trkpt>
      <trkpt lat="46.82023" lon="-2.13635">
        <ele>8.5</ele>
        <time>2020-06-04T10:04:10Z</time>
      </trkpt>
      <trkpt lat="46.82024" lon="-2.1364">
        <ele>8.5</ele>
        <time>2020-06-04T10:04:11Z</time>
      </trkpt>
      <trkpt lat="46.82024" lon="-2.13645">
        <ele>8.5</ele>
        <time>2020-06-04T10:04:12Z</time>
      </trkpt>
      <trkpt lat="46.82025" lon="-2.1365">
        <ele>8.5</ele>
        <time>2020-06-04T10:04:13Z</time>
      </trkpt>
      <trkpt lat="46.82027" lon="-2.13655">
        <ele>8.5</ele>
        <time>2020-06-04T10:04:14Z</time>
      </trkpt>
      <trkpt lat="46.82029" lon="-2.1366">
        <ele>8.5</ele>
        <time>2020-06-04T10:04:15Z</time>
      </trkpt>
      <trkpt lat="46.8203" lon="-2.13664">
        <ele>8.5</ele>
        <time>2020-06-04T10:04:16Z</time>
      </trkpt>
      <trkpt lat="46.8203" lon="-2.13668">
        <ele>8.6</ele>
        <time>2020-06-04T10:04:17Z</time>
      </trkpt>
      <trkpt lat="46.82031" lon="-2.13672">
        <ele>8.6</ele>
        <time>2020-06-04T10:04:18Z</time>
      </trkpt>
      <trkpt lat="46.82033" lon="-2.13675">
        <ele>8.6</ele>
        <time>2020-06-04T10:04:19Z</time>
      </trkpt>
      <trkpt lat="46.82035" lon="-2.13676">
        <ele>8.6</ele>
        <time>2020-06-04T10:04:20Z</time>
      </trkpt>
      <trkpt lat="46.82036" lon="-2.13678">
        <ele>8.6</ele>
        <time>2020-06-04T10:04:21Z</time>
      </trkpt>
      <trkpt lat="46.82036" lon="-2.13683">
        <ele>8.6</ele>
        <time>2020-06-04T10:04:22Z</time>
      </trkpt>
      <trkpt lat="46.82036" lon="-2.13684">
        <ele>8.6</ele>
        <time>2020-06-04T10:04:23Z</time>
      </trkpt>
      <trkpt lat="46.82037" lon="-2.13686">
        <ele>8.6</ele>
        <time>2020-06-04T10:04:24Z</time>
      </trkpt>
      <trkpt lat="46.82038" lon="-2.1369">
        <ele>8.6</ele>
        <time>2020-06-04T10:04:25Z</time>
      </trkpt>
      <trkpt lat="46.82039" lon="-2.13694">
        <ele>8.6</ele>
        <time>2020-06-04T10:04:26Z</time>
      </trkpt>
      <trkpt lat="46.8204" lon="-2.13699">
        <ele>8.6</ele>
        <time>2020-06-04T10:04:27Z</time>
      </trkpt>
      <trkpt lat="46.82041" lon="-2.137">
        <ele>8.6</ele>
        <time>2020-06-04T10:04:28Z</time>
      </trkpt>
      <trkpt lat="46.82042" lon="-2.13702">
        <ele>8.6</ele>
        <time>2020-06-04T10:04:29Z</time>
      </trkpt>
      <trkpt lat="46.82043" lon="-2.13704">
        <ele>8.6</ele>
        <time>2020-06-04T10:04:30Z</time>
      </trkpt>
      <trkpt lat="46.82044" lon="-2.13704">
        <ele>8.6</ele>
        <time>2020-06-04T10:04:31Z</time>
      </trkpt>
      <trkpt lat="46.82044" lon="-2.13706">
        <ele>8.6</ele>
        <time>2020-06-04T10:04:32Z</time>
      </trkpt>
      <trkpt lat="46.82045" lon="-2.13707">
        <ele>8.6</ele>
        <time>2020-06-04T10:04:33Z</time>
      </trkpt>
      <trkpt lat="46.82045" lon="-2.13711">
        <ele>8.6</ele>
        <time>2020-06-04T10:04:34Z</time>
      </trkpt>
      <trkpt lat="46.82046" lon="-2.13712">
        <ele>8.6</ele>
        <time>2020-06-04T10:04:35Z</time>
      </trkpt>
      <trkpt lat="46.82047" lon="-2.13713">
        <ele>8.5</ele>
        <time>2020-06-04T10:04:36Z</time>
      </trkpt>
      <trkpt lat="46.82048" lon="-2.13714">
        <ele>8.5</ele>
        <time>2020-06-04T10:04:37Z</time>
      </trkpt>
      <trkpt lat="46.8205" lon="-2.13717">
        <ele>8.5</ele>
        <time>2020-06-04T10:04:38Z</time>
      </trkpt>
      <trkpt lat="46.82051" lon="-2.13718">
        <ele>8.5</ele>
        <time>2020-06-04T10:04:39Z</time>
      </trkpt>
      <trkpt lat="46.82054" lon="-2.13721">
        <ele>8.4</ele>
        <time>2020-06-04T10:04:40Z</time>
      </trkpt>
      <trkpt lat="46.82055" lon="-2.13721">
        <ele>8.4</ele>
        <time>2020-06-04T10:04:41Z</time>
      </trkpt>
      <trkpt lat="46.82057" lon="-2.13724">
        <ele>8.4</ele>
        <time>2020-06-04T10:04:42Z</time>
      </trkpt>
      <trkpt lat="46.82058" lon="-2.13725">
        <ele>8.3</ele>
        <time>2020-06-04T10:04:43Z</time>
      </trkpt>
      <trkpt lat="46.8206" lon="-2.13727">
        <ele>8.3</ele>
        <time>2020-06-04T10:04:44Z</time>
      </trkpt>
      <trkpt lat="46.82064" lon="-2.13729">
        <ele>8.2</ele>
        <time>2020-06-04T10:04:45Z</time>
      </trkpt>
      <trkpt lat="46.82069" lon="-2.13731">
        <ele>8.1</ele>
        <time>2020-06-04T10:04:46Z</time>
      </trkpt>
      <trkpt lat="46.82072" lon="-2.13733">
        <ele>8</ele>
        <time>2020-06-04T10:04:47Z</time>
      </trkpt>
      <trkpt lat="46.82076" lon="-2.13735">
        <ele>7.9</ele>
        <time>2020-06-04T10:04:48Z</time>
      </trkpt>
      <trkpt lat="46.82079" lon="-2.13738">
        <ele>7.9</ele>
        <time>2020-06-04T10:04:49Z</time>
      </trkpt>
      <trkpt lat="46.82083" lon="-2.1374">
        <ele>7.9</ele>
        <time>2020-06-04T10:04:50Z</time>
      </trkpt>
      <trkpt lat="46.82085" lon="-2.13741">
        <ele>7.9</ele>
        <time>2020-06-04T10:04:51Z</time>
      </trkpt>
      <trkpt lat="46.82089" lon="-2.13742">
        <ele>7.8</ele>
        <time>2020-06-04T10:04:52Z</time>
      </trkpt>
      <trkpt lat="46.8209" lon="-2.13743">
        <ele>7.8</ele>
        <time>2020-06-04T10:04:53Z</time>
      </trkpt>
      <trkpt lat="46.82093" lon="-2.13744">
        <ele>7.9</ele>
        <time>2020-06-04T10:04:54Z</time>
      </trkpt>
      <trkpt lat="46.82094" lon="-2.13745">
        <ele>7.9</ele>
        <time>2020-06-04T10:04:55Z</time>
      </trkpt>
      <trkpt lat="46.82097" lon="-2.13747">
        <ele>7.9</ele>
        <time>2020-06-04T10:04:56Z</time>
      </trkpt>
      <trkpt lat="46.82098" lon="-2.13748">
        <ele>7.9</ele>
        <time>2020-06-04T10:04:57Z</time>
      </trkpt>
      <trkpt lat="46.82101" lon="-2.13749">
        <ele>8</ele>
        <time>2020-06-04T10:04:58Z</time>
      </trkpt>
      <trkpt lat="46.82104" lon="-2.13751">
        <ele>8</ele>
        <time>2020-06-04T10:04:59Z</time>
      </trkpt>
      <trkpt lat="46.82105" lon="-2.13752">
        <ele>8</ele>
        <time>2020-06-04T10:05:00Z</time>
      </trkpt>
      <trkpt lat="46.82108" lon="-2.13755">
        <ele>8.1</ele>
        <time>2020-06-04T10:05:01Z</time>
      </trkpt>
      <trkpt lat="46.8211" lon="-2.13757">
        <ele>8.1</ele>
        <time>2020-06-04T10:05:02Z</time>
      </trkpt>
      <trkpt lat="46.82112" lon="-2.13761">
        <ele>8.2</ele>
        <time>2020-06-04T10:05:03Z</time>
      </trkpt>
      <trkpt lat="46.82116" lon="-2.13763">
        <ele>8.2</ele>
        <time>2020-06-04T10:05:04Z</time>
      </trkpt>
      <trkpt lat="46.8212" lon="-2.13765">
        <ele>8.3</ele>
        <time>2020-06-04T10:05:05Z</time>
      </trkpt>
      <trkpt lat="46.82123" lon="-2.13767">
        <ele>8.3</ele>
        <time>2020-06-04T10:05:06Z</time>
      </trkpt>
      <trkpt lat="46.82126" lon="-2.13768">
        <ele>8.4</ele>
        <time>2020-06-04T10:05:07Z</time>
      </trkpt>
      <trkpt lat="46.82128" lon="-2.13769">
        <ele>8.4</ele>
        <time>2020-06-04T10:05:08Z</time>
      </trkpt>
      <trkpt lat="46.82131" lon="-2.13771">
        <ele>8.4</ele>
        <time>2020-06-04T10:05:09Z</time>
      </trkpt>
      <trkpt lat="46.82134" lon="-2.13774">
        <ele>8.4</ele>
        <time>2020-06-04T10:05:10Z</time>
      </trkpt>
      <trkpt lat="46.82136" lon="-2.13776">
        <ele>8.4</ele>
        <time>2020-06-04T10:05:11Z</time>
      </trkpt>
      <trkpt lat="46.82138" lon="-2.13779">
        <ele>8.4</ele>
        <time>2020-06-04T10:05:12Z</time>
      </trkpt>
      <trkpt lat="46.82139" lon="-2.13779">
        <ele>8.4</ele>
        <time>2020-06-04T10:05:13Z</time>
      </trkpt>
      <trkpt lat="46.82143" lon="-2.13782">
        <ele>8.3</ele>
        <time>2020-06-04T10:05:14Z</time>
      </trkpt>
      <trkpt lat="46.82146" lon="-2.13787">
        <ele>8.2</ele>
        <time>2020-06-04T10:05:15Z</time>
      </trkpt>
      <trkpt lat="46.82149" lon="-2.1379">
        <ele>8.1</ele>
        <time>2020-06-04T10:05:16Z</time>
      </trkpt>
      <trkpt lat="46.82153" lon="-2.1379">
        <ele>8</ele>
        <time>2020-06-04T10:05:17Z</time>
      </trkpt>
      <trkpt lat="46.82157" lon="-2.1379">
        <ele>7.8</ele>
        <time>2020-06-04T10:05:18Z</time>
      </trkpt>
      <trkpt lat="46.8216" lon="-2.13793">
        <ele>7.7</ele>
        <time>2020-06-04T10:05:19Z</time>
      </trkpt>
      <trkpt lat="46.82163" lon="-2.13794">
        <ele>7.5</ele>
        <time>2020-06-04T10:05:20Z</time>
      </trkpt>
      <trkpt lat="46.82166" lon="-2.13795">
        <ele>7.4</ele>
        <time>2020-06-04T10:05:21Z</time>
      </trkpt>
      <trkpt lat="46.82169" lon="-2.13796">
        <ele>7.2</ele>
        <time>2020-06-04T10:05:22Z</time>
      </trkpt>
      <trkpt lat="46.82173" lon="-2.13798">
        <ele>7</ele>
        <time>2020-06-04T10:05:23Z</time>
      </trkpt>
      <trkpt lat="46.82177" lon="-2.13799">
        <ele>6.8</ele>
        <time>2020-06-04T10:05:24Z</time>
      </trkpt>
      <trkpt lat="46.82181" lon="-2.138">
        <ele>6.7</ele>
        <time>2020-06-04T10:05:25Z</time>
      </trkpt>
      <trkpt lat="46.82185" lon="-2.138">
        <ele>6.6</ele>
        <time>2020-06-04T10:05:26Z</time>
      </trkpt>
      <trkpt lat="46.82189" lon="-2.13801">
        <ele>6.5</ele>
        <time>2020-06-04T10:05:27Z</time>
      </trkpt>
      <trkpt lat="46.82192" lon="-2.13802">
        <ele>6.4</ele>
        <time>2020-06-04T10:05:28Z</time>
      </trkpt>
      <trkpt lat="46.82197" lon="-2.13803">
        <ele>6.4</ele>
        <time>2020-06-04T10:05:29Z</time>
      </trkpt>
      <trkpt lat="46.82202" lon="-2.13805">
        <ele>6.4</ele>
        <time>2020-06-04T10:05:30Z</time>
      </trkpt>
      <trkpt lat="46.82208" lon="-2.13807">
        <ele>6.4</ele>
        <time>2020-06-04T10:05:31Z</time>
      </trkpt>
      <trkpt lat="46.82212" lon="-2.13808">
        <ele>6.4</ele>
        <time>2020-06-04T10:05:32Z</time>
      </trkpt>
      <trkpt lat="46.82216" lon="-2.1381">
        <ele>6.4</ele>
        <time>2020-06-04T10:05:33Z</time>
      </trkpt>
      <trkpt lat="46.82222" lon="-2.13815">
        <ele>6.4</ele>
        <time>2020-06-04T10:05:34Z</time>
      </trkpt>
      <trkpt lat="46.82228" lon="-2.13817">
        <ele>6.5</ele>
        <time>2020-06-04T10:05:35Z</time>
      </trkpt>
      <trkpt lat="46.82232" lon="-2.13818">
        <ele>6.5</ele>
        <time>2020-06-04T10:05:36Z</time>
      </trkpt>
      <trkpt lat="46.82236" lon="-2.13817">
        <ele>6.6</ele>
        <time>2020-06-04T10:05:37Z</time>
      </trkpt>
      <trkpt lat="46.82241" lon="-2.13816">
        <ele>6.6</ele>
        <time>2020-06-04T10:05:38Z</time>
      </trkpt>
      <trkpt lat="46.82245" lon="-2.13815">
        <ele>6.7</ele>
        <time>2020-06-04T10:05:39Z</time>
      </trkpt>
      <trkpt lat="46.8225" lon="-2.13814">
        <ele>6.7</ele>
        <time>2020-06-04T10:05:40Z</time>
      </trkpt>
      <trkpt lat="46.82254" lon="-2.13812">
        <ele>6.7</ele>
        <time>2020-06-04T10:05:41Z</time>
      </trkpt>
      <trkpt lat="46.82258" lon="-2.13814">
        <ele>6.8</ele>
        <time>2020-06-04T10:05:42Z</time>
      </trkpt>
      <trkpt lat="46.82262" lon="-2.13814">
        <ele>6.8</ele>
        <time>2020-06-04T10:05:43Z</time>
      </trkpt>
      <trkpt lat="46.82267" lon="-2.13816">
        <ele>6.8</ele>
        <time>2020-06-04T10:05:44Z</time>
      </trkpt>
      <trkpt lat="46.82272" lon="-2.13819">
        <ele>6.8</ele>
        <time>2020-06-04T10:05:45Z</time>
      </trkpt>
      <trkpt lat="46.82277" lon="-2.13819">
        <ele>6.8</ele>
        <time>2020-06-04T10:05:46Z</time>
      </trkpt>
      <trkpt lat="46.82281" lon="-2.13821">
        <ele>6.8</ele>
        <time>2020-06-04T10:05:47Z</time>
      </trkpt>
      <trkpt lat="46.82285" lon="-2.13822">
        <ele>6.8</ele>
        <time>2020-06-04T10:05:48Z</time>
      </trkpt>
      <trkpt lat="46.82289" lon="-2.13823">
        <ele>6.7</ele>
        <time>2020-06-04T10:05:49Z</time>
      </trkpt>
      <trkpt lat="46.82292" lon="-2.13825">
        <ele>6.7</ele>
        <time>2020-06-04T10:05:50Z</time>
      </trkpt>
      <trkpt lat="46.82297" lon="-2.13826">
        <ele>6.7</ele>
        <time>2020-06-04T10:05:51Z</time>
      </trkpt>
      <trkpt lat="46.82299" lon="-2.13827">
        <ele>6.7</ele>
        <time>2020-06-04T10:05:52Z</time>
      </trkpt>
      <trkpt lat="46.82302" lon="-2.13828">
        <ele>6.7</ele>
        <time>2020-06-04T10:05:53Z</time>
      </trkpt>
      <trkpt lat="46.82306" lon="-2.13828">
        <ele>6.6</ele>
        <time>2020-06-04T10:05:54Z</time>
      </trkpt>
      <trkpt lat="46.82311" lon="-2.13828">
        <ele>6.6</ele>
        <time>2020-06-04T10:05:55Z</time>
      </trkpt>
      <trkpt lat="46.82315" lon="-2.13829">
        <ele>6.6</ele>
        <time>2020-06-04T10:05:56Z</time>
      </trkpt>
      <trkpt lat="46.82319" lon="-2.13831">
        <ele>6.7</ele>
        <time>2020-06-04T10:05:57Z</time>
      </trkpt>
      <trkpt lat="46.82324" lon="-2.13832">
        <ele>6.7</ele>
        <time>2020-06-04T10:05:58Z</time>
      </trkpt>
      <trkpt lat="46.82327" lon="-2.13833">
        <ele>6.7</ele>
        <time>2020-06-04T10:05:59Z</time>
      </trkpt>
      <trkpt lat="46.82331" lon="-2.13835">
        <ele>6.8</ele>
        <time>2020-06-04T10:06:00Z</time>
      </trkpt>
      <trkpt lat="46.82334" lon="-2.13836">
        <ele>6.8</ele>
        <time>2020-06-04T10:06:01Z</time>
      </trkpt>
      <trkpt lat="46.82337" lon="-2.13837">
        <ele>6.8</ele>
        <time>2020-06-04T10:06:02Z</time>
      </trkpt>
      <trkpt lat="46.82341" lon="-2.13839">
        <ele>6.9</ele>
        <time>2020-06-04T10:06:03Z</time>
      </trkpt>
      <trkpt lat="46.82345" lon="-2.1384">
        <ele>6.9</ele>
        <time>2020-06-04T10:06:04Z</time>
      </trkpt>
      <trkpt lat="46.8235" lon="-2.1384">
        <ele>7</ele>
        <time>2020-06-04T10:06:05Z</time>
      </trkpt>
      <trkpt lat="46.82355" lon="-2.1384">
        <ele>7</ele>
        <time>2020-06-04T10:06:06Z</time>
      </trkpt>
      <trkpt lat="46.8236" lon="-2.13841">
        <ele>7</ele>
        <time>2020-06-04T10:06:07Z</time>
      </trkpt>
      <trkpt lat="46.82365" lon="-2.1384">
        <ele>7</ele>
        <time>2020-06-04T10:06:08Z</time>
      </trkpt>
      <trkpt lat="46.8237" lon="-2.13841">
        <ele>7</ele>
        <time>2020-06-04T10:06:09Z</time>
      </trkpt>
      <trkpt lat="46.82374" lon="-2.13842">
        <ele>6.9</ele>
        <time>2020-06-04T10:06:10Z</time>
      </trkpt>
      <trkpt lat="46.82378" lon="-2.13842">
        <ele>6.9</ele>
        <time>2020-06-04T10:06:11Z</time>
      </trkpt>
      <trkpt lat="46.82382" lon="-2.13844">
        <ele>6.8</ele>
        <time>2020-06-04T10:06:12Z</time>
      </trkpt>
      <trkpt lat="46.82386" lon="-2.13845">
        <ele>6.7</ele>
        <time>2020-06-04T10:06:13Z</time>
      </trkpt>
      <trkpt lat="46.82391" lon="-2.13846">
        <ele>6.6</ele>
        <time>2020-06-04T10:06:14Z</time>
      </trkpt>
      <trkpt lat="46.82396" lon="-2.13846">
        <ele>6.6</ele>
        <time>2020-06-04T10:06:15Z</time>
      </trkpt>
      <trkpt lat="46.824" lon="-2.13847">
        <ele>6.5</ele>
        <time>2020-06-04T10:06:16Z</time>
      </trkpt>
      <trkpt lat="46.82405" lon="-2.13849">
        <ele>6.5</ele>
        <time>2020-06-04T10:06:17Z</time>
      </trkpt>
      <trkpt lat="46.82409" lon="-2.1385">
        <ele>6.5</ele>
        <time>2020-06-04T10:06:18Z</time>
      </trkpt>
      <trkpt lat="46.82412" lon="-2.1385">
        <ele>6.5</ele>
        <time>2020-06-04T10:06:19Z</time>
      </trkpt>
      <trkpt lat="46.82416" lon="-2.13853">
        <ele>6.5</ele>
        <time>2020-06-04T10:06:20Z</time>
      </trkpt>
      <trkpt lat="46.82421" lon="-2.13855">
        <ele>6.5</ele>
        <time>2020-06-04T10:06:21Z</time>
      </trkpt>
      <trkpt lat="46.82426" lon="-2.13856">
        <ele>6.5</ele>
        <time>2020-06-04T10:06:22Z</time>
      </trkpt>
      <trkpt lat="46.82432" lon="-2.13856">
        <ele>6.5</ele>
        <time>2020-06-04T10:06:23Z</time>
      </trkpt>
      <trkpt lat="46.82438" lon="-2.13856">
        <ele>6.4</ele>
        <time>2020-06-04T10:06:24Z</time>
      </trkpt>
      <trkpt lat="46.82444" lon="-2.13857">
        <ele>6.3</ele>
        <time>2020-06-04T10:06:25Z</time>
      </trkpt>
      <trkpt lat="46.82451" lon="-2.1386">
        <ele>6.2</ele>
        <time>2020-06-04T10:06:26Z</time>
      </trkpt>
      <trkpt lat="46.82457" lon="-2.13861">
        <ele>6</ele>
        <time>2020-06-04T10:06:27Z</time>
      </trkpt>
      <trkpt lat="46.82463" lon="-2.13863">
        <ele>5.9</ele>
        <time>2020-06-04T10:06:28Z</time>
      </trkpt>
      <trkpt lat="46.82471" lon="-2.13865">
        <ele>5.7</ele>
        <time>2020-06-04T10:06:29Z</time>
      </trkpt>
      <trkpt lat="46.82477" lon="-2.13866">
        <ele>5.7</ele>
        <time>2020-06-04T10:06:30Z</time>
      </trkpt>
      <trkpt lat="46.82482" lon="-2.13867">
        <ele>5.7</ele>
        <time>2020-06-04T10:06:31Z</time>
      </trkpt>
      <trkpt lat="46.82487" lon="-2.13867">
        <ele>5.8</ele>
        <time>2020-06-04T10:06:32Z</time>
      </trkpt>
      <trkpt lat="46.82493" lon="-2.13869">
        <ele>5.9</ele>
        <time>2020-06-04T10:06:33Z</time>
      </trkpt>
      <trkpt lat="46.82498" lon="-2.13869">
        <ele>6</ele>
        <time>2020-06-04T10:06:34Z</time>
      </trkpt>
      <trkpt lat="46.82503" lon="-2.1387">
        <ele>6.1</ele>
        <time>2020-06-04T10:06:35Z</time>
      </trkpt>
      <trkpt lat="46.82508" lon="-2.13871">
        <ele>6.2</ele>
        <time>2020-06-04T10:06:36Z</time>
      </trkpt>
      <trkpt lat="46.82513" lon="-2.13872">
        <ele>6.4</ele>
        <time>2020-06-04T10:06:37Z</time>
      </trkpt>
      <trkpt lat="46.82518" lon="-2.13873">
        <ele>6.4</ele>
        <time>2020-06-04T10:06:38Z</time>
      </trkpt>
      <trkpt lat="46.82523" lon="-2.13873">
        <ele>6.5</ele>
        <time>2020-06-04T10:06:39Z</time>
      </trkpt>
      <trkpt lat="46.82529" lon="-2.13875">
        <ele>6.6</ele>
        <time>2020-06-04T10:06:40Z</time>
      </trkpt>
      <trkpt lat="46.82533" lon="-2.13876">
        <ele>6.6</ele>
        <time>2020-06-04T10:06:41Z</time>
      </trkpt>
      <trkpt lat="46.82536" lon="-2.13876">
        <ele>6.6</ele>
        <time>2020-06-04T10:06:42Z</time>
      </trkpt>
      <trkpt lat="46.8254" lon="-2.13878">
        <ele>6.6</ele>
        <time>2020-06-04T10:06:43Z</time>
      </trkpt>
      <trkpt lat="46.82544" lon="-2.1388">
        <ele>6.5</ele>
        <time>2020-06-04T10:06:44Z</time>
      </trkpt>
      <trkpt lat="46.82549" lon="-2.13882">
        <ele>6.4</ele>
        <time>2020-06-04T10:06:45Z</time>
      </trkpt>
      <trkpt lat="46.82553" lon="-2.13884">
        <ele>6.2</ele>
        <time>2020-06-04T10:06:46Z</time>
      </trkpt>
      <trkpt lat="46.82557" lon="-2.13885">
        <ele>6.1</ele>
        <time>2020-06-04T10:06:47Z</time>
      </trkpt>
      <trkpt lat="46.82561" lon="-2.13887">
        <ele>6</ele>
        <time>2020-06-04T10:06:48Z</time>
      </trkpt>
      <trkpt lat="46.82564" lon="-2.13889">
        <ele>5.8</ele>
        <time>2020-06-04T10:06:49Z</time>
      </trkpt>
      <trkpt lat="46.82568" lon="-2.13891">
        <ele>5.7</ele>
        <time>2020-06-04T10:06:50Z</time>
      </trkpt>
      <trkpt lat="46.8257" lon="-2.13891">
        <ele>5.7</ele>
        <time>2020-06-04T10:06:51Z</time>
      </trkpt>
      <trkpt lat="46.82571" lon="-2.13891">
        <ele>5.6</ele>
        <time>2020-06-04T10:06:52Z</time>
      </trkpt>
      <trkpt lat="46.82574" lon="-2.13893">
        <ele>5.6</ele>
        <time>2020-06-04T10:06:53Z</time>
      </trkpt>
      <trkpt lat="46.82576" lon="-2.13894">
        <ele>5.5</ele>
        <time>2020-06-04T10:06:54Z</time>
      </trkpt>
      <trkpt lat="46.82579" lon="-2.13894">
        <ele>5.5</ele>
        <time>2020-06-04T10:06:55Z</time>
      </trkpt>
      <trkpt lat="46.82583" lon="-2.13895">
        <ele>5.5</ele>
        <time>2020-06-04T10:06:56Z</time>
      </trkpt>
      <trkpt lat="46.82587" lon="-2.13895">
        <ele>5.5</ele>
        <time>2020-06-04T10:06:57Z</time>
      </trkpt>
      <trkpt lat="46.8259" lon="-2.13896">
        <ele>5.5</ele>
        <time>2020-06-04T10:06:58Z</time>
      </trkpt>
      <trkpt lat="46.82593" lon="-2.13896">
        <ele>5.5</ele>
        <time>2020-06-04T10:06:59Z</time>
      </trkpt>
      <trkpt lat="46.82596" lon="-2.13897">
        <ele>5.4</ele>
        <time>2020-06-04T10:07:00Z</time>
      </trkpt>
      <trkpt lat="46.82597" lon="-2.13898">
        <ele>5.4</ele>
        <time>2020-06-04T10:07:01Z</time>
      </trkpt>
      <trkpt lat="46.82601" lon="-2.13898">
        <ele>5.4</ele>
        <time>2020-06-04T10:07:02Z</time>
      </trkpt>
      <trkpt lat="46.82602" lon="-2.13898">
        <ele>5.4</ele>
        <time>2020-06-04T10:07:03Z</time>
      </trkpt>
      <trkpt lat="46.82606" lon="-2.139">
        <ele>5.4</ele>
        <time>2020-06-04T10:07:04Z</time>
      </trkpt>
      <trkpt lat="46.82607" lon="-2.139">
        <ele>5.4</ele>
        <time>2020-06-04T10:07:05Z</time>
      </trkpt>
      <trkpt lat="46.8261" lon="-2.13901">
        <ele>5.3</ele>
        <time>2020-06-04T10:07:06Z</time>
      </trkpt>
      <trkpt lat="46.82612" lon="-2.13904">
        <ele>5.3</ele>
        <time>2020-06-04T10:07:07Z</time>
      </trkpt>
      <trkpt lat="46.82616" lon="-2.13908">
        <ele>5.3</ele>
        <time>2020-06-04T10:07:08Z</time>
      </trkpt>
      <trkpt lat="46.8262" lon="-2.1391">
        <ele>5.3</ele>
        <time>2020-06-04T10:07:09Z</time>
      </trkpt>
      <trkpt lat="46.82623" lon="-2.13912">
        <ele>5.2</ele>
        <time>2020-06-04T10:07:10Z</time>
      </trkpt>
      <trkpt lat="46.82626" lon="-2.13915">
        <ele>5.2</ele>
        <time>2020-06-04T10:07:11Z</time>
      </trkpt>
      <trkpt lat="46.82629" lon="-2.13918">
        <ele>5.2</ele>
        <time>2020-06-04T10:07:12Z</time>
      </trkpt>
      <trkpt lat="46.82632" lon="-2.13922">
        <ele>5.3</ele>
        <time>2020-06-04T10:07:13Z</time>
      </trkpt>
      <trkpt lat="46.82635" lon="-2.13923">
        <ele>5.3</ele>
        <time>2020-06-04T10:07:14Z</time>
      </trkpt>
      <trkpt lat="46.82638" lon="-2.13923">
        <ele>5.3</ele>
        <time>2020-06-04T10:07:15Z</time>
      </trkpt>
      <trkpt lat="46.82641" lon="-2.13925">
        <ele>5.3</ele>
        <time>2020-06-04T10:07:16Z</time>
      </trkpt>
      <trkpt lat="46.82644" lon="-2.13926">
        <ele>5.3</ele>
        <time>2020-06-04T10:07:17Z</time>
      </trkpt>
      <trkpt lat="46.82646" lon="-2.13927">
        <ele>5.3</ele>
        <time>2020-06-04T10:07:18Z</time>
      </trkpt>
      <trkpt lat="46.8265" lon="-2.13929">
        <ele>5.3</ele>
        <time>2020-06-04T10:07:19Z</time>
      </trkpt>
      <trkpt lat="46.82651" lon="-2.1393">
        <ele>5.3</ele>
        <time>2020-06-04T10:07:20Z</time>
      </trkpt>
      <trkpt lat="46.82654" lon="-2.13931">
        <ele>5.3</ele>
        <time>2020-06-04T10:07:21Z</time>
      </trkpt>
      <trkpt lat="46.82657" lon="-2.13932">
        <ele>5.3</ele>
        <time>2020-06-04T10:07:22Z</time>
      </trkpt>
      <trkpt lat="46.8266" lon="-2.13933">
        <ele>5.3</ele>
        <time>2020-06-04T10:07:23Z</time>
      </trkpt>
      <trkpt lat="46.82664" lon="-2.13934">
        <ele>5.3</ele>
        <time>2020-06-04T10:07:24Z</time>
      </trkpt>
      <trkpt lat="46.82668" lon="-2.13936">
        <ele>5.3</ele>
        <time>2020-06-04T10:07:25Z</time>
      </trkpt>
      <trkpt lat="46.82671" lon="-2.13937">
        <ele>5.4</ele>
        <time>2020-06-04T10:07:26Z</time>
      </trkpt>
      <trkpt lat="46.82675" lon="-2.13938">
        <ele>5.4</ele>
        <time>2020-06-04T10:07:27Z</time>
      </trkpt>
      <trkpt lat="46.82678" lon="-2.13941">
        <ele>5.4</ele>
        <time>2020-06-04T10:07:28Z</time>
      </trkpt>
      <trkpt lat="46.82682" lon="-2.13942">
        <ele>5.5</ele>
        <time>2020-06-04T10:07:29Z</time>
      </trkpt>
      <trkpt lat="46.82686" lon="-2.13945">
        <ele>5.6</ele>
        <time>2020-06-04T10:07:30Z</time>
      </trkpt>
      <trkpt lat="46.82691" lon="-2.13948">
        <ele>5.7</ele>
        <time>2020-06-04T10:07:31Z</time>
      </trkpt>
      <trkpt lat="46.82695" lon="-2.13949">
        <ele>5.8</ele>
        <time>2020-06-04T10:07:32Z</time>
      </trkpt>
      <trkpt lat="46.82698" lon="-2.13951">
        <ele>5.9</ele>
        <time>2020-06-04T10:07:33Z</time>
      </trkpt>
      <trkpt lat="46.82703" lon="-2.13951">
        <ele>6.1</ele>
        <time>2020-06-04T10:07:34Z</time>
      </trkpt>
      <trkpt lat="46.82707" lon="-2.13951">
        <ele>6.2</ele>
        <time>2020-06-04T10:07:35Z</time>
      </trkpt>
      <trkpt lat="46.82711" lon="-2.13952">
        <ele>6.4</ele>
        <time>2020-06-04T10:07:36Z</time>
      </trkpt>
      <trkpt lat="46.82718" lon="-2.13951">
        <ele>6.7</ele>
        <time>2020-06-04T10:07:37Z</time>
      </trkpt>
      <trkpt lat="46.82725" lon="-2.13952">
        <ele>7</ele>
        <time>2020-06-04T10:07:38Z</time>
      </trkpt>
      <trkpt lat="46.82731" lon="-2.13953">
        <ele>7.3</ele>
        <time>2020-06-04T10:07:39Z</time>
      </trkpt>
      <trkpt lat="46.82737" lon="-2.13954">
        <ele>7.6</ele>
        <time>2020-06-04T10:07:40Z</time>
      </trkpt>
      <trkpt lat="46.82742" lon="-2.13954">
        <ele>7.8</ele>
        <time>2020-06-04T10:07:41Z</time>
      </trkpt>
      <trkpt lat="46.82746" lon="-2.13953">
        <ele>8</ele>
        <time>2020-06-04T10:07:42Z</time>
      </trkpt>
      <trkpt lat="46.8275" lon="-2.13954">
        <ele>8.2</ele>
        <time>2020-06-04T10:07:43Z</time>
      </trkpt>
      <trkpt lat="46.82755" lon="-2.13955">
        <ele>8.4</ele>
        <time>2020-06-04T10:07:44Z</time>
      </trkpt>
      <trkpt lat="46.82759" lon="-2.13955">
        <ele>8.5</ele>
        <time>2020-06-04T10:07:45Z</time>
      </trkpt>
      <trkpt lat="46.82763" lon="-2.13956">
        <ele>8.7</ele>
        <time>2020-06-04T10:07:46Z</time>
      </trkpt>
      <trkpt lat="46.82766" lon="-2.13952">
        <ele>8.8</ele>
        <time>2020-06-04T10:07:47Z</time>
      </trkpt>
      <trkpt lat="46.82769" lon="-2.13953">
        <ele>8.9</ele>
        <time>2020-06-04T10:07:48Z</time>
      </trkpt>
      <trkpt lat="46.82773" lon="-2.13956">
        <ele>9</ele>
        <time>2020-06-04T10:07:49Z</time>
      </trkpt>
      <trkpt lat="46.82775" lon="-2.13958">
        <ele>9.1</ele>
        <time>2020-06-04T10:07:50Z</time>
      </trkpt>
      <trkpt lat="46.82778" lon="-2.13959">
        <ele>9.1</ele>
        <time>2020-06-04T10:07:51Z</time>
      </trkpt>
      <trkpt lat="46.82782" lon="-2.13959">
        <ele>9.2</ele>
        <time>2020-06-04T10:07:52Z</time>
      </trkpt>
      <trkpt lat="46.82786" lon="-2.13958">
        <ele>9.3</ele>
        <time>2020-06-04T10:07:53Z</time>
      </trkpt>
      <trkpt lat="46.8279" lon="-2.13958">
        <ele>9.3</ele>
        <time>2020-06-04T10:07:54Z</time>
      </trkpt>
      <trkpt lat="46.82795" lon="-2.13958">
        <ele>9.4</ele>
        <time>2020-06-04T10:07:55Z</time>
      </trkpt>
      <trkpt lat="46.82799" lon="-2.13961">
        <ele>9.5</ele>
        <time>2020-06-04T10:07:56Z</time>
      </trkpt>
      <trkpt lat="46.82803" lon="-2.13963">
        <ele>9.5</ele>
        <time>2020-06-04T10:07:57Z</time>
      </trkpt>
      <trkpt lat="46.82807" lon="-2.13964">
        <ele>9.5</ele>
        <time>2020-06-04T10:07:58Z</time>
      </trkpt>
      <trkpt lat="46.8281" lon="-2.13964">
        <ele>9.6</ele>
        <time>2020-06-04T10:07:59Z</time>
      </trkpt>
      <trkpt lat="46.82813" lon="-2.13964">
        <ele>9.6</ele>
        <time>2020-06-04T10:08:00Z</time>
      </trkpt>
      <trkpt lat="46.82816" lon="-2.13964">
        <ele>9.6</ele>
        <time>2020-06-04T10:08:01Z</time>
      </trkpt>
      <trkpt lat="46.82817" lon="-2.13963">
        <ele>9.6</ele>
        <time>2020-06-04T10:08:02Z</time>
      </trkpt>
      <trkpt lat="46.82817" lon="-2.13961">
        <ele>9.6</ele>
        <time>2020-06-04T10:08:03Z</time>
      </trkpt>
      <trkpt lat="46.82817" lon="-2.1396">
        <ele>9.6</ele>
        <time>2020-06-04T10:08:04Z</time>
      </trkpt>
      <trkpt lat="46.82817" lon="-2.13959">
        <ele>9.6</ele>
        <time>2020-06-04T10:08:05Z</time>
      </trkpt>
      <trkpt lat="46.82817" lon="-2.13959">
        <ele>9.6</ele>
        <time>2020-06-04T10:08:06Z</time>
      </trkpt>
      <trkpt lat="46.82818" lon="-2.13959">
        <ele>9.6</ele>
        <time>2020-06-04T10:08:07Z</time>
      </trkpt>
      <trkpt lat="46.82818" lon="-2.13959">
        <ele>9.6</ele>
        <time>2020-06-04T10:08:08Z</time>
      </trkpt>
      <trkpt lat="46.82818" lon="-2.13959">
        <ele>9.6</ele>
        <time>2020-06-04T10:08:09Z</time>
      </trkpt>
      <trkpt lat="46.82819" lon="-2.13959">
        <ele>9.6</ele>
        <time>2020-06-04T10:08:10Z</time>
      </trkpt>
      <trkpt lat="46.82819" lon="-2.1396">
        <ele>9.6</ele>
        <time>2020-06-04T10:08:11Z</time>
      </trkpt>
      <trkpt lat="46.8282" lon="-2.1396">
        <ele>9.6</ele>
        <time>2020-06-04T10:08:12Z</time>
      </trkpt>
      <trkpt lat="46.8282" lon="-2.1396">
        <ele>9.6</ele>
        <time>2020-06-04T10:08:13Z</time>
      </trkpt>
      <trkpt lat="46.82831" lon="-2.13966">
        <ele>9.6</ele>
        <time>2020-06-04T10:13:40Z</time>
      </trkpt>
      <trkpt lat="46.82834" lon="-2.13966">
        <ele>9.5</ele>
        <time>2020-06-04T10:13:41Z</time>
      </trkpt>
      <trkpt lat="46.82837" lon="-2.13964">
        <ele>9.5</ele>
        <time>2020-06-04T10:13:42Z</time>
      </trkpt>
      <trkpt lat="46.8284" lon="-2.13962">
        <ele>9.5</ele>
        <time>2020-06-04T10:13:43Z</time>
      </trkpt>
      <trkpt lat="46.82844" lon="-2.13962">
        <ele>9.4</ele>
        <time>2020-06-04T10:13:44Z</time>
      </trkpt>
      <trkpt lat="46.82845" lon="-2.13962">
        <ele>9.4</ele>
        <time>2020-06-04T10:13:45Z</time>
      </trkpt>
      <trkpt lat="46.82849" lon="-2.13963">
        <ele>9.3</ele>
        <time>2020-06-04T10:13:46Z</time>
      </trkpt>
      <trkpt lat="46.82853" lon="-2.13965">
        <ele>9.2</ele>
        <time>2020-06-04T10:13:47Z</time>
      </trkpt>
      <trkpt lat="46.82857" lon="-2.13969">
        <ele>9.1</ele>
        <time>2020-06-04T10:13:48Z</time>
      </trkpt>
      <trkpt lat="46.82861" lon="-2.13969">
        <ele>9</ele>
        <time>2020-06-04T10:13:49Z</time>
      </trkpt>
      <trkpt lat="46.82862" lon="-2.13969">
        <ele>9</ele>
        <time>2020-06-04T10:13:50Z</time>
      </trkpt>
      <trkpt lat="46.82865" lon="-2.13969">
        <ele>8.9</ele>
        <time>2020-06-04T10:13:51Z</time>
      </trkpt>
      <trkpt lat="46.82868" lon="-2.13967">
        <ele>8.8</ele>
        <time>2020-06-04T10:13:52Z</time>
      </trkpt>
      <trkpt lat="46.82871" lon="-2.13964">
        <ele>8.7</ele>
        <time>2020-06-04T10:13:53Z</time>
      </trkpt>
      <trkpt lat="46.82872" lon="-2.13963">
        <ele>8.7</ele>
        <time>2020-06-04T10:13:54Z</time>
      </trkpt>
      <trkpt lat="46.82875" lon="-2.13961">
        <ele>8.6</ele>
        <time>2020-06-04T10:13:55Z</time>
      </trkpt>
      <trkpt lat="46.82878" lon="-2.13958">
        <ele>8.6</ele>
        <time>2020-06-04T10:13:56Z</time>
      </trkpt>
      <trkpt lat="46.82879" lon="-2.13957">
        <ele>8.5</ele>
        <time>2020-06-04T10:13:57Z</time>
      </trkpt>
      <trkpt lat="46.82882" lon="-2.13956">
        <ele>8.3</ele>
        <time>2020-06-04T10:13:58Z</time>
      </trkpt>
      <trkpt lat="46.82886" lon="-2.13957">
        <ele>8.2</ele>
        <time>2020-06-04T10:13:59Z</time>
      </trkpt>
      <trkpt lat="46.8289" lon="-2.13959">
        <ele>8.1</ele>
        <time>2020-06-04T10:14:00Z</time>
      </trkpt>
      <trkpt lat="46.82894" lon="-2.1396">
        <ele>8.1</ele>
        <time>2020-06-04T10:14:01Z</time>
      </trkpt>
      <trkpt lat="46.82899" lon="-2.13961">
        <ele>8</ele>
        <time>2020-06-04T10:14:02Z</time>
      </trkpt>
      <trkpt lat="46.82904" lon="-2.13962">
        <ele>7.9</ele>
        <time>2020-06-04T10:14:03Z</time>
      </trkpt>
      <trkpt lat="46.82908" lon="-2.13963">
        <ele>7.8</ele>
        <time>2020-06-04T10:14:04Z</time>
      </trkpt>
      <trkpt lat="46.82913" lon="-2.13967">
        <ele>7.7</ele>
        <time>2020-06-04T10:14:05Z</time>
      </trkpt>
      <trkpt lat="46.82919" lon="-2.1397">
        <ele>7.6</ele>
        <time>2020-06-04T10:14:06Z</time>
      </trkpt>
      <trkpt lat="46.82925" lon="-2.13972">
        <ele>7.5</ele>
        <time>2020-06-04T10:14:07Z</time>
      </trkpt>
      <trkpt lat="46.8293" lon="-2.13975">
        <ele>7.5</ele>
        <time>2020-06-04T10:14:08Z</time>
      </trkpt>
      <trkpt lat="46.82937" lon="-2.13977">
        <ele>7.4</ele>
        <time>2020-06-04T10:14:09Z</time>
      </trkpt>
      <trkpt lat="46.82943" lon="-2.13977">
        <ele>7.3</ele>
        <time>2020-06-04T10:14:10Z</time>
      </trkpt>
      <trkpt lat="46.82949" lon="-2.13978">
        <ele>7.3</ele>
        <time>2020-06-04T10:14:11Z</time>
      </trkpt>
      <trkpt lat="46.82956" lon="-2.13979">
        <ele>7.2</ele>
        <time>2020-06-04T10:14:12Z</time>
      </trkpt>
      <trkpt lat="46.82963" lon="-2.1398">
        <ele>7.2</ele>
        <time>2020-06-04T10:14:13Z</time>
      </trkpt>
      <trkpt lat="46.8297" lon="-2.13979">
        <ele>7.1</ele>
        <time>2020-06-04T10:14:14Z</time>
      </trkpt>
      <trkpt lat="46.82978" lon="-2.13979">
        <ele>7.1</ele>
        <time>2020-06-04T10:14:15Z</time>
      </trkpt>
      <trkpt lat="46.82985" lon="-2.1398">
        <ele>7.1</ele>
        <time>2020-06-04T10:14:16Z</time>
      </trkpt>
      <trkpt lat="46.82993" lon="-2.13984">
        <ele>7.1</ele>
        <time>2020-06-04T10:14:17Z</time>
      </trkpt>
      <trkpt lat="46.82999" lon="-2.13987">
        <ele>7.1</ele>
        <time>2020-06-04T10:14:18Z</time>
      </trkpt>
      <trkpt lat="46.83007" lon="-2.1399">
        <ele>7.1</ele>
        <time>2020-06-04T10:14:19Z</time>
      </trkpt>
      <trkpt lat="46.83015" lon="-2.13993">
        <ele>7.2</ele>
        <time>2020-06-04T10:14:20Z</time>
      </trkpt>
      <trkpt lat="46.83022" lon="-2.13996">
        <ele>7.2</ele>
        <time>2020-06-04T10:14:21Z</time>
      </trkpt>
      <trkpt lat="46.83028" lon="-2.13999">
        <ele>7.3</ele>
        <time>2020-06-04T10:14:22Z</time>
      </trkpt>
      <trkpt lat="46.83034" lon="-2.14001">
        <ele>7.4</ele>
        <time>2020-06-04T10:14:23Z</time>
      </trkpt>
      <trkpt lat="46.83042" lon="-2.14002">
        <ele>7.5</ele>
        <time>2020-06-04T10:14:24Z</time>
      </trkpt>
      <trkpt lat="46.83049" lon="-2.14003">
        <ele>7.6</ele>
        <time>2020-06-04T10:14:25Z</time>
      </trkpt>
      <trkpt lat="46.83056" lon="-2.14004">
        <ele>7.8</ele>
        <time>2020-06-04T10:14:26Z</time>
      </trkpt>
      <trkpt lat="46.83063" lon="-2.14008">
        <ele>8</ele>
        <time>2020-06-04T10:14:27Z</time>
      </trkpt>
      <trkpt lat="46.83069" lon="-2.1401">
        <ele>8.2</ele>
        <time>2020-06-04T10:14:28Z</time>
      </trkpt>
      <trkpt lat="46.83076" lon="-2.14011">
        <ele>8.4</ele>
        <time>2020-06-04T10:14:29Z</time>
      </trkpt>
      <trkpt lat="46.83081" lon="-2.14012">
        <ele>8.5</ele>
        <time>2020-06-04T10:14:30Z</time>
      </trkpt>
      <trkpt lat="46.83086" lon="-2.14014">
        <ele>8.6</ele>
        <time>2020-06-04T10:14:31Z</time>
      </trkpt>
      <trkpt lat="46.83091" lon="-2.14014">
        <ele>8.6</ele>
        <time>2020-06-04T10:14:32Z</time>
      </trkpt>
      <trkpt lat="46.83097" lon="-2.14013">
        <ele>8.6</ele>
        <time>2020-06-04T10:14:33Z</time>
      </trkpt>
      <trkpt lat="46.83101" lon="-2.14011">
        <ele>8.6</ele>
        <time>2020-06-04T10:14:34Z</time>
      </trkpt>
      <trkpt lat="46.83105" lon="-2.1401">
        <ele>8.6</ele>
        <time>2020-06-04T10:14:35Z</time>
      </trkpt>
      <trkpt lat="46.83109" lon="-2.1401">
        <ele>8.6</ele>
        <time>2020-06-04T10:14:36Z</time>
      </trkpt>
      <trkpt lat="46.83113" lon="-2.14005">
        <ele>7.9</ele>
        <time>2020-06-04T10:14:37Z</time>
      </trkpt>
      <trkpt lat="46.83118" lon="-2.14002">
        <ele>7.9</ele>
        <time>2020-06-04T10:14:38Z</time>
      </trkpt>
      <trkpt lat="46.83123" lon="-2.13998">
        <ele>8</ele>
        <time>2020-06-04T10:14:39Z</time>
      </trkpt>
      <trkpt lat="46.83127" lon="-2.13996">
        <ele>8</ele>
        <time>2020-06-04T10:14:40Z</time>
      </trkpt>
      <trkpt lat="46.83132" lon="-2.13995">
        <ele>8</ele>
        <time>2020-06-04T10:14:41Z</time>
      </trkpt>
      <trkpt lat="46.83136" lon="-2.13992">
        <ele>8</ele>
        <time>2020-06-04T10:14:42Z</time>
      </trkpt>
      <trkpt lat="46.83141" lon="-2.13987">
        <ele>8</ele>
        <time>2020-06-04T10:14:43Z</time>
      </trkpt>
      <trkpt lat="46.83145" lon="-2.13983">
        <ele>8</ele>
        <time>2020-06-04T10:14:44Z</time>
      </trkpt>
      <trkpt lat="46.83149" lon="-2.13977">
        <ele>8</ele>
        <time>2020-06-04T10:14:45Z</time>
      </trkpt>
      <trkpt lat="46.83154" lon="-2.13972">
        <ele>7.9</ele>
        <time>2020-06-04T10:14:46Z</time>
      </trkpt>
      <trkpt lat="46.83158" lon="-2.13968">
        <ele>7.9</ele>
        <time>2020-06-04T10:14:47Z</time>
      </trkpt>
      <trkpt lat="46.83164" lon="-2.13964">
        <ele>7.9</ele>
        <time>2020-06-04T10:14:48Z</time>
      </trkpt>
      <trkpt lat="46.83169" lon="-2.1396">
        <ele>7.8</ele>
        <time>2020-06-04T10:14:49Z</time>
      </trkpt>
      <trkpt lat="46.83175" lon="-2.13957">
        <ele>7.8</ele>
        <time>2020-06-04T10:14:50Z</time>
      </trkpt>
      <trkpt lat="46.83181" lon="-2.13953">
        <ele>7.7</ele>
        <time>2020-06-04T10:14:51Z</time>
      </trkpt>
      <trkpt lat="46.83186" lon="-2.13947">
        <ele>7.6</ele>
        <time>2020-06-04T10:14:52Z</time>
      </trkpt>
      <trkpt lat="46.83192" lon="-2.13942">
        <ele>7.6</ele>
        <time>2020-06-04T10:14:53Z</time>
      </trkpt>
      <trkpt lat="46.83199" lon="-2.13939">
        <ele>7.5</ele>
        <time>2020-06-04T10:14:54Z</time>
      </trkpt>
      <trkpt lat="46.83206" lon="-2.13934">
        <ele>7.5</ele>
        <time>2020-06-04T10:14:55Z</time>
      </trkpt>
      <trkpt lat="46.83213" lon="-2.13928">
        <ele>7.5</ele>
        <time>2020-06-04T10:14:56Z</time>
      </trkpt>
      <trkpt lat="46.83219" lon="-2.13924">
        <ele>7.5</ele>
        <time>2020-06-04T10:14:57Z</time>
      </trkpt>
      <trkpt lat="46.83225" lon="-2.13917">
        <ele>7.5</ele>
        <time>2020-06-04T10:14:58Z</time>
      </trkpt>
      <trkpt lat="46.83232" lon="-2.13912">
        <ele>7.5</ele>
        <time>2020-06-04T10:14:59Z</time>
      </trkpt>
      <trkpt lat="46.83239" lon="-2.13908">
        <ele>7.5</ele>
        <time>2020-06-04T10:15:00Z</time>
      </trkpt>
      <trkpt lat="46.83245" lon="-2.13903">
        <ele>7.5</ele>
        <time>2020-06-04T10:15:01Z</time>
      </trkpt>
      <trkpt lat="46.83252" lon="-2.13898">
        <ele>7.5</ele>
        <time>2020-06-04T10:15:02Z</time>
      </trkpt>
      <trkpt lat="46.83259" lon="-2.13891">
        <ele>7.5</ele>
        <time>2020-06-04T10:15:03Z</time>
      </trkpt>
      <trkpt lat="46.83266" lon="-2.13887">
        <ele>7.5</ele>
        <time>2020-06-04T10:15:04Z</time>
      </trkpt>
      <trkpt lat="46.83274" lon="-2.13882">
        <ele>7.5</ele>
        <time>2020-06-04T10:15:05Z</time>
      </trkpt>
      <trkpt lat="46.83282" lon="-2.13876">
        <ele>7.4</ele>
        <time>2020-06-04T10:15:06Z</time>
      </trkpt>
      <trkpt lat="46.8329" lon="-2.13872">
        <ele>7.4</ele>
        <time>2020-06-04T10:15:07Z</time>
      </trkpt>
      <trkpt lat="46.83297" lon="-2.13868">
        <ele>7.3</ele>
        <time>2020-06-04T10:15:08Z</time>
      </trkpt>
      <trkpt lat="46.83303" lon="-2.13865">
        <ele>7.4</ele>
        <time>2020-06-04T10:15:09Z</time>
      </trkpt>
      <trkpt lat="46.83309" lon="-2.13861">
        <ele>7.4</ele>
        <time>2020-06-04T10:15:10Z</time>
      </trkpt>
      <trkpt lat="46.83315" lon="-2.13858">
        <ele>7.4</ele>
        <time>2020-06-04T10:15:11Z</time>
      </trkpt>
      <trkpt lat="46.8332" lon="-2.13854">
        <ele>7.5</ele>
        <time>2020-06-04T10:15:12Z</time>
      </trkpt>
      <trkpt lat="46.83327" lon="-2.13851">
        <ele>7.5</ele>
        <time>2020-06-04T10:15:13Z</time>
      </trkpt>
      <trkpt lat="46.83333" lon="-2.1385">
        <ele>7.6</ele>
        <time>2020-06-04T10:15:14Z</time>
      </trkpt>
      <trkpt lat="46.8334" lon="-2.13848">
        <ele>7.6</ele>
        <time>2020-06-04T10:15:15Z</time>
      </trkpt>
      <trkpt lat="46.83345" lon="-2.13846">
        <ele>7.6</ele>
        <time>2020-06-04T10:15:16Z</time>
      </trkpt>
      <trkpt lat="46.83351" lon="-2.13845">
        <ele>7.6</ele>
        <time>2020-06-04T10:15:17Z</time>
      </trkpt>
      <trkpt lat="46.83355" lon="-2.13842">
        <ele>7.6</ele>
        <time>2020-06-04T10:15:18Z</time>
      </trkpt>
      <trkpt lat="46.8336" lon="-2.13838">
        <ele>7.5</ele>
        <time>2020-06-04T10:15:19Z</time>
      </trkpt>
      <trkpt lat="46.83366" lon="-2.13835">
        <ele>7.5</ele>
        <time>2020-06-04T10:15:20Z</time>
      </trkpt>
      <trkpt lat="46.83371" lon="-2.13832">
        <ele>7.4</ele>
        <time>2020-06-04T10:15:21Z</time>
      </trkpt>
      <trkpt lat="46.83377" lon="-2.13827">
        <ele>7.3</ele>
        <time>2020-06-04T10:15:22Z</time>
      </trkpt>
      <trkpt lat="46.83382" lon="-2.13823">
        <ele>7.2</ele>
        <time>2020-06-04T10:15:23Z</time>
      </trkpt>
      <trkpt lat="46.83385" lon="-2.1382">
        <ele>7.2</ele>
        <time>2020-06-04T10:15:24Z</time>
      </trkpt>
      <trkpt lat="46.83388" lon="-2.13816">
        <ele>7.1</ele>
        <time>2020-06-04T10:15:25Z</time>
      </trkpt>
      <trkpt lat="46.83392" lon="-2.13812">
        <ele>7.1</ele>
        <time>2020-06-04T10:15:26Z</time>
      </trkpt>
      <trkpt lat="46.83396" lon="-2.13807">
        <ele>7</ele>
        <time>2020-06-04T10:15:27Z</time>
      </trkpt>
      <trkpt lat="46.83399" lon="-2.13805">
        <ele>6.9</ele>
        <time>2020-06-04T10:15:28Z</time>
      </trkpt>
      <trkpt lat="46.83404" lon="-2.13802">
        <ele>6.9</ele>
        <time>2020-06-04T10:15:29Z</time>
      </trkpt>
      <trkpt lat="46.83408" lon="-2.13802">
        <ele>6.8</ele>
        <time>2020-06-04T10:15:30Z</time>
      </trkpt>
      <trkpt lat="46.83413" lon="-2.13802">
        <ele>6.8</ele>
        <time>2020-06-04T10:15:31Z</time>
      </trkpt>
      <trkpt lat="46.83417" lon="-2.13804">
        <ele>6.9</ele>
        <time>2020-06-04T10:15:32Z</time>
      </trkpt>
      <trkpt lat="46.83421" lon="-2.13807">
        <ele>7</ele>
        <time>2020-06-04T10:15:33Z</time>
      </trkpt>
      <trkpt lat="46.83424" lon="-2.13811">
        <ele>7.1</ele>
        <time>2020-06-04T10:15:34Z</time>
      </trkpt>
      <trkpt lat="46.83427" lon="-2.13815">
        <ele>7.2</ele>
        <time>2020-06-04T10:15:35Z</time>
      </trkpt>
      <trkpt lat="46.8343" lon="-2.13816">
        <ele>7.7</ele>
        <time>2020-06-04T10:15:36Z</time>
      </trkpt>
      <trkpt lat="46.83433" lon="-2.13815">
        <ele>7.7</ele>
        <time>2020-06-04T10:15:37Z</time>
      </trkpt>
      <trkpt lat="46.83437" lon="-2.13814">
        <ele>7.7</ele>
        <time>2020-06-04T10:15:38Z</time>
      </trkpt>
      <trkpt lat="46.83441" lon="-2.13814">
        <ele>7.7</ele>
        <time>2020-06-04T10:15:39Z</time>
      </trkpt>
      <trkpt lat="46.83444" lon="-2.13814">
        <ele>7.7</ele>
        <time>2020-06-04T10:15:40Z</time>
      </trkpt>
      <trkpt lat="46.83448" lon="-2.13813">
        <ele>7.7</ele>
        <time>2020-06-04T10:15:41Z</time>
      </trkpt>
      <trkpt lat="46.83452" lon="-2.13814">
        <ele>7.7</ele>
        <time>2020-06-04T10:15:42Z</time>
      </trkpt>
      <trkpt lat="46.83455" lon="-2.13815">
        <ele>7.8</ele>
        <time>2020-06-04T10:15:43Z</time>
      </trkpt>
      <trkpt lat="46.83459" lon="-2.13815">
        <ele>7.8</ele>
        <time>2020-06-04T10:15:44Z</time>
      </trkpt>
      <trkpt lat="46.83463" lon="-2.13815">
        <ele>7.8</ele>
        <time>2020-06-04T10:15:45Z</time>
      </trkpt>
      <trkpt lat="46.83467" lon="-2.13815">
        <ele>7.8</ele>
        <time>2020-06-04T10:15:46Z</time>
      </trkpt>
      <trkpt lat="46.83471" lon="-2.13814">
        <ele>7.8</ele>
        <time>2020-06-04T10:15:47Z</time>
      </trkpt>
      <trkpt lat="46.83475" lon="-2.13814">
        <ele>7.8</ele>
        <time>2020-06-04T10:15:48Z</time>
      </trkpt>
      <trkpt lat="46.83479" lon="-2.13814">
        <ele>7.8</ele>
        <time>2020-06-04T10:15:49Z</time>
      </trkpt>
      <trkpt lat="46.83483" lon="-2.13816">
        <ele>7.7</ele>
        <time>2020-06-04T10:15:50Z</time>
      </trkpt>
      <trkpt lat="46.83488" lon="-2.13817">
        <ele>7.7</ele>
        <time>2020-06-04T10:15:51Z</time>
      </trkpt>
      <trkpt lat="46.83492" lon="-2.13818">
        <ele>7.7</ele>
        <time>2020-06-04T10:15:52Z</time>
      </trkpt>
      <trkpt lat="46.83497" lon="-2.13818">
        <ele>7.6</ele>
        <time>2020-06-04T10:15:53Z</time>
      </trkpt>
      <trkpt lat="46.83501" lon="-2.13817">
        <ele>7.6</ele>
        <time>2020-06-04T10:15:54Z</time>
      </trkpt>
      <trkpt lat="46.83505" lon="-2.13816">
        <ele>7.6</ele>
        <time>2020-06-04T10:15:55Z</time>
      </trkpt>
      <trkpt lat="46.83509" lon="-2.13815">
        <ele>7.6</ele>
        <time>2020-06-04T10:15:56Z</time>
      </trkpt>
      <trkpt lat="46.83513" lon="-2.13814">
        <ele>7.6</ele>
        <time>2020-06-04T10:15:57Z</time>
      </trkpt>
      <trkpt lat="46.83517" lon="-2.13814">
        <ele>7.6</ele>
        <time>2020-06-04T10:15:58Z</time>
      </trkpt>
      <trkpt lat="46.83521" lon="-2.13815">
        <ele>7.6</ele>
        <time>2020-06-04T10:15:59Z</time>
      </trkpt>
      <trkpt lat="46.83526" lon="-2.13815">
        <ele>7.6</ele>
        <time>2020-06-04T10:16:00Z</time>
      </trkpt>
      <trkpt lat="46.8353" lon="-2.13815">
        <ele>7.6</ele>
        <time>2020-06-04T10:16:01Z</time>
      </trkpt>
      <trkpt lat="46.83533" lon="-2.13814">
        <ele>7.6</ele>
        <time>2020-06-04T10:16:02Z</time>
      </trkpt>
      <trkpt lat="46.83537" lon="-2.13811">
        <ele>7.6</ele>
        <time>2020-06-04T10:16:03Z</time>
      </trkpt>
      <trkpt lat="46.83539" lon="-2.13809">
        <ele>7.6</ele>
        <time>2020-06-04T10:16:04Z</time>
      </trkpt>
      <trkpt lat="46.83543" lon="-2.13806">
        <ele>7.6</ele>
        <time>2020-06-04T10:16:05Z</time>
      </trkpt>
      <trkpt lat="46.83544" lon="-2.13805">
        <ele>7.6</ele>
        <time>2020-06-04T10:16:06Z</time>
      </trkpt>
      <trkpt lat="46.83548" lon="-2.13803">
        <ele>7.6</ele>
        <time>2020-06-04T10:16:07Z</time>
      </trkpt>
      <trkpt lat="46.83552" lon="-2.13802">
        <ele>7.6</ele>
        <time>2020-06-04T10:16:08Z</time>
      </trkpt>
      <trkpt lat="46.83558" lon="-2.138">
        <ele>7.6</ele>
        <time>2020-06-04T10:16:09Z</time>
      </trkpt>
      <trkpt lat="46.83563" lon="-2.13798">
        <ele>7.6</ele>
        <time>2020-06-04T10:16:10Z</time>
      </trkpt>
      <trkpt lat="46.83569" lon="-2.13797">
        <ele>7.5</ele>
        <time>2020-06-04T10:16:11Z</time>
      </trkpt>
      <trkpt lat="46.83574" lon="-2.13794">
        <ele>7.4</ele>
        <time>2020-06-04T10:16:12Z</time>
      </trkpt>
      <trkpt lat="46.83579" lon="-2.13792">
        <ele>7.4</ele>
        <time>2020-06-04T10:16:13Z</time>
      </trkpt>
      <trkpt lat="46.83585" lon="-2.13789">
        <ele>7.3</ele>
        <time>2020-06-04T10:16:14Z</time>
      </trkpt>
      <trkpt lat="46.83591" lon="-2.13787">
        <ele>7.2</ele>
        <time>2020-06-04T10:16:15Z</time>
      </trkpt>
      <trkpt lat="46.83596" lon="-2.13785">
        <ele>7.2</ele>
        <time>2020-06-04T10:16:16Z</time>
      </trkpt>
      <trkpt lat="46.83602" lon="-2.13784">
        <ele>7.1</ele>
        <time>2020-06-04T10:16:17Z</time>
      </trkpt>
      <trkpt lat="46.83607" lon="-2.13784">
        <ele>7.1</ele>
        <time>2020-06-04T10:16:18Z</time>
      </trkpt>
      <trkpt lat="46.83611" lon="-2.13783">
        <ele>7.1</ele>
        <time>2020-06-04T10:16:19Z</time>
      </trkpt>
      <trkpt lat="46.83615" lon="-2.13782">
        <ele>7.1</ele>
        <time>2020-06-04T10:16:20Z</time>
      </trkpt>
      <trkpt lat="46.83619" lon="-2.13781">
        <ele>7.2</ele>
        <time>2020-06-04T10:16:21Z</time>
      </trkpt>
      <trkpt lat="46.83623" lon="-2.13779">
        <ele>7.2</ele>
        <time>2020-06-04T10:16:22Z</time>
      </trkpt>
      <trkpt lat="46.83627" lon="-2.13778">
        <ele>7.3</ele>
        <time>2020-06-04T10:16:23Z</time>
      </trkpt>
      <trkpt lat="46.83632" lon="-2.13777">
        <ele>7.3</ele>
        <time>2020-06-04T10:16:24Z</time>
      </trkpt>
      <trkpt lat="46.83636" lon="-2.13776">
        <ele>7.3</ele>
        <time>2020-06-04T10:16:25Z</time>
      </trkpt>
      <trkpt lat="46.8364" lon="-2.13774">
        <ele>7.3</ele>
        <time>2020-06-04T10:16:26Z</time>
      </trkpt>
      <trkpt lat="46.83645" lon="-2.13771">
        <ele>7.3</ele>
        <time>2020-06-04T10:16:27Z</time>
      </trkpt>
      <trkpt lat="46.8365" lon="-2.1377">
        <ele>7.2</ele>
        <time>2020-06-04T10:16:28Z</time>
      </trkpt>
      <trkpt lat="46.83655" lon="-2.13768">
        <ele>7.1</ele>
        <time>2020-06-04T10:16:29Z</time>
      </trkpt>
      <trkpt lat="46.8366" lon="-2.13766">
        <ele>7</ele>
        <time>2020-06-04T10:16:30Z</time>
      </trkpt>
      <trkpt lat="46.83664" lon="-2.13765">
        <ele>6.9</ele>
        <time>2020-06-04T10:16:31Z</time>
      </trkpt>
      <trkpt lat="46.83667" lon="-2.13764">
        <ele>6.8</ele>
        <time>2020-06-04T10:16:32Z</time>
      </trkpt>
      <trkpt lat="46.8367" lon="-2.13763">
        <ele>6.7</ele>
        <time>2020-06-04T10:16:33Z</time>
      </trkpt>
      <trkpt lat="46.83674" lon="-2.13761">
        <ele>6.6</ele>
        <time>2020-06-04T10:16:34Z</time>
      </trkpt>
      <trkpt lat="46.83677" lon="-2.13759">
        <ele>6.6</ele>
        <time>2020-06-04T10:16:35Z</time>
      </trkpt>
      <trkpt lat="46.83679" lon="-2.13759">
        <ele>6.5</ele>
        <time>2020-06-04T10:16:36Z</time>
      </trkpt>
      <trkpt lat="46.83682" lon="-2.13761">
        <ele>6.5</ele>
        <time>2020-06-04T10:16:37Z</time>
      </trkpt>
      <trkpt lat="46.83686" lon="-2.13763">
        <ele>6.4</ele>
        <time>2020-06-04T10:16:38Z</time>
      </trkpt>
      <trkpt lat="46.83687" lon="-2.13764">
        <ele>6.4</ele>
        <time>2020-06-04T10:16:39Z</time>
      </trkpt>
      <trkpt lat="46.8369" lon="-2.13766">
        <ele>6.4</ele>
        <time>2020-06-04T10:16:40Z</time>
      </trkpt>
      <trkpt lat="46.83692" lon="-2.13767">
        <ele>6.4</ele>
        <time>2020-06-04T10:16:41Z</time>
      </trkpt>
      <trkpt lat="46.83694" lon="-2.13769">
        <ele>6.4</ele>
        <time>2020-06-04T10:16:42Z</time>
      </trkpt>
      <trkpt lat="46.83697" lon="-2.1377">
        <ele>6.4</ele>
        <time>2020-06-04T10:16:43Z</time>
      </trkpt>
      <trkpt lat="46.83701" lon="-2.13773">
        <ele>6.4</ele>
        <time>2020-06-04T10:16:44Z</time>
      </trkpt>
      <trkpt lat="46.83703" lon="-2.13774">
        <ele>6.4</ele>
        <time>2020-06-04T10:16:45Z</time>
      </trkpt>
      <trkpt lat="46.83706" lon="-2.13776">
        <ele>6.3</ele>
        <time>2020-06-04T10:16:46Z</time>
      </trkpt>
      <trkpt lat="46.83709" lon="-2.13777">
        <ele>6.3</ele>
        <time>2020-06-04T10:16:47Z</time>
      </trkpt>
      <trkpt lat="46.83711" lon="-2.13778">
        <ele>6.3</ele>
        <time>2020-06-04T10:16:48Z</time>
      </trkpt>
      <trkpt lat="46.83715" lon="-2.1378">
        <ele>6.4</ele>
        <time>2020-06-04T10:16:49Z</time>
      </trkpt>
      <trkpt lat="46.83716" lon="-2.13781">
        <ele>6.4</ele>
        <time>2020-06-04T10:16:50Z</time>
      </trkpt>
      <trkpt lat="46.83719" lon="-2.13782">
        <ele>6.4</ele>
        <time>2020-06-04T10:16:51Z</time>
      </trkpt>
      <trkpt lat="46.83723" lon="-2.13785">
        <ele>6.4</ele>
        <time>2020-06-04T10:16:52Z</time>
      </trkpt>
      <trkpt lat="46.83726" lon="-2.13788">
        <ele>6.4</ele>
        <time>2020-06-04T10:16:53Z</time>
      </trkpt>
      <trkpt lat="46.8373" lon="-2.13791">
        <ele>6.5</ele>
        <time>2020-06-04T10:16:54Z</time>
      </trkpt>
      <trkpt lat="46.83734" lon="-2.13793">
        <ele>6.5</ele>
        <time>2020-06-04T10:16:55Z</time>
      </trkpt>
      <trkpt lat="46.83737" lon="-2.13795">
        <ele>6.4</ele>
        <time>2020-06-04T10:16:56Z</time>
      </trkpt>
      <trkpt lat="46.83741" lon="-2.13797">
        <ele>6.4</ele>
        <time>2020-06-04T10:16:57Z</time>
      </trkpt>
      <trkpt lat="46.83745" lon="-2.13799">
        <ele>6.3</ele>
        <time>2020-06-04T10:16:58Z</time>
      </trkpt>
      <trkpt lat="46.83749" lon="-2.13801">
        <ele>6.3</ele>
        <time>2020-06-04T10:16:59Z</time>
      </trkpt>
      <trkpt lat="46.83753" lon="-2.13803">
        <ele>6.2</ele>
        <time>2020-06-04T10:17:00Z</time>
      </trkpt>
      <trkpt lat="46.83757" lon="-2.13805">
        <ele>6.1</ele>
        <time>2020-06-04T10:17:01Z</time>
      </trkpt>
      <trkpt lat="46.8376" lon="-2.13807">
        <ele>6.1</ele>
        <time>2020-06-04T10:17:02Z</time>
      </trkpt>
      <trkpt lat="46.83764" lon="-2.1381">
        <ele>6</ele>
        <time>2020-06-04T10:17:03Z</time>
      </trkpt>
      <trkpt lat="46.83768" lon="-2.13812">
        <ele>5.9</ele>
        <time>2020-06-04T10:17:04Z</time>
      </trkpt>
      <trkpt lat="46.8377" lon="-2.13817">
        <ele>5.8</ele>
        <time>2020-06-04T10:17:05Z</time>
      </trkpt>
      <trkpt lat="46.83773" lon="-2.13821">
        <ele>5.8</ele>
        <time>2020-06-04T10:17:06Z</time>
      </trkpt>
      <trkpt lat="46.83777" lon="-2.13825">
        <ele>5.7</ele>
        <time>2020-06-04T10:17:07Z</time>
      </trkpt>
      <trkpt lat="46.83781" lon="-2.13827">
        <ele>5.7</ele>
        <time>2020-06-04T10:17:08Z</time>
      </trkpt>
      <trkpt lat="46.83785" lon="-2.13829">
        <ele>5.6</ele>
        <time>2020-06-04T10:17:09Z</time>
      </trkpt>
      <trkpt lat="46.83789" lon="-2.13831">
        <ele>5.6</ele>
        <time>2020-06-04T10:17:10Z</time>
      </trkpt>
      <trkpt lat="46.83793" lon="-2.13833">
        <ele>5.6</ele>
        <time>2020-06-04T10:17:11Z</time>
      </trkpt>
      <trkpt lat="46.83797" lon="-2.13834">
        <ele>5.6</ele>
        <time>2020-06-04T10:17:12Z</time>
      </trkpt>
      <trkpt lat="46.838" lon="-2.13835">
        <ele>5.6</ele>
        <time>2020-06-04T10:17:13Z</time>
      </trkpt>
      <trkpt lat="46.83804" lon="-2.13835">
        <ele>5.5</ele>
        <time>2020-06-04T10:17:14Z</time>
      </trkpt>
      <trkpt lat="46.83808" lon="-2.13834">
        <ele>5.5</ele>
        <time>2020-06-04T10:17:15Z</time>
      </trkpt>
      <trkpt lat="46.83812" lon="-2.13835">
        <ele>5.5</ele>
        <time>2020-06-04T10:17:16Z</time>
      </trkpt>
      <trkpt lat="46.83817" lon="-2.13835">
        <ele>5.5</ele>
        <time>2020-06-04T10:17:17Z</time>
      </trkpt>
      <trkpt lat="46.83821" lon="-2.13833">
        <ele>5.5</ele>
        <time>2020-06-04T10:17:18Z</time>
      </trkpt>
      <trkpt lat="46.83826" lon="-2.13833">
        <ele>5.6</ele>
        <time>2020-06-04T10:17:19Z</time>
      </trkpt>
      <trkpt lat="46.83831" lon="-2.13833">
        <ele>5.6</ele>
        <time>2020-06-04T10:17:20Z</time>
      </trkpt>
      <trkpt lat="46.83836" lon="-2.13833">
        <ele>5.7</ele>
        <time>2020-06-04T10:17:21Z</time>
      </trkpt>
      <trkpt lat="46.83842" lon="-2.13833">
        <ele>5.7</ele>
        <time>2020-06-04T10:17:22Z</time>
      </trkpt>
      <trkpt lat="46.83846" lon="-2.13834">
        <ele>5.8</ele>
        <time>2020-06-04T10:17:23Z</time>
      </trkpt>
      <trkpt lat="46.83854" lon="-2.13837">
        <ele>5.9</ele>
        <time>2020-06-04T10:17:24Z</time>
      </trkpt>
      <trkpt lat="46.83858" lon="-2.1384">
        <ele>5.9</ele>
        <time>2020-06-04T10:17:25Z</time>
      </trkpt>
      <trkpt lat="46.83861" lon="-2.13844">
        <ele>5.9</ele>
        <time>2020-06-04T10:17:26Z</time>
      </trkpt>
      <trkpt lat="46.83864" lon="-2.13849">
        <ele>6</ele>
        <time>2020-06-04T10:17:27Z</time>
      </trkpt>
      <trkpt lat="46.83866" lon="-2.13853">
        <ele>6</ele>
        <time>2020-06-04T10:17:28Z</time>
      </trkpt>
      <trkpt lat="46.83868" lon="-2.13855">
        <ele>6</ele>
        <time>2020-06-04T10:17:29Z</time>
      </trkpt>
      <trkpt lat="46.8387" lon="-2.13858">
        <ele>6</ele>
        <time>2020-06-04T10:17:30Z</time>
      </trkpt>
      <trkpt lat="46.83874" lon="-2.13862">
        <ele>6</ele>
        <time>2020-06-04T10:17:31Z</time>
      </trkpt>
      <trkpt lat="46.83878" lon="-2.13865">
        <ele>6</ele>
        <time>2020-06-04T10:17:32Z</time>
      </trkpt>
      <trkpt lat="46.83881" lon="-2.13868">
        <ele>6</ele>
        <time>2020-06-04T10:17:33Z</time>
      </trkpt>
      <trkpt lat="46.83884" lon="-2.1387">
        <ele>5.9</ele>
        <time>2020-06-04T10:17:34Z</time>
      </trkpt>
      <trkpt lat="46.83888" lon="-2.13873">
        <ele>5.9</ele>
        <time>2020-06-04T10:17:35Z</time>
      </trkpt>
      <trkpt lat="46.83892" lon="-2.13875">
        <ele>5.8</ele>
        <time>2020-06-04T10:17:36Z</time>
      </trkpt>
      <trkpt lat="46.83896" lon="-2.13877">
        <ele>5.8</ele>
        <time>2020-06-04T10:17:37Z</time>
      </trkpt>
      <trkpt lat="46.839" lon="-2.13879">
        <ele>5.6</ele>
        <time>2020-06-04T10:17:38Z</time>
      </trkpt>
      <trkpt lat="46.83906" lon="-2.13879">
        <ele>5.4</ele>
        <time>2020-06-04T10:17:39Z</time>
      </trkpt>
      <trkpt lat="46.83913" lon="-2.13881">
        <ele>5.2</ele>
        <time>2020-06-04T10:17:40Z</time>
      </trkpt>
      <trkpt lat="46.83918" lon="-2.13883">
        <ele>5.1</ele>
        <time>2020-06-04T10:17:41Z</time>
      </trkpt>
      <trkpt lat="46.83923" lon="-2.13885">
        <ele>4.9</ele>
        <time>2020-06-04T10:17:42Z</time>
      </trkpt>
      <trkpt lat="46.83928" lon="-2.13887">
        <ele>4.8</ele>
        <time>2020-06-04T10:17:43Z</time>
      </trkpt>
      <trkpt lat="46.83934" lon="-2.13887">
        <ele>4.8</ele>
        <time>2020-06-04T10:17:44Z</time>
      </trkpt>
      <trkpt lat="46.83938" lon="-2.13886">
        <ele>4.7</ele>
        <time>2020-06-04T10:17:45Z</time>
      </trkpt>
      <trkpt lat="46.83943" lon="-2.13888">
        <ele>4.7</ele>
        <time>2020-06-04T10:17:46Z</time>
      </trkpt>
      <trkpt lat="46.83949" lon="-2.1389">
        <ele>4.8</ele>
        <time>2020-06-04T10:17:47Z</time>
      </trkpt>
      <trkpt lat="46.83955" lon="-2.13891">
        <ele>4.9</ele>
        <time>2020-06-04T10:17:48Z</time>
      </trkpt>
      <trkpt lat="46.8396" lon="-2.13891">
        <ele>5</ele>
        <time>2020-06-04T10:17:49Z</time>
      </trkpt>
      <trkpt lat="46.83967" lon="-2.13891">
        <ele>5.1</ele>
        <time>2020-06-04T10:17:50Z</time>
      </trkpt>
      <trkpt lat="46.83974" lon="-2.13893">
        <ele>5.2</ele>
        <time>2020-06-04T10:17:51Z</time>
      </trkpt>
      <trkpt lat="46.8398" lon="-2.13894">
        <ele>5.3</ele>
        <time>2020-06-04T10:17:52Z</time>
      </trkpt>
      <trkpt lat="46.83987" lon="-2.13895">
        <ele>5.4</ele>
        <time>2020-06-04T10:17:53Z</time>
      </trkpt>
      <trkpt lat="46.83994" lon="-2.13895">
        <ele>5.5</ele>
        <time>2020-06-04T10:17:54Z</time>
      </trkpt>
      <trkpt lat="46.84002" lon="-2.13895">
        <ele>5.6</ele>
        <time>2020-06-04T10:17:55Z</time>
      </trkpt>
      <trkpt lat="46.84008" lon="-2.13894">
        <ele>5.6</ele>
        <time>2020-06-04T10:17:56Z</time>
      </trkpt>
      <trkpt lat="46.84014" lon="-2.13894">
        <ele>5.5</ele>
        <time>2020-06-04T10:17:57Z</time>
      </trkpt>
      <trkpt lat="46.84018" lon="-2.13895">
        <ele>5.5</ele>
        <time>2020-06-04T10:17:58Z</time>
      </trkpt>
      <trkpt lat="46.84024" lon="-2.13896">
        <ele>5.5</ele>
        <time>2020-06-04T10:17:59Z</time>
      </trkpt>
      <trkpt lat="46.8403" lon="-2.13897">
        <ele>5.4</ele>
        <time>2020-06-04T10:18:00Z</time>
      </trkpt>
      <trkpt lat="46.84036" lon="-2.13899">
        <ele>5.4</ele>
        <time>2020-06-04T10:18:01Z</time>
      </trkpt>
      <trkpt lat="46.84041" lon="-2.13901">
        <ele>5.3</ele>
        <time>2020-06-04T10:18:02Z</time>
      </trkpt>
      <trkpt lat="46.84047" lon="-2.13903">
        <ele>5.4</ele>
        <time>2020-06-04T10:18:03Z</time>
      </trkpt>
      <trkpt lat="46.8405" lon="-2.13905">
        <ele>5.4</ele>
        <time>2020-06-04T10:18:04Z</time>
      </trkpt>
      <trkpt lat="46.84055" lon="-2.13907">
        <ele>5.5</ele>
        <time>2020-06-04T10:18:05Z</time>
      </trkpt>
      <trkpt lat="46.84059" lon="-2.13909">
        <ele>5.5</ele>
        <time>2020-06-04T10:18:06Z</time>
      </trkpt>
      <trkpt lat="46.84064" lon="-2.1391">
        <ele>5.6</ele>
        <time>2020-06-04T10:18:07Z</time>
      </trkpt>
      <trkpt lat="46.84068" lon="-2.13912">
        <ele>5.6</ele>
        <time>2020-06-04T10:18:08Z</time>
      </trkpt>
      <trkpt lat="46.84072" lon="-2.13913">
        <ele>5.7</ele>
        <time>2020-06-04T10:18:09Z</time>
      </trkpt>
      <trkpt lat="46.84075" lon="-2.13914">
        <ele>5.7</ele>
        <time>2020-06-04T10:18:10Z</time>
      </trkpt>
      <trkpt lat="46.84079" lon="-2.13914">
        <ele>5.7</ele>
        <time>2020-06-04T10:18:11Z</time>
      </trkpt>
      <trkpt lat="46.84082" lon="-2.13914">
        <ele>5.8</ele>
        <time>2020-06-04T10:18:12Z</time>
      </trkpt>
      <trkpt lat="46.84085" lon="-2.13915">
        <ele>5.8</ele>
        <time>2020-06-04T10:18:13Z</time>
      </trkpt>
      <trkpt lat="46.84089" lon="-2.13916">
        <ele>5.8</ele>
        <time>2020-06-04T10:18:14Z</time>
      </trkpt>
      <trkpt lat="46.84093" lon="-2.13917">
        <ele>5.8</ele>
        <time>2020-06-04T10:18:15Z</time>
      </trkpt>
      <trkpt lat="46.84097" lon="-2.13917">
        <ele>5.8</ele>
        <time>2020-06-04T10:18:16Z</time>
      </trkpt>
      <trkpt lat="46.841" lon="-2.13917">
        <ele>5.8</ele>
        <time>2020-06-04T10:18:17Z</time>
      </trkpt>
      <trkpt lat="46.84104" lon="-2.13917">
        <ele>5.8</ele>
        <time>2020-06-04T10:18:18Z</time>
      </trkpt>
      <trkpt lat="46.84109" lon="-2.13917">
        <ele>5.8</ele>
        <time>2020-06-04T10:18:19Z</time>
      </trkpt>
      <trkpt lat="46.84114" lon="-2.13917">
        <ele>5.7</ele>
        <time>2020-06-04T10:18:20Z</time>
      </trkpt>
      <trkpt lat="46.84118" lon="-2.13918">
        <ele>5.7</ele>
        <time>2020-06-04T10:18:21Z</time>
      </trkpt>
      <trkpt lat="46.84123" lon="-2.1392">
        <ele>5.6</ele>
        <time>2020-06-04T10:18:22Z</time>
      </trkpt>
      <trkpt lat="46.84127" lon="-2.13921">
        <ele>5.5</ele>
        <time>2020-06-04T10:18:23Z</time>
      </trkpt>
      <trkpt lat="46.8413" lon="-2.13922">
        <ele>5.5</ele>
        <time>2020-06-04T10:18:24Z</time>
      </trkpt>
      <trkpt lat="46.84135" lon="-2.13922">
        <ele>5.4</ele>
        <time>2020-06-04T10:18:25Z</time>
      </trkpt>
      <trkpt lat="46.84139" lon="-2.13922">
        <ele>5.3</ele>
        <time>2020-06-04T10:18:26Z</time>
      </trkpt>
      <trkpt lat="46.84143" lon="-2.13921">
        <ele>5.2</ele>
        <time>2020-06-04T10:18:27Z</time>
      </trkpt>
      <trkpt lat="46.84147" lon="-2.13922">
        <ele>5.2</ele>
        <time>2020-06-04T10:18:28Z</time>
      </trkpt>
      <trkpt lat="46.8415" lon="-2.13919">
        <ele>5.1</ele>
        <time>2020-06-04T10:18:29Z</time>
      </trkpt>
      <trkpt lat="46.84153" lon="-2.13917">
        <ele>5.1</ele>
        <time>2020-06-04T10:18:30Z</time>
      </trkpt>
      <trkpt lat="46.84156" lon="-2.13914">
        <ele>5.1</ele>
        <time>2020-06-04T10:18:31Z</time>
      </trkpt>
      <trkpt lat="46.84158" lon="-2.1391">
        <ele>5</ele>
        <time>2020-06-04T10:18:32Z</time>
      </trkpt>
      <trkpt lat="46.84161" lon="-2.13908">
        <ele>5</ele>
        <time>2020-06-04T10:18:33Z</time>
      </trkpt>
      <trkpt lat="46.84162" lon="-2.13903">
        <ele>5</ele>
        <time>2020-06-04T10:18:34Z</time>
      </trkpt>
      <trkpt lat="46.84162" lon="-2.13901">
        <ele>5</ele>
        <time>2020-06-04T10:18:35Z</time>
      </trkpt>
      <trkpt lat="46.84164" lon="-2.13898">
        <ele>5</ele>
        <time>2020-06-04T10:18:36Z</time>
      </trkpt>
      <trkpt lat="46.84165" lon="-2.13893">
        <ele>4.9</ele>
        <time>2020-06-04T10:18:37Z</time>
      </trkpt>
      <trkpt lat="46.84166" lon="-2.13891">
        <ele>4.9</ele>
        <time>2020-06-04T10:18:38Z</time>
      </trkpt>
      <trkpt lat="46.84167" lon="-2.13887">
        <ele>4.9</ele>
        <time>2020-06-04T10:18:39Z</time>
      </trkpt>
      <trkpt lat="46.84167" lon="-2.13883">
        <ele>4.9</ele>
        <time>2020-06-04T10:18:40Z</time>
      </trkpt>
      <trkpt lat="46.84167" lon="-2.13877">
        <ele>4.9</ele>
        <time>2020-06-04T10:18:41Z</time>
      </trkpt>
      <trkpt lat="46.84166" lon="-2.13876">
        <ele>4.9</ele>
        <time>2020-06-04T10:18:42Z</time>
      </trkpt>
      <trkpt lat="46.84166" lon="-2.13872">
        <ele>4.9</ele>
        <time>2020-06-04T10:18:43Z</time>
      </trkpt>
      <trkpt lat="46.84166" lon="-2.13866">
        <ele>4.8</ele>
        <time>2020-06-04T10:18:44Z</time>
      </trkpt>
      <trkpt lat="46.84165" lon="-2.13865">
        <ele>4.8</ele>
        <time>2020-06-04T10:18:45Z</time>
      </trkpt>
      <trkpt lat="46.84165" lon="-2.1386">
        <ele>4.8</ele>
        <time>2020-06-04T10:18:46Z</time>
      </trkpt>
      <trkpt lat="46.84165" lon="-2.13858">
        <ele>4.8</ele>
        <time>2020-06-04T10:18:47Z</time>
      </trkpt>
      <trkpt lat="46.84164" lon="-2.13854">
        <ele>4.7</ele>
        <time>2020-06-04T10:18:48Z</time>
      </trkpt>
      <trkpt lat="46.84164" lon="-2.13852">
        <ele>4.7</ele>
        <time>2020-06-04T10:18:49Z</time>
      </trkpt>
      <trkpt lat="46.84163" lon="-2.13848">
        <ele>4.6</ele>
        <time>2020-06-04T10:18:50Z</time>
      </trkpt>
      <trkpt lat="46.84163" lon="-2.13846">
        <ele>4.6</ele>
        <time>2020-06-04T10:18:51Z</time>
      </trkpt>
      <trkpt lat="46.84162" lon="-2.13841">
        <ele>4.6</ele>
        <time>2020-06-04T10:18:52Z</time>
      </trkpt>
      <trkpt lat="46.84163" lon="-2.13839">
        <ele>4.6</ele>
        <time>2020-06-04T10:18:53Z</time>
      </trkpt>
      <trkpt lat="46.84162" lon="-2.13834">
        <ele>4.5</ele>
        <time>2020-06-04T10:18:54Z</time>
      </trkpt>
      <trkpt lat="46.84162" lon="-2.13833">
        <ele>4.5</ele>
        <time>2020-06-04T10:18:55Z</time>
      </trkpt>
      <trkpt lat="46.84162" lon="-2.13827">
        <ele>4.5</ele>
        <time>2020-06-04T10:18:56Z</time>
      </trkpt>
      <trkpt lat="46.84162" lon="-2.13825">
        <ele>4.4</ele>
        <time>2020-06-04T10:18:57Z</time>
      </trkpt>
      <trkpt lat="46.84162" lon="-2.13821">
        <ele>4.4</ele>
        <time>2020-06-04T10:18:58Z</time>
      </trkpt>
      <trkpt lat="46.84161" lon="-2.13817">
        <ele>4.4</ele>
        <time>2020-06-04T10:18:59Z</time>
      </trkpt>
      <trkpt lat="46.84161" lon="-2.13812">
        <ele>4.3</ele>
        <time>2020-06-04T10:19:00Z</time>
      </trkpt>
      <trkpt lat="46.8416" lon="-2.13806">
        <ele>4.3</ele>
        <time>2020-06-04T10:19:01Z</time>
      </trkpt>
      <trkpt lat="46.8416" lon="-2.138">
        <ele>4.3</ele>
        <time>2020-06-04T10:19:02Z</time>
      </trkpt>
      <trkpt lat="46.8416" lon="-2.13794">
        <ele>4.2</ele>
        <time>2020-06-04T10:19:03Z</time>
      </trkpt>
      <trkpt lat="46.8416" lon="-2.13787">
        <ele>4.2</ele>
        <time>2020-06-04T10:19:04Z</time>
      </trkpt>
      <trkpt lat="46.84161" lon="-2.13781">
        <ele>4.2</ele>
        <time>2020-06-04T10:19:05Z</time>
      </trkpt>
      <trkpt lat="46.84161" lon="-2.13775">
        <ele>4.2</ele>
        <time>2020-06-04T10:19:06Z</time>
      </trkpt>
      <trkpt lat="46.84162" lon="-2.1377">
        <ele>4.1</ele>
        <time>2020-06-04T10:19:07Z</time>
      </trkpt>
      <trkpt lat="46.84163" lon="-2.13765">
        <ele>4.1</ele>
        <time>2020-06-04T10:19:08Z</time>
      </trkpt>
      <trkpt lat="46.84163" lon="-2.13759">
        <ele>4.1</ele>
        <time>2020-06-04T10:19:09Z</time>
      </trkpt>
      <trkpt lat="46.84163" lon="-2.13753">
        <ele>4.1</ele>
        <time>2020-06-04T10:19:10Z</time>
      </trkpt>
      <trkpt lat="46.84162" lon="-2.13746">
        <ele>4.1</ele>
        <time>2020-06-04T10:19:11Z</time>
      </trkpt>
      <trkpt lat="46.84161" lon="-2.13738">
        <ele>4.1</ele>
        <time>2020-06-04T10:19:12Z</time>
      </trkpt>
      <trkpt lat="46.84161" lon="-2.13731">
        <ele>4.1</ele>
        <time>2020-06-04T10:19:13Z</time>
      </trkpt>
      <trkpt lat="46.8416" lon="-2.13723">
        <ele>4</ele>
        <time>2020-06-04T10:19:14Z</time>
      </trkpt>
      <trkpt lat="46.8416" lon="-2.13714">
        <ele>4</ele>
        <time>2020-06-04T10:19:15Z</time>
      </trkpt>
      <trkpt lat="46.8416" lon="-2.13707">
        <ele>4</ele>
        <time>2020-06-04T10:19:16Z</time>
      </trkpt>
      <trkpt lat="46.8416" lon="-2.13701">
        <ele>4</ele>
        <time>2020-06-04T10:19:17Z</time>
      </trkpt>
      <trkpt lat="46.8416" lon="-2.13694">
        <ele>4</ele>
        <time>2020-06-04T10:19:18Z</time>
      </trkpt>
      <trkpt lat="46.8416" lon="-2.13688">
        <ele>4</ele>
        <time>2020-06-04T10:19:19Z</time>
      </trkpt>
      <trkpt lat="46.8416" lon="-2.13682">
        <ele>4</ele>
        <time>2020-06-04T10:19:20Z</time>
      </trkpt>
      <trkpt lat="46.8416" lon="-2.13676">
        <ele>4</ele>
        <time>2020-06-04T10:19:21Z</time>
      </trkpt>
      <trkpt lat="46.84159" lon="-2.1367">
        <ele>4</ele>
        <time>2020-06-04T10:19:22Z</time>
      </trkpt>
      <trkpt lat="46.8416" lon="-2.13664">
        <ele>4</ele>
        <time>2020-06-04T10:19:23Z</time>
      </trkpt>
      <trkpt lat="46.84161" lon="-2.13657">
        <ele>4</ele>
        <time>2020-06-04T10:19:24Z</time>
      </trkpt>
      <trkpt lat="46.84162" lon="-2.13649">
        <ele>3.9</ele>
        <time>2020-06-04T10:19:25Z</time>
      </trkpt>
      <trkpt lat="46.84163" lon="-2.13641">
        <ele>3.9</ele>
        <time>2020-06-04T10:19:26Z</time>
      </trkpt>
      <trkpt lat="46.84164" lon="-2.13635">
        <ele>3.9</ele>
        <time>2020-06-04T10:19:27Z</time>
      </trkpt>
      <trkpt lat="46.84163" lon="-2.1363">
        <ele>3.9</ele>
        <time>2020-06-04T10:19:28Z</time>
      </trkpt>
      <trkpt lat="46.84163" lon="-2.13624">
        <ele>3.9</ele>
        <time>2020-06-04T10:19:29Z</time>
      </trkpt>
      <trkpt lat="46.84163" lon="-2.13618">
        <ele>3.9</ele>
        <time>2020-06-04T10:19:30Z</time>
      </trkpt>
      <trkpt lat="46.84163" lon="-2.13612">
        <ele>3.9</ele>
        <time>2020-06-04T10:19:31Z</time>
      </trkpt>
      <trkpt lat="46.84163" lon="-2.13607">
        <ele>3.9</ele>
        <time>2020-06-04T10:19:32Z</time>
      </trkpt>
      <trkpt lat="46.84162" lon="-2.13602">
        <ele>3.9</ele>
        <time>2020-06-04T10:19:33Z</time>
      </trkpt>
      <trkpt lat="46.84162" lon="-2.13597">
        <ele>4</ele>
        <time>2020-06-04T10:19:34Z</time>
      </trkpt>
      <trkpt lat="46.84162" lon="-2.13592">
        <ele>4</ele>
        <time>2020-06-04T10:19:35Z</time>
      </trkpt>
      <trkpt lat="46.84163" lon="-2.13588">
        <ele>4</ele>
        <time>2020-06-04T10:19:36Z</time>
      </trkpt>
      <trkpt lat="46.84163" lon="-2.13584">
        <ele>4</ele>
        <time>2020-06-04T10:19:37Z</time>
      </trkpt>
      <trkpt lat="46.84165" lon="-2.13578">
        <ele>4.1</ele>
        <time>2020-06-04T10:19:38Z</time>
      </trkpt>
      <trkpt lat="46.84165" lon="-2.13576">
        <ele>4.1</ele>
        <time>2020-06-04T10:19:39Z</time>
      </trkpt>
      <trkpt lat="46.84165" lon="-2.1357">
        <ele>4.1</ele>
        <time>2020-06-04T10:19:40Z</time>
      </trkpt>
      <trkpt lat="46.84165" lon="-2.13565">
        <ele>4.1</ele>
        <time>2020-06-04T10:19:41Z</time>
      </trkpt>
      <trkpt lat="46.84166" lon="-2.13558">
        <ele>4.2</ele>
        <time>2020-06-04T10:19:42Z</time>
      </trkpt>
      <trkpt lat="46.84165" lon="-2.13553">
        <ele>4.2</ele>
        <time>2020-06-04T10:19:43Z</time>
      </trkpt>
      <trkpt lat="46.84165" lon="-2.13549">
        <ele>4.3</ele>
        <time>2020-06-04T10:19:44Z</time>
      </trkpt>
      <trkpt lat="46.84166" lon="-2.13544">
        <ele>4.3</ele>
        <time>2020-06-04T10:19:45Z</time>
      </trkpt>
      <trkpt lat="46.84167" lon="-2.13543">
        <ele>4.3</ele>
        <time>2020-06-04T10:19:46Z</time>
      </trkpt>
      <trkpt lat="46.84168" lon="-2.13538">
        <ele>4.4</ele>
        <time>2020-06-04T10:19:47Z</time>
      </trkpt>
      <trkpt lat="46.84169" lon="-2.13537">
        <ele>4.4</ele>
        <time>2020-06-04T10:19:48Z</time>
      </trkpt>
      <trkpt lat="46.84169" lon="-2.13531">
        <ele>4.4</ele>
        <time>2020-06-04T10:19:49Z</time>
      </trkpt>
      <trkpt lat="46.84168" lon="-2.1353">
        <ele>4.4</ele>
        <time>2020-06-04T10:19:50Z</time>
      </trkpt>
      <trkpt lat="46.84169" lon="-2.13526">
        <ele>4.5</ele>
        <time>2020-06-04T10:19:51Z</time>
      </trkpt>
      <trkpt lat="46.84171" lon="-2.13523">
        <ele>4.5</ele>
        <time>2020-06-04T10:19:52Z</time>
      </trkpt>
      <trkpt lat="46.84174" lon="-2.13519">
        <ele>4.6</ele>
        <time>2020-06-04T10:19:53Z</time>
      </trkpt>
      <trkpt lat="46.84177" lon="-2.13514">
        <ele>4.6</ele>
        <time>2020-06-04T10:19:54Z</time>
      </trkpt>
      <trkpt lat="46.84181" lon="-2.1351">
        <ele>5.3</ele>
        <time>2020-06-04T10:19:55Z</time>
      </trkpt>
      <trkpt lat="46.84184" lon="-2.13508">
        <ele>5.4</ele>
        <time>2020-06-04T10:19:56Z</time>
      </trkpt>
      <trkpt lat="46.84187" lon="-2.13504">
        <ele>5.5</ele>
        <time>2020-06-04T10:19:57Z</time>
      </trkpt>
      <trkpt lat="46.8419" lon="-2.135">
        <ele>5.7</ele>
        <time>2020-06-04T10:19:58Z</time>
      </trkpt>
      <trkpt lat="46.84194" lon="-2.13495">
        <ele>5.9</ele>
        <time>2020-06-04T10:19:59Z</time>
      </trkpt>
      <trkpt lat="46.84198" lon="-2.13491">
        <ele>6.1</ele>
        <time>2020-06-04T10:20:00Z</time>
      </trkpt>
      <trkpt lat="46.84202" lon="-2.13487">
        <ele>6.2</ele>
        <time>2020-06-04T10:20:01Z</time>
      </trkpt>
      <trkpt lat="46.84206" lon="-2.13483">
        <ele>6.4</ele>
        <time>2020-06-04T10:20:02Z</time>
      </trkpt>
      <trkpt lat="46.84209" lon="-2.1348">
        <ele>6.6</ele>
        <time>2020-06-04T10:20:03Z</time>
      </trkpt>
      <trkpt lat="46.84212" lon="-2.13477">
        <ele>6.7</ele>
        <time>2020-06-04T10:20:04Z</time>
      </trkpt>
      <trkpt lat="46.84216" lon="-2.13473">
        <ele>6.8</ele>
        <time>2020-06-04T10:20:05Z</time>
      </trkpt>
      <trkpt lat="46.84219" lon="-2.13469">
        <ele>7</ele>
        <time>2020-06-04T10:20:06Z</time>
      </trkpt>
      <trkpt lat="46.84222" lon="-2.13466">
        <ele>7.1</ele>
        <time>2020-06-04T10:20:07Z</time>
      </trkpt>
      <trkpt lat="46.84225" lon="-2.13463">
        <ele>7.1</ele>
        <time>2020-06-04T10:20:08Z</time>
      </trkpt>
      <trkpt lat="46.84229" lon="-2.13457">
        <ele>7.2</ele>
        <time>2020-06-04T10:20:09Z</time>
      </trkpt>
      <trkpt lat="46.84233" lon="-2.13454">
        <ele>7.3</ele>
        <time>2020-06-04T10:20:10Z</time>
      </trkpt>
      <trkpt lat="46.84236" lon="-2.1345">
        <ele>7.3</ele>
        <time>2020-06-04T10:20:11Z</time>
      </trkpt>
      <trkpt lat="46.8424" lon="-2.13447">
        <ele>7.4</ele>
        <time>2020-06-04T10:20:12Z</time>
      </trkpt>
      <trkpt lat="46.84244" lon="-2.13444">
        <ele>7.4</ele>
        <time>2020-06-04T10:20:13Z</time>
      </trkpt>
      <trkpt lat="46.84247" lon="-2.13442">
        <ele>7.4</ele>
        <time>2020-06-04T10:20:14Z</time>
      </trkpt>
      <trkpt lat="46.84251" lon="-2.1344">
        <ele>7.4</ele>
        <time>2020-06-04T10:20:15Z</time>
      </trkpt>
      <trkpt lat="46.84255" lon="-2.13438">
        <ele>7.4</ele>
        <time>2020-06-04T10:20:16Z</time>
      </trkpt>
      <trkpt lat="46.84259" lon="-2.13436">
        <ele>7.4</ele>
        <time>2020-06-04T10:20:17Z</time>
      </trkpt>
      <trkpt lat="46.84262" lon="-2.13434">
        <ele>7.4</ele>
        <time>2020-06-04T10:20:18Z</time>
      </trkpt>
      <trkpt lat="46.84266" lon="-2.13432">
        <ele>7.4</ele>
        <time>2020-06-04T10:20:19Z</time>
      </trkpt>
      <trkpt lat="46.84268" lon="-2.1343">
        <ele>7.3</ele>
        <time>2020-06-04T10:20:20Z</time>
      </trkpt>
      <trkpt lat="46.84271" lon="-2.13428">
        <ele>7.3</ele>
        <time>2020-06-04T10:20:21Z</time>
      </trkpt>
      <trkpt lat="46.84274" lon="-2.13426">
        <ele>7.3</ele>
        <time>2020-06-04T10:20:22Z</time>
      </trkpt>
      <trkpt lat="46.84276" lon="-2.13423">
        <ele>7.2</ele>
        <time>2020-06-04T10:20:23Z</time>
      </trkpt>
      <trkpt lat="46.84279" lon="-2.1342">
        <ele>7.2</ele>
        <time>2020-06-04T10:20:24Z</time>
      </trkpt>
      <trkpt lat="46.84283" lon="-2.13416">
        <ele>7.1</ele>
        <time>2020-06-04T10:20:25Z</time>
      </trkpt>
      <trkpt lat="46.84286" lon="-2.13413">
        <ele>7.1</ele>
        <time>2020-06-04T10:20:26Z</time>
      </trkpt>
      <trkpt lat="46.84289" lon="-2.13409">
        <ele>7</ele>
        <time>2020-06-04T10:20:27Z</time>
      </trkpt>
      <trkpt lat="46.84293" lon="-2.13406">
        <ele>6.9</ele>
        <time>2020-06-04T10:20:28Z</time>
      </trkpt>
      <trkpt lat="46.84296" lon="-2.13403">
        <ele>6.9</ele>
        <time>2020-06-04T10:20:29Z</time>
      </trkpt>
      <trkpt lat="46.84299" lon="-2.134">
        <ele>6.9</ele>
        <time>2020-06-04T10:20:30Z</time>
      </trkpt>
      <trkpt lat="46.84302" lon="-2.13398">
        <ele>6.8</ele>
        <time>2020-06-04T10:20:31Z</time>
      </trkpt>
      <trkpt lat="46.84304" lon="-2.13394">
        <ele>6.8</ele>
        <time>2020-06-04T10:20:32Z</time>
      </trkpt>
      <trkpt lat="46.84307" lon="-2.1339">
        <ele>6.8</ele>
        <time>2020-06-04T10:20:33Z</time>
      </trkpt>
      <trkpt lat="46.84311" lon="-2.13386">
        <ele>6.8</ele>
        <time>2020-06-04T10:20:34Z</time>
      </trkpt>
      <trkpt lat="46.84313" lon="-2.13381">
        <ele>6.7</ele>
        <time>2020-06-04T10:20:35Z</time>
      </trkpt>
      <trkpt lat="46.84316" lon="-2.13377">
        <ele>6.7</ele>
        <time>2020-06-04T10:20:36Z</time>
      </trkpt>
      <trkpt lat="46.84318" lon="-2.13373">
        <ele>6.7</ele>
        <time>2020-06-04T10:20:37Z</time>
      </trkpt>
      <trkpt lat="46.8432" lon="-2.13369">
        <ele>6.7</ele>
        <time>2020-06-04T10:20:38Z</time>
      </trkpt>
      <trkpt lat="46.84322" lon="-2.13366">
        <ele>6.8</ele>
        <time>2020-06-04T10:20:39Z</time>
      </trkpt>
      <trkpt lat="46.84325" lon="-2.13361">
        <ele>6.8</ele>
        <time>2020-06-04T10:20:40Z</time>
      </trkpt>
      <trkpt lat="46.84329" lon="-2.13358">
        <ele>6.8</ele>
        <time>2020-06-04T10:20:41Z</time>
      </trkpt>
      <trkpt lat="46.84332" lon="-2.13355">
        <ele>6.8</ele>
        <time>2020-06-04T10:20:42Z</time>
      </trkpt>
      <trkpt lat="46.84334" lon="-2.13351">
        <ele>6.8</ele>
        <time>2020-06-04T10:20:43Z</time>
      </trkpt>
      <trkpt lat="46.84338" lon="-2.13348">
        <ele>6.8</ele>
        <time>2020-06-04T10:20:44Z</time>
      </trkpt>
      <trkpt lat="46.84343" lon="-2.13343">
        <ele>6.8</ele>
        <time>2020-06-04T10:20:45Z</time>
      </trkpt>
      <trkpt lat="46.84347" lon="-2.1334">
        <ele>6.8</ele>
        <time>2020-06-04T10:20:46Z</time>
      </trkpt>
      <trkpt lat="46.84351" lon="-2.13337">
        <ele>6.8</ele>
        <time>2020-06-04T10:20:47Z</time>
      </trkpt>
      <trkpt lat="46.84355" lon="-2.13334">
        <ele>6.8</ele>
        <time>2020-06-04T10:20:48Z</time>
      </trkpt>
      <trkpt lat="46.84359" lon="-2.13332">
        <ele>6.9</ele>
        <time>2020-06-04T10:20:49Z</time>
      </trkpt>
      <trkpt lat="46.84362" lon="-2.13331">
        <ele>7</ele>
        <time>2020-06-04T10:20:50Z</time>
      </trkpt>
      <trkpt lat="46.84366" lon="-2.13329">
        <ele>7.1</ele>
        <time>2020-06-04T10:20:51Z</time>
      </trkpt>
      <trkpt lat="46.8437" lon="-2.13329">
        <ele>7.2</ele>
        <time>2020-06-04T10:20:52Z</time>
      </trkpt>
      <trkpt lat="46.84373" lon="-2.13328">
        <ele>7.3</ele>
        <time>2020-06-04T10:20:53Z</time>
      </trkpt>
      <trkpt lat="46.84377" lon="-2.13327">
        <ele>7.4</ele>
        <time>2020-06-04T10:20:54Z</time>
      </trkpt>
      <trkpt lat="46.84379" lon="-2.13326">
        <ele>7.4</ele>
        <time>2020-06-04T10:20:55Z</time>
      </trkpt>
      <trkpt lat="46.84383" lon="-2.13325">
        <ele>7.5</ele>
        <time>2020-06-04T10:20:56Z</time>
      </trkpt>
      <trkpt lat="46.84384" lon="-2.13325">
        <ele>7.6</ele>
        <time>2020-06-04T10:20:57Z</time>
      </trkpt>
      <trkpt lat="46.84387" lon="-2.13323">
        <ele>7.7</ele>
        <time>2020-06-04T10:20:58Z</time>
      </trkpt>
      <trkpt lat="46.8439" lon="-2.13321">
        <ele>7.8</ele>
        <time>2020-06-04T10:20:59Z</time>
      </trkpt>
      <trkpt lat="46.84393" lon="-2.13321">
        <ele>7.9</ele>
        <time>2020-06-04T10:21:00Z</time>
      </trkpt>
      <trkpt lat="46.84397" lon="-2.13319">
        <ele>8.1</ele>
        <time>2020-06-04T10:21:01Z</time>
      </trkpt>
      <trkpt lat="46.84399" lon="-2.13318">
        <ele>8.2</ele>
        <time>2020-06-04T10:21:02Z</time>
      </trkpt>
      <trkpt lat="46.84403" lon="-2.13316">
        <ele>8.3</ele>
        <time>2020-06-04T10:21:03Z</time>
      </trkpt>
      <trkpt lat="46.84405" lon="-2.13315">
        <ele>8.4</ele>
        <time>2020-06-04T10:21:04Z</time>
      </trkpt>
      <trkpt lat="46.84408" lon="-2.13315">
        <ele>8.5</ele>
        <time>2020-06-04T10:21:05Z</time>
      </trkpt>
      <trkpt lat="46.84411" lon="-2.13315">
        <ele>8.6</ele>
        <time>2020-06-04T10:21:06Z</time>
      </trkpt>
      <trkpt lat="46.84415" lon="-2.13315">
        <ele>8.7</ele>
        <time>2020-06-04T10:21:07Z</time>
      </trkpt>
      <trkpt lat="46.84418" lon="-2.13316">
        <ele>8.8</ele>
        <time>2020-06-04T10:21:08Z</time>
      </trkpt>
      <trkpt lat="46.84422" lon="-2.13315">
        <ele>9</ele>
        <time>2020-06-04T10:21:09Z</time>
      </trkpt>
      <trkpt lat="46.84425" lon="-2.13314">
        <ele>9.1</ele>
        <time>2020-06-04T10:21:10Z</time>
      </trkpt>
      <trkpt lat="46.84429" lon="-2.13312">
        <ele>9.3</ele>
        <time>2020-06-04T10:21:11Z</time>
      </trkpt>
      <trkpt lat="46.84431" lon="-2.1331">
        <ele>9.4</ele>
        <time>2020-06-04T10:21:12Z</time>
      </trkpt>
      <trkpt lat="46.84433" lon="-2.13307">
        <ele>9.5</ele>
        <time>2020-06-04T10:21:13Z</time>
      </trkpt>
      <trkpt lat="46.84435" lon="-2.13304">
        <ele>9.7</ele>
        <time>2020-06-04T10:21:14Z</time>
      </trkpt>
      <trkpt lat="46.84437" lon="-2.13299">
        <ele>9.8</ele>
        <time>2020-06-04T10:21:15Z</time>
      </trkpt>
      <trkpt lat="46.8444" lon="-2.13296">
        <ele>9.9</ele>
        <time>2020-06-04T10:21:16Z</time>
      </trkpt>
      <trkpt lat="46.84444" lon="-2.13292">
        <ele>10</ele>
        <time>2020-06-04T10:21:17Z</time>
      </trkpt>
      <trkpt lat="46.84446" lon="-2.13289">
        <ele>10.1</ele>
        <time>2020-06-04T10:21:18Z</time>
      </trkpt>
      <trkpt lat="46.84448" lon="-2.13286">
        <ele>10.2</ele>
        <time>2020-06-04T10:21:19Z</time>
      </trkpt>
      <trkpt lat="46.84452" lon="-2.13283">
        <ele>10.3</ele>
        <time>2020-06-04T10:21:20Z</time>
      </trkpt>
      <trkpt lat="46.84457" lon="-2.1328">
        <ele>10.3</ele>
        <time>2020-06-04T10:21:21Z</time>
      </trkpt>
      <trkpt lat="46.84459" lon="-2.13277">
        <ele>10.3</ele>
        <time>2020-06-04T10:21:22Z</time>
      </trkpt>
      <trkpt lat="46.84462" lon="-2.13274">
        <ele>10.4</ele>
        <time>2020-06-04T10:21:23Z</time>
      </trkpt>
      <trkpt lat="46.84465" lon="-2.13271">
        <ele>10.4</ele>
        <time>2020-06-04T10:21:24Z</time>
      </trkpt>
      <trkpt lat="46.84466" lon="-2.1327">
        <ele>10.4</ele>
        <time>2020-06-04T10:21:25Z</time>
      </trkpt>
      <trkpt lat="46.8447" lon="-2.13269">
        <ele>10.4</ele>
        <time>2020-06-04T10:21:26Z</time>
      </trkpt>
      <trkpt lat="46.84471" lon="-2.13268">
        <ele>10.3</ele>
        <time>2020-06-04T10:21:27Z</time>
      </trkpt>
      <trkpt lat="46.84475" lon="-2.13266">
        <ele>10.3</ele>
        <time>2020-06-04T10:21:28Z</time>
      </trkpt>
      <trkpt lat="46.84478" lon="-2.13264">
        <ele>10.2</ele>
        <time>2020-06-04T10:21:29Z</time>
      </trkpt>
      <trkpt lat="46.84481" lon="-2.13263">
        <ele>10.2</ele>
        <time>2020-06-04T10:21:30Z</time>
      </trkpt>
      <trkpt lat="46.84484" lon="-2.13262">
        <ele>10.1</ele>
        <time>2020-06-04T10:21:31Z</time>
      </trkpt>
      <trkpt lat="46.84487" lon="-2.1326">
        <ele>10.1</ele>
        <time>2020-06-04T10:21:32Z</time>
      </trkpt>
      <trkpt lat="46.8449" lon="-2.13259">
        <ele>10</ele>
        <time>2020-06-04T10:21:33Z</time>
      </trkpt>
      <trkpt lat="46.84493" lon="-2.13258">
        <ele>9.9</ele>
        <time>2020-06-04T10:21:34Z</time>
      </trkpt>
      <trkpt lat="46.84497" lon="-2.13257">
        <ele>9.9</ele>
        <time>2020-06-04T10:21:35Z</time>
      </trkpt>
      <trkpt lat="46.845" lon="-2.13256">
        <ele>9.8</ele>
        <time>2020-06-04T10:21:36Z</time>
      </trkpt>
      <trkpt lat="46.84502" lon="-2.13255">
        <ele>9.7</ele>
        <time>2020-06-04T10:21:37Z</time>
      </trkpt>
      <trkpt lat="46.84505" lon="-2.13254">
        <ele>9.6</ele>
        <time>2020-06-04T10:21:38Z</time>
      </trkpt>
      <trkpt lat="46.84509" lon="-2.13253">
        <ele>9.6</ele>
        <time>2020-06-04T10:21:39Z</time>
      </trkpt>
      <trkpt lat="46.84512" lon="-2.13252">
        <ele>9.5</ele>
        <time>2020-06-04T10:21:40Z</time>
      </trkpt>
      <trkpt lat="46.84513" lon="-2.13252">
        <ele>9.4</ele>
        <time>2020-06-04T10:21:41Z</time>
      </trkpt>
      <trkpt lat="46.84516" lon="-2.1325">
        <ele>9.4</ele>
        <time>2020-06-04T10:21:42Z</time>
      </trkpt>
      <trkpt lat="46.84517" lon="-2.1325">
        <ele>9.4</ele>
        <time>2020-06-04T10:21:43Z</time>
      </trkpt>
      <trkpt lat="46.84521" lon="-2.13249">
        <ele>9.3</ele>
        <time>2020-06-04T10:21:44Z</time>
      </trkpt>
      <trkpt lat="46.84521" lon="-2.13249">
        <ele>9.3</ele>
        <time>2020-06-04T10:21:45Z</time>
      </trkpt>
      <trkpt lat="46.84525" lon="-2.13248">
        <ele>9.2</ele>
        <time>2020-06-04T10:21:46Z</time>
      </trkpt>
      <trkpt lat="46.84526" lon="-2.13248">
        <ele>9.2</ele>
        <time>2020-06-04T10:21:47Z</time>
      </trkpt>
      <trkpt lat="46.84529" lon="-2.13247">
        <ele>9.2</ele>
        <time>2020-06-04T10:21:48Z</time>
      </trkpt>
      <trkpt lat="46.84532" lon="-2.13246">
        <ele>9.1</ele>
        <time>2020-06-04T10:21:49Z</time>
      </trkpt>
      <trkpt lat="46.84533" lon="-2.13244">
        <ele>9.1</ele>
        <time>2020-06-04T10:21:50Z</time>
      </trkpt>
      <trkpt lat="46.84534" lon="-2.13243">
        <ele>9.1</ele>
        <time>2020-06-04T10:21:51Z</time>
      </trkpt>
      <trkpt lat="46.84537" lon="-2.1324">
        <ele>9</ele>
        <time>2020-06-04T10:21:52Z</time>
      </trkpt>
      <trkpt lat="46.8454" lon="-2.13239">
        <ele>9</ele>
        <time>2020-06-04T10:21:53Z</time>
      </trkpt>
      <trkpt lat="46.84541" lon="-2.13239">
        <ele>8.9</ele>
        <time>2020-06-04T10:21:54Z</time>
      </trkpt>
      <trkpt lat="46.84543" lon="-2.13238">
        <ele>8.9</ele>
        <time>2020-06-04T10:21:55Z</time>
      </trkpt>
      <trkpt lat="46.84545" lon="-2.13237">
        <ele>8.9</ele>
        <time>2020-06-04T10:21:56Z</time>
      </trkpt>
      <trkpt lat="46.84547" lon="-2.13234">
        <ele>8.8</ele>
        <time>2020-06-04T10:21:57Z</time>
      </trkpt>
      <trkpt lat="46.84548" lon="-2.13233">
        <ele>8.8</ele>
        <time>2020-06-04T10:21:58Z</time>
      </trkpt>
      <trkpt lat="46.8455" lon="-2.1323">
        <ele>8.7</ele>
        <time>2020-06-04T10:21:59Z</time>
      </trkpt>
      <trkpt lat="46.84551" lon="-2.13229">
        <ele>8.7</ele>
        <time>2020-06-04T10:22:00Z</time>
      </trkpt>
      <trkpt lat="46.84554" lon="-2.13224">
        <ele>8.6</ele>
        <time>2020-06-04T10:22:01Z</time>
      </trkpt>
      <trkpt lat="46.84556" lon="-2.13223">
        <ele>8.5</ele>
        <time>2020-06-04T10:22:02Z</time>
      </trkpt>
      <trkpt lat="46.84558" lon="-2.13221">
        <ele>8.5</ele>
        <time>2020-06-04T10:22:03Z</time>
      </trkpt>
      <trkpt lat="46.84562" lon="-2.13218">
        <ele>8.4</ele>
        <time>2020-06-04T10:22:04Z</time>
      </trkpt>
      <trkpt lat="46.84566" lon="-2.13214">
        <ele>8.3</ele>
        <time>2020-06-04T10:22:05Z</time>
      </trkpt>
      <trkpt lat="46.84569" lon="-2.1321">
        <ele>8.2</ele>
        <time>2020-06-04T10:22:06Z</time>
      </trkpt>
      <trkpt lat="46.84569" lon="-2.13208">
        <ele>8.2</ele>
        <time>2020-06-04T10:22:07Z</time>
      </trkpt>
      <trkpt lat="46.84571" lon="-2.13204">
        <ele>8.1</ele>
        <time>2020-06-04T10:22:08Z</time>
      </trkpt>
      <trkpt lat="46.84573" lon="-2.132">
        <ele>8.1</ele>
        <time>2020-06-04T10:22:09Z</time>
      </trkpt>
      <trkpt lat="46.84575" lon="-2.13196">
        <ele>8</ele>
        <time>2020-06-04T10:22:10Z</time>
      </trkpt>
      <trkpt lat="46.84577" lon="-2.13193">
        <ele>8</ele>
        <time>2020-06-04T10:22:11Z</time>
      </trkpt>
      <trkpt lat="46.8458" lon="-2.13189">
        <ele>7.9</ele>
        <time>2020-06-04T10:22:12Z</time>
      </trkpt>
      <trkpt lat="46.84584" lon="-2.13184">
        <ele>7.9</ele>
        <time>2020-06-04T10:22:13Z</time>
      </trkpt>
      <trkpt lat="46.84587" lon="-2.13182">
        <ele>7.8</ele>
        <time>2020-06-04T10:22:14Z</time>
      </trkpt>
      <trkpt lat="46.84591" lon="-2.13181">
        <ele>7.7</ele>
        <time>2020-06-04T10:22:15Z</time>
      </trkpt>
      <trkpt lat="46.84594" lon="-2.13181">
        <ele>7.6</ele>
        <time>2020-06-04T10:22:16Z</time>
      </trkpt>
      <trkpt lat="46.84596" lon="-2.13182">
        <ele>7.5</ele>
        <time>2020-06-04T10:22:17Z</time>
      </trkpt>
      <trkpt lat="46.84597" lon="-2.13181">
        <ele>7.5</ele>
        <time>2020-06-04T10:22:18Z</time>
      </trkpt>
      <trkpt lat="46.84599" lon="-2.1318">
        <ele>7.4</ele>
        <time>2020-06-04T10:22:19Z</time>
      </trkpt>
      <trkpt lat="46.84601" lon="-2.13176">
        <ele>7.3</ele>
        <time>2020-06-04T10:22:20Z</time>
      </trkpt>
      <trkpt lat="46.84603" lon="-2.13171">
        <ele>7.2</ele>
        <time>2020-06-04T10:22:21Z</time>
      </trkpt>
      <trkpt lat="46.84604" lon="-2.13167">
        <ele>7.1</ele>
        <time>2020-06-04T10:22:22Z</time>
      </trkpt>
      <trkpt lat="46.84605" lon="-2.13161">
        <ele>7</ele>
        <time>2020-06-04T10:22:23Z</time>
      </trkpt>
      <trkpt lat="46.84612" lon="-2.13152">
        <ele>6.9</ele>
        <time>2020-06-04T10:22:24Z</time>
      </trkpt>
      <trkpt lat="46.84614" lon="-2.13148">
        <ele>6.9</ele>
        <time>2020-06-04T10:22:25Z</time>
      </trkpt>
      <trkpt lat="46.84615" lon="-2.13144">
        <ele>6.9</ele>
        <time>2020-06-04T10:22:26Z</time>
      </trkpt>
      <trkpt lat="46.84616" lon="-2.13139">
        <ele>6.9</ele>
        <time>2020-06-04T10:22:27Z</time>
      </trkpt>
      <trkpt lat="46.84618" lon="-2.13135">
        <ele>6.8</ele>
        <time>2020-06-04T10:22:28Z</time>
      </trkpt>
      <trkpt lat="46.84619" lon="-2.13131">
        <ele>6.8</ele>
        <time>2020-06-04T10:22:29Z</time>
      </trkpt>
      <trkpt lat="46.84622" lon="-2.13127">
        <ele>6.8</ele>
        <time>2020-06-04T10:22:30Z</time>
      </trkpt>
      <trkpt lat="46.84624" lon="-2.13122">
        <ele>6.8</ele>
        <time>2020-06-04T10:22:31Z</time>
      </trkpt>
      <trkpt lat="46.84625" lon="-2.13116">
        <ele>6.8</ele>
        <time>2020-06-04T10:22:32Z</time>
      </trkpt>
      <trkpt lat="46.84627" lon="-2.1311">
        <ele>6.7</ele>
        <time>2020-06-04T10:22:33Z</time>
      </trkpt>
      <trkpt lat="46.84629" lon="-2.13106">
        <ele>6.7</ele>
        <time>2020-06-04T10:22:34Z</time>
      </trkpt>
      <trkpt lat="46.84631" lon="-2.13104">
        <ele>6.7</ele>
        <time>2020-06-04T10:22:35Z</time>
      </trkpt>
      <trkpt lat="46.84634" lon="-2.13101">
        <ele>6.7</ele>
        <time>2020-06-04T10:22:36Z</time>
      </trkpt>
      <trkpt lat="46.84637" lon="-2.13101">
        <ele>6.7</ele>
        <time>2020-06-04T10:22:37Z</time>
      </trkpt>
      <trkpt lat="46.84645" lon="-2.131">
        <ele>6.6</ele>
        <time>2020-06-04T10:22:38Z</time>
      </trkpt>
      <trkpt lat="46.84648" lon="-2.131">
        <ele>6.6</ele>
        <time>2020-06-04T10:22:39Z</time>
      </trkpt>
      <trkpt lat="46.8465" lon="-2.13102">
        <ele>6.6</ele>
        <time>2020-06-04T10:22:40Z</time>
      </trkpt>
      <trkpt lat="46.84653" lon="-2.13103">
        <ele>6.6</ele>
        <time>2020-06-04T10:22:41Z</time>
      </trkpt>
      <trkpt lat="46.84657" lon="-2.13105">
        <ele>6.6</ele>
        <time>2020-06-04T10:22:42Z</time>
      </trkpt>
      <trkpt lat="46.8466" lon="-2.13106">
        <ele>6.6</ele>
        <time>2020-06-04T10:22:43Z</time>
      </trkpt>
      <trkpt lat="46.84661" lon="-2.13106">
        <ele>6.6</ele>
        <time>2020-06-04T10:22:44Z</time>
      </trkpt>
      <trkpt lat="46.84665" lon="-2.13105">
        <ele>6.6</ele>
        <time>2020-06-04T10:22:45Z</time>
      </trkpt>
      <trkpt lat="46.84666" lon="-2.13104">
        <ele>6.6</ele>
        <time>2020-06-04T10:22:46Z</time>
      </trkpt>
      <trkpt lat="46.84669" lon="-2.13102">
        <ele>6.3</ele>
        <time>2020-06-04T10:22:47Z</time>
      </trkpt>
      <trkpt lat="46.84672" lon="-2.13099">
        <ele>6.2</ele>
        <time>2020-06-04T10:22:48Z</time>
      </trkpt>
      <trkpt lat="46.84673" lon="-2.13099">
        <ele>6.2</ele>
        <time>2020-06-04T10:22:49Z</time>
      </trkpt>
      <trkpt lat="46.84676" lon="-2.13097">
        <ele>6.2</ele>
        <time>2020-06-04T10:22:50Z</time>
      </trkpt>
      <trkpt lat="46.84679" lon="-2.13096">
        <ele>6.1</ele>
        <time>2020-06-04T10:22:51Z</time>
      </trkpt>
      <trkpt lat="46.84682" lon="-2.13094">
        <ele>6.1</ele>
        <time>2020-06-04T10:22:52Z</time>
      </trkpt>
      <trkpt lat="46.84686" lon="-2.13093">
        <ele>6</ele>
        <time>2020-06-04T10:22:53Z</time>
      </trkpt>
      <trkpt lat="46.84689" lon="-2.13091">
        <ele>6</ele>
        <time>2020-06-04T10:22:54Z</time>
      </trkpt>
      <trkpt lat="46.84693" lon="-2.13091">
        <ele>6</ele>
        <time>2020-06-04T10:22:55Z</time>
      </trkpt>
      <trkpt lat="46.84696" lon="-2.13088">
        <ele>5.9</ele>
        <time>2020-06-04T10:22:56Z</time>
      </trkpt>
      <trkpt lat="46.84699" lon="-2.13085">
        <ele>5.9</ele>
        <time>2020-06-04T10:22:57Z</time>
      </trkpt>
      <trkpt lat="46.84714" lon="-2.13072">
        <ele>6</ele>
        <time>2020-06-04T10:22:58Z</time>
      </trkpt>
      <trkpt lat="46.84716" lon="-2.13069">
        <ele>6</ele>
        <time>2020-06-04T10:22:59Z</time>
      </trkpt>
      <trkpt lat="46.84719" lon="-2.13068">
        <ele>6</ele>
        <time>2020-06-04T10:23:00Z</time>
      </trkpt>
      <trkpt lat="46.84723" lon="-2.13066">
        <ele>6</ele>
        <time>2020-06-04T10:23:01Z</time>
      </trkpt>
      <trkpt lat="46.84726" lon="-2.13063">
        <ele>6</ele>
        <time>2020-06-04T10:23:02Z</time>
      </trkpt>
      <trkpt lat="46.84729" lon="-2.1306">
        <ele>6.1</ele>
        <time>2020-06-04T10:23:03Z</time>
      </trkpt>
      <trkpt lat="46.84733" lon="-2.13056">
        <ele>6.1</ele>
        <time>2020-06-04T10:23:04Z</time>
      </trkpt>
      <trkpt lat="46.84736" lon="-2.13053">
        <ele>6.1</ele>
        <time>2020-06-04T10:23:05Z</time>
      </trkpt>
      <trkpt lat="46.8474" lon="-2.1305">
        <ele>6.1</ele>
        <time>2020-06-04T10:23:06Z</time>
      </trkpt>
      <trkpt lat="46.84741" lon="-2.13049">
        <ele>6.1</ele>
        <time>2020-06-04T10:23:07Z</time>
      </trkpt>
      <trkpt lat="46.84748" lon="-2.13047">
        <ele>6.1</ele>
        <time>2020-06-04T10:23:08Z</time>
      </trkpt>
      <trkpt lat="46.84753" lon="-2.13046">
        <ele>6.1</ele>
        <time>2020-06-04T10:23:09Z</time>
      </trkpt>
      <trkpt lat="46.84756" lon="-2.13045">
        <ele>6.1</ele>
        <time>2020-06-04T10:23:10Z</time>
      </trkpt>
      <trkpt lat="46.8476" lon="-2.13043">
        <ele>6.1</ele>
        <time>2020-06-04T10:23:11Z</time>
      </trkpt>
      <trkpt lat="46.84761" lon="-2.13042">
        <ele>6.1</ele>
        <time>2020-06-04T10:23:12Z</time>
      </trkpt>
      <trkpt lat="46.84764" lon="-2.13041">
        <ele>6.2</ele>
        <time>2020-06-04T10:23:13Z</time>
      </trkpt>
      <trkpt lat="46.84767" lon="-2.13041">
        <ele>6.2</ele>
        <time>2020-06-04T10:23:14Z</time>
      </trkpt>
      <trkpt lat="46.8477" lon="-2.1304">
        <ele>6.2</ele>
        <time>2020-06-04T10:23:15Z</time>
      </trkpt>
      <trkpt lat="46.84773" lon="-2.13039">
        <ele>6.2</ele>
        <time>2020-06-04T10:23:16Z</time>
      </trkpt>
      <trkpt lat="46.84776" lon="-2.13038">
        <ele>6.2</ele>
        <time>2020-06-04T10:23:17Z</time>
      </trkpt>
      <trkpt lat="46.84779" lon="-2.13036">
        <ele>6.2</ele>
        <time>2020-06-04T10:23:18Z</time>
      </trkpt>
      <trkpt lat="46.84783" lon="-2.13033">
        <ele>6.2</ele>
        <time>2020-06-04T10:23:19Z</time>
      </trkpt>
      <trkpt lat="46.84787" lon="-2.13031">
        <ele>6.2</ele>
        <time>2020-06-04T10:23:20Z</time>
      </trkpt>
      <trkpt lat="46.84791" lon="-2.13029">
        <ele>6.2</ele>
        <time>2020-06-04T10:23:21Z</time>
      </trkpt>
      <trkpt lat="46.84795" lon="-2.13027">
        <ele>6.2</ele>
        <time>2020-06-04T10:23:22Z</time>
      </trkpt>
      <trkpt lat="46.84798" lon="-2.13025">
        <ele>6.1</ele>
        <time>2020-06-04T10:23:23Z</time>
      </trkpt>
      <trkpt lat="46.84802" lon="-2.13023">
        <ele>6.1</ele>
        <time>2020-06-04T10:23:24Z</time>
      </trkpt>
      <trkpt lat="46.84804" lon="-2.13021">
        <ele>6.1</ele>
        <time>2020-06-04T10:23:25Z</time>
      </trkpt>
      <trkpt lat="46.84807" lon="-2.13019">
        <ele>6.1</ele>
        <time>2020-06-04T10:23:26Z</time>
      </trkpt>
      <trkpt lat="46.8481" lon="-2.13017">
        <ele>6.1</ele>
        <time>2020-06-04T10:23:27Z</time>
      </trkpt>
      <trkpt lat="46.84812" lon="-2.13015">
        <ele>6.1</ele>
        <time>2020-06-04T10:23:28Z</time>
      </trkpt>
      <trkpt lat="46.84815" lon="-2.13013">
        <ele>6.1</ele>
        <time>2020-06-04T10:23:29Z</time>
      </trkpt>
      <trkpt lat="46.84816" lon="-2.13012">
        <ele>6.1</ele>
        <time>2020-06-04T10:23:30Z</time>
      </trkpt>
      <trkpt lat="46.8482" lon="-2.1301">
        <ele>6.1</ele>
        <time>2020-06-04T10:23:31Z</time>
      </trkpt>
      <trkpt lat="46.84821" lon="-2.13008">
        <ele>6.2</ele>
        <time>2020-06-04T10:23:32Z</time>
      </trkpt>
      <trkpt lat="46.84824" lon="-2.13006">
        <ele>6.2</ele>
        <time>2020-06-04T10:23:33Z</time>
      </trkpt>
      <trkpt lat="46.84827" lon="-2.13004">
        <ele>6.2</ele>
        <time>2020-06-04T10:23:34Z</time>
      </trkpt>
      <trkpt lat="46.84828" lon="-2.13003">
        <ele>6.2</ele>
        <time>2020-06-04T10:23:35Z</time>
      </trkpt>
      <trkpt lat="46.8483" lon="-2.13003">
        <ele>6.2</ele>
        <time>2020-06-04T10:23:36Z</time>
      </trkpt>
      <trkpt lat="46.84831" lon="-2.13002">
        <ele>6.2</ele>
        <time>2020-06-04T10:23:37Z</time>
      </trkpt>
      <trkpt lat="46.84834" lon="-2.12998">
        <ele>6.3</ele>
        <time>2020-06-04T10:23:38Z</time>
      </trkpt>
      <trkpt lat="46.84835" lon="-2.12998">
        <ele>6.3</ele>
        <time>2020-06-04T10:23:39Z</time>
      </trkpt>
      <trkpt lat="46.84836" lon="-2.12997">
        <ele>6.3</ele>
        <time>2020-06-04T10:23:40Z</time>
      </trkpt>
      <trkpt lat="46.84838" lon="-2.12997">
        <ele>6.4</ele>
        <time>2020-06-04T10:23:41Z</time>
      </trkpt>
      <trkpt lat="46.84839" lon="-2.12996">
        <ele>6.4</ele>
        <time>2020-06-04T10:23:42Z</time>
      </trkpt>
      <trkpt lat="46.84841" lon="-2.12995">
        <ele>6.4</ele>
        <time>2020-06-04T10:23:43Z</time>
      </trkpt>
      <trkpt lat="46.84843" lon="-2.12994">
        <ele>6.5</ele>
        <time>2020-06-04T10:23:44Z</time>
      </trkpt>
      <trkpt lat="46.84843" lon="-2.12993">
        <ele>6.3</ele>
        <time>2020-06-04T10:23:45Z</time>
      </trkpt>
      <trkpt lat="46.84844" lon="-2.12992">
        <ele>6.1</ele>
        <time>2020-06-04T10:23:46Z</time>
      </trkpt>
      <trkpt lat="46.84846" lon="-2.12988">
        <ele>6</ele>
        <time>2020-06-04T10:23:47Z</time>
      </trkpt>
      <trkpt lat="46.84848" lon="-2.12985">
        <ele>5.9</ele>
        <time>2020-06-04T10:23:48Z</time>
      </trkpt>
      <trkpt lat="46.84849" lon="-2.12983">
        <ele>5.6</ele>
        <time>2020-06-04T10:23:49Z</time>
      </trkpt>
      <trkpt lat="46.84849" lon="-2.12982">
        <ele>5.5</ele>
        <time>2020-06-04T10:23:50Z</time>
      </trkpt>
      <trkpt lat="46.8485" lon="-2.12982">
        <ele>5.4</ele>
        <time>2020-06-04T10:23:51Z</time>
      </trkpt>
      <trkpt lat="46.8485" lon="-2.1298">
        <ele>5.2</ele>
        <time>2020-06-04T10:23:52Z</time>
      </trkpt>
      <trkpt lat="46.84851" lon="-2.1298">
        <ele>5.2</ele>
        <time>2020-06-04T10:23:53Z</time>
      </trkpt>
      <trkpt lat="46.84852" lon="-2.12979">
        <ele>5</ele>
        <time>2020-06-04T10:23:54Z</time>
      </trkpt>
      <trkpt lat="46.84854" lon="-2.12976">
        <ele>4.8</ele>
        <time>2020-06-04T10:23:55Z</time>
      </trkpt>
      <trkpt lat="46.84855" lon="-2.12975">
        <ele>4.6</ele>
        <time>2020-06-04T10:23:56Z</time>
      </trkpt>
      <trkpt lat="46.84855" lon="-2.12972">
        <ele>4.5</ele>
        <time>2020-06-04T10:23:57Z</time>
      </trkpt>
      <trkpt lat="46.84856" lon="-2.1297">
        <ele>4.5</ele>
        <time>2020-06-04T10:23:58Z</time>
      </trkpt>
      <trkpt lat="46.84857" lon="-2.12969">
        <ele>4.5</ele>
        <time>2020-06-04T10:23:59Z</time>
      </trkpt>
      <trkpt lat="46.84857" lon="-2.12967">
        <ele>4.5</ele>
        <time>2020-06-04T10:24:00Z</time>
      </trkpt>
      <trkpt lat="46.84858" lon="-2.12967">
        <ele>4.5</ele>
        <time>2020-06-04T10:24:01Z</time>
      </trkpt>
      <trkpt lat="46.84857" lon="-2.12966">
        <ele>4.5</ele>
        <time>2020-06-04T10:24:02Z</time>
      </trkpt>
      <trkpt lat="46.8486" lon="-2.12965">
        <ele>4.5</ele>
        <time>2020-06-04T10:24:03Z</time>
      </trkpt>
      <trkpt lat="46.8486" lon="-2.12965">
        <ele>4.5</ele>
        <time>2020-06-04T10:24:04Z</time>
      </trkpt>
      <trkpt lat="46.8486" lon="-2.12966">
        <ele>4.5</ele>
        <time>2020-06-04T10:24:05Z</time>
      </trkpt>
      <trkpt lat="46.84861" lon="-2.12969">
        <ele>4.5</ele>
        <time>2020-06-04T10:24:06Z</time>
      </trkpt>
      <trkpt lat="46.84861" lon="-2.12968">
        <ele>4.5</ele>
        <time>2020-06-04T10:24:07Z</time>
      </trkpt>
      <trkpt lat="46.84862" lon="-2.12969">
        <ele>4.5</ele>
        <time>2020-06-04T10:24:08Z</time>
      </trkpt>
      <trkpt lat="46.84862" lon="-2.12969">
        <ele>4.5</ele>
        <time>2020-06-04T10:24:09Z</time>
      </trkpt>
      <trkpt lat="46.84862" lon="-2.12969">
        <ele>4.5</ele>
        <time>2020-06-04T10:24:10Z</time>
      </trkpt>
      <trkpt lat="46.84862" lon="-2.12969">
        <ele>4.5</ele>
        <time>2020-06-04T10:24:11Z</time>
      </trkpt>
      <trkpt lat="46.84913" lon="-2.12898">
        <ele>4.4</ele>
        <time>2020-06-04T10:24:53Z</time>
      </trkpt>
      <trkpt lat="46.84919" lon="-2.12892">
        <ele>4.4</ele>
        <time>2020-06-04T10:24:54Z</time>
      </trkpt>
      <trkpt lat="46.84932" lon="-2.12884">
        <ele>4.4</ele>
        <time>2020-06-04T10:24:55Z</time>
      </trkpt>
      <trkpt lat="46.84938" lon="-2.12881">
        <ele>4.4</ele>
        <time>2020-06-04T10:24:56Z</time>
      </trkpt>
      <trkpt lat="46.84943" lon="-2.12878">
        <ele>4.4</ele>
        <time>2020-06-04T10:24:57Z</time>
      </trkpt>
      <trkpt lat="46.84949" lon="-2.12875">
        <ele>4.4</ele>
        <time>2020-06-04T10:24:58Z</time>
      </trkpt>
      <trkpt lat="46.84955" lon="-2.12872">
        <ele>4.4</ele>
        <time>2020-06-04T10:24:59Z</time>
      </trkpt>
      <trkpt lat="46.8496" lon="-2.1287">
        <ele>4.4</ele>
        <time>2020-06-04T10:25:00Z</time>
      </trkpt>
      <trkpt lat="46.84966" lon="-2.12867">
        <ele>4.4</ele>
        <time>2020-06-04T10:25:01Z</time>
      </trkpt>
      <trkpt lat="46.84971" lon="-2.12864">
        <ele>4.4</ele>
        <time>2020-06-04T10:25:02Z</time>
      </trkpt>
      <trkpt lat="46.84977" lon="-2.12861">
        <ele>4.4</ele>
        <time>2020-06-04T10:25:03Z</time>
      </trkpt>
      <trkpt lat="46.84982" lon="-2.12858">
        <ele>4.4</ele>
        <time>2020-06-04T10:25:04Z</time>
      </trkpt>
      <trkpt lat="46.84994" lon="-2.12855">
        <ele>4.3</ele>
        <time>2020-06-04T10:25:05Z</time>
      </trkpt>
      <trkpt lat="46.85" lon="-2.12853">
        <ele>4.3</ele>
        <time>2020-06-04T10:25:06Z</time>
      </trkpt>
      <trkpt lat="46.85005" lon="-2.12851">
        <ele>4.3</ele>
        <time>2020-06-04T10:25:07Z</time>
      </trkpt>
      <trkpt lat="46.85013" lon="-2.12846">
        <ele>4.3</ele>
        <time>2020-06-04T10:25:08Z</time>
      </trkpt>
      <trkpt lat="46.8502" lon="-2.1284">
        <ele>4.2</ele>
        <time>2020-06-04T10:25:09Z</time>
      </trkpt>
      <trkpt lat="46.85025" lon="-2.12832">
        <ele>4.2</ele>
        <time>2020-06-04T10:25:10Z</time>
      </trkpt>
      <trkpt lat="46.85034" lon="-2.12827">
        <ele>4.2</ele>
        <time>2020-06-04T10:25:11Z</time>
      </trkpt>
      <trkpt lat="46.8504" lon="-2.1282">
        <ele>4.2</ele>
        <time>2020-06-04T10:25:12Z</time>
      </trkpt>
      <trkpt lat="46.85046" lon="-2.12813">
        <ele>4.1</ele>
        <time>2020-06-04T10:25:13Z</time>
      </trkpt>
      <trkpt lat="46.85055" lon="-2.12806">
        <ele>4.1</ele>
        <time>2020-06-04T10:25:14Z</time>
      </trkpt>
      <trkpt lat="46.85059" lon="-2.128">
        <ele>4.1</ele>
        <time>2020-06-04T10:25:15Z</time>
      </trkpt>
      <trkpt lat="46.85067" lon="-2.12793">
        <ele>4</ele>
        <time>2020-06-04T10:25:16Z</time>
      </trkpt>
      <trkpt lat="46.8508" lon="-2.12783">
        <ele>3.9</ele>
        <time>2020-06-04T10:25:17Z</time>
      </trkpt>
      <trkpt lat="46.85087" lon="-2.12778">
        <ele>3.9</ele>
        <time>2020-06-04T10:25:18Z</time>
      </trkpt>
      <trkpt lat="46.85095" lon="-2.1277">
        <ele>3.9</ele>
        <time>2020-06-04T10:25:19Z</time>
      </trkpt>
      <trkpt lat="46.85101" lon="-2.12765">
        <ele>3.9</ele>
        <time>2020-06-04T10:25:20Z</time>
      </trkpt>
      <trkpt lat="46.85106" lon="-2.1276">
        <ele>3.9</ele>
        <time>2020-06-04T10:25:21Z</time>
      </trkpt>
      <trkpt lat="46.85111" lon="-2.12757">
        <ele>3.9</ele>
        <time>2020-06-04T10:25:22Z</time>
      </trkpt>
      <trkpt lat="46.85123" lon="-2.12747">
        <ele>3.9</ele>
        <time>2020-06-04T10:25:23Z</time>
      </trkpt>
      <trkpt lat="46.85135" lon="-2.12735">
        <ele>3.8</ele>
        <time>2020-06-04T10:25:24Z</time>
      </trkpt>
      <trkpt lat="46.85147" lon="-2.12721">
        <ele>3.8</ele>
        <time>2020-06-04T10:25:25Z</time>
      </trkpt>
      <trkpt lat="46.85161" lon="-2.12709">
        <ele>3.7</ele>
        <time>2020-06-04T10:25:26Z</time>
      </trkpt>
      <trkpt lat="46.85172" lon="-2.127">
        <ele>3.6</ele>
        <time>2020-06-04T10:25:27Z</time>
      </trkpt>
      <trkpt lat="46.8518" lon="-2.12695">
        <ele>3.6</ele>
        <time>2020-06-04T10:25:28Z</time>
      </trkpt>
      <trkpt lat="46.85189" lon="-2.12687">
        <ele>3.6</ele>
        <time>2020-06-04T10:25:29Z</time>
      </trkpt>
      <trkpt lat="46.85197" lon="-2.1268">
        <ele>3.5</ele>
        <time>2020-06-04T10:25:30Z</time>
      </trkpt>
      <trkpt lat="46.85203" lon="-2.12672">
        <ele>3.5</ele>
        <time>2020-06-04T10:25:31Z</time>
      </trkpt>
      <trkpt lat="46.8521" lon="-2.12664">
        <ele>3.5</ele>
        <time>2020-06-04T10:25:32Z</time>
      </trkpt>
      <trkpt lat="46.85215" lon="-2.12659">
        <ele>3.5</ele>
        <time>2020-06-04T10:25:33Z</time>
      </trkpt>
      <trkpt lat="46.85221" lon="-2.12655">
        <ele>4.7</ele>
        <time>2020-06-04T10:25:34Z</time>
      </trkpt>
      <trkpt lat="46.85228" lon="-2.1265">
        <ele>4.7</ele>
        <time>2020-06-04T10:25:35Z</time>
      </trkpt>
      <trkpt lat="46.85234" lon="-2.12645">
        <ele>5.6</ele>
        <time>2020-06-04T10:25:36Z</time>
      </trkpt>
      <trkpt lat="46.85239" lon="-2.1264">
        <ele>5.6</ele>
        <time>2020-06-04T10:25:37Z</time>
      </trkpt>
      <trkpt lat="46.85245" lon="-2.12635">
        <ele>5.6</ele>
        <time>2020-06-04T10:25:38Z</time>
      </trkpt>
      <trkpt lat="46.8525" lon="-2.12629">
        <ele>5.6</ele>
        <time>2020-06-04T10:25:39Z</time>
      </trkpt>
      <trkpt lat="46.85255" lon="-2.12624">
        <ele>5.6</ele>
        <time>2020-06-04T10:25:40Z</time>
      </trkpt>
      <trkpt lat="46.85261" lon="-2.12617">
        <ele>5.6</ele>
        <time>2020-06-04T10:25:41Z</time>
      </trkpt>
      <trkpt lat="46.85266" lon="-2.1261">
        <ele>5.6</ele>
        <time>2020-06-04T10:25:42Z</time>
      </trkpt>
      <trkpt lat="46.85272" lon="-2.12604">
        <ele>5.6</ele>
        <time>2020-06-04T10:25:43Z</time>
      </trkpt>
      <trkpt lat="46.85278" lon="-2.126">
        <ele>5.7</ele>
        <time>2020-06-04T10:25:44Z</time>
      </trkpt>
      <trkpt lat="46.85283" lon="-2.12594">
        <ele>5.7</ele>
        <time>2020-06-04T10:25:45Z</time>
      </trkpt>
      <trkpt lat="46.85289" lon="-2.12588">
        <ele>5.7</ele>
        <time>2020-06-04T10:25:46Z</time>
      </trkpt>
      <trkpt lat="46.85296" lon="-2.12582">
        <ele>5.7</ele>
        <time>2020-06-04T10:25:47Z</time>
      </trkpt>
      <trkpt lat="46.85302" lon="-2.12576">
        <ele>5.7</ele>
        <time>2020-06-04T10:25:48Z</time>
      </trkpt>
      <trkpt lat="46.85308" lon="-2.12569">
        <ele>5.7</ele>
        <time>2020-06-04T10:25:49Z</time>
      </trkpt>
      <trkpt lat="46.85315" lon="-2.12562">
        <ele>5.7</ele>
        <time>2020-06-04T10:25:50Z</time>
      </trkpt>
      <trkpt lat="46.8532" lon="-2.12556">
        <ele>5.7</ele>
        <time>2020-06-04T10:25:51Z</time>
      </trkpt>
      <trkpt lat="46.85326" lon="-2.12548">
        <ele>5.7</ele>
        <time>2020-06-04T10:25:52Z</time>
      </trkpt>
      <trkpt lat="46.85333" lon="-2.12542">
        <ele>5.8</ele>
        <time>2020-06-04T10:25:53Z</time>
      </trkpt>
      <trkpt lat="46.8534" lon="-2.12536">
        <ele>5.8</ele>
        <time>2020-06-04T10:25:54Z</time>
      </trkpt>
      <trkpt lat="46.85346" lon="-2.12531">
        <ele>5.9</ele>
        <time>2020-06-04T10:25:55Z</time>
      </trkpt>
      <trkpt lat="46.85352" lon="-2.12527">
        <ele>6</ele>
        <time>2020-06-04T10:25:56Z</time>
      </trkpt>
      <trkpt lat="46.85358" lon="-2.12522">
        <ele>6.1</ele>
        <time>2020-06-04T10:25:57Z</time>
      </trkpt>
      <trkpt lat="46.85365" lon="-2.12515">
        <ele>6.2</ele>
        <time>2020-06-04T10:25:58Z</time>
      </trkpt>
      <trkpt lat="46.85371" lon="-2.1251">
        <ele>6.3</ele>
        <time>2020-06-04T10:25:59Z</time>
      </trkpt>
      <trkpt lat="46.85377" lon="-2.12505">
        <ele>6.4</ele>
        <time>2020-06-04T10:26:00Z</time>
      </trkpt>
      <trkpt lat="46.85381" lon="-2.12502">
        <ele>6.4</ele>
        <time>2020-06-04T10:26:01Z</time>
      </trkpt>
      <trkpt lat="46.85385" lon="-2.12498">
        <ele>6.5</ele>
        <time>2020-06-04T10:26:02Z</time>
      </trkpt>
      <trkpt lat="46.85389" lon="-2.1249">
        <ele>6.5</ele>
        <time>2020-06-04T10:26:03Z</time>
      </trkpt>
      <trkpt lat="46.85392" lon="-2.12485">
        <ele>6.5</ele>
        <time>2020-06-04T10:26:04Z</time>
      </trkpt>
      <trkpt lat="46.85396" lon="-2.12481">
        <ele>6.4</ele>
        <time>2020-06-04T10:26:05Z</time>
      </trkpt>
      <trkpt lat="46.85401" lon="-2.1248">
        <ele>6.4</ele>
        <time>2020-06-04T10:26:06Z</time>
      </trkpt>
      <trkpt lat="46.85406" lon="-2.1248">
        <ele>6.4</ele>
        <time>2020-06-04T10:26:07Z</time>
      </trkpt>
      <trkpt lat="46.8541" lon="-2.12478">
        <ele>6.4</ele>
        <time>2020-06-04T10:26:08Z</time>
      </trkpt>
      <trkpt lat="46.85416" lon="-2.12476">
        <ele>6.4</ele>
        <time>2020-06-04T10:26:09Z</time>
      </trkpt>
      <trkpt lat="46.8542" lon="-2.12471">
        <ele>6.4</ele>
        <time>2020-06-04T10:26:10Z</time>
      </trkpt>
      <trkpt lat="46.85425" lon="-2.12465">
        <ele>6.3</ele>
        <time>2020-06-04T10:26:11Z</time>
      </trkpt>
      <trkpt lat="46.8543" lon="-2.12458">
        <ele>6.3</ele>
        <time>2020-06-04T10:26:12Z</time>
      </trkpt>
      <trkpt lat="46.85435" lon="-2.12452">
        <ele>6.2</ele>
        <time>2020-06-04T10:26:13Z</time>
      </trkpt>
      <trkpt lat="46.8544" lon="-2.12445">
        <ele>6.2</ele>
        <time>2020-06-04T10:26:14Z</time>
      </trkpt>
      <trkpt lat="46.85444" lon="-2.12439">
        <ele>6.1</ele>
        <time>2020-06-04T10:26:15Z</time>
      </trkpt>
      <trkpt lat="46.85449" lon="-2.12434">
        <ele>6</ele>
        <time>2020-06-04T10:26:16Z</time>
      </trkpt>
      <trkpt lat="46.85454" lon="-2.12427">
        <ele>6</ele>
        <time>2020-06-04T10:26:17Z</time>
      </trkpt>
      <trkpt lat="46.85461" lon="-2.12418">
        <ele>5.9</ele>
        <time>2020-06-04T10:26:18Z</time>
      </trkpt>
      <trkpt lat="46.85467" lon="-2.12409">
        <ele>5.9</ele>
        <time>2020-06-04T10:26:19Z</time>
      </trkpt>
      <trkpt lat="46.85473" lon="-2.12402">
        <ele>5.9</ele>
        <time>2020-06-04T10:26:20Z</time>
      </trkpt>
      <trkpt lat="46.85478" lon="-2.12395">
        <ele>5.9</ele>
        <time>2020-06-04T10:26:21Z</time>
      </trkpt>
      <trkpt lat="46.85484" lon="-2.1239">
        <ele>5.9</ele>
        <time>2020-06-04T10:26:22Z</time>
      </trkpt>
      <trkpt lat="46.8549" lon="-2.12384">
        <ele>5.9</ele>
        <time>2020-06-04T10:26:23Z</time>
      </trkpt>
      <trkpt lat="46.85496" lon="-2.12377">
        <ele>5.9</ele>
        <time>2020-06-04T10:26:24Z</time>
      </trkpt>
      <trkpt lat="46.85501" lon="-2.12371">
        <ele>5.9</ele>
        <time>2020-06-04T10:26:25Z</time>
      </trkpt>
      <trkpt lat="46.85506" lon="-2.12366">
        <ele>5.9</ele>
        <time>2020-06-04T10:26:26Z</time>
      </trkpt>
      <trkpt lat="46.8551" lon="-2.12361">
        <ele>5.9</ele>
        <time>2020-06-04T10:26:27Z</time>
      </trkpt>
      <trkpt lat="46.85515" lon="-2.12356">
        <ele>5.9</ele>
        <time>2020-06-04T10:26:28Z</time>
      </trkpt>
      <trkpt lat="46.8552" lon="-2.12349">
        <ele>5.9</ele>
        <time>2020-06-04T10:26:29Z</time>
      </trkpt>
      <trkpt lat="46.85526" lon="-2.12343">
        <ele>5.9</ele>
        <time>2020-06-04T10:26:30Z</time>
      </trkpt>
      <trkpt lat="46.85532" lon="-2.12336">
        <ele>5.9</ele>
        <time>2020-06-04T10:26:31Z</time>
      </trkpt>
      <trkpt lat="46.85539" lon="-2.1233">
        <ele>5.9</ele>
        <time>2020-06-04T10:26:32Z</time>
      </trkpt>
      <trkpt lat="46.85545" lon="-2.12325">
        <ele>5.8</ele>
        <time>2020-06-04T10:26:33Z</time>
      </trkpt>
      <trkpt lat="46.8555" lon="-2.1232">
        <ele>5.8</ele>
        <time>2020-06-04T10:26:34Z</time>
      </trkpt>
      <trkpt lat="46.85555" lon="-2.12314">
        <ele>5.8</ele>
        <time>2020-06-04T10:26:35Z</time>
      </trkpt>
      <trkpt lat="46.8556" lon="-2.12309">
        <ele>5.8</ele>
        <time>2020-06-04T10:26:36Z</time>
      </trkpt>
      <trkpt lat="46.85565" lon="-2.12306">
        <ele>5.7</ele>
        <time>2020-06-04T10:26:37Z</time>
      </trkpt>
      <trkpt lat="46.85573" lon="-2.12302">
        <ele>5.7</ele>
        <time>2020-06-04T10:26:38Z</time>
      </trkpt>
      <trkpt lat="46.85577" lon="-2.123">
        <ele>5.7</ele>
        <time>2020-06-04T10:26:39Z</time>
      </trkpt>
      <trkpt lat="46.85584" lon="-2.123">
        <ele>5.6</ele>
        <time>2020-06-04T10:26:40Z</time>
      </trkpt>
      <trkpt lat="46.8559" lon="-2.123">
        <ele>5.6</ele>
        <time>2020-06-04T10:26:41Z</time>
      </trkpt>
      <trkpt lat="46.85598" lon="-2.12299">
        <ele>5.6</ele>
        <time>2020-06-04T10:26:42Z</time>
      </trkpt>
      <trkpt lat="46.85604" lon="-2.12298">
        <ele>5.6</ele>
        <time>2020-06-04T10:26:43Z</time>
      </trkpt>
      <trkpt lat="46.85611" lon="-2.12296">
        <ele>5.6</ele>
        <time>2020-06-04T10:26:44Z</time>
      </trkpt>
      <trkpt lat="46.85621" lon="-2.12295">
        <ele>5.7</ele>
        <time>2020-06-04T10:26:45Z</time>
      </trkpt>
      <trkpt lat="46.85629" lon="-2.12296">
        <ele>5.9</ele>
        <time>2020-06-04T10:26:46Z</time>
      </trkpt>
      <trkpt lat="46.85637" lon="-2.12298">
        <ele>6</ele>
        <time>2020-06-04T10:26:47Z</time>
      </trkpt>
      <trkpt lat="46.85643" lon="-2.12299">
        <ele>6.2</ele>
        <time>2020-06-04T10:26:48Z</time>
      </trkpt>
      <trkpt lat="46.85648" lon="-2.123">
        <ele>6.3</ele>
        <time>2020-06-04T10:26:49Z</time>
      </trkpt>
      <trkpt lat="46.85657" lon="-2.12297">
        <ele>6.5</ele>
        <time>2020-06-04T10:26:50Z</time>
      </trkpt>
      <trkpt lat="46.85664" lon="-2.12293">
        <ele>6.7</ele>
        <time>2020-06-04T10:26:51Z</time>
      </trkpt>
      <trkpt lat="46.85669" lon="-2.1229">
        <ele>6.7</ele>
        <time>2020-06-04T10:26:52Z</time>
      </trkpt>
      <trkpt lat="46.85674" lon="-2.12286">
        <ele>6.7</ele>
        <time>2020-06-04T10:26:53Z</time>
      </trkpt>
      <trkpt lat="46.85678" lon="-2.12281">
        <ele>6.7</ele>
        <time>2020-06-04T10:26:54Z</time>
      </trkpt>
      <trkpt lat="46.8568" lon="-2.12278">
        <ele>6.7</ele>
        <time>2020-06-04T10:26:55Z</time>
      </trkpt>
      <trkpt lat="46.85683" lon="-2.12273">
        <ele>6.6</ele>
        <time>2020-06-04T10:26:56Z</time>
      </trkpt>
      <trkpt lat="46.85684" lon="-2.12266">
        <ele>6.6</ele>
        <time>2020-06-04T10:26:57Z</time>
      </trkpt>
      <trkpt lat="46.85683" lon="-2.12259">
        <ele>6.5</ele>
        <time>2020-06-04T10:26:58Z</time>
      </trkpt>
      <trkpt lat="46.85682" lon="-2.12251">
        <ele>6.4</ele>
        <time>2020-06-04T10:26:59Z</time>
      </trkpt>
      <trkpt lat="46.8568" lon="-2.12243">
        <ele>6.4</ele>
        <time>2020-06-04T10:27:00Z</time>
      </trkpt>
      <trkpt lat="46.85677" lon="-2.12233">
        <ele>6.3</ele>
        <time>2020-06-04T10:27:01Z</time>
      </trkpt>
      <trkpt lat="46.85675" lon="-2.12223">
        <ele>6.2</ele>
        <time>2020-06-04T10:27:02Z</time>
      </trkpt>
      <trkpt lat="46.85675" lon="-2.12213">
        <ele>6.1</ele>
        <time>2020-06-04T10:27:03Z</time>
      </trkpt>
      <trkpt lat="46.85676" lon="-2.12203">
        <ele>6.1</ele>
        <time>2020-06-04T10:27:04Z</time>
      </trkpt>
      <trkpt lat="46.85676" lon="-2.12195">
        <ele>6.1</ele>
        <time>2020-06-04T10:27:05Z</time>
      </trkpt>
      <trkpt lat="46.85676" lon="-2.12185">
        <ele>6.1</ele>
        <time>2020-06-04T10:27:06Z</time>
      </trkpt>
      <trkpt lat="46.85675" lon="-2.12178">
        <ele>6.1</ele>
        <time>2020-06-04T10:27:07Z</time>
      </trkpt>
      <trkpt lat="46.85677" lon="-2.12169">
        <ele>6.1</ele>
        <time>2020-06-04T10:27:08Z</time>
      </trkpt>
      <trkpt lat="46.8568" lon="-2.12161">
        <ele>6.2</ele>
        <time>2020-06-04T10:27:09Z</time>
      </trkpt>
      <trkpt lat="46.85684" lon="-2.12151">
        <ele>6.3</ele>
        <time>2020-06-04T10:27:10Z</time>
      </trkpt>
      <trkpt lat="46.85689" lon="-2.12144">
        <ele>6.4</ele>
        <time>2020-06-04T10:27:11Z</time>
      </trkpt>
      <trkpt lat="46.85693" lon="-2.12136">
        <ele>6.6</ele>
        <time>2020-06-04T10:27:12Z</time>
      </trkpt>
      <trkpt lat="46.85698" lon="-2.12129">
        <ele>6.8</ele>
        <time>2020-06-04T10:27:13Z</time>
      </trkpt>
      <trkpt lat="46.85702" lon="-2.12125">
        <ele>7</ele>
        <time>2020-06-04T10:27:14Z</time>
      </trkpt>
      <trkpt lat="46.85704" lon="-2.12121">
        <ele>7.1</ele>
        <time>2020-06-04T10:27:15Z</time>
      </trkpt>
      <trkpt lat="46.85706" lon="-2.12117">
        <ele>7.2</ele>
        <time>2020-06-04T10:27:16Z</time>
      </trkpt>
      <trkpt lat="46.85708" lon="-2.12115">
        <ele>7.3</ele>
        <time>2020-06-04T10:27:17Z</time>
      </trkpt>
      <trkpt lat="46.8571" lon="-2.12112">
        <ele>7.4</ele>
        <time>2020-06-04T10:27:18Z</time>
      </trkpt>
      <trkpt lat="46.85712" lon="-2.12109">
        <ele>7.5</ele>
        <time>2020-06-04T10:27:19Z</time>
      </trkpt>
      <trkpt lat="46.85715" lon="-2.12104">
        <ele>7.6</ele>
        <time>2020-06-04T10:27:20Z</time>
      </trkpt>
      <trkpt lat="46.85716" lon="-2.12102">
        <ele>7.7</ele>
        <time>2020-06-04T10:27:21Z</time>
      </trkpt>
      <trkpt lat="46.8572" lon="-2.12097">
        <ele>7.8</ele>
        <time>2020-06-04T10:27:22Z</time>
      </trkpt>
      <trkpt lat="46.85724" lon="-2.12094">
        <ele>8</ele>
        <time>2020-06-04T10:27:23Z</time>
      </trkpt>
      <trkpt lat="46.85726" lon="-2.12091">
        <ele>8</ele>
        <time>2020-06-04T10:27:24Z</time>
      </trkpt>
      <trkpt lat="46.85729" lon="-2.12087">
        <ele>8.1</ele>
        <time>2020-06-04T10:27:25Z</time>
      </trkpt>
      <trkpt lat="46.8573" lon="-2.12079">
        <ele>8.2</ele>
        <time>2020-06-04T10:27:26Z</time>
      </trkpt>
      <trkpt lat="46.85732" lon="-2.12077">
        <ele>8.3</ele>
        <time>2020-06-04T10:27:27Z</time>
      </trkpt>
      <trkpt lat="46.85735" lon="-2.12074">
        <ele>8.3</ele>
        <time>2020-06-04T10:27:28Z</time>
      </trkpt>
      <trkpt lat="46.85739" lon="-2.12071">
        <ele>8.4</ele>
        <time>2020-06-04T10:27:29Z</time>
      </trkpt>
      <trkpt lat="46.85742" lon="-2.12068">
        <ele>8.4</ele>
        <time>2020-06-04T10:27:30Z</time>
      </trkpt>
      <trkpt lat="46.85744" lon="-2.12065">
        <ele>8.4</ele>
        <time>2020-06-04T10:27:31Z</time>
      </trkpt>
      <trkpt lat="46.85748" lon="-2.12061">
        <ele>8.4</ele>
        <time>2020-06-04T10:27:32Z</time>
      </trkpt>
      <trkpt lat="46.8575" lon="-2.12058">
        <ele>8.4</ele>
        <time>2020-06-04T10:27:33Z</time>
      </trkpt>
      <trkpt lat="46.85755" lon="-2.12053">
        <ele>8.4</ele>
        <time>2020-06-04T10:27:34Z</time>
      </trkpt>
      <trkpt lat="46.85759" lon="-2.12049">
        <ele>8.4</ele>
        <time>2020-06-04T10:27:35Z</time>
      </trkpt>
      <trkpt lat="46.85763" lon="-2.12047">
        <ele>8.4</ele>
        <time>2020-06-04T10:27:36Z</time>
      </trkpt>
      <trkpt lat="46.85764" lon="-2.12046">
        <ele>8.4</ele>
        <time>2020-06-04T10:27:37Z</time>
      </trkpt>
      <trkpt lat="46.85771" lon="-2.12041">
        <ele>8.4</ele>
        <time>2020-06-04T10:27:38Z</time>
      </trkpt>
      <trkpt lat="46.85777" lon="-2.12038">
        <ele>8.3</ele>
        <time>2020-06-04T10:27:39Z</time>
      </trkpt>
      <trkpt lat="46.85781" lon="-2.12035">
        <ele>8.4</ele>
        <time>2020-06-04T10:27:40Z</time>
      </trkpt>
      <trkpt lat="46.85788" lon="-2.1203">
        <ele>8.4</ele>
        <time>2020-06-04T10:27:41Z</time>
      </trkpt>
      <trkpt lat="46.85793" lon="-2.12023">
        <ele>8.6</ele>
        <time>2020-06-04T10:27:42Z</time>
      </trkpt>
      <trkpt lat="46.85796" lon="-2.12018">
        <ele>8.7</ele>
        <time>2020-06-04T10:27:43Z</time>
      </trkpt>
      <trkpt lat="46.85801" lon="-2.12014">
        <ele>8.8</ele>
        <time>2020-06-04T10:27:44Z</time>
      </trkpt>
      <trkpt lat="46.85804" lon="-2.1201">
        <ele>9</ele>
        <time>2020-06-04T10:27:45Z</time>
      </trkpt>
      <trkpt lat="46.85807" lon="-2.12006">
        <ele>9.1</ele>
        <time>2020-06-04T10:27:46Z</time>
      </trkpt>
      <trkpt lat="46.8581" lon="-2.12003">
        <ele>9.2</ele>
        <time>2020-06-04T10:27:47Z</time>
      </trkpt>
      <trkpt lat="46.85813" lon="-2.11999">
        <ele>9.3</ele>
        <time>2020-06-04T10:27:48Z</time>
      </trkpt>
      <trkpt lat="46.85815" lon="-2.11996">
        <ele>9.5</ele>
        <time>2020-06-04T10:27:49Z</time>
      </trkpt>
      <trkpt lat="46.85819" lon="-2.11992">
        <ele>9.6</ele>
        <time>2020-06-04T10:27:50Z</time>
      </trkpt>
      <trkpt lat="46.85822" lon="-2.11989">
        <ele>9.6</ele>
        <time>2020-06-04T10:27:51Z</time>
      </trkpt>
      <trkpt lat="46.85823" lon="-2.11988">
        <ele>9.7</ele>
        <time>2020-06-04T10:27:52Z</time>
      </trkpt>
      <trkpt lat="46.85826" lon="-2.11985">
        <ele>9.8</ele>
        <time>2020-06-04T10:27:53Z</time>
      </trkpt>
      <trkpt lat="46.85829" lon="-2.11981">
        <ele>9.8</ele>
        <time>2020-06-04T10:27:54Z</time>
      </trkpt>
      <trkpt lat="46.85832" lon="-2.11977">
        <ele>9.9</ele>
        <time>2020-06-04T10:27:55Z</time>
      </trkpt>
      <trkpt lat="46.85835" lon="-2.11973">
        <ele>9.9</ele>
        <time>2020-06-04T10:27:56Z</time>
      </trkpt>
      <trkpt lat="46.85838" lon="-2.11969">
        <ele>10</ele>
        <time>2020-06-04T10:27:57Z</time>
      </trkpt>
      <trkpt lat="46.8584" lon="-2.11966">
        <ele>10</ele>
        <time>2020-06-04T10:27:58Z</time>
      </trkpt>
      <trkpt lat="46.85843" lon="-2.11963">
        <ele>9.8</ele>
        <time>2020-06-04T10:27:59Z</time>
      </trkpt>
      <trkpt lat="46.85846" lon="-2.11959">
        <ele>9.7</ele>
        <time>2020-06-04T10:28:00Z</time>
      </trkpt>
      <trkpt lat="46.85849" lon="-2.11955">
        <ele>9.6</ele>
        <time>2020-06-04T10:28:01Z</time>
      </trkpt>
      <trkpt lat="46.85852" lon="-2.1195">
        <ele>9.5</ele>
        <time>2020-06-04T10:28:02Z</time>
      </trkpt>
      <trkpt lat="46.85856" lon="-2.11944">
        <ele>9.3</ele>
        <time>2020-06-04T10:28:03Z</time>
      </trkpt>
      <trkpt lat="46.85858" lon="-2.11937">
        <ele>9.2</ele>
        <time>2020-06-04T10:28:04Z</time>
      </trkpt>
      <trkpt lat="46.85858" lon="-2.11928">
        <ele>9.1</ele>
        <time>2020-06-04T10:28:05Z</time>
      </trkpt>
      <trkpt lat="46.85858" lon="-2.11919">
        <ele>8.9</ele>
        <time>2020-06-04T10:28:06Z</time>
      </trkpt>
      <trkpt lat="46.85858" lon="-2.11909">
        <ele>8.8</ele>
        <time>2020-06-04T10:28:07Z</time>
      </trkpt>
      <trkpt lat="46.8586" lon="-2.11899">
        <ele>8.6</ele>
        <time>2020-06-04T10:28:08Z</time>
      </trkpt>
      <trkpt lat="46.85864" lon="-2.11891">
        <ele>8.3</ele>
        <time>2020-06-04T10:28:09Z</time>
      </trkpt>
      <trkpt lat="46.85868" lon="-2.11885">
        <ele>8.1</ele>
        <time>2020-06-04T10:28:10Z</time>
      </trkpt>
      <trkpt lat="46.85872" lon="-2.11875">
        <ele>7.7</ele>
        <time>2020-06-04T10:28:11Z</time>
      </trkpt>
      <trkpt lat="46.85877" lon="-2.11867">
        <ele>7.5</ele>
        <time>2020-06-04T10:28:12Z</time>
      </trkpt>
      <trkpt lat="46.85881" lon="-2.11859">
        <ele>7.2</ele>
        <time>2020-06-04T10:28:13Z</time>
      </trkpt>
      <trkpt lat="46.85886" lon="-2.11851">
        <ele>7</ele>
        <time>2020-06-04T10:28:14Z</time>
      </trkpt>
      <trkpt lat="46.85891" lon="-2.11842">
        <ele>6.7</ele>
        <time>2020-06-04T10:28:15Z</time>
      </trkpt>
      <trkpt lat="46.85896" lon="-2.11833">
        <ele>6.6</ele>
        <time>2020-06-04T10:28:16Z</time>
      </trkpt>
      <trkpt lat="46.85901" lon="-2.11824">
        <ele>6.4</ele>
        <time>2020-06-04T10:28:17Z</time>
      </trkpt>
      <trkpt lat="46.85905" lon="-2.11816">
        <ele>6.3</ele>
        <time>2020-06-04T10:28:18Z</time>
      </trkpt>
      <trkpt lat="46.85909" lon="-2.11812">
        <ele>6.3</ele>
        <time>2020-06-04T10:28:19Z</time>
      </trkpt>
      <trkpt lat="46.85914" lon="-2.1181">
        <ele>6.2</ele>
        <time>2020-06-04T10:28:20Z</time>
      </trkpt>
      <trkpt lat="46.85918" lon="-2.1181">
        <ele>6.2</ele>
        <time>2020-06-04T10:28:21Z</time>
      </trkpt>
      <trkpt lat="46.85923" lon="-2.11812">
        <ele>6.2</ele>
        <time>2020-06-04T10:28:22Z</time>
      </trkpt>
      <trkpt lat="46.85927" lon="-2.11814">
        <ele>6.1</ele>
        <time>2020-06-04T10:28:23Z</time>
      </trkpt>
      <trkpt lat="46.85931" lon="-2.11817">
        <ele>6.1</ele>
        <time>2020-06-04T10:28:24Z</time>
      </trkpt>
      <trkpt lat="46.85935" lon="-2.1182">
        <ele>6.1</ele>
        <time>2020-06-04T10:28:25Z</time>
      </trkpt>
      <trkpt lat="46.85938" lon="-2.11826">
        <ele>6.1</ele>
        <time>2020-06-04T10:28:26Z</time>
      </trkpt>
      <trkpt lat="46.85942" lon="-2.11831">
        <ele>6</ele>
        <time>2020-06-04T10:28:27Z</time>
      </trkpt>
      <trkpt lat="46.85945" lon="-2.11835">
        <ele>6</ele>
        <time>2020-06-04T10:28:28Z</time>
      </trkpt>
      <trkpt lat="46.85948" lon="-2.11841">
        <ele>6</ele>
        <time>2020-06-04T10:28:29Z</time>
      </trkpt>
      <trkpt lat="46.85951" lon="-2.11847">
        <ele>5.9</ele>
        <time>2020-06-04T10:28:30Z</time>
      </trkpt>
      <trkpt lat="46.85956" lon="-2.11854">
        <ele>5.9</ele>
        <time>2020-06-04T10:28:31Z</time>
      </trkpt>
      <trkpt lat="46.8596" lon="-2.1186">
        <ele>5.8</ele>
        <time>2020-06-04T10:28:32Z</time>
      </trkpt>
      <trkpt lat="46.85964" lon="-2.11866">
        <ele>5.8</ele>
        <time>2020-06-04T10:28:33Z</time>
      </trkpt>
      <trkpt lat="46.85968" lon="-2.1187">
        <ele>5.8</ele>
        <time>2020-06-04T10:28:34Z</time>
      </trkpt>
      <trkpt lat="46.85972" lon="-2.11874">
        <ele>5.8</ele>
        <time>2020-06-04T10:28:35Z</time>
      </trkpt>
      <trkpt lat="46.85976" lon="-2.11878">
        <ele>5.8</ele>
        <time>2020-06-04T10:28:36Z</time>
      </trkpt>
      <trkpt lat="46.85981" lon="-2.11883">
        <ele>5.8</ele>
        <time>2020-06-04T10:28:37Z</time>
      </trkpt>
      <trkpt lat="46.85986" lon="-2.11886">
        <ele>5.8</ele>
        <time>2020-06-04T10:28:38Z</time>
      </trkpt>
      <trkpt lat="46.85991" lon="-2.11891">
        <ele>5.8</ele>
        <time>2020-06-04T10:28:39Z</time>
      </trkpt>
      <trkpt lat="46.85995" lon="-2.11894">
        <ele>5.8</ele>
        <time>2020-06-04T10:28:40Z</time>
      </trkpt>
      <trkpt lat="46.85999" lon="-2.11895">
        <ele>5.8</ele>
        <time>2020-06-04T10:28:41Z</time>
      </trkpt>
      <trkpt lat="46.86003" lon="-2.11897">
        <ele>5.8</ele>
        <time>2020-06-04T10:28:42Z</time>
      </trkpt>
      <trkpt lat="46.86007" lon="-2.119">
        <ele>5.8</ele>
        <time>2020-06-04T10:28:43Z</time>
      </trkpt>
      <trkpt lat="46.8601" lon="-2.11903">
        <ele>5.7</ele>
        <time>2020-06-04T10:28:44Z</time>
      </trkpt>
      <trkpt lat="46.86014" lon="-2.11906">
        <ele>5.7</ele>
        <time>2020-06-04T10:28:45Z</time>
      </trkpt>
      <trkpt lat="46.86018" lon="-2.11911">
        <ele>5.7</ele>
        <time>2020-06-04T10:28:46Z</time>
      </trkpt>
      <trkpt lat="46.86021" lon="-2.11915">
        <ele>5.7</ele>
        <time>2020-06-04T10:28:47Z</time>
      </trkpt>
      <trkpt lat="46.86025" lon="-2.11921">
        <ele>5.6</ele>
        <time>2020-06-04T10:28:48Z</time>
      </trkpt>
      <trkpt lat="46.86028" lon="-2.11926">
        <ele>5.6</ele>
        <time>2020-06-04T10:28:49Z</time>
      </trkpt>
      <trkpt lat="46.86031" lon="-2.1193">
        <ele>5.6</ele>
        <time>2020-06-04T10:28:50Z</time>
      </trkpt>
      <trkpt lat="46.86035" lon="-2.11935">
        <ele>5.5</ele>
        <time>2020-06-04T10:28:51Z</time>
      </trkpt>
      <trkpt lat="46.86038" lon="-2.11939">
        <ele>5.5</ele>
        <time>2020-06-04T10:28:52Z</time>
      </trkpt>
      <trkpt lat="46.86041" lon="-2.11943">
        <ele>5.5</ele>
        <time>2020-06-04T10:28:53Z</time>
      </trkpt>
      <trkpt lat="46.86046" lon="-2.11948">
        <ele>5.4</ele>
        <time>2020-06-04T10:28:54Z</time>
      </trkpt>
      <trkpt lat="46.86051" lon="-2.11953">
        <ele>5.4</ele>
        <time>2020-06-04T10:28:55Z</time>
      </trkpt>
      <trkpt lat="46.86054" lon="-2.11957">
        <ele>5.4</ele>
        <time>2020-06-04T10:28:56Z</time>
      </trkpt>
      <trkpt lat="46.86057" lon="-2.11961">
        <ele>5.4</ele>
        <time>2020-06-04T10:28:57Z</time>
      </trkpt>
      <trkpt lat="46.8606" lon="-2.11965">
        <ele>5.4</ele>
        <time>2020-06-04T10:28:58Z</time>
      </trkpt>
      <trkpt lat="46.86062" lon="-2.11969">
        <ele>5.5</ele>
        <time>2020-06-04T10:28:59Z</time>
      </trkpt>
      <trkpt lat="46.86066" lon="-2.11972">
        <ele>5.5</ele>
        <time>2020-06-04T10:29:00Z</time>
      </trkpt>
      <trkpt lat="46.86071" lon="-2.11975">
        <ele>5.5</ele>
        <time>2020-06-04T10:29:01Z</time>
      </trkpt>
      <trkpt lat="46.86076" lon="-2.11979">
        <ele>5.5</ele>
        <time>2020-06-04T10:29:02Z</time>
      </trkpt>
      <trkpt lat="46.8608" lon="-2.11983">
        <ele>5.5</ele>
        <time>2020-06-04T10:29:03Z</time>
      </trkpt>
      <trkpt lat="46.86084" lon="-2.11987">
        <ele>5.5</ele>
        <time>2020-06-04T10:29:04Z</time>
      </trkpt>
      <trkpt lat="46.86087" lon="-2.11991">
        <ele>5.5</ele>
        <time>2020-06-04T10:29:05Z</time>
      </trkpt>
      <trkpt lat="46.8609" lon="-2.11995">
        <ele>5.5</ele>
        <time>2020-06-04T10:29:06Z</time>
      </trkpt>
      <trkpt lat="46.86093" lon="-2.12001">
        <ele>5.6</ele>
        <time>2020-06-04T10:29:07Z</time>
      </trkpt>
      <trkpt lat="46.86096" lon="-2.12006">
        <ele>5.6</ele>
        <time>2020-06-04T10:29:08Z</time>
      </trkpt>
      <trkpt lat="46.86098" lon="-2.1201">
        <ele>5.7</ele>
        <time>2020-06-04T10:29:09Z</time>
      </trkpt>
      <trkpt lat="46.86103" lon="-2.12015">
        <ele>5.7</ele>
        <time>2020-06-04T10:29:10Z</time>
      </trkpt>
      <trkpt lat="46.86107" lon="-2.12017">
        <ele>5.7</ele>
        <time>2020-06-04T10:29:11Z</time>
      </trkpt>
      <trkpt lat="46.86111" lon="-2.12017">
        <ele>5.8</ele>
        <time>2020-06-04T10:29:12Z</time>
      </trkpt>
      <trkpt lat="46.86114" lon="-2.1202">
        <ele>5.8</ele>
        <time>2020-06-04T10:29:13Z</time>
      </trkpt>
      <trkpt lat="46.86119" lon="-2.12021">
        <ele>5.9</ele>
        <time>2020-06-04T10:29:14Z</time>
      </trkpt>
      <trkpt lat="46.86123" lon="-2.12022">
        <ele>5.9</ele>
        <time>2020-06-04T10:29:15Z</time>
      </trkpt>
      <trkpt lat="46.86126" lon="-2.12023">
        <ele>5.9</ele>
        <time>2020-06-04T10:29:16Z</time>
      </trkpt>
      <trkpt lat="46.86131" lon="-2.12024">
        <ele>6</ele>
        <time>2020-06-04T10:29:17Z</time>
      </trkpt>
      <trkpt lat="46.86135" lon="-2.12025">
        <ele>6</ele>
        <time>2020-06-04T10:29:18Z</time>
      </trkpt>
      <trkpt lat="46.86139" lon="-2.12026">
        <ele>6</ele>
        <time>2020-06-04T10:29:19Z</time>
      </trkpt>
      <trkpt lat="46.86142" lon="-2.12027">
        <ele>6</ele>
        <time>2020-06-04T10:29:20Z</time>
      </trkpt>
      <trkpt lat="46.86145" lon="-2.12028">
        <ele>6.1</ele>
        <time>2020-06-04T10:29:21Z</time>
      </trkpt>
      <trkpt lat="46.86149" lon="-2.12029">
        <ele>6.1</ele>
        <time>2020-06-04T10:29:22Z</time>
      </trkpt>
      <trkpt lat="46.86153" lon="-2.1203">
        <ele>6.1</ele>
        <time>2020-06-04T10:29:23Z</time>
      </trkpt>
      <trkpt lat="46.86157" lon="-2.12031">
        <ele>6.1</ele>
        <time>2020-06-04T10:29:24Z</time>
      </trkpt>
      <trkpt lat="46.86165" lon="-2.12031">
        <ele>6.2</ele>
        <time>2020-06-04T10:29:25Z</time>
      </trkpt>
      <trkpt lat="46.86171" lon="-2.12033">
        <ele>6.2</ele>
        <time>2020-06-04T10:29:26Z</time>
      </trkpt>
      <trkpt lat="46.86177" lon="-2.12035">
        <ele>6.3</ele>
        <time>2020-06-04T10:29:27Z</time>
      </trkpt>
      <trkpt lat="46.86183" lon="-2.12036">
        <ele>6.5</ele>
        <time>2020-06-04T10:29:28Z</time>
      </trkpt>
      <trkpt lat="46.86188" lon="-2.12038">
        <ele>6.6</ele>
        <time>2020-06-04T10:29:29Z</time>
      </trkpt>
      <trkpt lat="46.86192" lon="-2.12039">
        <ele>6.8</ele>
        <time>2020-06-04T10:29:30Z</time>
      </trkpt>
      <trkpt lat="46.86196" lon="-2.12041">
        <ele>7</ele>
        <time>2020-06-04T10:29:31Z</time>
      </trkpt>
      <trkpt lat="46.86201" lon="-2.12042">
        <ele>7.1</ele>
        <time>2020-06-04T10:29:32Z</time>
      </trkpt>
      <trkpt lat="46.86206" lon="-2.12044">
        <ele>7.3</ele>
        <time>2020-06-04T10:29:33Z</time>
      </trkpt>
      <trkpt lat="46.86209" lon="-2.12047">
        <ele>7.5</ele>
        <time>2020-06-04T10:29:34Z</time>
      </trkpt>
      <trkpt lat="46.86212" lon="-2.12051">
        <ele>7.6</ele>
        <time>2020-06-04T10:29:35Z</time>
      </trkpt>
      <trkpt lat="46.86214" lon="-2.12055">
        <ele>7.7</ele>
        <time>2020-06-04T10:29:36Z</time>
      </trkpt>
      <trkpt lat="46.86217" lon="-2.12058">
        <ele>7.8</ele>
        <time>2020-06-04T10:29:37Z</time>
      </trkpt>
      <trkpt lat="46.86219" lon="-2.12062">
        <ele>7.8</ele>
        <time>2020-06-04T10:29:38Z</time>
      </trkpt>
      <trkpt lat="46.86221" lon="-2.12067">
        <ele>7.9</ele>
        <time>2020-06-04T10:29:39Z</time>
      </trkpt>
      <trkpt lat="46.86222" lon="-2.12071">
        <ele>7.9</ele>
        <time>2020-06-04T10:29:40Z</time>
      </trkpt>
      <trkpt lat="46.86223" lon="-2.12077">
        <ele>7.9</ele>
        <time>2020-06-04T10:29:41Z</time>
      </trkpt>
      <trkpt lat="46.86224" lon="-2.12082">
        <ele>7.9</ele>
        <time>2020-06-04T10:29:42Z</time>
      </trkpt>
      <trkpt lat="46.86224" lon="-2.12083">
        <ele>7.9</ele>
        <time>2020-06-04T10:29:43Z</time>
      </trkpt>
      <trkpt lat="46.86225" lon="-2.1209">
        <ele>7.8</ele>
        <time>2020-06-04T10:29:44Z</time>
      </trkpt>
      <trkpt lat="46.86227" lon="-2.12096">
        <ele>7.8</ele>
        <time>2020-06-04T10:29:45Z</time>
      </trkpt>
      <trkpt lat="46.86228" lon="-2.12102">
        <ele>7.7</ele>
        <time>2020-06-04T10:29:46Z</time>
      </trkpt>
      <trkpt lat="46.86228" lon="-2.12108">
        <ele>7.7</ele>
        <time>2020-06-04T10:29:47Z</time>
      </trkpt>
      <trkpt lat="46.86225" lon="-2.12116">
        <ele>7.6</ele>
        <time>2020-06-04T10:29:48Z</time>
      </trkpt>
      <trkpt lat="46.86224" lon="-2.12124">
        <ele>7.5</ele>
        <time>2020-06-04T10:29:49Z</time>
      </trkpt>
      <trkpt lat="46.86223" lon="-2.12133">
        <ele>7.4</ele>
        <time>2020-06-04T10:29:50Z</time>
      </trkpt>
      <trkpt lat="46.86221" lon="-2.12143">
        <ele>7.3</ele>
        <time>2020-06-04T10:29:51Z</time>
      </trkpt>
      <trkpt lat="46.8622" lon="-2.12148">
        <ele>7.2</ele>
        <time>2020-06-04T10:29:52Z</time>
      </trkpt>
      <trkpt lat="46.86217" lon="-2.12152">
        <ele>7.1</ele>
        <time>2020-06-04T10:29:53Z</time>
      </trkpt>
      <trkpt lat="46.86215" lon="-2.12156">
        <ele>7.1</ele>
        <time>2020-06-04T10:29:54Z</time>
      </trkpt>
      <trkpt lat="46.86214" lon="-2.1216">
        <ele>7</ele>
        <time>2020-06-04T10:29:55Z</time>
      </trkpt>
      <trkpt lat="46.86214" lon="-2.12165">
        <ele>7</ele>
        <time>2020-06-04T10:29:56Z</time>
      </trkpt>
      <trkpt lat="46.86212" lon="-2.12171">
        <ele>6.9</ele>
        <time>2020-06-04T10:29:57Z</time>
      </trkpt>
      <trkpt lat="46.86211" lon="-2.12177">
        <ele>6.8</ele>
        <time>2020-06-04T10:29:58Z</time>
      </trkpt>
      <trkpt lat="46.86211" lon="-2.12184">
        <ele>6.7</ele>
        <time>2020-06-04T10:29:59Z</time>
      </trkpt>
      <trkpt lat="46.86213" lon="-2.12189">
        <ele>6.6</ele>
        <time>2020-06-04T10:30:00Z</time>
      </trkpt>
      <trkpt lat="46.86215" lon="-2.12195">
        <ele>6.5</ele>
        <time>2020-06-04T10:30:01Z</time>
      </trkpt>
      <trkpt lat="46.86218" lon="-2.12199">
        <ele>6.5</ele>
        <time>2020-06-04T10:30:02Z</time>
      </trkpt>
      <trkpt lat="46.8622" lon="-2.12202">
        <ele>6.4</ele>
        <time>2020-06-04T10:30:03Z</time>
      </trkpt>
      <trkpt lat="46.86223" lon="-2.12206">
        <ele>6.4</ele>
        <time>2020-06-04T10:30:04Z</time>
      </trkpt>
      <trkpt lat="46.86227" lon="-2.12208">
        <ele>6.3</ele>
        <time>2020-06-04T10:30:05Z</time>
      </trkpt>
      <trkpt lat="46.8623" lon="-2.12211">
        <ele>6.3</ele>
        <time>2020-06-04T10:30:06Z</time>
      </trkpt>
      <trkpt lat="46.86234" lon="-2.12216">
        <ele>6.3</ele>
        <time>2020-06-04T10:30:07Z</time>
      </trkpt>
      <trkpt lat="46.86238" lon="-2.12221">
        <ele>6.3</ele>
        <time>2020-06-04T10:30:08Z</time>
      </trkpt>
      <trkpt lat="46.86242" lon="-2.12228">
        <ele>6.3</ele>
        <time>2020-06-04T10:30:09Z</time>
      </trkpt>
      <trkpt lat="46.86246" lon="-2.12234">
        <ele>6.3</ele>
        <time>2020-06-04T10:30:10Z</time>
      </trkpt>
      <trkpt lat="46.86249" lon="-2.12238">
        <ele>6.3</ele>
        <time>2020-06-04T10:30:11Z</time>
      </trkpt>
      <trkpt lat="46.86251" lon="-2.12242">
        <ele>6.3</ele>
        <time>2020-06-04T10:30:12Z</time>
      </trkpt>
      <trkpt lat="46.86254" lon="-2.12247">
        <ele>6.3</ele>
        <time>2020-06-04T10:30:13Z</time>
      </trkpt>
      <trkpt lat="46.86257" lon="-2.1225">
        <ele>6.3</ele>
        <time>2020-06-04T10:30:14Z</time>
      </trkpt>
      <trkpt lat="46.8626" lon="-2.12257">
        <ele>6.2</ele>
        <time>2020-06-04T10:30:15Z</time>
      </trkpt>
      <trkpt lat="46.86264" lon="-2.12265">
        <ele>6.2</ele>
        <time>2020-06-04T10:30:16Z</time>
      </trkpt>
      <trkpt lat="46.86266" lon="-2.12274">
        <ele>6.2</ele>
        <time>2020-06-04T10:30:17Z</time>
      </trkpt>
      <trkpt lat="46.86268" lon="-2.12281">
        <ele>6.1</ele>
        <time>2020-06-04T10:30:18Z</time>
      </trkpt>
      <trkpt lat="46.86269" lon="-2.12288">
        <ele>6.1</ele>
        <time>2020-06-04T10:30:19Z</time>
      </trkpt>
      <trkpt lat="46.86271" lon="-2.12295">
        <ele>6.1</ele>
        <time>2020-06-04T10:30:20Z</time>
      </trkpt>
      <trkpt lat="46.86272" lon="-2.12302">
        <ele>6</ele>
        <time>2020-06-04T10:30:21Z</time>
      </trkpt>
      <trkpt lat="46.86274" lon="-2.12309">
        <ele>6</ele>
        <time>2020-06-04T10:30:22Z</time>
      </trkpt>
      <trkpt lat="46.86276" lon="-2.12317">
        <ele>6</ele>
        <time>2020-06-04T10:30:23Z</time>
      </trkpt>
      <trkpt lat="46.86277" lon="-2.12323">
        <ele>5.9</ele>
        <time>2020-06-04T10:30:24Z</time>
      </trkpt>
      <trkpt lat="46.8628" lon="-2.1233">
        <ele>5.9</ele>
        <time>2020-06-04T10:30:25Z</time>
      </trkpt>
      <trkpt lat="46.86283" lon="-2.12337">
        <ele>5.9</ele>
        <time>2020-06-04T10:30:26Z</time>
      </trkpt>
      <trkpt lat="46.86286" lon="-2.12345">
        <ele>6</ele>
        <time>2020-06-04T10:30:27Z</time>
      </trkpt>
      <trkpt lat="46.86288" lon="-2.12352">
        <ele>6</ele>
        <time>2020-06-04T10:30:28Z</time>
      </trkpt>
      <trkpt lat="46.8629" lon="-2.12359">
        <ele>6.1</ele>
        <time>2020-06-04T10:30:29Z</time>
      </trkpt>
      <trkpt lat="46.86291" lon="-2.12365">
        <ele>6.1</ele>
        <time>2020-06-04T10:30:30Z</time>
      </trkpt>
      <trkpt lat="46.86294" lon="-2.12372">
        <ele>6.2</ele>
        <time>2020-06-04T10:30:31Z</time>
      </trkpt>
      <trkpt lat="46.86297" lon="-2.12378">
        <ele>6.3</ele>
        <time>2020-06-04T10:30:32Z</time>
      </trkpt>
      <trkpt lat="46.86299" lon="-2.12383">
        <ele>6.4</ele>
        <time>2020-06-04T10:30:33Z</time>
      </trkpt>
      <trkpt lat="46.86301" lon="-2.12387">
        <ele>6.5</ele>
        <time>2020-06-04T10:30:34Z</time>
      </trkpt>
      <trkpt lat="46.86302" lon="-2.12391">
        <ele>6.5</ele>
        <time>2020-06-04T10:30:35Z</time>
      </trkpt>
      <trkpt lat="46.86304" lon="-2.12394">
        <ele>6.6</ele>
        <time>2020-06-04T10:30:36Z</time>
      </trkpt>
      <trkpt lat="46.86305" lon="-2.12398">
        <ele>6.6</ele>
        <time>2020-06-04T10:30:37Z</time>
      </trkpt>
      <trkpt lat="46.86308" lon="-2.12402">
        <ele>6.7</ele>
        <time>2020-06-04T10:30:38Z</time>
      </trkpt>
      <trkpt lat="46.86311" lon="-2.12406">
        <ele>6.8</ele>
        <time>2020-06-04T10:30:39Z</time>
      </trkpt>
      <trkpt lat="46.86314" lon="-2.12411">
        <ele>6.8</ele>
        <time>2020-06-04T10:30:40Z</time>
      </trkpt>
      <trkpt lat="46.86318" lon="-2.12417">
        <ele>6.8</ele>
        <time>2020-06-04T10:30:41Z</time>
      </trkpt>
      <trkpt lat="46.86321" lon="-2.12423">
        <ele>6.8</ele>
        <time>2020-06-04T10:30:42Z</time>
      </trkpt>
      <trkpt lat="46.86323" lon="-2.12429">
        <ele>6.7</ele>
        <time>2020-06-04T10:30:43Z</time>
      </trkpt>
      <trkpt lat="46.86326" lon="-2.12435">
        <ele>6.7</ele>
        <time>2020-06-04T10:30:44Z</time>
      </trkpt>
      <trkpt lat="46.86328" lon="-2.12442">
        <ele>6.6</ele>
        <time>2020-06-04T10:30:45Z</time>
      </trkpt>
      <trkpt lat="46.8633" lon="-2.12447">
        <ele>6.5</ele>
        <time>2020-06-04T10:30:46Z</time>
      </trkpt>
      <trkpt lat="46.86332" lon="-2.12453">
        <ele>6.4</ele>
        <time>2020-06-04T10:30:47Z</time>
      </trkpt>
      <trkpt lat="46.86335" lon="-2.1246">
        <ele>6.2</ele>
        <time>2020-06-04T10:30:48Z</time>
      </trkpt>
      <trkpt lat="46.86338" lon="-2.12466">
        <ele>6.1</ele>
        <time>2020-06-04T10:30:49Z</time>
      </trkpt>
      <trkpt lat="46.8634" lon="-2.12471">
        <ele>5.9</ele>
        <time>2020-06-04T10:30:50Z</time>
      </trkpt>
      <trkpt lat="46.86343" lon="-2.12476">
        <ele>5.8</ele>
        <time>2020-06-04T10:30:51Z</time>
      </trkpt>
      <trkpt lat="46.86345" lon="-2.12482">
        <ele>5.7</ele>
        <time>2020-06-04T10:30:52Z</time>
      </trkpt>
      <trkpt lat="46.86348" lon="-2.12489">
        <ele>5.6</ele>
        <time>2020-06-04T10:30:53Z</time>
      </trkpt>
      <trkpt lat="46.86351" lon="-2.12498">
        <ele>5.6</ele>
        <time>2020-06-04T10:30:54Z</time>
      </trkpt>
      <trkpt lat="46.86353" lon="-2.12503">
        <ele>5.6</ele>
        <time>2020-06-04T10:30:55Z</time>
      </trkpt>
      <trkpt lat="46.86355" lon="-2.12505">
        <ele>5.5</ele>
        <time>2020-06-04T10:30:56Z</time>
      </trkpt>
      <trkpt lat="46.86359" lon="-2.12505">
        <ele>5.5</ele>
        <time>2020-06-04T10:30:57Z</time>
      </trkpt>
      <trkpt lat="46.86361" lon="-2.12503">
        <ele>5.5</ele>
        <time>2020-06-04T10:30:58Z</time>
      </trkpt>
      <trkpt lat="46.86365" lon="-2.12502">
        <ele>5.5</ele>
        <time>2020-06-04T10:30:59Z</time>
      </trkpt>
      <trkpt lat="46.86366" lon="-2.12501">
        <ele>5.5</ele>
        <time>2020-06-04T10:31:00Z</time>
      </trkpt>
      <trkpt lat="46.86369" lon="-2.12501">
        <ele>5.4</ele>
        <time>2020-06-04T10:31:01Z</time>
      </trkpt>
      <trkpt lat="46.86371" lon="-2.12502">
        <ele>5.4</ele>
        <time>2020-06-04T10:31:02Z</time>
      </trkpt>
      <trkpt lat="46.86372" lon="-2.12502">
        <ele>5.4</ele>
        <time>2020-06-04T10:31:03Z</time>
      </trkpt>
      <trkpt lat="46.86376" lon="-2.12502">
        <ele>5.4</ele>
        <time>2020-06-04T10:31:04Z</time>
      </trkpt>
      <trkpt lat="46.86377" lon="-2.12502">
        <ele>5.4</ele>
        <time>2020-06-04T10:31:05Z</time>
      </trkpt>
      <trkpt lat="46.86381" lon="-2.12501">
        <ele>5.4</ele>
        <time>2020-06-04T10:31:06Z</time>
      </trkpt>
      <trkpt lat="46.86382" lon="-2.125">
        <ele>5.4</ele>
        <time>2020-06-04T10:31:07Z</time>
      </trkpt>
      <trkpt lat="46.86385" lon="-2.12498">
        <ele>5.3</ele>
        <time>2020-06-04T10:31:08Z</time>
      </trkpt>
      <trkpt lat="46.86388" lon="-2.12495">
        <ele>5.3</ele>
        <time>2020-06-04T10:31:09Z</time>
      </trkpt>
      <trkpt lat="46.86388" lon="-2.12495">
        <ele>5.3</ele>
        <time>2020-06-04T10:31:10Z</time>
      </trkpt>
      <trkpt lat="46.86392" lon="-2.12495">
        <ele>5.3</ele>
        <time>2020-06-04T10:31:11Z</time>
      </trkpt>
      <trkpt lat="46.86394" lon="-2.12495">
        <ele>5.3</ele>
        <time>2020-06-04T10:31:12Z</time>
      </trkpt>
      <trkpt lat="46.86398" lon="-2.12494">
        <ele>5.3</ele>
        <time>2020-06-04T10:31:13Z</time>
      </trkpt>
      <trkpt lat="46.86402" lon="-2.12494">
        <ele>5.2</ele>
        <time>2020-06-04T10:31:14Z</time>
      </trkpt>
      <trkpt lat="46.86407" lon="-2.12493">
        <ele>5.2</ele>
        <time>2020-06-04T10:31:15Z</time>
      </trkpt>
      <trkpt lat="46.8641" lon="-2.12494">
        <ele>5.2</ele>
        <time>2020-06-04T10:31:16Z</time>
      </trkpt>
      <trkpt lat="46.86414" lon="-2.12496">
        <ele>5.2</ele>
        <time>2020-06-04T10:31:17Z</time>
      </trkpt>
      <trkpt lat="46.86417" lon="-2.12496">
        <ele>5.2</ele>
        <time>2020-06-04T10:31:18Z</time>
      </trkpt>
      <trkpt lat="46.86421" lon="-2.12496">
        <ele>5.2</ele>
        <time>2020-06-04T10:31:19Z</time>
      </trkpt>
      <trkpt lat="46.86424" lon="-2.12496">
        <ele>5.2</ele>
        <time>2020-06-04T10:31:20Z</time>
      </trkpt>
      <trkpt lat="46.86428" lon="-2.12498">
        <ele>5.2</ele>
        <time>2020-06-04T10:31:21Z</time>
      </trkpt>
      <trkpt lat="46.86432" lon="-2.125">
        <ele>5.2</ele>
        <time>2020-06-04T10:31:22Z</time>
      </trkpt>
      <trkpt lat="46.86436" lon="-2.12502">
        <ele>5.2</ele>
        <time>2020-06-04T10:31:23Z</time>
      </trkpt>
      <trkpt lat="46.8644" lon="-2.12503">
        <ele>5.2</ele>
        <time>2020-06-04T10:31:24Z</time>
      </trkpt>
      <trkpt lat="46.86445" lon="-2.12503">
        <ele>5.2</ele>
        <time>2020-06-04T10:31:25Z</time>
      </trkpt>
      <trkpt lat="46.8645" lon="-2.12502">
        <ele>5.2</ele>
        <time>2020-06-04T10:31:26Z</time>
      </trkpt>
      <trkpt lat="46.86453" lon="-2.12501">
        <ele>5.2</ele>
        <time>2020-06-04T10:31:27Z</time>
      </trkpt>
      <trkpt lat="46.86458" lon="-2.12497">
        <ele>5.3</ele>
        <time>2020-06-04T10:31:28Z</time>
      </trkpt>
      <trkpt lat="46.86461" lon="-2.12492">
        <ele>5.3</ele>
        <time>2020-06-04T10:31:29Z</time>
      </trkpt>
      <trkpt lat="46.86466" lon="-2.12485">
        <ele>5.3</ele>
        <time>2020-06-04T10:31:30Z</time>
      </trkpt>
      <trkpt lat="46.8647" lon="-2.1248">
        <ele>5.3</ele>
        <time>2020-06-04T10:31:31Z</time>
      </trkpt>
      <trkpt lat="46.86474" lon="-2.12472">
        <ele>5.3</ele>
        <time>2020-06-04T10:31:32Z</time>
      </trkpt>
      <trkpt lat="46.86477" lon="-2.12467">
        <ele>5.4</ele>
        <time>2020-06-04T10:31:33Z</time>
      </trkpt>
      <trkpt lat="46.86482" lon="-2.12461">
        <ele>5.4</ele>
        <time>2020-06-04T10:31:34Z</time>
      </trkpt>
      <trkpt lat="46.86485" lon="-2.12457">
        <ele>5.4</ele>
        <time>2020-06-04T10:31:35Z</time>
      </trkpt>
      <trkpt lat="46.8649" lon="-2.12453">
        <ele>5.4</ele>
        <time>2020-06-04T10:31:36Z</time>
      </trkpt>
      <trkpt lat="46.86494" lon="-2.1245">
        <ele>5.4</ele>
        <time>2020-06-04T10:31:37Z</time>
      </trkpt>
      <trkpt lat="46.86498" lon="-2.1245">
        <ele>5.5</ele>
        <time>2020-06-04T10:31:38Z</time>
      </trkpt>
      <trkpt lat="46.86503" lon="-2.1245">
        <ele>5.5</ele>
        <time>2020-06-04T10:31:39Z</time>
      </trkpt>
      <trkpt lat="46.86507" lon="-2.1245">
        <ele>5.6</ele>
        <time>2020-06-04T10:31:40Z</time>
      </trkpt>
      <trkpt lat="46.86511" lon="-2.1245">
        <ele>5.6</ele>
        <time>2020-06-04T10:31:41Z</time>
      </trkpt>
      <trkpt lat="46.86515" lon="-2.12451">
        <ele>5.7</ele>
        <time>2020-06-04T10:31:42Z</time>
      </trkpt>
      <trkpt lat="46.86519" lon="-2.12452">
        <ele>5.7</ele>
        <time>2020-06-04T10:31:43Z</time>
      </trkpt>
      <trkpt lat="46.86522" lon="-2.12452">
        <ele>5.8</ele>
        <time>2020-06-04T10:31:44Z</time>
      </trkpt>
      <trkpt lat="46.86525" lon="-2.12452">
        <ele>5.8</ele>
        <time>2020-06-04T10:31:45Z</time>
      </trkpt>
      <trkpt lat="46.86529" lon="-2.1245">
        <ele>5.9</ele>
        <time>2020-06-04T10:31:46Z</time>
      </trkpt>
      <trkpt lat="46.86532" lon="-2.12448">
        <ele>5.9</ele>
        <time>2020-06-04T10:31:47Z</time>
      </trkpt>
      <trkpt lat="46.86536" lon="-2.12446">
        <ele>5.9</ele>
        <time>2020-06-04T10:31:48Z</time>
      </trkpt>
      <trkpt lat="46.86539" lon="-2.12444">
        <ele>6</ele>
        <time>2020-06-04T10:31:49Z</time>
      </trkpt>
      <trkpt lat="46.86543" lon="-2.12442">
        <ele>6</ele>
        <time>2020-06-04T10:31:50Z</time>
      </trkpt>
      <trkpt lat="46.86547" lon="-2.12438">
        <ele>6</ele>
        <time>2020-06-04T10:31:51Z</time>
      </trkpt>
      <trkpt lat="46.86552" lon="-2.12435">
        <ele>6.1</ele>
        <time>2020-06-04T10:31:52Z</time>
      </trkpt>
      <trkpt lat="46.86556" lon="-2.12432">
        <ele>6.1</ele>
        <time>2020-06-04T10:31:53Z</time>
      </trkpt>
      <trkpt lat="46.8656" lon="-2.12429">
        <ele>6.2</ele>
        <time>2020-06-04T10:31:54Z</time>
      </trkpt>
      <trkpt lat="46.86564" lon="-2.12426">
        <ele>6.3</ele>
        <time>2020-06-04T10:31:55Z</time>
      </trkpt>
      <trkpt lat="46.86568" lon="-2.12423">
        <ele>6.4</ele>
        <time>2020-06-04T10:31:56Z</time>
      </trkpt>
      <trkpt lat="46.86573" lon="-2.12421">
        <ele>6.5</ele>
        <time>2020-06-04T10:31:57Z</time>
      </trkpt>
      <trkpt lat="46.86577" lon="-2.12419">
        <ele>6.6</ele>
        <time>2020-06-04T10:31:58Z</time>
      </trkpt>
      <trkpt lat="46.86581" lon="-2.12416">
        <ele>6.7</ele>
        <time>2020-06-04T10:31:59Z</time>
      </trkpt>
      <trkpt lat="46.86584" lon="-2.12413">
        <ele>6.8</ele>
        <time>2020-06-04T10:32:00Z</time>
      </trkpt>
      <trkpt lat="46.86588" lon="-2.12412">
        <ele>6.8</ele>
        <time>2020-06-04T10:32:01Z</time>
      </trkpt>
      <trkpt lat="46.86591" lon="-2.1241">
        <ele>6.9</ele>
        <time>2020-06-04T10:32:02Z</time>
      </trkpt>
      <trkpt lat="46.86595" lon="-2.12411">
        <ele>7</ele>
        <time>2020-06-04T10:32:03Z</time>
      </trkpt>
      <trkpt lat="46.86598" lon="-2.12409">
        <ele>7</ele>
        <time>2020-06-04T10:32:04Z</time>
      </trkpt>
      <trkpt lat="46.866" lon="-2.12408">
        <ele>7</ele>
        <time>2020-06-04T10:32:05Z</time>
      </trkpt>
      <trkpt lat="46.86603" lon="-2.12405">
        <ele>7.1</ele>
        <time>2020-06-04T10:32:06Z</time>
      </trkpt>
      <trkpt lat="46.86605" lon="-2.12405">
        <ele>7.1</ele>
        <time>2020-06-04T10:32:07Z</time>
      </trkpt>
      <trkpt lat="46.86608" lon="-2.12405">
        <ele>7.1</ele>
        <time>2020-06-04T10:32:08Z</time>
      </trkpt>
      <trkpt lat="46.86613" lon="-2.12403">
        <ele>7</ele>
        <time>2020-06-04T10:32:09Z</time>
      </trkpt>
      <trkpt lat="46.86616" lon="-2.124">
        <ele>7</ele>
        <time>2020-06-04T10:32:10Z</time>
      </trkpt>
      <trkpt lat="46.8662" lon="-2.12397">
        <ele>7</ele>
        <time>2020-06-04T10:32:11Z</time>
      </trkpt>
      <trkpt lat="46.86624" lon="-2.12394">
        <ele>6.9</ele>
        <time>2020-06-04T10:32:12Z</time>
      </trkpt>
      <trkpt lat="46.86629" lon="-2.12391">
        <ele>6.8</ele>
        <time>2020-06-04T10:32:13Z</time>
      </trkpt>
      <trkpt lat="46.86634" lon="-2.12388">
        <ele>6.7</ele>
        <time>2020-06-04T10:32:14Z</time>
      </trkpt>
      <trkpt lat="46.8664" lon="-2.12386">
        <ele>6.6</ele>
        <time>2020-06-04T10:32:15Z</time>
      </trkpt>
      <trkpt lat="46.86646" lon="-2.12386">
        <ele>6.4</ele>
        <time>2020-06-04T10:32:16Z</time>
      </trkpt>
      <trkpt lat="46.86652" lon="-2.12385">
        <ele>6.3</ele>
        <time>2020-06-04T10:32:17Z</time>
      </trkpt>
      <trkpt lat="46.86658" lon="-2.12387">
        <ele>6.2</ele>
        <time>2020-06-04T10:32:18Z</time>
      </trkpt>
      <trkpt lat="46.86663" lon="-2.12392">
        <ele>6</ele>
        <time>2020-06-04T10:32:19Z</time>
      </trkpt>
      <trkpt lat="46.86668" lon="-2.12399">
        <ele>5.9</ele>
        <time>2020-06-04T10:32:20Z</time>
      </trkpt>
      <trkpt lat="46.86673" lon="-2.12404">
        <ele>5.8</ele>
        <time>2020-06-04T10:32:21Z</time>
      </trkpt>
      <trkpt lat="46.86678" lon="-2.12408">
        <ele>5.8</ele>
        <time>2020-06-04T10:32:22Z</time>
      </trkpt>
      <trkpt lat="46.86683" lon="-2.12411">
        <ele>5.8</ele>
        <time>2020-06-04T10:32:23Z</time>
      </trkpt>
      <trkpt lat="46.86687" lon="-2.12414">
        <ele>5.7</ele>
        <time>2020-06-04T10:32:24Z</time>
      </trkpt>
      <trkpt lat="46.86691" lon="-2.12418">
        <ele>5.7</ele>
        <time>2020-06-04T10:32:25Z</time>
      </trkpt>
      <trkpt lat="46.86694" lon="-2.1242">
        <ele>5.7</ele>
        <time>2020-06-04T10:32:26Z</time>
      </trkpt>
      <trkpt lat="46.86697" lon="-2.12423">
        <ele>5.7</ele>
        <time>2020-06-04T10:32:27Z</time>
      </trkpt>
      <trkpt lat="46.86701" lon="-2.12427">
        <ele>5.7</ele>
        <time>2020-06-04T10:32:28Z</time>
      </trkpt>
      <trkpt lat="46.86705" lon="-2.12432">
        <ele>5.7</ele>
        <time>2020-06-04T10:32:29Z</time>
      </trkpt>
      <trkpt lat="46.8671" lon="-2.12436">
        <ele>5.7</ele>
        <time>2020-06-04T10:32:30Z</time>
      </trkpt>
      <trkpt lat="46.86715" lon="-2.1244">
        <ele>5.7</ele>
        <time>2020-06-04T10:32:31Z</time>
      </trkpt>
      <trkpt lat="46.86719" lon="-2.12445">
        <ele>5.7</ele>
        <time>2020-06-04T10:32:32Z</time>
      </trkpt>
      <trkpt lat="46.86724" lon="-2.1245">
        <ele>5.7</ele>
        <time>2020-06-04T10:32:33Z</time>
      </trkpt>
      <trkpt lat="46.86727" lon="-2.12454">
        <ele>5.7</ele>
        <time>2020-06-04T10:32:34Z</time>
      </trkpt>
      <trkpt lat="46.86731" lon="-2.12457">
        <ele>5.7</ele>
        <time>2020-06-04T10:32:35Z</time>
      </trkpt>
      <trkpt lat="46.86735" lon="-2.1246">
        <ele>5.7</ele>
        <time>2020-06-04T10:32:37Z</time>
      </trkpt>
      <trkpt lat="46.86739" lon="-2.12463">
        <ele>5.7</ele>
        <time>2020-06-04T10:32:38Z</time>
      </trkpt>
      <trkpt lat="46.86743" lon="-2.12467">
        <ele>5.7</ele>
        <time>2020-06-04T10:32:39Z</time>
      </trkpt>
      <trkpt lat="46.86748" lon="-2.12469">
        <ele>5.8</ele>
        <time>2020-06-04T10:32:40Z</time>
      </trkpt>
      <trkpt lat="46.86752" lon="-2.12471">
        <ele>5.8</ele>
        <time>2020-06-04T10:32:41Z</time>
      </trkpt>
      <trkpt lat="46.86757" lon="-2.12473">
        <ele>5.8</ele>
        <time>2020-06-04T10:32:42Z</time>
      </trkpt>
      <trkpt lat="46.86761" lon="-2.12475">
        <ele>5.8</ele>
        <time>2020-06-04T10:32:43Z</time>
      </trkpt>
      <trkpt lat="46.86766" lon="-2.12477">
        <ele>5.8</ele>
        <time>2020-06-04T10:32:44Z</time>
      </trkpt>
      <trkpt lat="46.86771" lon="-2.12478">
        <ele>5.8</ele>
        <time>2020-06-04T10:32:45Z</time>
      </trkpt>
      <trkpt lat="46.86778" lon="-2.12478">
        <ele>5.8</ele>
        <time>2020-06-04T10:32:46Z</time>
      </trkpt>
      <trkpt lat="46.86783" lon="-2.1248">
        <ele>5.8</ele>
        <time>2020-06-04T10:32:47Z</time>
      </trkpt>
      <trkpt lat="46.86787" lon="-2.12483">
        <ele>5.8</ele>
        <time>2020-06-04T10:32:48Z</time>
      </trkpt>
      <trkpt lat="46.86792" lon="-2.12484">
        <ele>5.8</ele>
        <time>2020-06-04T10:32:49Z</time>
      </trkpt>
      <trkpt lat="46.86795" lon="-2.12485">
        <ele>5.8</ele>
        <time>2020-06-04T10:32:50Z</time>
      </trkpt>
      <trkpt lat="46.868" lon="-2.12487">
        <ele>5.8</ele>
        <time>2020-06-04T10:32:51Z</time>
      </trkpt>
      <trkpt lat="46.86808" lon="-2.12487">
        <ele>5.8</ele>
        <time>2020-06-04T10:32:52Z</time>
      </trkpt>
      <trkpt lat="46.86812" lon="-2.12487">
        <ele>5.8</ele>
        <time>2020-06-04T10:32:53Z</time>
      </trkpt>
      <trkpt lat="46.86818" lon="-2.12485">
        <ele>5.8</ele>
        <time>2020-06-04T10:32:54Z</time>
      </trkpt>
      <trkpt lat="46.86823" lon="-2.12484">
        <ele>5.8</ele>
        <time>2020-06-04T10:32:55Z</time>
      </trkpt>
      <trkpt lat="46.86828" lon="-2.12482">
        <ele>5.8</ele>
        <time>2020-06-04T10:32:56Z</time>
      </trkpt>
      <trkpt lat="46.86833" lon="-2.1248">
        <ele>5.8</ele>
        <time>2020-06-04T10:32:57Z</time>
      </trkpt>
      <trkpt lat="46.86838" lon="-2.12478">
        <ele>5.8</ele>
        <time>2020-06-04T10:32:58Z</time>
      </trkpt>
      <trkpt lat="46.86844" lon="-2.12476">
        <ele>5.8</ele>
        <time>2020-06-04T10:32:59Z</time>
      </trkpt>
      <trkpt lat="46.86849" lon="-2.12475">
        <ele>5.8</ele>
        <time>2020-06-04T10:33:00Z</time>
      </trkpt>
      <trkpt lat="46.86854" lon="-2.12475">
        <ele>5.8</ele>
        <time>2020-06-04T10:33:01Z</time>
      </trkpt>
      <trkpt lat="46.86859" lon="-2.12478">
        <ele>5.8</ele>
        <time>2020-06-04T10:33:02Z</time>
      </trkpt>
      <trkpt lat="46.86862" lon="-2.1248">
        <ele>5.8</ele>
        <time>2020-06-04T10:33:03Z</time>
      </trkpt>
      <trkpt lat="46.86866" lon="-2.12481">
        <ele>5.9</ele>
        <time>2020-06-04T10:33:04Z</time>
      </trkpt>
      <trkpt lat="46.86869" lon="-2.12482">
        <ele>5.9</ele>
        <time>2020-06-04T10:33:05Z</time>
      </trkpt>
      <trkpt lat="46.86874" lon="-2.12482">
        <ele>5.9</ele>
        <time>2020-06-04T10:33:06Z</time>
      </trkpt>
      <trkpt lat="46.86878" lon="-2.12484">
        <ele>5.9</ele>
        <time>2020-06-04T10:33:07Z</time>
      </trkpt>
      <trkpt lat="46.86883" lon="-2.12486">
        <ele>5.9</ele>
        <time>2020-06-04T10:33:08Z</time>
      </trkpt>
      <trkpt lat="46.86887" lon="-2.12487">
        <ele>6</ele>
        <time>2020-06-04T10:33:09Z</time>
      </trkpt>
      <trkpt lat="46.8689" lon="-2.12488">
        <ele>6</ele>
        <time>2020-06-04T10:33:10Z</time>
      </trkpt>
      <trkpt lat="46.86895" lon="-2.12487">
        <ele>5.9</ele>
        <time>2020-06-04T10:33:11Z</time>
      </trkpt>
      <trkpt lat="46.86899" lon="-2.12486">
        <ele>5.9</ele>
        <time>2020-06-04T10:33:12Z</time>
      </trkpt>
      <trkpt lat="46.86903" lon="-2.12485">
        <ele>5.9</ele>
        <time>2020-06-04T10:33:13Z</time>
      </trkpt>
      <trkpt lat="46.86907" lon="-2.12484">
        <ele>5.9</ele>
        <time>2020-06-04T10:33:14Z</time>
      </trkpt>
      <trkpt lat="46.86911" lon="-2.12482">
        <ele>5.9</ele>
        <time>2020-06-04T10:33:15Z</time>
      </trkpt>
      <trkpt lat="46.86916" lon="-2.12481">
        <ele>5.9</ele>
        <time>2020-06-04T10:33:16Z</time>
      </trkpt>
      <trkpt lat="46.86922" lon="-2.12479">
        <ele>5.9</ele>
        <time>2020-06-04T10:33:17Z</time>
      </trkpt>
      <trkpt lat="46.86928" lon="-2.12476">
        <ele>5.8</ele>
        <time>2020-06-04T10:33:18Z</time>
      </trkpt>
      <trkpt lat="46.86933" lon="-2.12473">
        <ele>5.8</ele>
        <time>2020-06-04T10:33:19Z</time>
      </trkpt>
      <trkpt lat="46.86939" lon="-2.12471">
        <ele>5.8</ele>
        <time>2020-06-04T10:33:20Z</time>
      </trkpt>
      <trkpt lat="46.86943" lon="-2.1247">
        <ele>5.8</ele>
        <time>2020-06-04T10:33:21Z</time>
      </trkpt>
      <trkpt lat="46.86948" lon="-2.12466">
        <ele>5.8</ele>
        <time>2020-06-04T10:33:22Z</time>
      </trkpt>
      <trkpt lat="46.86952" lon="-2.12462">
        <ele>5.8</ele>
        <time>2020-06-04T10:33:23Z</time>
      </trkpt>
      <trkpt lat="46.86955" lon="-2.12459">
        <ele>5.8</ele>
        <time>2020-06-04T10:33:24Z</time>
      </trkpt>
      <trkpt lat="46.86958" lon="-2.12455">
        <ele>5.8</ele>
        <time>2020-06-04T10:33:25Z</time>
      </trkpt>
      <trkpt lat="46.86961" lon="-2.12451">
        <ele>5.8</ele>
        <time>2020-06-04T10:33:26Z</time>
      </trkpt>
      <trkpt lat="46.86962" lon="-2.12451">
        <ele>5.8</ele>
        <time>2020-06-04T10:33:27Z</time>
      </trkpt>
      <trkpt lat="46.86965" lon="-2.12447">
        <ele>5.8</ele>
        <time>2020-06-04T10:33:28Z</time>
      </trkpt>
      <trkpt lat="46.86966" lon="-2.12446">
        <ele>5.8</ele>
        <time>2020-06-04T10:33:29Z</time>
      </trkpt>
      <trkpt lat="46.86968" lon="-2.12442">
        <ele>5.8</ele>
        <time>2020-06-04T10:33:30Z</time>
      </trkpt>
      <trkpt lat="46.8697" lon="-2.12439">
        <ele>5.8</ele>
        <time>2020-06-04T10:33:31Z</time>
      </trkpt>
      <trkpt lat="46.86971" lon="-2.12435">
        <ele>5.8</ele>
        <time>2020-06-04T10:33:32Z</time>
      </trkpt>
      <trkpt lat="46.86973" lon="-2.1243">
        <ele>5.9</ele>
        <time>2020-06-04T10:33:33Z</time>
      </trkpt>
      <trkpt lat="46.86976" lon="-2.12428">
        <ele>5.9</ele>
        <time>2020-06-04T10:33:34Z</time>
      </trkpt>
      <trkpt lat="46.86978" lon="-2.12425">
        <ele>5.9</ele>
        <time>2020-06-04T10:33:35Z</time>
      </trkpt>
      <trkpt lat="46.86982" lon="-2.12422">
        <ele>5.9</ele>
        <time>2020-06-04T10:33:36Z</time>
      </trkpt>
      <trkpt lat="46.86986" lon="-2.1242">
        <ele>5.9</ele>
        <time>2020-06-04T10:33:37Z</time>
      </trkpt>
      <trkpt lat="46.86989" lon="-2.12417">
        <ele>5.9</ele>
        <time>2020-06-04T10:33:38Z</time>
      </trkpt>
      <trkpt lat="46.86991" lon="-2.12414">
        <ele>5.9</ele>
        <time>2020-06-04T10:33:39Z</time>
      </trkpt>
      <trkpt lat="46.86994" lon="-2.12412">
        <ele>5.9</ele>
        <time>2020-06-04T10:33:40Z</time>
      </trkpt>
      <trkpt lat="46.86997" lon="-2.12409">
        <ele>5.9</ele>
        <time>2020-06-04T10:33:41Z</time>
      </trkpt>
      <trkpt lat="46.87" lon="-2.12406">
        <ele>5.8</ele>
        <time>2020-06-04T10:33:42Z</time>
      </trkpt>
      <trkpt lat="46.87004" lon="-2.12401">
        <ele>5.8</ele>
        <time>2020-06-04T10:33:43Z</time>
      </trkpt>
      <trkpt lat="46.87009" lon="-2.12396">
        <ele>5.7</ele>
        <time>2020-06-04T10:33:44Z</time>
      </trkpt>
      <trkpt lat="46.87014" lon="-2.12391">
        <ele>5.6</ele>
        <time>2020-06-04T10:33:45Z</time>
      </trkpt>
      <trkpt lat="46.87019" lon="-2.12386">
        <ele>5.6</ele>
        <time>2020-06-04T10:33:46Z</time>
      </trkpt>
      <trkpt lat="46.87024" lon="-2.12383">
        <ele>5.5</ele>
        <time>2020-06-04T10:33:47Z</time>
      </trkpt>
      <trkpt lat="46.87027" lon="-2.12381">
        <ele>5.4</ele>
        <time>2020-06-04T10:33:48Z</time>
      </trkpt>
      <trkpt lat="46.87031" lon="-2.12379">
        <ele>5.4</ele>
        <time>2020-06-04T10:33:49Z</time>
      </trkpt>
      <trkpt lat="46.87035" lon="-2.12375">
        <ele>5.4</ele>
        <time>2020-06-04T10:33:50Z</time>
      </trkpt>
      <trkpt lat="46.87039" lon="-2.12374">
        <ele>5.3</ele>
        <time>2020-06-04T10:33:51Z</time>
      </trkpt>
      <trkpt lat="46.87044" lon="-2.12371">
        <ele>5.2</ele>
        <time>2020-06-04T10:33:52Z</time>
      </trkpt>
      <trkpt lat="46.87048" lon="-2.12368">
        <ele>5.2</ele>
        <time>2020-06-04T10:33:53Z</time>
      </trkpt>
      <trkpt lat="46.87053" lon="-2.12365">
        <ele>5.2</ele>
        <time>2020-06-04T10:33:54Z</time>
      </trkpt>
      <trkpt lat="46.87059" lon="-2.12362">
        <ele>5.1</ele>
        <time>2020-06-04T10:33:55Z</time>
      </trkpt>
      <trkpt lat="46.87064" lon="-2.1236">
        <ele>5.1</ele>
        <time>2020-06-04T10:33:56Z</time>
      </trkpt>
      <trkpt lat="46.87068" lon="-2.12356">
        <ele>5.1</ele>
        <time>2020-06-04T10:33:57Z</time>
      </trkpt>
      <trkpt lat="46.87074" lon="-2.12353">
        <ele>5.2</ele>
        <time>2020-06-04T10:33:58Z</time>
      </trkpt>
      <trkpt lat="46.87078" lon="-2.1235">
        <ele>5.2</ele>
        <time>2020-06-04T10:33:59Z</time>
      </trkpt>
      <trkpt lat="46.87083" lon="-2.12349">
        <ele>5.2</ele>
        <time>2020-06-04T10:34:00Z</time>
      </trkpt>
      <trkpt lat="46.87087" lon="-2.12348">
        <ele>5.3</ele>
        <time>2020-06-04T10:34:01Z</time>
      </trkpt>
      <trkpt lat="46.87092" lon="-2.12346">
        <ele>5.3</ele>
        <time>2020-06-04T10:34:02Z</time>
      </trkpt>
      <trkpt lat="46.87097" lon="-2.12346">
        <ele>5.4</ele>
        <time>2020-06-04T10:34:03Z</time>
      </trkpt>
      <trkpt lat="46.87103" lon="-2.12351">
        <ele>5.4</ele>
        <time>2020-06-04T10:34:04Z</time>
      </trkpt>
      <trkpt lat="46.87109" lon="-2.12351">
        <ele>5.5</ele>
        <time>2020-06-04T10:34:05Z</time>
      </trkpt>
      <trkpt lat="46.87114" lon="-2.1235">
        <ele>5.6</ele>
        <time>2020-06-04T10:34:06Z</time>
      </trkpt>
      <trkpt lat="46.87119" lon="-2.1235">
        <ele>5.6</ele>
        <time>2020-06-04T10:34:07Z</time>
      </trkpt>
      <trkpt lat="46.87123" lon="-2.12351">
        <ele>5.6</ele>
        <time>2020-06-04T10:34:08Z</time>
      </trkpt>
      <trkpt lat="46.87128" lon="-2.12351">
        <ele>5.7</ele>
        <time>2020-06-04T10:34:09Z</time>
      </trkpt>
      <trkpt lat="46.87132" lon="-2.12352">
        <ele>5.7</ele>
        <time>2020-06-04T10:34:10Z</time>
      </trkpt>
      <trkpt lat="46.87137" lon="-2.12354">
        <ele>5.7</ele>
        <time>2020-06-04T10:34:11Z</time>
      </trkpt>
      <trkpt lat="46.87143" lon="-2.12357">
        <ele>5.7</ele>
        <time>2020-06-04T10:34:12Z</time>
      </trkpt>
      <trkpt lat="46.87148" lon="-2.12359">
        <ele>5.7</ele>
        <time>2020-06-04T10:34:13Z</time>
      </trkpt>
      <trkpt lat="46.87152" lon="-2.1236">
        <ele>5.7</ele>
        <time>2020-06-04T10:34:14Z</time>
      </trkpt>
      <trkpt lat="46.87157" lon="-2.12362">
        <ele>5.7</ele>
        <time>2020-06-04T10:34:15Z</time>
      </trkpt>
      <trkpt lat="46.87161" lon="-2.12364">
        <ele>5.7</ele>
        <time>2020-06-04T10:34:16Z</time>
      </trkpt>
      <trkpt lat="46.87166" lon="-2.12364">
        <ele>5.7</ele>
        <time>2020-06-04T10:34:17Z</time>
      </trkpt>
      <trkpt lat="46.87171" lon="-2.12365">
        <ele>5.7</ele>
        <time>2020-06-04T10:34:18Z</time>
      </trkpt>
      <trkpt lat="46.87177" lon="-2.12366">
        <ele>5.7</ele>
        <time>2020-06-04T10:34:19Z</time>
      </trkpt>
      <trkpt lat="46.87183" lon="-2.12369">
        <ele>5.8</ele>
        <time>2020-06-04T10:34:20Z</time>
      </trkpt>
      <trkpt lat="46.8719" lon="-2.12372">
        <ele>5.8</ele>
        <time>2020-06-04T10:34:21Z</time>
      </trkpt>
      <trkpt lat="46.87196" lon="-2.12375">
        <ele>5.9</ele>
        <time>2020-06-04T10:34:22Z</time>
      </trkpt>
      <trkpt lat="46.87203" lon="-2.12377">
        <ele>5.9</ele>
        <time>2020-06-04T10:34:23Z</time>
      </trkpt>
      <trkpt lat="46.87209" lon="-2.1238">
        <ele>6</ele>
        <time>2020-06-04T10:34:24Z</time>
      </trkpt>
      <trkpt lat="46.87214" lon="-2.12384">
        <ele>6.1</ele>
        <time>2020-06-04T10:34:25Z</time>
      </trkpt>
      <trkpt lat="46.87219" lon="-2.12388">
        <ele>6.2</ele>
        <time>2020-06-04T10:34:26Z</time>
      </trkpt>
      <trkpt lat="46.87222" lon="-2.12392">
        <ele>6.3</ele>
        <time>2020-06-04T10:34:27Z</time>
      </trkpt>
      <trkpt lat="46.87226" lon="-2.12396">
        <ele>6.4</ele>
        <time>2020-06-04T10:34:28Z</time>
      </trkpt>
      <trkpt lat="46.8723" lon="-2.12397">
        <ele>6.5</ele>
        <time>2020-06-04T10:34:29Z</time>
      </trkpt>
      <trkpt lat="46.87233" lon="-2.12401">
        <ele>6.5</ele>
        <time>2020-06-04T10:34:30Z</time>
      </trkpt>
      <trkpt lat="46.87238" lon="-2.12402">
        <ele>6.6</ele>
        <time>2020-06-04T10:34:31Z</time>
      </trkpt>
      <trkpt lat="46.87241" lon="-2.12404">
        <ele>6.7</ele>
        <time>2020-06-04T10:34:32Z</time>
      </trkpt>
      <trkpt lat="46.87245" lon="-2.12405">
        <ele>6.7</ele>
        <time>2020-06-04T10:34:33Z</time>
      </trkpt>
      <trkpt lat="46.87248" lon="-2.12407">
        <ele>6.8</ele>
        <time>2020-06-04T10:34:34Z</time>
      </trkpt>
      <trkpt lat="46.87251" lon="-2.12408">
        <ele>6.8</ele>
        <time>2020-06-04T10:34:35Z</time>
      </trkpt>
      <trkpt lat="46.87254" lon="-2.1241">
        <ele>6.8</ele>
        <time>2020-06-04T10:34:36Z</time>
      </trkpt>
      <trkpt lat="46.87254" lon="-2.12409">
        <ele>6.8</ele>
        <time>2020-06-04T10:34:37Z</time>
      </trkpt>
      <trkpt lat="46.87255" lon="-2.12407">
        <ele>6.8</ele>
        <time>2020-06-04T10:34:38Z</time>
      </trkpt>
      <trkpt lat="46.87255" lon="-2.12407">
        <ele>6.8</ele>
        <time>2020-06-04T10:34:39Z</time>
      </trkpt>
      <trkpt lat="46.87255" lon="-2.12407">
        <ele>6.8</ele>
        <time>2020-06-04T10:34:40Z</time>
      </trkpt>
      <trkpt lat="46.87255" lon="-2.12407">
        <ele>6.8</ele>
        <time>2020-06-04T10:34:41Z</time>
      </trkpt>
      <trkpt lat="46.87255" lon="-2.12407">
        <ele>6.8</ele>
        <time>2020-06-04T10:34:42Z</time>
      </trkpt>
      <trkpt lat="46.87255" lon="-2.12407">
        <ele>6.8</ele>
        <time>2020-06-04T10:34:43Z</time>
      </trkpt>
      <trkpt lat="46.87255" lon="-2.12406">
        <ele>6.8</ele>
        <time>2020-06-04T10:34:44Z</time>
      </trkpt>
      <trkpt lat="46.87255" lon="-2.12404">
        <ele>6.8</ele>
        <time>2020-06-04T10:34:45Z</time>
      </trkpt>
      <trkpt lat="46.87255" lon="-2.12404">
        <ele>6.8</ele>
        <time>2020-06-04T10:34:46Z</time>
      </trkpt>
      <trkpt lat="46.87255" lon="-2.12404">
        <ele>6.8</ele>
        <time>2020-06-04T10:34:47Z</time>
      </trkpt>
      <trkpt lat="46.87255" lon="-2.12404">
        <ele>6.8</ele>
        <time>2020-06-04T10:34:48Z</time>
      </trkpt>
      <trkpt lat="46.87255" lon="-2.12404">
        <ele>6.8</ele>
        <time>2020-06-04T10:34:49Z</time>
      </trkpt>
      <trkpt lat="46.87255" lon="-2.12404">
        <ele>6.8</ele>
        <time>2020-06-04T10:34:50Z</time>
      </trkpt>
      <trkpt lat="46.87255" lon="-2.12404">
        <ele>6.8</ele>
        <time>2020-06-04T10:34:51Z</time>
      </trkpt>
      <trkpt lat="46.87255" lon="-2.12404">
        <ele>6.8</ele>
        <time>2020-06-04T10:34:52Z</time>
      </trkpt>
      <trkpt lat="46.87256" lon="-2.12404">
        <ele>6.8</ele>
        <time>2020-06-04T10:34:53Z</time>
      </trkpt>
      <trkpt lat="46.87256" lon="-2.12404">
        <ele>6.8</ele>
        <time>2020-06-04T10:34:54Z</time>
      </trkpt>
      <trkpt lat="46.87257" lon="-2.12405">
        <ele>6.8</ele>
        <time>2020-06-04T10:34:55Z</time>
      </trkpt>
      <trkpt lat="46.87257" lon="-2.12407">
        <ele>6.8</ele>
        <time>2020-06-04T10:34:56Z</time>
      </trkpt>
      <trkpt lat="46.87259" lon="-2.12406">
        <ele>6.8</ele>
        <time>2020-06-04T10:34:57Z</time>
      </trkpt>
      <trkpt lat="46.87259" lon="-2.12409">
        <ele>6.8</ele>
        <time>2020-06-04T10:34:58Z</time>
      </trkpt>
      <trkpt lat="46.87259" lon="-2.12411">
        <ele>6.8</ele>
        <time>2020-06-04T10:34:59Z</time>
      </trkpt>
      <trkpt lat="46.87261" lon="-2.12411">
        <ele>6.8</ele>
        <time>2020-06-04T10:35:00Z</time>
      </trkpt>
      <trkpt lat="46.87261" lon="-2.12411">
        <ele>6.8</ele>
        <time>2020-06-04T10:35:01Z</time>
      </trkpt>
      <trkpt lat="46.87262" lon="-2.12412">
        <ele>6.8</ele>
        <time>2020-06-04T10:35:02Z</time>
      </trkpt>
      <trkpt lat="46.87263" lon="-2.12412">
        <ele>6.8</ele>
        <time>2020-06-04T10:35:03Z</time>
      </trkpt>
      <trkpt lat="46.87264" lon="-2.12412">
        <ele>6.8</ele>
        <time>2020-06-04T10:35:04Z</time>
      </trkpt>
      <trkpt lat="46.87265" lon="-2.12412">
        <ele>6.8</ele>
        <time>2020-06-04T10:35:05Z</time>
      </trkpt>
      <trkpt lat="46.87265" lon="-2.12413">
        <ele>6.8</ele>
        <time>2020-06-04T10:35:06Z</time>
      </trkpt>
      <trkpt lat="46.87266" lon="-2.12413">
        <ele>6.8</ele>
        <time>2020-06-04T10:35:07Z</time>
      </trkpt>
      <trkpt lat="46.87267" lon="-2.12413">
        <ele>6.8</ele>
        <time>2020-06-04T10:35:08Z</time>
      </trkpt>
      <trkpt lat="46.87268" lon="-2.12413">
        <ele>6.8</ele>
        <time>2020-06-04T10:35:09Z</time>
      </trkpt>
      <trkpt lat="46.87268" lon="-2.12414">
        <ele>6.8</ele>
        <time>2020-06-04T10:35:10Z</time>
      </trkpt>
      <trkpt lat="46.87269" lon="-2.12414">
        <ele>6.8</ele>
        <time>2020-06-04T10:35:11Z</time>
      </trkpt>
      <trkpt lat="46.8727" lon="-2.12414">
        <ele>6.8</ele>
        <time>2020-06-04T10:35:12Z</time>
      </trkpt>
      <trkpt lat="46.87271" lon="-2.12414">
        <ele>6.8</ele>
        <time>2020-06-04T10:35:13Z</time>
      </trkpt>
      <trkpt lat="46.87271" lon="-2.12415">
        <ele>6.8</ele>
        <time>2020-06-04T10:35:14Z</time>
      </trkpt>
      <trkpt lat="46.87272" lon="-2.12415">
        <ele>6.7</ele>
        <time>2020-06-04T10:35:15Z</time>
      </trkpt>
      <trkpt lat="46.87273" lon="-2.12415">
        <ele>6.7</ele>
        <time>2020-06-04T10:35:16Z</time>
      </trkpt>
      <trkpt lat="46.87274" lon="-2.12415">
        <ele>6.7</ele>
        <time>2020-06-04T10:35:17Z</time>
      </trkpt>
      <trkpt lat="46.87275" lon="-2.12416">
        <ele>6.7</ele>
        <time>2020-06-04T10:35:18Z</time>
      </trkpt>
      <trkpt lat="46.87275" lon="-2.12416">
        <ele>6.7</ele>
        <time>2020-06-04T10:39:00Z</time>
      </trkpt>
      <trkpt lat="46.87276" lon="-2.12416">
        <ele>6.7</ele>
        <time>2020-06-04T10:39:01Z</time>
      </trkpt>
      <trkpt lat="46.87279" lon="-2.12418">
        <ele>6.7</ele>
        <time>2020-06-04T10:39:02Z</time>
      </trkpt>
      <trkpt lat="46.87282" lon="-2.12419">
        <ele>6.7</ele>
        <time>2020-06-04T10:39:03Z</time>
      </trkpt>
      <trkpt lat="46.87285" lon="-2.12423">
        <ele>6.6</ele>
        <time>2020-06-04T10:39:04Z</time>
      </trkpt>
      <trkpt lat="46.87288" lon="-2.12425">
        <ele>6.6</ele>
        <time>2020-06-04T10:39:05Z</time>
      </trkpt>
      <trkpt lat="46.87291" lon="-2.12427">
        <ele>6.6</ele>
        <time>2020-06-04T10:39:06Z</time>
      </trkpt>
      <trkpt lat="46.87295" lon="-2.12427">
        <ele>6.6</ele>
        <time>2020-06-04T10:39:07Z</time>
      </trkpt>
      <trkpt lat="46.873" lon="-2.12428">
        <ele>6.5</ele>
        <time>2020-06-04T10:39:08Z</time>
      </trkpt>
      <trkpt lat="46.87304" lon="-2.12428">
        <ele>6.5</ele>
        <time>2020-06-04T10:39:09Z</time>
      </trkpt>
      <trkpt lat="46.87308" lon="-2.12427">
        <ele>6.4</ele>
        <time>2020-06-04T10:39:10Z</time>
      </trkpt>
      <trkpt lat="46.87312" lon="-2.12427">
        <ele>6.4</ele>
        <time>2020-06-04T10:39:11Z</time>
      </trkpt>
      <trkpt lat="46.87315" lon="-2.12429">
        <ele>6.4</ele>
        <time>2020-06-04T10:39:12Z</time>
      </trkpt>
      <trkpt lat="46.87319" lon="-2.1243">
        <ele>6.3</ele>
        <time>2020-06-04T10:39:13Z</time>
      </trkpt>
      <trkpt lat="46.87323" lon="-2.12431">
        <ele>6.3</ele>
        <time>2020-06-04T10:39:14Z</time>
      </trkpt>
      <trkpt lat="46.87326" lon="-2.12433">
        <ele>6.2</ele>
        <time>2020-06-04T10:39:15Z</time>
      </trkpt>
      <trkpt lat="46.87329" lon="-2.12434">
        <ele>6.2</ele>
        <time>2020-06-04T10:39:16Z</time>
      </trkpt>
      <trkpt lat="46.87334" lon="-2.12434">
        <ele>6.2</ele>
        <time>2020-06-04T10:39:17Z</time>
      </trkpt>
      <trkpt lat="46.87339" lon="-2.12434">
        <ele>6.2</ele>
        <time>2020-06-04T10:39:18Z</time>
      </trkpt>
      <trkpt lat="46.87345" lon="-2.12435">
        <ele>6.2</ele>
        <time>2020-06-04T10:39:19Z</time>
      </trkpt>
      <trkpt lat="46.87351" lon="-2.12436">
        <ele>6.3</ele>
        <time>2020-06-04T10:39:20Z</time>
      </trkpt>
      <trkpt lat="46.87357" lon="-2.12437">
        <ele>6.4</ele>
        <time>2020-06-04T10:39:21Z</time>
      </trkpt>
      <trkpt lat="46.87362" lon="-2.12436">
        <ele>6.6</ele>
        <time>2020-06-04T10:39:22Z</time>
      </trkpt>
      <trkpt lat="46.87367" lon="-2.12437">
        <ele>6.7</ele>
        <time>2020-06-04T10:39:23Z</time>
      </trkpt>
      <trkpt lat="46.8737" lon="-2.12436">
        <ele>6.8</ele>
        <time>2020-06-04T10:39:24Z</time>
      </trkpt>
      <trkpt lat="46.87373" lon="-2.12435">
        <ele>7</ele>
        <time>2020-06-04T10:39:25Z</time>
      </trkpt>
      <trkpt lat="46.87376" lon="-2.12433">
        <ele>7.1</ele>
        <time>2020-06-04T10:39:26Z</time>
      </trkpt>
      <trkpt lat="46.87379" lon="-2.1243">
        <ele>7.2</ele>
        <time>2020-06-04T10:39:27Z</time>
      </trkpt>
      <trkpt lat="46.87382" lon="-2.12426">
        <ele>7.3</ele>
        <time>2020-06-04T10:39:28Z</time>
      </trkpt>
      <trkpt lat="46.87387" lon="-2.12422">
        <ele>7.4</ele>
        <time>2020-06-04T10:39:29Z</time>
      </trkpt>
      <trkpt lat="46.87392" lon="-2.12417">
        <ele>7.6</ele>
        <time>2020-06-04T10:39:30Z</time>
      </trkpt>
      <trkpt lat="46.87396" lon="-2.12412">
        <ele>7.7</ele>
        <time>2020-06-04T10:39:31Z</time>
      </trkpt>
      <trkpt lat="46.874" lon="-2.12406">
        <ele>7.7</ele>
        <time>2020-06-04T10:39:32Z</time>
      </trkpt>
      <trkpt lat="46.87403" lon="-2.12402">
        <ele>7.8</ele>
        <time>2020-06-04T10:39:33Z</time>
      </trkpt>
      <trkpt lat="46.87407" lon="-2.12399">
        <ele>7.9</ele>
        <time>2020-06-04T10:39:34Z</time>
      </trkpt>
      <trkpt lat="46.8741" lon="-2.12394">
        <ele>7.9</ele>
        <time>2020-06-04T10:39:35Z</time>
      </trkpt>
      <trkpt lat="46.87415" lon="-2.1239">
        <ele>8</ele>
        <time>2020-06-04T10:39:36Z</time>
      </trkpt>
      <trkpt lat="46.87418" lon="-2.12386">
        <ele>8.1</ele>
        <time>2020-06-04T10:39:37Z</time>
      </trkpt>
      <trkpt lat="46.87421" lon="-2.12381">
        <ele>8.1</ele>
        <time>2020-06-04T10:39:38Z</time>
      </trkpt>
      <trkpt lat="46.87424" lon="-2.12375">
        <ele>8.2</ele>
        <time>2020-06-04T10:39:39Z</time>
      </trkpt>
      <trkpt lat="46.87426" lon="-2.12371">
        <ele>8.2</ele>
        <time>2020-06-04T10:39:40Z</time>
      </trkpt>
      <trkpt lat="46.8743" lon="-2.12368">
        <ele>8.3</ele>
        <time>2020-06-04T10:39:41Z</time>
      </trkpt>
      <trkpt lat="46.87432" lon="-2.12366">
        <ele>8.3</ele>
        <time>2020-06-04T10:39:42Z</time>
      </trkpt>
      <trkpt lat="46.87435" lon="-2.12365">
        <ele>8.3</ele>
        <time>2020-06-04T10:39:43Z</time>
      </trkpt>
      <trkpt lat="46.87438" lon="-2.12365">
        <ele>8.3</ele>
        <time>2020-06-04T10:39:44Z</time>
      </trkpt>
      <trkpt lat="46.87441" lon="-2.12364">
        <ele>8.3</ele>
        <time>2020-06-04T10:39:45Z</time>
      </trkpt>
      <trkpt lat="46.87444" lon="-2.12362">
        <ele>8.4</ele>
        <time>2020-06-04T10:39:46Z</time>
      </trkpt>
      <trkpt lat="46.87448" lon="-2.1236">
        <ele>8.4</ele>
        <time>2020-06-04T10:39:47Z</time>
      </trkpt>
      <trkpt lat="46.87451" lon="-2.12359">
        <ele>8.4</ele>
        <time>2020-06-04T10:39:48Z</time>
      </trkpt>
      <trkpt lat="46.87455" lon="-2.12358">
        <ele>8.4</ele>
        <time>2020-06-04T10:39:49Z</time>
      </trkpt>
      <trkpt lat="46.87459" lon="-2.12357">
        <ele>8.4</ele>
        <time>2020-06-04T10:39:50Z</time>
      </trkpt>
      <trkpt lat="46.87463" lon="-2.12356">
        <ele>8.4</ele>
        <time>2020-06-04T10:39:51Z</time>
      </trkpt>
      <trkpt lat="46.87466" lon="-2.12356">
        <ele>8.4</ele>
        <time>2020-06-04T10:39:52Z</time>
      </trkpt>
      <trkpt lat="46.8747" lon="-2.12355">
        <ele>8.4</ele>
        <time>2020-06-04T10:39:53Z</time>
      </trkpt>
      <trkpt lat="46.87473" lon="-2.12354">
        <ele>8.5</ele>
        <time>2020-06-04T10:39:54Z</time>
      </trkpt>
      <trkpt lat="46.87477" lon="-2.12352">
        <ele>8.5</ele>
        <time>2020-06-04T10:39:55Z</time>
      </trkpt>
      <trkpt lat="46.87481" lon="-2.1235">
        <ele>8.5</ele>
        <time>2020-06-04T10:39:56Z</time>
      </trkpt>
      <trkpt lat="46.87485" lon="-2.12349">
        <ele>8.5</ele>
        <time>2020-06-04T10:39:57Z</time>
      </trkpt>
      <trkpt lat="46.8749" lon="-2.12348">
        <ele>8.5</ele>
        <time>2020-06-04T10:39:58Z</time>
      </trkpt>
      <trkpt lat="46.87494" lon="-2.12348">
        <ele>8.5</ele>
        <time>2020-06-04T10:39:59Z</time>
      </trkpt>
      <trkpt lat="46.87499" lon="-2.12348">
        <ele>8.5</ele>
        <time>2020-06-04T10:40:00Z</time>
      </trkpt>
      <trkpt lat="46.87504" lon="-2.12348">
        <ele>8.5</ele>
        <time>2020-06-04T10:40:01Z</time>
      </trkpt>
      <trkpt lat="46.87508" lon="-2.12349">
        <ele>8.5</ele>
        <time>2020-06-04T10:40:02Z</time>
      </trkpt>
      <trkpt lat="46.87512" lon="-2.12349">
        <ele>8.5</ele>
        <time>2020-06-04T10:40:03Z</time>
      </trkpt>
      <trkpt lat="46.87516" lon="-2.1235">
        <ele>8.3</ele>
        <time>2020-06-04T10:40:04Z</time>
      </trkpt>
      <trkpt lat="46.87522" lon="-2.12351">
        <ele>8.1</ele>
        <time>2020-06-04T10:40:05Z</time>
      </trkpt>
      <trkpt lat="46.87527" lon="-2.12354">
        <ele>8</ele>
        <time>2020-06-04T10:40:06Z</time>
      </trkpt>
      <trkpt lat="46.87531" lon="-2.12357">
        <ele>7.8</ele>
        <time>2020-06-04T10:40:07Z</time>
      </trkpt>
      <trkpt lat="46.87535" lon="-2.12361">
        <ele>7.6</ele>
        <time>2020-06-04T10:40:08Z</time>
      </trkpt>
      <trkpt lat="46.87541" lon="-2.12364">
        <ele>7.4</ele>
        <time>2020-06-04T10:40:09Z</time>
      </trkpt>
      <trkpt lat="46.87547" lon="-2.1237">
        <ele>7.2</ele>
        <time>2020-06-04T10:40:10Z</time>
      </trkpt>
      <trkpt lat="46.87554" lon="-2.12377">
        <ele>6.9</ele>
        <time>2020-06-04T10:40:11Z</time>
      </trkpt>
      <trkpt lat="46.87559" lon="-2.12382">
        <ele>6.8</ele>
        <time>2020-06-04T10:40:12Z</time>
      </trkpt>
      <trkpt lat="46.87563" lon="-2.12387">
        <ele>6.7</ele>
        <time>2020-06-04T10:40:13Z</time>
      </trkpt>
      <trkpt lat="46.87569" lon="-2.12392">
        <ele>6.7</ele>
        <time>2020-06-04T10:40:14Z</time>
      </trkpt>
      <trkpt lat="46.87573" lon="-2.12398">
        <ele>6.7</ele>
        <time>2020-06-04T10:40:15Z</time>
      </trkpt>
      <trkpt lat="46.87577" lon="-2.12404">
        <ele>6.7</ele>
        <time>2020-06-04T10:40:16Z</time>
      </trkpt>
      <trkpt lat="46.87581" lon="-2.12407">
        <ele>6.7</ele>
        <time>2020-06-04T10:40:17Z</time>
      </trkpt>
      <trkpt lat="46.87585" lon="-2.12408">
        <ele>6.7</ele>
        <time>2020-06-04T10:40:18Z</time>
      </trkpt>
      <trkpt lat="46.87589" lon="-2.12409">
        <ele>6.8</ele>
        <time>2020-06-04T10:40:19Z</time>
      </trkpt>
      <trkpt lat="46.87593" lon="-2.1241">
        <ele>6.8</ele>
        <time>2020-06-04T10:40:20Z</time>
      </trkpt>
      <trkpt lat="46.87597" lon="-2.12411">
        <ele>6.8</ele>
        <time>2020-06-04T10:40:21Z</time>
      </trkpt>
      <trkpt lat="46.87602" lon="-2.12413">
        <ele>6.8</ele>
        <time>2020-06-04T10:40:22Z</time>
      </trkpt>
      <trkpt lat="46.87608" lon="-2.12415">
        <ele>6.8</ele>
        <time>2020-06-04T10:40:23Z</time>
      </trkpt>
      <trkpt lat="46.87612" lon="-2.12417">
        <ele>6.9</ele>
        <time>2020-06-04T10:40:24Z</time>
      </trkpt>
      <trkpt lat="46.87617" lon="-2.12419">
        <ele>6.9</ele>
        <time>2020-06-04T10:40:25Z</time>
      </trkpt>
      <trkpt lat="46.87621" lon="-2.12422">
        <ele>6.9</ele>
        <time>2020-06-04T10:40:26Z</time>
      </trkpt>
      <trkpt lat="46.87626" lon="-2.12424">
        <ele>6.9</ele>
        <time>2020-06-04T10:40:27Z</time>
      </trkpt>
      <trkpt lat="46.8763" lon="-2.12426">
        <ele>6.9</ele>
        <time>2020-06-04T10:40:28Z</time>
      </trkpt>
      <trkpt lat="46.87635" lon="-2.12429">
        <ele>6.8</ele>
        <time>2020-06-04T10:40:29Z</time>
      </trkpt>
      <trkpt lat="46.8764" lon="-2.12431">
        <ele>6.8</ele>
        <time>2020-06-04T10:40:30Z</time>
      </trkpt>
      <trkpt lat="46.87645" lon="-2.12434">
        <ele>6.8</ele>
        <time>2020-06-04T10:40:31Z</time>
      </trkpt>
      <trkpt lat="46.8765" lon="-2.12437">
        <ele>6.7</ele>
        <time>2020-06-04T10:40:32Z</time>
      </trkpt>
      <trkpt lat="46.87655" lon="-2.1244">
        <ele>6.6</ele>
        <time>2020-06-04T10:40:33Z</time>
      </trkpt>
      <trkpt lat="46.8766" lon="-2.12444">
        <ele>6.5</ele>
        <time>2020-06-04T10:40:34Z</time>
      </trkpt>
      <trkpt lat="46.87665" lon="-2.1245">
        <ele>6.4</ele>
        <time>2020-06-04T10:40:35Z</time>
      </trkpt>
      <trkpt lat="46.8767" lon="-2.12455">
        <ele>6.4</ele>
        <time>2020-06-04T10:40:36Z</time>
      </trkpt>
      <trkpt lat="46.87675" lon="-2.12459">
        <ele>6.4</ele>
        <time>2020-06-04T10:40:37Z</time>
      </trkpt>
      <trkpt lat="46.87681" lon="-2.12462">
        <ele>6.3</ele>
        <time>2020-06-04T10:40:38Z</time>
      </trkpt>
      <trkpt lat="46.87687" lon="-2.12464">
        <ele>6.3</ele>
        <time>2020-06-04T10:40:39Z</time>
      </trkpt>
      <trkpt lat="46.87693" lon="-2.12466">
        <ele>6.3</ele>
        <time>2020-06-04T10:40:40Z</time>
      </trkpt>
      <trkpt lat="46.87699" lon="-2.12469">
        <ele>6.2</ele>
        <time>2020-06-04T10:40:41Z</time>
      </trkpt>
      <trkpt lat="46.87704" lon="-2.1247">
        <ele>6.2</ele>
        <time>2020-06-04T10:40:42Z</time>
      </trkpt>
      <trkpt lat="46.87709" lon="-2.12471">
        <ele>6.2</ele>
        <time>2020-06-04T10:40:43Z</time>
      </trkpt>
      <trkpt lat="46.87714" lon="-2.12473">
        <ele>6.3</ele>
        <time>2020-06-04T10:40:44Z</time>
      </trkpt>
      <trkpt lat="46.8772" lon="-2.12475">
        <ele>6.3</ele>
        <time>2020-06-04T10:40:45Z</time>
      </trkpt>
      <trkpt lat="46.87725" lon="-2.12476">
        <ele>6.3</ele>
        <time>2020-06-04T10:40:46Z</time>
      </trkpt>
      <trkpt lat="46.8773" lon="-2.12477">
        <ele>6.3</ele>
        <time>2020-06-04T10:40:47Z</time>
      </trkpt>
      <trkpt lat="46.87735" lon="-2.12479">
        <ele>6.3</ele>
        <time>2020-06-04T10:40:48Z</time>
      </trkpt>
      <trkpt lat="46.87741" lon="-2.12482">
        <ele>6.3</ele>
        <time>2020-06-04T10:40:49Z</time>
      </trkpt>
      <trkpt lat="46.87747" lon="-2.12483">
        <ele>6.3</ele>
        <time>2020-06-04T10:40:50Z</time>
      </trkpt>
      <trkpt lat="46.87752" lon="-2.12485">
        <ele>6.4</ele>
        <time>2020-06-04T10:40:51Z</time>
      </trkpt>
      <trkpt lat="46.87757" lon="-2.12486">
        <ele>6.4</ele>
        <time>2020-06-04T10:40:52Z</time>
      </trkpt>
      <trkpt lat="46.87762" lon="-2.12487">
        <ele>6.5</ele>
        <time>2020-06-04T10:40:53Z</time>
      </trkpt>
      <trkpt lat="46.87767" lon="-2.12488">
        <ele>6.6</ele>
        <time>2020-06-04T10:40:54Z</time>
      </trkpt>
      <trkpt lat="46.87771" lon="-2.1249">
        <ele>6.7</ele>
        <time>2020-06-04T10:40:55Z</time>
      </trkpt>
      <trkpt lat="46.87775" lon="-2.12493">
        <ele>6.8</ele>
        <time>2020-06-04T10:40:56Z</time>
      </trkpt>
      <trkpt lat="46.87779" lon="-2.12494">
        <ele>6.8</ele>
        <time>2020-06-04T10:40:57Z</time>
      </trkpt>
      <trkpt lat="46.87784" lon="-2.12495">
        <ele>6.9</ele>
        <time>2020-06-04T10:40:58Z</time>
      </trkpt>
      <trkpt lat="46.87789" lon="-2.12494">
        <ele>6.9</ele>
        <time>2020-06-04T10:40:59Z</time>
      </trkpt>
      <trkpt lat="46.87794" lon="-2.12494">
        <ele>7</ele>
        <time>2020-06-04T10:41:00Z</time>
      </trkpt>
      <trkpt lat="46.878" lon="-2.12495">
        <ele>7.2</ele>
        <time>2020-06-04T10:41:01Z</time>
      </trkpt>
      <trkpt lat="46.87804" lon="-2.12494">
        <ele>7.3</ele>
        <time>2020-06-04T10:41:02Z</time>
      </trkpt>
      <trkpt lat="46.87808" lon="-2.12495">
        <ele>7.5</ele>
        <time>2020-06-04T10:41:03Z</time>
      </trkpt>
      <trkpt lat="46.87811" lon="-2.12496">
        <ele>7.6</ele>
        <time>2020-06-04T10:41:04Z</time>
      </trkpt>
      <trkpt lat="46.87812" lon="-2.12496">
        <ele>7.7</ele>
        <time>2020-06-04T10:41:05Z</time>
      </trkpt>
      <trkpt lat="46.87816" lon="-2.12496">
        <ele>7.8</ele>
        <time>2020-06-04T10:41:06Z</time>
      </trkpt>
      <trkpt lat="46.8782" lon="-2.12496">
        <ele>8</ele>
        <time>2020-06-04T10:41:07Z</time>
      </trkpt>
      <trkpt lat="46.87823" lon="-2.12497">
        <ele>8.1</ele>
        <time>2020-06-04T10:41:08Z</time>
      </trkpt>
      <trkpt lat="46.87827" lon="-2.12498">
        <ele>8.3</ele>
        <time>2020-06-04T10:41:09Z</time>
      </trkpt>
      <trkpt lat="46.87831" lon="-2.12498">
        <ele>8.5</ele>
        <time>2020-06-04T10:41:10Z</time>
      </trkpt>
      <trkpt lat="46.87834" lon="-2.12498">
        <ele>8.6</ele>
        <time>2020-06-04T10:41:11Z</time>
      </trkpt>
      <trkpt lat="46.87838" lon="-2.125">
        <ele>8.7</ele>
        <time>2020-06-04T10:41:12Z</time>
      </trkpt>
      <trkpt lat="46.8784" lon="-2.12504">
        <ele>8.8</ele>
        <time>2020-06-04T10:41:13Z</time>
      </trkpt>
      <trkpt lat="46.87842" lon="-2.12508">
        <ele>9</ele>
        <time>2020-06-04T10:41:14Z</time>
      </trkpt>
      <trkpt lat="46.87842" lon="-2.12509">
        <ele>9.1</ele>
        <time>2020-06-04T10:41:15Z</time>
      </trkpt>
      <trkpt lat="46.87843" lon="-2.12514">
        <ele>9.3</ele>
        <time>2020-06-04T10:41:16Z</time>
      </trkpt>
      <trkpt lat="46.87845" lon="-2.12519">
        <ele>9.6</ele>
        <time>2020-06-04T10:41:17Z</time>
      </trkpt>
      <trkpt lat="46.87845" lon="-2.12523">
        <ele>9.8</ele>
        <time>2020-06-04T10:41:18Z</time>
      </trkpt>
      <trkpt lat="46.87847" lon="-2.12526">
        <ele>10.1</ele>
        <time>2020-06-04T10:41:19Z</time>
      </trkpt>
      <trkpt lat="46.87849" lon="-2.12531">
        <ele>10.4</ele>
        <time>2020-06-04T10:41:20Z</time>
      </trkpt>
      <trkpt lat="46.87851" lon="-2.12535">
        <ele>10.8</ele>
        <time>2020-06-04T10:41:21Z</time>
      </trkpt>
      <trkpt lat="46.87852" lon="-2.1254">
        <ele>11.1</ele>
        <time>2020-06-04T10:41:22Z</time>
      </trkpt>
      <trkpt lat="46.87853" lon="-2.12545">
        <ele>11.5</ele>
        <time>2020-06-04T10:41:23Z</time>
      </trkpt>
      <trkpt lat="46.87854" lon="-2.12549">
        <ele>11.8</ele>
        <time>2020-06-04T10:41:24Z</time>
      </trkpt>
      <trkpt lat="46.87856" lon="-2.12554">
        <ele>12.2</ele>
        <time>2020-06-04T10:41:25Z</time>
      </trkpt>
      <trkpt lat="46.87856" lon="-2.12556">
        <ele>12.3</ele>
        <time>2020-06-04T10:41:26Z</time>
      </trkpt>
      <trkpt lat="46.87856" lon="-2.1256">
        <ele>12.6</ele>
        <time>2020-06-04T10:41:27Z</time>
      </trkpt>
      <trkpt lat="46.87857" lon="-2.12566">
        <ele>12.9</ele>
        <time>2020-06-04T10:41:28Z</time>
      </trkpt>
      <trkpt lat="46.87857" lon="-2.12568">
        <ele>13</ele>
        <time>2020-06-04T10:41:29Z</time>
      </trkpt>
      <trkpt lat="46.87858" lon="-2.12574">
        <ele>13.3</ele>
        <time>2020-06-04T10:41:30Z</time>
      </trkpt>
      <trkpt lat="46.87858" lon="-2.12576">
        <ele>13.4</ele>
        <time>2020-06-04T10:41:31Z</time>
      </trkpt>
      <trkpt lat="46.87858" lon="-2.1258">
        <ele>13.6</ele>
        <time>2020-06-04T10:41:32Z</time>
      </trkpt>
      <trkpt lat="46.87859" lon="-2.12585">
        <ele>13.7</ele>
        <time>2020-06-04T10:41:33Z</time>
      </trkpt>
      <trkpt lat="46.87859" lon="-2.12589">
        <ele>13.9</ele>
        <time>2020-06-04T10:41:34Z</time>
      </trkpt>
      <trkpt lat="46.87859" lon="-2.12593">
        <ele>14.1</ele>
        <time>2020-06-04T10:41:35Z</time>
      </trkpt>
      <trkpt lat="46.87859" lon="-2.12599">
        <ele>14.2</ele>
        <time>2020-06-04T10:41:36Z</time>
      </trkpt>
      <trkpt lat="46.87859" lon="-2.12604">
        <ele>14.3</ele>
        <time>2020-06-04T10:41:37Z</time>
      </trkpt>
      <trkpt lat="46.87858" lon="-2.12608">
        <ele>14.4</ele>
        <time>2020-06-04T10:41:38Z</time>
      </trkpt>
      <trkpt lat="46.87858" lon="-2.12613">
        <ele>14.5</ele>
        <time>2020-06-04T10:41:39Z</time>
      </trkpt>
      <trkpt lat="46.87859" lon="-2.12617">
        <ele>14.5</ele>
        <time>2020-06-04T10:41:40Z</time>
      </trkpt>
      <trkpt lat="46.87859" lon="-2.12621">
        <ele>14.5</ele>
        <time>2020-06-04T10:41:41Z</time>
      </trkpt>
      <trkpt lat="46.87859" lon="-2.12623">
        <ele>14.5</ele>
        <time>2020-06-04T10:41:42Z</time>
      </trkpt>
      <trkpt lat="46.87857" lon="-2.12627">
        <ele>14.5</ele>
        <time>2020-06-04T10:41:43Z</time>
      </trkpt>
      <trkpt lat="46.87857" lon="-2.12628">
        <ele>14.5</ele>
        <time>2020-06-04T10:41:44Z</time>
      </trkpt>
      <trkpt lat="46.87856" lon="-2.12632">
        <ele>14.5</ele>
        <time>2020-06-04T10:41:45Z</time>
      </trkpt>
      <trkpt lat="46.87856" lon="-2.12634">
        <ele>14.5</ele>
        <time>2020-06-04T10:41:46Z</time>
      </trkpt>
      <trkpt lat="46.87855" lon="-2.12639">
        <ele>14.4</ele>
        <time>2020-06-04T10:41:47Z</time>
      </trkpt>
      <trkpt lat="46.87854" lon="-2.12645">
        <ele>14.3</ele>
        <time>2020-06-04T10:41:48Z</time>
      </trkpt>
      <trkpt lat="46.87853" lon="-2.12652">
        <ele>14.2</ele>
        <time>2020-06-04T10:41:49Z</time>
      </trkpt>
      <trkpt lat="46.87853" lon="-2.12658">
        <ele>14.1</ele>
        <time>2020-06-04T10:41:50Z</time>
      </trkpt>
      <trkpt lat="46.87852" lon="-2.12667">
        <ele>14</ele>
        <time>2020-06-04T10:41:51Z</time>
      </trkpt>
      <trkpt lat="46.87851" lon="-2.12676">
        <ele>13.5</ele>
        <time>2020-06-04T10:41:52Z</time>
      </trkpt>
      <trkpt lat="46.8785" lon="-2.12686">
        <ele>12.9</ele>
        <time>2020-06-04T10:41:53Z</time>
      </trkpt>
      <trkpt lat="46.8785" lon="-2.12697">
        <ele>12.2</ele>
        <time>2020-06-04T10:41:54Z</time>
      </trkpt>
      <trkpt lat="46.87848" lon="-2.12708">
        <ele>11.5</ele>
        <time>2020-06-04T10:41:55Z</time>
      </trkpt>
      <trkpt lat="46.87846" lon="-2.12719">
        <ele>10.7</ele>
        <time>2020-06-04T10:41:56Z</time>
      </trkpt>
      <trkpt lat="46.87844" lon="-2.12731">
        <ele>9.9</ele>
        <time>2020-06-04T10:41:57Z</time>
      </trkpt>
      <trkpt lat="46.87843" lon="-2.12745">
        <ele>9</ele>
        <time>2020-06-04T10:41:58Z</time>
      </trkpt>
      <trkpt lat="46.87843" lon="-2.1276">
        <ele>8.2</ele>
        <time>2020-06-04T10:41:59Z</time>
      </trkpt>
      <trkpt lat="46.87845" lon="-2.12774">
        <ele>7.7</ele>
        <time>2020-06-04T10:42:00Z</time>
      </trkpt>
      <trkpt lat="46.87845" lon="-2.12791">
        <ele>7.3</ele>
        <time>2020-06-04T10:42:01Z</time>
      </trkpt>
      <trkpt lat="46.87846" lon="-2.12808">
        <ele>7.2</ele>
        <time>2020-06-04T10:42:02Z</time>
      </trkpt>
      <trkpt lat="46.87847" lon="-2.12826">
        <ele>7.3</ele>
        <time>2020-06-04T10:42:03Z</time>
      </trkpt>
      <trkpt lat="46.87848" lon="-2.12839">
        <ele>7.4</ele>
        <time>2020-06-04T10:42:04Z</time>
      </trkpt>
      <trkpt lat="46.87848" lon="-2.1285">
        <ele>7.5</ele>
        <time>2020-06-04T10:42:05Z</time>
      </trkpt>
      <trkpt lat="46.87848" lon="-2.1286">
        <ele>7.6</ele>
        <time>2020-06-04T10:42:06Z</time>
      </trkpt>
      <trkpt lat="46.87847" lon="-2.12869">
        <ele>7.6</ele>
        <time>2020-06-04T10:42:07Z</time>
      </trkpt>
      <trkpt lat="46.87848" lon="-2.12878">
        <ele>7.7</ele>
        <time>2020-06-04T10:42:08Z</time>
      </trkpt>
      <trkpt lat="46.87848" lon="-2.12887">
        <ele>7.7</ele>
        <time>2020-06-04T10:42:09Z</time>
      </trkpt>
      <trkpt lat="46.87849" lon="-2.12896">
        <ele>7.8</ele>
        <time>2020-06-04T10:42:10Z</time>
      </trkpt>
      <trkpt lat="46.8785" lon="-2.12906">
        <ele>7.8</ele>
        <time>2020-06-04T10:42:11Z</time>
      </trkpt>
      <trkpt lat="46.8785" lon="-2.12917">
        <ele>7.9</ele>
        <time>2020-06-04T10:42:12Z</time>
      </trkpt>
      <trkpt lat="46.87851" lon="-2.12927">
        <ele>8</ele>
        <time>2020-06-04T10:42:13Z</time>
      </trkpt>
      <trkpt lat="46.87852" lon="-2.12937">
        <ele>8.2</ele>
        <time>2020-06-04T10:42:14Z</time>
      </trkpt>
      <trkpt lat="46.87852" lon="-2.12946">
        <ele>8.4</ele>
        <time>2020-06-04T10:42:15Z</time>
      </trkpt>
      <trkpt lat="46.87853" lon="-2.12955">
        <ele>8.6</ele>
        <time>2020-06-04T10:42:16Z</time>
      </trkpt>
      <trkpt lat="46.87854" lon="-2.12964">
        <ele>9</ele>
        <time>2020-06-04T10:42:17Z</time>
      </trkpt>
      <trkpt lat="46.87855" lon="-2.12971">
        <ele>9.4</ele>
        <time>2020-06-04T10:42:18Z</time>
      </trkpt>
      <trkpt lat="46.87856" lon="-2.12978">
        <ele>9.7</ele>
        <time>2020-06-04T10:42:19Z</time>
      </trkpt>
      <trkpt lat="46.87856" lon="-2.12985">
        <ele>10.1</ele>
        <time>2020-06-04T10:42:20Z</time>
      </trkpt>
      <trkpt lat="46.87856" lon="-2.12991">
        <ele>10.5</ele>
        <time>2020-06-04T10:42:21Z</time>
      </trkpt>
      <trkpt lat="46.87857" lon="-2.12997">
        <ele>10.8</ele>
        <time>2020-06-04T10:42:22Z</time>
      </trkpt>
      <trkpt lat="46.87856" lon="-2.13002">
        <ele>11</ele>
        <time>2020-06-04T10:42:23Z</time>
      </trkpt>
      <trkpt lat="46.87855" lon="-2.13007">
        <ele>11.3</ele>
        <time>2020-06-04T10:42:24Z</time>
      </trkpt>
      <trkpt lat="46.87854" lon="-2.1301">
        <ele>11.5</ele>
        <time>2020-06-04T10:42:25Z</time>
      </trkpt>
      <trkpt lat="46.87852" lon="-2.13014">
        <ele>11.6</ele>
        <time>2020-06-04T10:42:26Z</time>
      </trkpt>
      <trkpt lat="46.8785" lon="-2.13019">
        <ele>11.8</ele>
        <time>2020-06-04T10:42:27Z</time>
      </trkpt>
      <trkpt lat="46.87847" lon="-2.13023">
        <ele>11.9</ele>
        <time>2020-06-04T10:42:28Z</time>
      </trkpt>
      <trkpt lat="46.87845" lon="-2.13027">
        <ele>12</ele>
        <time>2020-06-04T10:42:29Z</time>
      </trkpt>
      <trkpt lat="46.87843" lon="-2.13032">
        <ele>12.1</ele>
        <time>2020-06-04T10:42:30Z</time>
      </trkpt>
      <trkpt lat="46.87841" lon="-2.13036">
        <ele>12.1</ele>
        <time>2020-06-04T10:42:31Z</time>
      </trkpt>
      <trkpt lat="46.8784" lon="-2.13043">
        <ele>12</ele>
        <time>2020-06-04T10:42:32Z</time>
      </trkpt>
      <trkpt lat="46.87838" lon="-2.13048">
        <ele>11.9</ele>
        <time>2020-06-04T10:42:33Z</time>
      </trkpt>
      <trkpt lat="46.87836" lon="-2.13053">
        <ele>11.8</ele>
        <time>2020-06-04T10:42:34Z</time>
      </trkpt>
      <trkpt lat="46.87834" lon="-2.13058">
        <ele>11.7</ele>
        <time>2020-06-04T10:42:35Z</time>
      </trkpt>
      <trkpt lat="46.87831" lon="-2.13062">
        <ele>11.5</ele>
        <time>2020-06-04T10:42:36Z</time>
      </trkpt>
      <trkpt lat="46.87828" lon="-2.13067">
        <ele>11.3</ele>
        <time>2020-06-04T10:42:37Z</time>
      </trkpt>
      <trkpt lat="46.87825" lon="-2.1307">
        <ele>11.2</ele>
        <time>2020-06-04T10:42:38Z</time>
      </trkpt>
      <trkpt lat="46.87823" lon="-2.13074">
        <ele>11.1</ele>
        <time>2020-06-04T10:42:39Z</time>
      </trkpt>
      <trkpt lat="46.87822" lon="-2.13079">
        <ele>10.9</ele>
        <time>2020-06-04T10:42:40Z</time>
      </trkpt>
      <trkpt lat="46.87822" lon="-2.13084">
        <ele>10.8</ele>
        <time>2020-06-04T10:42:41Z</time>
      </trkpt>
      <trkpt lat="46.87821" lon="-2.13089">
        <ele>10.6</ele>
        <time>2020-06-04T10:42:42Z</time>
      </trkpt>
      <trkpt lat="46.87819" lon="-2.13094">
        <ele>10.4</ele>
        <time>2020-06-04T10:42:43Z</time>
      </trkpt>
      <trkpt lat="46.87817" lon="-2.13098">
        <ele>10.2</ele>
        <time>2020-06-04T10:42:44Z</time>
      </trkpt>
      <trkpt lat="46.87815" lon="-2.13104">
        <ele>10</ele>
        <time>2020-06-04T10:42:45Z</time>
      </trkpt>
      <trkpt lat="46.87813" lon="-2.13109">
        <ele>9.8</ele>
        <time>2020-06-04T10:42:46Z</time>
      </trkpt>
      <trkpt lat="46.87812" lon="-2.13115">
        <ele>9.5</ele>
        <time>2020-06-04T10:42:47Z</time>
      </trkpt>
      <trkpt lat="46.87811" lon="-2.1312">
        <ele>9.2</ele>
        <time>2020-06-04T10:42:48Z</time>
      </trkpt>
      <trkpt lat="46.8781" lon="-2.13125">
        <ele>9</ele>
        <time>2020-06-04T10:42:49Z</time>
      </trkpt>
      <trkpt lat="46.8781" lon="-2.1313">
        <ele>8.8</ele>
        <time>2020-06-04T10:42:50Z</time>
      </trkpt>
      <trkpt lat="46.8781" lon="-2.13136">
        <ele>8.6</ele>
        <time>2020-06-04T10:42:51Z</time>
      </trkpt>
      <trkpt lat="46.8781" lon="-2.13142">
        <ele>8.3</ele>
        <time>2020-06-04T10:42:52Z</time>
      </trkpt>
      <trkpt lat="46.8781" lon="-2.13149">
        <ele>8</ele>
        <time>2020-06-04T10:42:53Z</time>
      </trkpt>
      <trkpt lat="46.8781" lon="-2.13155">
        <ele>7.8</ele>
        <time>2020-06-04T10:42:54Z</time>
      </trkpt>
      <trkpt lat="46.8781" lon="-2.13162">
        <ele>7.5</ele>
        <time>2020-06-04T10:42:55Z</time>
      </trkpt>
      <trkpt lat="46.87811" lon="-2.13168">
        <ele>7.3</ele>
        <time>2020-06-04T10:42:56Z</time>
      </trkpt>
      <trkpt lat="46.87812" lon="-2.13173">
        <ele>7.2</ele>
        <time>2020-06-04T10:42:57Z</time>
      </trkpt>
      <trkpt lat="46.87812" lon="-2.13179">
        <ele>6.9</ele>
        <time>2020-06-04T10:42:58Z</time>
      </trkpt>
      <trkpt lat="46.87814" lon="-2.13185">
        <ele>6.8</ele>
        <time>2020-06-04T10:42:59Z</time>
      </trkpt>
      <trkpt lat="46.87815" lon="-2.13192">
        <ele>6.7</ele>
        <time>2020-06-04T10:43:00Z</time>
      </trkpt>
      <trkpt lat="46.87816" lon="-2.13198">
        <ele>6.5</ele>
        <time>2020-06-04T10:43:01Z</time>
      </trkpt>
      <trkpt lat="46.87819" lon="-2.13205">
        <ele>6.2</ele>
        <time>2020-06-04T10:43:02Z</time>
      </trkpt>
      <trkpt lat="46.87822" lon="-2.13213">
        <ele>6</ele>
        <time>2020-06-04T10:43:03Z</time>
      </trkpt>
      <trkpt lat="46.87825" lon="-2.1322">
        <ele>5.8</ele>
        <time>2020-06-04T10:43:04Z</time>
      </trkpt>
      <trkpt lat="46.87827" lon="-2.13228">
        <ele>5.6</ele>
        <time>2020-06-04T10:43:05Z</time>
      </trkpt>
      <trkpt lat="46.87829" lon="-2.13238">
        <ele>5.4</ele>
        <time>2020-06-04T10:43:06Z</time>
      </trkpt>
      <trkpt lat="46.87832" lon="-2.13246">
        <ele>5.2</ele>
        <time>2020-06-04T10:43:07Z</time>
      </trkpt>
      <trkpt lat="46.87836" lon="-2.13253">
        <ele>5</ele>
        <time>2020-06-04T10:43:08Z</time>
      </trkpt>
      <trkpt lat="46.87838" lon="-2.13262">
        <ele>4.9</ele>
        <time>2020-06-04T10:43:09Z</time>
      </trkpt>
      <trkpt lat="46.87841" lon="-2.1327">
        <ele>4.8</ele>
        <time>2020-06-04T10:43:10Z</time>
      </trkpt>
      <trkpt lat="46.87844" lon="-2.13279">
        <ele>4.7</ele>
        <time>2020-06-04T10:43:11Z</time>
      </trkpt>
      <trkpt lat="46.87847" lon="-2.13287">
        <ele>4.6</ele>
        <time>2020-06-04T10:43:12Z</time>
      </trkpt>
      <trkpt lat="46.87849" lon="-2.13295">
        <ele>4.5</ele>
        <time>2020-06-04T10:43:13Z</time>
      </trkpt>
      <trkpt lat="46.87852" lon="-2.13303">
        <ele>4.4</ele>
        <time>2020-06-04T10:43:14Z</time>
      </trkpt>
      <trkpt lat="46.87854" lon="-2.13312">
        <ele>4.4</ele>
        <time>2020-06-04T10:43:15Z</time>
      </trkpt>
      <trkpt lat="46.87855" lon="-2.13321">
        <ele>4.3</ele>
        <time>2020-06-04T10:43:16Z</time>
      </trkpt>
      <trkpt lat="46.87857" lon="-2.13329">
        <ele>4.3</ele>
        <time>2020-06-04T10:43:17Z</time>
      </trkpt>
      <trkpt lat="46.87858" lon="-2.13337">
        <ele>4.3</ele>
        <time>2020-06-04T10:43:18Z</time>
      </trkpt>
      <trkpt lat="46.87859" lon="-2.13345">
        <ele>4.3</ele>
        <time>2020-06-04T10:43:19Z</time>
      </trkpt>
      <trkpt lat="46.8786" lon="-2.13352">
        <ele>4.3</ele>
        <time>2020-06-04T10:43:20Z</time>
      </trkpt>
      <trkpt lat="46.87861" lon="-2.13358">
        <ele>4.3</ele>
        <time>2020-06-04T10:43:21Z</time>
      </trkpt>
      <trkpt lat="46.87862" lon="-2.13363">
        <ele>4.4</ele>
        <time>2020-06-04T10:43:22Z</time>
      </trkpt>
      <trkpt lat="46.87862" lon="-2.13369">
        <ele>4.4</ele>
        <time>2020-06-04T10:43:23Z</time>
      </trkpt>
      <trkpt lat="46.87864" lon="-2.13375">
        <ele>4.5</ele>
        <time>2020-06-04T10:43:24Z</time>
      </trkpt>
      <trkpt lat="46.87866" lon="-2.1338">
        <ele>4.6</ele>
        <time>2020-06-04T10:43:25Z</time>
      </trkpt>
      <trkpt lat="46.87867" lon="-2.13386">
        <ele>4.7</ele>
        <time>2020-06-04T10:43:26Z</time>
      </trkpt>
      <trkpt lat="46.87868" lon="-2.1339">
        <ele>4.8</ele>
        <time>2020-06-04T10:43:27Z</time>
      </trkpt>
      <trkpt lat="46.87869" lon="-2.13396">
        <ele>4.8</ele>
        <time>2020-06-04T10:43:28Z</time>
      </trkpt>
      <trkpt lat="46.8787" lon="-2.13401">
        <ele>4.9</ele>
        <time>2020-06-04T10:43:29Z</time>
      </trkpt>
      <trkpt lat="46.8787" lon="-2.13407">
        <ele>5</ele>
        <time>2020-06-04T10:43:30Z</time>
      </trkpt>
      <trkpt lat="46.87872" lon="-2.13411">
        <ele>5.1</ele>
        <time>2020-06-04T10:43:31Z</time>
      </trkpt>
      <trkpt lat="46.87873" lon="-2.13417">
        <ele>5.1</ele>
        <time>2020-06-04T10:43:32Z</time>
      </trkpt>
      <trkpt lat="46.87875" lon="-2.13422">
        <ele>5.2</ele>
        <time>2020-06-04T10:43:33Z</time>
      </trkpt>
      <trkpt lat="46.87875" lon="-2.13428">
        <ele>5.3</ele>
        <time>2020-06-04T10:43:34Z</time>
      </trkpt>
      <trkpt lat="46.87876" lon="-2.13434">
        <ele>5.4</ele>
        <time>2020-06-04T10:43:35Z</time>
      </trkpt>
      <trkpt lat="46.87878" lon="-2.1344">
        <ele>5.5</ele>
        <time>2020-06-04T10:43:36Z</time>
      </trkpt>
      <trkpt lat="46.87879" lon="-2.13445">
        <ele>5.6</ele>
        <time>2020-06-04T10:43:37Z</time>
      </trkpt>
      <trkpt lat="46.87881" lon="-2.13451">
        <ele>5.7</ele>
        <time>2020-06-04T10:43:38Z</time>
      </trkpt>
      <trkpt lat="46.87883" lon="-2.13457">
        <ele>5.8</ele>
        <time>2020-06-04T10:43:39Z</time>
      </trkpt>
      <trkpt lat="46.87883" lon="-2.13463">
        <ele>5.8</ele>
        <time>2020-06-04T10:43:40Z</time>
      </trkpt>
      <trkpt lat="46.87884" lon="-2.13467">
        <ele>5.9</ele>
        <time>2020-06-04T10:43:41Z</time>
      </trkpt>
      <trkpt lat="46.87886" lon="-2.13471">
        <ele>5.9</ele>
        <time>2020-06-04T10:43:42Z</time>
      </trkpt>
      <trkpt lat="46.87886" lon="-2.13475">
        <ele>6</ele>
        <time>2020-06-04T10:43:43Z</time>
      </trkpt>
      <trkpt lat="46.87885" lon="-2.1348">
        <ele>6.1</ele>
        <time>2020-06-04T10:43:44Z</time>
      </trkpt>
      <trkpt lat="46.87881" lon="-2.13483">
        <ele>6.1</ele>
        <time>2020-06-04T10:43:45Z</time>
      </trkpt>
      <trkpt lat="46.87878" lon="-2.13486">
        <ele>6.1</ele>
        <time>2020-06-04T10:43:46Z</time>
      </trkpt>
      <trkpt lat="46.87876" lon="-2.1349">
        <ele>6</ele>
        <time>2020-06-04T10:43:47Z</time>
      </trkpt>
      <trkpt lat="46.87874" lon="-2.13495">
        <ele>6</ele>
        <time>2020-06-04T10:43:48Z</time>
      </trkpt>
      <trkpt lat="46.87874" lon="-2.135">
        <ele>6</ele>
        <time>2020-06-04T10:43:49Z</time>
      </trkpt>
      <trkpt lat="46.87873" lon="-2.13505">
        <ele>6</ele>
        <time>2020-06-04T10:43:50Z</time>
      </trkpt>
      <trkpt lat="46.87873" lon="-2.1351">
        <ele>6.1</ele>
        <time>2020-06-04T10:43:51Z</time>
      </trkpt>
      <trkpt lat="46.87872" lon="-2.13515">
        <ele>6.1</ele>
        <time>2020-06-04T10:43:52Z</time>
      </trkpt>
      <trkpt lat="46.87871" lon="-2.13519">
        <ele>6.1</ele>
        <time>2020-06-04T10:43:53Z</time>
      </trkpt>
      <trkpt lat="46.8787" lon="-2.13525">
        <ele>6.1</ele>
        <time>2020-06-04T10:43:54Z</time>
      </trkpt>
      <trkpt lat="46.8787" lon="-2.13532">
        <ele>6.1</ele>
        <time>2020-06-04T10:43:55Z</time>
      </trkpt>
      <trkpt lat="46.8787" lon="-2.13538">
        <ele>6.1</ele>
        <time>2020-06-04T10:43:56Z</time>
      </trkpt>
      <trkpt lat="46.87869" lon="-2.13544">
        <ele>6.2</ele>
        <time>2020-06-04T10:43:57Z</time>
      </trkpt>
      <trkpt lat="46.87869" lon="-2.1355">
        <ele>6.2</ele>
        <time>2020-06-04T10:43:58Z</time>
      </trkpt>
      <trkpt lat="46.87869" lon="-2.13556">
        <ele>6.2</ele>
        <time>2020-06-04T10:43:59Z</time>
      </trkpt>
      <trkpt lat="46.87869" lon="-2.13562">
        <ele>6.2</ele>
        <time>2020-06-04T10:44:00Z</time>
      </trkpt>
      <trkpt lat="46.87869" lon="-2.13569">
        <ele>6.1</ele>
        <time>2020-06-04T10:44:01Z</time>
      </trkpt>
      <trkpt lat="46.8787" lon="-2.13576">
        <ele>6.1</ele>
        <time>2020-06-04T10:44:02Z</time>
      </trkpt>
      <trkpt lat="46.87873" lon="-2.13584">
        <ele>6</ele>
        <time>2020-06-04T10:44:03Z</time>
      </trkpt>
      <trkpt lat="46.87874" lon="-2.13591">
        <ele>5.9</ele>
        <time>2020-06-04T10:44:04Z</time>
      </trkpt>
      <trkpt lat="46.87876" lon="-2.13598">
        <ele>5.8</ele>
        <time>2020-06-04T10:44:05Z</time>
      </trkpt>
      <trkpt lat="46.87877" lon="-2.13605">
        <ele>5.7</ele>
        <time>2020-06-04T10:44:06Z</time>
      </trkpt>
      <trkpt lat="46.87878" lon="-2.13612">
        <ele>5.6</ele>
        <time>2020-06-04T10:44:07Z</time>
      </trkpt>
      <trkpt lat="46.87879" lon="-2.13618">
        <ele>5.6</ele>
        <time>2020-06-04T10:44:08Z</time>
      </trkpt>
      <trkpt lat="46.8788" lon="-2.13625">
        <ele>5.5</ele>
        <time>2020-06-04T10:44:09Z</time>
      </trkpt>
      <trkpt lat="46.87882" lon="-2.13631">
        <ele>5.4</ele>
        <time>2020-06-04T10:44:10Z</time>
      </trkpt>
      <trkpt lat="46.87884" lon="-2.13638">
        <ele>5.4</ele>
        <time>2020-06-04T10:44:11Z</time>
      </trkpt>
      <trkpt lat="46.87887" lon="-2.13644">
        <ele>5.3</ele>
        <time>2020-06-04T10:44:12Z</time>
      </trkpt>
      <trkpt lat="46.87889" lon="-2.1365">
        <ele>5.3</ele>
        <time>2020-06-04T10:44:13Z</time>
      </trkpt>
      <trkpt lat="46.87889" lon="-2.13657">
        <ele>5.3</ele>
        <time>2020-06-04T10:44:14Z</time>
      </trkpt>
      <trkpt lat="46.87888" lon="-2.13665">
        <ele>5.3</ele>
        <time>2020-06-04T10:44:15Z</time>
      </trkpt>
      <trkpt lat="46.87889" lon="-2.13672">
        <ele>5.3</ele>
        <time>2020-06-04T10:44:16Z</time>
      </trkpt>
      <trkpt lat="46.8789" lon="-2.1368">
        <ele>5.3</ele>
        <time>2020-06-04T10:44:17Z</time>
      </trkpt>
      <trkpt lat="46.8789" lon="-2.13687">
        <ele>5.3</ele>
        <time>2020-06-04T10:44:18Z</time>
      </trkpt>
      <trkpt lat="46.87891" lon="-2.13694">
        <ele>5.3</ele>
        <time>2020-06-04T10:44:19Z</time>
      </trkpt>
      <trkpt lat="46.87892" lon="-2.137">
        <ele>5.3</ele>
        <time>2020-06-04T10:44:20Z</time>
      </trkpt>
      <trkpt lat="46.87893" lon="-2.13706">
        <ele>5.3</ele>
        <time>2020-06-04T10:44:21Z</time>
      </trkpt>
      <trkpt lat="46.87895" lon="-2.13713">
        <ele>5.3</ele>
        <time>2020-06-04T10:44:22Z</time>
      </trkpt>
      <trkpt lat="46.87896" lon="-2.13719">
        <ele>5.3</ele>
        <time>2020-06-04T10:44:23Z</time>
      </trkpt>
      <trkpt lat="46.87897" lon="-2.13726">
        <ele>5.3</ele>
        <time>2020-06-04T10:44:24Z</time>
      </trkpt>
      <trkpt lat="46.87897" lon="-2.13733">
        <ele>5.3</ele>
        <time>2020-06-04T10:44:25Z</time>
      </trkpt>
      <trkpt lat="46.87898" lon="-2.13742">
        <ele>5.2</ele>
        <time>2020-06-04T10:44:26Z</time>
      </trkpt>
      <trkpt lat="46.87899" lon="-2.13749">
        <ele>5.2</ele>
        <time>2020-06-04T10:44:27Z</time>
      </trkpt>
      <trkpt lat="46.879" lon="-2.13759">
        <ele>5.2</ele>
        <time>2020-06-04T10:44:28Z</time>
      </trkpt>
      <trkpt lat="46.87901" lon="-2.1377">
        <ele>5.1</ele>
        <time>2020-06-04T10:44:29Z</time>
      </trkpt>
      <trkpt lat="46.87902" lon="-2.13779">
        <ele>5.1</ele>
        <time>2020-06-04T10:44:30Z</time>
      </trkpt>
      <trkpt lat="46.87901" lon="-2.13786">
        <ele>5.1</ele>
        <time>2020-06-04T10:44:31Z</time>
      </trkpt>
      <trkpt lat="46.87902" lon="-2.13798">
        <ele>5</ele>
        <time>2020-06-04T10:44:32Z</time>
      </trkpt>
      <trkpt lat="46.87902" lon="-2.13811">
        <ele>4.9</ele>
        <time>2020-06-04T10:44:33Z</time>
      </trkpt>
      <trkpt lat="46.87902" lon="-2.13823">
        <ele>4.9</ele>
        <time>2020-06-04T10:44:34Z</time>
      </trkpt>
      <trkpt lat="46.87901" lon="-2.13831">
        <ele>4.8</ele>
        <time>2020-06-04T10:44:35Z</time>
      </trkpt>
      <trkpt lat="46.879" lon="-2.1384">
        <ele>4.8</ele>
        <time>2020-06-04T10:44:36Z</time>
      </trkpt>
      <trkpt lat="46.87899" lon="-2.1385">
        <ele>4.8</ele>
        <time>2020-06-04T10:44:37Z</time>
      </trkpt>
      <trkpt lat="46.87899" lon="-2.1386">
        <ele>4.8</ele>
        <time>2020-06-04T10:44:38Z</time>
      </trkpt>
      <trkpt lat="46.87898" lon="-2.13869">
        <ele>4.8</ele>
        <time>2020-06-04T10:44:39Z</time>
      </trkpt>
      <trkpt lat="46.87898" lon="-2.13881">
        <ele>4.8</ele>
        <time>2020-06-04T10:44:40Z</time>
      </trkpt>
      <trkpt lat="46.87898" lon="-2.13891">
        <ele>4.8</ele>
        <time>2020-06-04T10:44:41Z</time>
      </trkpt>
      <trkpt lat="46.87897" lon="-2.13903">
        <ele>4.8</ele>
        <time>2020-06-04T10:44:42Z</time>
      </trkpt>
      <trkpt lat="46.87897" lon="-2.13911">
        <ele>4.8</ele>
        <time>2020-06-04T10:44:43Z</time>
      </trkpt>
      <trkpt lat="46.87898" lon="-2.13921">
        <ele>4.8</ele>
        <time>2020-06-04T10:44:44Z</time>
      </trkpt>
      <trkpt lat="46.87898" lon="-2.13929">
        <ele>4.7</ele>
        <time>2020-06-04T10:44:45Z</time>
      </trkpt>
      <trkpt lat="46.87898" lon="-2.13938">
        <ele>4.7</ele>
        <time>2020-06-04T10:44:46Z</time>
      </trkpt>
      <trkpt lat="46.87897" lon="-2.13945">
        <ele>4.7</ele>
        <time>2020-06-04T10:44:47Z</time>
      </trkpt>
      <trkpt lat="46.87897" lon="-2.13952">
        <ele>4.7</ele>
        <time>2020-06-04T10:44:48Z</time>
      </trkpt>
      <trkpt lat="46.87897" lon="-2.13959">
        <ele>4.7</ele>
        <time>2020-06-04T10:44:49Z</time>
      </trkpt>
      <trkpt lat="46.87893" lon="-2.13972">
        <ele>4.6</ele>
        <time>2020-06-04T10:44:50Z</time>
      </trkpt>
      <trkpt lat="46.87891" lon="-2.13983">
        <ele>4.6</ele>
        <time>2020-06-04T10:44:51Z</time>
      </trkpt>
      <trkpt lat="46.87889" lon="-2.13993">
        <ele>4.6</ele>
        <time>2020-06-04T10:44:52Z</time>
      </trkpt>
      <trkpt lat="46.87887" lon="-2.14">
        <ele>4.6</ele>
        <time>2020-06-04T10:44:53Z</time>
      </trkpt>
      <trkpt lat="46.87885" lon="-2.14007">
        <ele>4.6</ele>
        <time>2020-06-04T10:44:54Z</time>
      </trkpt>
      <trkpt lat="46.87884" lon="-2.14017">
        <ele>4.6</ele>
        <time>2020-06-04T10:44:55Z</time>
      </trkpt>
      <trkpt lat="46.87882" lon="-2.14023">
        <ele>4.6</ele>
        <time>2020-06-04T10:44:56Z</time>
      </trkpt>
      <trkpt lat="46.87881" lon="-2.14031">
        <ele>4.6</ele>
        <time>2020-06-04T10:44:57Z</time>
      </trkpt>
      <trkpt lat="46.8788" lon="-2.14039">
        <ele>4.6</ele>
        <time>2020-06-04T10:44:58Z</time>
      </trkpt>
      <trkpt lat="46.8788" lon="-2.14049">
        <ele>4.7</ele>
        <time>2020-06-04T10:44:59Z</time>
      </trkpt>
      <trkpt lat="46.87881" lon="-2.14056">
        <ele>4.7</ele>
        <time>2020-06-04T10:45:00Z</time>
      </trkpt>
      <trkpt lat="46.87882" lon="-2.14063">
        <ele>4.7</ele>
        <time>2020-06-04T10:45:01Z</time>
      </trkpt>
      <trkpt lat="46.87882" lon="-2.14072">
        <ele>4.7</ele>
        <time>2020-06-04T10:45:02Z</time>
      </trkpt>
      <trkpt lat="46.87883" lon="-2.14078">
        <ele>4.7</ele>
        <time>2020-06-04T10:45:03Z</time>
      </trkpt>
      <trkpt lat="46.87886" lon="-2.14087">
        <ele>4.7</ele>
        <time>2020-06-04T10:45:04Z</time>
      </trkpt>
      <trkpt lat="46.87887" lon="-2.14096">
        <ele>4.7</ele>
        <time>2020-06-04T10:45:05Z</time>
      </trkpt>
      <trkpt lat="46.87888" lon="-2.14103">
        <ele>4.7</ele>
        <time>2020-06-04T10:45:06Z</time>
      </trkpt>
      <trkpt lat="46.8789" lon="-2.14111">
        <ele>4.6</ele>
        <time>2020-06-04T10:45:07Z</time>
      </trkpt>
      <trkpt lat="46.87892" lon="-2.14117">
        <ele>4.6</ele>
        <time>2020-06-04T10:45:08Z</time>
      </trkpt>
      <trkpt lat="46.87894" lon="-2.14123">
        <ele>4.6</ele>
        <time>2020-06-04T10:45:09Z</time>
      </trkpt>
      <trkpt lat="46.87896" lon="-2.1413">
        <ele>4.5</ele>
        <time>2020-06-04T10:45:10Z</time>
      </trkpt>
      <trkpt lat="46.87898" lon="-2.14136">
        <ele>4.5</ele>
        <time>2020-06-04T10:45:11Z</time>
      </trkpt>
      <trkpt lat="46.879" lon="-2.14141">
        <ele>4.5</ele>
        <time>2020-06-04T10:45:12Z</time>
      </trkpt>
      <trkpt lat="46.87901" lon="-2.14146">
        <ele>4.5</ele>
        <time>2020-06-04T10:45:13Z</time>
      </trkpt>
      <trkpt lat="46.87904" lon="-2.14153">
        <ele>4.5</ele>
        <time>2020-06-04T10:45:14Z</time>
      </trkpt>
      <trkpt lat="46.87906" lon="-2.14157">
        <ele>4.5</ele>
        <time>2020-06-04T10:45:15Z</time>
      </trkpt>
      <trkpt lat="46.87908" lon="-2.1416">
        <ele>4.5</ele>
        <time>2020-06-04T10:45:16Z</time>
      </trkpt>
      <trkpt lat="46.8791" lon="-2.14165">
        <ele>4.4</ele>
        <time>2020-06-04T10:45:17Z</time>
      </trkpt>
      <trkpt lat="46.87912" lon="-2.1417">
        <ele>4.4</ele>
        <time>2020-06-04T10:45:18Z</time>
      </trkpt>
      <trkpt lat="46.87914" lon="-2.14173">
        <ele>4.4</ele>
        <time>2020-06-04T10:45:19Z</time>
      </trkpt>
      <trkpt lat="46.87917" lon="-2.14176">
        <ele>4.4</ele>
        <time>2020-06-04T10:45:20Z</time>
      </trkpt>
      <trkpt lat="46.8792" lon="-2.14179">
        <ele>4.4</ele>
        <time>2020-06-04T10:45:21Z</time>
      </trkpt>
      <trkpt lat="46.87921" lon="-2.14181">
        <ele>4.4</ele>
        <time>2020-06-04T10:45:22Z</time>
      </trkpt>
      <trkpt lat="46.87924" lon="-2.14183">
        <ele>4.5</ele>
        <time>2020-06-04T10:45:23Z</time>
      </trkpt>
      <trkpt lat="46.87926" lon="-2.14184">
        <ele>4.5</ele>
        <time>2020-06-04T10:45:24Z</time>
      </trkpt>
      <trkpt lat="46.87928" lon="-2.14186">
        <ele>4.5</ele>
        <time>2020-06-04T10:45:25Z</time>
      </trkpt>
      <trkpt lat="46.8793" lon="-2.1419">
        <ele>4.5</ele>
        <time>2020-06-04T10:45:26Z</time>
      </trkpt>
      <trkpt lat="46.87932" lon="-2.14194">
        <ele>4.5</ele>
        <time>2020-06-04T10:45:27Z</time>
      </trkpt>
      <trkpt lat="46.87934" lon="-2.14196">
        <ele>4.5</ele>
        <time>2020-06-04T10:45:28Z</time>
      </trkpt>
      <trkpt lat="46.87935" lon="-2.14196">
        <ele>4.6</ele>
        <time>2020-06-04T10:45:29Z</time>
      </trkpt>
      <trkpt lat="46.87938" lon="-2.14198">
        <ele>4.6</ele>
        <time>2020-06-04T10:45:30Z</time>
      </trkpt>
      <trkpt lat="46.87939" lon="-2.14198">
        <ele>4.7</ele>
        <time>2020-06-04T10:45:31Z</time>
      </trkpt>
      <trkpt lat="46.87943" lon="-2.14199">
        <ele>4.8</ele>
        <time>2020-06-04T10:45:32Z</time>
      </trkpt>
      <trkpt lat="46.87944" lon="-2.142">
        <ele>4.8</ele>
        <time>2020-06-04T10:45:33Z</time>
      </trkpt>
      <trkpt lat="46.87948" lon="-2.142">
        <ele>4.9</ele>
        <time>2020-06-04T10:45:34Z</time>
      </trkpt>
      <trkpt lat="46.87949" lon="-2.142">
        <ele>4.9</ele>
        <time>2020-06-04T10:45:35Z</time>
      </trkpt>
      <trkpt lat="46.87952" lon="-2.142">
        <ele>5</ele>
        <time>2020-06-04T10:45:36Z</time>
      </trkpt>
      <trkpt lat="46.87955" lon="-2.14202">
        <ele>5</ele>
        <time>2020-06-04T10:45:37Z</time>
      </trkpt>
      <trkpt lat="46.87958" lon="-2.14203">
        <ele>5.1</ele>
        <time>2020-06-04T10:45:38Z</time>
      </trkpt>
      <trkpt lat="46.87961" lon="-2.14203">
        <ele>5.2</ele>
        <time>2020-06-04T10:45:39Z</time>
      </trkpt>
      <trkpt lat="46.87965" lon="-2.14203">
        <ele>5.2</ele>
        <time>2020-06-04T10:45:40Z</time>
      </trkpt>
      <trkpt lat="46.87968" lon="-2.14202">
        <ele>5.3</ele>
        <time>2020-06-04T10:45:41Z</time>
      </trkpt>
      <trkpt lat="46.87971" lon="-2.14203">
        <ele>5.3</ele>
        <time>2020-06-04T10:45:42Z</time>
      </trkpt>
      <trkpt lat="46.87975" lon="-2.14206">
        <ele>5.4</ele>
        <time>2020-06-04T10:45:43Z</time>
      </trkpt>
      <trkpt lat="46.87978" lon="-2.14207">
        <ele>5.4</ele>
        <time>2020-06-04T10:45:44Z</time>
      </trkpt>
      <trkpt lat="46.87982" lon="-2.14207">
        <ele>5.5</ele>
        <time>2020-06-04T10:45:45Z</time>
      </trkpt>
      <trkpt lat="46.87986" lon="-2.14208">
        <ele>5.5</ele>
        <time>2020-06-04T10:45:46Z</time>
      </trkpt>
      <trkpt lat="46.8799" lon="-2.14209">
        <ele>5.5</ele>
        <time>2020-06-04T10:45:47Z</time>
      </trkpt>
      <trkpt lat="46.87994" lon="-2.1421">
        <ele>5.6</ele>
        <time>2020-06-04T10:45:48Z</time>
      </trkpt>
      <trkpt lat="46.87998" lon="-2.14211">
        <ele>5.6</ele>
        <time>2020-06-04T10:45:49Z</time>
      </trkpt>
      <trkpt lat="46.88002" lon="-2.14212">
        <ele>5.6</ele>
        <time>2020-06-04T10:45:50Z</time>
      </trkpt>
      <trkpt lat="46.88006" lon="-2.14213">
        <ele>5.6</ele>
        <time>2020-06-04T10:45:51Z</time>
      </trkpt>
      <trkpt lat="46.8801" lon="-2.14212">
        <ele>5.6</ele>
        <time>2020-06-04T10:45:52Z</time>
      </trkpt>
      <trkpt lat="46.88014" lon="-2.14214">
        <ele>5.6</ele>
        <time>2020-06-04T10:45:53Z</time>
      </trkpt>
      <trkpt lat="46.88018" lon="-2.14215">
        <ele>5.7</ele>
        <time>2020-06-04T10:45:54Z</time>
      </trkpt>
      <trkpt lat="46.88021" lon="-2.14215">
        <ele>5.7</ele>
        <time>2020-06-04T10:45:55Z</time>
      </trkpt>
      <trkpt lat="46.88025" lon="-2.14217">
        <ele>5.7</ele>
        <time>2020-06-04T10:45:56Z</time>
      </trkpt>
      <trkpt lat="46.88028" lon="-2.14217">
        <ele>5.7</ele>
        <time>2020-06-04T10:45:57Z</time>
      </trkpt>
      <trkpt lat="46.88031" lon="-2.14217">
        <ele>5.7</ele>
        <time>2020-06-04T10:45:58Z</time>
      </trkpt>
      <trkpt lat="46.88035" lon="-2.14217">
        <ele>5.7</ele>
        <time>2020-06-04T10:45:59Z</time>
      </trkpt>
      <trkpt lat="46.88039" lon="-2.14218">
        <ele>5.7</ele>
        <time>2020-06-04T10:46:00Z</time>
      </trkpt>
      <trkpt lat="46.88043" lon="-2.14218">
        <ele>5.7</ele>
        <time>2020-06-04T10:46:01Z</time>
      </trkpt>
      <trkpt lat="46.88047" lon="-2.14219">
        <ele>5.8</ele>
        <time>2020-06-04T10:46:02Z</time>
      </trkpt>
      <trkpt lat="46.88051" lon="-2.14221">
        <ele>5.8</ele>
        <time>2020-06-04T10:46:03Z</time>
      </trkpt>
      <trkpt lat="46.88055" lon="-2.14221">
        <ele>5.8</ele>
        <time>2020-06-04T10:46:04Z</time>
      </trkpt>
      <trkpt lat="46.88059" lon="-2.14221">
        <ele>5.9</ele>
        <time>2020-06-04T10:46:05Z</time>
      </trkpt>
      <trkpt lat="46.88062" lon="-2.14221">
        <ele>5.9</ele>
        <time>2020-06-04T10:46:06Z</time>
      </trkpt>
      <trkpt lat="46.88066" lon="-2.14223">
        <ele>6</ele>
        <time>2020-06-04T10:46:07Z</time>
      </trkpt>
      <trkpt lat="46.8807" lon="-2.14224">
        <ele>6</ele>
        <time>2020-06-04T10:46:08Z</time>
      </trkpt>
      <trkpt lat="46.88074" lon="-2.14223">
        <ele>6.1</ele>
        <time>2020-06-04T10:46:09Z</time>
      </trkpt>
      <trkpt lat="46.88078" lon="-2.14223">
        <ele>6.1</ele>
        <time>2020-06-04T10:46:10Z</time>
      </trkpt>
      <trkpt lat="46.88081" lon="-2.14224">
        <ele>6.1</ele>
        <time>2020-06-04T10:46:11Z</time>
      </trkpt>
      <trkpt lat="46.88085" lon="-2.14224">
        <ele>6.2</ele>
        <time>2020-06-04T10:46:12Z</time>
      </trkpt>
      <trkpt lat="46.88089" lon="-2.14225">
        <ele>6.2</ele>
        <time>2020-06-04T10:46:13Z</time>
      </trkpt>
      <trkpt lat="46.88093" lon="-2.14226">
        <ele>6.3</ele>
        <time>2020-06-04T10:46:14Z</time>
      </trkpt>
      <trkpt lat="46.88096" lon="-2.14226">
        <ele>6.3</ele>
        <time>2020-06-04T10:46:15Z</time>
      </trkpt>
      <trkpt lat="46.881" lon="-2.14228">
        <ele>6.3</ele>
        <time>2020-06-04T10:46:16Z</time>
      </trkpt>
      <trkpt lat="46.88103" lon="-2.14229">
        <ele>6.4</ele>
        <time>2020-06-04T10:46:17Z</time>
      </trkpt>
      <trkpt lat="46.88106" lon="-2.1423">
        <ele>6.4</ele>
        <time>2020-06-04T10:46:18Z</time>
      </trkpt>
      <trkpt lat="46.8811" lon="-2.14231">
        <ele>6.4</ele>
        <time>2020-06-04T10:46:19Z</time>
      </trkpt>
      <trkpt lat="46.88113" lon="-2.14232">
        <ele>6.4</ele>
        <time>2020-06-04T10:46:20Z</time>
      </trkpt>
      <trkpt lat="46.88117" lon="-2.14233">
        <ele>6.4</ele>
        <time>2020-06-04T10:46:21Z</time>
      </trkpt>
      <trkpt lat="46.88121" lon="-2.14234">
        <ele>6.5</ele>
        <time>2020-06-04T10:46:22Z</time>
      </trkpt>
      <trkpt lat="46.88125" lon="-2.14234">
        <ele>6.4</ele>
        <time>2020-06-04T10:46:23Z</time>
      </trkpt>
      <trkpt lat="46.88128" lon="-2.14235">
        <ele>6.4</ele>
        <time>2020-06-04T10:46:24Z</time>
      </trkpt>
      <trkpt lat="46.88132" lon="-2.14235">
        <ele>6.4</ele>
        <time>2020-06-04T10:46:25Z</time>
      </trkpt>
      <trkpt lat="46.88136" lon="-2.14236">
        <ele>6.4</ele>
        <time>2020-06-04T10:46:26Z</time>
      </trkpt>
      <trkpt lat="46.8814" lon="-2.14236">
        <ele>6.3</ele>
        <time>2020-06-04T10:46:27Z</time>
      </trkpt>
      <trkpt lat="46.88144" lon="-2.14236">
        <ele>6.3</ele>
        <time>2020-06-04T10:46:28Z</time>
      </trkpt>
      <trkpt lat="46.88148" lon="-2.14236">
        <ele>6.2</ele>
        <time>2020-06-04T10:46:29Z</time>
      </trkpt>
      <trkpt lat="46.88153" lon="-2.14235">
        <ele>6.1</ele>
        <time>2020-06-04T10:46:30Z</time>
      </trkpt>
      <trkpt lat="46.88158" lon="-2.14235">
        <ele>6</ele>
        <time>2020-06-04T10:46:31Z</time>
      </trkpt>
      <trkpt lat="46.88163" lon="-2.14236">
        <ele>5.9</ele>
        <time>2020-06-04T10:46:32Z</time>
      </trkpt>
      <trkpt lat="46.88168" lon="-2.14236">
        <ele>5.8</ele>
        <time>2020-06-04T10:46:33Z</time>
      </trkpt>
      <trkpt lat="46.88173" lon="-2.14237">
        <ele>5.6</ele>
        <time>2020-06-04T10:46:34Z</time>
      </trkpt>
      <trkpt lat="46.88178" lon="-2.14238">
        <ele>5.4</ele>
        <time>2020-06-04T10:46:35Z</time>
      </trkpt>
      <trkpt lat="46.88183" lon="-2.14239">
        <ele>5.3</ele>
        <time>2020-06-04T10:46:36Z</time>
      </trkpt>
      <trkpt lat="46.88188" lon="-2.14239">
        <ele>5.1</ele>
        <time>2020-06-04T10:46:37Z</time>
      </trkpt>
      <trkpt lat="46.88194" lon="-2.1424">
        <ele>4.9</ele>
        <time>2020-06-04T10:46:38Z</time>
      </trkpt>
      <trkpt lat="46.88199" lon="-2.14241">
        <ele>4.8</ele>
        <time>2020-06-04T10:46:39Z</time>
      </trkpt>
      <trkpt lat="46.88204" lon="-2.14243">
        <ele>4.6</ele>
        <time>2020-06-04T10:46:40Z</time>
      </trkpt>
      <trkpt lat="46.8821" lon="-2.14244">
        <ele>4.5</ele>
        <time>2020-06-04T10:46:41Z</time>
      </trkpt>
      <trkpt lat="46.88215" lon="-2.14245">
        <ele>4.4</ele>
        <time>2020-06-04T10:46:42Z</time>
      </trkpt>
      <trkpt lat="46.8822" lon="-2.14244">
        <ele>4.2</ele>
        <time>2020-06-04T10:46:43Z</time>
      </trkpt>
      <trkpt lat="46.88225" lon="-2.14242">
        <ele>4.1</ele>
        <time>2020-06-04T10:46:44Z</time>
      </trkpt>
      <trkpt lat="46.88231" lon="-2.14241">
        <ele>4</ele>
        <time>2020-06-04T10:46:45Z</time>
      </trkpt>
      <trkpt lat="46.88237" lon="-2.14241">
        <ele>3.8</ele>
        <time>2020-06-04T10:46:46Z</time>
      </trkpt>
      <trkpt lat="46.88243" lon="-2.1424">
        <ele>3.7</ele>
        <time>2020-06-04T10:46:47Z</time>
      </trkpt>
      <trkpt lat="46.88248" lon="-2.1424">
        <ele>3.7</ele>
        <time>2020-06-04T10:46:48Z</time>
      </trkpt>
      <trkpt lat="46.88253" lon="-2.1424">
        <ele>3.6</ele>
        <time>2020-06-04T10:46:49Z</time>
      </trkpt>
      <trkpt lat="46.88257" lon="-2.14239">
        <ele>3.6</ele>
        <time>2020-06-04T10:46:50Z</time>
      </trkpt>
      <trkpt lat="46.88262" lon="-2.14241">
        <ele>3.6</ele>
        <time>2020-06-04T10:46:51Z</time>
      </trkpt>
      <trkpt lat="46.88266" lon="-2.14243">
        <ele>3.6</ele>
        <time>2020-06-04T10:46:52Z</time>
      </trkpt>
      <trkpt lat="46.8827" lon="-2.14244">
        <ele>3.5</ele>
        <time>2020-06-04T10:46:53Z</time>
      </trkpt>
      <trkpt lat="46.88274" lon="-2.14245">
        <ele>3.5</ele>
        <time>2020-06-04T10:46:54Z</time>
      </trkpt>
      <trkpt lat="46.88278" lon="-2.14247">
        <ele>3.5</ele>
        <time>2020-06-04T10:46:55Z</time>
      </trkpt>
      <trkpt lat="46.88282" lon="-2.14251">
        <ele>3.5</ele>
        <time>2020-06-04T10:46:56Z</time>
      </trkpt>
      <trkpt lat="46.88287" lon="-2.14252">
        <ele>3.4</ele>
        <time>2020-06-04T10:46:57Z</time>
      </trkpt>
      <trkpt lat="46.88292" lon="-2.14255">
        <ele>3.4</ele>
        <time>2020-06-04T10:46:58Z</time>
      </trkpt>
      <trkpt lat="46.88296" lon="-2.14255">
        <ele>3.4</ele>
        <time>2020-06-04T10:46:59Z</time>
      </trkpt>
      <trkpt lat="46.88301" lon="-2.14257">
        <ele>3.4</ele>
        <time>2020-06-04T10:47:00Z</time>
      </trkpt>
      <trkpt lat="46.88304" lon="-2.14257">
        <ele>3.4</ele>
        <time>2020-06-04T10:47:01Z</time>
      </trkpt>
      <trkpt lat="46.88308" lon="-2.14256">
        <ele>3.4</ele>
        <time>2020-06-04T10:47:02Z</time>
      </trkpt>
      <trkpt lat="46.88312" lon="-2.14255">
        <ele>3.4</ele>
        <time>2020-06-04T10:47:03Z</time>
      </trkpt>
      <trkpt lat="46.88316" lon="-2.14255">
        <ele>3.4</ele>
        <time>2020-06-04T10:47:04Z</time>
      </trkpt>
      <trkpt lat="46.88321" lon="-2.14257">
        <ele>3.4</ele>
        <time>2020-06-04T10:47:05Z</time>
      </trkpt>
      <trkpt lat="46.88324" lon="-2.14261">
        <ele>3.4</ele>
        <time>2020-06-04T10:47:06Z</time>
      </trkpt>
      <trkpt lat="46.88327" lon="-2.14266">
        <ele>3.3</ele>
        <time>2020-06-04T10:47:07Z</time>
      </trkpt>
      <trkpt lat="46.88329" lon="-2.14271">
        <ele>3.3</ele>
        <time>2020-06-04T10:47:08Z</time>
      </trkpt>
      <trkpt lat="46.88332" lon="-2.14277">
        <ele>3.3</ele>
        <time>2020-06-04T10:47:09Z</time>
      </trkpt>
      <trkpt lat="46.88334" lon="-2.14284">
        <ele>3.3</ele>
        <time>2020-06-04T10:47:10Z</time>
      </trkpt>
      <trkpt lat="46.88335" lon="-2.14291">
        <ele>3.3</ele>
        <time>2020-06-04T10:47:11Z</time>
      </trkpt>
      <trkpt lat="46.88338" lon="-2.14298">
        <ele>3.3</ele>
        <time>2020-06-04T10:47:12Z</time>
      </trkpt>
      <trkpt lat="46.8834" lon="-2.14304">
        <ele>3.3</ele>
        <time>2020-06-04T10:47:13Z</time>
      </trkpt>
      <trkpt lat="46.88341" lon="-2.14311">
        <ele>3.3</ele>
        <time>2020-06-04T10:47:14Z</time>
      </trkpt>
      <trkpt lat="46.88342" lon="-2.14317">
        <ele>3.3</ele>
        <time>2020-06-04T10:47:15Z</time>
      </trkpt>
      <trkpt lat="46.88343" lon="-2.14323">
        <ele>3.3</ele>
        <time>2020-06-04T10:47:16Z</time>
      </trkpt>
      <trkpt lat="46.88344" lon="-2.14329">
        <ele>3.3</ele>
        <time>2020-06-04T10:47:17Z</time>
      </trkpt>
      <trkpt lat="46.88345" lon="-2.14336">
        <ele>3.3</ele>
        <time>2020-06-04T10:47:18Z</time>
      </trkpt>
      <trkpt lat="46.88346" lon="-2.14343">
        <ele>3.3</ele>
        <time>2020-06-04T10:47:19Z</time>
      </trkpt>
      <trkpt lat="46.88348" lon="-2.1435">
        <ele>3.3</ele>
        <time>2020-06-04T10:47:20Z</time>
      </trkpt>
      <trkpt lat="46.8835" lon="-2.14357">
        <ele>3.2</ele>
        <time>2020-06-04T10:47:21Z</time>
      </trkpt>
      <trkpt lat="46.88352" lon="-2.14363">
        <ele>3.2</ele>
        <time>2020-06-04T10:47:22Z</time>
      </trkpt>
      <trkpt lat="46.88355" lon="-2.1437">
        <ele>3.2</ele>
        <time>2020-06-04T10:47:23Z</time>
      </trkpt>
      <trkpt lat="46.88357" lon="-2.14376">
        <ele>3.2</ele>
        <time>2020-06-04T10:47:24Z</time>
      </trkpt>
      <trkpt lat="46.88359" lon="-2.14382">
        <ele>3.2</ele>
        <time>2020-06-04T10:47:25Z</time>
      </trkpt>
      <trkpt lat="46.88362" lon="-2.14388">
        <ele>3.2</ele>
        <time>2020-06-04T10:47:26Z</time>
      </trkpt>
      <trkpt lat="46.88364" lon="-2.14394">
        <ele>3.2</ele>
        <time>2020-06-04T10:47:27Z</time>
      </trkpt>
      <trkpt lat="46.88366" lon="-2.144">
        <ele>3.2</ele>
        <time>2020-06-04T10:47:28Z</time>
      </trkpt>
      <trkpt lat="46.88368" lon="-2.14406">
        <ele>3.2</ele>
        <time>2020-06-04T10:47:29Z</time>
      </trkpt>
      <trkpt lat="46.88369" lon="-2.14412">
        <ele>3.2</ele>
        <time>2020-06-04T10:47:30Z</time>
      </trkpt>
      <trkpt lat="46.88369" lon="-2.14419">
        <ele>3.2</ele>
        <time>2020-06-04T10:47:31Z</time>
      </trkpt>
      <trkpt lat="46.8837" lon="-2.14425">
        <ele>3.2</ele>
        <time>2020-06-04T10:47:32Z</time>
      </trkpt>
      <trkpt lat="46.8837" lon="-2.14432">
        <ele>3.2</ele>
        <time>2020-06-04T10:47:33Z</time>
      </trkpt>
      <trkpt lat="46.88371" lon="-2.14439">
        <ele>3.2</ele>
        <time>2020-06-04T10:47:34Z</time>
      </trkpt>
      <trkpt lat="46.88371" lon="-2.14446">
        <ele>3.2</ele>
        <time>2020-06-04T10:47:35Z</time>
      </trkpt>
      <trkpt lat="46.88372" lon="-2.14452">
        <ele>3.2</ele>
        <time>2020-06-04T10:47:36Z</time>
      </trkpt>
      <trkpt lat="46.88373" lon="-2.14458">
        <ele>3.2</ele>
        <time>2020-06-04T10:47:37Z</time>
      </trkpt>
      <trkpt lat="46.88375" lon="-2.14464">
        <ele>3.2</ele>
        <time>2020-06-04T10:47:38Z</time>
      </trkpt>
      <trkpt lat="46.88375" lon="-2.14472">
        <ele>3.2</ele>
        <time>2020-06-04T10:47:39Z</time>
      </trkpt>
      <trkpt lat="46.88377" lon="-2.14478">
        <ele>3.3</ele>
        <time>2020-06-04T10:47:40Z</time>
      </trkpt>
      <trkpt lat="46.88378" lon="-2.14485">
        <ele>3.3</ele>
        <time>2020-06-04T10:47:41Z</time>
      </trkpt>
      <trkpt lat="46.88379" lon="-2.14493">
        <ele>3.3</ele>
        <time>2020-06-04T10:47:42Z</time>
      </trkpt>
      <trkpt lat="46.8838" lon="-2.145">
        <ele>3.3</ele>
        <time>2020-06-04T10:47:43Z</time>
      </trkpt>
      <trkpt lat="46.88381" lon="-2.14506">
        <ele>3.3</ele>
        <time>2020-06-04T10:47:44Z</time>
      </trkpt>
      <trkpt lat="46.88381" lon="-2.14513">
        <ele>3.4</ele>
        <time>2020-06-04T10:47:45Z</time>
      </trkpt>
      <trkpt lat="46.88383" lon="-2.14519">
        <ele>3.4</ele>
        <time>2020-06-04T10:47:46Z</time>
      </trkpt>
      <trkpt lat="46.88386" lon="-2.14524">
        <ele>3.4</ele>
        <time>2020-06-04T10:47:47Z</time>
      </trkpt>
      <trkpt lat="46.88387" lon="-2.1453">
        <ele>3.4</ele>
        <time>2020-06-04T10:47:48Z</time>
      </trkpt>
      <trkpt lat="46.88389" lon="-2.14536">
        <ele>3.4</ele>
        <time>2020-06-04T10:47:49Z</time>
      </trkpt>
      <trkpt lat="46.88391" lon="-2.14543">
        <ele>3.4</ele>
        <time>2020-06-04T10:47:50Z</time>
      </trkpt>
      <trkpt lat="46.88392" lon="-2.14549">
        <ele>3.5</ele>
        <time>2020-06-04T10:47:51Z</time>
      </trkpt>
      <trkpt lat="46.88393" lon="-2.14556">
        <ele>3.5</ele>
        <time>2020-06-04T10:47:52Z</time>
      </trkpt>
      <trkpt lat="46.88394" lon="-2.14563">
        <ele>3.5</ele>
        <time>2020-06-04T10:47:53Z</time>
      </trkpt>
      <trkpt lat="46.88395" lon="-2.1457">
        <ele>3.6</ele>
        <time>2020-06-04T10:47:54Z</time>
      </trkpt>
      <trkpt lat="46.88395" lon="-2.14576">
        <ele>3.6</ele>
        <time>2020-06-04T10:47:55Z</time>
      </trkpt>
      <trkpt lat="46.88395" lon="-2.14582">
        <ele>3.7</ele>
        <time>2020-06-04T10:47:56Z</time>
      </trkpt>
      <trkpt lat="46.88397" lon="-2.14588">
        <ele>3.7</ele>
        <time>2020-06-04T10:47:57Z</time>
      </trkpt>
      <trkpt lat="46.88398" lon="-2.14594">
        <ele>3.7</ele>
        <time>2020-06-04T10:47:58Z</time>
      </trkpt>
      <trkpt lat="46.88398" lon="-2.14602">
        <ele>3.8</ele>
        <time>2020-06-04T10:47:59Z</time>
      </trkpt>
      <trkpt lat="46.88399" lon="-2.14609">
        <ele>3.9</ele>
        <time>2020-06-04T10:48:00Z</time>
      </trkpt>
      <trkpt lat="46.884" lon="-2.14617">
        <ele>3.9</ele>
        <time>2020-06-04T10:48:01Z</time>
      </trkpt>
      <trkpt lat="46.88401" lon="-2.14624">
        <ele>4</ele>
        <time>2020-06-04T10:48:02Z</time>
      </trkpt>
      <trkpt lat="46.88402" lon="-2.14632">
        <ele>4.1</ele>
        <time>2020-06-04T10:48:03Z</time>
      </trkpt>
      <trkpt lat="46.88402" lon="-2.14639">
        <ele>4.2</ele>
        <time>2020-06-04T10:48:04Z</time>
      </trkpt>
      <trkpt lat="46.884" lon="-2.14646">
        <ele>4.2</ele>
        <time>2020-06-04T10:48:05Z</time>
      </trkpt>
      <trkpt lat="46.88399" lon="-2.14652">
        <ele>4.3</ele>
        <time>2020-06-04T10:48:06Z</time>
      </trkpt>
      <trkpt lat="46.88399" lon="-2.14657">
        <ele>4.3</ele>
        <time>2020-06-04T10:48:07Z</time>
      </trkpt>
      <trkpt lat="46.884" lon="-2.14663">
        <ele>4.4</ele>
        <time>2020-06-04T10:48:08Z</time>
      </trkpt>
      <trkpt lat="46.884" lon="-2.14668">
        <ele>4.4</ele>
        <time>2020-06-04T10:48:09Z</time>
      </trkpt>
      <trkpt lat="46.884" lon="-2.14675">
        <ele>4.4</ele>
        <time>2020-06-04T10:48:10Z</time>
      </trkpt>
      <trkpt lat="46.884" lon="-2.14683">
        <ele>4.5</ele>
        <time>2020-06-04T10:48:11Z</time>
      </trkpt>
      <trkpt lat="46.88401" lon="-2.1469">
        <ele>4.5</ele>
        <time>2020-06-04T10:48:12Z</time>
      </trkpt>
      <trkpt lat="46.88401" lon="-2.14697">
        <ele>4.5</ele>
        <time>2020-06-04T10:48:13Z</time>
      </trkpt>
      <trkpt lat="46.88402" lon="-2.14704">
        <ele>4.5</ele>
        <time>2020-06-04T10:48:14Z</time>
      </trkpt>
      <trkpt lat="46.88402" lon="-2.14711">
        <ele>4.6</ele>
        <time>2020-06-04T10:48:15Z</time>
      </trkpt>
      <trkpt lat="46.88402" lon="-2.14718">
        <ele>4.6</ele>
        <time>2020-06-04T10:48:16Z</time>
      </trkpt>
      <trkpt lat="46.88402" lon="-2.14725">
        <ele>4.6</ele>
        <time>2020-06-04T10:48:17Z</time>
      </trkpt>
      <trkpt lat="46.88402" lon="-2.14733">
        <ele>4.6</ele>
        <time>2020-06-04T10:48:18Z</time>
      </trkpt>
      <trkpt lat="46.88404" lon="-2.1474">
        <ele>4.6</ele>
        <time>2020-06-04T10:48:19Z</time>
      </trkpt>
      <trkpt lat="46.88405" lon="-2.14747">
        <ele>4.6</ele>
        <time>2020-06-04T10:48:20Z</time>
      </trkpt>
      <trkpt lat="46.88408" lon="-2.14755">
        <ele>4.6</ele>
        <time>2020-06-04T10:48:21Z</time>
      </trkpt>
      <trkpt lat="46.8841" lon="-2.14763">
        <ele>4.7</ele>
        <time>2020-06-04T10:48:22Z</time>
      </trkpt>
      <trkpt lat="46.88411" lon="-2.14772">
        <ele>4.7</ele>
        <time>2020-06-04T10:48:23Z</time>
      </trkpt>
      <trkpt lat="46.88413" lon="-2.1478">
        <ele>4.7</ele>
        <time>2020-06-04T10:48:24Z</time>
      </trkpt>
      <trkpt lat="46.88414" lon="-2.14788">
        <ele>4.8</ele>
        <time>2020-06-04T10:48:25Z</time>
      </trkpt>
      <trkpt lat="46.88416" lon="-2.14795">
        <ele>4.8</ele>
        <time>2020-06-04T10:48:26Z</time>
      </trkpt>
      <trkpt lat="46.88417" lon="-2.14803">
        <ele>4.9</ele>
        <time>2020-06-04T10:48:27Z</time>
      </trkpt>
      <trkpt lat="46.88419" lon="-2.1481">
        <ele>5</ele>
        <time>2020-06-04T10:48:28Z</time>
      </trkpt>
      <trkpt lat="46.88421" lon="-2.14817">
        <ele>5</ele>
        <time>2020-06-04T10:48:29Z</time>
      </trkpt>
      <trkpt lat="46.88423" lon="-2.14823">
        <ele>5.1</ele>
        <time>2020-06-04T10:48:30Z</time>
      </trkpt>
      <trkpt lat="46.88425" lon="-2.14829">
        <ele>5.2</ele>
        <time>2020-06-04T10:48:31Z</time>
      </trkpt>
      <trkpt lat="46.88428" lon="-2.14835">
        <ele>5.3</ele>
        <time>2020-06-04T10:48:32Z</time>
      </trkpt>
      <trkpt lat="46.88429" lon="-2.14842">
        <ele>5.4</ele>
        <time>2020-06-04T10:48:33Z</time>
      </trkpt>
      <trkpt lat="46.88431" lon="-2.14848">
        <ele>5.6</ele>
        <time>2020-06-04T10:48:34Z</time>
      </trkpt>
      <trkpt lat="46.88434" lon="-2.14854">
        <ele>5.8</ele>
        <time>2020-06-04T10:48:35Z</time>
      </trkpt>
      <trkpt lat="46.88436" lon="-2.14859">
        <ele>5.9</ele>
        <time>2020-06-04T10:48:36Z</time>
      </trkpt>
      <trkpt lat="46.88439" lon="-2.14863">
        <ele>6.1</ele>
        <time>2020-06-04T10:48:37Z</time>
      </trkpt>
      <trkpt lat="46.88441" lon="-2.14868">
        <ele>6.3</ele>
        <time>2020-06-04T10:48:38Z</time>
      </trkpt>
      <trkpt lat="46.88442" lon="-2.14872">
        <ele>6.5</ele>
        <time>2020-06-04T10:48:39Z</time>
      </trkpt>
      <trkpt lat="46.88444" lon="-2.14876">
        <ele>6.6</ele>
        <time>2020-06-04T10:48:40Z</time>
      </trkpt>
      <trkpt lat="46.88446" lon="-2.14879">
        <ele>6.8</ele>
        <time>2020-06-04T10:48:41Z</time>
      </trkpt>
      <trkpt lat="46.88448" lon="-2.14882">
        <ele>6.9</ele>
        <time>2020-06-04T10:48:42Z</time>
      </trkpt>
      <trkpt lat="46.8845" lon="-2.14885">
        <ele>7.1</ele>
        <time>2020-06-04T10:48:43Z</time>
      </trkpt>
      <trkpt lat="46.88452" lon="-2.14889">
        <ele>7.2</ele>
        <time>2020-06-04T10:48:44Z</time>
      </trkpt>
      <trkpt lat="46.88454" lon="-2.14893">
        <ele>7.4</ele>
        <time>2020-06-04T10:48:45Z</time>
      </trkpt>
      <trkpt lat="46.88454" lon="-2.14898">
        <ele>7.5</ele>
        <time>2020-06-04T10:48:46Z</time>
      </trkpt>
      <trkpt lat="46.88454" lon="-2.14903">
        <ele>7.6</ele>
        <time>2020-06-04T10:48:47Z</time>
      </trkpt>
      <trkpt lat="46.88455" lon="-2.14908">
        <ele>7.7</ele>
        <time>2020-06-04T10:48:48Z</time>
      </trkpt>
      <trkpt lat="46.88456" lon="-2.14912">
        <ele>7.8</ele>
        <time>2020-06-04T10:48:49Z</time>
      </trkpt>
      <trkpt lat="46.88456" lon="-2.14914">
        <ele>7.8</ele>
        <time>2020-06-04T10:48:50Z</time>
      </trkpt>
      <trkpt lat="46.88457" lon="-2.14919">
        <ele>7.7</ele>
        <time>2020-06-04T10:48:51Z</time>
      </trkpt>
      <trkpt lat="46.88457" lon="-2.14922">
        <ele>7.7</ele>
        <time>2020-06-04T10:48:52Z</time>
      </trkpt>
      <trkpt lat="46.88457" lon="-2.14927">
        <ele>7.6</ele>
        <time>2020-06-04T10:48:53Z</time>
      </trkpt>
      <trkpt lat="46.88457" lon="-2.14929">
        <ele>7.6</ele>
        <time>2020-06-04T10:48:54Z</time>
      </trkpt>
      <trkpt lat="46.88457" lon="-2.14935">
        <ele>7.4</ele>
        <time>2020-06-04T10:48:55Z</time>
      </trkpt>
      <trkpt lat="46.88459" lon="-2.14938">
        <ele>7.3</ele>
        <time>2020-06-04T10:48:56Z</time>
      </trkpt>
      <trkpt lat="46.88462" lon="-2.14942">
        <ele>7.1</ele>
        <time>2020-06-04T10:48:57Z</time>
      </trkpt>
      <trkpt lat="46.88465" lon="-2.14946">
        <ele>6.9</ele>
        <time>2020-06-04T10:48:58Z</time>
      </trkpt>
      <trkpt lat="46.88467" lon="-2.14952">
        <ele>6.7</ele>
        <time>2020-06-04T10:48:59Z</time>
      </trkpt>
      <trkpt lat="46.8847" lon="-2.14957">
        <ele>6.5</ele>
        <time>2020-06-04T10:49:00Z</time>
      </trkpt>
      <trkpt lat="46.88473" lon="-2.14962">
        <ele>6.3</ele>
        <time>2020-06-04T10:49:01Z</time>
      </trkpt>
      <trkpt lat="46.88476" lon="-2.14967">
        <ele>6.1</ele>
        <time>2020-06-04T10:49:02Z</time>
      </trkpt>
      <trkpt lat="46.88479" lon="-2.14972">
        <ele>5.9</ele>
        <time>2020-06-04T10:49:03Z</time>
      </trkpt>
      <trkpt lat="46.88482" lon="-2.14977">
        <ele>5.8</ele>
        <time>2020-06-04T10:49:04Z</time>
      </trkpt>
      <trkpt lat="46.88485" lon="-2.14982">
        <ele>5.7</ele>
        <time>2020-06-04T10:49:05Z</time>
      </trkpt>
      <trkpt lat="46.88488" lon="-2.14988">
        <ele>5.5</ele>
        <time>2020-06-04T10:49:06Z</time>
      </trkpt>
      <trkpt lat="46.88492" lon="-2.14993">
        <ele>5.4</ele>
        <time>2020-06-04T10:49:07Z</time>
      </trkpt>
      <trkpt lat="46.88496" lon="-2.14998">
        <ele>5.4</ele>
        <time>2020-06-04T10:49:08Z</time>
      </trkpt>
      <trkpt lat="46.885" lon="-2.15003">
        <ele>5.3</ele>
        <time>2020-06-04T10:49:09Z</time>
      </trkpt>
      <trkpt lat="46.88504" lon="-2.15008">
        <ele>5.2</ele>
        <time>2020-06-04T10:49:10Z</time>
      </trkpt>
      <trkpt lat="46.88507" lon="-2.15013">
        <ele>5.2</ele>
        <time>2020-06-04T10:49:11Z</time>
      </trkpt>
      <trkpt lat="46.88511" lon="-2.15018">
        <ele>5.1</ele>
        <time>2020-06-04T10:49:12Z</time>
      </trkpt>
      <trkpt lat="46.88514" lon="-2.15022">
        <ele>5.1</ele>
        <time>2020-06-04T10:49:13Z</time>
      </trkpt>
      <trkpt lat="46.88517" lon="-2.15025">
        <ele>5</ele>
        <time>2020-06-04T10:49:14Z</time>
      </trkpt>
      <trkpt lat="46.88519" lon="-2.15026">
        <ele>4.9</ele>
        <time>2020-06-04T10:49:15Z</time>
      </trkpt>
      <trkpt lat="46.88522" lon="-2.15024">
        <ele>4.9</ele>
        <time>2020-06-04T10:49:16Z</time>
      </trkpt>
      <trkpt lat="46.88524" lon="-2.1502">
        <ele>4.9</ele>
        <time>2020-06-04T10:49:17Z</time>
      </trkpt>
      <trkpt lat="46.88525" lon="-2.15015">
        <ele>4.9</ele>
        <time>2020-06-04T10:49:18Z</time>
      </trkpt>
      <trkpt lat="46.88525" lon="-2.15014">
        <ele>4.9</ele>
        <time>2020-06-04T10:49:19Z</time>
      </trkpt>
      <trkpt lat="46.88524" lon="-2.15013">
        <ele>4.8</ele>
        <time>2020-06-04T10:49:20Z</time>
      </trkpt>
      <trkpt lat="46.88524" lon="-2.15012">
        <ele>4.8</ele>
        <time>2020-06-04T10:49:21Z</time>
      </trkpt>
      <trkpt lat="46.88524" lon="-2.15006">
        <ele>4.8</ele>
        <time>2020-06-04T10:49:22Z</time>
      </trkpt>
      <trkpt lat="46.88524" lon="-2.15">
        <ele>4.8</ele>
        <time>2020-06-04T10:49:23Z</time>
      </trkpt>
      <trkpt lat="46.88525" lon="-2.14991">
        <ele>4.7</ele>
        <time>2020-06-04T10:49:24Z</time>
      </trkpt>
      <trkpt lat="46.88526" lon="-2.14981">
        <ele>4.6</ele>
        <time>2020-06-04T10:49:25Z</time>
      </trkpt>
      <trkpt lat="46.88527" lon="-2.1497">
        <ele>4.6</ele>
        <time>2020-06-04T10:49:26Z</time>
      </trkpt>
      <trkpt lat="46.88527" lon="-2.14959">
        <ele>4.5</ele>
        <time>2020-06-04T10:49:27Z</time>
      </trkpt>
      <trkpt lat="46.88527" lon="-2.1495">
        <ele>4.5</ele>
        <time>2020-06-04T10:49:28Z</time>
      </trkpt>
      <trkpt lat="46.88526" lon="-2.14941">
        <ele>4.5</ele>
        <time>2020-06-04T10:49:29Z</time>
      </trkpt>
      <trkpt lat="46.88525" lon="-2.14932">
        <ele>4.6</ele>
        <time>2020-06-04T10:49:30Z</time>
      </trkpt>
      <trkpt lat="46.88525" lon="-2.14924">
        <ele>4.6</ele>
        <time>2020-06-04T10:49:31Z</time>
      </trkpt>
      <trkpt lat="46.88525" lon="-2.14918">
        <ele>4.6</ele>
        <time>2020-06-04T10:49:32Z</time>
      </trkpt>
      <trkpt lat="46.88525" lon="-2.14911">
        <ele>4.6</ele>
        <time>2020-06-04T10:49:33Z</time>
      </trkpt>
      <trkpt lat="46.88524" lon="-2.14905">
        <ele>4.6</ele>
        <time>2020-06-04T10:49:34Z</time>
      </trkpt>
      <trkpt lat="46.88523" lon="-2.14897">
        <ele>4.6</ele>
        <time>2020-06-04T10:49:35Z</time>
      </trkpt>
      <trkpt lat="46.88522" lon="-2.14891">
        <ele>4.6</ele>
        <time>2020-06-04T10:49:36Z</time>
      </trkpt>
      <trkpt lat="46.88521" lon="-2.14883">
        <ele>4.6</ele>
        <time>2020-06-04T10:49:37Z</time>
      </trkpt>
      <trkpt lat="46.88521" lon="-2.14875">
        <ele>4.5</ele>
        <time>2020-06-04T10:49:38Z</time>
      </trkpt>
      <trkpt lat="46.88521" lon="-2.14867">
        <ele>4.5</ele>
        <time>2020-06-04T10:49:39Z</time>
      </trkpt>
      <trkpt lat="46.88521" lon="-2.14859">
        <ele>4.4</ele>
        <time>2020-06-04T10:49:40Z</time>
      </trkpt>
      <trkpt lat="46.88521" lon="-2.14851">
        <ele>4.3</ele>
        <time>2020-06-04T10:49:41Z</time>
      </trkpt>
      <trkpt lat="46.88522" lon="-2.14842">
        <ele>4.3</ele>
        <time>2020-06-04T10:49:42Z</time>
      </trkpt>
      <trkpt lat="46.88523" lon="-2.14835">
        <ele>4.2</ele>
        <time>2020-06-04T10:49:43Z</time>
      </trkpt>
      <trkpt lat="46.88523" lon="-2.14828">
        <ele>4.2</ele>
        <time>2020-06-04T10:49:44Z</time>
      </trkpt>
      <trkpt lat="46.88523" lon="-2.14822">
        <ele>4.2</ele>
        <time>2020-06-04T10:49:45Z</time>
      </trkpt>
      <trkpt lat="46.88524" lon="-2.14814">
        <ele>4.2</ele>
        <time>2020-06-04T10:49:46Z</time>
      </trkpt>
      <trkpt lat="46.88525" lon="-2.14804">
        <ele>4.2</ele>
        <time>2020-06-04T10:49:47Z</time>
      </trkpt>
      <trkpt lat="46.88525" lon="-2.14796">
        <ele>4.2</ele>
        <time>2020-06-04T10:49:48Z</time>
      </trkpt>
      <trkpt lat="46.88525" lon="-2.14788">
        <ele>4.2</ele>
        <time>2020-06-04T10:49:49Z</time>
      </trkpt>
      <trkpt lat="46.88526" lon="-2.1478">
        <ele>4.2</ele>
        <time>2020-06-04T10:49:50Z</time>
      </trkpt>
      <trkpt lat="46.88525" lon="-2.14773">
        <ele>4.2</ele>
        <time>2020-06-04T10:49:51Z</time>
      </trkpt>
      <trkpt lat="46.88524" lon="-2.14767">
        <ele>4.2</ele>
        <time>2020-06-04T10:49:52Z</time>
      </trkpt>
      <trkpt lat="46.88523" lon="-2.1476">
        <ele>4.2</ele>
        <time>2020-06-04T10:49:53Z</time>
      </trkpt>
      <trkpt lat="46.88521" lon="-2.14754">
        <ele>4.2</ele>
        <time>2020-06-04T10:49:54Z</time>
      </trkpt>
      <trkpt lat="46.88519" lon="-2.14749">
        <ele>4.2</ele>
        <time>2020-06-04T10:49:55Z</time>
      </trkpt>
      <trkpt lat="46.88517" lon="-2.14742">
        <ele>4.2</ele>
        <time>2020-06-04T10:49:56Z</time>
      </trkpt>
      <trkpt lat="46.88516" lon="-2.14737">
        <ele>4.2</ele>
        <time>2020-06-04T10:49:57Z</time>
      </trkpt>
      <trkpt lat="46.88514" lon="-2.14731">
        <ele>4.2</ele>
        <time>2020-06-04T10:49:58Z</time>
      </trkpt>
      <trkpt lat="46.88513" lon="-2.14727">
        <ele>4.2</ele>
        <time>2020-06-04T10:49:59Z</time>
      </trkpt>
      <trkpt lat="46.88512" lon="-2.14722">
        <ele>4.2</ele>
        <time>2020-06-04T10:50:00Z</time>
      </trkpt>
      <trkpt lat="46.88511" lon="-2.14715">
        <ele>4.2</ele>
        <time>2020-06-04T10:50:01Z</time>
      </trkpt>
      <trkpt lat="46.88509" lon="-2.14708">
        <ele>4.2</ele>
        <time>2020-06-04T10:50:02Z</time>
      </trkpt>
      <trkpt lat="46.88508" lon="-2.14702">
        <ele>4.3</ele>
        <time>2020-06-04T10:50:03Z</time>
      </trkpt>
      <trkpt lat="46.88507" lon="-2.14697">
        <ele>4.3</ele>
        <time>2020-06-04T10:50:04Z</time>
      </trkpt>
      <trkpt lat="46.88506" lon="-2.14691">
        <ele>4.3</ele>
        <time>2020-06-04T10:50:05Z</time>
      </trkpt>
      <trkpt lat="46.88506" lon="-2.14683">
        <ele>4.3</ele>
        <time>2020-06-04T10:50:06Z</time>
      </trkpt>
      <trkpt lat="46.88505" lon="-2.14676">
        <ele>4.3</ele>
        <time>2020-06-04T10:50:07Z</time>
      </trkpt>
      <trkpt lat="46.88504" lon="-2.14669">
        <ele>4.3</ele>
        <time>2020-06-04T10:50:08Z</time>
      </trkpt>
      <trkpt lat="46.88504" lon="-2.14662">
        <ele>4.3</ele>
        <time>2020-06-04T10:50:09Z</time>
      </trkpt>
      <trkpt lat="46.88504" lon="-2.14657">
        <ele>4.3</ele>
        <time>2020-06-04T10:50:10Z</time>
      </trkpt>
      <trkpt lat="46.88504" lon="-2.14652">
        <ele>4.2</ele>
        <time>2020-06-04T10:50:11Z</time>
      </trkpt>
      <trkpt lat="46.88504" lon="-2.14647">
        <ele>4.2</ele>
        <time>2020-06-04T10:50:12Z</time>
      </trkpt>
      <trkpt lat="46.88503" lon="-2.14641">
        <ele>4.2</ele>
        <time>2020-06-04T10:50:13Z</time>
      </trkpt>
      <trkpt lat="46.88503" lon="-2.14637">
        <ele>4.1</ele>
        <time>2020-06-04T10:50:14Z</time>
      </trkpt>
      <trkpt lat="46.88503" lon="-2.14632">
        <ele>4.1</ele>
        <time>2020-06-04T10:50:15Z</time>
      </trkpt>
      <trkpt lat="46.88504" lon="-2.14625">
        <ele>4</ele>
        <time>2020-06-04T10:50:16Z</time>
      </trkpt>
      <trkpt lat="46.88504" lon="-2.14616">
        <ele>3.9</ele>
        <time>2020-06-04T10:50:17Z</time>
      </trkpt>
      <trkpt lat="46.88504" lon="-2.14605">
        <ele>3.8</ele>
        <time>2020-06-04T10:50:18Z</time>
      </trkpt>
      <trkpt lat="46.88504" lon="-2.14595">
        <ele>3.7</ele>
        <time>2020-06-04T10:50:19Z</time>
      </trkpt>
      <trkpt lat="46.88504" lon="-2.14584">
        <ele>3.6</ele>
        <time>2020-06-04T10:50:20Z</time>
      </trkpt>
      <trkpt lat="46.88504" lon="-2.14574">
        <ele>3.6</ele>
        <time>2020-06-04T10:50:21Z</time>
      </trkpt>
      <trkpt lat="46.88505" lon="-2.14565">
        <ele>3.5</ele>
        <time>2020-06-04T10:50:22Z</time>
      </trkpt>
      <trkpt lat="46.88505" lon="-2.14555">
        <ele>3.4</ele>
        <time>2020-06-04T10:50:23Z</time>
      </trkpt>
      <trkpt lat="46.88506" lon="-2.14545">
        <ele>3.4</ele>
        <time>2020-06-04T10:50:24Z</time>
      </trkpt>
      <trkpt lat="46.88508" lon="-2.14538">
        <ele>3.4</ele>
        <time>2020-06-04T10:50:25Z</time>
      </trkpt>
      <trkpt lat="46.8851" lon="-2.14531">
        <ele>3.3</ele>
        <time>2020-06-04T10:50:26Z</time>
      </trkpt>
      <trkpt lat="46.88511" lon="-2.14523">
        <ele>3.3</ele>
        <time>2020-06-04T10:50:27Z</time>
      </trkpt>
      <trkpt lat="46.88513" lon="-2.14516">
        <ele>3.3</ele>
        <time>2020-06-04T10:50:28Z</time>
      </trkpt>
      <trkpt lat="46.88514" lon="-2.14508">
        <ele>3.2</ele>
        <time>2020-06-04T10:50:29Z</time>
      </trkpt>
      <trkpt lat="46.88514" lon="-2.14501">
        <ele>3.2</ele>
        <time>2020-06-04T10:50:30Z</time>
      </trkpt>
      <trkpt lat="46.88514" lon="-2.14491">
        <ele>3.2</ele>
        <time>2020-06-04T10:50:31Z</time>
      </trkpt>
      <trkpt lat="46.88513" lon="-2.14483">
        <ele>3.2</ele>
        <time>2020-06-04T10:50:32Z</time>
      </trkpt>
      <trkpt lat="46.88513" lon="-2.14475">
        <ele>3.2</ele>
        <time>2020-06-04T10:50:33Z</time>
      </trkpt>
      <trkpt lat="46.88513" lon="-2.14468">
        <ele>3.2</ele>
        <time>2020-06-04T10:50:34Z</time>
      </trkpt>
      <trkpt lat="46.88512" lon="-2.1446">
        <ele>3.2</ele>
        <time>2020-06-04T10:50:35Z</time>
      </trkpt>
      <trkpt lat="46.88513" lon="-2.14456">
        <ele>3.2</ele>
        <time>2020-06-04T10:50:36Z</time>
      </trkpt>
      <trkpt lat="46.88513" lon="-2.1445">
        <ele>3.2</ele>
        <time>2020-06-04T10:50:37Z</time>
      </trkpt>
      <trkpt lat="46.88513" lon="-2.14443">
        <ele>3.2</ele>
        <time>2020-06-04T10:50:38Z</time>
      </trkpt>
      <trkpt lat="46.88514" lon="-2.14435">
        <ele>3.3</ele>
        <time>2020-06-04T10:50:39Z</time>
      </trkpt>
      <trkpt lat="46.88516" lon="-2.14428">
        <ele>3.3</ele>
        <time>2020-06-04T10:50:40Z</time>
      </trkpt>
      <trkpt lat="46.88517" lon="-2.14423">
        <ele>3.3</ele>
        <time>2020-06-04T10:50:41Z</time>
      </trkpt>
      <trkpt lat="46.88518" lon="-2.14416">
        <ele>3.4</ele>
        <time>2020-06-04T10:50:42Z</time>
      </trkpt>
      <trkpt lat="46.8852" lon="-2.14409">
        <ele>3.4</ele>
        <time>2020-06-04T10:50:43Z</time>
      </trkpt>
      <trkpt lat="46.88522" lon="-2.14404">
        <ele>3.4</ele>
        <time>2020-06-04T10:50:44Z</time>
      </trkpt>
      <trkpt lat="46.88526" lon="-2.14401">
        <ele>3.4</ele>
        <time>2020-06-04T10:50:45Z</time>
      </trkpt>
      <trkpt lat="46.8853" lon="-2.144">
        <ele>3.4</ele>
        <time>2020-06-04T10:50:46Z</time>
      </trkpt>
      <trkpt lat="46.88534" lon="-2.14397">
        <ele>3.5</ele>
        <time>2020-06-04T10:50:47Z</time>
      </trkpt>
      <trkpt lat="46.88538" lon="-2.14393">
        <ele>3.5</ele>
        <time>2020-06-04T10:50:48Z</time>
      </trkpt>
      <trkpt lat="46.88541" lon="-2.14389">
        <ele>3.5</ele>
        <time>2020-06-04T10:50:49Z</time>
      </trkpt>
      <trkpt lat="46.88546" lon="-2.14384">
        <ele>3.6</ele>
        <time>2020-06-04T10:50:50Z</time>
      </trkpt>
      <trkpt lat="46.8855" lon="-2.14379">
        <ele>3.6</ele>
        <time>2020-06-04T10:50:51Z</time>
      </trkpt>
      <trkpt lat="46.88553" lon="-2.14375">
        <ele>3.6</ele>
        <time>2020-06-04T10:50:52Z</time>
      </trkpt>
      <trkpt lat="46.88558" lon="-2.14372">
        <ele>3.7</ele>
        <time>2020-06-04T10:50:53Z</time>
      </trkpt>
      <trkpt lat="46.88561" lon="-2.14369">
        <ele>3.7</ele>
        <time>2020-06-04T10:50:54Z</time>
      </trkpt>
      <trkpt lat="46.88565" lon="-2.14367">
        <ele>3.7</ele>
        <time>2020-06-04T10:50:55Z</time>
      </trkpt>
      <trkpt lat="46.88567" lon="-2.14364">
        <ele>3.7</ele>
        <time>2020-06-04T10:50:56Z</time>
      </trkpt>
      <trkpt lat="46.88568" lon="-2.1436">
        <ele>3.7</ele>
        <time>2020-06-04T10:50:57Z</time>
      </trkpt>
      <trkpt lat="46.88566" lon="-2.14354">
        <ele>3.7</ele>
        <time>2020-06-04T10:50:58Z</time>
      </trkpt>
      <trkpt lat="46.88565" lon="-2.14346">
        <ele>3.7</ele>
        <time>2020-06-04T10:50:59Z</time>
      </trkpt>
      <trkpt lat="46.88565" lon="-2.14342">
        <ele>3.7</ele>
        <time>2020-06-04T10:51:00Z</time>
      </trkpt>
      <trkpt lat="46.88565" lon="-2.14335">
        <ele>3.7</ele>
        <time>2020-06-04T10:51:01Z</time>
      </trkpt>
      <trkpt lat="46.88566" lon="-2.14328">
        <ele>3.7</ele>
        <time>2020-06-04T10:51:02Z</time>
      </trkpt>
      <trkpt lat="46.88568" lon="-2.1432">
        <ele>3.6</ele>
        <time>2020-06-04T10:51:03Z</time>
      </trkpt>
      <trkpt lat="46.88568" lon="-2.14313">
        <ele>3.6</ele>
        <time>2020-06-04T10:51:04Z</time>
      </trkpt>
      <trkpt lat="46.88569" lon="-2.14306">
        <ele>3.6</ele>
        <time>2020-06-04T10:51:05Z</time>
      </trkpt>
      <trkpt lat="46.8857" lon="-2.143">
        <ele>3.6</ele>
        <time>2020-06-04T10:51:06Z</time>
      </trkpt>
      <trkpt lat="46.8857" lon="-2.14295">
        <ele>3.6</ele>
        <time>2020-06-04T10:51:07Z</time>
      </trkpt>
      <trkpt lat="46.8857" lon="-2.1429">
        <ele>3.6</ele>
        <time>2020-06-04T10:51:08Z</time>
      </trkpt>
      <trkpt lat="46.8857" lon="-2.14285">
        <ele>3.6</ele>
        <time>2020-06-04T10:51:09Z</time>
      </trkpt>
      <trkpt lat="46.88568" lon="-2.14283">
        <ele>3.6</ele>
        <time>2020-06-04T10:51:10Z</time>
      </trkpt>
      <trkpt lat="46.88569" lon="-2.1428">
        <ele>3.6</ele>
        <time>2020-06-04T10:51:11Z</time>
      </trkpt>
      <trkpt lat="46.8857" lon="-2.14279">
        <ele>3.6</ele>
        <time>2020-06-04T10:51:12Z</time>
      </trkpt>
      <trkpt lat="46.88571" lon="-2.14278">
        <ele>3.6</ele>
        <time>2020-06-04T10:51:13Z</time>
      </trkpt>
      <trkpt lat="46.88572" lon="-2.14277">
        <ele>3.6</ele>
        <time>2020-06-04T10:51:14Z</time>
      </trkpt>
      <trkpt lat="46.88573" lon="-2.14276">
        <ele>3.6</ele>
        <time>2020-06-04T10:51:15Z</time>
      </trkpt>
      <trkpt lat="46.88576" lon="-2.14277">
        <ele>3.6</ele>
        <time>2020-06-04T10:51:16Z</time>
      </trkpt>
      <trkpt lat="46.88578" lon="-2.14279">
        <ele>3.6</ele>
        <time>2020-06-04T10:51:17Z</time>
      </trkpt>
      <trkpt lat="46.8858" lon="-2.14282">
        <ele>3.6</ele>
        <time>2020-06-04T10:51:18Z</time>
      </trkpt>
      <trkpt lat="46.88583" lon="-2.14285">
        <ele>3.7</ele>
        <time>2020-06-04T10:51:19Z</time>
      </trkpt>
      <trkpt lat="46.88584" lon="-2.14285">
        <ele>3.7</ele>
        <time>2020-06-04T10:51:20Z</time>
      </trkpt>
      <trkpt lat="46.88587" lon="-2.14284">
        <ele>3.7</ele>
        <time>2020-06-04T10:51:21Z</time>
      </trkpt>
      <trkpt lat="46.8859" lon="-2.14283">
        <ele>3.7</ele>
        <time>2020-06-04T10:51:22Z</time>
      </trkpt>
      <trkpt lat="46.88591" lon="-2.14282">
        <ele>3.7</ele>
        <time>2020-06-04T10:51:23Z</time>
      </trkpt>
      <trkpt lat="46.88592" lon="-2.14282">
        <ele>3.7</ele>
        <time>2020-06-04T10:51:24Z</time>
      </trkpt>
      <trkpt lat="46.88593" lon="-2.14282">
        <ele>3.7</ele>
        <time>2020-06-04T10:51:25Z</time>
      </trkpt>
      <trkpt lat="46.88594" lon="-2.14282">
        <ele>3.7</ele>
        <time>2020-06-04T10:51:26Z</time>
      </trkpt>
      <trkpt lat="46.88597" lon="-2.14285">
        <ele>3.7</ele>
        <time>2020-06-04T10:51:27Z</time>
      </trkpt>
      <trkpt lat="46.88598" lon="-2.14286">
        <ele>3.7</ele>
        <time>2020-06-04T10:51:28Z</time>
      </trkpt>
      <trkpt lat="46.88598" lon="-2.14284">
        <ele>3.7</ele>
        <time>2020-06-04T10:51:29Z</time>
      </trkpt>
      <trkpt lat="46.88598" lon="-2.14284">
        <ele>3.7</ele>
        <time>2020-06-04T10:51:30Z</time>
      </trkpt>
      <trkpt lat="46.88598" lon="-2.14285">
        <ele>3.7</ele>
        <time>2020-06-04T10:51:31Z</time>
      </trkpt>
      <trkpt lat="46.88598" lon="-2.14285">
        <ele>3.7</ele>
        <time>2020-06-04T10:51:32Z</time>
      </trkpt>
      <trkpt lat="46.88598" lon="-2.14285">
        <ele>3.7</ele>
        <time>2020-06-04T10:51:33Z</time>
      </trkpt>
      <trkpt lat="46.88598" lon="-2.14285">
        <ele>3.7</ele>
        <time>2020-06-04T10:51:34Z</time>
      </trkpt>
      <trkpt lat="46.88598" lon="-2.14285">
        <ele>3.7</ele>
        <time>2020-06-04T10:51:35Z</time>
      </trkpt>
      <trkpt lat="46.88598" lon="-2.14285">
        <ele>3.7</ele>
        <time>2020-06-04T10:51:36Z</time>
      </trkpt>
      <trkpt lat="46.88598" lon="-2.14285">
        <ele>3.7</ele>
        <time>2020-06-04T10:51:37Z</time>
      </trkpt>
      <trkpt lat="46.88598" lon="-2.14285">
        <ele>3.7</ele>
        <time>2020-06-04T10:51:38Z</time>
      </trkpt>
      <trkpt lat="46.88598" lon="-2.14284">
        <ele>3.7</ele>
        <time>2020-06-04T10:51:39Z</time>
      </trkpt>
      <trkpt lat="46.88604" lon="-2.14282">
        <ele>3.7</ele>
        <time>2020-06-04T10:52:06Z</time>
      </trkpt>
      <trkpt lat="46.88605" lon="-2.14281">
        <ele>3.7</ele>
        <time>2020-06-04T10:52:07Z</time>
      </trkpt>
      <trkpt lat="46.88608" lon="-2.14279">
        <ele>3.6</ele>
        <time>2020-06-04T10:52:08Z</time>
      </trkpt>
      <trkpt lat="46.88609" lon="-2.14279">
        <ele>3.6</ele>
        <time>2020-06-04T10:52:09Z</time>
      </trkpt>
      <trkpt lat="46.88613" lon="-2.14279">
        <ele>3.6</ele>
        <time>2020-06-04T10:52:10Z</time>
      </trkpt>
      <trkpt lat="46.88614" lon="-2.14279">
        <ele>3.6</ele>
        <time>2020-06-04T10:52:11Z</time>
      </trkpt>
      <trkpt lat="46.88617" lon="-2.1428">
        <ele>3.6</ele>
        <time>2020-06-04T10:52:12Z</time>
      </trkpt>
      <trkpt lat="46.88619" lon="-2.1428">
        <ele>3.5</ele>
        <time>2020-06-04T10:52:13Z</time>
      </trkpt>
      <trkpt lat="46.88622" lon="-2.1428">
        <ele>3.5</ele>
        <time>2020-06-04T10:52:14Z</time>
      </trkpt>
      <trkpt lat="46.88624" lon="-2.1428">
        <ele>3.5</ele>
        <time>2020-06-04T10:52:15Z</time>
      </trkpt>
      <trkpt lat="46.88627" lon="-2.14281">
        <ele>3.5</ele>
        <time>2020-06-04T10:52:16Z</time>
      </trkpt>
      <trkpt lat="46.8863" lon="-2.14282">
        <ele>3.5</ele>
        <time>2020-06-04T10:52:17Z</time>
      </trkpt>
      <trkpt lat="46.88633" lon="-2.14282">
        <ele>3.5</ele>
        <time>2020-06-04T10:52:18Z</time>
      </trkpt>
      <trkpt lat="46.88636" lon="-2.14285">
        <ele>3.4</ele>
        <time>2020-06-04T10:52:19Z</time>
      </trkpt>
      <trkpt lat="46.88641" lon="-2.14286">
        <ele>3.5</ele>
        <time>2020-06-04T10:52:20Z</time>
      </trkpt>
      <trkpt lat="46.88646" lon="-2.14287">
        <ele>3.5</ele>
        <time>2020-06-04T10:52:21Z</time>
      </trkpt>
      <trkpt lat="46.88649" lon="-2.14289">
        <ele>3.5</ele>
        <time>2020-06-04T10:52:22Z</time>
      </trkpt>
      <trkpt lat="46.88653" lon="-2.1429">
        <ele>3.5</ele>
        <time>2020-06-04T10:52:23Z</time>
      </trkpt>
      <trkpt lat="46.88657" lon="-2.14291">
        <ele>3.5</ele>
        <time>2020-06-04T10:52:24Z</time>
      </trkpt>
      <trkpt lat="46.88662" lon="-2.14292">
        <ele>3.5</ele>
        <time>2020-06-04T10:52:25Z</time>
      </trkpt>
      <trkpt lat="46.88666" lon="-2.14292">
        <ele>3.5</ele>
        <time>2020-06-04T10:52:26Z</time>
      </trkpt>
      <trkpt lat="46.88671" lon="-2.14292">
        <ele>3.6</ele>
        <time>2020-06-04T10:52:27Z</time>
      </trkpt>
      <trkpt lat="46.88675" lon="-2.14292">
        <ele>3.6</ele>
        <time>2020-06-04T10:52:28Z</time>
      </trkpt>
      <trkpt lat="46.88679" lon="-2.14293">
        <ele>3.6</ele>
        <time>2020-06-04T10:52:29Z</time>
      </trkpt>
      <trkpt lat="46.88683" lon="-2.14293">
        <ele>3.6</ele>
        <time>2020-06-04T10:52:30Z</time>
      </trkpt>
      <trkpt lat="46.88687" lon="-2.14295">
        <ele>3.6</ele>
        <time>2020-06-04T10:52:31Z</time>
      </trkpt>
      <trkpt lat="46.88692" lon="-2.14296">
        <ele>3.7</ele>
        <time>2020-06-04T10:52:32Z</time>
      </trkpt>
      <trkpt lat="46.88696" lon="-2.14296">
        <ele>3.7</ele>
        <time>2020-06-04T10:52:33Z</time>
      </trkpt>
      <trkpt lat="46.887" lon="-2.14296">
        <ele>3.7</ele>
        <time>2020-06-04T10:52:34Z</time>
      </trkpt>
      <trkpt lat="46.88704" lon="-2.14296">
        <ele>3.7</ele>
        <time>2020-06-04T10:52:35Z</time>
      </trkpt>
      <trkpt lat="46.88708" lon="-2.14295">
        <ele>3.8</ele>
        <time>2020-06-04T10:52:36Z</time>
      </trkpt>
      <trkpt lat="46.88712" lon="-2.14295">
        <ele>3.8</ele>
        <time>2020-06-04T10:52:37Z</time>
      </trkpt>
      <trkpt lat="46.88717" lon="-2.14296">
        <ele>3.9</ele>
        <time>2020-06-04T10:52:38Z</time>
      </trkpt>
      <trkpt lat="46.88722" lon="-2.14297">
        <ele>3.9</ele>
        <time>2020-06-04T10:52:39Z</time>
      </trkpt>
      <trkpt lat="46.88727" lon="-2.14296">
        <ele>4</ele>
        <time>2020-06-04T10:52:40Z</time>
      </trkpt>
      <trkpt lat="46.88732" lon="-2.14296">
        <ele>4.1</ele>
        <time>2020-06-04T10:52:41Z</time>
      </trkpt>
      <trkpt lat="46.88735" lon="-2.14295">
        <ele>4.1</ele>
        <time>2020-06-04T10:52:42Z</time>
      </trkpt>
      <trkpt lat="46.88739" lon="-2.14296">
        <ele>4.2</ele>
        <time>2020-06-04T10:52:43Z</time>
      </trkpt>
      <trkpt lat="46.88744" lon="-2.14296">
        <ele>4.3</ele>
        <time>2020-06-04T10:52:44Z</time>
      </trkpt>
      <trkpt lat="46.88747" lon="-2.14297">
        <ele>4.3</ele>
        <time>2020-06-04T10:52:45Z</time>
      </trkpt>
      <trkpt lat="46.88751" lon="-2.14299">
        <ele>4.3</ele>
        <time>2020-06-04T10:52:46Z</time>
      </trkpt>
      <trkpt lat="46.88755" lon="-2.143">
        <ele>4.4</ele>
        <time>2020-06-04T10:52:47Z</time>
      </trkpt>
      <trkpt lat="46.88758" lon="-2.14301">
        <ele>4.4</ele>
        <time>2020-06-04T10:52:48Z</time>
      </trkpt>
      <trkpt lat="46.88762" lon="-2.14303">
        <ele>4.4</ele>
        <time>2020-06-04T10:52:49Z</time>
      </trkpt>
      <trkpt lat="46.88765" lon="-2.14303">
        <ele>4.4</ele>
        <time>2020-06-04T10:52:50Z</time>
      </trkpt>
      <trkpt lat="46.88769" lon="-2.14304">
        <ele>4.4</ele>
        <time>2020-06-04T10:52:51Z</time>
      </trkpt>
      <trkpt lat="46.88773" lon="-2.14304">
        <ele>4.4</ele>
        <time>2020-06-04T10:52:52Z</time>
      </trkpt>
      <trkpt lat="46.88778" lon="-2.14305">
        <ele>4.4</ele>
        <time>2020-06-04T10:52:53Z</time>
      </trkpt>
      <trkpt lat="46.88782" lon="-2.14306">
        <ele>4.4</ele>
        <time>2020-06-04T10:52:54Z</time>
      </trkpt>
      <trkpt lat="46.88786" lon="-2.14307">
        <ele>4.4</ele>
        <time>2020-06-04T10:52:55Z</time>
      </trkpt>
      <trkpt lat="46.8879" lon="-2.14307">
        <ele>4.4</ele>
        <time>2020-06-04T10:52:56Z</time>
      </trkpt>
      <trkpt lat="46.88795" lon="-2.14307">
        <ele>4.5</ele>
        <time>2020-06-04T10:52:57Z</time>
      </trkpt>
      <trkpt lat="46.888" lon="-2.14308">
        <ele>4.5</ele>
        <time>2020-06-04T10:52:58Z</time>
      </trkpt>
      <trkpt lat="46.88804" lon="-2.14308">
        <ele>4.5</ele>
        <time>2020-06-04T10:52:59Z</time>
      </trkpt>
      <trkpt lat="46.88808" lon="-2.14309">
        <ele>4.5</ele>
        <time>2020-06-04T10:53:00Z</time>
      </trkpt>
      <trkpt lat="46.88813" lon="-2.14309">
        <ele>4.6</ele>
        <time>2020-06-04T10:53:01Z</time>
      </trkpt>
      <trkpt lat="46.88818" lon="-2.1431">
        <ele>4.6</ele>
        <time>2020-06-04T10:53:02Z</time>
      </trkpt>
      <trkpt lat="46.88825" lon="-2.14311">
        <ele>4.8</ele>
        <time>2020-06-04T10:53:03Z</time>
      </trkpt>
      <trkpt lat="46.88831" lon="-2.14312">
        <ele>4.9</ele>
        <time>2020-06-04T10:53:04Z</time>
      </trkpt>
      <trkpt lat="46.88838" lon="-2.14313">
        <ele>5.2</ele>
        <time>2020-06-04T10:53:05Z</time>
      </trkpt>
      <trkpt lat="46.88845" lon="-2.14312">
        <ele>5.5</ele>
        <time>2020-06-04T10:53:06Z</time>
      </trkpt>
      <trkpt lat="46.8885" lon="-2.14312">
        <ele>5.8</ele>
        <time>2020-06-04T10:53:07Z</time>
      </trkpt>
      <trkpt lat="46.88855" lon="-2.14312">
        <ele>6.1</ele>
        <time>2020-06-04T10:53:08Z</time>
      </trkpt>
      <trkpt lat="46.88858" lon="-2.14311">
        <ele>6.4</ele>
        <time>2020-06-04T10:53:09Z</time>
      </trkpt>
      <trkpt lat="46.88862" lon="-2.14311">
        <ele>6.7</ele>
        <time>2020-06-04T10:53:10Z</time>
      </trkpt>
      <trkpt lat="46.88867" lon="-2.14311">
        <ele>7</ele>
        <time>2020-06-04T10:53:11Z</time>
      </trkpt>
      <trkpt lat="46.8887" lon="-2.14311">
        <ele>7.2</ele>
        <time>2020-06-04T10:53:12Z</time>
      </trkpt>
      <trkpt lat="46.88874" lon="-2.1431">
        <ele>7.5</ele>
        <time>2020-06-04T10:53:13Z</time>
      </trkpt>
      <trkpt lat="46.88875" lon="-2.1431">
        <ele>7.5</ele>
        <time>2020-06-04T10:53:14Z</time>
      </trkpt>
      <trkpt lat="46.8888" lon="-2.14309">
        <ele>7.7</ele>
        <time>2020-06-04T10:53:15Z</time>
      </trkpt>
      <trkpt lat="46.88881" lon="-2.14309">
        <ele>7.8</ele>
        <time>2020-06-04T10:53:16Z</time>
      </trkpt>
      <trkpt lat="46.88885" lon="-2.14307">
        <ele>8</ele>
        <time>2020-06-04T10:53:17Z</time>
      </trkpt>
      <trkpt lat="46.88889" lon="-2.14306">
        <ele>8.1</ele>
        <time>2020-06-04T10:53:18Z</time>
      </trkpt>
      <trkpt lat="46.88892" lon="-2.14306">
        <ele>8.2</ele>
        <time>2020-06-04T10:53:19Z</time>
      </trkpt>
      <trkpt lat="46.88896" lon="-2.14307">
        <ele>8.4</ele>
        <time>2020-06-04T10:53:20Z</time>
      </trkpt>
      <trkpt lat="46.88899" lon="-2.14309">
        <ele>8.5</ele>
        <time>2020-06-04T10:53:21Z</time>
      </trkpt>
      <trkpt lat="46.88902" lon="-2.14309">
        <ele>8.6</ele>
        <time>2020-06-04T10:53:22Z</time>
      </trkpt>
      <trkpt lat="46.88905" lon="-2.1431">
        <ele>8.7</ele>
        <time>2020-06-04T10:53:23Z</time>
      </trkpt>
      <trkpt lat="46.88908" lon="-2.14309">
        <ele>8.8</ele>
        <time>2020-06-04T10:53:24Z</time>
      </trkpt>
      <trkpt lat="46.88911" lon="-2.14309">
        <ele>8.9</ele>
        <time>2020-06-04T10:53:25Z</time>
      </trkpt>
      <trkpt lat="46.88914" lon="-2.1431">
        <ele>9</ele>
        <time>2020-06-04T10:53:26Z</time>
      </trkpt>
      <trkpt lat="46.88916" lon="-2.1431">
        <ele>9</ele>
        <time>2020-06-04T10:53:27Z</time>
      </trkpt>
      <trkpt lat="46.88919" lon="-2.14309">
        <ele>9.1</ele>
        <time>2020-06-04T10:53:28Z</time>
      </trkpt>
      <trkpt lat="46.88923" lon="-2.14309">
        <ele>9.2</ele>
        <time>2020-06-04T10:53:29Z</time>
      </trkpt>
      <trkpt lat="46.88926" lon="-2.14307">
        <ele>9.3</ele>
        <time>2020-06-04T10:53:30Z</time>
      </trkpt>
      <trkpt lat="46.88929" lon="-2.14305">
        <ele>9.4</ele>
        <time>2020-06-04T10:53:31Z</time>
      </trkpt>
      <trkpt lat="46.8893" lon="-2.14304">
        <ele>9.4</ele>
        <time>2020-06-04T10:53:32Z</time>
      </trkpt>
      <trkpt lat="46.88931" lon="-2.14302">
        <ele>9.4</ele>
        <time>2020-06-04T10:53:33Z</time>
      </trkpt>
      <trkpt lat="46.88932" lon="-2.143">
        <ele>9.4</ele>
        <time>2020-06-04T10:53:34Z</time>
      </trkpt>
      <trkpt lat="46.88932" lon="-2.14298">
        <ele>9.4</ele>
        <time>2020-06-04T10:53:35Z</time>
      </trkpt>
      <trkpt lat="46.88933" lon="-2.14296">
        <ele>9.4</ele>
        <time>2020-06-04T10:53:36Z</time>
      </trkpt>
      <trkpt lat="46.88934" lon="-2.14294">
        <ele>9.4</ele>
        <time>2020-06-04T10:53:37Z</time>
      </trkpt>
      <trkpt lat="46.88935" lon="-2.14293">
        <ele>9.4</ele>
        <time>2020-06-04T10:53:38Z</time>
      </trkpt>
      <trkpt lat="46.88936" lon="-2.14293">
        <ele>9.4</ele>
        <time>2020-06-04T10:53:39Z</time>
      </trkpt>
      <trkpt lat="46.88938" lon="-2.14293">
        <ele>9.4</ele>
        <time>2020-06-04T10:53:40Z</time>
      </trkpt>
      <trkpt lat="46.8894" lon="-2.14294">
        <ele>9.2</ele>
        <time>2020-06-04T10:53:41Z</time>
      </trkpt>
      <trkpt lat="46.8894" lon="-2.14294">
        <ele>9.2</ele>
        <time>2020-06-04T10:53:42Z</time>
      </trkpt>
      <trkpt lat="46.88941" lon="-2.14295">
        <ele>9.2</ele>
        <time>2020-06-04T10:53:43Z</time>
      </trkpt>
      <trkpt lat="46.88945" lon="-2.14293">
        <ele>9.1</ele>
        <time>2020-06-04T10:53:44Z</time>
      </trkpt>
      <trkpt lat="46.88946" lon="-2.14293">
        <ele>9.1</ele>
        <time>2020-06-04T10:53:45Z</time>
      </trkpt>
      <trkpt lat="46.88949" lon="-2.14295">
        <ele>9</ele>
        <time>2020-06-04T10:53:46Z</time>
      </trkpt>
      <trkpt lat="46.88951" lon="-2.14297">
        <ele>8.9</ele>
        <time>2020-06-04T10:53:47Z</time>
      </trkpt>
      <trkpt lat="46.88954" lon="-2.143">
        <ele>8.8</ele>
        <time>2020-06-04T10:53:48Z</time>
      </trkpt>
      <trkpt lat="46.88957" lon="-2.14302">
        <ele>8.8</ele>
        <time>2020-06-04T10:53:49Z</time>
      </trkpt>
      <trkpt lat="46.8896" lon="-2.14303">
        <ele>8.7</ele>
        <time>2020-06-04T10:53:50Z</time>
      </trkpt>
      <trkpt lat="46.88963" lon="-2.14305">
        <ele>8.6</ele>
        <time>2020-06-04T10:53:51Z</time>
      </trkpt>
      <trkpt lat="46.88965" lon="-2.14305">
        <ele>8.6</ele>
        <time>2020-06-04T10:53:52Z</time>
      </trkpt>
      <trkpt lat="46.88966" lon="-2.14304">
        <ele>8.5</ele>
        <time>2020-06-04T10:53:53Z</time>
      </trkpt>
      <trkpt lat="46.88969" lon="-2.143">
        <ele>8.4</ele>
        <time>2020-06-04T10:53:54Z</time>
      </trkpt>
      <trkpt lat="46.88972" lon="-2.14298">
        <ele>8.3</ele>
        <time>2020-06-04T10:53:55Z</time>
      </trkpt>
      <trkpt lat="46.88976" lon="-2.14299">
        <ele>8.2</ele>
        <time>2020-06-04T10:53:56Z</time>
      </trkpt>
      <trkpt lat="46.88977" lon="-2.14301">
        <ele>8.2</ele>
        <time>2020-06-04T10:53:57Z</time>
      </trkpt>
      <trkpt lat="46.8898" lon="-2.14303">
        <ele>8.2</ele>
        <time>2020-06-04T10:53:58Z</time>
      </trkpt>
      <trkpt lat="46.88983" lon="-2.14306">
        <ele>8.2</ele>
        <time>2020-06-04T10:53:59Z</time>
      </trkpt>
      <trkpt lat="46.88983" lon="-2.14307">
        <ele>8.2</ele>
        <time>2020-06-04T10:54:00Z</time>
      </trkpt>
      <trkpt lat="46.88985" lon="-2.14311">
        <ele>8.1</ele>
        <time>2020-06-04T10:54:01Z</time>
      </trkpt>
      <trkpt lat="46.88988" lon="-2.14315">
        <ele>8.1</ele>
        <time>2020-06-04T10:54:02Z</time>
      </trkpt>
      <trkpt lat="46.88991" lon="-2.14317">
        <ele>8</ele>
        <time>2020-06-04T10:54:03Z</time>
      </trkpt>
      <trkpt lat="46.88994" lon="-2.14321">
        <ele>8</ele>
        <time>2020-06-04T10:54:04Z</time>
      </trkpt>
      <trkpt lat="46.88996" lon="-2.14325">
        <ele>7.9</ele>
        <time>2020-06-04T10:54:05Z</time>
      </trkpt>
      <trkpt lat="46.88999" lon="-2.1433">
        <ele>7.9</ele>
        <time>2020-06-04T10:54:06Z</time>
      </trkpt>
      <trkpt lat="46.89002" lon="-2.14335">
        <ele>7.8</ele>
        <time>2020-06-04T10:54:07Z</time>
      </trkpt>
      <trkpt lat="46.89004" lon="-2.14341">
        <ele>7.8</ele>
        <time>2020-06-04T10:54:08Z</time>
      </trkpt>
      <trkpt lat="46.89006" lon="-2.14345">
        <ele>7.7</ele>
        <time>2020-06-04T10:54:09Z</time>
      </trkpt>
      <trkpt lat="46.89008" lon="-2.14349">
        <ele>7.7</ele>
        <time>2020-06-04T10:54:10Z</time>
      </trkpt>
      <trkpt lat="46.89011" lon="-2.14354">
        <ele>7.5</ele>
        <time>2020-06-04T10:54:11Z</time>
      </trkpt>
      <trkpt lat="46.89014" lon="-2.14358">
        <ele>7.5</ele>
        <time>2020-06-04T10:54:12Z</time>
      </trkpt>
      <trkpt lat="46.89016" lon="-2.14362">
        <ele>7.5</ele>
        <time>2020-06-04T10:54:13Z</time>
      </trkpt>
      <trkpt lat="46.89019" lon="-2.14364">
        <ele>7.5</ele>
        <time>2020-06-04T10:54:14Z</time>
      </trkpt>
      <trkpt lat="46.8902" lon="-2.14364">
        <ele>7.5</ele>
        <time>2020-06-04T10:54:15Z</time>
      </trkpt>
      <trkpt lat="46.89024" lon="-2.14361">
        <ele>7.5</ele>
        <time>2020-06-04T10:54:16Z</time>
      </trkpt>
      <trkpt lat="46.89025" lon="-2.14359">
        <ele>7.4</ele>
        <time>2020-06-04T10:54:17Z</time>
      </trkpt>
      <trkpt lat="46.89028" lon="-2.14356">
        <ele>7.4</ele>
        <time>2020-06-04T10:54:18Z</time>
      </trkpt>
      <trkpt lat="46.8903" lon="-2.14351">
        <ele>7.4</ele>
        <time>2020-06-04T10:54:19Z</time>
      </trkpt>
      <trkpt lat="46.89033" lon="-2.14348">
        <ele>7.4</ele>
        <time>2020-06-04T10:54:20Z</time>
      </trkpt>
      <trkpt lat="46.89036" lon="-2.14345">
        <ele>7.4</ele>
        <time>2020-06-04T10:54:21Z</time>
      </trkpt>
      <trkpt lat="46.89039" lon="-2.1434">
        <ele>7.4</ele>
        <time>2020-06-04T10:54:22Z</time>
      </trkpt>
      <trkpt lat="46.8904" lon="-2.14337">
        <ele>7.4</ele>
        <time>2020-06-04T10:54:23Z</time>
      </trkpt>
      <trkpt lat="46.89041" lon="-2.14334">
        <ele>7.3</ele>
        <time>2020-06-04T10:54:24Z</time>
      </trkpt>
      <trkpt lat="46.89043" lon="-2.14329">
        <ele>7.3</ele>
        <time>2020-06-04T10:54:25Z</time>
      </trkpt>
      <trkpt lat="46.89045" lon="-2.14325">
        <ele>7.3</ele>
        <time>2020-06-04T10:54:26Z</time>
      </trkpt>
      <trkpt lat="46.89046" lon="-2.14324">
        <ele>7.3</ele>
        <time>2020-06-04T10:54:27Z</time>
      </trkpt>
      <trkpt lat="46.89047" lon="-2.14318">
        <ele>7.3</ele>
        <time>2020-06-04T10:54:28Z</time>
      </trkpt>
      <trkpt lat="46.89049" lon="-2.14313">
        <ele>7.2</ele>
        <time>2020-06-04T10:54:29Z</time>
      </trkpt>
      <trkpt lat="46.89051" lon="-2.14308">
        <ele>7.2</ele>
        <time>2020-06-04T10:54:30Z</time>
      </trkpt>
      <trkpt lat="46.89053" lon="-2.14304">
        <ele>7.2</ele>
        <time>2020-06-04T10:54:31Z</time>
      </trkpt>
      <trkpt lat="46.89053" lon="-2.14302">
        <ele>7.2</ele>
        <time>2020-06-04T10:54:32Z</time>
      </trkpt>
      <trkpt lat="46.89056" lon="-2.14298">
        <ele>7.1</ele>
        <time>2020-06-04T10:54:33Z</time>
      </trkpt>
      <trkpt lat="46.89058" lon="-2.14294">
        <ele>7.1</ele>
        <time>2020-06-04T10:54:34Z</time>
      </trkpt>
      <trkpt lat="46.89059" lon="-2.1429">
        <ele>7.1</ele>
        <time>2020-06-04T10:54:35Z</time>
      </trkpt>
      <trkpt lat="46.89062" lon="-2.14286">
        <ele>7.1</ele>
        <time>2020-06-04T10:54:36Z</time>
      </trkpt>
      <trkpt lat="46.89063" lon="-2.14284">
        <ele>7.1</ele>
        <time>2020-06-04T10:54:37Z</time>
      </trkpt>
      <trkpt lat="46.89065" lon="-2.14281">
        <ele>7</ele>
        <time>2020-06-04T10:54:38Z</time>
      </trkpt>
      <trkpt lat="46.89068" lon="-2.14278">
        <ele>7</ele>
        <time>2020-06-04T10:54:39Z</time>
      </trkpt>
      <trkpt lat="46.89068" lon="-2.14277">
        <ele>7</ele>
        <time>2020-06-04T10:54:40Z</time>
      </trkpt>
      <trkpt lat="46.8907" lon="-2.14272">
        <ele>7</ele>
        <time>2020-06-04T10:54:41Z</time>
      </trkpt>
      <trkpt lat="46.89071" lon="-2.14271">
        <ele>7</ele>
        <time>2020-06-04T10:54:42Z</time>
      </trkpt>
      <trkpt lat="46.89073" lon="-2.14267">
        <ele>7</ele>
        <time>2020-06-04T10:54:43Z</time>
      </trkpt>
      <trkpt lat="46.89074" lon="-2.14263">
        <ele>6.9</ele>
        <time>2020-06-04T10:54:44Z</time>
      </trkpt>
      <trkpt lat="46.89077" lon="-2.14259">
        <ele>6.9</ele>
        <time>2020-06-04T10:54:45Z</time>
      </trkpt>
      <trkpt lat="46.89078" lon="-2.14254">
        <ele>6.9</ele>
        <time>2020-06-04T10:54:46Z</time>
      </trkpt>
      <trkpt lat="46.89081" lon="-2.14251">
        <ele>6.9</ele>
        <time>2020-06-04T10:54:47Z</time>
      </trkpt>
      <trkpt lat="46.89083" lon="-2.14248">
        <ele>6.9</ele>
        <time>2020-06-04T10:54:48Z</time>
      </trkpt>
      <trkpt lat="46.89085" lon="-2.14245">
        <ele>6.9</ele>
        <time>2020-06-04T10:54:49Z</time>
      </trkpt>
      <trkpt lat="46.89087" lon="-2.1424">
        <ele>6.9</ele>
        <time>2020-06-04T10:54:50Z</time>
      </trkpt>
      <trkpt lat="46.89088" lon="-2.14236">
        <ele>6.9</ele>
        <time>2020-06-04T10:54:51Z</time>
      </trkpt>
      <trkpt lat="46.89091" lon="-2.14232">
        <ele>6.8</ele>
        <time>2020-06-04T10:54:52Z</time>
      </trkpt>
      <trkpt lat="46.89093" lon="-2.14227">
        <ele>6.8</ele>
        <time>2020-06-04T10:54:53Z</time>
      </trkpt>
      <trkpt lat="46.89095" lon="-2.14223">
        <ele>6.8</ele>
        <time>2020-06-04T10:54:54Z</time>
      </trkpt>
      <trkpt lat="46.89098" lon="-2.14218">
        <ele>6.8</ele>
        <time>2020-06-04T10:54:55Z</time>
      </trkpt>
      <trkpt lat="46.891" lon="-2.14214">
        <ele>6.7</ele>
        <time>2020-06-04T10:54:56Z</time>
      </trkpt>
      <trkpt lat="46.89102" lon="-2.1421">
        <ele>6.7</ele>
        <time>2020-06-04T10:54:57Z</time>
      </trkpt>
      <trkpt lat="46.89103" lon="-2.14206">
        <ele>6.7</ele>
        <time>2020-06-04T10:54:58Z</time>
      </trkpt>
      <trkpt lat="46.89105" lon="-2.14201">
        <ele>6.7</ele>
        <time>2020-06-04T10:54:59Z</time>
      </trkpt>
      <trkpt lat="46.89106" lon="-2.14197">
        <ele>6.6</ele>
        <time>2020-06-04T10:55:00Z</time>
      </trkpt>
      <trkpt lat="46.89109" lon="-2.14194">
        <ele>6.6</ele>
        <time>2020-06-04T10:55:01Z</time>
      </trkpt>
      <trkpt lat="46.89111" lon="-2.1419">
        <ele>6.6</ele>
        <time>2020-06-04T10:55:02Z</time>
      </trkpt>
      <trkpt lat="46.89111" lon="-2.14188">
        <ele>6.5</ele>
        <time>2020-06-04T10:55:03Z</time>
      </trkpt>
      <trkpt lat="46.89114" lon="-2.14184">
        <ele>6.5</ele>
        <time>2020-06-04T10:55:04Z</time>
      </trkpt>
      <trkpt lat="46.89115" lon="-2.14183">
        <ele>6.5</ele>
        <time>2020-06-04T10:55:05Z</time>
      </trkpt>
      <trkpt lat="46.89116" lon="-2.14179">
        <ele>6.5</ele>
        <time>2020-06-04T10:55:06Z</time>
      </trkpt>
      <trkpt lat="46.89118" lon="-2.14174">
        <ele>6.4</ele>
        <time>2020-06-04T10:55:07Z</time>
      </trkpt>
      <trkpt lat="46.8912" lon="-2.14169">
        <ele>6.4</ele>
        <time>2020-06-04T10:55:08Z</time>
      </trkpt>
      <trkpt lat="46.89122" lon="-2.14164">
        <ele>6.4</ele>
        <time>2020-06-04T10:55:09Z</time>
      </trkpt>
      <trkpt lat="46.89124" lon="-2.14161">
        <ele>6.3</ele>
        <time>2020-06-04T10:55:10Z</time>
      </trkpt>
      <trkpt lat="46.89125" lon="-2.14157">
        <ele>6.3</ele>
        <time>2020-06-04T10:55:11Z</time>
      </trkpt>
      <trkpt lat="46.89126" lon="-2.14154">
        <ele>6.2</ele>
        <time>2020-06-04T10:55:12Z</time>
      </trkpt>
      <trkpt lat="46.89128" lon="-2.14149">
        <ele>6.2</ele>
        <time>2020-06-04T10:55:13Z</time>
      </trkpt>
      <trkpt lat="46.8913" lon="-2.14144">
        <ele>6.2</ele>
        <time>2020-06-04T10:55:14Z</time>
      </trkpt>
      <trkpt lat="46.8913" lon="-2.1414">
        <ele>6.1</ele>
        <time>2020-06-04T10:55:15Z</time>
      </trkpt>
      <trkpt lat="46.89131" lon="-2.14136">
        <ele>6.1</ele>
        <time>2020-06-04T10:55:16Z</time>
      </trkpt>
      <trkpt lat="46.89132" lon="-2.14132">
        <ele>6</ele>
        <time>2020-06-04T10:55:17Z</time>
      </trkpt>
      <trkpt lat="46.89134" lon="-2.14127">
        <ele>6</ele>
        <time>2020-06-04T10:55:18Z</time>
      </trkpt>
      <trkpt lat="46.89136" lon="-2.14122">
        <ele>5.9</ele>
        <time>2020-06-04T10:55:19Z</time>
      </trkpt>
      <trkpt lat="46.89137" lon="-2.1412">
        <ele>5.9</ele>
        <time>2020-06-04T10:55:20Z</time>
      </trkpt>
      <trkpt lat="46.8914" lon="-2.14114">
        <ele>5.9</ele>
        <time>2020-06-04T10:55:21Z</time>
      </trkpt>
      <trkpt lat="46.89142" lon="-2.14109">
        <ele>5.8</ele>
        <time>2020-06-04T10:55:22Z</time>
      </trkpt>
      <trkpt lat="46.89144" lon="-2.14103">
        <ele>5.8</ele>
        <time>2020-06-04T10:55:23Z</time>
      </trkpt>
      <trkpt lat="46.89147" lon="-2.14099">
        <ele>5.7</ele>
        <time>2020-06-04T10:55:24Z</time>
      </trkpt>
      <trkpt lat="46.89149" lon="-2.14093">
        <ele>5.7</ele>
        <time>2020-06-04T10:55:25Z</time>
      </trkpt>
      <trkpt lat="46.8915" lon="-2.14088">
        <ele>5.7</ele>
        <time>2020-06-04T10:55:26Z</time>
      </trkpt>
      <trkpt lat="46.89152" lon="-2.14083">
        <ele>5.6</ele>
        <time>2020-06-04T10:55:27Z</time>
      </trkpt>
      <trkpt lat="46.89155" lon="-2.14079">
        <ele>5.6</ele>
        <time>2020-06-04T10:55:28Z</time>
      </trkpt>
      <trkpt lat="46.89157" lon="-2.14074">
        <ele>5.6</ele>
        <time>2020-06-04T10:55:29Z</time>
      </trkpt>
      <trkpt lat="46.89158" lon="-2.14069">
        <ele>5.6</ele>
        <time>2020-06-04T10:55:30Z</time>
      </trkpt>
      <trkpt lat="46.8916" lon="-2.14065">
        <ele>5.6</ele>
        <time>2020-06-04T10:55:31Z</time>
      </trkpt>
      <trkpt lat="46.89162" lon="-2.1406">
        <ele>5.5</ele>
        <time>2020-06-04T10:55:32Z</time>
      </trkpt>
      <trkpt lat="46.89164" lon="-2.14056">
        <ele>5.5</ele>
        <time>2020-06-04T10:55:33Z</time>
      </trkpt>
      <trkpt lat="46.89166" lon="-2.1405">
        <ele>5.5</ele>
        <time>2020-06-04T10:55:34Z</time>
      </trkpt>
      <trkpt lat="46.89167" lon="-2.14045">
        <ele>5.5</ele>
        <time>2020-06-04T10:55:35Z</time>
      </trkpt>
      <trkpt lat="46.89169" lon="-2.14039">
        <ele>5.4</ele>
        <time>2020-06-04T10:55:36Z</time>
      </trkpt>
      <trkpt lat="46.89171" lon="-2.14034">
        <ele>5.4</ele>
        <time>2020-06-04T10:55:37Z</time>
      </trkpt>
      <trkpt lat="46.89174" lon="-2.14029">
        <ele>5.3</ele>
        <time>2020-06-04T10:55:38Z</time>
      </trkpt>
      <trkpt lat="46.89176" lon="-2.14024">
        <ele>5.3</ele>
        <time>2020-06-04T10:55:39Z</time>
      </trkpt>
      <trkpt lat="46.89178" lon="-2.1402">
        <ele>5.2</ele>
        <time>2020-06-04T10:55:40Z</time>
      </trkpt>
      <trkpt lat="46.8918" lon="-2.14016">
        <ele>5.2</ele>
        <time>2020-06-04T10:55:41Z</time>
      </trkpt>
      <trkpt lat="46.89182" lon="-2.14011">
        <ele>5.1</ele>
        <time>2020-06-04T10:55:42Z</time>
      </trkpt>
      <trkpt lat="46.89184" lon="-2.14006">
        <ele>5.1</ele>
        <time>2020-06-04T10:55:43Z</time>
      </trkpt>
      <trkpt lat="46.89186" lon="-2.14001">
        <ele>5</ele>
        <time>2020-06-04T10:55:44Z</time>
      </trkpt>
      <trkpt lat="46.89188" lon="-2.13996">
        <ele>5</ele>
        <time>2020-06-04T10:55:45Z</time>
      </trkpt>
      <trkpt lat="46.8919" lon="-2.1399">
        <ele>4.9</ele>
        <time>2020-06-04T10:55:46Z</time>
      </trkpt>
      <trkpt lat="46.89191" lon="-2.13985">
        <ele>4.8</ele>
        <time>2020-06-04T10:55:47Z</time>
      </trkpt>
      <trkpt lat="46.89193" lon="-2.13979">
        <ele>4.8</ele>
        <time>2020-06-04T10:55:48Z</time>
      </trkpt>
      <trkpt lat="46.89195" lon="-2.13974">
        <ele>4.7</ele>
        <time>2020-06-04T10:55:49Z</time>
      </trkpt>
      <trkpt lat="46.89197" lon="-2.1397">
        <ele>4.6</ele>
        <time>2020-06-04T10:55:50Z</time>
      </trkpt>
      <trkpt lat="46.89199" lon="-2.13964">
        <ele>4.6</ele>
        <time>2020-06-04T10:55:51Z</time>
      </trkpt>
      <trkpt lat="46.892" lon="-2.1396">
        <ele>4.5</ele>
        <time>2020-06-04T10:55:52Z</time>
      </trkpt>
      <trkpt lat="46.89202" lon="-2.13955">
        <ele>4.4</ele>
        <time>2020-06-04T10:55:53Z</time>
      </trkpt>
      <trkpt lat="46.89204" lon="-2.13949">
        <ele>4.3</ele>
        <time>2020-06-04T10:55:54Z</time>
      </trkpt>
      <trkpt lat="46.89206" lon="-2.13945">
        <ele>4.2</ele>
        <time>2020-06-04T10:55:55Z</time>
      </trkpt>
      <trkpt lat="46.89209" lon="-2.13942">
        <ele>4.1</ele>
        <time>2020-06-04T10:55:56Z</time>
      </trkpt>
      <trkpt lat="46.89211" lon="-2.13937">
        <ele>4</ele>
        <time>2020-06-04T10:55:57Z</time>
      </trkpt>
      <trkpt lat="46.89212" lon="-2.13936">
        <ele>4</ele>
        <time>2020-06-04T10:55:58Z</time>
      </trkpt>
      <trkpt lat="46.89213" lon="-2.13932">
        <ele>3.9</ele>
        <time>2020-06-04T10:55:59Z</time>
      </trkpt>
      <trkpt lat="46.89213" lon="-2.1393">
        <ele>3.8</ele>
        <time>2020-06-04T10:56:00Z</time>
      </trkpt>
      <trkpt lat="46.89215" lon="-2.13927">
        <ele>3.7</ele>
        <time>2020-06-04T10:56:01Z</time>
      </trkpt>
      <trkpt lat="46.89216" lon="-2.13925">
        <ele>3.7</ele>
        <time>2020-06-04T10:56:02Z</time>
      </trkpt>
      <trkpt lat="46.89216" lon="-2.1392">
        <ele>3.5</ele>
        <time>2020-06-04T10:56:03Z</time>
      </trkpt>
      <trkpt lat="46.89216" lon="-2.13917">
        <ele>3.4</ele>
        <time>2020-06-04T10:56:04Z</time>
      </trkpt>
      <trkpt lat="46.89217" lon="-2.13913">
        <ele>3.4</ele>
        <time>2020-06-04T10:56:05Z</time>
      </trkpt>
      <trkpt lat="46.89216" lon="-2.13911">
        <ele>3.4</ele>
        <time>2020-06-04T10:56:06Z</time>
      </trkpt>
      <trkpt lat="46.89214" lon="-2.13907">
        <ele>3.4</ele>
        <time>2020-06-04T10:56:07Z</time>
      </trkpt>
      <trkpt lat="46.89211" lon="-2.13904">
        <ele>3.4</ele>
        <time>2020-06-04T10:56:08Z</time>
      </trkpt>
      <trkpt lat="46.89207" lon="-2.13901">
        <ele>3.4</ele>
        <time>2020-06-04T10:56:09Z</time>
      </trkpt>
      <trkpt lat="46.89205" lon="-2.13898">
        <ele>3.4</ele>
        <time>2020-06-04T10:56:10Z</time>
      </trkpt>
      <trkpt lat="46.89203" lon="-2.13895">
        <ele>3.4</ele>
        <time>2020-06-04T10:56:11Z</time>
      </trkpt>
      <trkpt lat="46.89201" lon="-2.13891">
        <ele>3.4</ele>
        <time>2020-06-04T10:56:12Z</time>
      </trkpt>
      <trkpt lat="46.89199" lon="-2.13887">
        <ele>3.4</ele>
        <time>2020-06-04T10:56:13Z</time>
      </trkpt>
      <trkpt lat="46.89198" lon="-2.13885">
        <ele>3.4</ele>
        <time>2020-06-04T10:56:14Z</time>
      </trkpt>
      <trkpt lat="46.89195" lon="-2.1388">
        <ele>3.4</ele>
        <time>2020-06-04T10:56:15Z</time>
      </trkpt>
      <trkpt lat="46.89194" lon="-2.13878">
        <ele>3.3</ele>
        <time>2020-06-04T10:56:16Z</time>
      </trkpt>
      <trkpt lat="46.89194" lon="-2.13873">
        <ele>3.3</ele>
        <time>2020-06-04T10:56:17Z</time>
      </trkpt>
      <trkpt lat="46.89197" lon="-2.1387">
        <ele>3.3</ele>
        <time>2020-06-04T10:56:18Z</time>
      </trkpt>
      <trkpt lat="46.89199" lon="-2.13866">
        <ele>3.3</ele>
        <time>2020-06-04T10:56:19Z</time>
      </trkpt>
      <trkpt lat="46.892" lon="-2.13864">
        <ele>3.3</ele>
        <time>2020-06-04T10:56:20Z</time>
      </trkpt>
      <trkpt lat="46.89201" lon="-2.13863">
        <ele>3.3</ele>
        <time>2020-06-04T10:56:21Z</time>
      </trkpt>
      <trkpt lat="46.89201" lon="-2.13863">
        <ele>3.3</ele>
        <time>2020-06-04T10:56:22Z</time>
      </trkpt>
      <trkpt lat="46.89201" lon="-2.13863">
        <ele>3.3</ele>
        <time>2020-06-04T10:56:23Z</time>
      </trkpt>
      <trkpt lat="46.89201" lon="-2.13863">
        <ele>3.3</ele>
        <time>2020-06-04T10:56:24Z</time>
      </trkpt>
      <trkpt lat="46.89201" lon="-2.13863">
        <ele>3.3</ele>
        <time>2020-06-04T10:56:25Z</time>
      </trkpt>
      <trkpt lat="46.89202" lon="-2.13862">
        <ele>3.3</ele>
        <time>2020-06-04T10:56:26Z</time>
      </trkpt>
      <trkpt lat="46.89202" lon="-2.13861">
        <ele>3.3</ele>
        <time>2020-06-04T10:56:27Z</time>
      </trkpt>
      <trkpt lat="46.89202" lon="-2.13859">
        <ele>3.3</ele>
        <time>2020-06-04T10:56:28Z</time>
      </trkpt>
      <trkpt lat="46.89203" lon="-2.1386">
        <ele>3.3</ele>
        <time>2020-06-04T10:56:29Z</time>
      </trkpt>
      <trkpt lat="46.89203" lon="-2.1386">
        <ele>3.3</ele>
        <time>2020-06-04T10:56:30Z</time>
      </trkpt>
      <trkpt lat="46.89203" lon="-2.1386">
        <ele>3.3</ele>
        <time>2020-06-04T10:56:31Z</time>
      </trkpt>
      <trkpt lat="46.89203" lon="-2.1386">
        <ele>3.3</ele>
        <time>2020-06-04T10:56:32Z</time>
      </trkpt>
      <trkpt lat="46.89203" lon="-2.13859">
        <ele>3.3</ele>
        <time>2020-06-04T10:56:33Z</time>
      </trkpt>
      <trkpt lat="46.89203" lon="-2.13859">
        <ele>3.3</ele>
        <time>2020-06-04T10:56:34Z</time>
      </trkpt>
      <trkpt lat="46.89203" lon="-2.13859">
        <ele>3.3</ele>
        <time>2020-06-04T10:56:35Z</time>
      </trkpt>
      <trkpt lat="46.89203" lon="-2.13859">
        <ele>3.3</ele>
        <time>2020-06-04T10:56:36Z</time>
      </trkpt>
      <trkpt lat="46.89203" lon="-2.13859">
        <ele>3.3</ele>
        <time>2020-06-04T10:56:37Z</time>
      </trkpt>
      <trkpt lat="46.89203" lon="-2.13859">
        <ele>3.3</ele>
        <time>2020-06-04T10:56:38Z</time>
      </trkpt>
      <trkpt lat="46.89198" lon="-2.13891">
        <ele>3.3</ele>
        <time>2020-06-04T12:12:46Z</time>
      </trkpt>
      <trkpt lat="46.89209" lon="-2.13938">
        <ele>3.4</ele>
        <time>2020-06-04T12:12:47Z</time>
      </trkpt>
      <trkpt lat="46.89208" lon="-2.13939">
        <ele>3.4</ele>
        <time>2020-06-04T12:12:48Z</time>
      </trkpt>
      <trkpt lat="46.89212" lon="-2.13937">
        <ele>3.4</ele>
        <time>2020-06-04T12:12:49Z</time>
      </trkpt>
      <trkpt lat="46.89212" lon="-2.13936">
        <ele>3.4</ele>
        <time>2020-06-04T12:12:50Z</time>
      </trkpt>
      <trkpt lat="46.8921" lon="-2.13944">
        <ele>3.4</ele>
        <time>2020-06-04T12:12:52Z</time>
      </trkpt>
      <trkpt lat="46.89211" lon="-2.13945">
        <ele>3.4</ele>
        <time>2020-06-04T12:12:53Z</time>
      </trkpt>
      <trkpt lat="46.89211" lon="-2.13944">
        <ele>3.4</ele>
        <time>2020-06-04T12:12:54Z</time>
      </trkpt>
      <trkpt lat="46.89211" lon="-2.13943">
        <ele>3.4</ele>
        <time>2020-06-04T12:12:55Z</time>
      </trkpt>
      <trkpt lat="46.89211" lon="-2.1394">
        <ele>3.4</ele>
        <time>2020-06-04T12:12:56Z</time>
      </trkpt>
      <trkpt lat="46.89211" lon="-2.13938">
        <ele>3.4</ele>
        <time>2020-06-04T12:12:57Z</time>
      </trkpt>
      <trkpt lat="46.89211" lon="-2.13935">
        <ele>3.4</ele>
        <time>2020-06-04T12:12:58Z</time>
      </trkpt>
      <trkpt lat="46.89212" lon="-2.13931">
        <ele>3.4</ele>
        <time>2020-06-04T12:12:59Z</time>
      </trkpt>
      <trkpt lat="46.89213" lon="-2.1393">
        <ele>3.4</ele>
        <time>2020-06-04T12:13:00Z</time>
      </trkpt>
      <trkpt lat="46.89214" lon="-2.13926">
        <ele>3.4</ele>
        <time>2020-06-04T12:13:01Z</time>
      </trkpt>
      <trkpt lat="46.89214" lon="-2.13925">
        <ele>3.4</ele>
        <time>2020-06-04T12:13:02Z</time>
      </trkpt>
      <trkpt lat="46.89216" lon="-2.13922">
        <ele>3.4</ele>
        <time>2020-06-04T12:13:03Z</time>
      </trkpt>
      <trkpt lat="46.89216" lon="-2.13921">
        <ele>3.4</ele>
        <time>2020-06-04T12:13:04Z</time>
      </trkpt>
      <trkpt lat="46.89216" lon="-2.13919">
        <ele>3.4</ele>
        <time>2020-06-04T12:13:05Z</time>
      </trkpt>
      <trkpt lat="46.89216" lon="-2.13916">
        <ele>3.4</ele>
        <time>2020-06-04T12:13:06Z</time>
      </trkpt>
      <trkpt lat="46.89216" lon="-2.13914">
        <ele>3.4</ele>
        <time>2020-06-04T12:13:08Z</time>
      </trkpt>
      <trkpt lat="46.89215" lon="-2.1391">
        <ele>3.4</ele>
        <time>2020-06-04T12:13:09Z</time>
      </trkpt>
      <trkpt lat="46.89214" lon="-2.13909">
        <ele>3.4</ele>
        <time>2020-06-04T12:13:10Z</time>
      </trkpt>
      <trkpt lat="46.89214" lon="-2.13907">
        <ele>3.4</ele>
        <time>2020-06-04T12:13:11Z</time>
      </trkpt>
      <trkpt lat="46.89214" lon="-2.13905">
        <ele>3.4</ele>
        <time>2020-06-04T12:13:12Z</time>
      </trkpt>
      <trkpt lat="46.89213" lon="-2.139">
        <ele>3.4</ele>
        <time>2020-06-04T12:13:13Z</time>
      </trkpt>
      <trkpt lat="46.89212" lon="-2.13899">
        <ele>3.4</ele>
        <time>2020-06-04T12:13:14Z</time>
      </trkpt>
      <trkpt lat="46.89209" lon="-2.13895">
        <ele>3.4</ele>
        <time>2020-06-04T12:13:15Z</time>
      </trkpt>
      <trkpt lat="46.89208" lon="-2.13894">
        <ele>3.4</ele>
        <time>2020-06-04T12:13:16Z</time>
      </trkpt>
      <trkpt lat="46.89206" lon="-2.13891">
        <ele>3.4</ele>
        <time>2020-06-04T12:13:17Z</time>
      </trkpt>
      <trkpt lat="46.89202" lon="-2.1389">
        <ele>3.4</ele>
        <time>2020-06-04T12:13:18Z</time>
      </trkpt>
      <trkpt lat="46.89201" lon="-2.13889">
        <ele>3.4</ele>
        <time>2020-06-04T12:13:19Z</time>
      </trkpt>
      <trkpt lat="46.89199" lon="-2.13889">
        <ele>3.4</ele>
        <time>2020-06-04T12:13:20Z</time>
      </trkpt>
      <trkpt lat="46.89199" lon="-2.13889">
        <ele>3.4</ele>
        <time>2020-06-04T12:13:21Z</time>
      </trkpt>
      <trkpt lat="46.89198" lon="-2.13889">
        <ele>3.4</ele>
        <time>2020-06-04T12:13:22Z</time>
      </trkpt>
      <trkpt lat="46.89199" lon="-2.13889">
        <ele>3.4</ele>
        <time>2020-06-04T12:13:23Z</time>
      </trkpt>
      <trkpt lat="46.89198" lon="-2.13889">
        <ele>3.4</ele>
        <time>2020-06-04T12:13:24Z</time>
      </trkpt>
      <trkpt lat="46.89198" lon="-2.13889">
        <ele>3.4</ele>
        <time>2020-06-04T12:13:25Z</time>
      </trkpt>
      <trkpt lat="46.89198" lon="-2.13889">
        <ele>3.4</ele>
        <time>2020-06-04T12:13:26Z</time>
      </trkpt>
      <trkpt lat="46.89198" lon="-2.13889">
        <ele>3.4</ele>
        <time>2020-06-04T12:13:27Z</time>
      </trkpt>
      <trkpt lat="46.89198" lon="-2.13889">
        <ele>3.4</ele>
        <time>2020-06-04T12:13:28Z</time>
      </trkpt>
      <trkpt lat="46.89198" lon="-2.13889">
        <ele>3.4</ele>
        <time>2020-06-04T12:13:29Z</time>
      </trkpt>
      <trkpt lat="46.89198" lon="-2.13889">
        <ele>3.4</ele>
        <time>2020-06-04T12:13:30Z</time>
      </trkpt>
      <trkpt lat="46.89198" lon="-2.13889">
        <ele>3.4</ele>
        <time>2020-06-04T12:13:31Z</time>
      </trkpt>
      <trkpt lat="46.89198" lon="-2.13889">
        <ele>3.4</ele>
        <time>2020-06-04T12:13:32Z</time>
      </trkpt>
      <trkpt lat="46.89198" lon="-2.13889">
        <ele>3.4</ele>
        <time>2020-06-04T12:13:33Z</time>
      </trkpt>
      <trkpt lat="46.89195" lon="-2.13892">
        <ele>3.4</ele>
        <time>2020-06-04T12:14:06Z</time>
      </trkpt>
      <trkpt lat="46.89193" lon="-2.1389">
        <ele>3.4</ele>
        <time>2020-06-04T12:14:07Z</time>
      </trkpt>
      <trkpt lat="46.89191" lon="-2.13888">
        <ele>3.4</ele>
        <time>2020-06-04T12:14:08Z</time>
      </trkpt>
      <trkpt lat="46.89187" lon="-2.13885">
        <ele>3.3</ele>
        <time>2020-06-04T12:14:09Z</time>
      </trkpt>
      <trkpt lat="46.89185" lon="-2.13882">
        <ele>3.3</ele>
        <time>2020-06-04T12:14:10Z</time>
      </trkpt>
      <trkpt lat="46.89182" lon="-2.13878">
        <ele>3.3</ele>
        <time>2020-06-04T12:14:11Z</time>
      </trkpt>
      <trkpt lat="46.89181" lon="-2.13877">
        <ele>3.3</ele>
        <time>2020-06-04T12:14:12Z</time>
      </trkpt>
      <trkpt lat="46.89179" lon="-2.13874">
        <ele>3.3</ele>
        <time>2020-06-04T12:14:13Z</time>
      </trkpt>
      <trkpt lat="46.89178" lon="-2.13872">
        <ele>3.2</ele>
        <time>2020-06-04T12:14:14Z</time>
      </trkpt>
      <trkpt lat="46.89177" lon="-2.13868">
        <ele>3.2</ele>
        <time>2020-06-04T12:14:15Z</time>
      </trkpt>
      <trkpt lat="46.89176" lon="-2.13867">
        <ele>3.2</ele>
        <time>2020-06-04T12:14:16Z</time>
      </trkpt>
      <trkpt lat="46.89175" lon="-2.1386">
        <ele>3.2</ele>
        <time>2020-06-04T12:14:17Z</time>
      </trkpt>
      <trkpt lat="46.89173" lon="-2.13855">
        <ele>3.2</ele>
        <time>2020-06-04T12:14:18Z</time>
      </trkpt>
      <trkpt lat="46.89172" lon="-2.1385">
        <ele>3.2</ele>
        <time>2020-06-04T12:14:19Z</time>
      </trkpt>
      <trkpt lat="46.89171" lon="-2.13846">
        <ele>3.2</ele>
        <time>2020-06-04T12:14:20Z</time>
      </trkpt>
      <trkpt lat="46.8917" lon="-2.13844">
        <ele>3.1</ele>
        <time>2020-06-04T12:14:21Z</time>
      </trkpt>
      <trkpt lat="46.8917" lon="-2.13839">
        <ele>3.1</ele>
        <time>2020-06-04T12:14:22Z</time>
      </trkpt>
      <trkpt lat="46.89168" lon="-2.13835">
        <ele>3.1</ele>
        <time>2020-06-04T12:14:23Z</time>
      </trkpt>
      <trkpt lat="46.89168" lon="-2.13831">
        <ele>3.1</ele>
        <time>2020-06-04T12:14:24Z</time>
      </trkpt>
      <trkpt lat="46.89168" lon="-2.13827">
        <ele>3.1</ele>
        <time>2020-06-04T12:14:25Z</time>
      </trkpt>
      <trkpt lat="46.89169" lon="-2.13822">
        <ele>3.1</ele>
        <time>2020-06-04T12:14:26Z</time>
      </trkpt>
      <trkpt lat="46.89168" lon="-2.13815">
        <ele>3</ele>
        <time>2020-06-04T12:14:27Z</time>
      </trkpt>
      <trkpt lat="46.89168" lon="-2.13812">
        <ele>3</ele>
        <time>2020-06-04T12:14:28Z</time>
      </trkpt>
      <trkpt lat="46.89167" lon="-2.13807">
        <ele>3</ele>
        <time>2020-06-04T12:14:29Z</time>
      </trkpt>
      <trkpt lat="46.89166" lon="-2.13801">
        <ele>2.9</ele>
        <time>2020-06-04T12:14:30Z</time>
      </trkpt>
      <trkpt lat="46.89166" lon="-2.13795">
        <ele>2.9</ele>
        <time>2020-06-04T12:14:31Z</time>
      </trkpt>
      <trkpt lat="46.89166" lon="-2.1379">
        <ele>2.9</ele>
        <time>2020-06-04T12:14:32Z</time>
      </trkpt>
      <trkpt lat="46.89164" lon="-2.13785">
        <ele>2.9</ele>
        <time>2020-06-04T12:14:33Z</time>
      </trkpt>
      <trkpt lat="46.89165" lon="-2.1378">
        <ele>2.9</ele>
        <time>2020-06-04T12:14:34Z</time>
      </trkpt>
      <trkpt lat="46.89165" lon="-2.13779">
        <ele>2.9</ele>
        <time>2020-06-04T12:14:35Z</time>
      </trkpt>
      <trkpt lat="46.89163" lon="-2.13773">
        <ele>3</ele>
        <time>2020-06-04T12:14:36Z</time>
      </trkpt>
      <trkpt lat="46.89163" lon="-2.1377">
        <ele>3</ele>
        <time>2020-06-04T12:14:37Z</time>
      </trkpt>
      <trkpt lat="46.89162" lon="-2.13765">
        <ele>3</ele>
        <time>2020-06-04T12:14:38Z</time>
      </trkpt>
      <trkpt lat="46.8916" lon="-2.13761">
        <ele>3</ele>
        <time>2020-06-04T12:14:39Z</time>
      </trkpt>
      <trkpt lat="46.8916" lon="-2.13754">
        <ele>3</ele>
        <time>2020-06-04T12:14:40Z</time>
      </trkpt>
      <trkpt lat="46.89159" lon="-2.13749">
        <ele>3.1</ele>
        <time>2020-06-04T12:14:41Z</time>
      </trkpt>
      <trkpt lat="46.89158" lon="-2.13742">
        <ele>3.1</ele>
        <time>2020-06-04T12:14:42Z</time>
      </trkpt>
      <trkpt lat="46.89158" lon="-2.13737">
        <ele>3.1</ele>
        <time>2020-06-04T12:14:43Z</time>
      </trkpt>
      <trkpt lat="46.89156" lon="-2.13734">
        <ele>3.1</ele>
        <time>2020-06-04T12:14:44Z</time>
      </trkpt>
      <trkpt lat="46.89155" lon="-2.13728">
        <ele>3.1</ele>
        <time>2020-06-04T12:14:45Z</time>
      </trkpt>
      <trkpt lat="46.89154" lon="-2.13726">
        <ele>3.1</ele>
        <time>2020-06-04T12:14:46Z</time>
      </trkpt>
      <trkpt lat="46.8915" lon="-2.13724">
        <ele>3.1</ele>
        <time>2020-06-04T12:14:47Z</time>
      </trkpt>
      <trkpt lat="46.89146" lon="-2.13725">
        <ele>3.2</ele>
        <time>2020-06-04T12:14:48Z</time>
      </trkpt>
      <trkpt lat="46.89142" lon="-2.13723">
        <ele>3.2</ele>
        <time>2020-06-04T12:14:49Z</time>
      </trkpt>
      <trkpt lat="46.89139" lon="-2.13722">
        <ele>3.2</ele>
        <time>2020-06-04T12:14:50Z</time>
      </trkpt>
      <trkpt lat="46.89135" lon="-2.13721">
        <ele>3.3</ele>
        <time>2020-06-04T12:14:51Z</time>
      </trkpt>
      <trkpt lat="46.89132" lon="-2.1372">
        <ele>3.3</ele>
        <time>2020-06-04T12:14:52Z</time>
      </trkpt>
      <trkpt lat="46.8913" lon="-2.13719">
        <ele>3.4</ele>
        <time>2020-06-04T12:14:53Z</time>
      </trkpt>
      <trkpt lat="46.89129" lon="-2.13718">
        <ele>3.4</ele>
        <time>2020-06-04T12:14:54Z</time>
      </trkpt>
      <trkpt lat="46.89128" lon="-2.13714">
        <ele>3.4</ele>
        <time>2020-06-04T12:14:55Z</time>
      </trkpt>
      <trkpt lat="46.89128" lon="-2.13713">
        <ele>3.4</ele>
        <time>2020-06-04T12:14:56Z</time>
      </trkpt>
      <trkpt lat="46.89129" lon="-2.13709">
        <ele>3.5</ele>
        <time>2020-06-04T12:14:57Z</time>
      </trkpt>
      <trkpt lat="46.89129" lon="-2.13705">
        <ele>3.5</ele>
        <time>2020-06-04T12:14:58Z</time>
      </trkpt>
      <trkpt lat="46.8913" lon="-2.137">
        <ele>3.6</ele>
        <time>2020-06-04T12:14:59Z</time>
      </trkpt>
      <trkpt lat="46.89131" lon="-2.13699">
        <ele>3.6</ele>
        <time>2020-06-04T12:15:00Z</time>
      </trkpt>
      <trkpt lat="46.89132" lon="-2.13693">
        <ele>3.7</ele>
        <time>2020-06-04T12:15:01Z</time>
      </trkpt>
      <trkpt lat="46.89133" lon="-2.13691">
        <ele>3.7</ele>
        <time>2020-06-04T12:15:02Z</time>
      </trkpt>
      <trkpt lat="46.89131" lon="-2.13686">
        <ele>3.8</ele>
        <time>2020-06-04T12:15:03Z</time>
      </trkpt>
      <trkpt lat="46.8913" lon="-2.1368">
        <ele>3.9</ele>
        <time>2020-06-04T12:15:04Z</time>
      </trkpt>
      <trkpt lat="46.89129" lon="-2.13678">
        <ele>3.9</ele>
        <time>2020-06-04T12:15:05Z</time>
      </trkpt>
      <trkpt lat="46.89129" lon="-2.13673">
        <ele>3.9</ele>
        <time>2020-06-04T12:15:06Z</time>
      </trkpt>
      <trkpt lat="46.89129" lon="-2.13667">
        <ele>4</ele>
        <time>2020-06-04T12:15:07Z</time>
      </trkpt>
      <trkpt lat="46.8913" lon="-2.13659">
        <ele>4.1</ele>
        <time>2020-06-04T12:15:08Z</time>
      </trkpt>
      <trkpt lat="46.8913" lon="-2.13652">
        <ele>4.1</ele>
        <time>2020-06-04T12:15:09Z</time>
      </trkpt>
      <trkpt lat="46.8913" lon="-2.13644">
        <ele>4.2</ele>
        <time>2020-06-04T12:15:10Z</time>
      </trkpt>
      <trkpt lat="46.8913" lon="-2.13639">
        <ele>4.2</ele>
        <time>2020-06-04T12:15:11Z</time>
      </trkpt>
      <trkpt lat="46.8913" lon="-2.13634">
        <ele>4.2</ele>
        <time>2020-06-04T12:15:12Z</time>
      </trkpt>
      <trkpt lat="46.89131" lon="-2.1363">
        <ele>4.2</ele>
        <time>2020-06-04T12:15:13Z</time>
      </trkpt>
      <trkpt lat="46.89132" lon="-2.13625">
        <ele>4.3</ele>
        <time>2020-06-04T12:15:14Z</time>
      </trkpt>
      <trkpt lat="46.89132" lon="-2.13623">
        <ele>4.3</ele>
        <time>2020-06-04T12:15:15Z</time>
      </trkpt>
      <trkpt lat="46.89133" lon="-2.1362">
        <ele>4.3</ele>
        <time>2020-06-04T12:15:16Z</time>
      </trkpt>
      <trkpt lat="46.89133" lon="-2.13616">
        <ele>4.3</ele>
        <time>2020-06-04T12:15:17Z</time>
      </trkpt>
      <trkpt lat="46.89133" lon="-2.13615">
        <ele>4.3</ele>
        <time>2020-06-04T12:15:18Z</time>
      </trkpt>
      <trkpt lat="46.89132" lon="-2.1361">
        <ele>4.3</ele>
        <time>2020-06-04T12:15:19Z</time>
      </trkpt>
      <trkpt lat="46.89132" lon="-2.13606">
        <ele>4.4</ele>
        <time>2020-06-04T12:15:20Z</time>
      </trkpt>
      <trkpt lat="46.89131" lon="-2.13604">
        <ele>4.4</ele>
        <time>2020-06-04T12:15:21Z</time>
      </trkpt>
      <trkpt lat="46.89129" lon="-2.136">
        <ele>4.4</ele>
        <time>2020-06-04T12:15:22Z</time>
      </trkpt>
      <trkpt lat="46.89129" lon="-2.13595">
        <ele>4.4</ele>
        <time>2020-06-04T12:15:23Z</time>
      </trkpt>
      <trkpt lat="46.89129" lon="-2.1359">
        <ele>4.4</ele>
        <time>2020-06-04T12:15:24Z</time>
      </trkpt>
      <trkpt lat="46.8913" lon="-2.13586">
        <ele>4.4</ele>
        <time>2020-06-04T12:15:25Z</time>
      </trkpt>
      <trkpt lat="46.89131" lon="-2.13584">
        <ele>4.4</ele>
        <time>2020-06-04T12:15:26Z</time>
      </trkpt>
      <trkpt lat="46.89132" lon="-2.13583">
        <ele>4.4</ele>
        <time>2020-06-04T12:15:27Z</time>
      </trkpt>
      <trkpt lat="46.89133" lon="-2.13582">
        <ele>4.4</ele>
        <time>2020-06-04T12:15:28Z</time>
      </trkpt>
      <trkpt lat="46.89134" lon="-2.13583">
        <ele>4.4</ele>
        <time>2020-06-04T12:15:29Z</time>
      </trkpt>
      <trkpt lat="46.89135" lon="-2.13583">
        <ele>4.4</ele>
        <time>2020-06-04T12:15:30Z</time>
      </trkpt>
      <trkpt lat="46.89136" lon="-2.1358">
        <ele>4.3</ele>
        <time>2020-06-04T12:15:31Z</time>
      </trkpt>
      <trkpt lat="46.89138" lon="-2.13579">
        <ele>4.3</ele>
        <time>2020-06-04T12:15:32Z</time>
      </trkpt>
      <trkpt lat="46.89139" lon="-2.13578">
        <ele>4.3</ele>
        <time>2020-06-04T12:15:33Z</time>
      </trkpt>
      <trkpt lat="46.89142" lon="-2.13578">
        <ele>4.3</ele>
        <time>2020-06-04T12:15:34Z</time>
      </trkpt>
      <trkpt lat="46.89143" lon="-2.13579">
        <ele>4.3</ele>
        <time>2020-06-04T12:15:35Z</time>
      </trkpt>
      <trkpt lat="46.89147" lon="-2.13581">
        <ele>4.2</ele>
        <time>2020-06-04T12:15:36Z</time>
      </trkpt>
      <trkpt lat="46.8915" lon="-2.13584">
        <ele>4.2</ele>
        <time>2020-06-04T12:15:37Z</time>
      </trkpt>
      <trkpt lat="46.89153" lon="-2.13589">
        <ele>4.1</ele>
        <time>2020-06-04T12:15:38Z</time>
      </trkpt>
      <trkpt lat="46.89154" lon="-2.13595">
        <ele>4.1</ele>
        <time>2020-06-04T12:15:39Z</time>
      </trkpt>
      <trkpt lat="46.89154" lon="-2.13601">
        <ele>4.1</ele>
        <time>2020-06-04T12:15:40Z</time>
      </trkpt>
      <trkpt lat="46.89152" lon="-2.13608">
        <ele>4.1</ele>
        <time>2020-06-04T12:15:41Z</time>
      </trkpt>
      <trkpt lat="46.8915" lon="-2.13612">
        <ele>4.1</ele>
        <time>2020-06-04T12:15:42Z</time>
      </trkpt>
      <trkpt lat="46.89146" lon="-2.13615">
        <ele>4.2</ele>
        <time>2020-06-04T12:15:43Z</time>
      </trkpt>
      <trkpt lat="46.89142" lon="-2.13616">
        <ele>4.2</ele>
        <time>2020-06-04T12:15:44Z</time>
      </trkpt>
      <trkpt lat="46.89138" lon="-2.13615">
        <ele>4.2</ele>
        <time>2020-06-04T12:15:45Z</time>
      </trkpt>
      <trkpt lat="46.89135" lon="-2.13614">
        <ele>4.4</ele>
        <time>2020-06-04T12:15:46Z</time>
      </trkpt>
      <trkpt lat="46.89131" lon="-2.13613">
        <ele>4.4</ele>
        <time>2020-06-04T12:15:47Z</time>
      </trkpt>
      <trkpt lat="46.89128" lon="-2.13611">
        <ele>4.4</ele>
        <time>2020-06-04T12:15:48Z</time>
      </trkpt>
      <trkpt lat="46.89126" lon="-2.13609">
        <ele>4.4</ele>
        <time>2020-06-04T12:15:49Z</time>
      </trkpt>
      <trkpt lat="46.89122" lon="-2.13609">
        <ele>4.4</ele>
        <time>2020-06-04T12:15:50Z</time>
      </trkpt>
      <trkpt lat="46.89121" lon="-2.13609">
        <ele>4.4</ele>
        <time>2020-06-04T12:15:51Z</time>
      </trkpt>
      <trkpt lat="46.89118" lon="-2.13611">
        <ele>4.4</ele>
        <time>2020-06-04T12:15:52Z</time>
      </trkpt>
      <trkpt lat="46.89115" lon="-2.13615">
        <ele>4.4</ele>
        <time>2020-06-04T12:15:53Z</time>
      </trkpt>
      <trkpt lat="46.89112" lon="-2.13619">
        <ele>4.4</ele>
        <time>2020-06-04T12:15:54Z</time>
      </trkpt>
      <trkpt lat="46.89111" lon="-2.13621">
        <ele>4.5</ele>
        <time>2020-06-04T12:15:55Z</time>
      </trkpt>
      <trkpt lat="46.89107" lon="-2.13624">
        <ele>4.5</ele>
        <time>2020-06-04T12:15:56Z</time>
      </trkpt>
      <trkpt lat="46.89106" lon="-2.13626">
        <ele>4.5</ele>
        <time>2020-06-04T12:15:57Z</time>
      </trkpt>
      <trkpt lat="46.89105" lon="-2.13626">
        <ele>4.5</ele>
        <time>2020-06-04T12:15:58Z</time>
      </trkpt>
      <trkpt lat="46.89103" lon="-2.13628">
        <ele>4.5</ele>
        <time>2020-06-04T12:15:59Z</time>
      </trkpt>
      <trkpt lat="46.891" lon="-2.13629">
        <ele>4.5</ele>
        <time>2020-06-04T12:16:00Z</time>
      </trkpt>
      <trkpt lat="46.89099" lon="-2.13629">
        <ele>4.5</ele>
        <time>2020-06-04T12:16:01Z</time>
      </trkpt>
      <trkpt lat="46.89095" lon="-2.1363">
        <ele>4.5</ele>
        <time>2020-06-04T12:16:02Z</time>
      </trkpt>
      <trkpt lat="46.89093" lon="-2.1363">
        <ele>4.5</ele>
        <time>2020-06-04T12:16:03Z</time>
      </trkpt>
      <trkpt lat="46.8909" lon="-2.1363">
        <ele>4.5</ele>
        <time>2020-06-04T12:16:04Z</time>
      </trkpt>
      <trkpt lat="46.89089" lon="-2.13629">
        <ele>4.5</ele>
        <time>2020-06-04T12:16:05Z</time>
      </trkpt>
      <trkpt lat="46.89086" lon="-2.13629">
        <ele>4.5</ele>
        <time>2020-06-04T12:16:06Z</time>
      </trkpt>
      <trkpt lat="46.89085" lon="-2.1363">
        <ele>4.5</ele>
        <time>2020-06-04T12:16:07Z</time>
      </trkpt>
      <trkpt lat="46.89081" lon="-2.1363">
        <ele>4.5</ele>
        <time>2020-06-04T12:16:08Z</time>
      </trkpt>
      <trkpt lat="46.8908" lon="-2.1363">
        <ele>4.5</ele>
        <time>2020-06-04T12:16:09Z</time>
      </trkpt>
      <trkpt lat="46.89077" lon="-2.13633">
        <ele>4.5</ele>
        <time>2020-06-04T12:16:10Z</time>
      </trkpt>
      <trkpt lat="46.89076" lon="-2.13635">
        <ele>4.5</ele>
        <time>2020-06-04T12:16:11Z</time>
      </trkpt>
      <trkpt lat="46.89074" lon="-2.13639">
        <ele>4.5</ele>
        <time>2020-06-04T12:16:12Z</time>
      </trkpt>
      <trkpt lat="46.89073" lon="-2.1364">
        <ele>4.5</ele>
        <time>2020-06-04T12:16:13Z</time>
      </trkpt>
      <trkpt lat="46.8907" lon="-2.13638">
        <ele>4.5</ele>
        <time>2020-06-04T12:16:14Z</time>
      </trkpt>
      <trkpt lat="46.89069" lon="-2.13637">
        <ele>4.5</ele>
        <time>2020-06-04T12:16:15Z</time>
      </trkpt>
      <trkpt lat="46.89069" lon="-2.13635">
        <ele>4.5</ele>
        <time>2020-06-04T12:16:16Z</time>
      </trkpt>
      <trkpt lat="46.8907" lon="-2.13634">
        <ele>4.5</ele>
        <time>2020-06-04T12:16:17Z</time>
      </trkpt>
      <trkpt lat="46.89071" lon="-2.13633">
        <ele>4.5</ele>
        <time>2020-06-04T12:16:18Z</time>
      </trkpt>
      <trkpt lat="46.89072" lon="-2.13632">
        <ele>4.5</ele>
        <time>2020-06-04T12:16:19Z</time>
      </trkpt>
      <trkpt lat="46.89075" lon="-2.13631">
        <ele>4.5</ele>
        <time>2020-06-04T12:16:20Z</time>
      </trkpt>
      <trkpt lat="46.89079" lon="-2.13629">
        <ele>4.5</ele>
        <time>2020-06-04T12:16:21Z</time>
      </trkpt>
      <trkpt lat="46.89081" lon="-2.13629">
        <ele>4.5</ele>
        <time>2020-06-04T12:16:22Z</time>
      </trkpt>
      <trkpt lat="46.89085" lon="-2.13627">
        <ele>4.5</ele>
        <time>2020-06-04T12:16:23Z</time>
      </trkpt>
      <trkpt lat="46.89088" lon="-2.13625">
        <ele>4.5</ele>
        <time>2020-06-04T12:16:24Z</time>
      </trkpt>
      <trkpt lat="46.89092" lon="-2.13624">
        <ele>4.5</ele>
        <time>2020-06-04T12:16:25Z</time>
      </trkpt>
      <trkpt lat="46.89095" lon="-2.13624">
        <ele>4.5</ele>
        <time>2020-06-04T12:16:26Z</time>
      </trkpt>
      <trkpt lat="46.89099" lon="-2.13621">
        <ele>4.5</ele>
        <time>2020-06-04T12:16:27Z</time>
      </trkpt>
      <trkpt lat="46.89101" lon="-2.13618">
        <ele>4.5</ele>
        <time>2020-06-04T12:16:28Z</time>
      </trkpt>
      <trkpt lat="46.89104" lon="-2.13617">
        <ele>4.5</ele>
        <time>2020-06-04T12:16:29Z</time>
      </trkpt>
      <trkpt lat="46.89107" lon="-2.13614">
        <ele>4.5</ele>
        <time>2020-06-04T12:16:30Z</time>
      </trkpt>
      <trkpt lat="46.89109" lon="-2.13611">
        <ele>4.5</ele>
        <time>2020-06-04T12:16:31Z</time>
      </trkpt>
      <trkpt lat="46.89113" lon="-2.13607">
        <ele>4.5</ele>
        <time>2020-06-04T12:16:32Z</time>
      </trkpt>
      <trkpt lat="46.89117" lon="-2.13604">
        <ele>4.5</ele>
        <time>2020-06-04T12:16:33Z</time>
      </trkpt>
      <trkpt lat="46.8912" lon="-2.13601">
        <ele>4.5</ele>
        <time>2020-06-04T12:16:34Z</time>
      </trkpt>
      <trkpt lat="46.89123" lon="-2.13599">
        <ele>4.4</ele>
        <time>2020-06-04T12:16:35Z</time>
      </trkpt>
      <trkpt lat="46.89127" lon="-2.13596">
        <ele>4.4</ele>
        <time>2020-06-04T12:16:36Z</time>
      </trkpt>
      <trkpt lat="46.8913" lon="-2.13592">
        <ele>4.4</ele>
        <time>2020-06-04T12:16:37Z</time>
      </trkpt>
      <trkpt lat="46.89132" lon="-2.13586">
        <ele>4.4</ele>
        <time>2020-06-04T12:16:38Z</time>
      </trkpt>
      <trkpt lat="46.89134" lon="-2.1358">
        <ele>4.4</ele>
        <time>2020-06-04T12:16:39Z</time>
      </trkpt>
      <trkpt lat="46.89134" lon="-2.13575">
        <ele>4.4</ele>
        <time>2020-06-04T12:16:40Z</time>
      </trkpt>
      <trkpt lat="46.89133" lon="-2.13568">
        <ele>4.4</ele>
        <time>2020-06-04T12:16:41Z</time>
      </trkpt>
      <trkpt lat="46.89133" lon="-2.1356">
        <ele>4.4</ele>
        <time>2020-06-04T12:16:42Z</time>
      </trkpt>
      <trkpt lat="46.89131" lon="-2.13552">
        <ele>4.4</ele>
        <time>2020-06-04T12:16:43Z</time>
      </trkpt>
      <trkpt lat="46.89131" lon="-2.13544">
        <ele>4.4</ele>
        <time>2020-06-04T12:16:44Z</time>
      </trkpt>
      <trkpt lat="46.8913" lon="-2.13537">
        <ele>4.4</ele>
        <time>2020-06-04T12:16:45Z</time>
      </trkpt>
      <trkpt lat="46.89129" lon="-2.13529">
        <ele>4.4</ele>
        <time>2020-06-04T12:16:46Z</time>
      </trkpt>
      <trkpt lat="46.89129" lon="-2.13522">
        <ele>4.4</ele>
        <time>2020-06-04T12:16:47Z</time>
      </trkpt>
      <trkpt lat="46.89128" lon="-2.13516">
        <ele>4.3</ele>
        <time>2020-06-04T12:16:48Z</time>
      </trkpt>
      <trkpt lat="46.89127" lon="-2.13509">
        <ele>4.3</ele>
        <time>2020-06-04T12:16:49Z</time>
      </trkpt>
      <trkpt lat="46.89126" lon="-2.13502">
        <ele>4.3</ele>
        <time>2020-06-04T12:16:50Z</time>
      </trkpt>
      <trkpt lat="46.89124" lon="-2.13498">
        <ele>4.3</ele>
        <time>2020-06-04T12:16:51Z</time>
      </trkpt>
      <trkpt lat="46.89121" lon="-2.13495">
        <ele>4.3</ele>
        <time>2020-06-04T12:16:52Z</time>
      </trkpt>
      <trkpt lat="46.89118" lon="-2.13497">
        <ele>4.4</ele>
        <time>2020-06-04T12:16:53Z</time>
      </trkpt>
      <trkpt lat="46.89113" lon="-2.13501">
        <ele>4.5</ele>
        <time>2020-06-04T12:16:54Z</time>
      </trkpt>
      <trkpt lat="46.89108" lon="-2.13504">
        <ele>4.6</ele>
        <time>2020-06-04T12:16:55Z</time>
      </trkpt>
      <trkpt lat="46.89103" lon="-2.13504">
        <ele>4.8</ele>
        <time>2020-06-04T12:16:56Z</time>
      </trkpt>
      <trkpt lat="46.89097" lon="-2.13504">
        <ele>4.9</ele>
        <time>2020-06-04T12:16:57Z</time>
      </trkpt>
      <trkpt lat="46.89091" lon="-2.13505">
        <ele>5</ele>
        <time>2020-06-04T12:16:58Z</time>
      </trkpt>
      <trkpt lat="46.89086" lon="-2.13506">
        <ele>5.1</ele>
        <time>2020-06-04T12:16:59Z</time>
      </trkpt>
      <trkpt lat="46.89082" lon="-2.13509">
        <ele>5.2</ele>
        <time>2020-06-04T12:17:00Z</time>
      </trkpt>
      <trkpt lat="46.89077" lon="-2.13512">
        <ele>5.3</ele>
        <time>2020-06-04T12:17:01Z</time>
      </trkpt>
      <trkpt lat="46.89071" lon="-2.13514">
        <ele>5.4</ele>
        <time>2020-06-04T12:17:02Z</time>
      </trkpt>
      <trkpt lat="46.89067" lon="-2.13516">
        <ele>5.5</ele>
        <time>2020-06-04T12:17:03Z</time>
      </trkpt>
      <trkpt lat="46.89062" lon="-2.13516">
        <ele>5.5</ele>
        <time>2020-06-04T12:17:04Z</time>
      </trkpt>
      <trkpt lat="46.89059" lon="-2.13517">
        <ele>5.6</ele>
        <time>2020-06-04T12:17:05Z</time>
      </trkpt>
      <trkpt lat="46.89056" lon="-2.13518">
        <ele>5.7</ele>
        <time>2020-06-04T12:17:06Z</time>
      </trkpt>
      <trkpt lat="46.89052" lon="-2.13518">
        <ele>5.7</ele>
        <time>2020-06-04T12:17:07Z</time>
      </trkpt>
      <trkpt lat="46.89049" lon="-2.13517">
        <ele>5.8</ele>
        <time>2020-06-04T12:17:08Z</time>
      </trkpt>
      <trkpt lat="46.89047" lon="-2.13514">
        <ele>5.8</ele>
        <time>2020-06-04T12:17:09Z</time>
      </trkpt>
      <trkpt lat="46.89047" lon="-2.13512">
        <ele>5.8</ele>
        <time>2020-06-04T12:17:10Z</time>
      </trkpt>
      <trkpt lat="46.89045" lon="-2.13509">
        <ele>5.8</ele>
        <time>2020-06-04T12:17:11Z</time>
      </trkpt>
      <trkpt lat="46.89044" lon="-2.13508">
        <ele>5.9</ele>
        <time>2020-06-04T12:17:12Z</time>
      </trkpt>
      <trkpt lat="46.89044" lon="-2.13507">
        <ele>5.9</ele>
        <time>2020-06-04T12:17:13Z</time>
      </trkpt>
      <trkpt lat="46.89044" lon="-2.13506">
        <ele>5.9</ele>
        <time>2020-06-04T12:17:14Z</time>
      </trkpt>
      <trkpt lat="46.89044" lon="-2.13506">
        <ele>5.9</ele>
        <time>2020-06-04T12:17:15Z</time>
      </trkpt>
      <trkpt lat="46.89044" lon="-2.13507">
        <ele>5.9</ele>
        <time>2020-06-04T12:17:16Z</time>
      </trkpt>
      <trkpt lat="46.89045" lon="-2.13508">
        <ele>5.9</ele>
        <time>2020-06-04T12:17:17Z</time>
      </trkpt>
      <trkpt lat="46.89045" lon="-2.13508">
        <ele>5.9</ele>
        <time>2020-06-04T12:17:18Z</time>
      </trkpt>
      <trkpt lat="46.89045" lon="-2.13508">
        <ele>5.9</ele>
        <time>2020-06-04T12:17:19Z</time>
      </trkpt>
      <trkpt lat="46.89045" lon="-2.13508">
        <ele>5.9</ele>
        <time>2020-06-04T12:17:20Z</time>
      </trkpt>
      <trkpt lat="46.89045" lon="-2.13508">
        <ele>5.9</ele>
        <time>2020-06-04T12:17:21Z</time>
      </trkpt>
      <trkpt lat="46.89045" lon="-2.13508">
        <ele>5.9</ele>
        <time>2020-06-04T12:17:22Z</time>
      </trkpt>
      <trkpt lat="46.89045" lon="-2.13508">
        <ele>5.9</ele>
        <time>2020-06-04T12:17:23Z</time>
      </trkpt>
      <trkpt lat="46.89041" lon="-2.13503">
        <ele>5.9</ele>
        <time>2020-06-04T12:17:28Z</time>
      </trkpt>
      <trkpt lat="46.8904" lon="-2.13501">
        <ele>5.9</ele>
        <time>2020-06-04T12:17:29Z</time>
      </trkpt>
      <trkpt lat="46.89038" lon="-2.13496">
        <ele>6</ele>
        <time>2020-06-04T12:17:30Z</time>
      </trkpt>
      <trkpt lat="46.89038" lon="-2.13494">
        <ele>6</ele>
        <time>2020-06-04T12:17:31Z</time>
      </trkpt>
      <trkpt lat="46.89038" lon="-2.13491">
        <ele>6</ele>
        <time>2020-06-04T12:17:32Z</time>
      </trkpt>
      <trkpt lat="46.89038" lon="-2.13489">
        <ele>6</ele>
        <time>2020-06-04T12:17:33Z</time>
      </trkpt>
      <trkpt lat="46.89038" lon="-2.13484">
        <ele>6</ele>
        <time>2020-06-04T12:17:34Z</time>
      </trkpt>
      <trkpt lat="46.89038" lon="-2.13482">
        <ele>6</ele>
        <time>2020-06-04T12:17:35Z</time>
      </trkpt>
      <trkpt lat="46.89039" lon="-2.13477">
        <ele>5.9</ele>
        <time>2020-06-04T12:17:36Z</time>
      </trkpt>
      <trkpt lat="46.89039" lon="-2.13471">
        <ele>5.9</ele>
        <time>2020-06-04T12:17:37Z</time>
      </trkpt>
      <trkpt lat="46.8904" lon="-2.13465">
        <ele>5.8</ele>
        <time>2020-06-04T12:17:38Z</time>
      </trkpt>
      <trkpt lat="46.8904" lon="-2.13457">
        <ele>5.7</ele>
        <time>2020-06-04T12:17:39Z</time>
      </trkpt>
      <trkpt lat="46.8904" lon="-2.13451">
        <ele>5.6</ele>
        <time>2020-06-04T12:17:40Z</time>
      </trkpt>
      <trkpt lat="46.8904" lon="-2.13444">
        <ele>5.5</ele>
        <time>2020-06-04T12:17:41Z</time>
      </trkpt>
      <trkpt lat="46.89041" lon="-2.13437">
        <ele>5.4</ele>
        <time>2020-06-04T12:17:42Z</time>
      </trkpt>
      <trkpt lat="46.89041" lon="-2.13428">
        <ele>5.2</ele>
        <time>2020-06-04T12:17:43Z</time>
      </trkpt>
      <trkpt lat="46.8904" lon="-2.1342">
        <ele>5</ele>
        <time>2020-06-04T12:17:44Z</time>
      </trkpt>
      <trkpt lat="46.8904" lon="-2.13413">
        <ele>4.9</ele>
        <time>2020-06-04T12:17:45Z</time>
      </trkpt>
      <trkpt lat="46.89039" lon="-2.13404">
        <ele>4.8</ele>
        <time>2020-06-04T12:17:46Z</time>
      </trkpt>
      <trkpt lat="46.89038" lon="-2.13395">
        <ele>4.7</ele>
        <time>2020-06-04T12:17:47Z</time>
      </trkpt>
      <trkpt lat="46.89037" lon="-2.13386">
        <ele>4.6</ele>
        <time>2020-06-04T12:17:48Z</time>
      </trkpt>
      <trkpt lat="46.89036" lon="-2.13378">
        <ele>4.5</ele>
        <time>2020-06-04T12:17:49Z</time>
      </trkpt>
      <trkpt lat="46.89035" lon="-2.1337">
        <ele>4.5</ele>
        <time>2020-06-04T12:17:50Z</time>
      </trkpt>
      <trkpt lat="46.89034" lon="-2.13361">
        <ele>4.5</ele>
        <time>2020-06-04T12:17:51Z</time>
      </trkpt>
      <trkpt lat="46.89033" lon="-2.13353">
        <ele>4.4</ele>
        <time>2020-06-04T12:17:52Z</time>
      </trkpt>
      <trkpt lat="46.89033" lon="-2.13347">
        <ele>4.4</ele>
        <time>2020-06-04T12:17:53Z</time>
      </trkpt>
      <trkpt lat="46.89032" lon="-2.13339">
        <ele>4.5</ele>
        <time>2020-06-04T12:17:54Z</time>
      </trkpt>
      <trkpt lat="46.89032" lon="-2.13333">
        <ele>4.5</ele>
        <time>2020-06-04T12:17:55Z</time>
      </trkpt>
      <trkpt lat="46.8903" lon="-2.13325">
        <ele>4.5</ele>
        <time>2020-06-04T12:17:56Z</time>
      </trkpt>
      <trkpt lat="46.8903" lon="-2.13319">
        <ele>4.5</ele>
        <time>2020-06-04T12:17:57Z</time>
      </trkpt>
      <trkpt lat="46.89029" lon="-2.13314">
        <ele>4.5</ele>
        <time>2020-06-04T12:17:58Z</time>
      </trkpt>
      <trkpt lat="46.89028" lon="-2.13308">
        <ele>4.5</ele>
        <time>2020-06-04T12:17:59Z</time>
      </trkpt>
      <trkpt lat="46.89025" lon="-2.13301">
        <ele>4.5</ele>
        <time>2020-06-04T12:18:00Z</time>
      </trkpt>
      <trkpt lat="46.89024" lon="-2.13296">
        <ele>4.5</ele>
        <time>2020-06-04T12:18:01Z</time>
      </trkpt>
      <trkpt lat="46.89023" lon="-2.13291">
        <ele>4.4</ele>
        <time>2020-06-04T12:18:02Z</time>
      </trkpt>
      <trkpt lat="46.89023" lon="-2.13288">
        <ele>4.4</ele>
        <time>2020-06-04T12:18:03Z</time>
      </trkpt>
      <trkpt lat="46.89023" lon="-2.13283">
        <ele>4.4</ele>
        <time>2020-06-04T12:18:04Z</time>
      </trkpt>
      <trkpt lat="46.89025" lon="-2.13278">
        <ele>4.4</ele>
        <time>2020-06-04T12:18:05Z</time>
      </trkpt>
      <trkpt lat="46.89025" lon="-2.13276">
        <ele>4.4</ele>
        <time>2020-06-04T12:18:06Z</time>
      </trkpt>
      <trkpt lat="46.89025" lon="-2.13271">
        <ele>4.4</ele>
        <time>2020-06-04T12:18:07Z</time>
      </trkpt>
      <trkpt lat="46.89025" lon="-2.13269">
        <ele>4.4</ele>
        <time>2020-06-04T12:18:08Z</time>
      </trkpt>
      <trkpt lat="46.89026" lon="-2.13263">
        <ele>4.4</ele>
        <time>2020-06-04T12:18:09Z</time>
      </trkpt>
      <trkpt lat="46.89026" lon="-2.13258">
        <ele>4.4</ele>
        <time>2020-06-04T12:18:10Z</time>
      </trkpt>
      <trkpt lat="46.89026" lon="-2.13253">
        <ele>4.4</ele>
        <time>2020-06-04T12:18:11Z</time>
      </trkpt>
      <trkpt lat="46.89026" lon="-2.13248">
        <ele>4.4</ele>
        <time>2020-06-04T12:18:12Z</time>
      </trkpt>
      <trkpt lat="46.89025" lon="-2.13242">
        <ele>4.3</ele>
        <time>2020-06-04T12:18:13Z</time>
      </trkpt>
      <trkpt lat="46.89025" lon="-2.13238">
        <ele>4.3</ele>
        <time>2020-06-04T12:18:14Z</time>
      </trkpt>
      <trkpt lat="46.89024" lon="-2.13233">
        <ele>4.3</ele>
        <time>2020-06-04T12:18:15Z</time>
      </trkpt>
      <trkpt lat="46.89022" lon="-2.1323">
        <ele>4.3</ele>
        <time>2020-06-04T12:18:16Z</time>
      </trkpt>
      <trkpt lat="46.89021" lon="-2.13229">
        <ele>4.3</ele>
        <time>2020-06-04T12:18:17Z</time>
      </trkpt>
      <trkpt lat="46.89022" lon="-2.13227">
        <ele>4.2</ele>
        <time>2020-06-04T12:18:18Z</time>
      </trkpt>
      <trkpt lat="46.89022" lon="-2.13224">
        <ele>4.2</ele>
        <time>2020-06-04T12:18:19Z</time>
      </trkpt>
      <trkpt lat="46.89022" lon="-2.1322">
        <ele>4.2</ele>
        <time>2020-06-04T12:18:20Z</time>
      </trkpt>
      <trkpt lat="46.89022" lon="-2.13219">
        <ele>4.2</ele>
        <time>2020-06-04T12:18:21Z</time>
      </trkpt>
      <trkpt lat="46.89022" lon="-2.13216">
        <ele>4.2</ele>
        <time>2020-06-04T12:18:22Z</time>
      </trkpt>
      <trkpt lat="46.89023" lon="-2.13214">
        <ele>4.2</ele>
        <time>2020-06-04T12:18:23Z</time>
      </trkpt>
      <trkpt lat="46.89023" lon="-2.13212">
        <ele>4.2</ele>
        <time>2020-06-04T12:18:24Z</time>
      </trkpt>
      <trkpt lat="46.89022" lon="-2.1321">
        <ele>4.2</ele>
        <time>2020-06-04T12:18:25Z</time>
      </trkpt>
      <trkpt lat="46.89022" lon="-2.13208">
        <ele>4.1</ele>
        <time>2020-06-04T12:18:26Z</time>
      </trkpt>
      <trkpt lat="46.89022" lon="-2.13207">
        <ele>4.1</ele>
        <time>2020-06-04T12:18:27Z</time>
      </trkpt>
      <trkpt lat="46.89022" lon="-2.13207">
        <ele>4.1</ele>
        <time>2020-06-04T12:18:28Z</time>
      </trkpt>
      <trkpt lat="46.89022" lon="-2.13207">
        <ele>4.1</ele>
        <time>2020-06-04T12:18:29Z</time>
      </trkpt>
      <trkpt lat="46.89022" lon="-2.13207">
        <ele>4.1</ele>
        <time>2020-06-04T12:18:30Z</time>
      </trkpt>
      <trkpt lat="46.89022" lon="-2.13206">
        <ele>4.1</ele>
        <time>2020-06-04T12:18:31Z</time>
      </trkpt>
      <trkpt lat="46.89022" lon="-2.13206">
        <ele>4.1</ele>
        <time>2020-06-04T12:18:32Z</time>
      </trkpt>
      <trkpt lat="46.89022" lon="-2.13206">
        <ele>4.1</ele>
        <time>2020-06-04T12:18:33Z</time>
      </trkpt>
      <trkpt lat="46.89022" lon="-2.13206">
        <ele>4.1</ele>
        <time>2020-06-04T12:18:34Z</time>
      </trkpt>
      <trkpt lat="46.89022" lon="-2.13206">
        <ele>4.1</ele>
        <time>2020-06-04T12:18:35Z</time>
      </trkpt>
      <trkpt lat="46.89022" lon="-2.13205">
        <ele>4.1</ele>
        <time>2020-06-04T12:18:36Z</time>
      </trkpt>
      <trkpt lat="46.89022" lon="-2.13205">
        <ele>4.1</ele>
        <time>2020-06-04T12:18:37Z</time>
      </trkpt>
      <trkpt lat="46.89021" lon="-2.13209">
        <ele>4.1</ele>
        <time>2020-06-04T12:19:27Z</time>
      </trkpt>
      <trkpt lat="46.89021" lon="-2.13213">
        <ele>4.1</ele>
        <time>2020-06-04T12:19:28Z</time>
      </trkpt>
      <trkpt lat="46.89021" lon="-2.13218">
        <ele>4.1</ele>
        <time>2020-06-04T12:19:29Z</time>
      </trkpt>
      <trkpt lat="46.89021" lon="-2.13223">
        <ele>4.1</ele>
        <time>2020-06-04T12:19:30Z</time>
      </trkpt>
      <trkpt lat="46.89021" lon="-2.13227">
        <ele>4.2</ele>
        <time>2020-06-04T12:19:31Z</time>
      </trkpt>
      <trkpt lat="46.89021" lon="-2.13232">
        <ele>4.2</ele>
        <time>2020-06-04T12:19:32Z</time>
      </trkpt>
      <trkpt lat="46.89022" lon="-2.13238">
        <ele>4.2</ele>
        <time>2020-06-04T12:19:33Z</time>
      </trkpt>
      <trkpt lat="46.89022" lon="-2.13245">
        <ele>4.3</ele>
        <time>2020-06-04T12:19:34Z</time>
      </trkpt>
      <trkpt lat="46.89023" lon="-2.13252">
        <ele>4.3</ele>
        <time>2020-06-04T12:19:35Z</time>
      </trkpt>
      <trkpt lat="46.89023" lon="-2.13258">
        <ele>4.3</ele>
        <time>2020-06-04T12:19:36Z</time>
      </trkpt>
      <trkpt lat="46.89023" lon="-2.13264">
        <ele>4.4</ele>
        <time>2020-06-04T12:19:37Z</time>
      </trkpt>
      <trkpt lat="46.89024" lon="-2.1327">
        <ele>4.4</ele>
        <time>2020-06-04T12:19:38Z</time>
      </trkpt>
      <trkpt lat="46.89024" lon="-2.13276">
        <ele>4.4</ele>
        <time>2020-06-04T12:19:39Z</time>
      </trkpt>
      <trkpt lat="46.89025" lon="-2.13282">
        <ele>4.4</ele>
        <time>2020-06-04T12:19:40Z</time>
      </trkpt>
      <trkpt lat="46.89025" lon="-2.13288">
        <ele>4.4</ele>
        <time>2020-06-04T12:19:41Z</time>
      </trkpt>
      <trkpt lat="46.89026" lon="-2.13294">
        <ele>4.4</ele>
        <time>2020-06-04T12:19:42Z</time>
      </trkpt>
      <trkpt lat="46.89028" lon="-2.133">
        <ele>4.4</ele>
        <time>2020-06-04T12:19:43Z</time>
      </trkpt>
      <trkpt lat="46.89029" lon="-2.13307">
        <ele>4.5</ele>
        <time>2020-06-04T12:19:44Z</time>
      </trkpt>
      <trkpt lat="46.8903" lon="-2.13314">
        <ele>4.5</ele>
        <time>2020-06-04T12:19:45Z</time>
      </trkpt>
      <trkpt lat="46.89031" lon="-2.13321">
        <ele>4.5</ele>
        <time>2020-06-04T12:19:46Z</time>
      </trkpt>
      <trkpt lat="46.89032" lon="-2.13327">
        <ele>4.5</ele>
        <time>2020-06-04T12:19:47Z</time>
      </trkpt>
      <trkpt lat="46.89032" lon="-2.13334">
        <ele>4.5</ele>
        <time>2020-06-04T12:19:48Z</time>
      </trkpt>
      <trkpt lat="46.89033" lon="-2.1334">
        <ele>4.5</ele>
        <time>2020-06-04T12:19:49Z</time>
      </trkpt>
      <trkpt lat="46.89034" lon="-2.13346">
        <ele>4.5</ele>
        <time>2020-06-04T12:19:50Z</time>
      </trkpt>
      <trkpt lat="46.89034" lon="-2.13353">
        <ele>4.4</ele>
        <time>2020-06-04T12:19:51Z</time>
      </trkpt>
      <trkpt lat="46.89034" lon="-2.13361">
        <ele>4.4</ele>
        <time>2020-06-04T12:19:52Z</time>
      </trkpt>
      <trkpt lat="46.89035" lon="-2.13369">
        <ele>4.5</ele>
        <time>2020-06-04T12:19:53Z</time>
      </trkpt>
      <trkpt lat="46.89035" lon="-2.13377">
        <ele>4.5</ele>
        <time>2020-06-04T12:19:54Z</time>
      </trkpt>
      <trkpt lat="46.89036" lon="-2.13385">
        <ele>4.6</ele>
        <time>2020-06-04T12:19:55Z</time>
      </trkpt>
      <trkpt lat="46.89037" lon="-2.13394">
        <ele>4.6</ele>
        <time>2020-06-04T12:19:56Z</time>
      </trkpt>
      <trkpt lat="46.89039" lon="-2.13404">
        <ele>4.7</ele>
        <time>2020-06-04T12:19:57Z</time>
      </trkpt>
      <trkpt lat="46.8904" lon="-2.13415">
        <ele>4.9</ele>
        <time>2020-06-04T12:19:58Z</time>
      </trkpt>
      <trkpt lat="46.89039" lon="-2.13424">
        <ele>5.1</ele>
        <time>2020-06-04T12:19:59Z</time>
      </trkpt>
      <trkpt lat="46.89038" lon="-2.13434">
        <ele>5.3</ele>
        <time>2020-06-04T12:20:00Z</time>
      </trkpt>
      <trkpt lat="46.89037" lon="-2.13443">
        <ele>5.5</ele>
        <time>2020-06-04T12:20:01Z</time>
      </trkpt>
      <trkpt lat="46.89037" lon="-2.1345">
        <ele>5.6</ele>
        <time>2020-06-04T12:20:02Z</time>
      </trkpt>
      <trkpt lat="46.89037" lon="-2.13458">
        <ele>5.7</ele>
        <time>2020-06-04T12:20:03Z</time>
      </trkpt>
      <trkpt lat="46.89037" lon="-2.13464">
        <ele>5.8</ele>
        <time>2020-06-04T12:20:04Z</time>
      </trkpt>
      <trkpt lat="46.89037" lon="-2.13471">
        <ele>5.9</ele>
        <time>2020-06-04T12:20:05Z</time>
      </trkpt>
      <trkpt lat="46.89037" lon="-2.13476">
        <ele>5.9</ele>
        <time>2020-06-04T12:20:06Z</time>
      </trkpt>
      <trkpt lat="46.89037" lon="-2.13479">
        <ele>5.9</ele>
        <time>2020-06-04T12:20:07Z</time>
      </trkpt>
      <trkpt lat="46.89035" lon="-2.13482">
        <ele>6</ele>
        <time>2020-06-04T12:20:08Z</time>
      </trkpt>
      <trkpt lat="46.89036" lon="-2.13488">
        <ele>6</ele>
        <time>2020-06-04T12:20:09Z</time>
      </trkpt>
      <trkpt lat="46.89037" lon="-2.1349">
        <ele>6</ele>
        <time>2020-06-04T12:20:10Z</time>
      </trkpt>
      <trkpt lat="46.8904" lon="-2.13493">
        <ele>5.9</ele>
        <time>2020-06-04T12:20:11Z</time>
      </trkpt>
      <trkpt lat="46.89042" lon="-2.13496">
        <ele>5.9</ele>
        <time>2020-06-04T12:20:12Z</time>
      </trkpt>
      <trkpt lat="46.89045" lon="-2.13498">
        <ele>5.9</ele>
        <time>2020-06-04T12:20:13Z</time>
      </trkpt>
      <trkpt lat="46.89048" lon="-2.13502">
        <ele>5.9</ele>
        <time>2020-06-04T12:20:14Z</time>
      </trkpt>
      <trkpt lat="46.89049" lon="-2.13504">
        <ele>5.8</ele>
        <time>2020-06-04T12:20:15Z</time>
      </trkpt>
      <trkpt lat="46.8905" lon="-2.13506">
        <ele>5.8</ele>
        <time>2020-06-04T12:20:16Z</time>
      </trkpt>
      <trkpt lat="46.89051" lon="-2.13507">
        <ele>5.8</ele>
        <time>2020-06-04T12:20:17Z</time>
      </trkpt>
      <trkpt lat="46.89051" lon="-2.13508">
        <ele>5.8</ele>
        <time>2020-06-04T12:20:18Z</time>
      </trkpt>
      <trkpt lat="46.89053" lon="-2.1351">
        <ele>5.8</ele>
        <time>2020-06-04T12:20:19Z</time>
      </trkpt>
      <trkpt lat="46.89053" lon="-2.1351">
        <ele>5.8</ele>
        <time>2020-06-04T12:20:20Z</time>
      </trkpt>
      <trkpt lat="46.89054" lon="-2.13509">
        <ele>5.8</ele>
        <time>2020-06-04T12:20:21Z</time>
      </trkpt>
      <trkpt lat="46.89055" lon="-2.13509">
        <ele>5.7</ele>
        <time>2020-06-04T12:20:22Z</time>
      </trkpt>
      <trkpt lat="46.89058" lon="-2.13508">
        <ele>5.6</ele>
        <time>2020-06-04T12:20:23Z</time>
      </trkpt>
      <trkpt lat="46.89059" lon="-2.13508">
        <ele>5.6</ele>
        <time>2020-06-04T12:20:24Z</time>
      </trkpt>
      <trkpt lat="46.89062" lon="-2.13507">
        <ele>5.6</ele>
        <time>2020-06-04T12:20:25Z</time>
      </trkpt>
      <trkpt lat="46.89063" lon="-2.13507">
        <ele>5.5</ele>
        <time>2020-06-04T12:20:26Z</time>
      </trkpt>
      <trkpt lat="46.89065" lon="-2.13507">
        <ele>5.5</ele>
        <time>2020-06-04T12:20:27Z</time>
      </trkpt>
      <trkpt lat="46.89066" lon="-2.13507">
        <ele>5.5</ele>
        <time>2020-06-04T12:20:28Z</time>
      </trkpt>
      <trkpt lat="46.89067" lon="-2.13507">
        <ele>5.5</ele>
        <time>2020-06-04T12:20:29Z</time>
      </trkpt>
      <trkpt lat="46.89067" lon="-2.13507">
        <ele>5.5</ele>
        <time>2020-06-04T12:20:30Z</time>
      </trkpt>
      <trkpt lat="46.89068" lon="-2.13507">
        <ele>5.5</ele>
        <time>2020-06-04T12:20:31Z</time>
      </trkpt>
      <trkpt lat="46.89068" lon="-2.13507">
        <ele>5.4</ele>
        <time>2020-06-04T12:20:32Z</time>
      </trkpt>
      <trkpt lat="46.89068" lon="-2.13506">
        <ele>5.4</ele>
        <time>2020-06-04T12:20:33Z</time>
      </trkpt>
      <trkpt lat="46.89069" lon="-2.13506">
        <ele>5.4</ele>
        <time>2020-06-04T12:20:34Z</time>
      </trkpt>
      <trkpt lat="46.89068" lon="-2.13506">
        <ele>5.4</ele>
        <time>2020-06-04T12:20:35Z</time>
      </trkpt>
      <trkpt lat="46.89068" lon="-2.13505">
        <ele>5.4</ele>
        <time>2020-06-04T12:20:36Z</time>
      </trkpt>
      <trkpt lat="46.89068" lon="-2.13505">
        <ele>5.4</ele>
        <time>2020-06-04T12:20:37Z</time>
      </trkpt>
      <trkpt lat="46.89069" lon="-2.13505">
        <ele>5.4</ele>
        <time>2020-06-04T12:20:38Z</time>
      </trkpt>
      <trkpt lat="46.89069" lon="-2.13506">
        <ele>5.4</ele>
        <time>2020-06-04T12:20:39Z</time>
      </trkpt>
      <trkpt lat="46.89069" lon="-2.13506">
        <ele>5.4</ele>
        <time>2020-06-04T12:20:40Z</time>
      </trkpt>
      <trkpt lat="46.89072" lon="-2.13508">
        <ele>5.4</ele>
        <time>2020-06-04T12:20:41Z</time>
      </trkpt>
      <trkpt lat="46.89074" lon="-2.1351">
        <ele>5.3</ele>
        <time>2020-06-04T12:22:59Z</time>
      </trkpt>
      <trkpt lat="46.89076" lon="-2.13513">
        <ele>5.2</ele>
        <time>2020-06-04T12:23:00Z</time>
      </trkpt>
      <trkpt lat="46.8908" lon="-2.13513">
        <ele>5.2</ele>
        <time>2020-06-04T12:23:01Z</time>
      </trkpt>
      <trkpt lat="46.89083" lon="-2.13513">
        <ele>5.1</ele>
        <time>2020-06-04T12:23:02Z</time>
      </trkpt>
      <trkpt lat="46.89087" lon="-2.13512">
        <ele>5.1</ele>
        <time>2020-06-04T12:23:03Z</time>
      </trkpt>
      <trkpt lat="46.89091" lon="-2.13511">
        <ele>5</ele>
        <time>2020-06-04T12:23:04Z</time>
      </trkpt>
      <trkpt lat="46.89095" lon="-2.13511">
        <ele>5</ele>
        <time>2020-06-04T12:23:05Z</time>
      </trkpt>
      <trkpt lat="46.89098" lon="-2.1351">
        <ele>4.9</ele>
        <time>2020-06-04T12:23:06Z</time>
      </trkpt>
      <trkpt lat="46.89102" lon="-2.13509">
        <ele>4.8</ele>
        <time>2020-06-04T12:23:07Z</time>
      </trkpt>
      <trkpt lat="46.89105" lon="-2.13507">
        <ele>4.7</ele>
        <time>2020-06-04T12:23:08Z</time>
      </trkpt>
      <trkpt lat="46.89108" lon="-2.13506">
        <ele>4.7</ele>
        <time>2020-06-04T12:23:09Z</time>
      </trkpt>
      <trkpt lat="46.89111" lon="-2.13504">
        <ele>4.6</ele>
        <time>2020-06-04T12:23:10Z</time>
      </trkpt>
      <trkpt lat="46.89115" lon="-2.135">
        <ele>4.5</ele>
        <time>2020-06-04T12:23:11Z</time>
      </trkpt>
      <trkpt lat="46.89118" lon="-2.13498">
        <ele>4.4</ele>
        <time>2020-06-04T12:23:12Z</time>
      </trkpt>
      <trkpt lat="46.89121" lon="-2.13494">
        <ele>4.4</ele>
        <time>2020-06-04T12:23:13Z</time>
      </trkpt>
      <trkpt lat="46.89121" lon="-2.13492">
        <ele>4.4</ele>
        <time>2020-06-04T12:23:14Z</time>
      </trkpt>
      <trkpt lat="46.89121" lon="-2.13489">
        <ele>4.5</ele>
        <time>2020-06-04T12:23:15Z</time>
      </trkpt>
      <trkpt lat="46.89121" lon="-2.13488">
        <ele>4.5</ele>
        <time>2020-06-04T12:23:16Z</time>
      </trkpt>
      <trkpt lat="46.89121" lon="-2.13489">
        <ele>4.5</ele>
        <time>2020-06-04T12:23:17Z</time>
      </trkpt>
      <trkpt lat="46.89121" lon="-2.1349">
        <ele>4.5</ele>
        <time>2020-06-04T12:23:18Z</time>
      </trkpt>
      <trkpt lat="46.89121" lon="-2.1349">
        <ele>4.5</ele>
        <time>2020-06-04T12:23:19Z</time>
      </trkpt>
      <trkpt lat="46.89121" lon="-2.13491">
        <ele>4.5</ele>
        <time>2020-06-04T12:23:20Z</time>
      </trkpt>
      <trkpt lat="46.89121" lon="-2.13492">
        <ele>4.5</ele>
        <time>2020-06-04T12:23:21Z</time>
      </trkpt>
      <trkpt lat="46.89121" lon="-2.13493">
        <ele>4.5</ele>
        <time>2020-06-04T12:23:22Z</time>
      </trkpt>
      <trkpt lat="46.89122" lon="-2.13494">
        <ele>4.5</ele>
        <time>2020-06-04T12:23:23Z</time>
      </trkpt>
      <trkpt lat="46.89122" lon="-2.13495">
        <ele>4.5</ele>
        <time>2020-06-04T12:23:24Z</time>
      </trkpt>
      <trkpt lat="46.89122" lon="-2.13495">
        <ele>4.6</ele>
        <time>2020-06-04T12:23:25Z</time>
      </trkpt>
      <trkpt lat="46.89122" lon="-2.13496">
        <ele>4.6</ele>
        <time>2020-06-04T12:23:26Z</time>
      </trkpt>
      <trkpt lat="46.89122" lon="-2.13497">
        <ele>4.6</ele>
        <time>2020-06-04T12:24:26Z</time>
      </trkpt>
      <trkpt lat="46.89122" lon="-2.13498">
        <ele>4.6</ele>
        <time>2020-06-04T12:24:27Z</time>
      </trkpt>
      <trkpt lat="46.8912" lon="-2.13502">
        <ele>4.6</ele>
        <time>2020-06-04T12:24:28Z</time>
      </trkpt>
      <trkpt lat="46.89118" lon="-2.13502">
        <ele>4.6</ele>
        <time>2020-06-04T12:24:29Z</time>
      </trkpt>
      <trkpt lat="46.89114" lon="-2.13502">
        <ele>4.7</ele>
        <time>2020-06-04T12:24:30Z</time>
      </trkpt>
      <trkpt lat="46.8911" lon="-2.13501">
        <ele>4.7</ele>
        <time>2020-06-04T12:24:31Z</time>
      </trkpt>
      <trkpt lat="46.89106" lon="-2.135">
        <ele>4.8</ele>
        <time>2020-06-04T12:24:32Z</time>
      </trkpt>
      <trkpt lat="46.89102" lon="-2.13501">
        <ele>4.9</ele>
        <time>2020-06-04T12:24:33Z</time>
      </trkpt>
      <trkpt lat="46.89097" lon="-2.13503">
        <ele>4.9</ele>
        <time>2020-06-04T12:24:34Z</time>
      </trkpt>
      <trkpt lat="46.89093" lon="-2.13504">
        <ele>5</ele>
        <time>2020-06-04T12:24:35Z</time>
      </trkpt>
      <trkpt lat="46.89088" lon="-2.13505">
        <ele>5.1</ele>
        <time>2020-06-04T12:24:36Z</time>
      </trkpt>
      <trkpt lat="46.89084" lon="-2.13507">
        <ele>5.1</ele>
        <time>2020-06-04T12:24:37Z</time>
      </trkpt>
      <trkpt lat="46.89079" lon="-2.13507">
        <ele>5.2</ele>
        <time>2020-06-04T12:24:38Z</time>
      </trkpt>
      <trkpt lat="46.89074" lon="-2.13508">
        <ele>5.3</ele>
        <time>2020-06-04T12:24:39Z</time>
      </trkpt>
      <trkpt lat="46.8907" lon="-2.13508">
        <ele>5.4</ele>
        <time>2020-06-04T12:24:40Z</time>
      </trkpt>
      <trkpt lat="46.89066" lon="-2.1351">
        <ele>5.5</ele>
        <time>2020-06-04T12:24:41Z</time>
      </trkpt>
      <trkpt lat="46.89062" lon="-2.13512">
        <ele>5.6</ele>
        <time>2020-06-04T12:24:42Z</time>
      </trkpt>
      <trkpt lat="46.89059" lon="-2.13513">
        <ele>5.6</ele>
        <time>2020-06-04T12:24:43Z</time>
      </trkpt>
      <trkpt lat="46.89056" lon="-2.13514">
        <ele>5.7</ele>
        <time>2020-06-04T12:24:44Z</time>
      </trkpt>
      <trkpt lat="46.89053" lon="-2.13515">
        <ele>5.7</ele>
        <time>2020-06-04T12:24:45Z</time>
      </trkpt>
      <trkpt lat="46.8905" lon="-2.13514">
        <ele>5.8</ele>
        <time>2020-06-04T12:24:46Z</time>
      </trkpt>
      <trkpt lat="46.89049" lon="-2.13513">
        <ele>5.8</ele>
        <time>2020-06-04T12:24:47Z</time>
      </trkpt>
      <trkpt lat="46.89047" lon="-2.1351">
        <ele>5.8</ele>
        <time>2020-06-04T12:24:48Z</time>
      </trkpt>
      <trkpt lat="46.89045" lon="-2.13506">
        <ele>5.9</ele>
        <time>2020-06-04T12:24:49Z</time>
      </trkpt>
      <trkpt lat="46.89042" lon="-2.13503">
        <ele>5.9</ele>
        <time>2020-06-04T12:24:50Z</time>
      </trkpt>
      <trkpt lat="46.89041" lon="-2.13502">
        <ele>5.9</ele>
        <time>2020-06-04T12:24:51Z</time>
      </trkpt>
      <trkpt lat="46.8904" lon="-2.13497">
        <ele>5.9</ele>
        <time>2020-06-04T12:24:52Z</time>
      </trkpt>
      <trkpt lat="46.89039" lon="-2.13496">
        <ele>5.9</ele>
        <time>2020-06-04T12:24:53Z</time>
      </trkpt>
      <trkpt lat="46.89038" lon="-2.1349">
        <ele>6</ele>
        <time>2020-06-04T12:24:54Z</time>
      </trkpt>
      <trkpt lat="46.89038" lon="-2.13489">
        <ele>6</ele>
        <time>2020-06-04T12:24:55Z</time>
      </trkpt>
      <trkpt lat="46.89038" lon="-2.13483">
        <ele>6</ele>
        <time>2020-06-04T12:24:56Z</time>
      </trkpt>
      <trkpt lat="46.89038" lon="-2.13481">
        <ele>6</ele>
        <time>2020-06-04T12:24:57Z</time>
      </trkpt>
      <trkpt lat="46.89037" lon="-2.13477">
        <ele>5.9</ele>
        <time>2020-06-04T12:24:58Z</time>
      </trkpt>
      <trkpt lat="46.89038" lon="-2.1347">
        <ele>5.9</ele>
        <time>2020-06-04T12:24:59Z</time>
      </trkpt>
      <trkpt lat="46.89038" lon="-2.13464">
        <ele>5.8</ele>
        <time>2020-06-04T12:25:00Z</time>
      </trkpt>
      <trkpt lat="46.89038" lon="-2.13458">
        <ele>5.7</ele>
        <time>2020-06-04T12:25:01Z</time>
      </trkpt>
      <trkpt lat="46.89039" lon="-2.13452">
        <ele>5.7</ele>
        <time>2020-06-04T12:25:02Z</time>
      </trkpt>
      <trkpt lat="46.89039" lon="-2.13446">
        <ele>5.5</ele>
        <time>2020-06-04T12:25:03Z</time>
      </trkpt>
      <trkpt lat="46.89039" lon="-2.13439">
        <ele>5.4</ele>
        <time>2020-06-04T12:25:04Z</time>
      </trkpt>
      <trkpt lat="46.89039" lon="-2.13432">
        <ele>5.3</ele>
        <time>2020-06-04T12:25:05Z</time>
      </trkpt>
      <trkpt lat="46.89039" lon="-2.13425">
        <ele>5.1</ele>
        <time>2020-06-04T12:25:06Z</time>
      </trkpt>
      <trkpt lat="46.89039" lon="-2.13418">
        <ele>5</ele>
        <time>2020-06-04T12:25:07Z</time>
      </trkpt>
      <trkpt lat="46.89038" lon="-2.1341">
        <ele>4.8</ele>
        <time>2020-06-04T12:25:08Z</time>
      </trkpt>
      <trkpt lat="46.89038" lon="-2.13402">
        <ele>4.7</ele>
        <time>2020-06-04T12:25:09Z</time>
      </trkpt>
      <trkpt lat="46.89038" lon="-2.13395">
        <ele>4.6</ele>
        <time>2020-06-04T12:25:10Z</time>
      </trkpt>
      <trkpt lat="46.89038" lon="-2.13389">
        <ele>4.6</ele>
        <time>2020-06-04T12:25:11Z</time>
      </trkpt>
      <trkpt lat="46.89038" lon="-2.13381">
        <ele>4.5</ele>
        <time>2020-06-04T12:25:12Z</time>
      </trkpt>
      <trkpt lat="46.89037" lon="-2.13372">
        <ele>4.5</ele>
        <time>2020-06-04T12:25:13Z</time>
      </trkpt>
      <trkpt lat="46.89036" lon="-2.13366">
        <ele>4.5</ele>
        <time>2020-06-04T12:25:14Z</time>
      </trkpt>
      <trkpt lat="46.89035" lon="-2.13358">
        <ele>4.4</ele>
        <time>2020-06-04T12:25:15Z</time>
      </trkpt>
      <trkpt lat="46.89035" lon="-2.13351">
        <ele>4.4</ele>
        <time>2020-06-04T12:25:16Z</time>
      </trkpt>
      <trkpt lat="46.89036" lon="-2.13342">
        <ele>4.5</ele>
        <time>2020-06-04T12:25:17Z</time>
      </trkpt>
      <trkpt lat="46.89035" lon="-2.13336">
        <ele>4.5</ele>
        <time>2020-06-04T12:25:18Z</time>
      </trkpt>
      <trkpt lat="46.89035" lon="-2.13329">
        <ele>4.5</ele>
        <time>2020-06-04T12:25:19Z</time>
      </trkpt>
      <trkpt lat="46.89035" lon="-2.13321">
        <ele>4.5</ele>
        <time>2020-06-04T12:25:20Z</time>
      </trkpt>
      <trkpt lat="46.89034" lon="-2.13315">
        <ele>4.5</ele>
        <time>2020-06-04T12:25:21Z</time>
      </trkpt>
      <trkpt lat="46.89033" lon="-2.13308">
        <ele>4.5</ele>
        <time>2020-06-04T12:25:22Z</time>
      </trkpt>
      <trkpt lat="46.89032" lon="-2.13301">
        <ele>4.4</ele>
        <time>2020-06-04T12:25:23Z</time>
      </trkpt>
      <trkpt lat="46.89031" lon="-2.13295">
        <ele>4.4</ele>
        <time>2020-06-04T12:25:24Z</time>
      </trkpt>
      <trkpt lat="46.8903" lon="-2.13289">
        <ele>4.4</ele>
        <time>2020-06-04T12:25:25Z</time>
      </trkpt>
      <trkpt lat="46.89029" lon="-2.13283">
        <ele>4.4</ele>
        <time>2020-06-04T12:25:26Z</time>
      </trkpt>
      <trkpt lat="46.89028" lon="-2.13277">
        <ele>4.4</ele>
        <time>2020-06-04T12:25:27Z</time>
      </trkpt>
      <trkpt lat="46.89027" lon="-2.1327">
        <ele>4.4</ele>
        <time>2020-06-04T12:25:28Z</time>
      </trkpt>
      <trkpt lat="46.89026" lon="-2.13263">
        <ele>4.4</ele>
        <time>2020-06-04T12:25:29Z</time>
      </trkpt>
      <trkpt lat="46.89025" lon="-2.13258">
        <ele>4.3</ele>
        <time>2020-06-04T12:25:30Z</time>
      </trkpt>
      <trkpt lat="46.89023" lon="-2.13251">
        <ele>4.3</ele>
        <time>2020-06-04T12:25:31Z</time>
      </trkpt>
      <trkpt lat="46.89023" lon="-2.13242">
        <ele>4.3</ele>
        <time>2020-06-04T12:25:32Z</time>
      </trkpt>
      <trkpt lat="46.89023" lon="-2.13235">
        <ele>4.2</ele>
        <time>2020-06-04T12:25:33Z</time>
      </trkpt>
      <trkpt lat="46.89022" lon="-2.13227">
        <ele>4.2</ele>
        <time>2020-06-04T12:25:34Z</time>
      </trkpt>
      <trkpt lat="46.89021" lon="-2.1322">
        <ele>4.1</ele>
        <time>2020-06-04T12:25:35Z</time>
      </trkpt>
      <trkpt lat="46.8902" lon="-2.13212">
        <ele>4.1</ele>
        <time>2020-06-04T12:25:36Z</time>
      </trkpt>
      <trkpt lat="46.89019" lon="-2.13205">
        <ele>4.1</ele>
        <time>2020-06-04T12:25:37Z</time>
      </trkpt>
      <trkpt lat="46.89017" lon="-2.13198">
        <ele>4.1</ele>
        <time>2020-06-04T12:25:38Z</time>
      </trkpt>
      <trkpt lat="46.89017" lon="-2.13191">
        <ele>4.1</ele>
        <time>2020-06-04T12:25:39Z</time>
      </trkpt>
      <trkpt lat="46.89016" lon="-2.13183">
        <ele>4.1</ele>
        <time>2020-06-04T12:25:40Z</time>
      </trkpt>
      <trkpt lat="46.89015" lon="-2.13177">
        <ele>4.1</ele>
        <time>2020-06-04T12:25:41Z</time>
      </trkpt>
      <trkpt lat="46.89015" lon="-2.13171">
        <ele>4.1</ele>
        <time>2020-06-04T12:25:42Z</time>
      </trkpt>
      <trkpt lat="46.89013" lon="-2.13164">
        <ele>4.1</ele>
        <time>2020-06-04T12:25:43Z</time>
      </trkpt>
      <trkpt lat="46.89013" lon="-2.13157">
        <ele>4</ele>
        <time>2020-06-04T12:25:44Z</time>
      </trkpt>
      <trkpt lat="46.89011" lon="-2.1315">
        <ele>4</ele>
        <time>2020-06-04T12:25:45Z</time>
      </trkpt>
      <trkpt lat="46.89009" lon="-2.13144">
        <ele>4</ele>
        <time>2020-06-04T12:25:46Z</time>
      </trkpt>
      <trkpt lat="46.89009" lon="-2.13136">
        <ele>4</ele>
        <time>2020-06-04T12:25:47Z</time>
      </trkpt>
      <trkpt lat="46.89009" lon="-2.13129">
        <ele>3.9</ele>
        <time>2020-06-04T12:25:48Z</time>
      </trkpt>
      <trkpt lat="46.89007" lon="-2.13121">
        <ele>3.9</ele>
        <time>2020-06-04T12:25:49Z</time>
      </trkpt>
      <trkpt lat="46.89004" lon="-2.13115">
        <ele>3.8</ele>
        <time>2020-06-04T12:25:50Z</time>
      </trkpt>
      <trkpt lat="46.89001" lon="-2.13108">
        <ele>3.7</ele>
        <time>2020-06-04T12:25:51Z</time>
      </trkpt>
      <trkpt lat="46.88997" lon="-2.13101">
        <ele>3.6</ele>
        <time>2020-06-04T12:25:52Z</time>
      </trkpt>
      <trkpt lat="46.88993" lon="-2.13093">
        <ele>3.5</ele>
        <time>2020-06-04T12:25:53Z</time>
      </trkpt>
      <trkpt lat="46.8899" lon="-2.13085">
        <ele>3.4</ele>
        <time>2020-06-04T12:25:54Z</time>
      </trkpt>
      <trkpt lat="46.88986" lon="-2.13077">
        <ele>3.3</ele>
        <time>2020-06-04T12:25:55Z</time>
      </trkpt>
      <trkpt lat="46.88982" lon="-2.13071">
        <ele>3.3</ele>
        <time>2020-06-04T12:25:56Z</time>
      </trkpt>
      <trkpt lat="46.8898" lon="-2.13066">
        <ele>3.2</ele>
        <time>2020-06-04T12:25:57Z</time>
      </trkpt>
      <trkpt lat="46.88976" lon="-2.13062">
        <ele>3.2</ele>
        <time>2020-06-04T12:25:58Z</time>
      </trkpt>
      <trkpt lat="46.88973" lon="-2.13059">
        <ele>3.2</ele>
        <time>2020-06-04T12:25:59Z</time>
      </trkpt>
      <trkpt lat="46.88971" lon="-2.13055">
        <ele>3.2</ele>
        <time>2020-06-04T12:26:00Z</time>
      </trkpt>
      <trkpt lat="46.88969" lon="-2.1305">
        <ele>3.2</ele>
        <time>2020-06-04T12:26:01Z</time>
      </trkpt>
      <trkpt lat="46.88967" lon="-2.13046">
        <ele>3.1</ele>
        <time>2020-06-04T12:26:02Z</time>
      </trkpt>
      <trkpt lat="46.88965" lon="-2.13043">
        <ele>3.1</ele>
        <time>2020-06-04T12:26:03Z</time>
      </trkpt>
      <trkpt lat="46.88962" lon="-2.13038">
        <ele>3.1</ele>
        <time>2020-06-04T12:26:04Z</time>
      </trkpt>
      <trkpt lat="46.88961" lon="-2.13035">
        <ele>3.1</ele>
        <time>2020-06-04T12:26:05Z</time>
      </trkpt>
      <trkpt lat="46.88957" lon="-2.13031">
        <ele>3.1</ele>
        <time>2020-06-04T12:26:06Z</time>
      </trkpt>
      <trkpt lat="46.88954" lon="-2.13027">
        <ele>3.1</ele>
        <time>2020-06-04T12:26:07Z</time>
      </trkpt>
      <trkpt lat="46.88952" lon="-2.13021">
        <ele>3.1</ele>
        <time>2020-06-04T12:26:08Z</time>
      </trkpt>
      <trkpt lat="46.88949" lon="-2.13016">
        <ele>3.1</ele>
        <time>2020-06-04T12:26:09Z</time>
      </trkpt>
      <trkpt lat="46.88946" lon="-2.13013">
        <ele>3.1</ele>
        <time>2020-06-04T12:26:10Z</time>
      </trkpt>
      <trkpt lat="46.88943" lon="-2.13009">
        <ele>3.1</ele>
        <time>2020-06-04T12:26:11Z</time>
      </trkpt>
      <trkpt lat="46.88939" lon="-2.13005">
        <ele>3.1</ele>
        <time>2020-06-04T12:26:12Z</time>
      </trkpt>
      <trkpt lat="46.88936" lon="-2.13002">
        <ele>3.1</ele>
        <time>2020-06-04T12:26:13Z</time>
      </trkpt>
      <trkpt lat="46.88933" lon="-2.12997">
        <ele>3</ele>
        <time>2020-06-04T12:26:14Z</time>
      </trkpt>
      <trkpt lat="46.8893" lon="-2.12992">
        <ele>3</ele>
        <time>2020-06-04T12:26:15Z</time>
      </trkpt>
      <trkpt lat="46.88927" lon="-2.12986">
        <ele>3</ele>
        <time>2020-06-04T12:26:16Z</time>
      </trkpt>
      <trkpt lat="46.88925" lon="-2.1298">
        <ele>3</ele>
        <time>2020-06-04T12:26:17Z</time>
      </trkpt>
      <trkpt lat="46.88921" lon="-2.12976">
        <ele>3</ele>
        <time>2020-06-04T12:26:18Z</time>
      </trkpt>
      <trkpt lat="46.88919" lon="-2.12971">
        <ele>3</ele>
        <time>2020-06-04T12:26:19Z</time>
      </trkpt>
      <trkpt lat="46.88916" lon="-2.12966">
        <ele>2.9</ele>
        <time>2020-06-04T12:26:20Z</time>
      </trkpt>
      <trkpt lat="46.88913" lon="-2.1296">
        <ele>2.9</ele>
        <time>2020-06-04T12:26:21Z</time>
      </trkpt>
      <trkpt lat="46.88909" lon="-2.12953">
        <ele>2.9</ele>
        <time>2020-06-04T12:26:22Z</time>
      </trkpt>
      <trkpt lat="46.88905" lon="-2.12947">
        <ele>2.8</ele>
        <time>2020-06-04T12:26:23Z</time>
      </trkpt>
      <trkpt lat="46.88902" lon="-2.12942">
        <ele>2.8</ele>
        <time>2020-06-04T12:26:24Z</time>
      </trkpt>
      <trkpt lat="46.88899" lon="-2.12936">
        <ele>2.8</ele>
        <time>2020-06-04T12:26:25Z</time>
      </trkpt>
      <trkpt lat="46.88898" lon="-2.12932">
        <ele>2.8</ele>
        <time>2020-06-04T12:26:26Z</time>
      </trkpt>
      <trkpt lat="46.88896" lon="-2.12928">
        <ele>2.8</ele>
        <time>2020-06-04T12:26:27Z</time>
      </trkpt>
      <trkpt lat="46.88893" lon="-2.12922">
        <ele>2.7</ele>
        <time>2020-06-04T12:26:28Z</time>
      </trkpt>
      <trkpt lat="46.88891" lon="-2.12916">
        <ele>2.7</ele>
        <time>2020-06-04T12:26:29Z</time>
      </trkpt>
      <trkpt lat="46.88887" lon="-2.12911">
        <ele>2.6</ele>
        <time>2020-06-04T12:26:30Z</time>
      </trkpt>
      <trkpt lat="46.88884" lon="-2.12906">
        <ele>2.6</ele>
        <time>2020-06-04T12:26:31Z</time>
      </trkpt>
      <trkpt lat="46.88881" lon="-2.12902">
        <ele>2.6</ele>
        <time>2020-06-04T12:26:32Z</time>
      </trkpt>
      <trkpt lat="46.88878" lon="-2.12898">
        <ele>2.5</ele>
        <time>2020-06-04T12:26:33Z</time>
      </trkpt>
      <trkpt lat="46.88876" lon="-2.12895">
        <ele>2.5</ele>
        <time>2020-06-04T12:26:34Z</time>
      </trkpt>
      <trkpt lat="46.88875" lon="-2.12891">
        <ele>2.5</ele>
        <time>2020-06-04T12:26:35Z</time>
      </trkpt>
      <trkpt lat="46.88872" lon="-2.12889">
        <ele>2.5</ele>
        <time>2020-06-04T12:26:36Z</time>
      </trkpt>
      <trkpt lat="46.8887" lon="-2.12885">
        <ele>2.5</ele>
        <time>2020-06-04T12:26:37Z</time>
      </trkpt>
      <trkpt lat="46.88868" lon="-2.12881">
        <ele>2.5</ele>
        <time>2020-06-04T12:26:38Z</time>
      </trkpt>
      <trkpt lat="46.88867" lon="-2.12876">
        <ele>2.5</ele>
        <time>2020-06-04T12:26:39Z</time>
      </trkpt>
      <trkpt lat="46.88866" lon="-2.12874">
        <ele>2.5</ele>
        <time>2020-06-04T12:26:40Z</time>
      </trkpt>
      <trkpt lat="46.88865" lon="-2.1287">
        <ele>2.5</ele>
        <time>2020-06-04T12:26:41Z</time>
      </trkpt>
      <trkpt lat="46.88863" lon="-2.12867">
        <ele>2.5</ele>
        <time>2020-06-04T12:26:42Z</time>
      </trkpt>
      <trkpt lat="46.88862" lon="-2.12866">
        <ele>2.5</ele>
        <time>2020-06-04T12:26:43Z</time>
      </trkpt>
      <trkpt lat="46.8886" lon="-2.12863">
        <ele>2.5</ele>
        <time>2020-06-04T12:26:44Z</time>
      </trkpt>
      <trkpt lat="46.88857" lon="-2.1286">
        <ele>2.5</ele>
        <time>2020-06-04T12:26:45Z</time>
      </trkpt>
      <trkpt lat="46.88855" lon="-2.12856">
        <ele>2.5</ele>
        <time>2020-06-04T12:26:46Z</time>
      </trkpt>
      <trkpt lat="46.88852" lon="-2.12854">
        <ele>2.5</ele>
        <time>2020-06-04T12:26:47Z</time>
      </trkpt>
      <trkpt lat="46.8885" lon="-2.12849">
        <ele>2.6</ele>
        <time>2020-06-04T12:26:48Z</time>
      </trkpt>
      <trkpt lat="46.88849" lon="-2.12848">
        <ele>2.6</ele>
        <time>2020-06-04T12:26:49Z</time>
      </trkpt>
      <trkpt lat="46.88846" lon="-2.12843">
        <ele>2.6</ele>
        <time>2020-06-04T12:26:50Z</time>
      </trkpt>
      <trkpt lat="46.88844" lon="-2.12837">
        <ele>2.6</ele>
        <time>2020-06-04T12:26:51Z</time>
      </trkpt>
      <trkpt lat="46.88842" lon="-2.12832">
        <ele>2.7</ele>
        <time>2020-06-04T12:26:52Z</time>
      </trkpt>
      <trkpt lat="46.8884" lon="-2.12826">
        <ele>2.7</ele>
        <time>2020-06-04T12:26:53Z</time>
      </trkpt>
      <trkpt lat="46.88837" lon="-2.12819">
        <ele>2.8</ele>
        <time>2020-06-04T12:26:54Z</time>
      </trkpt>
      <trkpt lat="46.88835" lon="-2.12812">
        <ele>2.8</ele>
        <time>2020-06-04T12:26:55Z</time>
      </trkpt>
      <trkpt lat="46.88832" lon="-2.12807">
        <ele>2.9</ele>
        <time>2020-06-04T12:26:56Z</time>
      </trkpt>
      <trkpt lat="46.8883" lon="-2.12801">
        <ele>3</ele>
        <time>2020-06-04T12:26:57Z</time>
      </trkpt>
      <trkpt lat="46.88828" lon="-2.12795">
        <ele>3</ele>
        <time>2020-06-04T12:26:58Z</time>
      </trkpt>
      <trkpt lat="46.88825" lon="-2.1279">
        <ele>3.1</ele>
        <time>2020-06-04T12:26:59Z</time>
      </trkpt>
      <trkpt lat="46.88822" lon="-2.12786">
        <ele>3.2</ele>
        <time>2020-06-04T12:27:00Z</time>
      </trkpt>
      <trkpt lat="46.8882" lon="-2.12781">
        <ele>3.3</ele>
        <time>2020-06-04T12:27:01Z</time>
      </trkpt>
      <trkpt lat="46.88818" lon="-2.12777">
        <ele>3.4</ele>
        <time>2020-06-04T12:27:02Z</time>
      </trkpt>
      <trkpt lat="46.88816" lon="-2.12771">
        <ele>3.5</ele>
        <time>2020-06-04T12:27:03Z</time>
      </trkpt>
      <trkpt lat="46.88813" lon="-2.12767">
        <ele>3.6</ele>
        <time>2020-06-04T12:27:04Z</time>
      </trkpt>
      <trkpt lat="46.88811" lon="-2.12762">
        <ele>3.8</ele>
        <time>2020-06-04T12:27:05Z</time>
      </trkpt>
      <trkpt lat="46.88809" lon="-2.12758">
        <ele>3.9</ele>
        <time>2020-06-04T12:27:06Z</time>
      </trkpt>
      <trkpt lat="46.88807" lon="-2.12753">
        <ele>4</ele>
        <time>2020-06-04T12:27:07Z</time>
      </trkpt>
      <trkpt lat="46.88804" lon="-2.12748">
        <ele>4.2</ele>
        <time>2020-06-04T12:27:08Z</time>
      </trkpt>
      <trkpt lat="46.88803" lon="-2.12743">
        <ele>4.3</ele>
        <time>2020-06-04T12:27:09Z</time>
      </trkpt>
      <trkpt lat="46.88801" lon="-2.12739">
        <ele>4.4</ele>
        <time>2020-06-04T12:27:10Z</time>
      </trkpt>
      <trkpt lat="46.888" lon="-2.12735">
        <ele>4.5</ele>
        <time>2020-06-04T12:27:11Z</time>
      </trkpt>
      <trkpt lat="46.88798" lon="-2.12731">
        <ele>4.6</ele>
        <time>2020-06-04T12:27:12Z</time>
      </trkpt>
      <trkpt lat="46.88796" lon="-2.12727">
        <ele>4.7</ele>
        <time>2020-06-04T12:27:13Z</time>
      </trkpt>
      <trkpt lat="46.88794" lon="-2.12723">
        <ele>4.8</ele>
        <time>2020-06-04T12:27:14Z</time>
      </trkpt>
      <trkpt lat="46.88792" lon="-2.12719">
        <ele>4.9</ele>
        <time>2020-06-04T12:27:15Z</time>
      </trkpt>
      <trkpt lat="46.8879" lon="-2.12716">
        <ele>5</ele>
        <time>2020-06-04T12:27:16Z</time>
      </trkpt>
      <trkpt lat="46.88788" lon="-2.12712">
        <ele>5.1</ele>
        <time>2020-06-04T12:27:17Z</time>
      </trkpt>
      <trkpt lat="46.88787" lon="-2.12708">
        <ele>5.1</ele>
        <time>2020-06-04T12:27:18Z</time>
      </trkpt>
      <trkpt lat="46.88785" lon="-2.12703">
        <ele>5.2</ele>
        <time>2020-06-04T12:27:19Z</time>
      </trkpt>
      <trkpt lat="46.88782" lon="-2.12698">
        <ele>5.2</ele>
        <time>2020-06-04T12:27:20Z</time>
      </trkpt>
      <trkpt lat="46.88779" lon="-2.12694">
        <ele>5.3</ele>
        <time>2020-06-04T12:27:21Z</time>
      </trkpt>
      <trkpt lat="46.88776" lon="-2.12689">
        <ele>5.3</ele>
        <time>2020-06-04T12:27:22Z</time>
      </trkpt>
      <trkpt lat="46.88773" lon="-2.12684">
        <ele>5.3</ele>
        <time>2020-06-04T12:27:23Z</time>
      </trkpt>
      <trkpt lat="46.8877" lon="-2.12678">
        <ele>5.3</ele>
        <time>2020-06-04T12:27:24Z</time>
      </trkpt>
      <trkpt lat="46.88766" lon="-2.12674">
        <ele>5.3</ele>
        <time>2020-06-04T12:27:25Z</time>
      </trkpt>
      <trkpt lat="46.88763" lon="-2.12668">
        <ele>5.3</ele>
        <time>2020-06-04T12:27:26Z</time>
      </trkpt>
      <trkpt lat="46.88759" lon="-2.12661">
        <ele>5.3</ele>
        <time>2020-06-04T12:27:27Z</time>
      </trkpt>
      <trkpt lat="46.88756" lon="-2.12653">
        <ele>5.3</ele>
        <time>2020-06-04T12:27:28Z</time>
      </trkpt>
      <trkpt lat="46.88752" lon="-2.12646">
        <ele>5.4</ele>
        <time>2020-06-04T12:27:29Z</time>
      </trkpt>
      <trkpt lat="46.88749" lon="-2.12639">
        <ele>5.4</ele>
        <time>2020-06-04T12:27:30Z</time>
      </trkpt>
      <trkpt lat="46.88746" lon="-2.12632">
        <ele>5.5</ele>
        <time>2020-06-04T12:27:31Z</time>
      </trkpt>
      <trkpt lat="46.88743" lon="-2.12625">
        <ele>5.6</ele>
        <time>2020-06-04T12:27:32Z</time>
      </trkpt>
      <trkpt lat="46.8874" lon="-2.12618">
        <ele>5.8</ele>
        <time>2020-06-04T12:27:33Z</time>
      </trkpt>
      <trkpt lat="46.88737" lon="-2.12611">
        <ele>5.9</ele>
        <time>2020-06-04T12:27:34Z</time>
      </trkpt>
      <trkpt lat="46.88734" lon="-2.12605">
        <ele>6.1</ele>
        <time>2020-06-04T12:27:35Z</time>
      </trkpt>
      <trkpt lat="46.88731" lon="-2.12599">
        <ele>6.2</ele>
        <time>2020-06-04T12:27:36Z</time>
      </trkpt>
      <trkpt lat="46.88729" lon="-2.12595">
        <ele>6.3</ele>
        <time>2020-06-04T12:27:37Z</time>
      </trkpt>
      <trkpt lat="46.88726" lon="-2.1259">
        <ele>6.4</ele>
        <time>2020-06-04T12:27:38Z</time>
      </trkpt>
      <trkpt lat="46.88724" lon="-2.12584">
        <ele>6.6</ele>
        <time>2020-06-04T12:27:39Z</time>
      </trkpt>
      <trkpt lat="46.88721" lon="-2.12577">
        <ele>6.8</ele>
        <time>2020-06-04T12:27:40Z</time>
      </trkpt>
      <trkpt lat="46.88719" lon="-2.1257">
        <ele>7</ele>
        <time>2020-06-04T12:27:41Z</time>
      </trkpt>
      <trkpt lat="46.88717" lon="-2.12564">
        <ele>7.2</ele>
        <time>2020-06-04T12:27:42Z</time>
      </trkpt>
      <trkpt lat="46.88716" lon="-2.12558">
        <ele>7.3</ele>
        <time>2020-06-04T12:27:43Z</time>
      </trkpt>
      <trkpt lat="46.88714" lon="-2.12553">
        <ele>7.5</ele>
        <time>2020-06-04T12:27:44Z</time>
      </trkpt>
      <trkpt lat="46.88713" lon="-2.12546">
        <ele>7.7</ele>
        <time>2020-06-04T12:27:45Z</time>
      </trkpt>
      <trkpt lat="46.88711" lon="-2.12541">
        <ele>7.8</ele>
        <time>2020-06-04T12:27:46Z</time>
      </trkpt>
      <trkpt lat="46.8871" lon="-2.12536">
        <ele>8</ele>
        <time>2020-06-04T12:27:47Z</time>
      </trkpt>
      <trkpt lat="46.88709" lon="-2.1253">
        <ele>8.1</ele>
        <time>2020-06-04T12:27:48Z</time>
      </trkpt>
      <trkpt lat="46.88708" lon="-2.12525">
        <ele>8.1</ele>
        <time>2020-06-04T12:27:49Z</time>
      </trkpt>
      <trkpt lat="46.88707" lon="-2.1252">
        <ele>8.2</ele>
        <time>2020-06-04T12:27:50Z</time>
      </trkpt>
      <trkpt lat="46.88707" lon="-2.12516">
        <ele>8.2</ele>
        <time>2020-06-04T12:27:51Z</time>
      </trkpt>
      <trkpt lat="46.88705" lon="-2.1251">
        <ele>8.2</ele>
        <time>2020-06-04T12:27:52Z</time>
      </trkpt>
      <trkpt lat="46.88705" lon="-2.12505">
        <ele>8.3</ele>
        <time>2020-06-04T12:27:53Z</time>
      </trkpt>
      <trkpt lat="46.88704" lon="-2.125">
        <ele>8.3</ele>
        <time>2020-06-04T12:27:54Z</time>
      </trkpt>
      <trkpt lat="46.88703" lon="-2.12495">
        <ele>8.3</ele>
        <time>2020-06-04T12:27:55Z</time>
      </trkpt>
      <trkpt lat="46.88702" lon="-2.12489">
        <ele>8.3</ele>
        <time>2020-06-04T12:27:56Z</time>
      </trkpt>
      <trkpt lat="46.887" lon="-2.12485">
        <ele>8.3</ele>
        <time>2020-06-04T12:27:57Z</time>
      </trkpt>
      <trkpt lat="46.88699" lon="-2.12481">
        <ele>8.3</ele>
        <time>2020-06-04T12:27:58Z</time>
      </trkpt>
      <trkpt lat="46.88697" lon="-2.12476">
        <ele>8.3</ele>
        <time>2020-06-04T12:27:59Z</time>
      </trkpt>
      <trkpt lat="46.88696" lon="-2.12474">
        <ele>8.3</ele>
        <time>2020-06-04T12:28:00Z</time>
      </trkpt>
      <trkpt lat="46.88696" lon="-2.12472">
        <ele>8.3</ele>
        <time>2020-06-04T12:28:01Z</time>
      </trkpt>
      <trkpt lat="46.88695" lon="-2.1247">
        <ele>8.3</ele>
        <time>2020-06-04T12:28:02Z</time>
      </trkpt>
      <trkpt lat="46.88695" lon="-2.12469">
        <ele>8.3</ele>
        <time>2020-06-04T12:28:03Z</time>
      </trkpt>
      <trkpt lat="46.88696" lon="-2.12466">
        <ele>8.3</ele>
        <time>2020-06-04T12:28:04Z</time>
      </trkpt>
      <trkpt lat="46.88696" lon="-2.12464">
        <ele>8</ele>
        <time>2020-06-04T12:28:05Z</time>
      </trkpt>
      <trkpt lat="46.88696" lon="-2.12461">
        <ele>7.9</ele>
        <time>2020-06-04T12:28:06Z</time>
      </trkpt>
      <trkpt lat="46.88696" lon="-2.12455">
        <ele>7.8</ele>
        <time>2020-06-04T12:28:07Z</time>
      </trkpt>
      <trkpt lat="46.88696" lon="-2.12448">
        <ele>7.6</ele>
        <time>2020-06-04T12:28:08Z</time>
      </trkpt>
      <trkpt lat="46.88695" lon="-2.12439">
        <ele>7.5</ele>
        <time>2020-06-04T12:28:09Z</time>
      </trkpt>
      <trkpt lat="46.88694" lon="-2.1243">
        <ele>7.1</ele>
        <time>2020-06-04T12:28:10Z</time>
      </trkpt>
      <trkpt lat="46.88695" lon="-2.12421">
        <ele>7.1</ele>
        <time>2020-06-04T12:28:11Z</time>
      </trkpt>
      <trkpt lat="46.88695" lon="-2.12413">
        <ele>7</ele>
        <time>2020-06-04T12:28:12Z</time>
      </trkpt>
      <trkpt lat="46.88695" lon="-2.12404">
        <ele>7</ele>
        <time>2020-06-04T12:28:13Z</time>
      </trkpt>
      <trkpt lat="46.88695" lon="-2.12394">
        <ele>6.9</ele>
        <time>2020-06-04T12:28:14Z</time>
      </trkpt>
      <trkpt lat="46.88694" lon="-2.12386">
        <ele>6.9</ele>
        <time>2020-06-04T12:28:15Z</time>
      </trkpt>
      <trkpt lat="46.88694" lon="-2.12378">
        <ele>6.8</ele>
        <time>2020-06-04T12:28:16Z</time>
      </trkpt>
      <trkpt lat="46.88693" lon="-2.12369">
        <ele>6.8</ele>
        <time>2020-06-04T12:28:17Z</time>
      </trkpt>
      <trkpt lat="46.88692" lon="-2.12361">
        <ele>6.8</ele>
        <time>2020-06-04T12:28:18Z</time>
      </trkpt>
      <trkpt lat="46.88691" lon="-2.12354">
        <ele>6.8</ele>
        <time>2020-06-04T12:28:19Z</time>
      </trkpt>
      <trkpt lat="46.88689" lon="-2.12345">
        <ele>6.8</ele>
        <time>2020-06-04T12:28:20Z</time>
      </trkpt>
      <trkpt lat="46.88688" lon="-2.12338">
        <ele>6.8</ele>
        <time>2020-06-04T12:28:21Z</time>
      </trkpt>
      <trkpt lat="46.88686" lon="-2.12329">
        <ele>6.8</ele>
        <time>2020-06-04T12:28:22Z</time>
      </trkpt>
      <trkpt lat="46.88683" lon="-2.12321">
        <ele>6.7</ele>
        <time>2020-06-04T12:28:23Z</time>
      </trkpt>
      <trkpt lat="46.8868" lon="-2.12313">
        <ele>6.6</ele>
        <time>2020-06-04T12:28:24Z</time>
      </trkpt>
      <trkpt lat="46.88677" lon="-2.12306">
        <ele>6.5</ele>
        <time>2020-06-04T12:28:25Z</time>
      </trkpt>
      <trkpt lat="46.88673" lon="-2.12299">
        <ele>6.5</ele>
        <time>2020-06-04T12:28:26Z</time>
      </trkpt>
      <trkpt lat="46.88668" lon="-2.12293">
        <ele>6.4</ele>
        <time>2020-06-04T12:28:27Z</time>
      </trkpt>
      <trkpt lat="46.88665" lon="-2.12287">
        <ele>6.3</ele>
        <time>2020-06-04T12:28:28Z</time>
      </trkpt>
      <trkpt lat="46.88663" lon="-2.12282">
        <ele>6.3</ele>
        <time>2020-06-04T12:28:29Z</time>
      </trkpt>
      <trkpt lat="46.88662" lon="-2.12278">
        <ele>6.3</ele>
        <time>2020-06-04T12:28:30Z</time>
      </trkpt>
      <trkpt lat="46.8866" lon="-2.12274">
        <ele>6.2</ele>
        <time>2020-06-04T12:28:31Z</time>
      </trkpt>
      <trkpt lat="46.88659" lon="-2.1227">
        <ele>6</ele>
        <time>2020-06-04T12:28:32Z</time>
      </trkpt>
      <trkpt lat="46.88657" lon="-2.12265">
        <ele>6</ele>
        <time>2020-06-04T12:28:33Z</time>
      </trkpt>
      <trkpt lat="46.88657" lon="-2.12263">
        <ele>6</ele>
        <time>2020-06-04T12:28:34Z</time>
      </trkpt>
      <trkpt lat="46.88661" lon="-2.1226">
        <ele>6</ele>
        <time>2020-06-04T12:28:35Z</time>
      </trkpt>
      <trkpt lat="46.88663" lon="-2.12258">
        <ele>6</ele>
        <time>2020-06-04T12:28:36Z</time>
      </trkpt>
      <trkpt lat="46.88667" lon="-2.12254">
        <ele>6</ele>
        <time>2020-06-04T12:28:37Z</time>
      </trkpt>
      <trkpt lat="46.88671" lon="-2.1225">
        <ele>6</ele>
        <time>2020-06-04T12:28:38Z</time>
      </trkpt>
      <trkpt lat="46.88675" lon="-2.12246">
        <ele>5.9</ele>
        <time>2020-06-04T12:28:39Z</time>
      </trkpt>
      <trkpt lat="46.8868" lon="-2.12242">
        <ele>5.9</ele>
        <time>2020-06-04T12:28:40Z</time>
      </trkpt>
      <trkpt lat="46.88685" lon="-2.12238">
        <ele>5.8</ele>
        <time>2020-06-04T12:28:41Z</time>
      </trkpt>
      <trkpt lat="46.88691" lon="-2.12234">
        <ele>5.8</ele>
        <time>2020-06-04T12:28:42Z</time>
      </trkpt>
      <trkpt lat="46.88696" lon="-2.12229">
        <ele>5.7</ele>
        <time>2020-06-04T12:28:43Z</time>
      </trkpt>
      <trkpt lat="46.88701" lon="-2.12224">
        <ele>5.7</ele>
        <time>2020-06-04T12:28:44Z</time>
      </trkpt>
      <trkpt lat="46.88706" lon="-2.12222">
        <ele>5.7</ele>
        <time>2020-06-04T12:28:45Z</time>
      </trkpt>
      <trkpt lat="46.88711" lon="-2.12219">
        <ele>5.7</ele>
        <time>2020-06-04T12:28:46Z</time>
      </trkpt>
      <trkpt lat="46.88715" lon="-2.12217">
        <ele>5.7</ele>
        <time>2020-06-04T12:28:47Z</time>
      </trkpt>
      <trkpt lat="46.88719" lon="-2.12213">
        <ele>5.7</ele>
        <time>2020-06-04T12:28:48Z</time>
      </trkpt>
      <trkpt lat="46.88724" lon="-2.12211">
        <ele>5.6</ele>
        <time>2020-06-04T12:28:49Z</time>
      </trkpt>
      <trkpt lat="46.8873" lon="-2.12208">
        <ele>5.6</ele>
        <time>2020-06-04T12:28:50Z</time>
      </trkpt>
      <trkpt lat="46.88735" lon="-2.12204">
        <ele>5.6</ele>
        <time>2020-06-04T12:28:51Z</time>
      </trkpt>
      <trkpt lat="46.8874" lon="-2.12202">
        <ele>5.6</ele>
        <time>2020-06-04T12:28:52Z</time>
      </trkpt>
      <trkpt lat="46.88745" lon="-2.12199">
        <ele>5.6</ele>
        <time>2020-06-04T12:28:53Z</time>
      </trkpt>
      <trkpt lat="46.88751" lon="-2.12196">
        <ele>5.5</ele>
        <time>2020-06-04T12:28:54Z</time>
      </trkpt>
      <trkpt lat="46.88755" lon="-2.12194">
        <ele>5.5</ele>
        <time>2020-06-04T12:28:55Z</time>
      </trkpt>
      <trkpt lat="46.8876" lon="-2.12192">
        <ele>5.4</ele>
        <time>2020-06-04T12:28:56Z</time>
      </trkpt>
      <trkpt lat="46.88765" lon="-2.12189">
        <ele>5.3</ele>
        <time>2020-06-04T12:28:57Z</time>
      </trkpt>
      <trkpt lat="46.8877" lon="-2.12187">
        <ele>5.3</ele>
        <time>2020-06-04T12:28:58Z</time>
      </trkpt>
      <trkpt lat="46.88775" lon="-2.12184">
        <ele>5.2</ele>
        <time>2020-06-04T12:28:59Z</time>
      </trkpt>
      <trkpt lat="46.88779" lon="-2.12181">
        <ele>5.1</ele>
        <time>2020-06-04T12:29:00Z</time>
      </trkpt>
      <trkpt lat="46.88784" lon="-2.12177">
        <ele>5.1</ele>
        <time>2020-06-04T12:29:01Z</time>
      </trkpt>
      <trkpt lat="46.88788" lon="-2.12173">
        <ele>5</ele>
        <time>2020-06-04T12:29:02Z</time>
      </trkpt>
      <trkpt lat="46.88793" lon="-2.12169">
        <ele>4.9</ele>
        <time>2020-06-04T12:29:03Z</time>
      </trkpt>
      <trkpt lat="46.88797" lon="-2.12166">
        <ele>4.9</ele>
        <time>2020-06-04T12:29:04Z</time>
      </trkpt>
      <trkpt lat="46.88802" lon="-2.12163">
        <ele>4.9</ele>
        <time>2020-06-04T12:29:05Z</time>
      </trkpt>
      <trkpt lat="46.88807" lon="-2.12161">
        <ele>4.9</ele>
        <time>2020-06-04T12:29:06Z</time>
      </trkpt>
      <trkpt lat="46.88811" lon="-2.12159">
        <ele>4.9</ele>
        <time>2020-06-04T12:29:07Z</time>
      </trkpt>
      <trkpt lat="46.88816" lon="-2.12157">
        <ele>4.8</ele>
        <time>2020-06-04T12:29:08Z</time>
      </trkpt>
      <trkpt lat="46.88821" lon="-2.12154">
        <ele>4.8</ele>
        <time>2020-06-04T12:29:09Z</time>
      </trkpt>
      <trkpt lat="46.88825" lon="-2.12152">
        <ele>4.8</ele>
        <time>2020-06-04T12:29:10Z</time>
      </trkpt>
      <trkpt lat="46.8883" lon="-2.12149">
        <ele>4.8</ele>
        <time>2020-06-04T12:29:11Z</time>
      </trkpt>
      <trkpt lat="46.88834" lon="-2.12147">
        <ele>4.8</ele>
        <time>2020-06-04T12:29:12Z</time>
      </trkpt>
      <trkpt lat="46.88839" lon="-2.12145">
        <ele>4.8</ele>
        <time>2020-06-04T12:29:13Z</time>
      </trkpt>
      <trkpt lat="46.88844" lon="-2.12143">
        <ele>4.7</ele>
        <time>2020-06-04T12:29:14Z</time>
      </trkpt>
      <trkpt lat="46.88849" lon="-2.12141">
        <ele>4.7</ele>
        <time>2020-06-04T12:29:15Z</time>
      </trkpt>
      <trkpt lat="46.88853" lon="-2.1214">
        <ele>4.7</ele>
        <time>2020-06-04T12:29:16Z</time>
      </trkpt>
      <trkpt lat="46.88858" lon="-2.12138">
        <ele>4.7</ele>
        <time>2020-06-04T12:29:17Z</time>
      </trkpt>
      <trkpt lat="46.88862" lon="-2.12136">
        <ele>4.7</ele>
        <time>2020-06-04T12:29:18Z</time>
      </trkpt>
      <trkpt lat="46.88866" lon="-2.12133">
        <ele>4.6</ele>
        <time>2020-06-04T12:29:19Z</time>
      </trkpt>
      <trkpt lat="46.88871" lon="-2.12132">
        <ele>4.6</ele>
        <time>2020-06-04T12:29:20Z</time>
      </trkpt>
      <trkpt lat="46.88875" lon="-2.12131">
        <ele>4.6</ele>
        <time>2020-06-04T12:29:21Z</time>
      </trkpt>
      <trkpt lat="46.88878" lon="-2.12129">
        <ele>4.5</ele>
        <time>2020-06-04T12:29:22Z</time>
      </trkpt>
      <trkpt lat="46.88881" lon="-2.12128">
        <ele>4.5</ele>
        <time>2020-06-04T12:29:23Z</time>
      </trkpt>
      <trkpt lat="46.88884" lon="-2.12127">
        <ele>4.5</ele>
        <time>2020-06-04T12:29:24Z</time>
      </trkpt>
      <trkpt lat="46.88887" lon="-2.12126">
        <ele>4.5</ele>
        <time>2020-06-04T12:29:25Z</time>
      </trkpt>
      <trkpt lat="46.8889" lon="-2.12124">
        <ele>4.5</ele>
        <time>2020-06-04T12:29:26Z</time>
      </trkpt>
      <trkpt lat="46.88893" lon="-2.12122">
        <ele>4.4</ele>
        <time>2020-06-04T12:29:27Z</time>
      </trkpt>
      <trkpt lat="46.88897" lon="-2.12119">
        <ele>4.4</ele>
        <time>2020-06-04T12:29:28Z</time>
      </trkpt>
      <trkpt lat="46.88901" lon="-2.12116">
        <ele>4.4</ele>
        <time>2020-06-04T12:29:29Z</time>
      </trkpt>
      <trkpt lat="46.88905" lon="-2.12112">
        <ele>4.3</ele>
        <time>2020-06-04T12:29:30Z</time>
      </trkpt>
      <trkpt lat="46.88909" lon="-2.12107">
        <ele>4.3</ele>
        <time>2020-06-04T12:29:31Z</time>
      </trkpt>
      <trkpt lat="46.88913" lon="-2.12102">
        <ele>4.2</ele>
        <time>2020-06-04T12:29:32Z</time>
      </trkpt>
      <trkpt lat="46.88917" lon="-2.12097">
        <ele>4.2</ele>
        <time>2020-06-04T12:29:33Z</time>
      </trkpt>
      <trkpt lat="46.88921" lon="-2.12092">
        <ele>4.1</ele>
        <time>2020-06-04T12:29:34Z</time>
      </trkpt>
      <trkpt lat="46.88924" lon="-2.12088">
        <ele>4.1</ele>
        <time>2020-06-04T12:29:35Z</time>
      </trkpt>
      <trkpt lat="46.88928" lon="-2.12084">
        <ele>4</ele>
        <time>2020-06-04T12:29:36Z</time>
      </trkpt>
      <trkpt lat="46.88931" lon="-2.12081">
        <ele>3.9</ele>
        <time>2020-06-04T12:29:37Z</time>
      </trkpt>
      <trkpt lat="46.88934" lon="-2.12079">
        <ele>3.9</ele>
        <time>2020-06-04T12:29:38Z</time>
      </trkpt>
      <trkpt lat="46.88936" lon="-2.12075">
        <ele>3.7</ele>
        <time>2020-06-04T12:29:39Z</time>
      </trkpt>
      <trkpt lat="46.88937" lon="-2.12069">
        <ele>3.7</ele>
        <time>2020-06-04T12:29:40Z</time>
      </trkpt>
      <trkpt lat="46.88937" lon="-2.12064">
        <ele>3.7</ele>
        <time>2020-06-04T12:29:41Z</time>
      </trkpt>
      <trkpt lat="46.88937" lon="-2.1206">
        <ele>3.7</ele>
        <time>2020-06-04T12:29:42Z</time>
      </trkpt>
      <trkpt lat="46.88938" lon="-2.12056">
        <ele>3.7</ele>
        <time>2020-06-04T12:29:43Z</time>
      </trkpt>
      <trkpt lat="46.88938" lon="-2.12051">
        <ele>3.6</ele>
        <time>2020-06-04T12:29:44Z</time>
      </trkpt>
      <trkpt lat="46.88938" lon="-2.12046">
        <ele>3.6</ele>
        <time>2020-06-04T12:29:45Z</time>
      </trkpt>
      <trkpt lat="46.88938" lon="-2.1204">
        <ele>3.6</ele>
        <time>2020-06-04T12:29:46Z</time>
      </trkpt>
      <trkpt lat="46.88938" lon="-2.12034">
        <ele>3.7</ele>
        <time>2020-06-04T12:29:47Z</time>
      </trkpt>
      <trkpt lat="46.88937" lon="-2.12027">
        <ele>3.7</ele>
        <time>2020-06-04T12:29:48Z</time>
      </trkpt>
      <trkpt lat="46.88937" lon="-2.12018">
        <ele>3.7</ele>
        <time>2020-06-04T12:29:49Z</time>
      </trkpt>
      <trkpt lat="46.88936" lon="-2.12009">
        <ele>3.6</ele>
        <time>2020-06-04T12:29:50Z</time>
      </trkpt>
      <trkpt lat="46.88935" lon="-2.12">
        <ele>3.6</ele>
        <time>2020-06-04T12:29:51Z</time>
      </trkpt>
      <trkpt lat="46.88934" lon="-2.11991">
        <ele>3.6</ele>
        <time>2020-06-04T12:29:52Z</time>
      </trkpt>
      <trkpt lat="46.88934" lon="-2.11981">
        <ele>3.5</ele>
        <time>2020-06-04T12:29:53Z</time>
      </trkpt>
      <trkpt lat="46.88933" lon="-2.1197">
        <ele>3.4</ele>
        <time>2020-06-04T12:29:54Z</time>
      </trkpt>
      <trkpt lat="46.88933" lon="-2.11959">
        <ele>3.3</ele>
        <time>2020-06-04T12:29:55Z</time>
      </trkpt>
      <trkpt lat="46.88933" lon="-2.11947">
        <ele>3.3</ele>
        <time>2020-06-04T12:29:56Z</time>
      </trkpt>
      <trkpt lat="46.88932" lon="-2.11937">
        <ele>3.3</ele>
        <time>2020-06-04T12:29:57Z</time>
      </trkpt>
      <trkpt lat="46.88931" lon="-2.11926">
        <ele>3.3</ele>
        <time>2020-06-04T12:29:58Z</time>
      </trkpt>
      <trkpt lat="46.88931" lon="-2.11916">
        <ele>3.3</ele>
        <time>2020-06-04T12:29:59Z</time>
      </trkpt>
      <trkpt lat="46.8893" lon="-2.11907">
        <ele>3.2</ele>
        <time>2020-06-04T12:30:00Z</time>
      </trkpt>
      <trkpt lat="46.88929" lon="-2.11896">
        <ele>3</ele>
        <time>2020-06-04T12:30:01Z</time>
      </trkpt>
      <trkpt lat="46.88929" lon="-2.11886">
        <ele>2.9</ele>
        <time>2020-06-04T12:30:02Z</time>
      </trkpt>
      <trkpt lat="46.88928" lon="-2.11876">
        <ele>2.7</ele>
        <time>2020-06-04T12:30:03Z</time>
      </trkpt>
      <trkpt lat="46.88928" lon="-2.11866">
        <ele>2.7</ele>
        <time>2020-06-04T12:30:04Z</time>
      </trkpt>
      <trkpt lat="46.88927" lon="-2.11857">
        <ele>2.6</ele>
        <time>2020-06-04T12:30:05Z</time>
      </trkpt>
      <trkpt lat="46.88927" lon="-2.11847">
        <ele>2.6</ele>
        <time>2020-06-04T12:30:06Z</time>
      </trkpt>
      <trkpt lat="46.88927" lon="-2.11838">
        <ele>2.6</ele>
        <time>2020-06-04T12:30:07Z</time>
      </trkpt>
      <trkpt lat="46.88927" lon="-2.11828">
        <ele>2.7</ele>
        <time>2020-06-04T12:30:08Z</time>
      </trkpt>
      <trkpt lat="46.88926" lon="-2.11819">
        <ele>2.7</ele>
        <time>2020-06-04T12:30:09Z</time>
      </trkpt>
      <trkpt lat="46.88926" lon="-2.11809">
        <ele>2.6</ele>
        <time>2020-06-04T12:30:10Z</time>
      </trkpt>
      <trkpt lat="46.88926" lon="-2.11799">
        <ele>2.6</ele>
        <time>2020-06-04T12:30:11Z</time>
      </trkpt>
      <trkpt lat="46.88925" lon="-2.1179">
        <ele>2.5</ele>
        <time>2020-06-04T12:30:12Z</time>
      </trkpt>
      <trkpt lat="46.88925" lon="-2.1178">
        <ele>2.4</ele>
        <time>2020-06-04T12:30:13Z</time>
      </trkpt>
      <trkpt lat="46.88924" lon="-2.11771">
        <ele>2.3</ele>
        <time>2020-06-04T12:30:14Z</time>
      </trkpt>
      <trkpt lat="46.88922" lon="-2.11761">
        <ele>2.3</ele>
        <time>2020-06-04T12:30:15Z</time>
      </trkpt>
      <trkpt lat="46.88922" lon="-2.11752">
        <ele>2.3</ele>
        <time>2020-06-04T12:30:16Z</time>
      </trkpt>
      <trkpt lat="46.88922" lon="-2.11742">
        <ele>2.3</ele>
        <time>2020-06-04T12:30:17Z</time>
      </trkpt>
      <trkpt lat="46.88922" lon="-2.11733">
        <ele>2.2</ele>
        <time>2020-06-04T12:30:18Z</time>
      </trkpt>
      <trkpt lat="46.88922" lon="-2.11723">
        <ele>2.2</ele>
        <time>2020-06-04T12:30:19Z</time>
      </trkpt>
      <trkpt lat="46.88921" lon="-2.11714">
        <ele>2.3</ele>
        <time>2020-06-04T12:30:20Z</time>
      </trkpt>
      <trkpt lat="46.8892" lon="-2.11704">
        <ele>2.3</ele>
        <time>2020-06-04T12:30:21Z</time>
      </trkpt>
      <trkpt lat="46.8892" lon="-2.11695">
        <ele>2.3</ele>
        <time>2020-06-04T12:30:22Z</time>
      </trkpt>
      <trkpt lat="46.8892" lon="-2.11686">
        <ele>2.4</ele>
        <time>2020-06-04T12:30:23Z</time>
      </trkpt>
      <trkpt lat="46.88919" lon="-2.11676">
        <ele>2.4</ele>
        <time>2020-06-04T12:30:24Z</time>
      </trkpt>
      <trkpt lat="46.88918" lon="-2.11666">
        <ele>2.5</ele>
        <time>2020-06-04T12:30:25Z</time>
      </trkpt>
      <trkpt lat="46.88918" lon="-2.11656">
        <ele>2.6</ele>
        <time>2020-06-04T12:30:26Z</time>
      </trkpt>
      <trkpt lat="46.88917" lon="-2.11646">
        <ele>2.6</ele>
        <time>2020-06-04T12:30:27Z</time>
      </trkpt>
      <trkpt lat="46.88916" lon="-2.11636">
        <ele>2.6</ele>
        <time>2020-06-04T12:30:28Z</time>
      </trkpt>
      <trkpt lat="46.88915" lon="-2.11627">
        <ele>2.6</ele>
        <time>2020-06-04T12:30:29Z</time>
      </trkpt>
      <trkpt lat="46.88914" lon="-2.11617">
        <ele>2.6</ele>
        <time>2020-06-04T12:30:30Z</time>
      </trkpt>
      <trkpt lat="46.88914" lon="-2.11607">
        <ele>2.7</ele>
        <time>2020-06-04T12:30:31Z</time>
      </trkpt>
      <trkpt lat="46.88913" lon="-2.11597">
        <ele>2.7</ele>
        <time>2020-06-04T12:30:32Z</time>
      </trkpt>
      <trkpt lat="46.88913" lon="-2.11587">
        <ele>2.7</ele>
        <time>2020-06-04T12:30:33Z</time>
      </trkpt>
      <trkpt lat="46.88913" lon="-2.11578">
        <ele>2.6</ele>
        <time>2020-06-04T12:30:34Z</time>
      </trkpt>
      <trkpt lat="46.88913" lon="-2.11568">
        <ele>2.6</ele>
        <time>2020-06-04T12:30:35Z</time>
      </trkpt>
      <trkpt lat="46.88914" lon="-2.11559">
        <ele>2.6</ele>
        <time>2020-06-04T12:30:36Z</time>
      </trkpt>
      <trkpt lat="46.88913" lon="-2.1155">
        <ele>2.6</ele>
        <time>2020-06-04T12:30:37Z</time>
      </trkpt>
      <trkpt lat="46.88912" lon="-2.11542">
        <ele>2.6</ele>
        <time>2020-06-04T12:30:38Z</time>
      </trkpt>
      <trkpt lat="46.88912" lon="-2.11534">
        <ele>2.6</ele>
        <time>2020-06-04T12:30:39Z</time>
      </trkpt>
      <trkpt lat="46.88911" lon="-2.11526">
        <ele>2.5</ele>
        <time>2020-06-04T12:30:40Z</time>
      </trkpt>
      <trkpt lat="46.8891" lon="-2.11518">
        <ele>2.5</ele>
        <time>2020-06-04T12:30:41Z</time>
      </trkpt>
      <trkpt lat="46.88909" lon="-2.1151">
        <ele>2.5</ele>
        <time>2020-06-04T12:30:42Z</time>
      </trkpt>
      <trkpt lat="46.88908" lon="-2.11503">
        <ele>2.5</ele>
        <time>2020-06-04T12:30:43Z</time>
      </trkpt>
      <trkpt lat="46.88907" lon="-2.11497">
        <ele>2.5</ele>
        <time>2020-06-04T12:30:44Z</time>
      </trkpt>
      <trkpt lat="46.88908" lon="-2.11492">
        <ele>2.5</ele>
        <time>2020-06-04T12:30:45Z</time>
      </trkpt>
      <trkpt lat="46.88909" lon="-2.1149">
        <ele>2.5</ele>
        <time>2020-06-04T12:30:46Z</time>
      </trkpt>
      <trkpt lat="46.8891" lon="-2.11489">
        <ele>2.5</ele>
        <time>2020-06-04T12:30:47Z</time>
      </trkpt>
      <trkpt lat="46.88911" lon="-2.11492">
        <ele>2.5</ele>
        <time>2020-06-04T12:30:48Z</time>
      </trkpt>
      <trkpt lat="46.88912" lon="-2.11493">
        <ele>2.5</ele>
        <time>2020-06-04T12:30:49Z</time>
      </trkpt>
      <trkpt lat="46.88914" lon="-2.11497">
        <ele>2.5</ele>
        <time>2020-06-04T12:30:50Z</time>
      </trkpt>
      <trkpt lat="46.88916" lon="-2.11501">
        <ele>2.5</ele>
        <time>2020-06-04T12:30:51Z</time>
      </trkpt>
      <trkpt lat="46.88916" lon="-2.11505">
        <ele>2.5</ele>
        <time>2020-06-04T12:30:52Z</time>
      </trkpt>
      <trkpt lat="46.88917" lon="-2.11509">
        <ele>2.5</ele>
        <time>2020-06-04T12:30:53Z</time>
      </trkpt>
      <trkpt lat="46.88917" lon="-2.11515">
        <ele>2.5</ele>
        <time>2020-06-04T12:30:54Z</time>
      </trkpt>
      <trkpt lat="46.88917" lon="-2.1152">
        <ele>2.5</ele>
        <time>2020-06-04T12:30:55Z</time>
      </trkpt>
      <trkpt lat="46.88918" lon="-2.11526">
        <ele>2.5</ele>
        <time>2020-06-04T12:30:56Z</time>
      </trkpt>
      <trkpt lat="46.88919" lon="-2.11532">
        <ele>2.5</ele>
        <time>2020-06-04T12:30:57Z</time>
      </trkpt>
      <trkpt lat="46.88918" lon="-2.11538">
        <ele>2.6</ele>
        <time>2020-06-04T12:30:58Z</time>
      </trkpt>
      <trkpt lat="46.88918" lon="-2.11545">
        <ele>2.6</ele>
        <time>2020-06-04T12:30:59Z</time>
      </trkpt>
      <trkpt lat="46.88918" lon="-2.11552">
        <ele>2.6</ele>
        <time>2020-06-04T12:31:00Z</time>
      </trkpt>
      <trkpt lat="46.88918" lon="-2.11558">
        <ele>2.6</ele>
        <time>2020-06-04T12:31:01Z</time>
      </trkpt>
      <trkpt lat="46.88918" lon="-2.11564">
        <ele>2.6</ele>
        <time>2020-06-04T12:31:02Z</time>
      </trkpt>
      <trkpt lat="46.88918" lon="-2.1157">
        <ele>2.6</ele>
        <time>2020-06-04T12:31:03Z</time>
      </trkpt>
      <trkpt lat="46.88918" lon="-2.11576">
        <ele>2.6</ele>
        <time>2020-06-04T12:31:04Z</time>
      </trkpt>
      <trkpt lat="46.88918" lon="-2.11582">
        <ele>2.6</ele>
        <time>2020-06-04T12:31:05Z</time>
      </trkpt>
      <trkpt lat="46.88919" lon="-2.11587">
        <ele>2.7</ele>
        <time>2020-06-04T12:31:06Z</time>
      </trkpt>
      <trkpt lat="46.8892" lon="-2.11592">
        <ele>2.7</ele>
        <time>2020-06-04T12:31:07Z</time>
      </trkpt>
      <trkpt lat="46.88924" lon="-2.11592">
        <ele>2.8</ele>
        <time>2020-06-04T12:31:08Z</time>
      </trkpt>
      <trkpt lat="46.88925" lon="-2.11592">
        <ele>2.8</ele>
        <time>2020-06-04T12:31:09Z</time>
      </trkpt>
      <trkpt lat="46.88928" lon="-2.11591">
        <ele>2.8</ele>
        <time>2020-06-04T12:31:10Z</time>
      </trkpt>
      <trkpt lat="46.88931" lon="-2.1159">
        <ele>2.8</ele>
        <time>2020-06-04T12:31:11Z</time>
      </trkpt>
      <trkpt lat="46.88935" lon="-2.11589">
        <ele>2.9</ele>
        <time>2020-06-04T12:31:12Z</time>
      </trkpt>
      <trkpt lat="46.88939" lon="-2.11588">
        <ele>2.9</ele>
        <time>2020-06-04T12:31:13Z</time>
      </trkpt>
      <trkpt lat="46.88944" lon="-2.11588">
        <ele>3</ele>
        <time>2020-06-04T12:31:14Z</time>
      </trkpt>
      <trkpt lat="46.88949" lon="-2.11592">
        <ele>3.1</ele>
        <time>2020-06-04T12:31:15Z</time>
      </trkpt>
      <trkpt lat="46.88953" lon="-2.11591">
        <ele>3.1</ele>
        <time>2020-06-04T12:31:16Z</time>
      </trkpt>
      <trkpt lat="46.88957" lon="-2.11591">
        <ele>3.2</ele>
        <time>2020-06-04T12:31:17Z</time>
      </trkpt>
      <trkpt lat="46.8896" lon="-2.1159">
        <ele>3.2</ele>
        <time>2020-06-04T12:31:18Z</time>
      </trkpt>
      <trkpt lat="46.88962" lon="-2.11585">
        <ele>3.2</ele>
        <time>2020-06-04T12:31:19Z</time>
      </trkpt>
      <trkpt lat="46.88963" lon="-2.11581">
        <ele>3.3</ele>
        <time>2020-06-04T12:31:20Z</time>
      </trkpt>
      <trkpt lat="46.88965" lon="-2.11575">
        <ele>3.3</ele>
        <time>2020-06-04T12:31:21Z</time>
      </trkpt>
      <trkpt lat="46.88966" lon="-2.11571">
        <ele>3.3</ele>
        <time>2020-06-04T12:31:22Z</time>
      </trkpt>
      <trkpt lat="46.88967" lon="-2.11567">
        <ele>3.3</ele>
        <time>2020-06-04T12:31:23Z</time>
      </trkpt>
      <trkpt lat="46.88966" lon="-2.11563">
        <ele>3.3</ele>
        <time>2020-06-04T12:31:24Z</time>
      </trkpt>
      <trkpt lat="46.88966" lon="-2.11561">
        <ele>3.3</ele>
        <time>2020-06-04T12:31:25Z</time>
      </trkpt>
      <trkpt lat="46.88965" lon="-2.11556">
        <ele>3.3</ele>
        <time>2020-06-04T12:31:26Z</time>
      </trkpt>
      <trkpt lat="46.88965" lon="-2.11554">
        <ele>3.3</ele>
        <time>2020-06-04T12:31:27Z</time>
      </trkpt>
      <trkpt lat="46.88964" lon="-2.11549">
        <ele>3.3</ele>
        <time>2020-06-04T12:31:28Z</time>
      </trkpt>
      <trkpt lat="46.88964" lon="-2.11547">
        <ele>3.3</ele>
        <time>2020-06-04T12:31:29Z</time>
      </trkpt>
      <trkpt lat="46.88963" lon="-2.11542">
        <ele>3.3</ele>
        <time>2020-06-04T12:31:30Z</time>
      </trkpt>
      <trkpt lat="46.88962" lon="-2.1154">
        <ele>3.3</ele>
        <time>2020-06-04T12:31:31Z</time>
      </trkpt>
      <trkpt lat="46.88961" lon="-2.11535">
        <ele>3.3</ele>
        <time>2020-06-04T12:31:32Z</time>
      </trkpt>
      <trkpt lat="46.88961" lon="-2.11534">
        <ele>3.3</ele>
        <time>2020-06-04T12:31:33Z</time>
      </trkpt>
      <trkpt lat="46.8896" lon="-2.11529">
        <ele>3.3</ele>
        <time>2020-06-04T12:31:34Z</time>
      </trkpt>
      <trkpt lat="46.88959" lon="-2.11527">
        <ele>3.3</ele>
        <time>2020-06-04T12:31:35Z</time>
      </trkpt>
      <trkpt lat="46.88959" lon="-2.11523">
        <ele>3.3</ele>
        <time>2020-06-04T12:31:36Z</time>
      </trkpt>
      <trkpt lat="46.88957" lon="-2.11515">
        <ele>3.3</ele>
        <time>2020-06-04T12:31:37Z</time>
      </trkpt>
      <trkpt lat="46.88956" lon="-2.11507">
        <ele>3.3</ele>
        <time>2020-06-04T12:31:38Z</time>
      </trkpt>
      <trkpt lat="46.88956" lon="-2.115">
        <ele>3.3</ele>
        <time>2020-06-04T12:31:39Z</time>
      </trkpt>
      <trkpt lat="46.88955" lon="-2.11493">
        <ele>3.3</ele>
        <time>2020-06-04T12:31:40Z</time>
      </trkpt>
      <trkpt lat="46.88955" lon="-2.11486">
        <ele>3.3</ele>
        <time>2020-06-04T12:31:41Z</time>
      </trkpt>
      <trkpt lat="46.88955" lon="-2.11479">
        <ele>3.3</ele>
        <time>2020-06-04T12:31:42Z</time>
      </trkpt>
      <trkpt lat="46.88957" lon="-2.11471">
        <ele>3.3</ele>
        <time>2020-06-04T12:31:43Z</time>
      </trkpt>
      <trkpt lat="46.88958" lon="-2.11463">
        <ele>3.3</ele>
        <time>2020-06-04T12:31:44Z</time>
      </trkpt>
      <trkpt lat="46.8896" lon="-2.11457">
        <ele>3.3</ele>
        <time>2020-06-04T12:31:45Z</time>
      </trkpt>
      <trkpt lat="46.88961" lon="-2.11449">
        <ele>3.3</ele>
        <time>2020-06-04T12:31:46Z</time>
      </trkpt>
      <trkpt lat="46.88963" lon="-2.11442">
        <ele>3.3</ele>
        <time>2020-06-04T12:31:47Z</time>
      </trkpt>
      <trkpt lat="46.88964" lon="-2.11435">
        <ele>3.2</ele>
        <time>2020-06-04T12:31:48Z</time>
      </trkpt>
      <trkpt lat="46.88965" lon="-2.11428">
        <ele>3.2</ele>
        <time>2020-06-04T12:31:49Z</time>
      </trkpt>
      <trkpt lat="46.88968" lon="-2.11422">
        <ele>3.2</ele>
        <time>2020-06-04T12:31:50Z</time>
      </trkpt>
      <trkpt lat="46.88969" lon="-2.11415">
        <ele>3.2</ele>
        <time>2020-06-04T12:31:51Z</time>
      </trkpt>
      <trkpt lat="46.8897" lon="-2.11408">
        <ele>3.2</ele>
        <time>2020-06-04T12:31:52Z</time>
      </trkpt>
      <trkpt lat="46.88971" lon="-2.11402">
        <ele>3.2</ele>
        <time>2020-06-04T12:31:53Z</time>
      </trkpt>
      <trkpt lat="46.88972" lon="-2.11395">
        <ele>3.2</ele>
        <time>2020-06-04T12:31:54Z</time>
      </trkpt>
      <trkpt lat="46.88973" lon="-2.11389">
        <ele>3.1</ele>
        <time>2020-06-04T12:31:55Z</time>
      </trkpt>
      <trkpt lat="46.88973" lon="-2.11382">
        <ele>3.1</ele>
        <time>2020-06-04T12:31:56Z</time>
      </trkpt>
      <trkpt lat="46.88974" lon="-2.11375">
        <ele>3.1</ele>
        <time>2020-06-04T12:31:57Z</time>
      </trkpt>
      <trkpt lat="46.88974" lon="-2.11367">
        <ele>3.1</ele>
        <time>2020-06-04T12:31:58Z</time>
      </trkpt>
      <trkpt lat="46.88974" lon="-2.11359">
        <ele>3.1</ele>
        <time>2020-06-04T12:31:59Z</time>
      </trkpt>
      <trkpt lat="46.88974" lon="-2.11352">
        <ele>3.1</ele>
        <time>2020-06-04T12:32:00Z</time>
      </trkpt>
      <trkpt lat="46.88974" lon="-2.11344">
        <ele>3</ele>
        <time>2020-06-04T12:32:01Z</time>
      </trkpt>
      <trkpt lat="46.88973" lon="-2.11336">
        <ele>3</ele>
        <time>2020-06-04T12:32:02Z</time>
      </trkpt>
      <trkpt lat="46.88973" lon="-2.11328">
        <ele>3</ele>
        <time>2020-06-04T12:32:03Z</time>
      </trkpt>
      <trkpt lat="46.88972" lon="-2.11321">
        <ele>3</ele>
        <time>2020-06-04T12:32:04Z</time>
      </trkpt>
      <trkpt lat="46.8897" lon="-2.11313">
        <ele>3</ele>
        <time>2020-06-04T12:32:05Z</time>
      </trkpt>
      <trkpt lat="46.88969" lon="-2.11306">
        <ele>3</ele>
        <time>2020-06-04T12:32:06Z</time>
      </trkpt>
      <trkpt lat="46.88967" lon="-2.11298">
        <ele>3</ele>
        <time>2020-06-04T12:32:07Z</time>
      </trkpt>
      <trkpt lat="46.88966" lon="-2.11292">
        <ele>3</ele>
        <time>2020-06-04T12:32:08Z</time>
      </trkpt>
      <trkpt lat="46.88964" lon="-2.11285">
        <ele>3</ele>
        <time>2020-06-04T12:32:09Z</time>
      </trkpt>
      <trkpt lat="46.88963" lon="-2.11279">
        <ele>3</ele>
        <time>2020-06-04T12:32:10Z</time>
      </trkpt>
      <trkpt lat="46.88962" lon="-2.11272">
        <ele>3.1</ele>
        <time>2020-06-04T12:32:11Z</time>
      </trkpt>
      <trkpt lat="46.88961" lon="-2.11265">
        <ele>3.1</ele>
        <time>2020-06-04T12:32:12Z</time>
      </trkpt>
      <trkpt lat="46.8896" lon="-2.11257">
        <ele>3.1</ele>
        <time>2020-06-04T12:32:13Z</time>
      </trkpt>
      <trkpt lat="46.88959" lon="-2.1125">
        <ele>3.1</ele>
        <time>2020-06-04T12:32:14Z</time>
      </trkpt>
      <trkpt lat="46.88958" lon="-2.11243">
        <ele>3.2</ele>
        <time>2020-06-04T12:32:15Z</time>
      </trkpt>
      <trkpt lat="46.88957" lon="-2.11236">
        <ele>3.2</ele>
        <time>2020-06-04T12:32:16Z</time>
      </trkpt>
      <trkpt lat="46.88956" lon="-2.11229">
        <ele>3.2</ele>
        <time>2020-06-04T12:32:17Z</time>
      </trkpt>
      <trkpt lat="46.88955" lon="-2.11222">
        <ele>3.3</ele>
        <time>2020-06-04T12:32:18Z</time>
      </trkpt>
      <trkpt lat="46.88954" lon="-2.11215">
        <ele>3.3</ele>
        <time>2020-06-04T12:32:19Z</time>
      </trkpt>
      <trkpt lat="46.88953" lon="-2.11208">
        <ele>3.3</ele>
        <time>2020-06-04T12:32:20Z</time>
      </trkpt>
      <trkpt lat="46.88952" lon="-2.11201">
        <ele>3.4</ele>
        <time>2020-06-04T12:32:21Z</time>
      </trkpt>
      <trkpt lat="46.88952" lon="-2.11195">
        <ele>3.4</ele>
        <time>2020-06-04T12:32:22Z</time>
      </trkpt>
      <trkpt lat="46.88951" lon="-2.1119">
        <ele>3.5</ele>
        <time>2020-06-04T12:32:23Z</time>
      </trkpt>
      <trkpt lat="46.8895" lon="-2.11185">
        <ele>3.4</ele>
        <time>2020-06-04T12:32:24Z</time>
      </trkpt>
      <trkpt lat="46.8895" lon="-2.11184">
        <ele>3.4</ele>
        <time>2020-06-04T12:32:25Z</time>
      </trkpt>
      <trkpt lat="46.8895" lon="-2.11179">
        <ele>3.4</ele>
        <time>2020-06-04T12:32:26Z</time>
      </trkpt>
      <trkpt lat="46.88951" lon="-2.11177">
        <ele>3.4</ele>
        <time>2020-06-04T12:32:27Z</time>
      </trkpt>
      <trkpt lat="46.8895" lon="-2.11172">
        <ele>3.4</ele>
        <time>2020-06-04T12:32:28Z</time>
      </trkpt>
      <trkpt lat="46.88951" lon="-2.11166">
        <ele>3.4</ele>
        <time>2020-06-04T12:32:29Z</time>
      </trkpt>
      <trkpt lat="46.8895" lon="-2.1116">
        <ele>3.4</ele>
        <time>2020-06-04T12:32:30Z</time>
      </trkpt>
      <trkpt lat="46.8895" lon="-2.11156">
        <ele>3.4</ele>
        <time>2020-06-04T12:32:31Z</time>
      </trkpt>
      <trkpt lat="46.88949" lon="-2.11153">
        <ele>3.4</ele>
        <time>2020-06-04T12:32:32Z</time>
      </trkpt>
      <trkpt lat="46.88948" lon="-2.11152">
        <ele>3.4</ele>
        <time>2020-06-04T12:32:33Z</time>
      </trkpt>
      <trkpt lat="46.88945" lon="-2.1115">
        <ele>3.4</ele>
        <time>2020-06-04T12:32:34Z</time>
      </trkpt>
      <trkpt lat="46.88945" lon="-2.11144">
        <ele>3.4</ele>
        <time>2020-06-04T12:32:35Z</time>
      </trkpt>
      <trkpt lat="46.88946" lon="-2.11142">
        <ele>3.4</ele>
        <time>2020-06-04T12:32:36Z</time>
      </trkpt>
      <trkpt lat="46.88946" lon="-2.1114">
        <ele>3.4</ele>
        <time>2020-06-04T12:32:37Z</time>
      </trkpt>
      <trkpt lat="46.88947" lon="-2.11139">
        <ele>3.4</ele>
        <time>2020-06-04T12:32:38Z</time>
      </trkpt>
      <trkpt lat="46.88947" lon="-2.11139">
        <ele>3.4</ele>
        <time>2020-06-04T12:32:39Z</time>
      </trkpt>
      <trkpt lat="46.88947" lon="-2.11142">
        <ele>3.4</ele>
        <time>2020-06-04T12:32:40Z</time>
      </trkpt>
      <trkpt lat="46.88947" lon="-2.11142">
        <ele>3.4</ele>
        <time>2020-06-04T12:32:41Z</time>
      </trkpt>
      <trkpt lat="46.88947" lon="-2.11144">
        <ele>3.5</ele>
        <time>2020-06-04T12:32:42Z</time>
      </trkpt>
      <trkpt lat="46.88948" lon="-2.11145">
        <ele>3.5</ele>
        <time>2020-06-04T12:32:43Z</time>
      </trkpt>
      <trkpt lat="46.88949" lon="-2.11149">
        <ele>3.5</ele>
        <time>2020-06-04T12:32:44Z</time>
      </trkpt>
      <trkpt lat="46.88949" lon="-2.11151">
        <ele>3.5</ele>
        <time>2020-06-04T12:32:45Z</time>
      </trkpt>
      <trkpt lat="46.8895" lon="-2.11155">
        <ele>3.4</ele>
        <time>2020-06-04T12:32:46Z</time>
      </trkpt>
      <trkpt lat="46.8895" lon="-2.1116">
        <ele>3.4</ele>
        <time>2020-06-04T12:32:47Z</time>
      </trkpt>
      <trkpt lat="46.88951" lon="-2.11166">
        <ele>3.4</ele>
        <time>2020-06-04T12:32:48Z</time>
      </trkpt>
      <trkpt lat="46.88952" lon="-2.11168">
        <ele>3.4</ele>
        <time>2020-06-04T12:32:49Z</time>
      </trkpt>
      <trkpt lat="46.88952" lon="-2.11173">
        <ele>3.4</ele>
        <time>2020-06-04T12:32:50Z</time>
      </trkpt>
      <trkpt lat="46.88953" lon="-2.11177">
        <ele>3.4</ele>
        <time>2020-06-04T12:32:51Z</time>
      </trkpt>
      <trkpt lat="46.88953" lon="-2.11181">
        <ele>3.4</ele>
        <time>2020-06-04T12:32:52Z</time>
      </trkpt>
      <trkpt lat="46.88951" lon="-2.11187">
        <ele>3.4</ele>
        <time>2020-06-04T12:32:53Z</time>
      </trkpt>
      <trkpt lat="46.8895" lon="-2.11188">
        <ele>3.4</ele>
        <time>2020-06-04T12:32:54Z</time>
      </trkpt>
      <trkpt lat="46.88947" lon="-2.11187">
        <ele>3.4</ele>
        <time>2020-06-04T12:32:55Z</time>
      </trkpt>
      <trkpt lat="46.88944" lon="-2.11187">
        <ele>3.4</ele>
        <time>2020-06-04T12:32:56Z</time>
      </trkpt>
      <trkpt lat="46.88943" lon="-2.11187">
        <ele>3.5</ele>
        <time>2020-06-04T12:32:57Z</time>
      </trkpt>
      <trkpt lat="46.8894" lon="-2.11187">
        <ele>3.6</ele>
        <time>2020-06-04T12:32:58Z</time>
      </trkpt>
      <trkpt lat="46.88938" lon="-2.11187">
        <ele>3.6</ele>
        <time>2020-06-04T12:32:59Z</time>
      </trkpt>
      <trkpt lat="46.88935" lon="-2.11188">
        <ele>3.6</ele>
        <time>2020-06-04T12:33:00Z</time>
      </trkpt>
      <trkpt lat="46.88934" lon="-2.11188">
        <ele>3.6</ele>
        <time>2020-06-04T12:33:01Z</time>
      </trkpt>
      <trkpt lat="46.88933" lon="-2.11189">
        <ele>3.7</ele>
        <time>2020-06-04T12:33:02Z</time>
      </trkpt>
      <trkpt lat="46.88932" lon="-2.1119">
        <ele>3.7</ele>
        <time>2020-06-04T12:33:03Z</time>
      </trkpt>
      <trkpt lat="46.88929" lon="-2.11191">
        <ele>3.7</ele>
        <time>2020-06-04T12:33:04Z</time>
      </trkpt>
      <trkpt lat="46.88926" lon="-2.11192">
        <ele>3.8</ele>
        <time>2020-06-04T12:33:05Z</time>
      </trkpt>
      <trkpt lat="46.88923" lon="-2.11191">
        <ele>3.8</ele>
        <time>2020-06-04T12:33:06Z</time>
      </trkpt>
      <trkpt lat="46.88919" lon="-2.11192">
        <ele>3.8</ele>
        <time>2020-06-04T12:33:07Z</time>
      </trkpt>
      <trkpt lat="46.88915" lon="-2.11194">
        <ele>3.8</ele>
        <time>2020-06-04T12:33:08Z</time>
      </trkpt>
      <trkpt lat="46.88911" lon="-2.11196">
        <ele>3.9</ele>
        <time>2020-06-04T12:33:09Z</time>
      </trkpt>
      <trkpt lat="46.88908" lon="-2.11197">
        <ele>3.9</ele>
        <time>2020-06-04T12:33:10Z</time>
      </trkpt>
      <trkpt lat="46.88904" lon="-2.11198">
        <ele>3.9</ele>
        <time>2020-06-04T12:33:11Z</time>
      </trkpt>
      <trkpt lat="46.88903" lon="-2.11198">
        <ele>3.9</ele>
        <time>2020-06-04T12:33:12Z</time>
      </trkpt>
      <trkpt lat="46.889" lon="-2.11195">
        <ele>3.9</ele>
        <time>2020-06-04T12:33:13Z</time>
      </trkpt>
      <trkpt lat="46.88899" lon="-2.11194">
        <ele>3.9</ele>
        <time>2020-06-04T12:33:14Z</time>
      </trkpt>
      <trkpt lat="46.88897" lon="-2.11191">
        <ele>3.9</ele>
        <time>2020-06-04T12:33:15Z</time>
      </trkpt>
      <trkpt lat="46.88894" lon="-2.11189">
        <ele>4.1</ele>
        <time>2020-06-04T12:33:16Z</time>
      </trkpt>
      <trkpt lat="46.88891" lon="-2.11188">
        <ele>4.1</ele>
        <time>2020-06-04T12:33:17Z</time>
      </trkpt>
      <trkpt lat="46.88887" lon="-2.11187">
        <ele>4.1</ele>
        <time>2020-06-04T12:33:18Z</time>
      </trkpt>
      <trkpt lat="46.88882" lon="-2.11184">
        <ele>4.1</ele>
        <time>2020-06-04T12:33:19Z</time>
      </trkpt>
      <trkpt lat="46.88879" lon="-2.1118">
        <ele>4.1</ele>
        <time>2020-06-04T12:33:20Z</time>
      </trkpt>
      <trkpt lat="46.88877" lon="-2.11175">
        <ele>4.2</ele>
        <time>2020-06-04T12:33:21Z</time>
      </trkpt>
      <trkpt lat="46.88877" lon="-2.11168">
        <ele>4.2</ele>
        <time>2020-06-04T12:33:22Z</time>
      </trkpt>
      <trkpt lat="46.88876" lon="-2.11162">
        <ele>4.3</ele>
        <time>2020-06-04T12:33:23Z</time>
      </trkpt>
      <trkpt lat="46.88876" lon="-2.11153">
        <ele>4.3</ele>
        <time>2020-06-04T12:33:24Z</time>
      </trkpt>
      <trkpt lat="46.88877" lon="-2.11146">
        <ele>4.3</ele>
        <time>2020-06-04T12:33:25Z</time>
      </trkpt>
      <trkpt lat="46.88878" lon="-2.1114">
        <ele>4.4</ele>
        <time>2020-06-04T12:33:26Z</time>
      </trkpt>
      <trkpt lat="46.8888" lon="-2.11134">
        <ele>4.4</ele>
        <time>2020-06-04T12:33:27Z</time>
      </trkpt>
      <trkpt lat="46.88882" lon="-2.11127">
        <ele>4.4</ele>
        <time>2020-06-04T12:33:28Z</time>
      </trkpt>
      <trkpt lat="46.88885" lon="-2.11121">
        <ele>4.5</ele>
        <time>2020-06-04T12:33:29Z</time>
      </trkpt>
      <trkpt lat="46.88889" lon="-2.11115">
        <ele>4.5</ele>
        <time>2020-06-04T12:33:30Z</time>
      </trkpt>
      <trkpt lat="46.88893" lon="-2.11109">
        <ele>4.5</ele>
        <time>2020-06-04T12:33:31Z</time>
      </trkpt>
      <trkpt lat="46.88896" lon="-2.11102">
        <ele>4.5</ele>
        <time>2020-06-04T12:33:32Z</time>
      </trkpt>
      <trkpt lat="46.88899" lon="-2.11094">
        <ele>4.5</ele>
        <time>2020-06-04T12:33:33Z</time>
      </trkpt>
      <trkpt lat="46.88901" lon="-2.11087">
        <ele>4.5</ele>
        <time>2020-06-04T12:33:34Z</time>
      </trkpt>
      <trkpt lat="46.88903" lon="-2.11081">
        <ele>4.4</ele>
        <time>2020-06-04T12:33:35Z</time>
      </trkpt>
      <trkpt lat="46.88904" lon="-2.11075">
        <ele>4.4</ele>
        <time>2020-06-04T12:33:36Z</time>
      </trkpt>
      <trkpt lat="46.88906" lon="-2.1107">
        <ele>4.4</ele>
        <time>2020-06-04T12:33:37Z</time>
      </trkpt>
      <trkpt lat="46.88909" lon="-2.11065">
        <ele>4.3</ele>
        <time>2020-06-04T12:33:38Z</time>
      </trkpt>
      <trkpt lat="46.8891" lon="-2.11061">
        <ele>4.3</ele>
        <time>2020-06-04T12:33:39Z</time>
      </trkpt>
      <trkpt lat="46.88911" lon="-2.11056">
        <ele>4.3</ele>
        <time>2020-06-04T12:33:40Z</time>
      </trkpt>
      <trkpt lat="46.88913" lon="-2.11051">
        <ele>4.3</ele>
        <time>2020-06-04T12:33:41Z</time>
      </trkpt>
      <trkpt lat="46.88914" lon="-2.11046">
        <ele>4.3</ele>
        <time>2020-06-04T12:33:42Z</time>
      </trkpt>
      <trkpt lat="46.88915" lon="-2.11041">
        <ele>4.2</ele>
        <time>2020-06-04T12:33:43Z</time>
      </trkpt>
      <trkpt lat="46.88916" lon="-2.11038">
        <ele>4.2</ele>
        <time>2020-06-04T12:33:44Z</time>
      </trkpt>
      <trkpt lat="46.88917" lon="-2.11033">
        <ele>4.1</ele>
        <time>2020-06-04T12:33:45Z</time>
      </trkpt>
      <trkpt lat="46.88918" lon="-2.11031">
        <ele>3.6</ele>
        <time>2020-06-04T12:33:46Z</time>
      </trkpt>
      <trkpt lat="46.88918" lon="-2.11025">
        <ele>3.6</ele>
        <time>2020-06-04T12:33:47Z</time>
      </trkpt>
      <trkpt lat="46.88919" lon="-2.11019">
        <ele>3.6</ele>
        <time>2020-06-04T12:33:48Z</time>
      </trkpt>
      <trkpt lat="46.88919" lon="-2.11013">
        <ele>3.6</ele>
        <time>2020-06-04T12:33:49Z</time>
      </trkpt>
      <trkpt lat="46.88919" lon="-2.11007">
        <ele>3.6</ele>
        <time>2020-06-04T12:33:50Z</time>
      </trkpt>
      <trkpt lat="46.88918" lon="-2.11001">
        <ele>3.6</ele>
        <time>2020-06-04T12:33:51Z</time>
      </trkpt>
      <trkpt lat="46.88916" lon="-2.10999">
        <ele>3.5</ele>
        <time>2020-06-04T12:33:52Z</time>
      </trkpt>
      <trkpt lat="46.88911" lon="-2.10999">
        <ele>3.5</ele>
        <time>2020-06-04T12:33:53Z</time>
      </trkpt>
      <trkpt lat="46.88907" lon="-2.10998">
        <ele>3.5</ele>
        <time>2020-06-04T12:33:54Z</time>
      </trkpt>
      <trkpt lat="46.88903" lon="-2.10997">
        <ele>3.5</ele>
        <time>2020-06-04T12:33:55Z</time>
      </trkpt>
      <trkpt lat="46.88899" lon="-2.10995">
        <ele>3.5</ele>
        <time>2020-06-04T12:33:56Z</time>
      </trkpt>
      <trkpt lat="46.88895" lon="-2.10995">
        <ele>3.5</ele>
        <time>2020-06-04T12:33:57Z</time>
      </trkpt>
      <trkpt lat="46.88892" lon="-2.10993">
        <ele>3.5</ele>
        <time>2020-06-04T12:33:58Z</time>
      </trkpt>
      <trkpt lat="46.88891" lon="-2.10993">
        <ele>3.5</ele>
        <time>2020-06-04T12:33:59Z</time>
      </trkpt>
      <trkpt lat="46.8889" lon="-2.10993">
        <ele>3.5</ele>
        <time>2020-06-04T12:34:00Z</time>
      </trkpt>
      <trkpt lat="46.8889" lon="-2.10993">
        <ele>3.5</ele>
        <time>2020-06-04T12:34:01Z</time>
      </trkpt>
      <trkpt lat="46.88888" lon="-2.10992">
        <ele>3.5</ele>
        <time>2020-06-04T12:34:02Z</time>
      </trkpt>
      <trkpt lat="46.88886" lon="-2.10991">
        <ele>3.5</ele>
        <time>2020-06-04T12:34:03Z</time>
      </trkpt>
      <trkpt lat="46.88884" lon="-2.10991">
        <ele>3.5</ele>
        <time>2020-06-04T12:34:04Z</time>
      </trkpt>
      <trkpt lat="46.88882" lon="-2.10989">
        <ele>3.5</ele>
        <time>2020-06-04T12:34:05Z</time>
      </trkpt>
      <trkpt lat="46.88879" lon="-2.10988">
        <ele>3.5</ele>
        <time>2020-06-04T12:34:06Z</time>
      </trkpt>
      <trkpt lat="46.88873" lon="-2.10986">
        <ele>3.5</ele>
        <time>2020-06-04T12:34:07Z</time>
      </trkpt>
      <trkpt lat="46.88869" lon="-2.10985">
        <ele>3.4</ele>
        <time>2020-06-04T12:34:08Z</time>
      </trkpt>
      <trkpt lat="46.88865" lon="-2.10984">
        <ele>3.4</ele>
        <time>2020-06-04T12:34:09Z</time>
      </trkpt>
      <trkpt lat="46.88862" lon="-2.10984">
        <ele>3.4</ele>
        <time>2020-06-04T12:34:10Z</time>
      </trkpt>
      <trkpt lat="46.88859" lon="-2.10985">
        <ele>3.4</ele>
        <time>2020-06-04T12:34:11Z</time>
      </trkpt>
      <trkpt lat="46.88856" lon="-2.10985">
        <ele>3.4</ele>
        <time>2020-06-04T12:34:12Z</time>
      </trkpt>
      <trkpt lat="46.88853" lon="-2.10987">
        <ele>3.4</ele>
        <time>2020-06-04T12:34:13Z</time>
      </trkpt>
      <trkpt lat="46.88848" lon="-2.10989">
        <ele>3.4</ele>
        <time>2020-06-04T12:34:14Z</time>
      </trkpt>
      <trkpt lat="46.88846" lon="-2.10991">
        <ele>3.4</ele>
        <time>2020-06-04T12:34:15Z</time>
      </trkpt>
      <trkpt lat="46.88843" lon="-2.10991">
        <ele>3.4</ele>
        <time>2020-06-04T12:34:16Z</time>
      </trkpt>
      <trkpt lat="46.8884" lon="-2.10991">
        <ele>3.4</ele>
        <time>2020-06-04T12:34:17Z</time>
      </trkpt>
      <trkpt lat="46.88837" lon="-2.1099">
        <ele>3.4</ele>
        <time>2020-06-04T12:34:18Z</time>
      </trkpt>
      <trkpt lat="46.88834" lon="-2.10989">
        <ele>3.4</ele>
        <time>2020-06-04T12:34:19Z</time>
      </trkpt>
      <trkpt lat="46.88831" lon="-2.10986">
        <ele>3.3</ele>
        <time>2020-06-04T12:34:20Z</time>
      </trkpt>
      <trkpt lat="46.8883" lon="-2.10985">
        <ele>3.3</ele>
        <time>2020-06-04T12:34:21Z</time>
      </trkpt>
      <trkpt lat="46.88827" lon="-2.10982">
        <ele>3.3</ele>
        <time>2020-06-04T12:34:22Z</time>
      </trkpt>
      <trkpt lat="46.88827" lon="-2.10981">
        <ele>3.3</ele>
        <time>2020-06-04T12:34:23Z</time>
      </trkpt>
      <trkpt lat="46.88825" lon="-2.10977">
        <ele>3.3</ele>
        <time>2020-06-04T12:34:24Z</time>
      </trkpt>
      <trkpt lat="46.88824" lon="-2.10977">
        <ele>3.3</ele>
        <time>2020-06-04T12:34:25Z</time>
      </trkpt>
      <trkpt lat="46.88823" lon="-2.10975">
        <ele>3.3</ele>
        <time>2020-06-04T12:34:26Z</time>
      </trkpt>
      <trkpt lat="46.88821" lon="-2.10974">
        <ele>3.3</ele>
        <time>2020-06-04T12:34:27Z</time>
      </trkpt>
      <trkpt lat="46.88818" lon="-2.10973">
        <ele>3.3</ele>
        <time>2020-06-04T12:34:28Z</time>
      </trkpt>
      <trkpt lat="46.88817" lon="-2.10973">
        <ele>3.3</ele>
        <time>2020-06-04T12:34:29Z</time>
      </trkpt>
      <trkpt lat="46.88816" lon="-2.10973">
        <ele>3.3</ele>
        <time>2020-06-04T12:34:30Z</time>
      </trkpt>
      <trkpt lat="46.88814" lon="-2.10973">
        <ele>3.3</ele>
        <time>2020-06-04T12:34:31Z</time>
      </trkpt>
      <trkpt lat="46.88813" lon="-2.10973">
        <ele>3.3</ele>
        <time>2020-06-04T12:34:32Z</time>
      </trkpt>
      <trkpt lat="46.88811" lon="-2.10973">
        <ele>3.3</ele>
        <time>2020-06-04T12:34:33Z</time>
      </trkpt>
      <trkpt lat="46.88808" lon="-2.10974">
        <ele>3.3</ele>
        <time>2020-06-04T12:34:34Z</time>
      </trkpt>
      <trkpt lat="46.88807" lon="-2.10974">
        <ele>3.3</ele>
        <time>2020-06-04T12:34:35Z</time>
      </trkpt>
      <trkpt lat="46.88804" lon="-2.10974">
        <ele>3.3</ele>
        <time>2020-06-04T12:34:36Z</time>
      </trkpt>
      <trkpt lat="46.88803" lon="-2.10974">
        <ele>3.3</ele>
        <time>2020-06-04T12:34:37Z</time>
      </trkpt>
      <trkpt lat="46.888" lon="-2.10974">
        <ele>3.3</ele>
        <time>2020-06-04T12:34:38Z</time>
      </trkpt>
      <trkpt lat="46.88799" lon="-2.10974">
        <ele>3.3</ele>
        <time>2020-06-04T12:34:39Z</time>
      </trkpt>
      <trkpt lat="46.88798" lon="-2.10974">
        <ele>3.3</ele>
        <time>2020-06-04T12:34:40Z</time>
      </trkpt>
      <trkpt lat="46.88796" lon="-2.10975">
        <ele>3.3</ele>
        <time>2020-06-04T12:34:41Z</time>
      </trkpt>
      <trkpt lat="46.88795" lon="-2.10976">
        <ele>3.3</ele>
        <time>2020-06-04T12:34:42Z</time>
      </trkpt>
      <trkpt lat="46.88793" lon="-2.10976">
        <ele>3.3</ele>
        <time>2020-06-04T12:34:43Z</time>
      </trkpt>
      <trkpt lat="46.88789" lon="-2.10977">
        <ele>3.3</ele>
        <time>2020-06-04T12:34:44Z</time>
      </trkpt>
      <trkpt lat="46.88788" lon="-2.10977">
        <ele>3.3</ele>
        <time>2020-06-04T12:34:45Z</time>
      </trkpt>
      <trkpt lat="46.88784" lon="-2.10978">
        <ele>3.3</ele>
        <time>2020-06-04T12:34:46Z</time>
      </trkpt>
      <trkpt lat="46.88782" lon="-2.10978">
        <ele>3.3</ele>
        <time>2020-06-04T12:34:47Z</time>
      </trkpt>
      <trkpt lat="46.88778" lon="-2.10979">
        <ele>3.3</ele>
        <time>2020-06-04T12:34:48Z</time>
      </trkpt>
      <trkpt lat="46.88777" lon="-2.10979">
        <ele>3.3</ele>
        <time>2020-06-04T12:34:49Z</time>
      </trkpt>
      <trkpt lat="46.88773" lon="-2.10979">
        <ele>3.3</ele>
        <time>2020-06-04T12:34:50Z</time>
      </trkpt>
      <trkpt lat="46.88772" lon="-2.10979">
        <ele>3.3</ele>
        <time>2020-06-04T12:34:51Z</time>
      </trkpt>
      <trkpt lat="46.88769" lon="-2.10979">
        <ele>3.3</ele>
        <time>2020-06-04T12:34:52Z</time>
      </trkpt>
      <trkpt lat="46.88765" lon="-2.10978">
        <ele>3.3</ele>
        <time>2020-06-04T12:34:53Z</time>
      </trkpt>
      <trkpt lat="46.88763" lon="-2.10978">
        <ele>3.3</ele>
        <time>2020-06-04T12:34:54Z</time>
      </trkpt>
      <trkpt lat="46.8876" lon="-2.10978">
        <ele>3.3</ele>
        <time>2020-06-04T12:34:55Z</time>
      </trkpt>
      <trkpt lat="46.88756" lon="-2.10978">
        <ele>3.3</ele>
        <time>2020-06-04T12:34:56Z</time>
      </trkpt>
      <trkpt lat="46.88753" lon="-2.10978">
        <ele>3.3</ele>
        <time>2020-06-04T12:34:57Z</time>
      </trkpt>
      <trkpt lat="46.88752" lon="-2.10978">
        <ele>3.3</ele>
        <time>2020-06-04T12:34:58Z</time>
      </trkpt>
      <trkpt lat="46.88749" lon="-2.1098">
        <ele>3.3</ele>
        <time>2020-06-04T12:34:59Z</time>
      </trkpt>
      <trkpt lat="46.88748" lon="-2.1098">
        <ele>3.3</ele>
        <time>2020-06-04T12:35:00Z</time>
      </trkpt>
      <trkpt lat="46.88745" lon="-2.1098">
        <ele>3.3</ele>
        <time>2020-06-04T12:35:01Z</time>
      </trkpt>
      <trkpt lat="46.88741" lon="-2.10979">
        <ele>3.3</ele>
        <time>2020-06-04T12:35:02Z</time>
      </trkpt>
      <trkpt lat="46.8874" lon="-2.10978">
        <ele>3.3</ele>
        <time>2020-06-04T12:35:03Z</time>
      </trkpt>
      <trkpt lat="46.88736" lon="-2.10978">
        <ele>3.3</ele>
        <time>2020-06-04T12:35:04Z</time>
      </trkpt>
      <trkpt lat="46.88735" lon="-2.10978">
        <ele>3.3</ele>
        <time>2020-06-04T12:35:05Z</time>
      </trkpt>
      <trkpt lat="46.88732" lon="-2.10977">
        <ele>3.3</ele>
        <time>2020-06-04T12:35:06Z</time>
      </trkpt>
      <trkpt lat="46.88729" lon="-2.10976">
        <ele>3.3</ele>
        <time>2020-06-04T12:35:07Z</time>
      </trkpt>
      <trkpt lat="46.88728" lon="-2.10976">
        <ele>3.3</ele>
        <time>2020-06-04T12:35:08Z</time>
      </trkpt>
      <trkpt lat="46.88725" lon="-2.10976">
        <ele>3.3</ele>
        <time>2020-06-04T12:35:09Z</time>
      </trkpt>
      <trkpt lat="46.88723" lon="-2.10975">
        <ele>3.3</ele>
        <time>2020-06-04T12:35:10Z</time>
      </trkpt>
      <trkpt lat="46.8872" lon="-2.10974">
        <ele>3.3</ele>
        <time>2020-06-04T12:35:11Z</time>
      </trkpt>
      <trkpt lat="46.88719" lon="-2.10973">
        <ele>3.3</ele>
        <time>2020-06-04T12:35:12Z</time>
      </trkpt>
      <trkpt lat="46.88716" lon="-2.10971">
        <ele>3.3</ele>
        <time>2020-06-04T12:35:13Z</time>
      </trkpt>
      <trkpt lat="46.88714" lon="-2.10968">
        <ele>3.3</ele>
        <time>2020-06-04T12:35:14Z</time>
      </trkpt>
      <trkpt lat="46.88711" lon="-2.10963">
        <ele>3.3</ele>
        <time>2020-06-04T12:35:15Z</time>
      </trkpt>
      <trkpt lat="46.8871" lon="-2.10962">
        <ele>3.3</ele>
        <time>2020-06-04T12:35:16Z</time>
      </trkpt>
      <trkpt lat="46.88709" lon="-2.10958">
        <ele>3.3</ele>
        <time>2020-06-04T12:35:17Z</time>
      </trkpt>
      <trkpt lat="46.88707" lon="-2.10953">
        <ele>3.3</ele>
        <time>2020-06-04T12:35:18Z</time>
      </trkpt>
      <trkpt lat="46.88707" lon="-2.10951">
        <ele>3.3</ele>
        <time>2020-06-04T12:35:19Z</time>
      </trkpt>
      <trkpt lat="46.88705" lon="-2.10945">
        <ele>3.2</ele>
        <time>2020-06-04T12:35:20Z</time>
      </trkpt>
      <trkpt lat="46.88704" lon="-2.10943">
        <ele>3.2</ele>
        <time>2020-06-04T12:35:21Z</time>
      </trkpt>
      <trkpt lat="46.88703" lon="-2.10939">
        <ele>3.2</ele>
        <time>2020-06-04T12:35:22Z</time>
      </trkpt>
      <trkpt lat="46.88703" lon="-2.10935">
        <ele>3.2</ele>
        <time>2020-06-04T12:35:23Z</time>
      </trkpt>
      <trkpt lat="46.88702" lon="-2.10931">
        <ele>3.2</ele>
        <time>2020-06-04T12:35:24Z</time>
      </trkpt>
      <trkpt lat="46.88701" lon="-2.10928">
        <ele>3.2</ele>
        <time>2020-06-04T12:35:25Z</time>
      </trkpt>
      <trkpt lat="46.88699" lon="-2.10924">
        <ele>3.2</ele>
        <time>2020-06-04T12:35:26Z</time>
      </trkpt>
      <trkpt lat="46.88698" lon="-2.1092">
        <ele>3.2</ele>
        <time>2020-06-04T12:35:27Z</time>
      </trkpt>
      <trkpt lat="46.88697" lon="-2.10915">
        <ele>3.2</ele>
        <time>2020-06-04T12:35:28Z</time>
      </trkpt>
      <trkpt lat="46.88697" lon="-2.10913">
        <ele>3.2</ele>
        <time>2020-06-04T12:35:29Z</time>
      </trkpt>
      <trkpt lat="46.88696" lon="-2.10909">
        <ele>3.2</ele>
        <time>2020-06-04T12:35:30Z</time>
      </trkpt>
      <trkpt lat="46.88696" lon="-2.10907">
        <ele>3.2</ele>
        <time>2020-06-04T12:35:31Z</time>
      </trkpt>
      <trkpt lat="46.88696" lon="-2.10902">
        <ele>3.2</ele>
        <time>2020-06-04T12:35:32Z</time>
      </trkpt>
      <trkpt lat="46.88695" lon="-2.109">
        <ele>3.1</ele>
        <time>2020-06-04T12:35:33Z</time>
      </trkpt>
      <trkpt lat="46.88696" lon="-2.10896">
        <ele>3.1</ele>
        <time>2020-06-04T12:35:34Z</time>
      </trkpt>
      <trkpt lat="46.88695" lon="-2.10894">
        <ele>3.1</ele>
        <time>2020-06-04T12:35:35Z</time>
      </trkpt>
      <trkpt lat="46.88696" lon="-2.1089">
        <ele>3.1</ele>
        <time>2020-06-04T12:35:36Z</time>
      </trkpt>
      <trkpt lat="46.88696" lon="-2.10889">
        <ele>3.1</ele>
        <time>2020-06-04T12:35:37Z</time>
      </trkpt>
      <trkpt lat="46.88695" lon="-2.10884">
        <ele>3.1</ele>
        <time>2020-06-04T12:35:38Z</time>
      </trkpt>
      <trkpt lat="46.88695" lon="-2.10882">
        <ele>3.1</ele>
        <time>2020-06-04T12:35:39Z</time>
      </trkpt>
      <trkpt lat="46.88694" lon="-2.10877">
        <ele>3.1</ele>
        <time>2020-06-04T12:35:40Z</time>
      </trkpt>
      <trkpt lat="46.88694" lon="-2.10876">
        <ele>3.1</ele>
        <time>2020-06-04T12:35:41Z</time>
      </trkpt>
      <trkpt lat="46.88694" lon="-2.10872">
        <ele>3.1</ele>
        <time>2020-06-04T12:35:42Z</time>
      </trkpt>
      <trkpt lat="46.88693" lon="-2.1087">
        <ele>3.1</ele>
        <time>2020-06-04T12:35:43Z</time>
      </trkpt>
      <trkpt lat="46.88692" lon="-2.10865">
        <ele>3.1</ele>
        <time>2020-06-04T12:35:44Z</time>
      </trkpt>
      <trkpt lat="46.88691" lon="-2.10863">
        <ele>3.1</ele>
        <time>2020-06-04T12:35:45Z</time>
      </trkpt>
      <trkpt lat="46.8869" lon="-2.10859">
        <ele>3.1</ele>
        <time>2020-06-04T12:35:46Z</time>
      </trkpt>
      <trkpt lat="46.88689" lon="-2.10855">
        <ele>3.1</ele>
        <time>2020-06-04T12:35:47Z</time>
      </trkpt>
      <trkpt lat="46.88688" lon="-2.10851">
        <ele>3.1</ele>
        <time>2020-06-04T12:35:48Z</time>
      </trkpt>
      <trkpt lat="46.88688" lon="-2.10845">
        <ele>3.1</ele>
        <time>2020-06-04T12:35:49Z</time>
      </trkpt>
      <trkpt lat="46.88687" lon="-2.10843">
        <ele>3.1</ele>
        <time>2020-06-04T12:35:50Z</time>
      </trkpt>
      <trkpt lat="46.88687" lon="-2.10841">
        <ele>3.1</ele>
        <time>2020-06-04T12:35:51Z</time>
      </trkpt>
      <trkpt lat="46.88688" lon="-2.10838">
        <ele>3.1</ele>
        <time>2020-06-04T12:35:52Z</time>
      </trkpt>
      <trkpt lat="46.88689" lon="-2.10838">
        <ele>3.1</ele>
        <time>2020-06-04T12:35:53Z</time>
      </trkpt>
      <trkpt lat="46.88691" lon="-2.10836">
        <ele>3.1</ele>
        <time>2020-06-04T12:35:54Z</time>
      </trkpt>
      <trkpt lat="46.88692" lon="-2.10834">
        <ele>3.1</ele>
        <time>2020-06-04T12:35:55Z</time>
      </trkpt>
      <trkpt lat="46.88693" lon="-2.10833">
        <ele>3.1</ele>
        <time>2020-06-04T12:35:56Z</time>
      </trkpt>
      <trkpt lat="46.88694" lon="-2.10832">
        <ele>3.1</ele>
        <time>2020-06-04T12:35:57Z</time>
      </trkpt>
      <trkpt lat="46.88696" lon="-2.10832">
        <ele>3.1</ele>
        <time>2020-06-04T12:35:58Z</time>
      </trkpt>
      <trkpt lat="46.88697" lon="-2.1083">
        <ele>3.1</ele>
        <time>2020-06-04T12:35:59Z</time>
      </trkpt>
      <trkpt lat="46.88699" lon="-2.10827">
        <ele>3.1</ele>
        <time>2020-06-04T12:36:00Z</time>
      </trkpt>
      <trkpt lat="46.88699" lon="-2.10826">
        <ele>3.1</ele>
        <time>2020-06-04T12:36:01Z</time>
      </trkpt>
      <trkpt lat="46.887" lon="-2.10825">
        <ele>3.1</ele>
        <time>2020-06-04T12:36:02Z</time>
      </trkpt>
      <trkpt lat="46.887" lon="-2.1082">
        <ele>3.1</ele>
        <time>2020-06-04T12:36:03Z</time>
      </trkpt>
      <trkpt lat="46.887" lon="-2.10818">
        <ele>3.1</ele>
        <time>2020-06-04T12:36:04Z</time>
      </trkpt>
      <trkpt lat="46.88698" lon="-2.10813">
        <ele>3.1</ele>
        <time>2020-06-04T12:36:05Z</time>
      </trkpt>
      <trkpt lat="46.88696" lon="-2.10809">
        <ele>3.1</ele>
        <time>2020-06-04T12:36:06Z</time>
      </trkpt>
      <trkpt lat="46.88695" lon="-2.10804">
        <ele>3.1</ele>
        <time>2020-06-04T12:36:07Z</time>
      </trkpt>
      <trkpt lat="46.88694" lon="-2.10799">
        <ele>3.1</ele>
        <time>2020-06-04T12:36:08Z</time>
      </trkpt>
      <trkpt lat="46.88692" lon="-2.10794">
        <ele>3.1</ele>
        <time>2020-06-04T12:36:09Z</time>
      </trkpt>
      <trkpt lat="46.88691" lon="-2.10788">
        <ele>3.1</ele>
        <time>2020-06-04T12:36:10Z</time>
      </trkpt>
      <trkpt lat="46.88689" lon="-2.10783">
        <ele>3</ele>
        <time>2020-06-04T12:36:11Z</time>
      </trkpt>
      <trkpt lat="46.88687" lon="-2.10778">
        <ele>3</ele>
        <time>2020-06-04T12:36:12Z</time>
      </trkpt>
      <trkpt lat="46.88685" lon="-2.10773">
        <ele>3</ele>
        <time>2020-06-04T12:36:13Z</time>
      </trkpt>
      <trkpt lat="46.88684" lon="-2.10767">
        <ele>2.9</ele>
        <time>2020-06-04T12:36:14Z</time>
      </trkpt>
      <trkpt lat="46.88682" lon="-2.1076">
        <ele>2.9</ele>
        <time>2020-06-04T12:36:15Z</time>
      </trkpt>
      <trkpt lat="46.88679" lon="-2.10754">
        <ele>2.8</ele>
        <time>2020-06-04T12:36:16Z</time>
      </trkpt>
      <trkpt lat="46.88677" lon="-2.10749">
        <ele>2.8</ele>
        <time>2020-06-04T12:36:17Z</time>
      </trkpt>
      <trkpt lat="46.88675" lon="-2.10744">
        <ele>2.8</ele>
        <time>2020-06-04T12:36:18Z</time>
      </trkpt>
      <trkpt lat="46.88672" lon="-2.1074">
        <ele>2.8</ele>
        <time>2020-06-04T12:36:19Z</time>
      </trkpt>
      <trkpt lat="46.8867" lon="-2.10736">
        <ele>2.7</ele>
        <time>2020-06-04T12:36:20Z</time>
      </trkpt>
      <trkpt lat="46.88668" lon="-2.10733">
        <ele>2.7</ele>
        <time>2020-06-04T12:36:21Z</time>
      </trkpt>
      <trkpt lat="46.88665" lon="-2.1073">
        <ele>2.7</ele>
        <time>2020-06-04T12:36:22Z</time>
      </trkpt>
      <trkpt lat="46.88662" lon="-2.10727">
        <ele>2.7</ele>
        <time>2020-06-04T12:36:23Z</time>
      </trkpt>
      <trkpt lat="46.88658" lon="-2.10725">
        <ele>2.7</ele>
        <time>2020-06-04T12:36:24Z</time>
      </trkpt>
      <trkpt lat="46.88655" lon="-2.10724">
        <ele>2.7</ele>
        <time>2020-06-04T12:36:25Z</time>
      </trkpt>
      <trkpt lat="46.8865" lon="-2.10723">
        <ele>2.7</ele>
        <time>2020-06-04T12:36:26Z</time>
      </trkpt>
      <trkpt lat="46.88646" lon="-2.10722">
        <ele>2.7</ele>
        <time>2020-06-04T12:36:27Z</time>
      </trkpt>
      <trkpt lat="46.88641" lon="-2.10722">
        <ele>2.6</ele>
        <time>2020-06-04T12:36:28Z</time>
      </trkpt>
      <trkpt lat="46.88636" lon="-2.10723">
        <ele>2.6</ele>
        <time>2020-06-04T12:36:29Z</time>
      </trkpt>
      <trkpt lat="46.88632" lon="-2.10724">
        <ele>2.6</ele>
        <time>2020-06-04T12:36:30Z</time>
      </trkpt>
      <trkpt lat="46.88627" lon="-2.10724">
        <ele>2.6</ele>
        <time>2020-06-04T12:36:31Z</time>
      </trkpt>
      <trkpt lat="46.88623" lon="-2.10725">
        <ele>2.6</ele>
        <time>2020-06-04T12:36:32Z</time>
      </trkpt>
      <trkpt lat="46.88618" lon="-2.10726">
        <ele>2.6</ele>
        <time>2020-06-04T12:36:33Z</time>
      </trkpt>
      <trkpt lat="46.88614" lon="-2.10728">
        <ele>2.5</ele>
        <time>2020-06-04T12:36:34Z</time>
      </trkpt>
      <trkpt lat="46.88609" lon="-2.10728">
        <ele>2.5</ele>
        <time>2020-06-04T12:36:35Z</time>
      </trkpt>
      <trkpt lat="46.88605" lon="-2.10727">
        <ele>2.5</ele>
        <time>2020-06-04T12:36:36Z</time>
      </trkpt>
      <trkpt lat="46.88601" lon="-2.10726">
        <ele>2.5</ele>
        <time>2020-06-04T12:36:37Z</time>
      </trkpt>
      <trkpt lat="46.88598" lon="-2.10724">
        <ele>2.5</ele>
        <time>2020-06-04T12:36:38Z</time>
      </trkpt>
      <trkpt lat="46.88594" lon="-2.10719">
        <ele>2.5</ele>
        <time>2020-06-04T12:36:39Z</time>
      </trkpt>
      <trkpt lat="46.88591" lon="-2.10714">
        <ele>2.5</ele>
        <time>2020-06-04T12:36:40Z</time>
      </trkpt>
      <trkpt lat="46.88588" lon="-2.1071">
        <ele>2.5</ele>
        <time>2020-06-04T12:36:41Z</time>
      </trkpt>
      <trkpt lat="46.88585" lon="-2.10704">
        <ele>2.5</ele>
        <time>2020-06-04T12:36:42Z</time>
      </trkpt>
      <trkpt lat="46.88582" lon="-2.10699">
        <ele>2.5</ele>
        <time>2020-06-04T12:36:43Z</time>
      </trkpt>
      <trkpt lat="46.8858" lon="-2.10693">
        <ele>2.6</ele>
        <time>2020-06-04T12:36:44Z</time>
      </trkpt>
      <trkpt lat="46.88578" lon="-2.10687">
        <ele>2.6</ele>
        <time>2020-06-04T12:36:45Z</time>
      </trkpt>
      <trkpt lat="46.88575" lon="-2.10682">
        <ele>2.6</ele>
        <time>2020-06-04T12:36:46Z</time>
      </trkpt>
      <trkpt lat="46.88573" lon="-2.10677">
        <ele>2.6</ele>
        <time>2020-06-04T12:36:47Z</time>
      </trkpt>
      <trkpt lat="46.88568" lon="-2.10673">
        <ele>2.7</ele>
        <time>2020-06-04T12:36:48Z</time>
      </trkpt>
      <trkpt lat="46.88563" lon="-2.10669">
        <ele>2.7</ele>
        <time>2020-06-04T12:36:49Z</time>
      </trkpt>
      <trkpt lat="46.88558" lon="-2.10668">
        <ele>2.7</ele>
        <time>2020-06-04T12:36:50Z</time>
      </trkpt>
      <trkpt lat="46.88553" lon="-2.10667">
        <ele>2.7</ele>
        <time>2020-06-04T12:36:51Z</time>
      </trkpt>
      <trkpt lat="46.88548" lon="-2.10665">
        <ele>2.7</ele>
        <time>2020-06-04T12:36:52Z</time>
      </trkpt>
      <trkpt lat="46.88545" lon="-2.10664">
        <ele>2.7</ele>
        <time>2020-06-04T12:36:53Z</time>
      </trkpt>
      <trkpt lat="46.88541" lon="-2.10663">
        <ele>2.7</ele>
        <time>2020-06-04T12:36:54Z</time>
      </trkpt>
      <trkpt lat="46.88537" lon="-2.10661">
        <ele>2.7</ele>
        <time>2020-06-04T12:36:55Z</time>
      </trkpt>
      <trkpt lat="46.88533" lon="-2.10659">
        <ele>2.7</ele>
        <time>2020-06-04T12:36:56Z</time>
      </trkpt>
      <trkpt lat="46.88529" lon="-2.10657">
        <ele>2.7</ele>
        <time>2020-06-04T12:36:57Z</time>
      </trkpt>
      <trkpt lat="46.88524" lon="-2.10656">
        <ele>2.7</ele>
        <time>2020-06-04T12:36:58Z</time>
      </trkpt>
      <trkpt lat="46.88519" lon="-2.10655">
        <ele>2.6</ele>
        <time>2020-06-04T12:36:59Z</time>
      </trkpt>
      <trkpt lat="46.88514" lon="-2.10653">
        <ele>2.6</ele>
        <time>2020-06-04T12:37:00Z</time>
      </trkpt>
      <trkpt lat="46.8851" lon="-2.10652">
        <ele>2.6</ele>
        <time>2020-06-04T12:37:01Z</time>
      </trkpt>
      <trkpt lat="46.88505" lon="-2.1065">
        <ele>2.6</ele>
        <time>2020-06-04T12:37:02Z</time>
      </trkpt>
      <trkpt lat="46.88501" lon="-2.10648">
        <ele>2.6</ele>
        <time>2020-06-04T12:37:03Z</time>
      </trkpt>
      <trkpt lat="46.88497" lon="-2.10647">
        <ele>2.6</ele>
        <time>2020-06-04T12:37:04Z</time>
      </trkpt>
      <trkpt lat="46.88493" lon="-2.10645">
        <ele>2.6</ele>
        <time>2020-06-04T12:37:05Z</time>
      </trkpt>
      <trkpt lat="46.88489" lon="-2.10641">
        <ele>2.5</ele>
        <time>2020-06-04T12:37:06Z</time>
      </trkpt>
      <trkpt lat="46.88484" lon="-2.10638">
        <ele>2.5</ele>
        <time>2020-06-04T12:37:07Z</time>
      </trkpt>
      <trkpt lat="46.8848" lon="-2.10634">
        <ele>2.5</ele>
        <time>2020-06-04T12:37:08Z</time>
      </trkpt>
      <trkpt lat="46.88476" lon="-2.1063">
        <ele>2.5</ele>
        <time>2020-06-04T12:37:09Z</time>
      </trkpt>
      <trkpt lat="46.88472" lon="-2.10625">
        <ele>2.5</ele>
        <time>2020-06-04T12:37:10Z</time>
      </trkpt>
      <trkpt lat="46.88469" lon="-2.10621">
        <ele>2.5</ele>
        <time>2020-06-04T12:37:11Z</time>
      </trkpt>
      <trkpt lat="46.88465" lon="-2.10617">
        <ele>2.5</ele>
        <time>2020-06-04T12:37:12Z</time>
      </trkpt>
      <trkpt lat="46.88461" lon="-2.10613">
        <ele>2.4</ele>
        <time>2020-06-04T12:37:13Z</time>
      </trkpt>
      <trkpt lat="46.88457" lon="-2.10609">
        <ele>2.4</ele>
        <time>2020-06-04T12:37:14Z</time>
      </trkpt>
      <trkpt lat="46.88452" lon="-2.10606">
        <ele>2.4</ele>
        <time>2020-06-04T12:37:15Z</time>
      </trkpt>
      <trkpt lat="46.88448" lon="-2.10602">
        <ele>2.4</ele>
        <time>2020-06-04T12:37:16Z</time>
      </trkpt>
      <trkpt lat="46.88443" lon="-2.10601">
        <ele>2.4</ele>
        <time>2020-06-04T12:37:17Z</time>
      </trkpt>
      <trkpt lat="46.88438" lon="-2.10601">
        <ele>2.4</ele>
        <time>2020-06-04T12:37:18Z</time>
      </trkpt>
      <trkpt lat="46.88433" lon="-2.10601">
        <ele>2.4</ele>
        <time>2020-06-04T12:37:19Z</time>
      </trkpt>
      <trkpt lat="46.88428" lon="-2.10602">
        <ele>2.4</ele>
        <time>2020-06-04T12:37:20Z</time>
      </trkpt>
      <trkpt lat="46.88424" lon="-2.10605">
        <ele>2.4</ele>
        <time>2020-06-04T12:37:21Z</time>
      </trkpt>
      <trkpt lat="46.88419" lon="-2.10607">
        <ele>2.4</ele>
        <time>2020-06-04T12:37:22Z</time>
      </trkpt>
      <trkpt lat="46.88414" lon="-2.10608">
        <ele>2.4</ele>
        <time>2020-06-04T12:37:23Z</time>
      </trkpt>
      <trkpt lat="46.8841" lon="-2.10609">
        <ele>2.4</ele>
        <time>2020-06-04T12:37:24Z</time>
      </trkpt>
      <trkpt lat="46.88405" lon="-2.1061">
        <ele>2.4</ele>
        <time>2020-06-04T12:37:25Z</time>
      </trkpt>
      <trkpt lat="46.884" lon="-2.10612">
        <ele>2.4</ele>
        <time>2020-06-04T12:37:26Z</time>
      </trkpt>
      <trkpt lat="46.88395" lon="-2.10611">
        <ele>2.4</ele>
        <time>2020-06-04T12:37:27Z</time>
      </trkpt>
      <trkpt lat="46.8839" lon="-2.1061">
        <ele>2.4</ele>
        <time>2020-06-04T12:37:28Z</time>
      </trkpt>
      <trkpt lat="46.88386" lon="-2.10606">
        <ele>2.4</ele>
        <time>2020-06-04T12:37:29Z</time>
      </trkpt>
      <trkpt lat="46.88381" lon="-2.10602">
        <ele>2.4</ele>
        <time>2020-06-04T12:37:30Z</time>
      </trkpt>
      <trkpt lat="46.88377" lon="-2.10598">
        <ele>2.4</ele>
        <time>2020-06-04T12:37:31Z</time>
      </trkpt>
      <trkpt lat="46.88372" lon="-2.10595">
        <ele>2.4</ele>
        <time>2020-06-04T12:37:32Z</time>
      </trkpt>
      <trkpt lat="46.88367" lon="-2.10591">
        <ele>2.4</ele>
        <time>2020-06-04T12:37:33Z</time>
      </trkpt>
      <trkpt lat="46.88362" lon="-2.10589">
        <ele>2.4</ele>
        <time>2020-06-04T12:37:34Z</time>
      </trkpt>
      <trkpt lat="46.88356" lon="-2.10587">
        <ele>2.4</ele>
        <time>2020-06-04T12:37:35Z</time>
      </trkpt>
      <trkpt lat="46.8835" lon="-2.10588">
        <ele>2.4</ele>
        <time>2020-06-04T12:37:36Z</time>
      </trkpt>
      <trkpt lat="46.88344" lon="-2.10589">
        <ele>2.4</ele>
        <time>2020-06-04T12:37:37Z</time>
      </trkpt>
      <trkpt lat="46.88338" lon="-2.1059">
        <ele>2.4</ele>
        <time>2020-06-04T12:37:38Z</time>
      </trkpt>
      <trkpt lat="46.88333" lon="-2.10593">
        <ele>2.4</ele>
        <time>2020-06-04T12:37:39Z</time>
      </trkpt>
      <trkpt lat="46.88328" lon="-2.10594">
        <ele>2.3</ele>
        <time>2020-06-04T12:37:40Z</time>
      </trkpt>
      <trkpt lat="46.88324" lon="-2.10597">
        <ele>2.3</ele>
        <time>2020-06-04T12:37:41Z</time>
      </trkpt>
      <trkpt lat="46.8832" lon="-2.106">
        <ele>2.3</ele>
        <time>2020-06-04T12:37:42Z</time>
      </trkpt>
      <trkpt lat="46.88315" lon="-2.10602">
        <ele>2.3</ele>
        <time>2020-06-04T12:37:43Z</time>
      </trkpt>
      <trkpt lat="46.8831" lon="-2.10605">
        <ele>2.3</ele>
        <time>2020-06-04T12:37:44Z</time>
      </trkpt>
      <trkpt lat="46.88306" lon="-2.10609">
        <ele>2.3</ele>
        <time>2020-06-04T12:37:45Z</time>
      </trkpt>
      <trkpt lat="46.88302" lon="-2.10613">
        <ele>2.3</ele>
        <time>2020-06-04T12:37:46Z</time>
      </trkpt>
      <trkpt lat="46.88298" lon="-2.10616">
        <ele>2.3</ele>
        <time>2020-06-04T12:37:47Z</time>
      </trkpt>
      <trkpt lat="46.88293" lon="-2.1062">
        <ele>2.3</ele>
        <time>2020-06-04T12:37:48Z</time>
      </trkpt>
      <trkpt lat="46.88289" lon="-2.10625">
        <ele>2.3</ele>
        <time>2020-06-04T12:37:49Z</time>
      </trkpt>
      <trkpt lat="46.88284" lon="-2.10629">
        <ele>2.3</ele>
        <time>2020-06-04T12:37:50Z</time>
      </trkpt>
      <trkpt lat="46.88279" lon="-2.10632">
        <ele>2.3</ele>
        <time>2020-06-04T12:37:51Z</time>
      </trkpt>
      <trkpt lat="46.88275" lon="-2.10636">
        <ele>2.3</ele>
        <time>2020-06-04T12:37:52Z</time>
      </trkpt>
      <trkpt lat="46.8827" lon="-2.10641">
        <ele>2.3</ele>
        <time>2020-06-04T12:37:53Z</time>
      </trkpt>
      <trkpt lat="46.88266" lon="-2.10644">
        <ele>2.3</ele>
        <time>2020-06-04T12:37:54Z</time>
      </trkpt>
      <trkpt lat="46.88261" lon="-2.1065">
        <ele>2.3</ele>
        <time>2020-06-04T12:37:55Z</time>
      </trkpt>
      <trkpt lat="46.88257" lon="-2.10655">
        <ele>2.3</ele>
        <time>2020-06-04T12:37:56Z</time>
      </trkpt>
      <trkpt lat="46.88253" lon="-2.10661">
        <ele>2.3</ele>
        <time>2020-06-04T12:37:57Z</time>
      </trkpt>
      <trkpt lat="46.88248" lon="-2.10665">
        <ele>2.3</ele>
        <time>2020-06-04T12:37:58Z</time>
      </trkpt>
      <trkpt lat="46.88244" lon="-2.10669">
        <ele>2.3</ele>
        <time>2020-06-04T12:37:59Z</time>
      </trkpt>
      <trkpt lat="46.88239" lon="-2.10673">
        <ele>2.3</ele>
        <time>2020-06-04T12:38:00Z</time>
      </trkpt>
      <trkpt lat="46.88235" lon="-2.10676">
        <ele>2.3</ele>
        <time>2020-06-04T12:38:01Z</time>
      </trkpt>
      <trkpt lat="46.88229" lon="-2.10678">
        <ele>2.2</ele>
        <time>2020-06-04T12:38:02Z</time>
      </trkpt>
      <trkpt lat="46.88224" lon="-2.10679">
        <ele>2.2</ele>
        <time>2020-06-04T12:38:03Z</time>
      </trkpt>
      <trkpt lat="46.88218" lon="-2.1068">
        <ele>2.2</ele>
        <time>2020-06-04T12:38:04Z</time>
      </trkpt>
      <trkpt lat="46.88213" lon="-2.10681">
        <ele>2.2</ele>
        <time>2020-06-04T12:38:05Z</time>
      </trkpt>
      <trkpt lat="46.88208" lon="-2.10682">
        <ele>2.2</ele>
        <time>2020-06-04T12:38:06Z</time>
      </trkpt>
      <trkpt lat="46.88203" lon="-2.10683">
        <ele>2.2</ele>
        <time>2020-06-04T12:38:07Z</time>
      </trkpt>
      <trkpt lat="46.88198" lon="-2.10684">
        <ele>2.2</ele>
        <time>2020-06-04T12:38:08Z</time>
      </trkpt>
      <trkpt lat="46.88193" lon="-2.10686">
        <ele>2.2</ele>
        <time>2020-06-04T12:38:09Z</time>
      </trkpt>
      <trkpt lat="46.88188" lon="-2.10688">
        <ele>2.1</ele>
        <time>2020-06-04T12:38:10Z</time>
      </trkpt>
      <trkpt lat="46.88183" lon="-2.1069">
        <ele>2.1</ele>
        <time>2020-06-04T12:38:11Z</time>
      </trkpt>
      <trkpt lat="46.88178" lon="-2.10691">
        <ele>2.1</ele>
        <time>2020-06-04T12:38:12Z</time>
      </trkpt>
      <trkpt lat="46.88173" lon="-2.10693">
        <ele>2.1</ele>
        <time>2020-06-04T12:38:13Z</time>
      </trkpt>
      <trkpt lat="46.88168" lon="-2.10695">
        <ele>2.1</ele>
        <time>2020-06-04T12:38:14Z</time>
      </trkpt>
      <trkpt lat="46.88163" lon="-2.10698">
        <ele>2.1</ele>
        <time>2020-06-04T12:38:15Z</time>
      </trkpt>
      <trkpt lat="46.88159" lon="-2.10699">
        <ele>2.1</ele>
        <time>2020-06-04T12:38:16Z</time>
      </trkpt>
      <trkpt lat="46.88154" lon="-2.10701">
        <ele>2.1</ele>
        <time>2020-06-04T12:38:17Z</time>
      </trkpt>
      <trkpt lat="46.88149" lon="-2.10704">
        <ele>2.1</ele>
        <time>2020-06-04T12:38:18Z</time>
      </trkpt>
      <trkpt lat="46.88145" lon="-2.10705">
        <ele>2.1</ele>
        <time>2020-06-04T12:38:19Z</time>
      </trkpt>
      <trkpt lat="46.8814" lon="-2.10707">
        <ele>2</ele>
        <time>2020-06-04T12:38:20Z</time>
      </trkpt>
      <trkpt lat="46.88134" lon="-2.1071">
        <ele>2</ele>
        <time>2020-06-04T12:38:21Z</time>
      </trkpt>
      <trkpt lat="46.88129" lon="-2.10712">
        <ele>2</ele>
        <time>2020-06-04T12:38:22Z</time>
      </trkpt>
      <trkpt lat="46.88123" lon="-2.10714">
        <ele>2</ele>
        <time>2020-06-04T12:38:23Z</time>
      </trkpt>
      <trkpt lat="46.88118" lon="-2.10717">
        <ele>2</ele>
        <time>2020-06-04T12:38:24Z</time>
      </trkpt>
      <trkpt lat="46.88112" lon="-2.1072">
        <ele>2</ele>
        <time>2020-06-04T12:38:25Z</time>
      </trkpt>
      <trkpt lat="46.88108" lon="-2.10724">
        <ele>2</ele>
        <time>2020-06-04T12:38:26Z</time>
      </trkpt>
      <trkpt lat="46.88103" lon="-2.10729">
        <ele>2</ele>
        <time>2020-06-04T12:38:27Z</time>
      </trkpt>
      <trkpt lat="46.88099" lon="-2.10733">
        <ele>2</ele>
        <time>2020-06-04T12:38:28Z</time>
      </trkpt>
      <trkpt lat="46.88093" lon="-2.10738">
        <ele>1.9</ele>
        <time>2020-06-04T12:38:29Z</time>
      </trkpt>
      <trkpt lat="46.88088" lon="-2.1074">
        <ele>1.9</ele>
        <time>2020-06-04T12:38:30Z</time>
      </trkpt>
      <trkpt lat="46.88083" lon="-2.10744">
        <ele>1.9</ele>
        <time>2020-06-04T12:38:31Z</time>
      </trkpt>
      <trkpt lat="46.88079" lon="-2.10746">
        <ele>1.9</ele>
        <time>2020-06-04T12:38:32Z</time>
      </trkpt>
      <trkpt lat="46.88074" lon="-2.10749">
        <ele>1.9</ele>
        <time>2020-06-04T12:38:33Z</time>
      </trkpt>
      <trkpt lat="46.8807" lon="-2.10751">
        <ele>1.9</ele>
        <time>2020-06-04T12:38:34Z</time>
      </trkpt>
      <trkpt lat="46.88065" lon="-2.10753">
        <ele>1.9</ele>
        <time>2020-06-04T12:38:35Z</time>
      </trkpt>
      <trkpt lat="46.8806" lon="-2.10754">
        <ele>1.9</ele>
        <time>2020-06-04T12:38:36Z</time>
      </trkpt>
      <trkpt lat="46.88057" lon="-2.10753">
        <ele>1.9</ele>
        <time>2020-06-04T12:38:37Z</time>
      </trkpt>
      <trkpt lat="46.88052" lon="-2.1075">
        <ele>1.9</ele>
        <time>2020-06-04T12:38:38Z</time>
      </trkpt>
      <trkpt lat="46.88048" lon="-2.10744">
        <ele>1.8</ele>
        <time>2020-06-04T12:38:39Z</time>
      </trkpt>
      <trkpt lat="46.88044" lon="-2.1074">
        <ele>1.8</ele>
        <time>2020-06-04T12:38:40Z</time>
      </trkpt>
      <trkpt lat="46.88041" lon="-2.10737">
        <ele>1.8</ele>
        <time>2020-06-04T12:38:41Z</time>
      </trkpt>
      <trkpt lat="46.88038" lon="-2.10733">
        <ele>1.8</ele>
        <time>2020-06-04T12:38:42Z</time>
      </trkpt>
      <trkpt lat="46.88036" lon="-2.1073">
        <ele>1.8</ele>
        <time>2020-06-04T12:38:43Z</time>
      </trkpt>
      <trkpt lat="46.88033" lon="-2.10727">
        <ele>1.8</ele>
        <time>2020-06-04T12:38:44Z</time>
      </trkpt>
      <trkpt lat="46.88031" lon="-2.10724">
        <ele>1.8</ele>
        <time>2020-06-04T12:38:45Z</time>
      </trkpt>
      <trkpt lat="46.88029" lon="-2.1072">
        <ele>1.8</ele>
        <time>2020-06-04T12:38:46Z</time>
      </trkpt>
      <trkpt lat="46.88027" lon="-2.10716">
        <ele>1.8</ele>
        <time>2020-06-04T12:38:47Z</time>
      </trkpt>
      <trkpt lat="46.88026" lon="-2.10712">
        <ele>1.8</ele>
        <time>2020-06-04T12:38:48Z</time>
      </trkpt>
      <trkpt lat="46.88024" lon="-2.10708">
        <ele>1.8</ele>
        <time>2020-06-04T12:38:49Z</time>
      </trkpt>
      <trkpt lat="46.88022" lon="-2.10705">
        <ele>1.8</ele>
        <time>2020-06-04T12:38:50Z</time>
      </trkpt>
      <trkpt lat="46.8802" lon="-2.10701">
        <ele>1.8</ele>
        <time>2020-06-04T12:38:51Z</time>
      </trkpt>
      <trkpt lat="46.88018" lon="-2.10696">
        <ele>1.8</ele>
        <time>2020-06-04T12:38:52Z</time>
      </trkpt>
      <trkpt lat="46.88017" lon="-2.10692">
        <ele>1.8</ele>
        <time>2020-06-04T12:38:53Z</time>
      </trkpt>
      <trkpt lat="46.88015" lon="-2.10689">
        <ele>1.8</ele>
        <time>2020-06-04T12:38:54Z</time>
      </trkpt>
      <trkpt lat="46.88013" lon="-2.10685">
        <ele>1.8</ele>
        <time>2020-06-04T12:38:55Z</time>
      </trkpt>
      <trkpt lat="46.88011" lon="-2.10681">
        <ele>1.8</ele>
        <time>2020-06-04T12:38:56Z</time>
      </trkpt>
      <trkpt lat="46.88008" lon="-2.10678">
        <ele>1.8</ele>
        <time>2020-06-04T12:38:57Z</time>
      </trkpt>
      <trkpt lat="46.88006" lon="-2.10675">
        <ele>1.8</ele>
        <time>2020-06-04T12:38:58Z</time>
      </trkpt>
      <trkpt lat="46.88002" lon="-2.10672">
        <ele>1.8</ele>
        <time>2020-06-04T12:38:59Z</time>
      </trkpt>
      <trkpt lat="46.87999" lon="-2.10671">
        <ele>1.7</ele>
        <time>2020-06-04T12:39:00Z</time>
      </trkpt>
      <trkpt lat="46.87996" lon="-2.10666">
        <ele>1.7</ele>
        <time>2020-06-04T12:39:01Z</time>
      </trkpt>
      <trkpt lat="46.87993" lon="-2.10661">
        <ele>1.7</ele>
        <time>2020-06-04T12:39:02Z</time>
      </trkpt>
      <trkpt lat="46.87989" lon="-2.10657">
        <ele>1.7</ele>
        <time>2020-06-04T12:39:03Z</time>
      </trkpt>
      <trkpt lat="46.87986" lon="-2.10652">
        <ele>1.7</ele>
        <time>2020-06-04T12:39:04Z</time>
      </trkpt>
      <trkpt lat="46.87983" lon="-2.10647">
        <ele>1.7</ele>
        <time>2020-06-04T12:39:05Z</time>
      </trkpt>
      <trkpt lat="46.87979" lon="-2.10642">
        <ele>1.7</ele>
        <time>2020-06-04T12:39:06Z</time>
      </trkpt>
      <trkpt lat="46.87975" lon="-2.10637">
        <ele>1.7</ele>
        <time>2020-06-04T12:39:07Z</time>
      </trkpt>
      <trkpt lat="46.87971" lon="-2.10631">
        <ele>1.7</ele>
        <time>2020-06-04T12:39:08Z</time>
      </trkpt>
      <trkpt lat="46.87968" lon="-2.10627">
        <ele>1.7</ele>
        <time>2020-06-04T12:39:09Z</time>
      </trkpt>
      <trkpt lat="46.87964" lon="-2.10622">
        <ele>1.7</ele>
        <time>2020-06-04T12:39:10Z</time>
      </trkpt>
      <trkpt lat="46.8796" lon="-2.10617">
        <ele>1.7</ele>
        <time>2020-06-04T12:39:11Z</time>
      </trkpt>
      <trkpt lat="46.87956" lon="-2.10612">
        <ele>1.7</ele>
        <time>2020-06-04T12:39:12Z</time>
      </trkpt>
      <trkpt lat="46.87951" lon="-2.10606">
        <ele>1.7</ele>
        <time>2020-06-04T12:39:13Z</time>
      </trkpt>
      <trkpt lat="46.87947" lon="-2.10601">
        <ele>1.6</ele>
        <time>2020-06-04T12:39:14Z</time>
      </trkpt>
      <trkpt lat="46.87942" lon="-2.10596">
        <ele>1.6</ele>
        <time>2020-06-04T12:39:15Z</time>
      </trkpt>
      <trkpt lat="46.87938" lon="-2.10591">
        <ele>1.6</ele>
        <time>2020-06-04T12:39:16Z</time>
      </trkpt>
      <trkpt lat="46.87934" lon="-2.10585">
        <ele>1.6</ele>
        <time>2020-06-04T12:39:17Z</time>
      </trkpt>
      <trkpt lat="46.8793" lon="-2.1058">
        <ele>1.6</ele>
        <time>2020-06-04T12:39:18Z</time>
      </trkpt>
      <trkpt lat="46.87926" lon="-2.10575">
        <ele>1.6</ele>
        <time>2020-06-04T12:39:19Z</time>
      </trkpt>
      <trkpt lat="46.87922" lon="-2.10571">
        <ele>1.6</ele>
        <time>2020-06-04T12:39:20Z</time>
      </trkpt>
      <trkpt lat="46.87918" lon="-2.10566">
        <ele>1.6</ele>
        <time>2020-06-04T12:39:21Z</time>
      </trkpt>
      <trkpt lat="46.87914" lon="-2.10561">
        <ele>1.6</ele>
        <time>2020-06-04T12:39:22Z</time>
      </trkpt>
      <trkpt lat="46.8791" lon="-2.10558">
        <ele>1.6</ele>
        <time>2020-06-04T12:39:23Z</time>
      </trkpt>
      <trkpt lat="46.87906" lon="-2.10554">
        <ele>1.6</ele>
        <time>2020-06-04T12:39:24Z</time>
      </trkpt>
      <trkpt lat="46.87903" lon="-2.1055">
        <ele>1.6</ele>
        <time>2020-06-04T12:39:25Z</time>
      </trkpt>
      <trkpt lat="46.87899" lon="-2.10544">
        <ele>1.6</ele>
        <time>2020-06-04T12:39:26Z</time>
      </trkpt>
      <trkpt lat="46.87896" lon="-2.10539">
        <ele>1.5</ele>
        <time>2020-06-04T12:39:27Z</time>
      </trkpt>
      <trkpt lat="46.87892" lon="-2.10535">
        <ele>1.5</ele>
        <time>2020-06-04T12:39:28Z</time>
      </trkpt>
      <trkpt lat="46.87889" lon="-2.10531">
        <ele>1.5</ele>
        <time>2020-06-04T12:39:29Z</time>
      </trkpt>
      <trkpt lat="46.87885" lon="-2.10527">
        <ele>1.5</ele>
        <time>2020-06-04T12:39:30Z</time>
      </trkpt>
      <trkpt lat="46.87882" lon="-2.10522">
        <ele>1.5</ele>
        <time>2020-06-04T12:39:31Z</time>
      </trkpt>
      <trkpt lat="46.87878" lon="-2.10517">
        <ele>1.5</ele>
        <time>2020-06-04T12:39:32Z</time>
      </trkpt>
      <trkpt lat="46.87874" lon="-2.10512">
        <ele>1.5</ele>
        <time>2020-06-04T12:39:33Z</time>
      </trkpt>
      <trkpt lat="46.8787" lon="-2.10507">
        <ele>1.5</ele>
        <time>2020-06-04T12:39:34Z</time>
      </trkpt>
      <trkpt lat="46.87866" lon="-2.10501">
        <ele>1.5</ele>
        <time>2020-06-04T12:39:35Z</time>
      </trkpt>
      <trkpt lat="46.87863" lon="-2.10496">
        <ele>1.5</ele>
        <time>2020-06-04T12:39:36Z</time>
      </trkpt>
      <trkpt lat="46.87859" lon="-2.1049">
        <ele>1.5</ele>
        <time>2020-06-04T12:39:37Z</time>
      </trkpt>
      <trkpt lat="46.87855" lon="-2.10485">
        <ele>1.5</ele>
        <time>2020-06-04T12:39:38Z</time>
      </trkpt>
      <trkpt lat="46.87851" lon="-2.1048">
        <ele>1.5</ele>
        <time>2020-06-04T12:39:39Z</time>
      </trkpt>
      <trkpt lat="46.87847" lon="-2.10475">
        <ele>1.4</ele>
        <time>2020-06-04T12:39:40Z</time>
      </trkpt>
      <trkpt lat="46.87844" lon="-2.10471">
        <ele>1.4</ele>
        <time>2020-06-04T12:39:41Z</time>
      </trkpt>
      <trkpt lat="46.8784" lon="-2.10465">
        <ele>1.4</ele>
        <time>2020-06-04T12:39:42Z</time>
      </trkpt>
      <trkpt lat="46.87837" lon="-2.10463">
        <ele>1.4</ele>
        <time>2020-06-04T12:39:43Z</time>
      </trkpt>
      <trkpt lat="46.87834" lon="-2.1046">
        <ele>1.4</ele>
        <time>2020-06-04T12:39:44Z</time>
      </trkpt>
      <trkpt lat="46.87831" lon="-2.10457">
        <ele>1.4</ele>
        <time>2020-06-04T12:39:45Z</time>
      </trkpt>
      <trkpt lat="46.8783" lon="-2.10456">
        <ele>1.4</ele>
        <time>2020-06-04T12:39:46Z</time>
      </trkpt>
      <trkpt lat="46.87827" lon="-2.10453">
        <ele>1.4</ele>
        <time>2020-06-04T12:39:47Z</time>
      </trkpt>
      <trkpt lat="46.87826" lon="-2.10453">
        <ele>1.4</ele>
        <time>2020-06-04T12:39:48Z</time>
      </trkpt>
      <trkpt lat="46.87823" lon="-2.10451">
        <ele>1.4</ele>
        <time>2020-06-04T12:39:49Z</time>
      </trkpt>
      <trkpt lat="46.87819" lon="-2.10448">
        <ele>1.4</ele>
        <time>2020-06-04T12:39:50Z</time>
      </trkpt>
      <trkpt lat="46.87815" lon="-2.10445">
        <ele>1.4</ele>
        <time>2020-06-04T12:39:51Z</time>
      </trkpt>
      <trkpt lat="46.87809" lon="-2.10444">
        <ele>1.4</ele>
        <time>2020-06-04T12:39:52Z</time>
      </trkpt>
      <trkpt lat="46.87803" lon="-2.10445">
        <ele>1.4</ele>
        <time>2020-06-04T12:39:53Z</time>
      </trkpt>
      <trkpt lat="46.87797" lon="-2.10445">
        <ele>1.4</ele>
        <time>2020-06-04T12:39:54Z</time>
      </trkpt>
      <trkpt lat="46.87791" lon="-2.10446">
        <ele>1.4</ele>
        <time>2020-06-04T12:39:55Z</time>
      </trkpt>
      <trkpt lat="46.87786" lon="-2.10447">
        <ele>1.4</ele>
        <time>2020-06-04T12:39:56Z</time>
      </trkpt>
      <trkpt lat="46.8778" lon="-2.10448">
        <ele>1.4</ele>
        <time>2020-06-04T12:39:57Z</time>
      </trkpt>
      <trkpt lat="46.87775" lon="-2.10449">
        <ele>1.4</ele>
        <time>2020-06-04T12:39:58Z</time>
      </trkpt>
      <trkpt lat="46.87769" lon="-2.1045">
        <ele>1.4</ele>
        <time>2020-06-04T12:39:59Z</time>
      </trkpt>
      <trkpt lat="46.87763" lon="-2.10451">
        <ele>1.4</ele>
        <time>2020-06-04T12:40:00Z</time>
      </trkpt>
      <trkpt lat="46.87757" lon="-2.10451">
        <ele>1.4</ele>
        <time>2020-06-04T12:40:01Z</time>
      </trkpt>
      <trkpt lat="46.87751" lon="-2.10451">
        <ele>1.4</ele>
        <time>2020-06-04T12:40:02Z</time>
      </trkpt>
      <trkpt lat="46.87746" lon="-2.1045">
        <ele>1.4</ele>
        <time>2020-06-04T12:40:03Z</time>
      </trkpt>
      <trkpt lat="46.8774" lon="-2.1045">
        <ele>1.4</ele>
        <time>2020-06-04T12:40:04Z</time>
      </trkpt>
      <trkpt lat="46.87734" lon="-2.10451">
        <ele>1.4</ele>
        <time>2020-06-04T12:40:05Z</time>
      </trkpt>
      <trkpt lat="46.87728" lon="-2.10451">
        <ele>1.4</ele>
        <time>2020-06-04T12:40:06Z</time>
      </trkpt>
      <trkpt lat="46.87723" lon="-2.10452">
        <ele>1.4</ele>
        <time>2020-06-04T12:40:07Z</time>
      </trkpt>
      <trkpt lat="46.87716" lon="-2.10455">
        <ele>1.5</ele>
        <time>2020-06-04T12:40:08Z</time>
      </trkpt>
      <trkpt lat="46.8771" lon="-2.10457">
        <ele>1.5</ele>
        <time>2020-06-04T12:40:09Z</time>
      </trkpt>
      <trkpt lat="46.87704" lon="-2.10461">
        <ele>1.5</ele>
        <time>2020-06-04T12:40:10Z</time>
      </trkpt>
      <trkpt lat="46.87699" lon="-2.10464">
        <ele>1.4</ele>
        <time>2020-06-04T12:40:11Z</time>
      </trkpt>
      <trkpt lat="46.87693" lon="-2.10468">
        <ele>1.4</ele>
        <time>2020-06-04T12:40:12Z</time>
      </trkpt>
      <trkpt lat="46.87688" lon="-2.10472">
        <ele>1.3</ele>
        <time>2020-06-04T12:40:13Z</time>
      </trkpt>
      <trkpt lat="46.87681" lon="-2.10474">
        <ele>1.3</ele>
        <time>2020-06-04T12:40:14Z</time>
      </trkpt>
      <trkpt lat="46.87675" lon="-2.10475">
        <ele>1.2</ele>
        <time>2020-06-04T12:40:15Z</time>
      </trkpt>
      <trkpt lat="46.87669" lon="-2.10476">
        <ele>1.2</ele>
        <time>2020-06-04T12:40:16Z</time>
      </trkpt>
      <trkpt lat="46.87662" lon="-2.10477">
        <ele>1.1</ele>
        <time>2020-06-04T12:40:17Z</time>
      </trkpt>
      <trkpt lat="46.87656" lon="-2.10477">
        <ele>1.1</ele>
        <time>2020-06-04T12:40:18Z</time>
      </trkpt>
      <trkpt lat="46.87649" lon="-2.10476">
        <ele>1.1</ele>
        <time>2020-06-04T12:40:19Z</time>
      </trkpt>
      <trkpt lat="46.87643" lon="-2.10475">
        <ele>1.1</ele>
        <time>2020-06-04T12:40:20Z</time>
      </trkpt>
      <trkpt lat="46.87637" lon="-2.10475">
        <ele>1</ele>
        <time>2020-06-04T12:40:21Z</time>
      </trkpt>
      <trkpt lat="46.87631" lon="-2.10474">
        <ele>1</ele>
        <time>2020-06-04T12:40:22Z</time>
      </trkpt>
      <trkpt lat="46.87624" lon="-2.10473">
        <ele>1</ele>
        <time>2020-06-04T12:40:23Z</time>
      </trkpt>
      <trkpt lat="46.87617" lon="-2.10471">
        <ele>1</ele>
        <time>2020-06-04T12:40:24Z</time>
      </trkpt>
      <trkpt lat="46.8761" lon="-2.10471">
        <ele>1</ele>
        <time>2020-06-04T12:40:25Z</time>
      </trkpt>
      <trkpt lat="46.87603" lon="-2.1047">
        <ele>0.9</ele>
        <time>2020-06-04T12:40:26Z</time>
      </trkpt>
      <trkpt lat="46.87596" lon="-2.10469">
        <ele>0.9</ele>
        <time>2020-06-04T12:40:27Z</time>
      </trkpt>
      <trkpt lat="46.87589" lon="-2.10469">
        <ele>0.9</ele>
        <time>2020-06-04T12:40:28Z</time>
      </trkpt>
      <trkpt lat="46.87582" lon="-2.10468">
        <ele>0.9</ele>
        <time>2020-06-04T12:40:29Z</time>
      </trkpt>
      <trkpt lat="46.87575" lon="-2.10467">
        <ele>0.8</ele>
        <time>2020-06-04T12:40:30Z</time>
      </trkpt>
      <trkpt lat="46.87568" lon="-2.10465">
        <ele>0.8</ele>
        <time>2020-06-04T12:40:31Z</time>
      </trkpt>
      <trkpt lat="46.87562" lon="-2.10464">
        <ele>0.8</ele>
        <time>2020-06-04T12:40:32Z</time>
      </trkpt>
      <trkpt lat="46.87555" lon="-2.10463">
        <ele>0.8</ele>
        <time>2020-06-04T12:40:33Z</time>
      </trkpt>
      <trkpt lat="46.87549" lon="-2.10462">
        <ele>0.9</ele>
        <time>2020-06-04T12:40:34Z</time>
      </trkpt>
      <trkpt lat="46.87543" lon="-2.10462">
        <ele>0.9</ele>
        <time>2020-06-04T12:40:35Z</time>
      </trkpt>
      <trkpt lat="46.87536" lon="-2.10461">
        <ele>0.9</ele>
        <time>2020-06-04T12:40:36Z</time>
      </trkpt>
      <trkpt lat="46.8753" lon="-2.10459">
        <ele>0.9</ele>
        <time>2020-06-04T12:40:37Z</time>
      </trkpt>
      <trkpt lat="46.87524" lon="-2.10456">
        <ele>0.9</ele>
        <time>2020-06-04T12:40:38Z</time>
      </trkpt>
      <trkpt lat="46.87519" lon="-2.10454">
        <ele>1</ele>
        <time>2020-06-04T12:40:39Z</time>
      </trkpt>
      <trkpt lat="46.87513" lon="-2.10451">
        <ele>1</ele>
        <time>2020-06-04T12:40:40Z</time>
      </trkpt>
      <trkpt lat="46.87507" lon="-2.10446">
        <ele>1</ele>
        <time>2020-06-04T12:40:41Z</time>
      </trkpt>
      <trkpt lat="46.87502" lon="-2.10442">
        <ele>1</ele>
        <time>2020-06-04T12:40:42Z</time>
      </trkpt>
      <trkpt lat="46.87496" lon="-2.10438">
        <ele>1</ele>
        <time>2020-06-04T12:40:43Z</time>
      </trkpt>
      <trkpt lat="46.8749" lon="-2.10434">
        <ele>1.1</ele>
        <time>2020-06-04T12:40:44Z</time>
      </trkpt>
      <trkpt lat="46.87484" lon="-2.10431">
        <ele>1.1</ele>
        <time>2020-06-04T12:40:45Z</time>
      </trkpt>
      <trkpt lat="46.87478" lon="-2.10429">
        <ele>1.1</ele>
        <time>2020-06-04T12:40:46Z</time>
      </trkpt>
      <trkpt lat="46.87471" lon="-2.10427">
        <ele>1.1</ele>
        <time>2020-06-04T12:40:47Z</time>
      </trkpt>
      <trkpt lat="46.87465" lon="-2.10426">
        <ele>1.2</ele>
        <time>2020-06-04T12:40:48Z</time>
      </trkpt>
      <trkpt lat="46.87458" lon="-2.10426">
        <ele>1.2</ele>
        <time>2020-06-04T12:40:49Z</time>
      </trkpt>
      <trkpt lat="46.87451" lon="-2.10424">
        <ele>1.2</ele>
        <time>2020-06-04T12:40:50Z</time>
      </trkpt>
      <trkpt lat="46.87445" lon="-2.10422">
        <ele>1.3</ele>
        <time>2020-06-04T12:40:51Z</time>
      </trkpt>
      <trkpt lat="46.87439" lon="-2.10418">
        <ele>1.3</ele>
        <time>2020-06-04T12:40:52Z</time>
      </trkpt>
      <trkpt lat="46.87433" lon="-2.10413">
        <ele>1.3</ele>
        <time>2020-06-04T12:40:53Z</time>
      </trkpt>
      <trkpt lat="46.87427" lon="-2.10408">
        <ele>1.4</ele>
        <time>2020-06-04T12:40:54Z</time>
      </trkpt>
      <trkpt lat="46.87422" lon="-2.10403">
        <ele>1.4</ele>
        <time>2020-06-04T12:40:55Z</time>
      </trkpt>
      <trkpt lat="46.87416" lon="-2.10397">
        <ele>1.4</ele>
        <time>2020-06-04T12:40:56Z</time>
      </trkpt>
      <trkpt lat="46.8741" lon="-2.10393">
        <ele>1.4</ele>
        <time>2020-06-04T12:40:57Z</time>
      </trkpt>
      <trkpt lat="46.87405" lon="-2.10389">
        <ele>1.4</ele>
        <time>2020-06-04T12:40:58Z</time>
      </trkpt>
      <trkpt lat="46.87399" lon="-2.10388">
        <ele>1.5</ele>
        <time>2020-06-04T12:40:59Z</time>
      </trkpt>
      <trkpt lat="46.87392" lon="-2.10385">
        <ele>1.5</ele>
        <time>2020-06-04T12:41:00Z</time>
      </trkpt>
      <trkpt lat="46.87386" lon="-2.10383">
        <ele>1.5</ele>
        <time>2020-06-04T12:41:01Z</time>
      </trkpt>
      <trkpt lat="46.87381" lon="-2.10379">
        <ele>1.5</ele>
        <time>2020-06-04T12:41:02Z</time>
      </trkpt>
      <trkpt lat="46.87375" lon="-2.10375">
        <ele>1.5</ele>
        <time>2020-06-04T12:41:03Z</time>
      </trkpt>
      <trkpt lat="46.87369" lon="-2.10371">
        <ele>1.5</ele>
        <time>2020-06-04T12:41:04Z</time>
      </trkpt>
      <trkpt lat="46.87363" lon="-2.10368">
        <ele>1.5</ele>
        <time>2020-06-04T12:41:05Z</time>
      </trkpt>
      <trkpt lat="46.87357" lon="-2.10365">
        <ele>1.4</ele>
        <time>2020-06-04T12:41:06Z</time>
      </trkpt>
      <trkpt lat="46.87352" lon="-2.10362">
        <ele>1.3</ele>
        <time>2020-06-04T12:41:07Z</time>
      </trkpt>
      <trkpt lat="46.87346" lon="-2.10359">
        <ele>1.2</ele>
        <time>2020-06-04T12:41:08Z</time>
      </trkpt>
      <trkpt lat="46.8734" lon="-2.10358">
        <ele>1.2</ele>
        <time>2020-06-04T12:41:09Z</time>
      </trkpt>
      <trkpt lat="46.87335" lon="-2.10358">
        <ele>1.2</ele>
        <time>2020-06-04T12:41:10Z</time>
      </trkpt>
      <trkpt lat="46.8733" lon="-2.10359">
        <ele>1.2</ele>
        <time>2020-06-04T12:41:11Z</time>
      </trkpt>
      <trkpt lat="46.87326" lon="-2.10359">
        <ele>1.2</ele>
        <time>2020-06-04T12:41:12Z</time>
      </trkpt>
      <trkpt lat="46.87322" lon="-2.10358">
        <ele>1.2</ele>
        <time>2020-06-04T12:41:13Z</time>
      </trkpt>
      <trkpt lat="46.8732" lon="-2.10357">
        <ele>1.2</ele>
        <time>2020-06-04T12:41:14Z</time>
      </trkpt>
      <trkpt lat="46.87316" lon="-2.10355">
        <ele>1.3</ele>
        <time>2020-06-04T12:41:15Z</time>
      </trkpt>
      <trkpt lat="46.87315" lon="-2.10355">
        <ele>1.3</ele>
        <time>2020-06-04T12:41:16Z</time>
      </trkpt>
      <trkpt lat="46.87312" lon="-2.10354">
        <ele>1.3</ele>
        <time>2020-06-04T12:41:17Z</time>
      </trkpt>
      <trkpt lat="46.87311" lon="-2.10354">
        <ele>1.3</ele>
        <time>2020-06-04T12:41:18Z</time>
      </trkpt>
      <trkpt lat="46.87307" lon="-2.10354">
        <ele>1.3</ele>
        <time>2020-06-04T12:41:19Z</time>
      </trkpt>
      <trkpt lat="46.87306" lon="-2.10354">
        <ele>1.3</ele>
        <time>2020-06-04T12:41:20Z</time>
      </trkpt>
      <trkpt lat="46.87304" lon="-2.10354">
        <ele>1.3</ele>
        <time>2020-06-04T12:41:21Z</time>
      </trkpt>
      <trkpt lat="46.87303" lon="-2.10353">
        <ele>1.3</ele>
        <time>2020-06-04T12:41:22Z</time>
      </trkpt>
      <trkpt lat="46.87304" lon="-2.10352">
        <ele>1.3</ele>
        <time>2020-06-04T12:41:23Z</time>
      </trkpt>
      <trkpt lat="46.87305" lon="-2.10352">
        <ele>1.3</ele>
        <time>2020-06-04T12:41:24Z</time>
      </trkpt>
      <trkpt lat="46.87306" lon="-2.10351">
        <ele>1.3</ele>
        <time>2020-06-04T12:41:25Z</time>
      </trkpt>
      <trkpt lat="46.87307" lon="-2.10351">
        <ele>1.3</ele>
        <time>2020-06-04T12:41:26Z</time>
      </trkpt>
      <trkpt lat="46.87308" lon="-2.10351">
        <ele>1.3</ele>
        <time>2020-06-04T12:41:27Z</time>
      </trkpt>
      <trkpt lat="46.8731" lon="-2.1035">
        <ele>1.3</ele>
        <time>2020-06-04T12:41:28Z</time>
      </trkpt>
      <trkpt lat="46.87312" lon="-2.1035">
        <ele>1.3</ele>
        <time>2020-06-04T12:41:29Z</time>
      </trkpt>
      <trkpt lat="46.87313" lon="-2.1035">
        <ele>1.3</ele>
        <time>2020-06-04T12:41:30Z</time>
      </trkpt>
      <trkpt lat="46.87317" lon="-2.10351">
        <ele>1.3</ele>
        <time>2020-06-04T12:41:31Z</time>
      </trkpt>
      <trkpt lat="46.87319" lon="-2.10352">
        <ele>1.3</ele>
        <time>2020-06-04T12:41:32Z</time>
      </trkpt>
      <trkpt lat="46.87321" lon="-2.10353">
        <ele>1.3</ele>
        <time>2020-06-04T12:41:33Z</time>
      </trkpt>
      <trkpt lat="46.87324" lon="-2.10353">
        <ele>1.3</ele>
        <time>2020-06-04T12:41:34Z</time>
      </trkpt>
      <trkpt lat="46.87327" lon="-2.10354">
        <ele>1.3</ele>
        <time>2020-06-04T12:41:35Z</time>
      </trkpt>
      <trkpt lat="46.8733" lon="-2.10354">
        <ele>1.3</ele>
        <time>2020-06-04T12:41:36Z</time>
      </trkpt>
      <trkpt lat="46.87333" lon="-2.10355">
        <ele>1.3</ele>
        <time>2020-06-04T12:41:37Z</time>
      </trkpt>
      <trkpt lat="46.87336" lon="-2.10356">
        <ele>1.3</ele>
        <time>2020-06-04T12:41:38Z</time>
      </trkpt>
      <trkpt lat="46.87337" lon="-2.10356">
        <ele>1.3</ele>
        <time>2020-06-04T12:41:39Z</time>
      </trkpt>
      <trkpt lat="46.87338" lon="-2.10358">
        <ele>1.3</ele>
        <time>2020-06-04T12:41:40Z</time>
      </trkpt>
      <trkpt lat="46.87339" lon="-2.10359">
        <ele>1.3</ele>
        <time>2020-06-04T12:41:41Z</time>
      </trkpt>
      <trkpt lat="46.8734" lon="-2.1036">
        <ele>1.3</ele>
        <time>2020-06-04T12:41:42Z</time>
      </trkpt>
      <trkpt lat="46.8734" lon="-2.10363">
        <ele>1.4</ele>
        <time>2020-06-04T12:41:43Z</time>
      </trkpt>
      <trkpt lat="46.8734" lon="-2.10366">
        <ele>1.4</ele>
        <time>2020-06-04T12:41:44Z</time>
      </trkpt>
      <trkpt lat="46.87339" lon="-2.10367">
        <ele>1.4</ele>
        <time>2020-06-04T12:41:45Z</time>
      </trkpt>
      <trkpt lat="46.87336" lon="-2.10363">
        <ele>1.4</ele>
        <time>2020-06-04T12:41:46Z</time>
      </trkpt>
      <trkpt lat="46.87335" lon="-2.10362">
        <ele>1.4</ele>
        <time>2020-06-04T12:41:47Z</time>
      </trkpt>
      <trkpt lat="46.87332" lon="-2.10359">
        <ele>1.4</ele>
        <time>2020-06-04T12:41:48Z</time>
      </trkpt>
      <trkpt lat="46.87331" lon="-2.10359">
        <ele>1.4</ele>
        <time>2020-06-04T12:41:49Z</time>
      </trkpt>
      <trkpt lat="46.87328" lon="-2.10358">
        <ele>1.4</ele>
        <time>2020-06-04T12:41:50Z</time>
      </trkpt>
      <trkpt lat="46.87325" lon="-2.10358">
        <ele>1.4</ele>
        <time>2020-06-04T12:41:51Z</time>
      </trkpt>
      <trkpt lat="46.87322" lon="-2.10357">
        <ele>1.4</ele>
        <time>2020-06-04T12:41:52Z</time>
      </trkpt>
      <trkpt lat="46.87319" lon="-2.10357">
        <ele>1.4</ele>
        <time>2020-06-04T12:41:53Z</time>
      </trkpt>
      <trkpt lat="46.87316" lon="-2.10357">
        <ele>1.4</ele>
        <time>2020-06-04T12:41:54Z</time>
      </trkpt>
      <trkpt lat="46.87312" lon="-2.10358">
        <ele>1.4</ele>
        <time>2020-06-04T12:41:55Z</time>
      </trkpt>
      <trkpt lat="46.87308" lon="-2.10358">
        <ele>1.4</ele>
        <time>2020-06-04T12:41:56Z</time>
      </trkpt>
      <trkpt lat="46.87305" lon="-2.10357">
        <ele>1.4</ele>
        <time>2020-06-04T12:41:57Z</time>
      </trkpt>
      <trkpt lat="46.87301" lon="-2.10357">
        <ele>1.4</ele>
        <time>2020-06-04T12:41:58Z</time>
      </trkpt>
      <trkpt lat="46.87296" lon="-2.10356">
        <ele>1.4</ele>
        <time>2020-06-04T12:41:59Z</time>
      </trkpt>
      <trkpt lat="46.87292" lon="-2.10356">
        <ele>1.5</ele>
        <time>2020-06-04T12:42:00Z</time>
      </trkpt>
      <trkpt lat="46.87288" lon="-2.10355">
        <ele>1.5</ele>
        <time>2020-06-04T12:42:01Z</time>
      </trkpt>
      <trkpt lat="46.87284" lon="-2.10355">
        <ele>1.5</ele>
        <time>2020-06-04T12:42:02Z</time>
      </trkpt>
      <trkpt lat="46.8728" lon="-2.10354">
        <ele>1.5</ele>
        <time>2020-06-04T12:42:03Z</time>
      </trkpt>
      <trkpt lat="46.87275" lon="-2.10354">
        <ele>1.5</ele>
        <time>2020-06-04T12:42:04Z</time>
      </trkpt>
      <trkpt lat="46.87271" lon="-2.10353">
        <ele>1.6</ele>
        <time>2020-06-04T12:42:05Z</time>
      </trkpt>
      <trkpt lat="46.87267" lon="-2.10352">
        <ele>1.6</ele>
        <time>2020-06-04T12:42:06Z</time>
      </trkpt>
      <trkpt lat="46.87263" lon="-2.10351">
        <ele>1.6</ele>
        <time>2020-06-04T12:42:07Z</time>
      </trkpt>
      <trkpt lat="46.87259" lon="-2.10351">
        <ele>1.6</ele>
        <time>2020-06-04T12:42:08Z</time>
      </trkpt>
      <trkpt lat="46.87255" lon="-2.1035">
        <ele>1.6</ele>
        <time>2020-06-04T12:42:09Z</time>
      </trkpt>
      <trkpt lat="46.8725" lon="-2.1035">
        <ele>1.7</ele>
        <time>2020-06-04T12:42:10Z</time>
      </trkpt>
      <trkpt lat="46.87245" lon="-2.10349">
        <ele>1.7</ele>
        <time>2020-06-04T12:42:11Z</time>
      </trkpt>
      <trkpt lat="46.8724" lon="-2.10348">
        <ele>1.7</ele>
        <time>2020-06-04T12:42:12Z</time>
      </trkpt>
      <trkpt lat="46.87235" lon="-2.10347">
        <ele>1.7</ele>
        <time>2020-06-04T12:42:13Z</time>
      </trkpt>
      <trkpt lat="46.8723" lon="-2.10346">
        <ele>1.7</ele>
        <time>2020-06-04T12:42:14Z</time>
      </trkpt>
      <trkpt lat="46.87225" lon="-2.10344">
        <ele>1.8</ele>
        <time>2020-06-04T12:42:15Z</time>
      </trkpt>
      <trkpt lat="46.8722" lon="-2.10342">
        <ele>1.8</ele>
        <time>2020-06-04T12:42:16Z</time>
      </trkpt>
      <trkpt lat="46.87215" lon="-2.10341">
        <ele>1.8</ele>
        <time>2020-06-04T12:42:17Z</time>
      </trkpt>
      <trkpt lat="46.8721" lon="-2.10339">
        <ele>1.8</ele>
        <time>2020-06-04T12:42:18Z</time>
      </trkpt>
      <trkpt lat="46.87205" lon="-2.10336">
        <ele>1.8</ele>
        <time>2020-06-04T12:42:19Z</time>
      </trkpt>
      <trkpt lat="46.872" lon="-2.10335">
        <ele>1.8</ele>
        <time>2020-06-04T12:42:20Z</time>
      </trkpt>
      <trkpt lat="46.87196" lon="-2.10334">
        <ele>1.8</ele>
        <time>2020-06-04T12:42:21Z</time>
      </trkpt>
      <trkpt lat="46.87191" lon="-2.10331">
        <ele>1.8</ele>
        <time>2020-06-04T12:42:22Z</time>
      </trkpt>
      <trkpt lat="46.87186" lon="-2.1033">
        <ele>1.8</ele>
        <time>2020-06-04T12:42:23Z</time>
      </trkpt>
      <trkpt lat="46.87181" lon="-2.10328">
        <ele>1.8</ele>
        <time>2020-06-04T12:42:24Z</time>
      </trkpt>
      <trkpt lat="46.87176" lon="-2.10324">
        <ele>1.9</ele>
        <time>2020-06-04T12:42:25Z</time>
      </trkpt>
      <trkpt lat="46.87171" lon="-2.10319">
        <ele>1.9</ele>
        <time>2020-06-04T12:42:26Z</time>
      </trkpt>
      <trkpt lat="46.8717" lon="-2.10311">
        <ele>1.9</ele>
        <time>2020-06-04T12:42:27Z</time>
      </trkpt>
      <trkpt lat="46.87169" lon="-2.10304">
        <ele>1.9</ele>
        <time>2020-06-04T12:42:28Z</time>
      </trkpt>
      <trkpt lat="46.87169" lon="-2.10295">
        <ele>1.9</ele>
        <time>2020-06-04T12:42:29Z</time>
      </trkpt>
      <trkpt lat="46.87169" lon="-2.10287">
        <ele>1.9</ele>
        <time>2020-06-04T12:42:30Z</time>
      </trkpt>
      <trkpt lat="46.87169" lon="-2.10279">
        <ele>1.9</ele>
        <time>2020-06-04T12:42:31Z</time>
      </trkpt>
      <trkpt lat="46.87169" lon="-2.10271">
        <ele>1.9</ele>
        <time>2020-06-04T12:42:32Z</time>
      </trkpt>
      <trkpt lat="46.87169" lon="-2.10262">
        <ele>1.9</ele>
        <time>2020-06-04T12:42:33Z</time>
      </trkpt>
      <trkpt lat="46.87169" lon="-2.10254">
        <ele>1.9</ele>
        <time>2020-06-04T12:42:34Z</time>
      </trkpt>
      <trkpt lat="46.87168" lon="-2.10246">
        <ele>1.9</ele>
        <time>2020-06-04T12:42:35Z</time>
      </trkpt>
      <trkpt lat="46.87167" lon="-2.10237">
        <ele>1.9</ele>
        <time>2020-06-04T12:42:36Z</time>
      </trkpt>
      <trkpt lat="46.87166" lon="-2.10229">
        <ele>1.9</ele>
        <time>2020-06-04T12:42:37Z</time>
      </trkpt>
      <trkpt lat="46.87165" lon="-2.10221">
        <ele>1.9</ele>
        <time>2020-06-04T12:42:38Z</time>
      </trkpt>
      <trkpt lat="46.87163" lon="-2.10214">
        <ele>2</ele>
        <time>2020-06-04T12:42:39Z</time>
      </trkpt>
      <trkpt lat="46.87161" lon="-2.10207">
        <ele>2</ele>
        <time>2020-06-04T12:42:40Z</time>
      </trkpt>
      <trkpt lat="46.87159" lon="-2.10199">
        <ele>2</ele>
        <time>2020-06-04T12:42:41Z</time>
      </trkpt>
      <trkpt lat="46.87157" lon="-2.10192">
        <ele>2</ele>
        <time>2020-06-04T12:42:42Z</time>
      </trkpt>
      <trkpt lat="46.87156" lon="-2.10184">
        <ele>2</ele>
        <time>2020-06-04T12:42:43Z</time>
      </trkpt>
      <trkpt lat="46.87154" lon="-2.10177">
        <ele>2</ele>
        <time>2020-06-04T12:42:44Z</time>
      </trkpt>
      <trkpt lat="46.87152" lon="-2.10169">
        <ele>2</ele>
        <time>2020-06-04T12:42:45Z</time>
      </trkpt>
      <trkpt lat="46.8715" lon="-2.10162">
        <ele>2</ele>
        <time>2020-06-04T12:42:46Z</time>
      </trkpt>
      <trkpt lat="46.87147" lon="-2.10154">
        <ele>2.1</ele>
        <time>2020-06-04T12:42:47Z</time>
      </trkpt>
      <trkpt lat="46.87145" lon="-2.10146">
        <ele>2.1</ele>
        <time>2020-06-04T12:42:48Z</time>
      </trkpt>
      <trkpt lat="46.87143" lon="-2.10139">
        <ele>2.2</ele>
        <time>2020-06-04T12:42:49Z</time>
      </trkpt>
      <trkpt lat="46.87141" lon="-2.10131">
        <ele>2.2</ele>
        <time>2020-06-04T12:42:50Z</time>
      </trkpt>
      <trkpt lat="46.87138" lon="-2.10124">
        <ele>2.2</ele>
        <time>2020-06-04T12:42:51Z</time>
      </trkpt>
      <trkpt lat="46.87135" lon="-2.10117">
        <ele>2.3</ele>
        <time>2020-06-04T12:42:52Z</time>
      </trkpt>
      <trkpt lat="46.87132" lon="-2.10111">
        <ele>2.3</ele>
        <time>2020-06-04T12:42:53Z</time>
      </trkpt>
      <trkpt lat="46.87128" lon="-2.10104">
        <ele>2.3</ele>
        <time>2020-06-04T12:42:54Z</time>
      </trkpt>
      <trkpt lat="46.87126" lon="-2.10097">
        <ele>2.3</ele>
        <time>2020-06-04T12:42:55Z</time>
      </trkpt>
      <trkpt lat="46.87124" lon="-2.10091">
        <ele>2.3</ele>
        <time>2020-06-04T12:42:56Z</time>
      </trkpt>
      <trkpt lat="46.87122" lon="-2.10084">
        <ele>2.3</ele>
        <time>2020-06-04T12:42:57Z</time>
      </trkpt>
      <trkpt lat="46.87123" lon="-2.10079">
        <ele>2.3</ele>
        <time>2020-06-04T12:42:58Z</time>
      </trkpt>
      <trkpt lat="46.87127" lon="-2.10074">
        <ele>2.3</ele>
        <time>2020-06-04T12:42:59Z</time>
      </trkpt>
      <trkpt lat="46.87131" lon="-2.10069">
        <ele>2.3</ele>
        <time>2020-06-04T12:43:00Z</time>
      </trkpt>
      <trkpt lat="46.87135" lon="-2.10063">
        <ele>2.3</ele>
        <time>2020-06-04T12:43:01Z</time>
      </trkpt>
      <trkpt lat="46.8714" lon="-2.10058">
        <ele>2.3</ele>
        <time>2020-06-04T12:43:02Z</time>
      </trkpt>
      <trkpt lat="46.87144" lon="-2.10053">
        <ele>2.3</ele>
        <time>2020-06-04T12:43:03Z</time>
      </trkpt>
      <trkpt lat="46.87148" lon="-2.10049">
        <ele>2.3</ele>
        <time>2020-06-04T12:43:04Z</time>
      </trkpt>
      <trkpt lat="46.87152" lon="-2.10044">
        <ele>2.3</ele>
        <time>2020-06-04T12:43:05Z</time>
      </trkpt>
      <trkpt lat="46.87156" lon="-2.10038">
        <ele>2.3</ele>
        <time>2020-06-04T12:43:06Z</time>
      </trkpt>
      <trkpt lat="46.8716" lon="-2.10033">
        <ele>2.3</ele>
        <time>2020-06-04T12:43:07Z</time>
      </trkpt>
      <trkpt lat="46.87163" lon="-2.10027">
        <ele>2.3</ele>
        <time>2020-06-04T12:43:08Z</time>
      </trkpt>
      <trkpt lat="46.87167" lon="-2.1002">
        <ele>2.3</ele>
        <time>2020-06-04T12:43:09Z</time>
      </trkpt>
      <trkpt lat="46.87171" lon="-2.10013">
        <ele>2.4</ele>
        <time>2020-06-04T12:43:10Z</time>
      </trkpt>
      <trkpt lat="46.87175" lon="-2.10006">
        <ele>2.5</ele>
        <time>2020-06-04T12:43:11Z</time>
      </trkpt>
      <trkpt lat="46.87178" lon="-2.1">
        <ele>2.6</ele>
        <time>2020-06-04T12:43:12Z</time>
      </trkpt>
      <trkpt lat="46.87182" lon="-2.09995">
        <ele>2.7</ele>
        <time>2020-06-04T12:43:13Z</time>
      </trkpt>
      <trkpt lat="46.87186" lon="-2.09989">
        <ele>2.8</ele>
        <time>2020-06-04T12:43:14Z</time>
      </trkpt>
      <trkpt lat="46.87189" lon="-2.09985">
        <ele>2.8</ele>
        <time>2020-06-04T12:43:15Z</time>
      </trkpt>
      <trkpt lat="46.87193" lon="-2.0998">
        <ele>2.9</ele>
        <time>2020-06-04T12:43:16Z</time>
      </trkpt>
      <trkpt lat="46.87197" lon="-2.09976">
        <ele>2.9</ele>
        <time>2020-06-04T12:43:17Z</time>
      </trkpt>
      <trkpt lat="46.87202" lon="-2.09973">
        <ele>2.9</ele>
        <time>2020-06-04T12:43:18Z</time>
      </trkpt>
      <trkpt lat="46.87208" lon="-2.0997">
        <ele>2.9</ele>
        <time>2020-06-04T12:43:19Z</time>
      </trkpt>
      <trkpt lat="46.87213" lon="-2.09968">
        <ele>3</ele>
        <time>2020-06-04T12:43:20Z</time>
      </trkpt>
      <trkpt lat="46.87217" lon="-2.09964">
        <ele>2.9</ele>
        <time>2020-06-04T12:43:21Z</time>
      </trkpt>
      <trkpt lat="46.87222" lon="-2.09962">
        <ele>2.9</ele>
        <time>2020-06-04T12:43:22Z</time>
      </trkpt>
      <trkpt lat="46.87227" lon="-2.09959">
        <ele>2.9</ele>
        <time>2020-06-04T12:43:23Z</time>
      </trkpt>
      <trkpt lat="46.87231" lon="-2.09956">
        <ele>2.9</ele>
        <time>2020-06-04T12:43:24Z</time>
      </trkpt>
      <trkpt lat="46.87236" lon="-2.09953">
        <ele>2.9</ele>
        <time>2020-06-04T12:43:25Z</time>
      </trkpt>
      <trkpt lat="46.87241" lon="-2.0995">
        <ele>2.9</ele>
        <time>2020-06-04T12:43:26Z</time>
      </trkpt>
      <trkpt lat="46.87245" lon="-2.09948">
        <ele>2.8</ele>
        <time>2020-06-04T12:43:27Z</time>
      </trkpt>
      <trkpt lat="46.8725" lon="-2.09946">
        <ele>2.8</ele>
        <time>2020-06-04T12:43:28Z</time>
      </trkpt>
      <trkpt lat="46.87255" lon="-2.09943">
        <ele>2.7</ele>
        <time>2020-06-04T12:43:29Z</time>
      </trkpt>
      <trkpt lat="46.87259" lon="-2.0994">
        <ele>2.7</ele>
        <time>2020-06-04T12:43:30Z</time>
      </trkpt>
      <trkpt lat="46.87264" lon="-2.09937">
        <ele>2.6</ele>
        <time>2020-06-04T12:43:31Z</time>
      </trkpt>
      <trkpt lat="46.87269" lon="-2.09934">
        <ele>2.6</ele>
        <time>2020-06-04T12:43:32Z</time>
      </trkpt>
      <trkpt lat="46.87273" lon="-2.0993">
        <ele>2.5</ele>
        <time>2020-06-04T12:43:33Z</time>
      </trkpt>
      <trkpt lat="46.87277" lon="-2.09926">
        <ele>2.5</ele>
        <time>2020-06-04T12:43:34Z</time>
      </trkpt>
      <trkpt lat="46.87279" lon="-2.09919">
        <ele>2.5</ele>
        <time>2020-06-04T12:43:35Z</time>
      </trkpt>
      <trkpt lat="46.87278" lon="-2.09911">
        <ele>2.4</ele>
        <time>2020-06-04T12:43:36Z</time>
      </trkpt>
      <trkpt lat="46.87274" lon="-2.09903">
        <ele>2.4</ele>
        <time>2020-06-04T12:43:37Z</time>
      </trkpt>
      <trkpt lat="46.8727" lon="-2.09895">
        <ele>2.4</ele>
        <time>2020-06-04T12:43:38Z</time>
      </trkpt>
      <trkpt lat="46.87265" lon="-2.09889">
        <ele>2.4</ele>
        <time>2020-06-04T12:43:39Z</time>
      </trkpt>
      <trkpt lat="46.8726" lon="-2.09884">
        <ele>2.4</ele>
        <time>2020-06-04T12:43:40Z</time>
      </trkpt>
      <trkpt lat="46.87254" lon="-2.09878">
        <ele>2.4</ele>
        <time>2020-06-04T12:43:41Z</time>
      </trkpt>
      <trkpt lat="46.87249" lon="-2.09873">
        <ele>2.4</ele>
        <time>2020-06-04T12:43:42Z</time>
      </trkpt>
      <trkpt lat="46.87243" lon="-2.09867">
        <ele>2.4</ele>
        <time>2020-06-04T12:43:43Z</time>
      </trkpt>
      <trkpt lat="46.87237" lon="-2.09862">
        <ele>2.4</ele>
        <time>2020-06-04T12:43:44Z</time>
      </trkpt>
      <trkpt lat="46.87231" lon="-2.09857">
        <ele>2.4</ele>
        <time>2020-06-04T12:43:45Z</time>
      </trkpt>
      <trkpt lat="46.87226" lon="-2.09852">
        <ele>2.3</ele>
        <time>2020-06-04T12:43:46Z</time>
      </trkpt>
      <trkpt lat="46.87221" lon="-2.09847">
        <ele>2.3</ele>
        <time>2020-06-04T12:43:47Z</time>
      </trkpt>
      <trkpt lat="46.87215" lon="-2.09842">
        <ele>2.3</ele>
        <time>2020-06-04T12:43:48Z</time>
      </trkpt>
      <trkpt lat="46.8721" lon="-2.09838">
        <ele>2.3</ele>
        <time>2020-06-04T12:43:49Z</time>
      </trkpt>
      <trkpt lat="46.87204" lon="-2.09831">
        <ele>2.3</ele>
        <time>2020-06-04T12:43:50Z</time>
      </trkpt>
      <trkpt lat="46.87198" lon="-2.09824">
        <ele>2.3</ele>
        <time>2020-06-04T12:43:51Z</time>
      </trkpt>
      <trkpt lat="46.87194" lon="-2.09818">
        <ele>2.3</ele>
        <time>2020-06-04T12:43:52Z</time>
      </trkpt>
      <trkpt lat="46.87189" lon="-2.09811">
        <ele>2.2</ele>
        <time>2020-06-04T12:43:53Z</time>
      </trkpt>
      <trkpt lat="46.87184" lon="-2.09806">
        <ele>2.2</ele>
        <time>2020-06-04T12:43:54Z</time>
      </trkpt>
      <trkpt lat="46.87179" lon="-2.09801">
        <ele>2.2</ele>
        <time>2020-06-04T12:43:55Z</time>
      </trkpt>
      <trkpt lat="46.87174" lon="-2.09795">
        <ele>2.2</ele>
        <time>2020-06-04T12:43:56Z</time>
      </trkpt>
      <trkpt lat="46.87169" lon="-2.0979">
        <ele>2.2</ele>
        <time>2020-06-04T12:43:57Z</time>
      </trkpt>
      <trkpt lat="46.87164" lon="-2.09784">
        <ele>2.2</ele>
        <time>2020-06-04T12:43:58Z</time>
      </trkpt>
      <trkpt lat="46.87159" lon="-2.09778">
        <ele>2.2</ele>
        <time>2020-06-04T12:43:59Z</time>
      </trkpt>
      <trkpt lat="46.87155" lon="-2.09772">
        <ele>2.2</ele>
        <time>2020-06-04T12:44:00Z</time>
      </trkpt>
      <trkpt lat="46.87151" lon="-2.09765">
        <ele>2.2</ele>
        <time>2020-06-04T12:44:01Z</time>
      </trkpt>
      <trkpt lat="46.87147" lon="-2.09758">
        <ele>2.2</ele>
        <time>2020-06-04T12:44:02Z</time>
      </trkpt>
      <trkpt lat="46.87143" lon="-2.09751">
        <ele>2.2</ele>
        <time>2020-06-04T12:44:03Z</time>
      </trkpt>
      <trkpt lat="46.87138" lon="-2.09743">
        <ele>2.2</ele>
        <time>2020-06-04T12:44:04Z</time>
      </trkpt>
      <trkpt lat="46.87135" lon="-2.09736">
        <ele>2.2</ele>
        <time>2020-06-04T12:44:05Z</time>
      </trkpt>
      <trkpt lat="46.87131" lon="-2.09728">
        <ele>2.2</ele>
        <time>2020-06-04T12:44:06Z</time>
      </trkpt>
      <trkpt lat="46.87127" lon="-2.09721">
        <ele>2.1</ele>
        <time>2020-06-04T12:44:07Z</time>
      </trkpt>
      <trkpt lat="46.87123" lon="-2.09712">
        <ele>2.1</ele>
        <time>2020-06-04T12:44:08Z</time>
      </trkpt>
      <trkpt lat="46.87119" lon="-2.09704">
        <ele>2.1</ele>
        <time>2020-06-04T12:44:09Z</time>
      </trkpt>
      <trkpt lat="46.87115" lon="-2.09695">
        <ele>2.1</ele>
        <time>2020-06-04T12:44:10Z</time>
      </trkpt>
      <trkpt lat="46.87112" lon="-2.09687">
        <ele>2.1</ele>
        <time>2020-06-04T12:44:11Z</time>
      </trkpt>
      <trkpt lat="46.8711" lon="-2.09679">
        <ele>2.1</ele>
        <time>2020-06-04T12:44:12Z</time>
      </trkpt>
      <trkpt lat="46.87106" lon="-2.0967">
        <ele>2.1</ele>
        <time>2020-06-04T12:44:13Z</time>
      </trkpt>
      <trkpt lat="46.87103" lon="-2.09663">
        <ele>2.1</ele>
        <time>2020-06-04T12:44:14Z</time>
      </trkpt>
      <trkpt lat="46.87099" lon="-2.09655">
        <ele>2.1</ele>
        <time>2020-06-04T12:44:15Z</time>
      </trkpt>
      <trkpt lat="46.87096" lon="-2.09647">
        <ele>2.2</ele>
        <time>2020-06-04T12:44:16Z</time>
      </trkpt>
      <trkpt lat="46.87092" lon="-2.0964">
        <ele>2.2</ele>
        <time>2020-06-04T12:44:17Z</time>
      </trkpt>
      <trkpt lat="46.87089" lon="-2.09632">
        <ele>2.2</ele>
        <time>2020-06-04T12:44:18Z</time>
      </trkpt>
      <trkpt lat="46.87085" lon="-2.09624">
        <ele>2.2</ele>
        <time>2020-06-04T12:44:19Z</time>
      </trkpt>
      <trkpt lat="46.87082" lon="-2.09617">
        <ele>2.2</ele>
        <time>2020-06-04T12:44:20Z</time>
      </trkpt>
      <trkpt lat="46.87078" lon="-2.0961">
        <ele>2.2</ele>
        <time>2020-06-04T12:44:21Z</time>
      </trkpt>
      <trkpt lat="46.87074" lon="-2.09603">
        <ele>2.2</ele>
        <time>2020-06-04T12:44:22Z</time>
      </trkpt>
      <trkpt lat="46.87071" lon="-2.09596">
        <ele>2.2</ele>
        <time>2020-06-04T12:44:23Z</time>
      </trkpt>
      <trkpt lat="46.87068" lon="-2.09589">
        <ele>2.1</ele>
        <time>2020-06-04T12:44:24Z</time>
      </trkpt>
      <trkpt lat="46.87065" lon="-2.09582">
        <ele>2.1</ele>
        <time>2020-06-04T12:44:25Z</time>
      </trkpt>
      <trkpt lat="46.87061" lon="-2.09576">
        <ele>2.1</ele>
        <time>2020-06-04T12:44:26Z</time>
      </trkpt>
      <trkpt lat="46.87058" lon="-2.09569">
        <ele>2.1</ele>
        <time>2020-06-04T12:44:27Z</time>
      </trkpt>
      <trkpt lat="46.87055" lon="-2.09561">
        <ele>2.1</ele>
        <time>2020-06-04T12:44:28Z</time>
      </trkpt>
      <trkpt lat="46.87052" lon="-2.09554">
        <ele>2.1</ele>
        <time>2020-06-04T12:44:29Z</time>
      </trkpt>
      <trkpt lat="46.87048" lon="-2.09547">
        <ele>2.1</ele>
        <time>2020-06-04T12:44:30Z</time>
      </trkpt>
      <trkpt lat="46.87045" lon="-2.09539">
        <ele>2.2</ele>
        <time>2020-06-04T12:44:31Z</time>
      </trkpt>
      <trkpt lat="46.87042" lon="-2.09532">
        <ele>2.2</ele>
        <time>2020-06-04T12:44:32Z</time>
      </trkpt>
      <trkpt lat="46.87038" lon="-2.09524">
        <ele>2.2</ele>
        <time>2020-06-04T12:44:33Z</time>
      </trkpt>
      <trkpt lat="46.87034" lon="-2.09517">
        <ele>2.2</ele>
        <time>2020-06-04T12:44:34Z</time>
      </trkpt>
      <trkpt lat="46.87031" lon="-2.0951">
        <ele>2.2</ele>
        <time>2020-06-04T12:44:35Z</time>
      </trkpt>
      <trkpt lat="46.87027" lon="-2.09503">
        <ele>2.2</ele>
        <time>2020-06-04T12:44:36Z</time>
      </trkpt>
      <trkpt lat="46.87024" lon="-2.09495">
        <ele>2.2</ele>
        <time>2020-06-04T12:44:37Z</time>
      </trkpt>
      <trkpt lat="46.8702" lon="-2.09487">
        <ele>2.2</ele>
        <time>2020-06-04T12:44:38Z</time>
      </trkpt>
      <trkpt lat="46.87016" lon="-2.09479">
        <ele>2.2</ele>
        <time>2020-06-04T12:44:39Z</time>
      </trkpt>
      <trkpt lat="46.87013" lon="-2.09471">
        <ele>2.2</ele>
        <time>2020-06-04T12:44:40Z</time>
      </trkpt>
      <trkpt lat="46.87009" lon="-2.09464">
        <ele>2.2</ele>
        <time>2020-06-04T12:44:41Z</time>
      </trkpt>
      <trkpt lat="46.87005" lon="-2.09456">
        <ele>2.2</ele>
        <time>2020-06-04T12:44:42Z</time>
      </trkpt>
      <trkpt lat="46.87002" lon="-2.09448">
        <ele>2.3</ele>
        <time>2020-06-04T12:44:43Z</time>
      </trkpt>
      <trkpt lat="46.86998" lon="-2.0944">
        <ele>2.3</ele>
        <time>2020-06-04T12:44:44Z</time>
      </trkpt>
      <trkpt lat="46.86995" lon="-2.09431">
        <ele>2.3</ele>
        <time>2020-06-04T12:44:45Z</time>
      </trkpt>
      <trkpt lat="46.86992" lon="-2.09423">
        <ele>2.3</ele>
        <time>2020-06-04T12:44:46Z</time>
      </trkpt>
      <trkpt lat="46.86988" lon="-2.09415">
        <ele>2.3</ele>
        <time>2020-06-04T12:44:47Z</time>
      </trkpt>
      <trkpt lat="46.86985" lon="-2.09407">
        <ele>2.3</ele>
        <time>2020-06-04T12:44:48Z</time>
      </trkpt>
      <trkpt lat="46.86982" lon="-2.09399">
        <ele>2.3</ele>
        <time>2020-06-04T12:44:49Z</time>
      </trkpt>
      <trkpt lat="46.86979" lon="-2.09391">
        <ele>2.3</ele>
        <time>2020-06-04T12:44:50Z</time>
      </trkpt>
      <trkpt lat="46.86976" lon="-2.09384">
        <ele>2.3</ele>
        <time>2020-06-04T12:44:51Z</time>
      </trkpt>
      <trkpt lat="46.86973" lon="-2.09376">
        <ele>2.3</ele>
        <time>2020-06-04T12:44:52Z</time>
      </trkpt>
      <trkpt lat="46.86971" lon="-2.09369">
        <ele>2.3</ele>
        <time>2020-06-04T12:44:53Z</time>
      </trkpt>
      <trkpt lat="46.86968" lon="-2.09361">
        <ele>2.3</ele>
        <time>2020-06-04T12:44:54Z</time>
      </trkpt>
      <trkpt lat="46.86965" lon="-2.09354">
        <ele>2.3</ele>
        <time>2020-06-04T12:44:55Z</time>
      </trkpt>
      <trkpt lat="46.86963" lon="-2.09347">
        <ele>2.2</ele>
        <time>2020-06-04T12:44:56Z</time>
      </trkpt>
      <trkpt lat="46.8696" lon="-2.0934">
        <ele>2.2</ele>
        <time>2020-06-04T12:44:57Z</time>
      </trkpt>
      <trkpt lat="46.86957" lon="-2.09333">
        <ele>2.2</ele>
        <time>2020-06-04T12:44:58Z</time>
      </trkpt>
      <trkpt lat="46.86954" lon="-2.09326">
        <ele>2.2</ele>
        <time>2020-06-04T12:44:59Z</time>
      </trkpt>
      <trkpt lat="46.8695" lon="-2.0932">
        <ele>2.1</ele>
        <time>2020-06-04T12:45:00Z</time>
      </trkpt>
      <trkpt lat="46.86947" lon="-2.09312">
        <ele>2.1</ele>
        <time>2020-06-04T12:45:01Z</time>
      </trkpt>
      <trkpt lat="46.86944" lon="-2.09306">
        <ele>2.1</ele>
        <time>2020-06-04T12:45:02Z</time>
      </trkpt>
      <trkpt lat="46.86941" lon="-2.09299">
        <ele>2.1</ele>
        <time>2020-06-04T12:45:03Z</time>
      </trkpt>
      <trkpt lat="46.86938" lon="-2.09291">
        <ele>2.1</ele>
        <time>2020-06-04T12:45:04Z</time>
      </trkpt>
      <trkpt lat="46.86935" lon="-2.09284">
        <ele>2.2</ele>
        <time>2020-06-04T12:45:05Z</time>
      </trkpt>
      <trkpt lat="46.86932" lon="-2.09277">
        <ele>2.2</ele>
        <time>2020-06-04T12:45:06Z</time>
      </trkpt>
      <trkpt lat="46.86929" lon="-2.09269">
        <ele>2.2</ele>
        <time>2020-06-04T12:45:07Z</time>
      </trkpt>
      <trkpt lat="46.86926" lon="-2.09262">
        <ele>2.2</ele>
        <time>2020-06-04T12:45:08Z</time>
      </trkpt>
      <trkpt lat="46.86923" lon="-2.09255">
        <ele>2.2</ele>
        <time>2020-06-04T12:45:09Z</time>
      </trkpt>
      <trkpt lat="46.8692" lon="-2.09247">
        <ele>2.2</ele>
        <time>2020-06-04T12:45:10Z</time>
      </trkpt>
      <trkpt lat="46.86917" lon="-2.0924">
        <ele>2.2</ele>
        <time>2020-06-04T12:45:11Z</time>
      </trkpt>
      <trkpt lat="46.86913" lon="-2.09233">
        <ele>2.2</ele>
        <time>2020-06-04T12:45:12Z</time>
      </trkpt>
      <trkpt lat="46.8691" lon="-2.09226">
        <ele>2.3</ele>
        <time>2020-06-04T12:45:13Z</time>
      </trkpt>
      <trkpt lat="46.86907" lon="-2.09219">
        <ele>2.3</ele>
        <time>2020-06-04T12:45:14Z</time>
      </trkpt>
      <trkpt lat="46.86903" lon="-2.09212">
        <ele>2.3</ele>
        <time>2020-06-04T12:45:15Z</time>
      </trkpt>
      <trkpt lat="46.869" lon="-2.09205">
        <ele>2.3</ele>
        <time>2020-06-04T12:45:16Z</time>
      </trkpt>
      <trkpt lat="46.86896" lon="-2.09198">
        <ele>2.3</ele>
        <time>2020-06-04T12:45:17Z</time>
      </trkpt>
      <trkpt lat="46.86893" lon="-2.09191">
        <ele>2.3</ele>
        <time>2020-06-04T12:45:18Z</time>
      </trkpt>
      <trkpt lat="46.8689" lon="-2.09184">
        <ele>2.3</ele>
        <time>2020-06-04T12:45:19Z</time>
      </trkpt>
      <trkpt lat="46.86886" lon="-2.09177">
        <ele>2.3</ele>
        <time>2020-06-04T12:45:20Z</time>
      </trkpt>
      <trkpt lat="46.86883" lon="-2.09169">
        <ele>2.3</ele>
        <time>2020-06-04T12:45:21Z</time>
      </trkpt>
      <trkpt lat="46.8688" lon="-2.09162">
        <ele>2.3</ele>
        <time>2020-06-04T12:45:22Z</time>
      </trkpt>
      <trkpt lat="46.86877" lon="-2.09154">
        <ele>2.3</ele>
        <time>2020-06-04T12:45:23Z</time>
      </trkpt>
      <trkpt lat="46.86874" lon="-2.09147">
        <ele>2.3</ele>
        <time>2020-06-04T12:45:24Z</time>
      </trkpt>
      <trkpt lat="46.86871" lon="-2.09139">
        <ele>2.3</ele>
        <time>2020-06-04T12:45:25Z</time>
      </trkpt>
      <trkpt lat="46.86868" lon="-2.0913">
        <ele>2.3</ele>
        <time>2020-06-04T12:45:26Z</time>
      </trkpt>
      <trkpt lat="46.86865" lon="-2.09122">
        <ele>2.3</ele>
        <time>2020-06-04T12:45:27Z</time>
      </trkpt>
      <trkpt lat="46.86862" lon="-2.09115">
        <ele>2.3</ele>
        <time>2020-06-04T12:45:28Z</time>
      </trkpt>
      <trkpt lat="46.86859" lon="-2.09106">
        <ele>2.3</ele>
        <time>2020-06-04T12:45:29Z</time>
      </trkpt>
      <trkpt lat="46.86857" lon="-2.09098">
        <ele>2.3</ele>
        <time>2020-06-04T12:45:30Z</time>
      </trkpt>
      <trkpt lat="46.86854" lon="-2.0909">
        <ele>2.3</ele>
        <time>2020-06-04T12:45:31Z</time>
      </trkpt>
      <trkpt lat="46.86851" lon="-2.09083">
        <ele>2.3</ele>
        <time>2020-06-04T12:45:32Z</time>
      </trkpt>
      <trkpt lat="46.86848" lon="-2.09075">
        <ele>2.3</ele>
        <time>2020-06-04T12:45:33Z</time>
      </trkpt>
      <trkpt lat="46.86845" lon="-2.09067">
        <ele>2.3</ele>
        <time>2020-06-04T12:45:34Z</time>
      </trkpt>
      <trkpt lat="46.86842" lon="-2.09059">
        <ele>2.3</ele>
        <time>2020-06-04T12:45:35Z</time>
      </trkpt>
      <trkpt lat="46.8684" lon="-2.09052">
        <ele>2.3</ele>
        <time>2020-06-04T12:45:36Z</time>
      </trkpt>
      <trkpt lat="46.86837" lon="-2.09044">
        <ele>2.3</ele>
        <time>2020-06-04T12:45:37Z</time>
      </trkpt>
      <trkpt lat="46.86834" lon="-2.09036">
        <ele>2.3</ele>
        <time>2020-06-04T12:45:38Z</time>
      </trkpt>
      <trkpt lat="46.86831" lon="-2.09028">
        <ele>2.3</ele>
        <time>2020-06-04T12:45:39Z</time>
      </trkpt>
      <trkpt lat="46.86827" lon="-2.09021">
        <ele>2.3</ele>
        <time>2020-06-04T12:45:40Z</time>
      </trkpt>
      <trkpt lat="46.86824" lon="-2.09013">
        <ele>2.3</ele>
        <time>2020-06-04T12:45:41Z</time>
      </trkpt>
      <trkpt lat="46.86822" lon="-2.09005">
        <ele>2.3</ele>
        <time>2020-06-04T12:45:42Z</time>
      </trkpt>
      <trkpt lat="46.86819" lon="-2.08997">
        <ele>2.3</ele>
        <time>2020-06-04T12:45:43Z</time>
      </trkpt>
      <trkpt lat="46.86816" lon="-2.08989">
        <ele>2.3</ele>
        <time>2020-06-04T12:45:44Z</time>
      </trkpt>
      <trkpt lat="46.86814" lon="-2.08981">
        <ele>2.3</ele>
        <time>2020-06-04T12:45:45Z</time>
      </trkpt>
      <trkpt lat="46.86811" lon="-2.08974">
        <ele>2.3</ele>
        <time>2020-06-04T12:45:46Z</time>
      </trkpt>
      <trkpt lat="46.86808" lon="-2.08966">
        <ele>2.3</ele>
        <time>2020-06-04T12:45:47Z</time>
      </trkpt>
      <trkpt lat="46.86804" lon="-2.08959">
        <ele>2.3</ele>
        <time>2020-06-04T12:45:48Z</time>
      </trkpt>
      <trkpt lat="46.86802" lon="-2.08951">
        <ele>2.3</ele>
        <time>2020-06-04T12:45:49Z</time>
      </trkpt>
      <trkpt lat="46.86799" lon="-2.08943">
        <ele>2.3</ele>
        <time>2020-06-04T12:45:50Z</time>
      </trkpt>
      <trkpt lat="46.86797" lon="-2.08935">
        <ele>2.3</ele>
        <time>2020-06-04T12:45:51Z</time>
      </trkpt>
      <trkpt lat="46.86794" lon="-2.08926">
        <ele>2.3</ele>
        <time>2020-06-04T12:45:52Z</time>
      </trkpt>
      <trkpt lat="46.86791" lon="-2.08918">
        <ele>2.3</ele>
        <time>2020-06-04T12:45:53Z</time>
      </trkpt>
      <trkpt lat="46.86789" lon="-2.0891">
        <ele>2.3</ele>
        <time>2020-06-04T12:45:54Z</time>
      </trkpt>
      <trkpt lat="46.86786" lon="-2.08902">
        <ele>2.3</ele>
        <time>2020-06-04T12:45:55Z</time>
      </trkpt>
      <trkpt lat="46.86783" lon="-2.08893">
        <ele>2.2</ele>
        <time>2020-06-04T12:45:56Z</time>
      </trkpt>
      <trkpt lat="46.8678" lon="-2.08885">
        <ele>2.2</ele>
        <time>2020-06-04T12:45:57Z</time>
      </trkpt>
      <trkpt lat="46.86777" lon="-2.08876">
        <ele>2.2</ele>
        <time>2020-06-04T12:45:58Z</time>
      </trkpt>
      <trkpt lat="46.86774" lon="-2.08868">
        <ele>2.1</ele>
        <time>2020-06-04T12:45:59Z</time>
      </trkpt>
      <trkpt lat="46.86771" lon="-2.0886">
        <ele>2.1</ele>
        <time>2020-06-04T12:46:00Z</time>
      </trkpt>
      <trkpt lat="46.86768" lon="-2.08852">
        <ele>2.1</ele>
        <time>2020-06-04T12:46:01Z</time>
      </trkpt>
      <trkpt lat="46.86765" lon="-2.08844">
        <ele>2.1</ele>
        <time>2020-06-04T12:46:02Z</time>
      </trkpt>
      <trkpt lat="46.86761" lon="-2.08836">
        <ele>2.2</ele>
        <time>2020-06-04T12:46:03Z</time>
      </trkpt>
      <trkpt lat="46.86758" lon="-2.08828">
        <ele>2.2</ele>
        <time>2020-06-04T12:46:04Z</time>
      </trkpt>
      <trkpt lat="46.86755" lon="-2.0882">
        <ele>2.2</ele>
        <time>2020-06-04T12:46:05Z</time>
      </trkpt>
      <trkpt lat="46.86752" lon="-2.08813">
        <ele>2.2</ele>
        <time>2020-06-04T12:46:06Z</time>
      </trkpt>
      <trkpt lat="46.86748" lon="-2.08806">
        <ele>2.2</ele>
        <time>2020-06-04T12:46:07Z</time>
      </trkpt>
      <trkpt lat="46.86745" lon="-2.088">
        <ele>2.2</ele>
        <time>2020-06-04T12:46:08Z</time>
      </trkpt>
      <trkpt lat="46.86742" lon="-2.08792">
        <ele>2.2</ele>
        <time>2020-06-04T12:46:09Z</time>
      </trkpt>
      <trkpt lat="46.86739" lon="-2.08785">
        <ele>2.2</ele>
        <time>2020-06-04T12:46:10Z</time>
      </trkpt>
      <trkpt lat="46.86736" lon="-2.08777">
        <ele>2.2</ele>
        <time>2020-06-04T12:46:11Z</time>
      </trkpt>
      <trkpt lat="46.86732" lon="-2.08769">
        <ele>2.2</ele>
        <time>2020-06-04T12:46:12Z</time>
      </trkpt>
      <trkpt lat="46.8673" lon="-2.08761">
        <ele>2.2</ele>
        <time>2020-06-04T12:46:13Z</time>
      </trkpt>
      <trkpt lat="46.86727" lon="-2.08753">
        <ele>2.2</ele>
        <time>2020-06-04T12:46:14Z</time>
      </trkpt>
      <trkpt lat="46.86724" lon="-2.08745">
        <ele>2.2</ele>
        <time>2020-06-04T12:46:15Z</time>
      </trkpt>
      <trkpt lat="46.86722" lon="-2.08736">
        <ele>2.2</ele>
        <time>2020-06-04T12:46:16Z</time>
      </trkpt>
      <trkpt lat="46.86719" lon="-2.08728">
        <ele>2.2</ele>
        <time>2020-06-04T12:46:17Z</time>
      </trkpt>
      <trkpt lat="46.86716" lon="-2.08719">
        <ele>2.3</ele>
        <time>2020-06-04T12:46:18Z</time>
      </trkpt>
      <trkpt lat="46.86713" lon="-2.08711">
        <ele>2.3</ele>
        <time>2020-06-04T12:46:19Z</time>
      </trkpt>
      <trkpt lat="46.8671" lon="-2.08703">
        <ele>2.3</ele>
        <time>2020-06-04T12:46:20Z</time>
      </trkpt>
      <trkpt lat="46.86707" lon="-2.08695">
        <ele>2.3</ele>
        <time>2020-06-04T12:46:21Z</time>
      </trkpt>
      <trkpt lat="46.86704" lon="-2.08687">
        <ele>2.3</ele>
        <time>2020-06-04T12:46:22Z</time>
      </trkpt>
      <trkpt lat="46.86702" lon="-2.08679">
        <ele>2.3</ele>
        <time>2020-06-04T12:46:23Z</time>
      </trkpt>
      <trkpt lat="46.86699" lon="-2.08672">
        <ele>2.3</ele>
        <time>2020-06-04T12:46:24Z</time>
      </trkpt>
      <trkpt lat="46.86696" lon="-2.08665">
        <ele>2.3</ele>
        <time>2020-06-04T12:46:25Z</time>
      </trkpt>
      <trkpt lat="46.86692" lon="-2.08659">
        <ele>2.3</ele>
        <time>2020-06-04T12:46:26Z</time>
      </trkpt>
      <trkpt lat="46.8669" lon="-2.08652">
        <ele>2.3</ele>
        <time>2020-06-04T12:46:27Z</time>
      </trkpt>
      <trkpt lat="46.86688" lon="-2.08646">
        <ele>2.3</ele>
        <time>2020-06-04T12:46:28Z</time>
      </trkpt>
      <trkpt lat="46.86686" lon="-2.08639">
        <ele>2.2</ele>
        <time>2020-06-04T12:46:29Z</time>
      </trkpt>
      <trkpt lat="46.86684" lon="-2.08633">
        <ele>2.2</ele>
        <time>2020-06-04T12:46:30Z</time>
      </trkpt>
      <trkpt lat="46.86682" lon="-2.08626">
        <ele>2.2</ele>
        <time>2020-06-04T12:46:31Z</time>
      </trkpt>
      <trkpt lat="46.8668" lon="-2.0862">
        <ele>2.2</ele>
        <time>2020-06-04T12:46:32Z</time>
      </trkpt>
      <trkpt lat="46.86678" lon="-2.08613">
        <ele>2.2</ele>
        <time>2020-06-04T12:46:33Z</time>
      </trkpt>
      <trkpt lat="46.86675" lon="-2.08607">
        <ele>2.2</ele>
        <time>2020-06-04T12:46:34Z</time>
      </trkpt>
      <trkpt lat="46.86671" lon="-2.086">
        <ele>2.2</ele>
        <time>2020-06-04T12:46:35Z</time>
      </trkpt>
      <trkpt lat="46.86667" lon="-2.08592">
        <ele>2.2</ele>
        <time>2020-06-04T12:46:36Z</time>
      </trkpt>
      <trkpt lat="46.86663" lon="-2.08585">
        <ele>2.2</ele>
        <time>2020-06-04T12:46:37Z</time>
      </trkpt>
      <trkpt lat="46.86659" lon="-2.08578">
        <ele>2.2</ele>
        <time>2020-06-04T12:46:38Z</time>
      </trkpt>
      <trkpt lat="46.86655" lon="-2.08571">
        <ele>2.2</ele>
        <time>2020-06-04T12:46:39Z</time>
      </trkpt>
      <trkpt lat="46.86651" lon="-2.08564">
        <ele>2.2</ele>
        <time>2020-06-04T12:46:40Z</time>
      </trkpt>
      <trkpt lat="46.86648" lon="-2.08557">
        <ele>2.2</ele>
        <time>2020-06-04T12:46:41Z</time>
      </trkpt>
      <trkpt lat="46.86645" lon="-2.08549">
        <ele>2.2</ele>
        <time>2020-06-04T12:46:42Z</time>
      </trkpt>
      <trkpt lat="46.86642" lon="-2.08542">
        <ele>2.2</ele>
        <time>2020-06-04T12:46:43Z</time>
      </trkpt>
      <trkpt lat="46.86639" lon="-2.08535">
        <ele>2.2</ele>
        <time>2020-06-04T12:46:44Z</time>
      </trkpt>
      <trkpt lat="46.86636" lon="-2.08528">
        <ele>2.1</ele>
        <time>2020-06-04T12:46:45Z</time>
      </trkpt>
      <trkpt lat="46.86631" lon="-2.08521">
        <ele>2.1</ele>
        <time>2020-06-04T12:46:46Z</time>
      </trkpt>
      <trkpt lat="46.86628" lon="-2.08513">
        <ele>2.1</ele>
        <time>2020-06-04T12:46:47Z</time>
      </trkpt>
      <trkpt lat="46.86624" lon="-2.08506">
        <ele>2.1</ele>
        <time>2020-06-04T12:46:48Z</time>
      </trkpt>
      <trkpt lat="46.8662" lon="-2.08497">
        <ele>2.1</ele>
        <time>2020-06-04T12:46:49Z</time>
      </trkpt>
      <trkpt lat="46.86616" lon="-2.08489">
        <ele>2.1</ele>
        <time>2020-06-04T12:46:50Z</time>
      </trkpt>
      <trkpt lat="46.86613" lon="-2.0848">
        <ele>2.1</ele>
        <time>2020-06-04T12:46:51Z</time>
      </trkpt>
      <trkpt lat="46.86609" lon="-2.08472">
        <ele>2.1</ele>
        <time>2020-06-04T12:46:52Z</time>
      </trkpt>
      <trkpt lat="46.86606" lon="-2.08463">
        <ele>2.1</ele>
        <time>2020-06-04T12:46:53Z</time>
      </trkpt>
      <trkpt lat="46.86603" lon="-2.08454">
        <ele>2.1</ele>
        <time>2020-06-04T12:46:54Z</time>
      </trkpt>
      <trkpt lat="46.866" lon="-2.08445">
        <ele>2.1</ele>
        <time>2020-06-04T12:46:55Z</time>
      </trkpt>
      <trkpt lat="46.86597" lon="-2.08436">
        <ele>2.1</ele>
        <time>2020-06-04T12:46:56Z</time>
      </trkpt>
      <trkpt lat="46.86593" lon="-2.08428">
        <ele>2.1</ele>
        <time>2020-06-04T12:46:57Z</time>
      </trkpt>
      <trkpt lat="46.8659" lon="-2.0842">
        <ele>2.1</ele>
        <time>2020-06-04T12:46:58Z</time>
      </trkpt>
      <trkpt lat="46.86586" lon="-2.08412">
        <ele>2.1</ele>
        <time>2020-06-04T12:46:59Z</time>
      </trkpt>
      <trkpt lat="46.86583" lon="-2.08403">
        <ele>2.1</ele>
        <time>2020-06-04T12:47:00Z</time>
      </trkpt>
      <trkpt lat="46.86579" lon="-2.08395">
        <ele>2.1</ele>
        <time>2020-06-04T12:47:01Z</time>
      </trkpt>
      <trkpt lat="46.86577" lon="-2.08386">
        <ele>2.1</ele>
        <time>2020-06-04T12:47:02Z</time>
      </trkpt>
      <trkpt lat="46.86573" lon="-2.08377">
        <ele>2.1</ele>
        <time>2020-06-04T12:47:03Z</time>
      </trkpt>
      <trkpt lat="46.8657" lon="-2.08369">
        <ele>2.1</ele>
        <time>2020-06-04T12:47:04Z</time>
      </trkpt>
      <trkpt lat="46.86567" lon="-2.0836">
        <ele>2.1</ele>
        <time>2020-06-04T12:47:05Z</time>
      </trkpt>
      <trkpt lat="46.86564" lon="-2.08351">
        <ele>2.1</ele>
        <time>2020-06-04T12:47:06Z</time>
      </trkpt>
      <trkpt lat="46.86561" lon="-2.08343">
        <ele>2.1</ele>
        <time>2020-06-04T12:47:07Z</time>
      </trkpt>
      <trkpt lat="46.86558" lon="-2.08334">
        <ele>2.1</ele>
        <time>2020-06-04T12:47:08Z</time>
      </trkpt>
      <trkpt lat="46.86554" lon="-2.08326">
        <ele>2.1</ele>
        <time>2020-06-04T12:47:09Z</time>
      </trkpt>
      <trkpt lat="46.86551" lon="-2.08318">
        <ele>2.1</ele>
        <time>2020-06-04T12:47:10Z</time>
      </trkpt>
      <trkpt lat="46.86548" lon="-2.08309">
        <ele>2.1</ele>
        <time>2020-06-04T12:47:11Z</time>
      </trkpt>
      <trkpt lat="46.86545" lon="-2.083">
        <ele>2</ele>
        <time>2020-06-04T12:47:12Z</time>
      </trkpt>
      <trkpt lat="46.86542" lon="-2.08292">
        <ele>2</ele>
        <time>2020-06-04T12:47:13Z</time>
      </trkpt>
      <trkpt lat="46.86539" lon="-2.08284">
        <ele>2</ele>
        <time>2020-06-04T12:47:14Z</time>
      </trkpt>
      <trkpt lat="46.86536" lon="-2.08276">
        <ele>2</ele>
        <time>2020-06-04T12:47:15Z</time>
      </trkpt>
      <trkpt lat="46.86533" lon="-2.08268">
        <ele>2</ele>
        <time>2020-06-04T12:47:16Z</time>
      </trkpt>
      <trkpt lat="46.8653" lon="-2.0826">
        <ele>2</ele>
        <time>2020-06-04T12:47:17Z</time>
      </trkpt>
      <trkpt lat="46.86527" lon="-2.08253">
        <ele>2</ele>
        <time>2020-06-04T12:47:18Z</time>
      </trkpt>
      <trkpt lat="46.86524" lon="-2.08245">
        <ele>2</ele>
        <time>2020-06-04T12:47:19Z</time>
      </trkpt>
      <trkpt lat="46.86521" lon="-2.08238">
        <ele>2</ele>
        <time>2020-06-04T12:47:20Z</time>
      </trkpt>
      <trkpt lat="46.86519" lon="-2.08231">
        <ele>2</ele>
        <time>2020-06-04T12:47:21Z</time>
      </trkpt>
      <trkpt lat="46.86516" lon="-2.08223">
        <ele>2</ele>
        <time>2020-06-04T12:47:22Z</time>
      </trkpt>
      <trkpt lat="46.86514" lon="-2.08216">
        <ele>2</ele>
        <time>2020-06-04T12:47:23Z</time>
      </trkpt>
      <trkpt lat="46.8651" lon="-2.08209">
        <ele>2</ele>
        <time>2020-06-04T12:47:24Z</time>
      </trkpt>
      <trkpt lat="46.86508" lon="-2.08201">
        <ele>2</ele>
        <time>2020-06-04T12:47:25Z</time>
      </trkpt>
      <trkpt lat="46.86505" lon="-2.08193">
        <ele>2</ele>
        <time>2020-06-04T12:47:26Z</time>
      </trkpt>
      <trkpt lat="46.86502" lon="-2.08184">
        <ele>2</ele>
        <time>2020-06-04T12:47:27Z</time>
      </trkpt>
      <trkpt lat="46.865" lon="-2.08176">
        <ele>2</ele>
        <time>2020-06-04T12:47:28Z</time>
      </trkpt>
      <trkpt lat="46.86496" lon="-2.08168">
        <ele>2</ele>
        <time>2020-06-04T12:47:29Z</time>
      </trkpt>
      <trkpt lat="46.86493" lon="-2.0816">
        <ele>2</ele>
        <time>2020-06-04T12:47:30Z</time>
      </trkpt>
      <trkpt lat="46.86489" lon="-2.08153">
        <ele>2</ele>
        <time>2020-06-04T12:47:31Z</time>
      </trkpt>
      <trkpt lat="46.86485" lon="-2.08146">
        <ele>2</ele>
        <time>2020-06-04T12:47:32Z</time>
      </trkpt>
      <trkpt lat="46.86481" lon="-2.0814">
        <ele>2</ele>
        <time>2020-06-04T12:47:33Z</time>
      </trkpt>
      <trkpt lat="46.86477" lon="-2.08133">
        <ele>2</ele>
        <time>2020-06-04T12:47:34Z</time>
      </trkpt>
      <trkpt lat="46.86473" lon="-2.08126">
        <ele>1.9</ele>
        <time>2020-06-04T12:47:35Z</time>
      </trkpt>
      <trkpt lat="46.86468" lon="-2.08119">
        <ele>1.9</ele>
        <time>2020-06-04T12:47:36Z</time>
      </trkpt>
      <trkpt lat="46.86464" lon="-2.08112">
        <ele>1.9</ele>
        <time>2020-06-04T12:47:37Z</time>
      </trkpt>
      <trkpt lat="46.86459" lon="-2.08105">
        <ele>1.9</ele>
        <time>2020-06-04T12:47:38Z</time>
      </trkpt>
      <trkpt lat="46.86454" lon="-2.08098">
        <ele>1.9</ele>
        <time>2020-06-04T12:47:39Z</time>
      </trkpt>
      <trkpt lat="46.86449" lon="-2.08092">
        <ele>1.9</ele>
        <time>2020-06-04T12:47:40Z</time>
      </trkpt>
      <trkpt lat="46.86445" lon="-2.08085">
        <ele>1.9</ele>
        <time>2020-06-04T12:47:41Z</time>
      </trkpt>
      <trkpt lat="46.8644" lon="-2.08077">
        <ele>1.9</ele>
        <time>2020-06-04T12:47:42Z</time>
      </trkpt>
      <trkpt lat="46.86435" lon="-2.0807">
        <ele>1.8</ele>
        <time>2020-06-04T12:47:43Z</time>
      </trkpt>
      <trkpt lat="46.86431" lon="-2.08062">
        <ele>1.8</ele>
        <time>2020-06-04T12:47:44Z</time>
      </trkpt>
      <trkpt lat="46.86426" lon="-2.08054">
        <ele>1.8</ele>
        <time>2020-06-04T12:47:45Z</time>
      </trkpt>
      <trkpt lat="46.86421" lon="-2.08047">
        <ele>1.8</ele>
        <time>2020-06-04T12:47:46Z</time>
      </trkpt>
      <trkpt lat="46.86418" lon="-2.08039">
        <ele>1.8</ele>
        <time>2020-06-04T12:47:47Z</time>
      </trkpt>
      <trkpt lat="46.86414" lon="-2.0803">
        <ele>1.8</ele>
        <time>2020-06-04T12:47:48Z</time>
      </trkpt>
      <trkpt lat="46.86411" lon="-2.08022">
        <ele>1.8</ele>
        <time>2020-06-04T12:47:49Z</time>
      </trkpt>
      <trkpt lat="46.86407" lon="-2.08014">
        <ele>1.8</ele>
        <time>2020-06-04T12:47:50Z</time>
      </trkpt>
      <trkpt lat="46.86404" lon="-2.08005">
        <ele>1.7</ele>
        <time>2020-06-04T12:47:51Z</time>
      </trkpt>
      <trkpt lat="46.86401" lon="-2.07997">
        <ele>1.7</ele>
        <time>2020-06-04T12:47:52Z</time>
      </trkpt>
      <trkpt lat="46.86397" lon="-2.07989">
        <ele>1.7</ele>
        <time>2020-06-04T12:47:53Z</time>
      </trkpt>
      <trkpt lat="46.86393" lon="-2.07981">
        <ele>1.7</ele>
        <time>2020-06-04T12:47:54Z</time>
      </trkpt>
      <trkpt lat="46.8639" lon="-2.07972">
        <ele>1.7</ele>
        <time>2020-06-04T12:47:55Z</time>
      </trkpt>
      <trkpt lat="46.86386" lon="-2.07964">
        <ele>1.7</ele>
        <time>2020-06-04T12:47:56Z</time>
      </trkpt>
      <trkpt lat="46.86383" lon="-2.07956">
        <ele>1.7</ele>
        <time>2020-06-04T12:47:57Z</time>
      </trkpt>
      <trkpt lat="46.8638" lon="-2.07948">
        <ele>1.6</ele>
        <time>2020-06-04T12:47:58Z</time>
      </trkpt>
      <trkpt lat="46.86376" lon="-2.0794">
        <ele>1.6</ele>
        <time>2020-06-04T12:47:59Z</time>
      </trkpt>
      <trkpt lat="46.86372" lon="-2.07932">
        <ele>1.6</ele>
        <time>2020-06-04T12:48:00Z</time>
      </trkpt>
      <trkpt lat="46.86369" lon="-2.07924">
        <ele>1.6</ele>
        <time>2020-06-04T12:48:01Z</time>
      </trkpt>
      <trkpt lat="46.86365" lon="-2.07916">
        <ele>1.5</ele>
        <time>2020-06-04T12:48:02Z</time>
      </trkpt>
      <trkpt lat="46.86362" lon="-2.07908">
        <ele>1.5</ele>
        <time>2020-06-04T12:48:03Z</time>
      </trkpt>
      <trkpt lat="46.86358" lon="-2.07901">
        <ele>1.5</ele>
        <time>2020-06-04T12:48:04Z</time>
      </trkpt>
      <trkpt lat="46.86354" lon="-2.07894">
        <ele>1.5</ele>
        <time>2020-06-04T12:48:05Z</time>
      </trkpt>
      <trkpt lat="46.86349" lon="-2.07888">
        <ele>1.5</ele>
        <time>2020-06-04T12:48:06Z</time>
      </trkpt>
      <trkpt lat="46.86344" lon="-2.07882">
        <ele>1.4</ele>
        <time>2020-06-04T12:48:07Z</time>
      </trkpt>
      <trkpt lat="46.86339" lon="-2.07877">
        <ele>1.4</ele>
        <time>2020-06-04T12:48:08Z</time>
      </trkpt>
      <trkpt lat="46.86333" lon="-2.07872">
        <ele>1.4</ele>
        <time>2020-06-04T12:48:09Z</time>
      </trkpt>
      <trkpt lat="46.86328" lon="-2.07868">
        <ele>1.4</ele>
        <time>2020-06-04T12:48:10Z</time>
      </trkpt>
      <trkpt lat="46.86322" lon="-2.07865">
        <ele>1.4</ele>
        <time>2020-06-04T12:48:11Z</time>
      </trkpt>
      <trkpt lat="46.86317" lon="-2.07861">
        <ele>1.4</ele>
        <time>2020-06-04T12:48:12Z</time>
      </trkpt>
      <trkpt lat="46.86311" lon="-2.07858">
        <ele>1.4</ele>
        <time>2020-06-04T12:48:13Z</time>
      </trkpt>
      <trkpt lat="46.86306" lon="-2.07854">
        <ele>1.4</ele>
        <time>2020-06-04T12:48:14Z</time>
      </trkpt>
      <trkpt lat="46.863" lon="-2.0785">
        <ele>1.3</ele>
        <time>2020-06-04T12:48:15Z</time>
      </trkpt>
      <trkpt lat="46.86294" lon="-2.07847">
        <ele>1.3</ele>
        <time>2020-06-04T12:48:16Z</time>
      </trkpt>
      <trkpt lat="46.86288" lon="-2.07843">
        <ele>1.3</ele>
        <time>2020-06-04T12:48:17Z</time>
      </trkpt>
      <trkpt lat="46.86283" lon="-2.07838">
        <ele>1.3</ele>
        <time>2020-06-04T12:48:18Z</time>
      </trkpt>
      <trkpt lat="46.86278" lon="-2.07833">
        <ele>1.3</ele>
        <time>2020-06-04T12:48:19Z</time>
      </trkpt>
      <trkpt lat="46.86274" lon="-2.07827">
        <ele>1.3</ele>
        <time>2020-06-04T12:48:20Z</time>
      </trkpt>
      <trkpt lat="46.86269" lon="-2.07821">
        <ele>1.3</ele>
        <time>2020-06-04T12:48:21Z</time>
      </trkpt>
      <trkpt lat="46.86265" lon="-2.07815">
        <ele>1.3</ele>
        <time>2020-06-04T12:48:22Z</time>
      </trkpt>
      <trkpt lat="46.86261" lon="-2.07809">
        <ele>1.3</ele>
        <time>2020-06-04T12:48:23Z</time>
      </trkpt>
      <trkpt lat="46.86258" lon="-2.07802">
        <ele>1.2</ele>
        <time>2020-06-04T12:48:24Z</time>
      </trkpt>
      <trkpt lat="46.86257" lon="-2.07797">
        <ele>1.2</ele>
        <time>2020-06-04T12:48:25Z</time>
      </trkpt>
      <trkpt lat="46.86256" lon="-2.07792">
        <ele>1.2</ele>
        <time>2020-06-04T12:48:26Z</time>
      </trkpt>
      <trkpt lat="46.86256" lon="-2.07791">
        <ele>1.2</ele>
        <time>2020-06-04T12:48:27Z</time>
      </trkpt>
      <trkpt lat="46.86255" lon="-2.07789">
        <ele>1.2</ele>
        <time>2020-06-04T12:48:28Z</time>
      </trkpt>
      <trkpt lat="46.86255" lon="-2.07787">
        <ele>1.2</ele>
        <time>2020-06-04T12:48:29Z</time>
      </trkpt>
      <trkpt lat="46.86254" lon="-2.07784">
        <ele>1.2</ele>
        <time>2020-06-04T12:48:30Z</time>
      </trkpt>
      <trkpt lat="46.86254" lon="-2.07782">
        <ele>1.2</ele>
        <time>2020-06-04T12:48:31Z</time>
      </trkpt>
      <trkpt lat="46.86254" lon="-2.0778">
        <ele>1.2</ele>
        <time>2020-06-04T12:48:32Z</time>
      </trkpt>
      <trkpt lat="46.86253" lon="-2.07777">
        <ele>1.2</ele>
        <time>2020-06-04T12:48:33Z</time>
      </trkpt>
      <trkpt lat="46.86252" lon="-2.07775">
        <ele>1.2</ele>
        <time>2020-06-04T12:48:34Z</time>
      </trkpt>
      <trkpt lat="46.86252" lon="-2.07772">
        <ele>1.2</ele>
        <time>2020-06-04T12:48:35Z</time>
      </trkpt>
      <trkpt lat="46.86251" lon="-2.07768">
        <ele>1.2</ele>
        <time>2020-06-04T12:48:36Z</time>
      </trkpt>
      <trkpt lat="46.86251" lon="-2.07766">
        <ele>1.2</ele>
        <time>2020-06-04T12:48:37Z</time>
      </trkpt>
      <trkpt lat="46.86249" lon="-2.07761">
        <ele>1.2</ele>
        <time>2020-06-04T12:48:38Z</time>
      </trkpt>
      <trkpt lat="46.86248" lon="-2.07759">
        <ele>1.2</ele>
        <time>2020-06-04T12:48:39Z</time>
      </trkpt>
      <trkpt lat="46.86245" lon="-2.07756">
        <ele>1.2</ele>
        <time>2020-06-04T12:48:40Z</time>
      </trkpt>
      <trkpt lat="46.86244" lon="-2.0775">
        <ele>1.2</ele>
        <time>2020-06-04T12:48:41Z</time>
      </trkpt>
      <trkpt lat="46.86243" lon="-2.07745">
        <ele>1.2</ele>
        <time>2020-06-04T12:48:42Z</time>
      </trkpt>
      <trkpt lat="46.86242" lon="-2.07741">
        <ele>1.2</ele>
        <time>2020-06-04T12:48:43Z</time>
      </trkpt>
      <trkpt lat="46.8624" lon="-2.07738">
        <ele>1.2</ele>
        <time>2020-06-04T12:48:44Z</time>
      </trkpt>
      <trkpt lat="46.86239" lon="-2.07734">
        <ele>1.2</ele>
        <time>2020-06-04T12:48:45Z</time>
      </trkpt>
      <trkpt lat="46.86238" lon="-2.0773">
        <ele>1.2</ele>
        <time>2020-06-04T12:48:46Z</time>
      </trkpt>
      <trkpt lat="46.86237" lon="-2.07725">
        <ele>1.2</ele>
        <time>2020-06-04T12:48:47Z</time>
      </trkpt>
      <trkpt lat="46.86236" lon="-2.07721">
        <ele>1.2</ele>
        <time>2020-06-04T12:48:48Z</time>
      </trkpt>
      <trkpt lat="46.86234" lon="-2.07716">
        <ele>1.2</ele>
        <time>2020-06-04T12:48:49Z</time>
      </trkpt>
      <trkpt lat="46.86232" lon="-2.07711">
        <ele>1.2</ele>
        <time>2020-06-04T12:48:50Z</time>
      </trkpt>
      <trkpt lat="46.86229" lon="-2.07704">
        <ele>1.2</ele>
        <time>2020-06-04T12:48:51Z</time>
      </trkpt>
      <trkpt lat="46.86227" lon="-2.07698">
        <ele>1.2</ele>
        <time>2020-06-04T12:48:52Z</time>
      </trkpt>
      <trkpt lat="46.86224" lon="-2.07691">
        <ele>1.2</ele>
        <time>2020-06-04T12:48:53Z</time>
      </trkpt>
      <trkpt lat="46.86221" lon="-2.07684">
        <ele>1.2</ele>
        <time>2020-06-04T12:48:54Z</time>
      </trkpt>
      <trkpt lat="46.86218" lon="-2.07678">
        <ele>1.3</ele>
        <time>2020-06-04T12:48:55Z</time>
      </trkpt>
      <trkpt lat="46.86214" lon="-2.07672">
        <ele>1.3</ele>
        <time>2020-06-04T12:48:56Z</time>
      </trkpt>
      <trkpt lat="46.86211" lon="-2.07665">
        <ele>1.3</ele>
        <time>2020-06-04T12:48:57Z</time>
      </trkpt>
      <trkpt lat="46.86208" lon="-2.07658">
        <ele>1.3</ele>
        <time>2020-06-04T12:48:58Z</time>
      </trkpt>
      <trkpt lat="46.86205" lon="-2.07651">
        <ele>1.3</ele>
        <time>2020-06-04T12:48:59Z</time>
      </trkpt>
      <trkpt lat="46.86202" lon="-2.07643">
        <ele>1.3</ele>
        <time>2020-06-04T12:49:00Z</time>
      </trkpt>
      <trkpt lat="46.862" lon="-2.07634">
        <ele>1.3</ele>
        <time>2020-06-04T12:49:01Z</time>
      </trkpt>
      <trkpt lat="46.86197" lon="-2.07626">
        <ele>1.3</ele>
        <time>2020-06-04T12:49:02Z</time>
      </trkpt>
      <trkpt lat="46.86193" lon="-2.07618">
        <ele>1.3</ele>
        <time>2020-06-04T12:49:03Z</time>
      </trkpt>
      <trkpt lat="46.86191" lon="-2.0761">
        <ele>1.4</ele>
        <time>2020-06-04T12:49:04Z</time>
      </trkpt>
      <trkpt lat="46.86187" lon="-2.07602">
        <ele>1.4</ele>
        <time>2020-06-04T12:49:05Z</time>
      </trkpt>
      <trkpt lat="46.86184" lon="-2.07594">
        <ele>1.4</ele>
        <time>2020-06-04T12:49:06Z</time>
      </trkpt>
      <trkpt lat="46.8618" lon="-2.07587">
        <ele>1.4</ele>
        <time>2020-06-04T12:49:07Z</time>
      </trkpt>
      <trkpt lat="46.86177" lon="-2.07579">
        <ele>1.4</ele>
        <time>2020-06-04T12:49:08Z</time>
      </trkpt>
      <trkpt lat="46.86173" lon="-2.07571">
        <ele>1.4</ele>
        <time>2020-06-04T12:49:09Z</time>
      </trkpt>
      <trkpt lat="46.8617" lon="-2.07564">
        <ele>1.4</ele>
        <time>2020-06-04T12:49:10Z</time>
      </trkpt>
      <trkpt lat="46.86167" lon="-2.07556">
        <ele>1.4</ele>
        <time>2020-06-04T12:49:11Z</time>
      </trkpt>
      <trkpt lat="46.86164" lon="-2.07549">
        <ele>1.3</ele>
        <time>2020-06-04T12:49:12Z</time>
      </trkpt>
      <trkpt lat="46.8616" lon="-2.07542">
        <ele>1.3</ele>
        <time>2020-06-04T12:49:13Z</time>
      </trkpt>
      <trkpt lat="46.86157" lon="-2.07535">
        <ele>1.3</ele>
        <time>2020-06-04T12:49:14Z</time>
      </trkpt>
      <trkpt lat="46.86154" lon="-2.07528">
        <ele>1.3</ele>
        <time>2020-06-04T12:49:15Z</time>
      </trkpt>
      <trkpt lat="46.8615" lon="-2.07522">
        <ele>1.3</ele>
        <time>2020-06-04T12:49:16Z</time>
      </trkpt>
      <trkpt lat="46.86147" lon="-2.07515">
        <ele>1.3</ele>
        <time>2020-06-04T12:49:17Z</time>
      </trkpt>
      <trkpt lat="46.86145" lon="-2.07508">
        <ele>1.3</ele>
        <time>2020-06-04T12:49:18Z</time>
      </trkpt>
      <trkpt lat="46.86142" lon="-2.07501">
        <ele>1.3</ele>
        <time>2020-06-04T12:49:19Z</time>
      </trkpt>
      <trkpt lat="46.8614" lon="-2.07494">
        <ele>1.3</ele>
        <time>2020-06-04T12:49:20Z</time>
      </trkpt>
      <trkpt lat="46.86138" lon="-2.07487">
        <ele>1.3</ele>
        <time>2020-06-04T12:49:21Z</time>
      </trkpt>
      <trkpt lat="46.86135" lon="-2.0748">
        <ele>1.3</ele>
        <time>2020-06-04T12:49:22Z</time>
      </trkpt>
      <trkpt lat="46.86134" lon="-2.07472">
        <ele>1.3</ele>
        <time>2020-06-04T12:49:23Z</time>
      </trkpt>
      <trkpt lat="46.86132" lon="-2.07464">
        <ele>1.4</ele>
        <time>2020-06-04T12:49:24Z</time>
      </trkpt>
      <trkpt lat="46.86132" lon="-2.07455">
        <ele>1.4</ele>
        <time>2020-06-04T12:49:25Z</time>
      </trkpt>
      <trkpt lat="46.86133" lon="-2.07445">
        <ele>1.5</ele>
        <time>2020-06-04T12:49:26Z</time>
      </trkpt>
      <trkpt lat="46.86134" lon="-2.07435">
        <ele>1.5</ele>
        <time>2020-06-04T12:49:27Z</time>
      </trkpt>
      <trkpt lat="46.86135" lon="-2.07426">
        <ele>1.5</ele>
        <time>2020-06-04T12:49:28Z</time>
      </trkpt>
      <trkpt lat="46.86137" lon="-2.07417">
        <ele>1.5</ele>
        <time>2020-06-04T12:49:29Z</time>
      </trkpt>
      <trkpt lat="46.86137" lon="-2.07408">
        <ele>1.5</ele>
        <time>2020-06-04T12:49:30Z</time>
      </trkpt>
      <trkpt lat="46.86138" lon="-2.07399">
        <ele>1.5</ele>
        <time>2020-06-04T12:49:31Z</time>
      </trkpt>
      <trkpt lat="46.8614" lon="-2.0739">
        <ele>1.5</ele>
        <time>2020-06-04T12:49:32Z</time>
      </trkpt>
      <trkpt lat="46.86141" lon="-2.07382">
        <ele>1.5</ele>
        <time>2020-06-04T12:49:33Z</time>
      </trkpt>
      <trkpt lat="46.86142" lon="-2.07374">
        <ele>1.4</ele>
        <time>2020-06-04T12:49:34Z</time>
      </trkpt>
      <trkpt lat="46.86143" lon="-2.07366">
        <ele>1.4</ele>
        <time>2020-06-04T12:49:35Z</time>
      </trkpt>
      <trkpt lat="46.86143" lon="-2.07357">
        <ele>1.4</ele>
        <time>2020-06-04T12:49:36Z</time>
      </trkpt>
      <trkpt lat="46.86146" lon="-2.0735">
        <ele>1.4</ele>
        <time>2020-06-04T12:49:37Z</time>
      </trkpt>
      <trkpt lat="46.86148" lon="-2.07341">
        <ele>1.4</ele>
        <time>2020-06-04T12:49:38Z</time>
      </trkpt>
      <trkpt lat="46.8615" lon="-2.07332">
        <ele>1.4</ele>
        <time>2020-06-04T12:49:39Z</time>
      </trkpt>
      <trkpt lat="46.86151" lon="-2.07323">
        <ele>1.4</ele>
        <time>2020-06-04T12:49:40Z</time>
      </trkpt>
      <trkpt lat="46.86152" lon="-2.07314">
        <ele>1.4</ele>
        <time>2020-06-04T12:49:41Z</time>
      </trkpt>
      <trkpt lat="46.86154" lon="-2.07305">
        <ele>1.4</ele>
        <time>2020-06-04T12:49:42Z</time>
      </trkpt>
      <trkpt lat="46.86156" lon="-2.07296">
        <ele>1.4</ele>
        <time>2020-06-04T12:49:43Z</time>
      </trkpt>
      <trkpt lat="46.86158" lon="-2.07288">
        <ele>1.4</ele>
        <time>2020-06-04T12:49:44Z</time>
      </trkpt>
      <trkpt lat="46.8616" lon="-2.0728">
        <ele>1.4</ele>
        <time>2020-06-04T12:49:45Z</time>
      </trkpt>
      <trkpt lat="46.86163" lon="-2.07273">
        <ele>1.5</ele>
        <time>2020-06-04T12:49:46Z</time>
      </trkpt>
      <trkpt lat="46.86166" lon="-2.07264">
        <ele>1.5</ele>
        <time>2020-06-04T12:49:47Z</time>
      </trkpt>
      <trkpt lat="46.86168" lon="-2.07256">
        <ele>1.5</ele>
        <time>2020-06-04T12:49:48Z</time>
      </trkpt>
      <trkpt lat="46.8617" lon="-2.07247">
        <ele>1.5</ele>
        <time>2020-06-04T12:49:49Z</time>
      </trkpt>
      <trkpt lat="46.86173" lon="-2.0724">
        <ele>1.5</ele>
        <time>2020-06-04T12:49:50Z</time>
      </trkpt>
      <trkpt lat="46.86177" lon="-2.07233">
        <ele>1.5</ele>
        <time>2020-06-04T12:49:51Z</time>
      </trkpt>
      <trkpt lat="46.86181" lon="-2.07227">
        <ele>1.5</ele>
        <time>2020-06-04T12:49:52Z</time>
      </trkpt>
      <trkpt lat="46.86182" lon="-2.07218">
        <ele>1.5</ele>
        <time>2020-06-04T12:49:53Z</time>
      </trkpt>
      <trkpt lat="46.86186" lon="-2.07212">
        <ele>1.5</ele>
        <time>2020-06-04T12:49:54Z</time>
      </trkpt>
      <trkpt lat="46.86189" lon="-2.07205">
        <ele>1.5</ele>
        <time>2020-06-04T12:49:55Z</time>
      </trkpt>
      <trkpt lat="46.86193" lon="-2.07198">
        <ele>1.5</ele>
        <time>2020-06-04T12:49:56Z</time>
      </trkpt>
      <trkpt lat="46.86195" lon="-2.07191">
        <ele>1.5</ele>
        <time>2020-06-04T12:49:57Z</time>
      </trkpt>
      <trkpt lat="46.86198" lon="-2.07184">
        <ele>1.5</ele>
        <time>2020-06-04T12:49:58Z</time>
      </trkpt>
      <trkpt lat="46.862" lon="-2.07177">
        <ele>1.5</ele>
        <time>2020-06-04T12:49:59Z</time>
      </trkpt>
      <trkpt lat="46.86201" lon="-2.07169">
        <ele>1.5</ele>
        <time>2020-06-04T12:50:00Z</time>
      </trkpt>
      <trkpt lat="46.86204" lon="-2.07161">
        <ele>1.5</ele>
        <time>2020-06-04T12:50:01Z</time>
      </trkpt>
      <trkpt lat="46.86205" lon="-2.07153">
        <ele>1.5</ele>
        <time>2020-06-04T12:50:02Z</time>
      </trkpt>
      <trkpt lat="46.86207" lon="-2.07145">
        <ele>1.5</ele>
        <time>2020-06-04T12:50:03Z</time>
      </trkpt>
      <trkpt lat="46.86209" lon="-2.07137">
        <ele>1.5</ele>
        <time>2020-06-04T12:50:04Z</time>
      </trkpt>
      <trkpt lat="46.86211" lon="-2.0713">
        <ele>1.5</ele>
        <time>2020-06-04T12:50:05Z</time>
      </trkpt>
      <trkpt lat="46.86213" lon="-2.07123">
        <ele>1.5</ele>
        <time>2020-06-04T12:50:06Z</time>
      </trkpt>
      <trkpt lat="46.86215" lon="-2.07116">
        <ele>1.5</ele>
        <time>2020-06-04T12:50:07Z</time>
      </trkpt>
      <trkpt lat="46.86218" lon="-2.07109">
        <ele>1.5</ele>
        <time>2020-06-04T12:50:08Z</time>
      </trkpt>
      <trkpt lat="46.8622" lon="-2.071">
        <ele>1.5</ele>
        <time>2020-06-04T12:50:09Z</time>
      </trkpt>
      <trkpt lat="46.86222" lon="-2.07093">
        <ele>1.5</ele>
        <time>2020-06-04T12:50:10Z</time>
      </trkpt>
      <trkpt lat="46.86223" lon="-2.07086">
        <ele>1.5</ele>
        <time>2020-06-04T12:50:11Z</time>
      </trkpt>
      <trkpt lat="46.86223" lon="-2.07077">
        <ele>1.5</ele>
        <time>2020-06-04T12:50:12Z</time>
      </trkpt>
      <trkpt lat="46.86225" lon="-2.0707">
        <ele>1.5</ele>
        <time>2020-06-04T12:50:13Z</time>
      </trkpt>
      <trkpt lat="46.86226" lon="-2.07062">
        <ele>1.5</ele>
        <time>2020-06-04T12:50:14Z</time>
      </trkpt>
      <trkpt lat="46.86227" lon="-2.07054">
        <ele>1.5</ele>
        <time>2020-06-04T12:50:15Z</time>
      </trkpt>
      <trkpt lat="46.86228" lon="-2.07045">
        <ele>1.5</ele>
        <time>2020-06-04T12:50:16Z</time>
      </trkpt>
      <trkpt lat="46.8623" lon="-2.07037">
        <ele>1.5</ele>
        <time>2020-06-04T12:50:17Z</time>
      </trkpt>
      <trkpt lat="46.86233" lon="-2.07029">
        <ele>1.5</ele>
        <time>2020-06-04T12:50:18Z</time>
      </trkpt>
      <trkpt lat="46.86236" lon="-2.07022">
        <ele>1.5</ele>
        <time>2020-06-04T12:50:19Z</time>
      </trkpt>
      <trkpt lat="46.86239" lon="-2.07014">
        <ele>1.5</ele>
        <time>2020-06-04T12:50:20Z</time>
      </trkpt>
      <trkpt lat="46.86243" lon="-2.07008">
        <ele>1.5</ele>
        <time>2020-06-04T12:50:21Z</time>
      </trkpt>
      <trkpt lat="46.86246" lon="-2.07001">
        <ele>1.5</ele>
        <time>2020-06-04T12:50:22Z</time>
      </trkpt>
      <trkpt lat="46.8625" lon="-2.06993">
        <ele>1.5</ele>
        <time>2020-06-04T12:50:23Z</time>
      </trkpt>
      <trkpt lat="46.86254" lon="-2.06987">
        <ele>1.4</ele>
        <time>2020-06-04T12:50:24Z</time>
      </trkpt>
      <trkpt lat="46.86257" lon="-2.0698">
        <ele>1.4</ele>
        <time>2020-06-04T12:50:25Z</time>
      </trkpt>
      <trkpt lat="46.8626" lon="-2.06972">
        <ele>1.4</ele>
        <time>2020-06-04T12:50:26Z</time>
      </trkpt>
      <trkpt lat="46.86263" lon="-2.06966">
        <ele>1.4</ele>
        <time>2020-06-04T12:50:27Z</time>
      </trkpt>
      <trkpt lat="46.86266" lon="-2.06959">
        <ele>1.4</ele>
        <time>2020-06-04T12:50:28Z</time>
      </trkpt>
      <trkpt lat="46.86269" lon="-2.06952">
        <ele>1.4</ele>
        <time>2020-06-04T12:50:29Z</time>
      </trkpt>
      <trkpt lat="46.86271" lon="-2.06945">
        <ele>1.4</ele>
        <time>2020-06-04T12:50:30Z</time>
      </trkpt>
      <trkpt lat="46.86274" lon="-2.06938">
        <ele>1.4</ele>
        <time>2020-06-04T12:50:31Z</time>
      </trkpt>
      <trkpt lat="46.86277" lon="-2.06931">
        <ele>1.4</ele>
        <time>2020-06-04T12:50:32Z</time>
      </trkpt>
      <trkpt lat="46.8628" lon="-2.06924">
        <ele>1.4</ele>
        <time>2020-06-04T12:50:33Z</time>
      </trkpt>
      <trkpt lat="46.86283" lon="-2.06917">
        <ele>1.4</ele>
        <time>2020-06-04T12:50:34Z</time>
      </trkpt>
      <trkpt lat="46.86285" lon="-2.06909">
        <ele>1.4</ele>
        <time>2020-06-04T12:50:35Z</time>
      </trkpt>
      <trkpt lat="46.86288" lon="-2.06903">
        <ele>1.3</ele>
        <time>2020-06-04T12:50:36Z</time>
      </trkpt>
      <trkpt lat="46.8629" lon="-2.06896">
        <ele>1.3</ele>
        <time>2020-06-04T12:50:37Z</time>
      </trkpt>
      <trkpt lat="46.86292" lon="-2.0689">
        <ele>1.3</ele>
        <time>2020-06-04T12:50:38Z</time>
      </trkpt>
      <trkpt lat="46.86295" lon="-2.06883">
        <ele>1.3</ele>
        <time>2020-06-04T12:50:39Z</time>
      </trkpt>
      <trkpt lat="46.86297" lon="-2.06876">
        <ele>1.3</ele>
        <time>2020-06-04T12:50:40Z</time>
      </trkpt>
      <trkpt lat="46.86299" lon="-2.0687">
        <ele>1.3</ele>
        <time>2020-06-04T12:50:41Z</time>
      </trkpt>
      <trkpt lat="46.86303" lon="-2.06864">
        <ele>1.3</ele>
        <time>2020-06-04T12:50:42Z</time>
      </trkpt>
      <trkpt lat="46.86305" lon="-2.06858">
        <ele>1.3</ele>
        <time>2020-06-04T12:50:43Z</time>
      </trkpt>
      <trkpt lat="46.86307" lon="-2.06852">
        <ele>1.2</ele>
        <time>2020-06-04T12:50:44Z</time>
      </trkpt>
      <trkpt lat="46.86308" lon="-2.06844">
        <ele>1.2</ele>
        <time>2020-06-04T12:50:45Z</time>
      </trkpt>
      <trkpt lat="46.86308" lon="-2.06835">
        <ele>1.2</ele>
        <time>2020-06-04T12:50:46Z</time>
      </trkpt>
      <trkpt lat="46.86308" lon="-2.06827">
        <ele>1.2</ele>
        <time>2020-06-04T12:50:47Z</time>
      </trkpt>
      <trkpt lat="46.86308" lon="-2.06819">
        <ele>1.2</ele>
        <time>2020-06-04T12:50:48Z</time>
      </trkpt>
      <trkpt lat="46.86308" lon="-2.06811">
        <ele>1.2</ele>
        <time>2020-06-04T12:50:49Z</time>
      </trkpt>
      <trkpt lat="46.86309" lon="-2.06803">
        <ele>1.2</ele>
        <time>2020-06-04T12:50:50Z</time>
      </trkpt>
      <trkpt lat="46.8631" lon="-2.06795">
        <ele>1.2</ele>
        <time>2020-06-04T12:50:51Z</time>
      </trkpt>
      <trkpt lat="46.8631" lon="-2.06787">
        <ele>1.2</ele>
        <time>2020-06-04T12:50:52Z</time>
      </trkpt>
      <trkpt lat="46.8631" lon="-2.06779">
        <ele>1.2</ele>
        <time>2020-06-04T12:50:53Z</time>
      </trkpt>
      <trkpt lat="46.8631" lon="-2.06771">
        <ele>1.2</ele>
        <time>2020-06-04T12:50:54Z</time>
      </trkpt>
      <trkpt lat="46.8631" lon="-2.06763">
        <ele>1.2</ele>
        <time>2020-06-04T12:50:55Z</time>
      </trkpt>
      <trkpt lat="46.86311" lon="-2.06754">
        <ele>1.2</ele>
        <time>2020-06-04T12:50:56Z</time>
      </trkpt>
      <trkpt lat="46.86311" lon="-2.06746">
        <ele>1.2</ele>
        <time>2020-06-04T12:50:57Z</time>
      </trkpt>
      <trkpt lat="46.86312" lon="-2.06738">
        <ele>1.2</ele>
        <time>2020-06-04T12:50:58Z</time>
      </trkpt>
      <trkpt lat="46.86314" lon="-2.0673">
        <ele>1.2</ele>
        <time>2020-06-04T12:50:59Z</time>
      </trkpt>
      <trkpt lat="46.86315" lon="-2.06722">
        <ele>1.2</ele>
        <time>2020-06-04T12:51:00Z</time>
      </trkpt>
      <trkpt lat="46.86317" lon="-2.06714">
        <ele>1.2</ele>
        <time>2020-06-04T12:51:01Z</time>
      </trkpt>
      <trkpt lat="46.86318" lon="-2.06707">
        <ele>1.2</ele>
        <time>2020-06-04T12:51:02Z</time>
      </trkpt>
      <trkpt lat="46.8632" lon="-2.06699">
        <ele>1.2</ele>
        <time>2020-06-04T12:51:03Z</time>
      </trkpt>
      <trkpt lat="46.86322" lon="-2.06691">
        <ele>1.1</ele>
        <time>2020-06-04T12:51:04Z</time>
      </trkpt>
      <trkpt lat="46.86324" lon="-2.06684">
        <ele>1.1</ele>
        <time>2020-06-04T12:51:05Z</time>
      </trkpt>
      <trkpt lat="46.86327" lon="-2.06677">
        <ele>1.1</ele>
        <time>2020-06-04T12:51:06Z</time>
      </trkpt>
      <trkpt lat="46.86329" lon="-2.0667">
        <ele>1.2</ele>
        <time>2020-06-04T12:51:07Z</time>
      </trkpt>
      <trkpt lat="46.86333" lon="-2.06663">
        <ele>1.2</ele>
        <time>2020-06-04T12:51:08Z</time>
      </trkpt>
      <trkpt lat="46.86336" lon="-2.06656">
        <ele>1.2</ele>
        <time>2020-06-04T12:51:09Z</time>
      </trkpt>
      <trkpt lat="46.86338" lon="-2.06648">
        <ele>1.2</ele>
        <time>2020-06-04T12:51:10Z</time>
      </trkpt>
      <trkpt lat="46.86341" lon="-2.06641">
        <ele>1.2</ele>
        <time>2020-06-04T12:51:11Z</time>
      </trkpt>
      <trkpt lat="46.86345" lon="-2.06634">
        <ele>1.2</ele>
        <time>2020-06-04T12:51:12Z</time>
      </trkpt>
      <trkpt lat="46.86348" lon="-2.06627">
        <ele>1.2</ele>
        <time>2020-06-04T12:51:13Z</time>
      </trkpt>
      <trkpt lat="46.8635" lon="-2.06618">
        <ele>1.2</ele>
        <time>2020-06-04T12:51:14Z</time>
      </trkpt>
      <trkpt lat="46.86353" lon="-2.0661">
        <ele>1.2</ele>
        <time>2020-06-04T12:51:15Z</time>
      </trkpt>
      <trkpt lat="46.86356" lon="-2.06604">
        <ele>1.2</ele>
        <time>2020-06-04T12:51:16Z</time>
      </trkpt>
      <trkpt lat="46.86358" lon="-2.06595">
        <ele>1.3</ele>
        <time>2020-06-04T12:51:17Z</time>
      </trkpt>
      <trkpt lat="46.86359" lon="-2.06587">
        <ele>1.3</ele>
        <time>2020-06-04T12:51:18Z</time>
      </trkpt>
      <trkpt lat="46.86363" lon="-2.0658">
        <ele>1.3</ele>
        <time>2020-06-04T12:51:19Z</time>
      </trkpt>
      <trkpt lat="46.86366" lon="-2.06573">
        <ele>1.3</ele>
        <time>2020-06-04T12:51:20Z</time>
      </trkpt>
      <trkpt lat="46.86369" lon="-2.06565">
        <ele>1.4</ele>
        <time>2020-06-04T12:51:21Z</time>
      </trkpt>
      <trkpt lat="46.86371" lon="-2.06557">
        <ele>1.4</ele>
        <time>2020-06-04T12:51:22Z</time>
      </trkpt>
      <trkpt lat="46.86374" lon="-2.0655">
        <ele>1.4</ele>
        <time>2020-06-04T12:51:23Z</time>
      </trkpt>
      <trkpt lat="46.86377" lon="-2.06543">
        <ele>1.4</ele>
        <time>2020-06-04T12:51:24Z</time>
      </trkpt>
      <trkpt lat="46.8638" lon="-2.06536">
        <ele>1.4</ele>
        <time>2020-06-04T12:51:25Z</time>
      </trkpt>
      <trkpt lat="46.86383" lon="-2.0653">
        <ele>1.4</ele>
        <time>2020-06-04T12:51:26Z</time>
      </trkpt>
      <trkpt lat="46.86384" lon="-2.06521">
        <ele>1.4</ele>
        <time>2020-06-04T12:51:27Z</time>
      </trkpt>
      <trkpt lat="46.86387" lon="-2.06514">
        <ele>1.4</ele>
        <time>2020-06-04T12:51:28Z</time>
      </trkpt>
      <trkpt lat="46.8639" lon="-2.06507">
        <ele>1.4</ele>
        <time>2020-06-04T12:51:29Z</time>
      </trkpt>
      <trkpt lat="46.86393" lon="-2.065">
        <ele>1.4</ele>
        <time>2020-06-04T12:51:30Z</time>
      </trkpt>
      <trkpt lat="46.86395" lon="-2.06493">
        <ele>1.4</ele>
        <time>2020-06-04T12:51:31Z</time>
      </trkpt>
      <trkpt lat="46.86398" lon="-2.06486">
        <ele>1.4</ele>
        <time>2020-06-04T12:51:32Z</time>
      </trkpt>
      <trkpt lat="46.864" lon="-2.06479">
        <ele>1.4</ele>
        <time>2020-06-04T12:51:33Z</time>
      </trkpt>
      <trkpt lat="46.86401" lon="-2.06472">
        <ele>1.4</ele>
        <time>2020-06-04T12:51:34Z</time>
      </trkpt>
      <trkpt lat="46.86403" lon="-2.06465">
        <ele>1.4</ele>
        <time>2020-06-04T12:51:35Z</time>
      </trkpt>
      <trkpt lat="46.86405" lon="-2.06457">
        <ele>1.4</ele>
        <time>2020-06-04T12:51:36Z</time>
      </trkpt>
      <trkpt lat="46.86406" lon="-2.06449">
        <ele>1.4</ele>
        <time>2020-06-04T12:51:37Z</time>
      </trkpt>
      <trkpt lat="46.86407" lon="-2.06441">
        <ele>1.4</ele>
        <time>2020-06-04T12:51:38Z</time>
      </trkpt>
      <trkpt lat="46.86407" lon="-2.06433">
        <ele>1.4</ele>
        <time>2020-06-04T12:51:39Z</time>
      </trkpt>
      <trkpt lat="46.86408" lon="-2.06424">
        <ele>1.4</ele>
        <time>2020-06-04T12:51:40Z</time>
      </trkpt>
      <trkpt lat="46.8641" lon="-2.06417">
        <ele>1.4</ele>
        <time>2020-06-04T12:51:41Z</time>
      </trkpt>
      <trkpt lat="46.86412" lon="-2.06408">
        <ele>1.4</ele>
        <time>2020-06-04T12:51:42Z</time>
      </trkpt>
      <trkpt lat="46.86413" lon="-2.064">
        <ele>1.5</ele>
        <time>2020-06-04T12:51:43Z</time>
      </trkpt>
      <trkpt lat="46.86413" lon="-2.06391">
        <ele>1.5</ele>
        <time>2020-06-04T12:51:44Z</time>
      </trkpt>
      <trkpt lat="46.86413" lon="-2.06382">
        <ele>1.5</ele>
        <time>2020-06-04T12:51:45Z</time>
      </trkpt>
      <trkpt lat="46.86415" lon="-2.06373">
        <ele>1.5</ele>
        <time>2020-06-04T12:51:46Z</time>
      </trkpt>
      <trkpt lat="46.86417" lon="-2.06364">
        <ele>1.5</ele>
        <time>2020-06-04T12:51:47Z</time>
      </trkpt>
      <trkpt lat="46.86418" lon="-2.06356">
        <ele>1.5</ele>
        <time>2020-06-04T12:51:48Z</time>
      </trkpt>
      <trkpt lat="46.8642" lon="-2.06347">
        <ele>1.5</ele>
        <time>2020-06-04T12:51:49Z</time>
      </trkpt>
      <trkpt lat="46.86421" lon="-2.06339">
        <ele>1.5</ele>
        <time>2020-06-04T12:51:50Z</time>
      </trkpt>
      <trkpt lat="46.86423" lon="-2.06331">
        <ele>1.5</ele>
        <time>2020-06-04T12:51:51Z</time>
      </trkpt>
      <trkpt lat="46.86425" lon="-2.06323">
        <ele>1.5</ele>
        <time>2020-06-04T12:51:52Z</time>
      </trkpt>
      <trkpt lat="46.86426" lon="-2.06314">
        <ele>1.5</ele>
        <time>2020-06-04T12:51:53Z</time>
      </trkpt>
      <trkpt lat="46.86428" lon="-2.06306">
        <ele>1.5</ele>
        <time>2020-06-04T12:51:54Z</time>
      </trkpt>
      <trkpt lat="46.86429" lon="-2.06298">
        <ele>1.6</ele>
        <time>2020-06-04T12:51:55Z</time>
      </trkpt>
      <trkpt lat="46.8643" lon="-2.0629">
        <ele>1.6</ele>
        <time>2020-06-04T12:51:56Z</time>
      </trkpt>
      <trkpt lat="46.86432" lon="-2.06282">
        <ele>1.6</ele>
        <time>2020-06-04T12:51:57Z</time>
      </trkpt>
      <trkpt lat="46.86434" lon="-2.06273">
        <ele>1.6</ele>
        <time>2020-06-04T12:51:58Z</time>
      </trkpt>
      <trkpt lat="46.86436" lon="-2.06263">
        <ele>1.6</ele>
        <time>2020-06-04T12:51:59Z</time>
      </trkpt>
      <trkpt lat="46.86438" lon="-2.06255">
        <ele>1.6</ele>
        <time>2020-06-04T12:52:00Z</time>
      </trkpt>
      <trkpt lat="46.8644" lon="-2.06247">
        <ele>1.6</ele>
        <time>2020-06-04T12:52:01Z</time>
      </trkpt>
      <trkpt lat="46.86442" lon="-2.06233">
        <ele>1.6</ele>
        <time>2020-06-04T12:52:02Z</time>
      </trkpt>
      <trkpt lat="46.86444" lon="-2.06228">
        <ele>1.6</ele>
        <time>2020-06-04T12:52:03Z</time>
      </trkpt>
      <trkpt lat="46.86446" lon="-2.06217">
        <ele>1.6</ele>
        <time>2020-06-04T12:52:04Z</time>
      </trkpt>
      <trkpt lat="46.86449" lon="-2.06206">
        <ele>1.6</ele>
        <time>2020-06-04T12:52:05Z</time>
      </trkpt>
      <trkpt lat="46.8645" lon="-2.06194">
        <ele>1.6</ele>
        <time>2020-06-04T12:52:06Z</time>
      </trkpt>
      <trkpt lat="46.86453" lon="-2.06185">
        <ele>1.6</ele>
        <time>2020-06-04T12:52:07Z</time>
      </trkpt>
      <trkpt lat="46.86456" lon="-2.06176">
        <ele>1.6</ele>
        <time>2020-06-04T12:52:08Z</time>
      </trkpt>
      <trkpt lat="46.86457" lon="-2.06166">
        <ele>1.6</ele>
        <time>2020-06-04T12:52:09Z</time>
      </trkpt>
      <trkpt lat="46.86459" lon="-2.06158">
        <ele>1.7</ele>
        <time>2020-06-04T12:52:10Z</time>
      </trkpt>
      <trkpt lat="46.86461" lon="-2.0615">
        <ele>1.7</ele>
        <time>2020-06-04T12:52:11Z</time>
      </trkpt>
      <trkpt lat="46.86463" lon="-2.06147">
        <ele>1.7</ele>
        <time>2020-06-04T12:52:12Z</time>
      </trkpt>
      <trkpt lat="46.86465" lon="-2.0614">
        <ele>1.7</ele>
        <time>2020-06-04T12:52:13Z</time>
      </trkpt>
      <trkpt lat="46.86467" lon="-2.06133">
        <ele>1.7</ele>
        <time>2020-06-04T12:52:14Z</time>
      </trkpt>
      <trkpt lat="46.86467" lon="-2.06126">
        <ele>1.7</ele>
        <time>2020-06-04T12:52:15Z</time>
      </trkpt>
      <trkpt lat="46.86469" lon="-2.0612">
        <ele>1.7</ele>
        <time>2020-06-04T12:52:16Z</time>
      </trkpt>
      <trkpt lat="46.86471" lon="-2.06113">
        <ele>1.7</ele>
        <time>2020-06-04T12:52:17Z</time>
      </trkpt>
      <trkpt lat="46.86472" lon="-2.06107">
        <ele>1.7</ele>
        <time>2020-06-04T12:52:18Z</time>
      </trkpt>
      <trkpt lat="46.86474" lon="-2.06096">
        <ele>1.7</ele>
        <time>2020-06-04T12:52:19Z</time>
      </trkpt>
      <trkpt lat="46.86475" lon="-2.06089">
        <ele>1.7</ele>
        <time>2020-06-04T12:52:20Z</time>
      </trkpt>
      <trkpt lat="46.86477" lon="-2.06084">
        <ele>1.7</ele>
        <time>2020-06-04T12:52:21Z</time>
      </trkpt>
      <trkpt lat="46.86478" lon="-2.06079">
        <ele>1.7</ele>
        <time>2020-06-04T12:52:22Z</time>
      </trkpt>
      <trkpt lat="46.8648" lon="-2.06073">
        <ele>1.7</ele>
        <time>2020-06-04T12:52:23Z</time>
      </trkpt>
      <trkpt lat="46.86483" lon="-2.06066">
        <ele>1.8</ele>
        <time>2020-06-04T12:52:24Z</time>
      </trkpt>
      <trkpt lat="46.86485" lon="-2.06058">
        <ele>1.8</ele>
        <time>2020-06-04T12:52:25Z</time>
      </trkpt>
      <trkpt lat="46.86487" lon="-2.0605">
        <ele>1.8</ele>
        <time>2020-06-04T12:52:26Z</time>
      </trkpt>
      <trkpt lat="46.86489" lon="-2.06044">
        <ele>1.8</ele>
        <time>2020-06-04T12:52:27Z</time>
      </trkpt>
      <trkpt lat="46.86491" lon="-2.06037">
        <ele>1.8</ele>
        <time>2020-06-04T12:52:28Z</time>
      </trkpt>
      <trkpt lat="46.86492" lon="-2.06028">
        <ele>1.8</ele>
        <time>2020-06-04T12:52:29Z</time>
      </trkpt>
      <trkpt lat="46.86494" lon="-2.06022">
        <ele>1.8</ele>
        <time>2020-06-04T12:52:30Z</time>
      </trkpt>
      <trkpt lat="46.86497" lon="-2.06017">
        <ele>1.8</ele>
        <time>2020-06-04T12:52:31Z</time>
      </trkpt>
      <trkpt lat="46.86498" lon="-2.06011">
        <ele>1.8</ele>
        <time>2020-06-04T12:52:32Z</time>
      </trkpt>
      <trkpt lat="46.86499" lon="-2.06006">
        <ele>1.8</ele>
        <time>2020-06-04T12:52:33Z</time>
      </trkpt>
      <trkpt lat="46.865" lon="-2.06005">
        <ele>1.8</ele>
        <time>2020-06-04T12:52:34Z</time>
      </trkpt>
      <trkpt lat="46.86502" lon="-2.05999">
        <ele>1.9</ele>
        <time>2020-06-04T12:52:35Z</time>
      </trkpt>
      <trkpt lat="46.86503" lon="-2.05998">
        <ele>1.9</ele>
        <time>2020-06-04T12:52:36Z</time>
      </trkpt>
      <trkpt lat="46.86507" lon="-2.05994">
        <ele>1.9</ele>
        <time>2020-06-04T12:52:37Z</time>
      </trkpt>
      <trkpt lat="46.86509" lon="-2.05991">
        <ele>1.9</ele>
        <time>2020-06-04T12:52:38Z</time>
      </trkpt>
      <trkpt lat="46.86513" lon="-2.05987">
        <ele>1.9</ele>
        <time>2020-06-04T12:52:39Z</time>
      </trkpt>
      <trkpt lat="46.86516" lon="-2.05982">
        <ele>1.9</ele>
        <time>2020-06-04T12:52:40Z</time>
      </trkpt>
      <trkpt lat="46.86518" lon="-2.0598">
        <ele>1.9</ele>
        <time>2020-06-04T12:52:41Z</time>
      </trkpt>
      <trkpt lat="46.86522" lon="-2.05978">
        <ele>1.9</ele>
        <time>2020-06-04T12:52:42Z</time>
      </trkpt>
      <trkpt lat="46.86524" lon="-2.05976">
        <ele>1.9</ele>
        <time>2020-06-04T12:52:43Z</time>
      </trkpt>
      <trkpt lat="46.86526" lon="-2.05972">
        <ele>1.9</ele>
        <time>2020-06-04T12:52:44Z</time>
      </trkpt>
      <trkpt lat="46.86531" lon="-2.05969">
        <ele>1.9</ele>
        <time>2020-06-04T12:52:45Z</time>
      </trkpt>
      <trkpt lat="46.86534" lon="-2.05965">
        <ele>1.9</ele>
        <time>2020-06-04T12:52:46Z</time>
      </trkpt>
      <trkpt lat="46.86538" lon="-2.05962">
        <ele>1.9</ele>
        <time>2020-06-04T12:52:47Z</time>
      </trkpt>
      <trkpt lat="46.86543" lon="-2.05959">
        <ele>1.8</ele>
        <time>2020-06-04T12:52:48Z</time>
      </trkpt>
      <trkpt lat="46.86547" lon="-2.05955">
        <ele>1.8</ele>
        <time>2020-06-04T12:52:49Z</time>
      </trkpt>
      <trkpt lat="46.86551" lon="-2.05951">
        <ele>1.8</ele>
        <time>2020-06-04T12:52:50Z</time>
      </trkpt>
      <trkpt lat="46.86555" lon="-2.05947">
        <ele>1.8</ele>
        <time>2020-06-04T12:52:51Z</time>
      </trkpt>
      <trkpt lat="46.86559" lon="-2.05943">
        <ele>1.8</ele>
        <time>2020-06-04T12:52:52Z</time>
      </trkpt>
      <trkpt lat="46.86562" lon="-2.05939">
        <ele>1.8</ele>
        <time>2020-06-04T12:52:53Z</time>
      </trkpt>
      <trkpt lat="46.86565" lon="-2.05935">
        <ele>1.8</ele>
        <time>2020-06-04T12:52:54Z</time>
      </trkpt>
      <trkpt lat="46.86569" lon="-2.05931">
        <ele>1.8</ele>
        <time>2020-06-04T12:52:55Z</time>
      </trkpt>
      <trkpt lat="46.86572" lon="-2.05928">
        <ele>1.8</ele>
        <time>2020-06-04T12:52:56Z</time>
      </trkpt>
      <trkpt lat="46.86576" lon="-2.05924">
        <ele>1.7</ele>
        <time>2020-06-04T12:52:57Z</time>
      </trkpt>
      <trkpt lat="46.86578" lon="-2.05921">
        <ele>1.7</ele>
        <time>2020-06-04T12:52:58Z</time>
      </trkpt>
      <trkpt lat="46.86581" lon="-2.05917">
        <ele>1.7</ele>
        <time>2020-06-04T12:52:59Z</time>
      </trkpt>
      <trkpt lat="46.86585" lon="-2.05913">
        <ele>1.7</ele>
        <time>2020-06-04T12:53:00Z</time>
      </trkpt>
      <trkpt lat="46.86589" lon="-2.05909">
        <ele>1.7</ele>
        <time>2020-06-04T12:53:01Z</time>
      </trkpt>
      <trkpt lat="46.86591" lon="-2.05907">
        <ele>1.7</ele>
        <time>2020-06-04T12:53:02Z</time>
      </trkpt>
      <trkpt lat="46.86595" lon="-2.05903">
        <ele>1.7</ele>
        <time>2020-06-04T12:53:03Z</time>
      </trkpt>
      <trkpt lat="46.86599" lon="-2.05898">
        <ele>1.7</ele>
        <time>2020-06-04T12:53:04Z</time>
      </trkpt>
      <trkpt lat="46.86604" lon="-2.05893">
        <ele>1.7</ele>
        <time>2020-06-04T12:53:05Z</time>
      </trkpt>
      <trkpt lat="46.86608" lon="-2.05888">
        <ele>1.7</ele>
        <time>2020-06-04T12:53:06Z</time>
      </trkpt>
      <trkpt lat="46.86612" lon="-2.05883">
        <ele>1.7</ele>
        <time>2020-06-04T12:53:07Z</time>
      </trkpt>
      <trkpt lat="46.86617" lon="-2.05877">
        <ele>1.7</ele>
        <time>2020-06-04T12:53:08Z</time>
      </trkpt>
      <trkpt lat="46.8662" lon="-2.0587">
        <ele>1.7</ele>
        <time>2020-06-04T12:53:09Z</time>
      </trkpt>
      <trkpt lat="46.86625" lon="-2.05865">
        <ele>1.6</ele>
        <time>2020-06-04T12:53:10Z</time>
      </trkpt>
      <trkpt lat="46.86629" lon="-2.0586">
        <ele>1.6</ele>
        <time>2020-06-04T12:53:11Z</time>
      </trkpt>
      <trkpt lat="46.86632" lon="-2.05854">
        <ele>1.6</ele>
        <time>2020-06-04T12:53:12Z</time>
      </trkpt>
      <trkpt lat="46.86637" lon="-2.05848">
        <ele>1.6</ele>
        <time>2020-06-04T12:53:13Z</time>
      </trkpt>
      <trkpt lat="46.86639" lon="-2.0584">
        <ele>1.7</ele>
        <time>2020-06-04T12:53:14Z</time>
      </trkpt>
      <trkpt lat="46.86643" lon="-2.05833">
        <ele>1.7</ele>
        <time>2020-06-04T12:53:15Z</time>
      </trkpt>
      <trkpt lat="46.86646" lon="-2.05826">
        <ele>1.7</ele>
        <time>2020-06-04T12:53:16Z</time>
      </trkpt>
      <trkpt lat="46.86649" lon="-2.0582">
        <ele>1.7</ele>
        <time>2020-06-04T12:53:17Z</time>
      </trkpt>
      <trkpt lat="46.86652" lon="-2.05815">
        <ele>1.7</ele>
        <time>2020-06-04T12:53:18Z</time>
      </trkpt>
      <trkpt lat="46.86654" lon="-2.05808">
        <ele>1.7</ele>
        <time>2020-06-04T12:53:19Z</time>
      </trkpt>
      <trkpt lat="46.86657" lon="-2.05801">
        <ele>1.7</ele>
        <time>2020-06-04T12:53:20Z</time>
      </trkpt>
      <trkpt lat="46.8666" lon="-2.05792">
        <ele>1.7</ele>
        <time>2020-06-04T12:53:21Z</time>
      </trkpt>
      <trkpt lat="46.86662" lon="-2.05784">
        <ele>1.7</ele>
        <time>2020-06-04T12:53:22Z</time>
      </trkpt>
      <trkpt lat="46.86663" lon="-2.05775">
        <ele>1.7</ele>
        <time>2020-06-04T12:53:23Z</time>
      </trkpt>
      <trkpt lat="46.86666" lon="-2.05769">
        <ele>1.7</ele>
        <time>2020-06-04T12:53:24Z</time>
      </trkpt>
      <trkpt lat="46.86669" lon="-2.05761">
        <ele>1.8</ele>
        <time>2020-06-04T12:53:25Z</time>
      </trkpt>
      <trkpt lat="46.86671" lon="-2.05754">
        <ele>1.8</ele>
        <time>2020-06-04T12:53:26Z</time>
      </trkpt>
      <trkpt lat="46.86674" lon="-2.05747">
        <ele>1.8</ele>
        <time>2020-06-04T12:53:27Z</time>
      </trkpt>
      <trkpt lat="46.86677" lon="-2.05741">
        <ele>1.8</ele>
        <time>2020-06-04T12:53:28Z</time>
      </trkpt>
      <trkpt lat="46.86681" lon="-2.05734">
        <ele>1.8</ele>
        <time>2020-06-04T12:53:29Z</time>
      </trkpt>
      <trkpt lat="46.86684" lon="-2.05727">
        <ele>1.8</ele>
        <time>2020-06-04T12:53:30Z</time>
      </trkpt>
      <trkpt lat="46.86687" lon="-2.0572">
        <ele>1.8</ele>
        <time>2020-06-04T12:53:31Z</time>
      </trkpt>
      <trkpt lat="46.8669" lon="-2.05713">
        <ele>1.8</ele>
        <time>2020-06-04T12:53:32Z</time>
      </trkpt>
      <trkpt lat="46.86692" lon="-2.05706">
        <ele>1.8</ele>
        <time>2020-06-04T12:53:33Z</time>
      </trkpt>
      <trkpt lat="46.86695" lon="-2.057">
        <ele>1.8</ele>
        <time>2020-06-04T12:53:34Z</time>
      </trkpt>
      <trkpt lat="46.86698" lon="-2.05693">
        <ele>1.8</ele>
        <time>2020-06-04T12:53:35Z</time>
      </trkpt>
      <trkpt lat="46.86701" lon="-2.05686">
        <ele>1.8</ele>
        <time>2020-06-04T12:53:36Z</time>
      </trkpt>
      <trkpt lat="46.86703" lon="-2.05679">
        <ele>1.8</ele>
        <time>2020-06-04T12:53:37Z</time>
      </trkpt>
      <trkpt lat="46.86705" lon="-2.05673">
        <ele>1.8</ele>
        <time>2020-06-04T12:53:38Z</time>
      </trkpt>
      <trkpt lat="46.86706" lon="-2.05667">
        <ele>1.8</ele>
        <time>2020-06-04T12:53:39Z</time>
      </trkpt>
      <trkpt lat="46.86708" lon="-2.05661">
        <ele>1.8</ele>
        <time>2020-06-04T12:53:40Z</time>
      </trkpt>
      <trkpt lat="46.86709" lon="-2.05652">
        <ele>1.8</ele>
        <time>2020-06-04T12:53:41Z</time>
      </trkpt>
      <trkpt lat="46.8671" lon="-2.05644">
        <ele>1.8</ele>
        <time>2020-06-04T12:53:42Z</time>
      </trkpt>
      <trkpt lat="46.86709" lon="-2.05633">
        <ele>1.8</ele>
        <time>2020-06-04T12:53:43Z</time>
      </trkpt>
      <trkpt lat="46.86709" lon="-2.05625">
        <ele>1.8</ele>
        <time>2020-06-04T12:53:44Z</time>
      </trkpt>
      <trkpt lat="46.86709" lon="-2.05617">
        <ele>1.8</ele>
        <time>2020-06-04T12:53:45Z</time>
      </trkpt>
      <trkpt lat="46.86709" lon="-2.05607">
        <ele>1.8</ele>
        <time>2020-06-04T12:53:46Z</time>
      </trkpt>
      <trkpt lat="46.86709" lon="-2.05599">
        <ele>1.8</ele>
        <time>2020-06-04T12:53:47Z</time>
      </trkpt>
      <trkpt lat="46.86709" lon="-2.0559">
        <ele>1.8</ele>
        <time>2020-06-04T12:53:48Z</time>
      </trkpt>
      <trkpt lat="46.86709" lon="-2.05582">
        <ele>1.9</ele>
        <time>2020-06-04T12:53:49Z</time>
      </trkpt>
      <trkpt lat="46.8671" lon="-2.05573">
        <ele>1.9</ele>
        <time>2020-06-04T12:53:50Z</time>
      </trkpt>
      <trkpt lat="46.8671" lon="-2.05566">
        <ele>1.9</ele>
        <time>2020-06-04T12:53:51Z</time>
      </trkpt>
      <trkpt lat="46.8671" lon="-2.05555">
        <ele>1.9</ele>
        <time>2020-06-04T12:53:52Z</time>
      </trkpt>
      <trkpt lat="46.86711" lon="-2.05546">
        <ele>1.8</ele>
        <time>2020-06-04T12:53:53Z</time>
      </trkpt>
      <trkpt lat="46.86712" lon="-2.05539">
        <ele>1.8</ele>
        <time>2020-06-04T12:53:54Z</time>
      </trkpt>
      <trkpt lat="46.86712" lon="-2.05531">
        <ele>1.8</ele>
        <time>2020-06-04T12:53:55Z</time>
      </trkpt>
      <trkpt lat="46.86712" lon="-2.05521">
        <ele>1.8</ele>
        <time>2020-06-04T12:53:56Z</time>
      </trkpt>
      <trkpt lat="46.86712" lon="-2.05513">
        <ele>1.8</ele>
        <time>2020-06-04T12:53:57Z</time>
      </trkpt>
      <trkpt lat="46.86712" lon="-2.05506">
        <ele>1.8</ele>
        <time>2020-06-04T12:53:58Z</time>
      </trkpt>
      <trkpt lat="46.86712" lon="-2.05498">
        <ele>1.8</ele>
        <time>2020-06-04T12:53:59Z</time>
      </trkpt>
      <trkpt lat="46.86713" lon="-2.05492">
        <ele>1.8</ele>
        <time>2020-06-04T12:54:00Z</time>
      </trkpt>
      <trkpt lat="46.86714" lon="-2.05485">
        <ele>1.8</ele>
        <time>2020-06-04T12:54:01Z</time>
      </trkpt>
      <trkpt lat="46.86715" lon="-2.05479">
        <ele>1.8</ele>
        <time>2020-06-04T12:54:02Z</time>
      </trkpt>
      <trkpt lat="46.86718" lon="-2.05471">
        <ele>1.8</ele>
        <time>2020-06-04T12:54:03Z</time>
      </trkpt>
      <trkpt lat="46.86722" lon="-2.05462">
        <ele>1.8</ele>
        <time>2020-06-04T12:54:04Z</time>
      </trkpt>
      <trkpt lat="46.86725" lon="-2.05453">
        <ele>1.8</ele>
        <time>2020-06-04T12:54:05Z</time>
      </trkpt>
      <trkpt lat="46.86729" lon="-2.05444">
        <ele>1.8</ele>
        <time>2020-06-04T12:54:06Z</time>
      </trkpt>
      <trkpt lat="46.86731" lon="-2.05438">
        <ele>1.8</ele>
        <time>2020-06-04T12:54:07Z</time>
      </trkpt>
      <trkpt lat="46.86734" lon="-2.05432">
        <ele>1.8</ele>
        <time>2020-06-04T12:54:08Z</time>
      </trkpt>
      <trkpt lat="46.86737" lon="-2.05425">
        <ele>1.8</ele>
        <time>2020-06-04T12:54:09Z</time>
      </trkpt>
      <trkpt lat="46.86741" lon="-2.05419">
        <ele>1.8</ele>
        <time>2020-06-04T12:54:10Z</time>
      </trkpt>
      <trkpt lat="46.86745" lon="-2.05414">
        <ele>1.8</ele>
        <time>2020-06-04T12:54:11Z</time>
      </trkpt>
      <trkpt lat="46.86748" lon="-2.05406">
        <ele>1.8</ele>
        <time>2020-06-04T12:54:12Z</time>
      </trkpt>
      <trkpt lat="46.86752" lon="-2.05402">
        <ele>1.8</ele>
        <time>2020-06-04T12:54:13Z</time>
      </trkpt>
      <trkpt lat="46.86755" lon="-2.05398">
        <ele>1.8</ele>
        <time>2020-06-04T12:54:14Z</time>
      </trkpt>
      <trkpt lat="46.8676" lon="-2.05393">
        <ele>1.8</ele>
        <time>2020-06-04T12:54:15Z</time>
      </trkpt>
      <trkpt lat="46.86763" lon="-2.05388">
        <ele>1.8</ele>
        <time>2020-06-04T12:54:16Z</time>
      </trkpt>
      <trkpt lat="46.86766" lon="-2.05383">
        <ele>1.8</ele>
        <time>2020-06-04T12:54:17Z</time>
      </trkpt>
      <trkpt lat="46.8677" lon="-2.05377">
        <ele>1.8</ele>
        <time>2020-06-04T12:54:18Z</time>
      </trkpt>
      <trkpt lat="46.86774" lon="-2.05372">
        <ele>1.8</ele>
        <time>2020-06-04T12:54:19Z</time>
      </trkpt>
      <trkpt lat="46.86778" lon="-2.05364">
        <ele>1.8</ele>
        <time>2020-06-04T12:54:20Z</time>
      </trkpt>
      <trkpt lat="46.86781" lon="-2.05357">
        <ele>1.8</ele>
        <time>2020-06-04T12:54:21Z</time>
      </trkpt>
      <trkpt lat="46.86784" lon="-2.05348">
        <ele>1.8</ele>
        <time>2020-06-04T12:54:22Z</time>
      </trkpt>
      <trkpt lat="46.86788" lon="-2.05341">
        <ele>1.8</ele>
        <time>2020-06-04T12:54:23Z</time>
      </trkpt>
      <trkpt lat="46.86791" lon="-2.05332">
        <ele>1.7</ele>
        <time>2020-06-04T12:54:24Z</time>
      </trkpt>
      <trkpt lat="46.86794" lon="-2.05324">
        <ele>1.7</ele>
        <time>2020-06-04T12:54:25Z</time>
      </trkpt>
      <trkpt lat="46.86796" lon="-2.05318">
        <ele>1.7</ele>
        <time>2020-06-04T12:54:26Z</time>
      </trkpt>
      <trkpt lat="46.86797" lon="-2.05308">
        <ele>1.7</ele>
        <time>2020-06-04T12:54:27Z</time>
      </trkpt>
      <trkpt lat="46.86799" lon="-2.05298">
        <ele>1.7</ele>
        <time>2020-06-04T12:54:28Z</time>
      </trkpt>
      <trkpt lat="46.868" lon="-2.05292">
        <ele>1.7</ele>
        <time>2020-06-04T12:54:29Z</time>
      </trkpt>
      <trkpt lat="46.868" lon="-2.05286">
        <ele>1.7</ele>
        <time>2020-06-04T12:54:30Z</time>
      </trkpt>
      <trkpt lat="46.868" lon="-2.05278">
        <ele>1.7</ele>
        <time>2020-06-04T12:54:31Z</time>
      </trkpt>
      <trkpt lat="46.868" lon="-2.05269">
        <ele>1.7</ele>
        <time>2020-06-04T12:54:32Z</time>
      </trkpt>
      <trkpt lat="46.86799" lon="-2.0526">
        <ele>1.7</ele>
        <time>2020-06-04T12:54:33Z</time>
      </trkpt>
      <trkpt lat="46.86799" lon="-2.05252">
        <ele>1.7</ele>
        <time>2020-06-04T12:54:34Z</time>
      </trkpt>
      <trkpt lat="46.86798" lon="-2.05244">
        <ele>1.7</ele>
        <time>2020-06-04T12:54:35Z</time>
      </trkpt>
      <trkpt lat="46.86797" lon="-2.05236">
        <ele>1.7</ele>
        <time>2020-06-04T12:54:36Z</time>
      </trkpt>
      <trkpt lat="46.86797" lon="-2.05226">
        <ele>1.7</ele>
        <time>2020-06-04T12:54:37Z</time>
      </trkpt>
      <trkpt lat="46.86796" lon="-2.0522">
        <ele>1.7</ele>
        <time>2020-06-04T12:54:38Z</time>
      </trkpt>
      <trkpt lat="46.86794" lon="-2.05212">
        <ele>1.7</ele>
        <time>2020-06-04T12:54:39Z</time>
      </trkpt>
      <trkpt lat="46.86793" lon="-2.05203">
        <ele>1.7</ele>
        <time>2020-06-04T12:54:40Z</time>
      </trkpt>
      <trkpt lat="46.86793" lon="-2.05197">
        <ele>1.7</ele>
        <time>2020-06-04T12:54:41Z</time>
      </trkpt>
      <trkpt lat="46.86793" lon="-2.05192">
        <ele>1.7</ele>
        <time>2020-06-04T12:54:42Z</time>
      </trkpt>
      <trkpt lat="46.86793" lon="-2.05184">
        <ele>1.7</ele>
        <time>2020-06-04T12:54:43Z</time>
      </trkpt>
      <trkpt lat="46.86794" lon="-2.05177">
        <ele>1.6</ele>
        <time>2020-06-04T12:54:44Z</time>
      </trkpt>
      <trkpt lat="46.86795" lon="-2.0517">
        <ele>1.6</ele>
        <time>2020-06-04T12:54:45Z</time>
      </trkpt>
      <trkpt lat="46.86797" lon="-2.05163">
        <ele>1.7</ele>
        <time>2020-06-04T12:54:46Z</time>
      </trkpt>
      <trkpt lat="46.86798" lon="-2.05155">
        <ele>1.7</ele>
        <time>2020-06-04T12:54:47Z</time>
      </trkpt>
      <trkpt lat="46.86801" lon="-2.05148">
        <ele>1.7</ele>
        <time>2020-06-04T12:54:48Z</time>
      </trkpt>
      <trkpt lat="46.86802" lon="-2.0514">
        <ele>1.7</ele>
        <time>2020-06-04T12:54:49Z</time>
      </trkpt>
      <trkpt lat="46.86804" lon="-2.05133">
        <ele>1.7</ele>
        <time>2020-06-04T12:54:50Z</time>
      </trkpt>
      <trkpt lat="46.86805" lon="-2.05126">
        <ele>1.8</ele>
        <time>2020-06-04T12:54:51Z</time>
      </trkpt>
      <trkpt lat="46.86807" lon="-2.0512">
        <ele>1.8</ele>
        <time>2020-06-04T12:54:52Z</time>
      </trkpt>
      <trkpt lat="46.86808" lon="-2.05113">
        <ele>1.8</ele>
        <time>2020-06-04T12:54:53Z</time>
      </trkpt>
      <trkpt lat="46.86809" lon="-2.05106">
        <ele>1.8</ele>
        <time>2020-06-04T12:54:54Z</time>
      </trkpt>
      <trkpt lat="46.86811" lon="-2.051">
        <ele>1.8</ele>
        <time>2020-06-04T12:54:55Z</time>
      </trkpt>
      <trkpt lat="46.86813" lon="-2.05092">
        <ele>1.8</ele>
        <time>2020-06-04T12:54:56Z</time>
      </trkpt>
      <trkpt lat="46.86814" lon="-2.05082">
        <ele>1.9</ele>
        <time>2020-06-04T12:54:57Z</time>
      </trkpt>
      <trkpt lat="46.86816" lon="-2.05072">
        <ele>1.9</ele>
        <time>2020-06-04T12:54:58Z</time>
      </trkpt>
      <trkpt lat="46.86818" lon="-2.05063">
        <ele>1.9</ele>
        <time>2020-06-04T12:54:59Z</time>
      </trkpt>
      <trkpt lat="46.86819" lon="-2.05054">
        <ele>1.9</ele>
        <time>2020-06-04T12:55:00Z</time>
      </trkpt>
      <trkpt lat="46.86822" lon="-2.05046">
        <ele>2</ele>
        <time>2020-06-04T12:55:01Z</time>
      </trkpt>
      <trkpt lat="46.86824" lon="-2.05038">
        <ele>2</ele>
        <time>2020-06-04T12:55:02Z</time>
      </trkpt>
      <trkpt lat="46.86826" lon="-2.0503">
        <ele>2</ele>
        <time>2020-06-04T12:55:03Z</time>
      </trkpt>
      <trkpt lat="46.86828" lon="-2.05023">
        <ele>2</ele>
        <time>2020-06-04T12:55:04Z</time>
      </trkpt>
      <trkpt lat="46.8683" lon="-2.05015">
        <ele>2</ele>
        <time>2020-06-04T12:55:05Z</time>
      </trkpt>
      <trkpt lat="46.86832" lon="-2.05008">
        <ele>2</ele>
        <time>2020-06-04T12:55:06Z</time>
      </trkpt>
      <trkpt lat="46.86834" lon="-2.05001">
        <ele>2</ele>
        <time>2020-06-04T12:55:07Z</time>
      </trkpt>
      <trkpt lat="46.86836" lon="-2.04992">
        <ele>2</ele>
        <time>2020-06-04T12:55:08Z</time>
      </trkpt>
      <trkpt lat="46.86837" lon="-2.04983">
        <ele>1.9</ele>
        <time>2020-06-04T12:55:09Z</time>
      </trkpt>
      <trkpt lat="46.86838" lon="-2.04972">
        <ele>1.9</ele>
        <time>2020-06-04T12:55:10Z</time>
      </trkpt>
      <trkpt lat="46.86839" lon="-2.04964">
        <ele>1.9</ele>
        <time>2020-06-04T12:55:11Z</time>
      </trkpt>
      <trkpt lat="46.86841" lon="-2.04956">
        <ele>1.9</ele>
        <time>2020-06-04T12:55:12Z</time>
      </trkpt>
      <trkpt lat="46.86842" lon="-2.04948">
        <ele>1.8</ele>
        <time>2020-06-04T12:55:13Z</time>
      </trkpt>
      <trkpt lat="46.86844" lon="-2.0494">
        <ele>1.8</ele>
        <time>2020-06-04T12:55:14Z</time>
      </trkpt>
      <trkpt lat="46.86846" lon="-2.04932">
        <ele>1.8</ele>
        <time>2020-06-04T12:55:15Z</time>
      </trkpt>
      <trkpt lat="46.86847" lon="-2.04922">
        <ele>1.7</ele>
        <time>2020-06-04T12:55:16Z</time>
      </trkpt>
      <trkpt lat="46.86848" lon="-2.04913">
        <ele>1.7</ele>
        <time>2020-06-04T12:55:17Z</time>
      </trkpt>
      <trkpt lat="46.8685" lon="-2.04904">
        <ele>1.7</ele>
        <time>2020-06-04T12:55:18Z</time>
      </trkpt>
      <trkpt lat="46.86851" lon="-2.04895">
        <ele>1.7</ele>
        <time>2020-06-04T12:55:19Z</time>
      </trkpt>
      <trkpt lat="46.86854" lon="-2.04887">
        <ele>1.7</ele>
        <time>2020-06-04T12:55:20Z</time>
      </trkpt>
      <trkpt lat="46.86855" lon="-2.0488">
        <ele>1.7</ele>
        <time>2020-06-04T12:55:21Z</time>
      </trkpt>
      <trkpt lat="46.86857" lon="-2.04873">
        <ele>1.7</ele>
        <time>2020-06-04T12:55:22Z</time>
      </trkpt>
      <trkpt lat="46.86859" lon="-2.04866">
        <ele>1.7</ele>
        <time>2020-06-04T12:55:23Z</time>
      </trkpt>
      <trkpt lat="46.86861" lon="-2.0486">
        <ele>1.7</ele>
        <time>2020-06-04T12:55:24Z</time>
      </trkpt>
      <trkpt lat="46.86864" lon="-2.04851">
        <ele>1.7</ele>
        <time>2020-06-04T12:55:25Z</time>
      </trkpt>
      <trkpt lat="46.86865" lon="-2.04843">
        <ele>1.7</ele>
        <time>2020-06-04T12:55:26Z</time>
      </trkpt>
      <trkpt lat="46.86866" lon="-2.04834">
        <ele>1.7</ele>
        <time>2020-06-04T12:55:27Z</time>
      </trkpt>
      <trkpt lat="46.86867" lon="-2.04825">
        <ele>1.7</ele>
        <time>2020-06-04T12:55:28Z</time>
      </trkpt>
      <trkpt lat="46.86869" lon="-2.04817">
        <ele>1.7</ele>
        <time>2020-06-04T12:55:29Z</time>
      </trkpt>
      <trkpt lat="46.8687" lon="-2.04808">
        <ele>1.7</ele>
        <time>2020-06-04T12:55:30Z</time>
      </trkpt>
      <trkpt lat="46.86871" lon="-2.048">
        <ele>1.7</ele>
        <time>2020-06-04T12:55:31Z</time>
      </trkpt>
      <trkpt lat="46.86872" lon="-2.04792">
        <ele>1.7</ele>
        <time>2020-06-04T12:55:32Z</time>
      </trkpt>
      <trkpt lat="46.86874" lon="-2.04785">
        <ele>1.7</ele>
        <time>2020-06-04T12:55:33Z</time>
      </trkpt>
      <trkpt lat="46.86876" lon="-2.04778">
        <ele>1.7</ele>
        <time>2020-06-04T12:55:34Z</time>
      </trkpt>
      <trkpt lat="46.86878" lon="-2.04771">
        <ele>1.7</ele>
        <time>2020-06-04T12:55:35Z</time>
      </trkpt>
      <trkpt lat="46.8688" lon="-2.04764">
        <ele>1.7</ele>
        <time>2020-06-04T12:55:36Z</time>
      </trkpt>
      <trkpt lat="46.86883" lon="-2.04758">
        <ele>1.7</ele>
        <time>2020-06-04T12:55:37Z</time>
      </trkpt>
      <trkpt lat="46.86885" lon="-2.04751">
        <ele>1.7</ele>
        <time>2020-06-04T12:55:38Z</time>
      </trkpt>
      <trkpt lat="46.86888" lon="-2.04744">
        <ele>1.7</ele>
        <time>2020-06-04T12:55:39Z</time>
      </trkpt>
      <trkpt lat="46.86891" lon="-2.04738">
        <ele>1.7</ele>
        <time>2020-06-04T12:55:40Z</time>
      </trkpt>
      <trkpt lat="46.86893" lon="-2.04728">
        <ele>1.7</ele>
        <time>2020-06-04T12:55:41Z</time>
      </trkpt>
      <trkpt lat="46.86896" lon="-2.04723">
        <ele>1.8</ele>
        <time>2020-06-04T12:55:42Z</time>
      </trkpt>
      <trkpt lat="46.86899" lon="-2.04714">
        <ele>1.8</ele>
        <time>2020-06-04T12:55:43Z</time>
      </trkpt>
      <trkpt lat="46.86902" lon="-2.04708">
        <ele>1.8</ele>
        <time>2020-06-04T12:55:44Z</time>
      </trkpt>
      <trkpt lat="46.86905" lon="-2.04701">
        <ele>1.8</ele>
        <time>2020-06-04T12:55:45Z</time>
      </trkpt>
      <trkpt lat="46.86908" lon="-2.04694">
        <ele>1.8</ele>
        <time>2020-06-04T12:55:46Z</time>
      </trkpt>
      <trkpt lat="46.86911" lon="-2.04686">
        <ele>1.8</ele>
        <time>2020-06-04T12:55:47Z</time>
      </trkpt>
      <trkpt lat="46.86915" lon="-2.04681">
        <ele>1.8</ele>
        <time>2020-06-04T12:55:48Z</time>
      </trkpt>
      <trkpt lat="46.86918" lon="-2.04675">
        <ele>1.8</ele>
        <time>2020-06-04T12:55:49Z</time>
      </trkpt>
      <trkpt lat="46.86921" lon="-2.0467">
        <ele>1.8</ele>
        <time>2020-06-04T12:55:50Z</time>
      </trkpt>
      <trkpt lat="46.86925" lon="-2.04666">
        <ele>1.8</ele>
        <time>2020-06-04T12:55:51Z</time>
      </trkpt>
      <trkpt lat="46.86928" lon="-2.0466">
        <ele>1.8</ele>
        <time>2020-06-04T12:55:52Z</time>
      </trkpt>
      <trkpt lat="46.86931" lon="-2.04653">
        <ele>1.8</ele>
        <time>2020-06-04T12:55:53Z</time>
      </trkpt>
      <trkpt lat="46.86933" lon="-2.04644">
        <ele>1.8</ele>
        <time>2020-06-04T12:55:54Z</time>
      </trkpt>
      <trkpt lat="46.86936" lon="-2.04638">
        <ele>1.8</ele>
        <time>2020-06-04T12:55:55Z</time>
      </trkpt>
      <trkpt lat="46.86938" lon="-2.04631">
        <ele>1.8</ele>
        <time>2020-06-04T12:55:56Z</time>
      </trkpt>
      <trkpt lat="46.86941" lon="-2.04624">
        <ele>1.8</ele>
        <time>2020-06-04T12:55:57Z</time>
      </trkpt>
      <trkpt lat="46.86944" lon="-2.04617">
        <ele>1.8</ele>
        <time>2020-06-04T12:55:58Z</time>
      </trkpt>
      <trkpt lat="46.86947" lon="-2.04611">
        <ele>1.8</ele>
        <time>2020-06-04T12:55:59Z</time>
      </trkpt>
      <trkpt lat="46.86951" lon="-2.04605">
        <ele>1.7</ele>
        <time>2020-06-04T12:56:00Z</time>
      </trkpt>
      <trkpt lat="46.86954" lon="-2.046">
        <ele>1.7</ele>
        <time>2020-06-04T12:56:01Z</time>
      </trkpt>
      <trkpt lat="46.86957" lon="-2.04594">
        <ele>1.7</ele>
        <time>2020-06-04T12:56:02Z</time>
      </trkpt>
      <trkpt lat="46.8696" lon="-2.04587">
        <ele>1.7</ele>
        <time>2020-06-04T12:56:03Z</time>
      </trkpt>
      <trkpt lat="46.86963" lon="-2.04581">
        <ele>1.7</ele>
        <time>2020-06-04T12:56:04Z</time>
      </trkpt>
      <trkpt lat="46.86966" lon="-2.04574">
        <ele>1.7</ele>
        <time>2020-06-04T12:56:05Z</time>
      </trkpt>
      <trkpt lat="46.86969" lon="-2.04566">
        <ele>1.7</ele>
        <time>2020-06-04T12:56:06Z</time>
      </trkpt>
      <trkpt lat="46.86972" lon="-2.04559">
        <ele>1.7</ele>
        <time>2020-06-04T12:56:07Z</time>
      </trkpt>
      <trkpt lat="46.86975" lon="-2.04552">
        <ele>1.7</ele>
        <time>2020-06-04T12:56:08Z</time>
      </trkpt>
      <trkpt lat="46.86977" lon="-2.04544">
        <ele>1.7</ele>
        <time>2020-06-04T12:56:09Z</time>
      </trkpt>
      <trkpt lat="46.8698" lon="-2.04537">
        <ele>1.6</ele>
        <time>2020-06-04T12:56:10Z</time>
      </trkpt>
      <trkpt lat="46.86983" lon="-2.04531">
        <ele>1.6</ele>
        <time>2020-06-04T12:56:11Z</time>
      </trkpt>
      <trkpt lat="46.86985" lon="-2.04524">
        <ele>1.6</ele>
        <time>2020-06-04T12:56:12Z</time>
      </trkpt>
      <trkpt lat="46.86989" lon="-2.04519">
        <ele>1.6</ele>
        <time>2020-06-04T12:56:13Z</time>
      </trkpt>
      <trkpt lat="46.86992" lon="-2.04512">
        <ele>1.6</ele>
        <time>2020-06-04T12:56:14Z</time>
      </trkpt>
      <trkpt lat="46.86995" lon="-2.04505">
        <ele>1.6</ele>
        <time>2020-06-04T12:56:15Z</time>
      </trkpt>
      <trkpt lat="46.86997" lon="-2.04498">
        <ele>1.6</ele>
        <time>2020-06-04T12:56:16Z</time>
      </trkpt>
      <trkpt lat="46.87" lon="-2.04491">
        <ele>1.6</ele>
        <time>2020-06-04T12:56:17Z</time>
      </trkpt>
      <trkpt lat="46.87002" lon="-2.04483">
        <ele>1.6</ele>
        <time>2020-06-04T12:56:18Z</time>
      </trkpt>
      <trkpt lat="46.87004" lon="-2.04476">
        <ele>1.6</ele>
        <time>2020-06-04T12:56:19Z</time>
      </trkpt>
      <trkpt lat="46.87006" lon="-2.04464">
        <ele>1.6</ele>
        <time>2020-06-04T12:56:20Z</time>
      </trkpt>
      <trkpt lat="46.87008" lon="-2.04457">
        <ele>1.6</ele>
        <time>2020-06-04T12:56:21Z</time>
      </trkpt>
      <trkpt lat="46.87011" lon="-2.04449">
        <ele>1.6</ele>
        <time>2020-06-04T12:56:22Z</time>
      </trkpt>
      <trkpt lat="46.87012" lon="-2.04442">
        <ele>1.5</ele>
        <time>2020-06-04T12:56:23Z</time>
      </trkpt>
      <trkpt lat="46.87012" lon="-2.04434">
        <ele>1.5</ele>
        <time>2020-06-04T12:56:24Z</time>
      </trkpt>
      <trkpt lat="46.87013" lon="-2.04425">
        <ele>1.5</ele>
        <time>2020-06-04T12:56:25Z</time>
      </trkpt>
      <trkpt lat="46.87015" lon="-2.04417">
        <ele>1.5</ele>
        <time>2020-06-04T12:56:26Z</time>
      </trkpt>
      <trkpt lat="46.87016" lon="-2.04409">
        <ele>1.5</ele>
        <time>2020-06-04T12:56:27Z</time>
      </trkpt>
      <trkpt lat="46.87016" lon="-2.04403">
        <ele>1.5</ele>
        <time>2020-06-04T12:56:28Z</time>
      </trkpt>
      <trkpt lat="46.87018" lon="-2.04396">
        <ele>1.5</ele>
        <time>2020-06-04T12:56:29Z</time>
      </trkpt>
      <trkpt lat="46.87018" lon="-2.04389">
        <ele>1.5</ele>
        <time>2020-06-04T12:56:30Z</time>
      </trkpt>
      <trkpt lat="46.87019" lon="-2.0438">
        <ele>1.5</ele>
        <time>2020-06-04T12:56:31Z</time>
      </trkpt>
      <trkpt lat="46.87019" lon="-2.04372">
        <ele>1.5</ele>
        <time>2020-06-04T12:56:32Z</time>
      </trkpt>
      <trkpt lat="46.8702" lon="-2.04364">
        <ele>1.5</ele>
        <time>2020-06-04T12:56:33Z</time>
      </trkpt>
      <trkpt lat="46.87021" lon="-2.04356">
        <ele>1.5</ele>
        <time>2020-06-04T12:56:34Z</time>
      </trkpt>
      <trkpt lat="46.87022" lon="-2.04348">
        <ele>1.5</ele>
        <time>2020-06-04T12:56:35Z</time>
      </trkpt>
      <trkpt lat="46.87022" lon="-2.04338">
        <ele>1.5</ele>
        <time>2020-06-04T12:56:36Z</time>
      </trkpt>
      <trkpt lat="46.87023" lon="-2.04328">
        <ele>1.5</ele>
        <time>2020-06-04T12:56:37Z</time>
      </trkpt>
      <trkpt lat="46.87024" lon="-2.04319">
        <ele>1.5</ele>
        <time>2020-06-04T12:56:38Z</time>
      </trkpt>
      <trkpt lat="46.87024" lon="-2.0431">
        <ele>1.5</ele>
        <time>2020-06-04T12:56:39Z</time>
      </trkpt>
      <trkpt lat="46.87025" lon="-2.043">
        <ele>1.5</ele>
        <time>2020-06-04T12:56:40Z</time>
      </trkpt>
      <trkpt lat="46.87025" lon="-2.0429">
        <ele>1.5</ele>
        <time>2020-06-04T12:56:41Z</time>
      </trkpt>
      <trkpt lat="46.87026" lon="-2.04282">
        <ele>1.5</ele>
        <time>2020-06-04T12:56:42Z</time>
      </trkpt>
      <trkpt lat="46.87027" lon="-2.04274">
        <ele>1.5</ele>
        <time>2020-06-04T12:56:43Z</time>
      </trkpt>
      <trkpt lat="46.87027" lon="-2.04265">
        <ele>1.5</ele>
        <time>2020-06-04T12:56:44Z</time>
      </trkpt>
      <trkpt lat="46.87028" lon="-2.04257">
        <ele>1.5</ele>
        <time>2020-06-04T12:56:45Z</time>
      </trkpt>
      <trkpt lat="46.87029" lon="-2.04249">
        <ele>1.5</ele>
        <time>2020-06-04T12:56:46Z</time>
      </trkpt>
      <trkpt lat="46.8703" lon="-2.04241">
        <ele>1.5</ele>
        <time>2020-06-04T12:56:47Z</time>
      </trkpt>
      <trkpt lat="46.87031" lon="-2.04233">
        <ele>1.5</ele>
        <time>2020-06-04T12:56:48Z</time>
      </trkpt>
      <trkpt lat="46.87032" lon="-2.04224">
        <ele>1.5</ele>
        <time>2020-06-04T12:56:49Z</time>
      </trkpt>
      <trkpt lat="46.87033" lon="-2.04216">
        <ele>1.5</ele>
        <time>2020-06-04T12:56:50Z</time>
      </trkpt>
      <trkpt lat="46.87033" lon="-2.04208">
        <ele>1.5</ele>
        <time>2020-06-04T12:56:51Z</time>
      </trkpt>
      <trkpt lat="46.87035" lon="-2.04201">
        <ele>1.5</ele>
        <time>2020-06-04T12:56:52Z</time>
      </trkpt>
      <trkpt lat="46.87036" lon="-2.04194">
        <ele>1.5</ele>
        <time>2020-06-04T12:56:53Z</time>
      </trkpt>
      <trkpt lat="46.87037" lon="-2.04187">
        <ele>1.5</ele>
        <time>2020-06-04T12:56:54Z</time>
      </trkpt>
      <trkpt lat="46.87037" lon="-2.04178">
        <ele>1.5</ele>
        <time>2020-06-04T12:56:55Z</time>
      </trkpt>
      <trkpt lat="46.87038" lon="-2.04171">
        <ele>1.5</ele>
        <time>2020-06-04T12:56:56Z</time>
      </trkpt>
      <trkpt lat="46.87039" lon="-2.04164">
        <ele>1.5</ele>
        <time>2020-06-04T12:56:57Z</time>
      </trkpt>
      <trkpt lat="46.87039" lon="-2.04155">
        <ele>1.5</ele>
        <time>2020-06-04T12:56:58Z</time>
      </trkpt>
      <trkpt lat="46.87038" lon="-2.04147">
        <ele>1.5</ele>
        <time>2020-06-04T12:56:59Z</time>
      </trkpt>
      <trkpt lat="46.87039" lon="-2.04139">
        <ele>1.5</ele>
        <time>2020-06-04T12:57:00Z</time>
      </trkpt>
      <trkpt lat="46.8704" lon="-2.04132">
        <ele>1.5</ele>
        <time>2020-06-04T12:57:01Z</time>
      </trkpt>
      <trkpt lat="46.87042" lon="-2.04123">
        <ele>1.5</ele>
        <time>2020-06-04T12:57:02Z</time>
      </trkpt>
      <trkpt lat="46.87042" lon="-2.04113">
        <ele>1.5</ele>
        <time>2020-06-04T12:57:03Z</time>
      </trkpt>
      <trkpt lat="46.87043" lon="-2.04105">
        <ele>1.5</ele>
        <time>2020-06-04T12:57:04Z</time>
      </trkpt>
      <trkpt lat="46.87044" lon="-2.04097">
        <ele>1.5</ele>
        <time>2020-06-04T12:57:05Z</time>
      </trkpt>
      <trkpt lat="46.87045" lon="-2.04089">
        <ele>1.5</ele>
        <time>2020-06-04T12:57:06Z</time>
      </trkpt>
      <trkpt lat="46.87046" lon="-2.0408">
        <ele>1.4</ele>
        <time>2020-06-04T12:57:07Z</time>
      </trkpt>
      <trkpt lat="46.87047" lon="-2.04072">
        <ele>1.4</ele>
        <time>2020-06-04T12:57:08Z</time>
      </trkpt>
      <trkpt lat="46.87047" lon="-2.04065">
        <ele>1.4</ele>
        <time>2020-06-04T12:57:09Z</time>
      </trkpt>
      <trkpt lat="46.87049" lon="-2.04057">
        <ele>1.4</ele>
        <time>2020-06-04T12:57:10Z</time>
      </trkpt>
      <trkpt lat="46.87048" lon="-2.04049">
        <ele>1.4</ele>
        <time>2020-06-04T12:57:11Z</time>
      </trkpt>
      <trkpt lat="46.8705" lon="-2.04042">
        <ele>1.4</ele>
        <time>2020-06-04T12:57:12Z</time>
      </trkpt>
      <trkpt lat="46.87051" lon="-2.04035">
        <ele>1.4</ele>
        <time>2020-06-04T12:57:13Z</time>
      </trkpt>
      <trkpt lat="46.87053" lon="-2.04029">
        <ele>1.4</ele>
        <time>2020-06-04T12:57:14Z</time>
      </trkpt>
      <trkpt lat="46.87053" lon="-2.04022">
        <ele>1.4</ele>
        <time>2020-06-04T12:57:15Z</time>
      </trkpt>
      <trkpt lat="46.87054" lon="-2.04015">
        <ele>1.4</ele>
        <time>2020-06-04T12:57:16Z</time>
      </trkpt>
      <trkpt lat="46.87055" lon="-2.04007">
        <ele>1.4</ele>
        <time>2020-06-04T12:57:17Z</time>
      </trkpt>
      <trkpt lat="46.87057" lon="-2.03999">
        <ele>1.4</ele>
        <time>2020-06-04T12:57:18Z</time>
      </trkpt>
      <trkpt lat="46.8706" lon="-2.03991">
        <ele>1.4</ele>
        <time>2020-06-04T12:57:19Z</time>
      </trkpt>
      <trkpt lat="46.87062" lon="-2.03984">
        <ele>1.4</ele>
        <time>2020-06-04T12:57:20Z</time>
      </trkpt>
      <trkpt lat="46.87065" lon="-2.03975">
        <ele>1.4</ele>
        <time>2020-06-04T12:57:21Z</time>
      </trkpt>
      <trkpt lat="46.87068" lon="-2.03968">
        <ele>1.4</ele>
        <time>2020-06-04T12:57:22Z</time>
      </trkpt>
      <trkpt lat="46.87069" lon="-2.0396">
        <ele>1.5</ele>
        <time>2020-06-04T12:57:23Z</time>
      </trkpt>
      <trkpt lat="46.87072" lon="-2.03954">
        <ele>1.5</ele>
        <time>2020-06-04T12:57:24Z</time>
      </trkpt>
      <trkpt lat="46.87074" lon="-2.03946">
        <ele>1.5</ele>
        <time>2020-06-04T12:57:25Z</time>
      </trkpt>
      <trkpt lat="46.87076" lon="-2.03939">
        <ele>1.5</ele>
        <time>2020-06-04T12:57:26Z</time>
      </trkpt>
      <trkpt lat="46.87079" lon="-2.03933">
        <ele>1.5</ele>
        <time>2020-06-04T12:57:27Z</time>
      </trkpt>
      <trkpt lat="46.87081" lon="-2.03926">
        <ele>1.5</ele>
        <time>2020-06-04T12:57:28Z</time>
      </trkpt>
      <trkpt lat="46.87083" lon="-2.03918">
        <ele>1.5</ele>
        <time>2020-06-04T12:57:29Z</time>
      </trkpt>
      <trkpt lat="46.87086" lon="-2.03912">
        <ele>1.5</ele>
        <time>2020-06-04T12:57:30Z</time>
      </trkpt>
      <trkpt lat="46.87089" lon="-2.03906">
        <ele>1.5</ele>
        <time>2020-06-04T12:57:31Z</time>
      </trkpt>
      <trkpt lat="46.87091" lon="-2.03898">
        <ele>1.6</ele>
        <time>2020-06-04T12:57:32Z</time>
      </trkpt>
      <trkpt lat="46.87093" lon="-2.0389">
        <ele>1.6</ele>
        <time>2020-06-04T12:57:33Z</time>
      </trkpt>
      <trkpt lat="46.87095" lon="-2.03882">
        <ele>1.6</ele>
        <time>2020-06-04T12:57:34Z</time>
      </trkpt>
      <trkpt lat="46.87096" lon="-2.03876">
        <ele>1.7</ele>
        <time>2020-06-04T12:57:35Z</time>
      </trkpt>
      <trkpt lat="46.87098" lon="-2.03869">
        <ele>1.7</ele>
        <time>2020-06-04T12:57:36Z</time>
      </trkpt>
      <trkpt lat="46.87101" lon="-2.03862">
        <ele>1.7</ele>
        <time>2020-06-04T12:57:37Z</time>
      </trkpt>
      <trkpt lat="46.87103" lon="-2.03855">
        <ele>1.8</ele>
        <time>2020-06-04T12:57:38Z</time>
      </trkpt>
      <trkpt lat="46.87105" lon="-2.03848">
        <ele>1.8</ele>
        <time>2020-06-04T12:57:39Z</time>
      </trkpt>
      <trkpt lat="46.87108" lon="-2.03842">
        <ele>1.8</ele>
        <time>2020-06-04T12:57:40Z</time>
      </trkpt>
      <trkpt lat="46.8711" lon="-2.03835">
        <ele>1.8</ele>
        <time>2020-06-04T12:57:41Z</time>
      </trkpt>
      <trkpt lat="46.87112" lon="-2.03828">
        <ele>1.8</ele>
        <time>2020-06-04T12:57:42Z</time>
      </trkpt>
      <trkpt lat="46.87113" lon="-2.0382">
        <ele>1.8</ele>
        <time>2020-06-04T12:57:43Z</time>
      </trkpt>
      <trkpt lat="46.87115" lon="-2.03814">
        <ele>1.8</ele>
        <time>2020-06-04T12:57:44Z</time>
      </trkpt>
      <trkpt lat="46.87117" lon="-2.03808">
        <ele>1.8</ele>
        <time>2020-06-04T12:57:45Z</time>
      </trkpt>
      <trkpt lat="46.87118" lon="-2.03802">
        <ele>1.8</ele>
        <time>2020-06-04T12:57:46Z</time>
      </trkpt>
      <trkpt lat="46.87121" lon="-2.03797">
        <ele>1.8</ele>
        <time>2020-06-04T12:57:47Z</time>
      </trkpt>
      <trkpt lat="46.87123" lon="-2.03788">
        <ele>1.8</ele>
        <time>2020-06-04T12:57:48Z</time>
      </trkpt>
      <trkpt lat="46.87126" lon="-2.03782">
        <ele>1.8</ele>
        <time>2020-06-04T12:57:49Z</time>
      </trkpt>
      <trkpt lat="46.87128" lon="-2.03774">
        <ele>1.8</ele>
        <time>2020-06-04T12:57:50Z</time>
      </trkpt>
      <trkpt lat="46.87131" lon="-2.03767">
        <ele>1.8</ele>
        <time>2020-06-04T12:57:51Z</time>
      </trkpt>
      <trkpt lat="46.87134" lon="-2.0376">
        <ele>1.8</ele>
        <time>2020-06-04T12:57:52Z</time>
      </trkpt>
      <trkpt lat="46.87135" lon="-2.03753">
        <ele>1.8</ele>
        <time>2020-06-04T12:57:53Z</time>
      </trkpt>
      <trkpt lat="46.87138" lon="-2.03748">
        <ele>1.9</ele>
        <time>2020-06-04T12:57:54Z</time>
      </trkpt>
      <trkpt lat="46.8714" lon="-2.03743">
        <ele>1.9</ele>
        <time>2020-06-04T12:57:55Z</time>
      </trkpt>
      <trkpt lat="46.87144" lon="-2.03739">
        <ele>1.9</ele>
        <time>2020-06-04T12:57:56Z</time>
      </trkpt>
      <trkpt lat="46.87147" lon="-2.03735">
        <ele>1.9</ele>
        <time>2020-06-04T12:57:57Z</time>
      </trkpt>
      <trkpt lat="46.8715" lon="-2.03731">
        <ele>1.9</ele>
        <time>2020-06-04T12:57:58Z</time>
      </trkpt>
      <trkpt lat="46.87154" lon="-2.03727">
        <ele>1.9</ele>
        <time>2020-06-04T12:57:59Z</time>
      </trkpt>
      <trkpt lat="46.87156" lon="-2.03722">
        <ele>1.9</ele>
        <time>2020-06-04T12:58:00Z</time>
      </trkpt>
      <trkpt lat="46.87158" lon="-2.03717">
        <ele>1.9</ele>
        <time>2020-06-04T12:58:01Z</time>
      </trkpt>
      <trkpt lat="46.87162" lon="-2.03712">
        <ele>1.9</ele>
        <time>2020-06-04T12:58:02Z</time>
      </trkpt>
      <trkpt lat="46.87166" lon="-2.03706">
        <ele>1.9</ele>
        <time>2020-06-04T12:58:03Z</time>
      </trkpt>
      <trkpt lat="46.8717" lon="-2.03703">
        <ele>1.9</ele>
        <time>2020-06-04T12:58:04Z</time>
      </trkpt>
      <trkpt lat="46.87174" lon="-2.03699">
        <ele>1.9</ele>
        <time>2020-06-04T12:58:05Z</time>
      </trkpt>
      <trkpt lat="46.87178" lon="-2.03695">
        <ele>1.9</ele>
        <time>2020-06-04T12:58:06Z</time>
      </trkpt>
      <trkpt lat="46.87181" lon="-2.03692">
        <ele>2</ele>
        <time>2020-06-04T12:58:07Z</time>
      </trkpt>
      <trkpt lat="46.87186" lon="-2.03686">
        <ele>2</ele>
        <time>2020-06-04T12:58:08Z</time>
      </trkpt>
      <trkpt lat="46.8719" lon="-2.03682">
        <ele>2</ele>
        <time>2020-06-04T12:58:09Z</time>
      </trkpt>
      <trkpt lat="46.87195" lon="-2.03676">
        <ele>2</ele>
        <time>2020-06-04T12:58:10Z</time>
      </trkpt>
      <trkpt lat="46.872" lon="-2.03672">
        <ele>2</ele>
        <time>2020-06-04T12:58:11Z</time>
      </trkpt>
      <trkpt lat="46.87205" lon="-2.0367">
        <ele>2</ele>
        <time>2020-06-04T12:58:12Z</time>
      </trkpt>
      <trkpt lat="46.8721" lon="-2.03665">
        <ele>2</ele>
        <time>2020-06-04T12:58:13Z</time>
      </trkpt>
      <trkpt lat="46.87214" lon="-2.0366">
        <ele>2</ele>
        <time>2020-06-04T12:58:14Z</time>
      </trkpt>
      <trkpt lat="46.8722" lon="-2.03658">
        <ele>2</ele>
        <time>2020-06-04T12:58:15Z</time>
      </trkpt>
      <trkpt lat="46.87224" lon="-2.03654">
        <ele>2</ele>
        <time>2020-06-04T12:58:16Z</time>
      </trkpt>
      <trkpt lat="46.87228" lon="-2.0365">
        <ele>2.1</ele>
        <time>2020-06-04T12:58:17Z</time>
      </trkpt>
      <trkpt lat="46.87233" lon="-2.03647">
        <ele>2.1</ele>
        <time>2020-06-04T12:58:18Z</time>
      </trkpt>
      <trkpt lat="46.87236" lon="-2.03643">
        <ele>2.1</ele>
        <time>2020-06-04T12:58:19Z</time>
      </trkpt>
      <trkpt lat="46.87239" lon="-2.03636">
        <ele>2.1</ele>
        <time>2020-06-04T12:58:20Z</time>
      </trkpt>
      <trkpt lat="46.87243" lon="-2.0363">
        <ele>2.1</ele>
        <time>2020-06-04T12:58:21Z</time>
      </trkpt>
      <trkpt lat="46.87246" lon="-2.03625">
        <ele>2.1</ele>
        <time>2020-06-04T12:58:22Z</time>
      </trkpt>
      <trkpt lat="46.87249" lon="-2.03619">
        <ele>2.1</ele>
        <time>2020-06-04T12:58:23Z</time>
      </trkpt>
      <trkpt lat="46.87252" lon="-2.03615">
        <ele>2.1</ele>
        <time>2020-06-04T12:58:24Z</time>
      </trkpt>
      <trkpt lat="46.87254" lon="-2.0361">
        <ele>2.1</ele>
        <time>2020-06-04T12:58:25Z</time>
      </trkpt>
      <trkpt lat="46.87256" lon="-2.03604">
        <ele>2.1</ele>
        <time>2020-06-04T12:58:26Z</time>
      </trkpt>
      <trkpt lat="46.87259" lon="-2.03599">
        <ele>2.1</ele>
        <time>2020-06-04T12:58:27Z</time>
      </trkpt>
      <trkpt lat="46.87257" lon="-2.0359">
        <ele>2.1</ele>
        <time>2020-06-04T12:58:28Z</time>
      </trkpt>
      <trkpt lat="46.87257" lon="-2.03582">
        <ele>2.1</ele>
        <time>2020-06-04T12:58:29Z</time>
      </trkpt>
      <trkpt lat="46.87256" lon="-2.03575">
        <ele>2.1</ele>
        <time>2020-06-04T12:58:30Z</time>
      </trkpt>
      <trkpt lat="46.87254" lon="-2.03567">
        <ele>2.1</ele>
        <time>2020-06-04T12:58:31Z</time>
      </trkpt>
      <trkpt lat="46.87254" lon="-2.03561">
        <ele>2.1</ele>
        <time>2020-06-04T12:58:32Z</time>
      </trkpt>
      <trkpt lat="46.87253" lon="-2.03554">
        <ele>2.1</ele>
        <time>2020-06-04T12:58:33Z</time>
      </trkpt>
      <trkpt lat="46.87253" lon="-2.03548">
        <ele>2.1</ele>
        <time>2020-06-04T12:58:34Z</time>
      </trkpt>
      <trkpt lat="46.87251" lon="-2.03543">
        <ele>2.1</ele>
        <time>2020-06-04T12:58:35Z</time>
      </trkpt>
      <trkpt lat="46.8725" lon="-2.03535">
        <ele>2.1</ele>
        <time>2020-06-04T12:58:36Z</time>
      </trkpt>
      <trkpt lat="46.87252" lon="-2.03529">
        <ele>2.1</ele>
        <time>2020-06-04T12:58:37Z</time>
      </trkpt>
      <trkpt lat="46.87251" lon="-2.03521">
        <ele>2.2</ele>
        <time>2020-06-04T12:58:38Z</time>
      </trkpt>
      <trkpt lat="46.87251" lon="-2.03514">
        <ele>2.2</ele>
        <time>2020-06-04T12:58:39Z</time>
      </trkpt>
      <trkpt lat="46.8725" lon="-2.03506">
        <ele>2.2</ele>
        <time>2020-06-04T12:58:40Z</time>
      </trkpt>
      <trkpt lat="46.8725" lon="-2.03499">
        <ele>2.2</ele>
        <time>2020-06-04T12:58:41Z</time>
      </trkpt>
      <trkpt lat="46.8725" lon="-2.0349">
        <ele>2.2</ele>
        <time>2020-06-04T12:58:42Z</time>
      </trkpt>
      <trkpt lat="46.8725" lon="-2.0348">
        <ele>2.2</ele>
        <time>2020-06-04T12:58:43Z</time>
      </trkpt>
      <trkpt lat="46.87251" lon="-2.03473">
        <ele>2.2</ele>
        <time>2020-06-04T12:58:44Z</time>
      </trkpt>
      <trkpt lat="46.87252" lon="-2.03464">
        <ele>2.2</ele>
        <time>2020-06-04T12:58:45Z</time>
      </trkpt>
      <trkpt lat="46.87255" lon="-2.03456">
        <ele>2.2</ele>
        <time>2020-06-04T12:58:46Z</time>
      </trkpt>
      <trkpt lat="46.87258" lon="-2.03448">
        <ele>2.2</ele>
        <time>2020-06-04T12:58:47Z</time>
      </trkpt>
      <trkpt lat="46.87262" lon="-2.03441">
        <ele>2.2</ele>
        <time>2020-06-04T12:58:48Z</time>
      </trkpt>
      <trkpt lat="46.87265" lon="-2.03434">
        <ele>2.2</ele>
        <time>2020-06-04T12:58:49Z</time>
      </trkpt>
      <trkpt lat="46.87269" lon="-2.03427">
        <ele>2.2</ele>
        <time>2020-06-04T12:58:50Z</time>
      </trkpt>
      <trkpt lat="46.87271" lon="-2.03421">
        <ele>2.2</ele>
        <time>2020-06-04T12:58:51Z</time>
      </trkpt>
      <trkpt lat="46.87275" lon="-2.03414">
        <ele>2.2</ele>
        <time>2020-06-04T12:58:52Z</time>
      </trkpt>
      <trkpt lat="46.87278" lon="-2.03409">
        <ele>2.2</ele>
        <time>2020-06-04T12:58:53Z</time>
      </trkpt>
      <trkpt lat="46.87282" lon="-2.03404">
        <ele>2.2</ele>
        <time>2020-06-04T12:58:54Z</time>
      </trkpt>
      <trkpt lat="46.87286" lon="-2.034">
        <ele>2.2</ele>
        <time>2020-06-04T12:58:55Z</time>
      </trkpt>
      <trkpt lat="46.8729" lon="-2.03394">
        <ele>2.2</ele>
        <time>2020-06-04T12:58:56Z</time>
      </trkpt>
      <trkpt lat="46.87293" lon="-2.03388">
        <ele>2.2</ele>
        <time>2020-06-04T12:58:57Z</time>
      </trkpt>
      <trkpt lat="46.87297" lon="-2.03383">
        <ele>2.2</ele>
        <time>2020-06-04T12:58:58Z</time>
      </trkpt>
      <trkpt lat="46.87301" lon="-2.03378">
        <ele>2.2</ele>
        <time>2020-06-04T12:58:59Z</time>
      </trkpt>
      <trkpt lat="46.87304" lon="-2.03374">
        <ele>2.2</ele>
        <time>2020-06-04T12:59:00Z</time>
      </trkpt>
      <trkpt lat="46.87307" lon="-2.03369">
        <ele>2.2</ele>
        <time>2020-06-04T12:59:01Z</time>
      </trkpt>
      <trkpt lat="46.87311" lon="-2.03365">
        <ele>2.2</ele>
        <time>2020-06-04T12:59:02Z</time>
      </trkpt>
      <trkpt lat="46.87315" lon="-2.0336">
        <ele>2.2</ele>
        <time>2020-06-04T12:59:03Z</time>
      </trkpt>
      <trkpt lat="46.87319" lon="-2.03356">
        <ele>2.2</ele>
        <time>2020-06-04T12:59:04Z</time>
      </trkpt>
      <trkpt lat="46.87323" lon="-2.03351">
        <ele>2.2</ele>
        <time>2020-06-04T12:59:05Z</time>
      </trkpt>
      <trkpt lat="46.87327" lon="-2.03345">
        <ele>2.2</ele>
        <time>2020-06-04T12:59:06Z</time>
      </trkpt>
      <trkpt lat="46.87331" lon="-2.03339">
        <ele>2.2</ele>
        <time>2020-06-04T12:59:07Z</time>
      </trkpt>
      <trkpt lat="46.87334" lon="-2.03332">
        <ele>2.2</ele>
        <time>2020-06-04T12:59:08Z</time>
      </trkpt>
      <trkpt lat="46.87338" lon="-2.03326">
        <ele>2.2</ele>
        <time>2020-06-04T12:59:09Z</time>
      </trkpt>
      <trkpt lat="46.87342" lon="-2.03321">
        <ele>2.2</ele>
        <time>2020-06-04T12:59:10Z</time>
      </trkpt>
      <trkpt lat="46.87345" lon="-2.03314">
        <ele>2.2</ele>
        <time>2020-06-04T12:59:11Z</time>
      </trkpt>
      <trkpt lat="46.87349" lon="-2.03309">
        <ele>2.2</ele>
        <time>2020-06-04T12:59:12Z</time>
      </trkpt>
      <trkpt lat="46.87352" lon="-2.03302">
        <ele>2.2</ele>
        <time>2020-06-04T12:59:13Z</time>
      </trkpt>
      <trkpt lat="46.87355" lon="-2.03296">
        <ele>2.2</ele>
        <time>2020-06-04T12:59:14Z</time>
      </trkpt>
      <trkpt lat="46.87358" lon="-2.03289">
        <ele>2.2</ele>
        <time>2020-06-04T12:59:15Z</time>
      </trkpt>
      <trkpt lat="46.8736" lon="-2.03285">
        <ele>2.2</ele>
        <time>2020-06-04T12:59:16Z</time>
      </trkpt>
      <trkpt lat="46.87363" lon="-2.03279">
        <ele>2.2</ele>
        <time>2020-06-04T12:59:17Z</time>
      </trkpt>
      <trkpt lat="46.87364" lon="-2.0327">
        <ele>2.2</ele>
        <time>2020-06-04T12:59:18Z</time>
      </trkpt>
      <trkpt lat="46.87367" lon="-2.03264">
        <ele>2.2</ele>
        <time>2020-06-04T12:59:19Z</time>
      </trkpt>
      <trkpt lat="46.87371" lon="-2.03256">
        <ele>2.2</ele>
        <time>2020-06-04T12:59:20Z</time>
      </trkpt>
      <trkpt lat="46.87373" lon="-2.0325">
        <ele>2.1</ele>
        <time>2020-06-04T12:59:21Z</time>
      </trkpt>
      <trkpt lat="46.87375" lon="-2.03242">
        <ele>2.1</ele>
        <time>2020-06-04T12:59:22Z</time>
      </trkpt>
      <trkpt lat="46.87378" lon="-2.03233">
        <ele>2.1</ele>
        <time>2020-06-04T12:59:23Z</time>
      </trkpt>
      <trkpt lat="46.8738" lon="-2.03225">
        <ele>2.1</ele>
        <time>2020-06-04T12:59:24Z</time>
      </trkpt>
      <trkpt lat="46.87382" lon="-2.03217">
        <ele>2.1</ele>
        <time>2020-06-04T12:59:25Z</time>
      </trkpt>
      <trkpt lat="46.87384" lon="-2.03209">
        <ele>2</ele>
        <time>2020-06-04T12:59:26Z</time>
      </trkpt>
      <trkpt lat="46.87387" lon="-2.03203">
        <ele>2</ele>
        <time>2020-06-04T12:59:27Z</time>
      </trkpt>
      <trkpt lat="46.87388" lon="-2.03195">
        <ele>2</ele>
        <time>2020-06-04T12:59:28Z</time>
      </trkpt>
      <trkpt lat="46.8739" lon="-2.03188">
        <ele>2</ele>
        <time>2020-06-04T12:59:29Z</time>
      </trkpt>
      <trkpt lat="46.87392" lon="-2.03182">
        <ele>2</ele>
        <time>2020-06-04T12:59:30Z</time>
      </trkpt>
      <trkpt lat="46.87395" lon="-2.03175">
        <ele>1.9</ele>
        <time>2020-06-04T12:59:31Z</time>
      </trkpt>
      <trkpt lat="46.87397" lon="-2.03169">
        <ele>1.9</ele>
        <time>2020-06-04T12:59:32Z</time>
      </trkpt>
      <trkpt lat="46.87399" lon="-2.03161">
        <ele>1.9</ele>
        <time>2020-06-04T12:59:33Z</time>
      </trkpt>
      <trkpt lat="46.87401" lon="-2.03154">
        <ele>1.9</ele>
        <time>2020-06-04T12:59:34Z</time>
      </trkpt>
      <trkpt lat="46.87404" lon="-2.03146">
        <ele>1.9</ele>
        <time>2020-06-04T12:59:35Z</time>
      </trkpt>
      <trkpt lat="46.87407" lon="-2.03139">
        <ele>1.9</ele>
        <time>2020-06-04T12:59:36Z</time>
      </trkpt>
      <trkpt lat="46.8741" lon="-2.03131">
        <ele>2</ele>
        <time>2020-06-04T12:59:37Z</time>
      </trkpt>
      <trkpt lat="46.87413" lon="-2.03124">
        <ele>2</ele>
        <time>2020-06-04T12:59:38Z</time>
      </trkpt>
      <trkpt lat="46.87416" lon="-2.03115">
        <ele>2</ele>
        <time>2020-06-04T12:59:39Z</time>
      </trkpt>
      <trkpt lat="46.87418" lon="-2.03107">
        <ele>2</ele>
        <time>2020-06-04T12:59:40Z</time>
      </trkpt>
      <trkpt lat="46.8742" lon="-2.031">
        <ele>2</ele>
        <time>2020-06-04T12:59:41Z</time>
      </trkpt>
      <trkpt lat="46.87422" lon="-2.03092">
        <ele>2</ele>
        <time>2020-06-04T12:59:42Z</time>
      </trkpt>
      <trkpt lat="46.87424" lon="-2.03083">
        <ele>2</ele>
        <time>2020-06-04T12:59:43Z</time>
      </trkpt>
      <trkpt lat="46.87426" lon="-2.03076">
        <ele>2.1</ele>
        <time>2020-06-04T12:59:44Z</time>
      </trkpt>
      <trkpt lat="46.87427" lon="-2.03069">
        <ele>2.1</ele>
        <time>2020-06-04T12:59:45Z</time>
      </trkpt>
      <trkpt lat="46.87428" lon="-2.03062">
        <ele>2.1</ele>
        <time>2020-06-04T12:59:46Z</time>
      </trkpt>
      <trkpt lat="46.8743" lon="-2.03055">
        <ele>2.1</ele>
        <time>2020-06-04T12:59:47Z</time>
      </trkpt>
      <trkpt lat="46.87433" lon="-2.03048">
        <ele>2.1</ele>
        <time>2020-06-04T12:59:48Z</time>
      </trkpt>
      <trkpt lat="46.87437" lon="-2.0304">
        <ele>2.1</ele>
        <time>2020-06-04T12:59:49Z</time>
      </trkpt>
      <trkpt lat="46.87439" lon="-2.0303">
        <ele>2.1</ele>
        <time>2020-06-04T12:59:50Z</time>
      </trkpt>
      <trkpt lat="46.8744" lon="-2.03021">
        <ele>2.1</ele>
        <time>2020-06-04T12:59:51Z</time>
      </trkpt>
      <trkpt lat="46.87443" lon="-2.03014">
        <ele>2.1</ele>
        <time>2020-06-04T12:59:52Z</time>
      </trkpt>
      <trkpt lat="46.87444" lon="-2.03008">
        <ele>2.1</ele>
        <time>2020-06-04T12:59:53Z</time>
      </trkpt>
      <trkpt lat="46.87447" lon="-2.03001">
        <ele>2.1</ele>
        <time>2020-06-04T12:59:54Z</time>
      </trkpt>
      <trkpt lat="46.87448" lon="-2.02992">
        <ele>2.1</ele>
        <time>2020-06-04T12:59:55Z</time>
      </trkpt>
      <trkpt lat="46.8745" lon="-2.02984">
        <ele>2.1</ele>
        <time>2020-06-04T12:59:56Z</time>
      </trkpt>
      <trkpt lat="46.87452" lon="-2.02977">
        <ele>2.2</ele>
        <time>2020-06-04T12:59:57Z</time>
      </trkpt>
      <trkpt lat="46.87454" lon="-2.02969">
        <ele>2.2</ele>
        <time>2020-06-04T12:59:58Z</time>
      </trkpt>
      <trkpt lat="46.87456" lon="-2.02962">
        <ele>2.2</ele>
        <time>2020-06-04T12:59:59Z</time>
      </trkpt>
      <trkpt lat="46.87457" lon="-2.02955">
        <ele>2.2</ele>
        <time>2020-06-04T13:00:00Z</time>
      </trkpt>
      <trkpt lat="46.87458" lon="-2.02947">
        <ele>2.2</ele>
        <time>2020-06-04T13:00:01Z</time>
      </trkpt>
      <trkpt lat="46.87459" lon="-2.0294">
        <ele>2.2</ele>
        <time>2020-06-04T13:00:02Z</time>
      </trkpt>
      <trkpt lat="46.87461" lon="-2.02931">
        <ele>2.3</ele>
        <time>2020-06-04T13:00:03Z</time>
      </trkpt>
      <trkpt lat="46.87462" lon="-2.02923">
        <ele>2.3</ele>
        <time>2020-06-04T13:00:04Z</time>
      </trkpt>
      <trkpt lat="46.87463" lon="-2.02913">
        <ele>2.3</ele>
        <time>2020-06-04T13:00:05Z</time>
      </trkpt>
      <trkpt lat="46.87464" lon="-2.02905">
        <ele>2.3</ele>
        <time>2020-06-04T13:00:06Z</time>
      </trkpt>
      <trkpt lat="46.87464" lon="-2.02896">
        <ele>2.3</ele>
        <time>2020-06-04T13:00:07Z</time>
      </trkpt>
      <trkpt lat="46.87465" lon="-2.02887">
        <ele>2.3</ele>
        <time>2020-06-04T13:00:08Z</time>
      </trkpt>
      <trkpt lat="46.87466" lon="-2.02878">
        <ele>2.3</ele>
        <time>2020-06-04T13:00:09Z</time>
      </trkpt>
      <trkpt lat="46.87467" lon="-2.02869">
        <ele>2.3</ele>
        <time>2020-06-04T13:00:10Z</time>
      </trkpt>
      <trkpt lat="46.87469" lon="-2.0286">
        <ele>2.3</ele>
        <time>2020-06-04T13:00:11Z</time>
      </trkpt>
      <trkpt lat="46.87471" lon="-2.02851">
        <ele>2.3</ele>
        <time>2020-06-04T13:00:12Z</time>
      </trkpt>
      <trkpt lat="46.87473" lon="-2.02844">
        <ele>2.3</ele>
        <time>2020-06-04T13:00:13Z</time>
      </trkpt>
      <trkpt lat="46.87475" lon="-2.02837">
        <ele>2.3</ele>
        <time>2020-06-04T13:00:14Z</time>
      </trkpt>
      <trkpt lat="46.87476" lon="-2.02829">
        <ele>2.3</ele>
        <time>2020-06-04T13:00:15Z</time>
      </trkpt>
      <trkpt lat="46.87477" lon="-2.02821">
        <ele>2.3</ele>
        <time>2020-06-04T13:00:16Z</time>
      </trkpt>
      <trkpt lat="46.87478" lon="-2.02814">
        <ele>2.3</ele>
        <time>2020-06-04T13:00:17Z</time>
      </trkpt>
      <trkpt lat="46.87478" lon="-2.02806">
        <ele>2.3</ele>
        <time>2020-06-04T13:00:18Z</time>
      </trkpt>
      <trkpt lat="46.87478" lon="-2.02801">
        <ele>2.3</ele>
        <time>2020-06-04T13:00:19Z</time>
      </trkpt>
      <trkpt lat="46.87478" lon="-2.02793">
        <ele>2.3</ele>
        <time>2020-06-04T13:00:20Z</time>
      </trkpt>
      <trkpt lat="46.8748" lon="-2.02784">
        <ele>2.3</ele>
        <time>2020-06-04T13:00:21Z</time>
      </trkpt>
      <trkpt lat="46.87481" lon="-2.02776">
        <ele>2.3</ele>
        <time>2020-06-04T13:00:22Z</time>
      </trkpt>
      <trkpt lat="46.87482" lon="-2.02768">
        <ele>2.3</ele>
        <time>2020-06-04T13:00:23Z</time>
      </trkpt>
      <trkpt lat="46.87484" lon="-2.02762">
        <ele>2.3</ele>
        <time>2020-06-04T13:00:24Z</time>
      </trkpt>
      <trkpt lat="46.87488" lon="-2.02755">
        <ele>2.3</ele>
        <time>2020-06-04T13:00:25Z</time>
      </trkpt>
      <trkpt lat="46.8749" lon="-2.02748">
        <ele>2.3</ele>
        <time>2020-06-04T13:00:26Z</time>
      </trkpt>
      <trkpt lat="46.87493" lon="-2.0274">
        <ele>2.3</ele>
        <time>2020-06-04T13:00:27Z</time>
      </trkpt>
      <trkpt lat="46.87496" lon="-2.02732">
        <ele>2.3</ele>
        <time>2020-06-04T13:00:28Z</time>
      </trkpt>
      <trkpt lat="46.87499" lon="-2.02724">
        <ele>2.3</ele>
        <time>2020-06-04T13:00:29Z</time>
      </trkpt>
      <trkpt lat="46.87501" lon="-2.02717">
        <ele>2.3</ele>
        <time>2020-06-04T13:00:30Z</time>
      </trkpt>
      <trkpt lat="46.87506" lon="-2.0271">
        <ele>2.3</ele>
        <time>2020-06-04T13:00:31Z</time>
      </trkpt>
      <trkpt lat="46.8751" lon="-2.02703">
        <ele>2.3</ele>
        <time>2020-06-04T13:00:32Z</time>
      </trkpt>
      <trkpt lat="46.87513" lon="-2.02697">
        <ele>2.3</ele>
        <time>2020-06-04T13:00:33Z</time>
      </trkpt>
      <trkpt lat="46.87517" lon="-2.02691">
        <ele>2.3</ele>
        <time>2020-06-04T13:00:34Z</time>
      </trkpt>
      <trkpt lat="46.8752" lon="-2.02686">
        <ele>2.3</ele>
        <time>2020-06-04T13:00:35Z</time>
      </trkpt>
      <trkpt lat="46.87523" lon="-2.02681">
        <ele>2.2</ele>
        <time>2020-06-04T13:00:36Z</time>
      </trkpt>
      <trkpt lat="46.87528" lon="-2.02674">
        <ele>2.2</ele>
        <time>2020-06-04T13:00:37Z</time>
      </trkpt>
      <trkpt lat="46.87531" lon="-2.02668">
        <ele>2.2</ele>
        <time>2020-06-04T13:00:38Z</time>
      </trkpt>
      <trkpt lat="46.87535" lon="-2.02662">
        <ele>2.1</ele>
        <time>2020-06-04T13:00:39Z</time>
      </trkpt>
      <trkpt lat="46.87539" lon="-2.02655">
        <ele>2.1</ele>
        <time>2020-06-04T13:00:40Z</time>
      </trkpt>
      <trkpt lat="46.87543" lon="-2.02648">
        <ele>2</ele>
        <time>2020-06-04T13:00:41Z</time>
      </trkpt>
      <trkpt lat="46.87547" lon="-2.02642">
        <ele>2</ele>
        <time>2020-06-04T13:00:42Z</time>
      </trkpt>
      <trkpt lat="46.87551" lon="-2.02635">
        <ele>1.9</ele>
        <time>2020-06-04T13:00:43Z</time>
      </trkpt>
      <trkpt lat="46.87554" lon="-2.0263">
        <ele>1.8</ele>
        <time>2020-06-04T13:00:44Z</time>
      </trkpt>
      <trkpt lat="46.87558" lon="-2.02623">
        <ele>1.8</ele>
        <time>2020-06-04T13:00:45Z</time>
      </trkpt>
      <trkpt lat="46.87561" lon="-2.02616">
        <ele>1.7</ele>
        <time>2020-06-04T13:00:46Z</time>
      </trkpt>
      <trkpt lat="46.87565" lon="-2.0261">
        <ele>1.6</ele>
        <time>2020-06-04T13:00:47Z</time>
      </trkpt>
      <trkpt lat="46.87568" lon="-2.02604">
        <ele>1.6</ele>
        <time>2020-06-04T13:00:48Z</time>
      </trkpt>
      <trkpt lat="46.87571" lon="-2.02597">
        <ele>1.6</ele>
        <time>2020-06-04T13:00:49Z</time>
      </trkpt>
      <trkpt lat="46.87575" lon="-2.02589">
        <ele>1.6</ele>
        <time>2020-06-04T13:00:50Z</time>
      </trkpt>
      <trkpt lat="46.87578" lon="-2.02585">
        <ele>1.6</ele>
        <time>2020-06-04T13:00:51Z</time>
      </trkpt>
      <trkpt lat="46.87581" lon="-2.02578">
        <ele>1.5</ele>
        <time>2020-06-04T13:00:52Z</time>
      </trkpt>
      <trkpt lat="46.87584" lon="-2.02571">
        <ele>1.5</ele>
        <time>2020-06-04T13:00:53Z</time>
      </trkpt>
      <trkpt lat="46.87587" lon="-2.02565">
        <ele>1.5</ele>
        <time>2020-06-04T13:00:54Z</time>
      </trkpt>
      <trkpt lat="46.87589" lon="-2.02558">
        <ele>1.5</ele>
        <time>2020-06-04T13:00:55Z</time>
      </trkpt>
      <trkpt lat="46.87591" lon="-2.02551">
        <ele>1.5</ele>
        <time>2020-06-04T13:00:56Z</time>
      </trkpt>
      <trkpt lat="46.87592" lon="-2.02544">
        <ele>1.5</ele>
        <time>2020-06-04T13:00:57Z</time>
      </trkpt>
      <trkpt lat="46.87593" lon="-2.02537">
        <ele>1.5</ele>
        <time>2020-06-04T13:00:58Z</time>
      </trkpt>
      <trkpt lat="46.87594" lon="-2.0253">
        <ele>1.5</ele>
        <time>2020-06-04T13:00:59Z</time>
      </trkpt>
      <trkpt lat="46.87595" lon="-2.02522">
        <ele>1.5</ele>
        <time>2020-06-04T13:01:00Z</time>
      </trkpt>
      <trkpt lat="46.87597" lon="-2.02517">
        <ele>1.5</ele>
        <time>2020-06-04T13:01:01Z</time>
      </trkpt>
      <trkpt lat="46.87598" lon="-2.0251">
        <ele>1.5</ele>
        <time>2020-06-04T13:01:02Z</time>
      </trkpt>
      <trkpt lat="46.876" lon="-2.02501">
        <ele>1.5</ele>
        <time>2020-06-04T13:01:03Z</time>
      </trkpt>
      <trkpt lat="46.87599" lon="-2.02491">
        <ele>1.5</ele>
        <time>2020-06-04T13:01:04Z</time>
      </trkpt>
      <trkpt lat="46.87601" lon="-2.02482">
        <ele>1.5</ele>
        <time>2020-06-04T13:01:05Z</time>
      </trkpt>
      <trkpt lat="46.87602" lon="-2.02473">
        <ele>1.6</ele>
        <time>2020-06-04T13:01:06Z</time>
      </trkpt>
      <trkpt lat="46.87603" lon="-2.02464">
        <ele>1.6</ele>
        <time>2020-06-04T13:01:07Z</time>
      </trkpt>
      <trkpt lat="46.87603" lon="-2.02454">
        <ele>1.6</ele>
        <time>2020-06-04T13:01:08Z</time>
      </trkpt>
      <trkpt lat="46.87604" lon="-2.02446">
        <ele>1.6</ele>
        <time>2020-06-04T13:01:09Z</time>
      </trkpt>
      <trkpt lat="46.87605" lon="-2.02437">
        <ele>1.6</ele>
        <time>2020-06-04T13:01:10Z</time>
      </trkpt>
      <trkpt lat="46.87606" lon="-2.02429">
        <ele>1.6</ele>
        <time>2020-06-04T13:01:11Z</time>
      </trkpt>
      <trkpt lat="46.87607" lon="-2.02421">
        <ele>1.6</ele>
        <time>2020-06-04T13:01:12Z</time>
      </trkpt>
      <trkpt lat="46.87608" lon="-2.02413">
        <ele>1.6</ele>
        <time>2020-06-04T13:01:13Z</time>
      </trkpt>
      <trkpt lat="46.87609" lon="-2.02404">
        <ele>1.6</ele>
        <time>2020-06-04T13:01:14Z</time>
      </trkpt>
      <trkpt lat="46.8761" lon="-2.02397">
        <ele>1.6</ele>
        <time>2020-06-04T13:01:15Z</time>
      </trkpt>
      <trkpt lat="46.87611" lon="-2.02389">
        <ele>1.5</ele>
        <time>2020-06-04T13:01:16Z</time>
      </trkpt>
      <trkpt lat="46.87613" lon="-2.02382">
        <ele>1.5</ele>
        <time>2020-06-04T13:01:17Z</time>
      </trkpt>
      <trkpt lat="46.87614" lon="-2.02374">
        <ele>1.5</ele>
        <time>2020-06-04T13:01:18Z</time>
      </trkpt>
      <trkpt lat="46.87615" lon="-2.02365">
        <ele>1.5</ele>
        <time>2020-06-04T13:01:19Z</time>
      </trkpt>
      <trkpt lat="46.87616" lon="-2.02357">
        <ele>1.5</ele>
        <time>2020-06-04T13:01:20Z</time>
      </trkpt>
      <trkpt lat="46.87618" lon="-2.02349">
        <ele>1.5</ele>
        <time>2020-06-04T13:01:21Z</time>
      </trkpt>
      <trkpt lat="46.87619" lon="-2.02341">
        <ele>1.5</ele>
        <time>2020-06-04T13:01:22Z</time>
      </trkpt>
      <trkpt lat="46.8762" lon="-2.02332">
        <ele>1.5</ele>
        <time>2020-06-04T13:01:23Z</time>
      </trkpt>
      <trkpt lat="46.87621" lon="-2.02323">
        <ele>1.5</ele>
        <time>2020-06-04T13:01:24Z</time>
      </trkpt>
      <trkpt lat="46.87622" lon="-2.02315">
        <ele>1.5</ele>
        <time>2020-06-04T13:01:25Z</time>
      </trkpt>
      <trkpt lat="46.87623" lon="-2.02307">
        <ele>1.6</ele>
        <time>2020-06-04T13:01:26Z</time>
      </trkpt>
      <trkpt lat="46.87623" lon="-2.02298">
        <ele>1.6</ele>
        <time>2020-06-04T13:01:27Z</time>
      </trkpt>
      <trkpt lat="46.87625" lon="-2.0229">
        <ele>1.6</ele>
        <time>2020-06-04T13:01:28Z</time>
      </trkpt>
      <trkpt lat="46.87625" lon="-2.02281">
        <ele>1.6</ele>
        <time>2020-06-04T13:01:29Z</time>
      </trkpt>
      <trkpt lat="46.87626" lon="-2.02273">
        <ele>1.6</ele>
        <time>2020-06-04T13:01:30Z</time>
      </trkpt>
      <trkpt lat="46.87628" lon="-2.02266">
        <ele>1.6</ele>
        <time>2020-06-04T13:01:31Z</time>
      </trkpt>
      <trkpt lat="46.87629" lon="-2.02257">
        <ele>1.7</ele>
        <time>2020-06-04T13:01:32Z</time>
      </trkpt>
      <trkpt lat="46.8763" lon="-2.02249">
        <ele>1.7</ele>
        <time>2020-06-04T13:01:33Z</time>
      </trkpt>
      <trkpt lat="46.87632" lon="-2.02242">
        <ele>1.7</ele>
        <time>2020-06-04T13:01:34Z</time>
      </trkpt>
      <trkpt lat="46.87633" lon="-2.02233">
        <ele>1.7</ele>
        <time>2020-06-04T13:01:35Z</time>
      </trkpt>
      <trkpt lat="46.87634" lon="-2.02225">
        <ele>1.7</ele>
        <time>2020-06-04T13:01:36Z</time>
      </trkpt>
      <trkpt lat="46.87636" lon="-2.02218">
        <ele>1.7</ele>
        <time>2020-06-04T13:01:37Z</time>
      </trkpt>
      <trkpt lat="46.87638" lon="-2.02211">
        <ele>1.7</ele>
        <time>2020-06-04T13:01:38Z</time>
      </trkpt>
      <trkpt lat="46.87639" lon="-2.02204">
        <ele>1.7</ele>
        <time>2020-06-04T13:01:39Z</time>
      </trkpt>
      <trkpt lat="46.87641" lon="-2.02196">
        <ele>1.7</ele>
        <time>2020-06-04T13:01:40Z</time>
      </trkpt>
      <trkpt lat="46.87644" lon="-2.02189">
        <ele>1.8</ele>
        <time>2020-06-04T13:01:41Z</time>
      </trkpt>
      <trkpt lat="46.87646" lon="-2.02183">
        <ele>1.8</ele>
        <time>2020-06-04T13:01:42Z</time>
      </trkpt>
      <trkpt lat="46.87647" lon="-2.02174">
        <ele>1.8</ele>
        <time>2020-06-04T13:01:43Z</time>
      </trkpt>
      <trkpt lat="46.87649" lon="-2.02167">
        <ele>1.8</ele>
        <time>2020-06-04T13:01:44Z</time>
      </trkpt>
      <trkpt lat="46.87652" lon="-2.02161">
        <ele>1.9</ele>
        <time>2020-06-04T13:01:45Z</time>
      </trkpt>
      <trkpt lat="46.87655" lon="-2.02156">
        <ele>1.9</ele>
        <time>2020-06-04T13:01:46Z</time>
      </trkpt>
      <trkpt lat="46.87657" lon="-2.02149">
        <ele>1.9</ele>
        <time>2020-06-04T13:01:47Z</time>
      </trkpt>
      <trkpt lat="46.8766" lon="-2.02142">
        <ele>1.9</ele>
        <time>2020-06-04T13:01:48Z</time>
      </trkpt>
      <trkpt lat="46.87662" lon="-2.02135">
        <ele>1.9</ele>
        <time>2020-06-04T13:01:49Z</time>
      </trkpt>
      <trkpt lat="46.87664" lon="-2.02128">
        <ele>1.9</ele>
        <time>2020-06-04T13:01:50Z</time>
      </trkpt>
      <trkpt lat="46.87666" lon="-2.0212">
        <ele>1.9</ele>
        <time>2020-06-04T13:01:51Z</time>
      </trkpt>
      <trkpt lat="46.87668" lon="-2.02114">
        <ele>1.9</ele>
        <time>2020-06-04T13:01:52Z</time>
      </trkpt>
      <trkpt lat="46.87671" lon="-2.02106">
        <ele>1.9</ele>
        <time>2020-06-04T13:01:53Z</time>
      </trkpt>
      <trkpt lat="46.87673" lon="-2.02098">
        <ele>1.8</ele>
        <time>2020-06-04T13:01:54Z</time>
      </trkpt>
      <trkpt lat="46.87675" lon="-2.0209">
        <ele>1.8</ele>
        <time>2020-06-04T13:01:55Z</time>
      </trkpt>
      <trkpt lat="46.87676" lon="-2.02083">
        <ele>1.8</ele>
        <time>2020-06-04T13:01:56Z</time>
      </trkpt>
      <trkpt lat="46.87679" lon="-2.02078">
        <ele>1.7</ele>
        <time>2020-06-04T13:01:57Z</time>
      </trkpt>
      <trkpt lat="46.87681" lon="-2.02069">
        <ele>1.7</ele>
        <time>2020-06-04T13:01:58Z</time>
      </trkpt>
      <trkpt lat="46.87684" lon="-2.02061">
        <ele>1.6</ele>
        <time>2020-06-04T13:01:59Z</time>
      </trkpt>
      <trkpt lat="46.87686" lon="-2.02052">
        <ele>1.6</ele>
        <time>2020-06-04T13:02:00Z</time>
      </trkpt>
      <trkpt lat="46.87689" lon="-2.02044">
        <ele>1.6</ele>
        <time>2020-06-04T13:02:01Z</time>
      </trkpt>
      <trkpt lat="46.8769" lon="-2.02036">
        <ele>1.6</ele>
        <time>2020-06-04T13:02:02Z</time>
      </trkpt>
      <trkpt lat="46.87692" lon="-2.02028">
        <ele>1.5</ele>
        <time>2020-06-04T13:02:03Z</time>
      </trkpt>
      <trkpt lat="46.87693" lon="-2.02021">
        <ele>1.5</ele>
        <time>2020-06-04T13:02:04Z</time>
      </trkpt>
      <trkpt lat="46.87693" lon="-2.02013">
        <ele>1.6</ele>
        <time>2020-06-04T13:02:05Z</time>
      </trkpt>
      <trkpt lat="46.87695" lon="-2.02006">
        <ele>1.6</ele>
        <time>2020-06-04T13:02:06Z</time>
      </trkpt>
      <trkpt lat="46.87698" lon="-2.01997">
        <ele>1.7</ele>
        <time>2020-06-04T13:02:07Z</time>
      </trkpt>
      <trkpt lat="46.87701" lon="-2.01991">
        <ele>1.7</ele>
        <time>2020-06-04T13:02:08Z</time>
      </trkpt>
      <trkpt lat="46.87705" lon="-2.01989">
        <ele>1.7</ele>
        <time>2020-06-04T13:02:09Z</time>
      </trkpt>
      <trkpt lat="46.8771" lon="-2.01987">
        <ele>1.7</ele>
        <time>2020-06-04T13:02:10Z</time>
      </trkpt>
      <trkpt lat="46.87714" lon="-2.01986">
        <ele>1.7</ele>
        <time>2020-06-04T13:02:11Z</time>
      </trkpt>
      <trkpt lat="46.87718" lon="-2.01983">
        <ele>1.7</ele>
        <time>2020-06-04T13:02:12Z</time>
      </trkpt>
      <trkpt lat="46.87721" lon="-2.01981">
        <ele>1.7</ele>
        <time>2020-06-04T13:02:13Z</time>
      </trkpt>
      <trkpt lat="46.87724" lon="-2.0198">
        <ele>1.7</ele>
        <time>2020-06-04T13:02:14Z</time>
      </trkpt>
      <trkpt lat="46.87728" lon="-2.0198">
        <ele>1.7</ele>
        <time>2020-06-04T13:02:15Z</time>
      </trkpt>
      <trkpt lat="46.87728" lon="-2.0198">
        <ele>1.7</ele>
        <time>2020-06-04T13:02:16Z</time>
      </trkpt>
      <trkpt lat="46.8773" lon="-2.01981">
        <ele>1.7</ele>
        <time>2020-06-04T13:02:17Z</time>
      </trkpt>
      <trkpt lat="46.8773" lon="-2.01981">
        <ele>1.7</ele>
        <time>2020-06-04T13:02:18Z</time>
      </trkpt>
      <trkpt lat="46.87731" lon="-2.01981">
        <ele>1.7</ele>
        <time>2020-06-04T13:02:19Z</time>
      </trkpt>
      <trkpt lat="46.87732" lon="-2.01981">
        <ele>1.7</ele>
        <time>2020-06-04T13:02:20Z</time>
      </trkpt>
      <trkpt lat="46.87736" lon="-2.01981">
        <ele>1.7</ele>
        <time>2020-06-04T13:02:21Z</time>
      </trkpt>
      <trkpt lat="46.87738" lon="-2.01981">
        <ele>1.7</ele>
        <time>2020-06-04T13:02:22Z</time>
      </trkpt>
      <trkpt lat="46.87741" lon="-2.0198">
        <ele>1.7</ele>
        <time>2020-06-04T13:02:23Z</time>
      </trkpt>
      <trkpt lat="46.87742" lon="-2.01979">
        <ele>1.7</ele>
        <time>2020-06-04T13:02:24Z</time>
      </trkpt>
      <trkpt lat="46.87746" lon="-2.01978">
        <ele>1.8</ele>
        <time>2020-06-04T13:02:25Z</time>
      </trkpt>
      <trkpt lat="46.87747" lon="-2.01978">
        <ele>1.8</ele>
        <time>2020-06-04T13:02:26Z</time>
      </trkpt>
      <trkpt lat="46.8775" lon="-2.01977">
        <ele>1.8</ele>
        <time>2020-06-04T13:02:27Z</time>
      </trkpt>
      <trkpt lat="46.87754" lon="-2.01976">
        <ele>1.8</ele>
        <time>2020-06-04T13:02:28Z</time>
      </trkpt>
      <trkpt lat="46.87755" lon="-2.01975">
        <ele>1.8</ele>
        <time>2020-06-04T13:02:29Z</time>
      </trkpt>
      <trkpt lat="46.87758" lon="-2.01975">
        <ele>1.8</ele>
        <time>2020-06-04T13:02:30Z</time>
      </trkpt>
      <trkpt lat="46.87759" lon="-2.01975">
        <ele>1.8</ele>
        <time>2020-06-04T13:02:31Z</time>
      </trkpt>
      <trkpt lat="46.8776" lon="-2.01976">
        <ele>1.8</ele>
        <time>2020-06-04T13:02:32Z</time>
      </trkpt>
      <trkpt lat="46.87761" lon="-2.01975">
        <ele>1.8</ele>
        <time>2020-06-04T13:02:33Z</time>
      </trkpt>
      <trkpt lat="46.87762" lon="-2.01975">
        <ele>1.8</ele>
        <time>2020-06-04T13:02:34Z</time>
      </trkpt>
      <trkpt lat="46.87763" lon="-2.01975">
        <ele>1.8</ele>
        <time>2020-06-04T13:02:35Z</time>
      </trkpt>
      <trkpt lat="46.87764" lon="-2.01974">
        <ele>1.8</ele>
        <time>2020-06-04T13:02:36Z</time>
      </trkpt>
      <trkpt lat="46.87764" lon="-2.01974">
        <ele>1.8</ele>
        <time>2020-06-04T13:02:37Z</time>
      </trkpt>
      <trkpt lat="46.87765" lon="-2.01974">
        <ele>1.8</ele>
        <time>2020-06-04T13:02:38Z</time>
      </trkpt>
      <trkpt lat="46.87766" lon="-2.01974">
        <ele>1.8</ele>
        <time>2020-06-04T13:02:39Z</time>
      </trkpt>
      <trkpt lat="46.87767" lon="-2.01974">
        <ele>1.8</ele>
        <time>2020-06-04T13:02:40Z</time>
      </trkpt>
      <trkpt lat="46.87767" lon="-2.01974">
        <ele>1.8</ele>
        <time>2020-06-04T13:02:41Z</time>
      </trkpt>
      <trkpt lat="46.87768" lon="-2.01973">
        <ele>1.8</ele>
        <time>2020-06-04T13:02:42Z</time>
      </trkpt>
      <trkpt lat="46.87769" lon="-2.01973">
        <ele>1.8</ele>
        <time>2020-06-04T13:02:43Z</time>
      </trkpt>
      <trkpt lat="46.8777" lon="-2.01973">
        <ele>1.8</ele>
        <time>2020-06-04T13:04:08Z</time>
      </trkpt>
      <trkpt lat="46.8777" lon="-2.01973">
        <ele>1.8</ele>
        <time>2020-06-04T13:04:09Z</time>
      </trkpt>
      <trkpt lat="46.87774" lon="-2.01974">
        <ele>1.8</ele>
        <time>2020-06-04T13:04:10Z</time>
      </trkpt>
      <trkpt lat="46.87775" lon="-2.01974">
        <ele>1.8</ele>
        <time>2020-06-04T13:04:11Z</time>
      </trkpt>
      <trkpt lat="46.87779" lon="-2.01973">
        <ele>1.8</ele>
        <time>2020-06-04T13:04:12Z</time>
      </trkpt>
      <trkpt lat="46.87783" lon="-2.01972">
        <ele>1.8</ele>
        <time>2020-06-04T13:04:13Z</time>
      </trkpt>
      <trkpt lat="46.87789" lon="-2.01972">
        <ele>1.9</ele>
        <time>2020-06-04T13:04:14Z</time>
      </trkpt>
      <trkpt lat="46.87795" lon="-2.0197">
        <ele>1.9</ele>
        <time>2020-06-04T13:04:15Z</time>
      </trkpt>
      <trkpt lat="46.878" lon="-2.01969">
        <ele>1.9</ele>
        <time>2020-06-04T13:04:16Z</time>
      </trkpt>
      <trkpt lat="46.87805" lon="-2.01966">
        <ele>1.9</ele>
        <time>2020-06-04T13:04:17Z</time>
      </trkpt>
      <trkpt lat="46.87809" lon="-2.01962">
        <ele>1.9</ele>
        <time>2020-06-04T13:04:18Z</time>
      </trkpt>
      <trkpt lat="46.87814" lon="-2.01959">
        <ele>1.9</ele>
        <time>2020-06-04T13:04:19Z</time>
      </trkpt>
      <trkpt lat="46.8782" lon="-2.01958">
        <ele>1.9</ele>
        <time>2020-06-04T13:04:20Z</time>
      </trkpt>
      <trkpt lat="46.87825" lon="-2.01956">
        <ele>2</ele>
        <time>2020-06-04T13:04:21Z</time>
      </trkpt>
      <trkpt lat="46.87831" lon="-2.01954">
        <ele>2</ele>
        <time>2020-06-04T13:04:22Z</time>
      </trkpt>
      <trkpt lat="46.87837" lon="-2.01953">
        <ele>2</ele>
        <time>2020-06-04T13:04:23Z</time>
      </trkpt>
      <trkpt lat="46.87843" lon="-2.0195">
        <ele>2</ele>
        <time>2020-06-04T13:04:24Z</time>
      </trkpt>
      <trkpt lat="46.8785" lon="-2.01948">
        <ele>2</ele>
        <time>2020-06-04T13:04:25Z</time>
      </trkpt>
      <trkpt lat="46.87856" lon="-2.01947">
        <ele>2</ele>
        <time>2020-06-04T13:04:26Z</time>
      </trkpt>
      <trkpt lat="46.87861" lon="-2.01945">
        <ele>2</ele>
        <time>2020-06-04T13:04:27Z</time>
      </trkpt>
      <trkpt lat="46.87866" lon="-2.01943">
        <ele>2</ele>
        <time>2020-06-04T13:04:28Z</time>
      </trkpt>
      <trkpt lat="46.87872" lon="-2.0194">
        <ele>2</ele>
        <time>2020-06-04T13:04:29Z</time>
      </trkpt>
      <trkpt lat="46.87876" lon="-2.01938">
        <ele>2.1</ele>
        <time>2020-06-04T13:04:30Z</time>
      </trkpt>
      <trkpt lat="46.87881" lon="-2.01935">
        <ele>2.1</ele>
        <time>2020-06-04T13:04:31Z</time>
      </trkpt>
      <trkpt lat="46.87885" lon="-2.01932">
        <ele>2.1</ele>
        <time>2020-06-04T13:04:32Z</time>
      </trkpt>
      <trkpt lat="46.8789" lon="-2.01929">
        <ele>2.1</ele>
        <time>2020-06-04T13:04:33Z</time>
      </trkpt>
      <trkpt lat="46.87894" lon="-2.01925">
        <ele>2.1</ele>
        <time>2020-06-04T13:04:34Z</time>
      </trkpt>
      <trkpt lat="46.87898" lon="-2.01921">
        <ele>2.1</ele>
        <time>2020-06-04T13:04:35Z</time>
      </trkpt>
      <trkpt lat="46.87902" lon="-2.01918">
        <ele>2.1</ele>
        <time>2020-06-04T13:04:36Z</time>
      </trkpt>
      <trkpt lat="46.87906" lon="-2.01915">
        <ele>2.1</ele>
        <time>2020-06-04T13:04:37Z</time>
      </trkpt>
      <trkpt lat="46.87909" lon="-2.01912">
        <ele>2.1</ele>
        <time>2020-06-04T13:04:38Z</time>
      </trkpt>
      <trkpt lat="46.87912" lon="-2.0191">
        <ele>2.1</ele>
        <time>2020-06-04T13:04:39Z</time>
      </trkpt>
      <trkpt lat="46.87916" lon="-2.01908">
        <ele>2.2</ele>
        <time>2020-06-04T13:04:40Z</time>
      </trkpt>
      <trkpt lat="46.87919" lon="-2.01906">
        <ele>2.2</ele>
        <time>2020-06-04T13:04:41Z</time>
      </trkpt>
      <trkpt lat="46.87922" lon="-2.01905">
        <ele>2.2</ele>
        <time>2020-06-04T13:04:42Z</time>
      </trkpt>
      <trkpt lat="46.87925" lon="-2.01904">
        <ele>2.2</ele>
        <time>2020-06-04T13:04:43Z</time>
      </trkpt>
      <trkpt lat="46.87928" lon="-2.01904">
        <ele>2.2</ele>
        <time>2020-06-04T13:04:44Z</time>
      </trkpt>
      <trkpt lat="46.87931" lon="-2.01908">
        <ele>2.2</ele>
        <time>2020-06-04T13:04:45Z</time>
      </trkpt>
      <trkpt lat="46.87931" lon="-2.0191">
        <ele>2.2</ele>
        <time>2020-06-04T13:04:46Z</time>
      </trkpt>
      <trkpt lat="46.87932" lon="-2.01914">
        <ele>2.2</ele>
        <time>2020-06-04T13:04:47Z</time>
      </trkpt>
      <trkpt lat="46.87933" lon="-2.0192">
        <ele>2.2</ele>
        <time>2020-06-04T13:04:48Z</time>
      </trkpt>
      <trkpt lat="46.87933" lon="-2.01927">
        <ele>2.1</ele>
        <time>2020-06-04T13:04:49Z</time>
      </trkpt>
      <trkpt lat="46.87934" lon="-2.01933">
        <ele>2.1</ele>
        <time>2020-06-04T13:04:50Z</time>
      </trkpt>
      <trkpt lat="46.87934" lon="-2.01939">
        <ele>2.1</ele>
        <time>2020-06-04T13:04:51Z</time>
      </trkpt>
      <trkpt lat="46.87934" lon="-2.01945">
        <ele>2.1</ele>
        <time>2020-06-04T13:04:52Z</time>
      </trkpt>
      <trkpt lat="46.87934" lon="-2.01952">
        <ele>2.1</ele>
        <time>2020-06-04T13:04:53Z</time>
      </trkpt>
      <trkpt lat="46.87935" lon="-2.01958">
        <ele>2</ele>
        <time>2020-06-04T13:04:54Z</time>
      </trkpt>
      <trkpt lat="46.87935" lon="-2.01965">
        <ele>2</ele>
        <time>2020-06-04T13:04:55Z</time>
      </trkpt>
      <trkpt lat="46.87935" lon="-2.01971">
        <ele>2</ele>
        <time>2020-06-04T13:04:56Z</time>
      </trkpt>
      <trkpt lat="46.87935" lon="-2.01978">
        <ele>2</ele>
        <time>2020-06-04T13:04:57Z</time>
      </trkpt>
      <trkpt lat="46.87936" lon="-2.01985">
        <ele>2</ele>
        <time>2020-06-04T13:04:58Z</time>
      </trkpt>
      <trkpt lat="46.87936" lon="-2.01993">
        <ele>1.9</ele>
        <time>2020-06-04T13:04:59Z</time>
      </trkpt>
      <trkpt lat="46.87936" lon="-2.01999">
        <ele>1.9</ele>
        <time>2020-06-04T13:05:00Z</time>
      </trkpt>
      <trkpt lat="46.87937" lon="-2.02006">
        <ele>1.9</ele>
        <time>2020-06-04T13:05:01Z</time>
      </trkpt>
      <trkpt lat="46.87937" lon="-2.02014">
        <ele>1.9</ele>
        <time>2020-06-04T13:05:02Z</time>
      </trkpt>
      <trkpt lat="46.87937" lon="-2.02022">
        <ele>1.8</ele>
        <time>2020-06-04T13:05:03Z</time>
      </trkpt>
      <trkpt lat="46.87937" lon="-2.02029">
        <ele>1.8</ele>
        <time>2020-06-04T13:05:04Z</time>
      </trkpt>
      <trkpt lat="46.87938" lon="-2.02036">
        <ele>1.8</ele>
        <time>2020-06-04T13:05:05Z</time>
      </trkpt>
      <trkpt lat="46.87938" lon="-2.02043">
        <ele>1.8</ele>
        <time>2020-06-04T13:05:06Z</time>
      </trkpt>
      <trkpt lat="46.87938" lon="-2.0205">
        <ele>1.8</ele>
        <time>2020-06-04T13:05:07Z</time>
      </trkpt>
      <trkpt lat="46.87938" lon="-2.02056">
        <ele>1.8</ele>
        <time>2020-06-04T13:05:08Z</time>
      </trkpt>
      <trkpt lat="46.87939" lon="-2.02063">
        <ele>1.8</ele>
        <time>2020-06-04T13:05:09Z</time>
      </trkpt>
      <trkpt lat="46.87939" lon="-2.02069">
        <ele>1.7</ele>
        <time>2020-06-04T13:05:10Z</time>
      </trkpt>
      <trkpt lat="46.87939" lon="-2.02076">
        <ele>1.7</ele>
        <time>2020-06-04T13:05:11Z</time>
      </trkpt>
      <trkpt lat="46.8794" lon="-2.02083">
        <ele>1.7</ele>
        <time>2020-06-04T13:05:12Z</time>
      </trkpt>
      <trkpt lat="46.8794" lon="-2.02089">
        <ele>1.7</ele>
        <time>2020-06-04T13:05:13Z</time>
      </trkpt>
      <trkpt lat="46.8794" lon="-2.02094">
        <ele>1.7</ele>
        <time>2020-06-04T13:05:14Z</time>
      </trkpt>
      <trkpt lat="46.8794" lon="-2.02101">
        <ele>1.7</ele>
        <time>2020-06-04T13:05:15Z</time>
      </trkpt>
      <trkpt lat="46.8794" lon="-2.0211">
        <ele>1.6</ele>
        <time>2020-06-04T13:05:16Z</time>
      </trkpt>
      <trkpt lat="46.8794" lon="-2.02117">
        <ele>1.6</ele>
        <time>2020-06-04T13:05:17Z</time>
      </trkpt>
      <trkpt lat="46.8794" lon="-2.02125">
        <ele>1.6</ele>
        <time>2020-06-04T13:05:18Z</time>
      </trkpt>
      <trkpt lat="46.8794" lon="-2.02133">
        <ele>1.6</ele>
        <time>2020-06-04T13:05:19Z</time>
      </trkpt>
      <trkpt lat="46.8794" lon="-2.02139">
        <ele>1.6</ele>
        <time>2020-06-04T13:05:20Z</time>
      </trkpt>
      <trkpt lat="46.8794" lon="-2.02145">
        <ele>1.6</ele>
        <time>2020-06-04T13:05:21Z</time>
      </trkpt>
      <trkpt lat="46.8794" lon="-2.02152">
        <ele>1.5</ele>
        <time>2020-06-04T13:05:22Z</time>
      </trkpt>
      <trkpt lat="46.8794" lon="-2.0216">
        <ele>1.5</ele>
        <time>2020-06-04T13:05:23Z</time>
      </trkpt>
      <trkpt lat="46.8794" lon="-2.02166">
        <ele>1.5</ele>
        <time>2020-06-04T13:05:24Z</time>
      </trkpt>
      <trkpt lat="46.87941" lon="-2.02173">
        <ele>1.5</ele>
        <time>2020-06-04T13:05:25Z</time>
      </trkpt>
      <trkpt lat="46.87942" lon="-2.0218">
        <ele>1.5</ele>
        <time>2020-06-04T13:05:26Z</time>
      </trkpt>
      <trkpt lat="46.87943" lon="-2.02187">
        <ele>1.5</ele>
        <time>2020-06-04T13:05:27Z</time>
      </trkpt>
      <trkpt lat="46.87944" lon="-2.02195">
        <ele>1.4</ele>
        <time>2020-06-04T13:05:28Z</time>
      </trkpt>
      <trkpt lat="46.87945" lon="-2.02203">
        <ele>1.4</ele>
        <time>2020-06-04T13:05:29Z</time>
      </trkpt>
      <trkpt lat="46.87946" lon="-2.02211">
        <ele>1.4</ele>
        <time>2020-06-04T13:05:30Z</time>
      </trkpt>
      <trkpt lat="46.87948" lon="-2.02219">
        <ele>1.4</ele>
        <time>2020-06-04T13:05:31Z</time>
      </trkpt>
      <trkpt lat="46.87949" lon="-2.02226">
        <ele>1.4</ele>
        <time>2020-06-04T13:05:32Z</time>
      </trkpt>
      <trkpt lat="46.8795" lon="-2.02233">
        <ele>1.3</ele>
        <time>2020-06-04T13:05:33Z</time>
      </trkpt>
      <trkpt lat="46.87951" lon="-2.0224">
        <ele>1.3</ele>
        <time>2020-06-04T13:05:34Z</time>
      </trkpt>
      <trkpt lat="46.87952" lon="-2.02248">
        <ele>1.3</ele>
        <time>2020-06-04T13:05:35Z</time>
      </trkpt>
      <trkpt lat="46.87953" lon="-2.02254">
        <ele>1.3</ele>
        <time>2020-06-04T13:05:36Z</time>
      </trkpt>
      <trkpt lat="46.87954" lon="-2.02261">
        <ele>1.3</ele>
        <time>2020-06-04T13:05:37Z</time>
      </trkpt>
      <trkpt lat="46.87955" lon="-2.02269">
        <ele>1.2</ele>
        <time>2020-06-04T13:05:38Z</time>
      </trkpt>
      <trkpt lat="46.87956" lon="-2.02276">
        <ele>1.2</ele>
        <time>2020-06-04T13:05:39Z</time>
      </trkpt>
      <trkpt lat="46.87957" lon="-2.02284">
        <ele>1.2</ele>
        <time>2020-06-04T13:05:40Z</time>
      </trkpt>
      <trkpt lat="46.87958" lon="-2.02292">
        <ele>1.2</ele>
        <time>2020-06-04T13:05:41Z</time>
      </trkpt>
      <trkpt lat="46.87961" lon="-2.02299">
        <ele>1.2</ele>
        <time>2020-06-04T13:05:42Z</time>
      </trkpt>
      <trkpt lat="46.87963" lon="-2.02305">
        <ele>1.1</ele>
        <time>2020-06-04T13:05:43Z</time>
      </trkpt>
      <trkpt lat="46.87966" lon="-2.02311">
        <ele>1.1</ele>
        <time>2020-06-04T13:05:44Z</time>
      </trkpt>
      <trkpt lat="46.87968" lon="-2.02319">
        <ele>1.1</ele>
        <time>2020-06-04T13:05:45Z</time>
      </trkpt>
      <trkpt lat="46.8797" lon="-2.02326">
        <ele>1.1</ele>
        <time>2020-06-04T13:05:46Z</time>
      </trkpt>
      <trkpt lat="46.87973" lon="-2.02333">
        <ele>1.1</ele>
        <time>2020-06-04T13:05:47Z</time>
      </trkpt>
      <trkpt lat="46.87976" lon="-2.0234">
        <ele>1.1</ele>
        <time>2020-06-04T13:05:48Z</time>
      </trkpt>
      <trkpt lat="46.87978" lon="-2.02347">
        <ele>1.1</ele>
        <time>2020-06-04T13:05:49Z</time>
      </trkpt>
      <trkpt lat="46.87981" lon="-2.02354">
        <ele>1.1</ele>
        <time>2020-06-04T13:05:50Z</time>
      </trkpt>
      <trkpt lat="46.87982" lon="-2.02361">
        <ele>1.1</ele>
        <time>2020-06-04T13:05:51Z</time>
      </trkpt>
      <trkpt lat="46.87984" lon="-2.02367">
        <ele>1.1</ele>
        <time>2020-06-04T13:05:52Z</time>
      </trkpt>
      <trkpt lat="46.87986" lon="-2.02375">
        <ele>1.1</ele>
        <time>2020-06-04T13:05:53Z</time>
      </trkpt>
      <trkpt lat="46.87989" lon="-2.02382">
        <ele>1.1</ele>
        <time>2020-06-04T13:05:54Z</time>
      </trkpt>
      <trkpt lat="46.87991" lon="-2.02389">
        <ele>1.1</ele>
        <time>2020-06-04T13:05:55Z</time>
      </trkpt>
      <trkpt lat="46.87993" lon="-2.02397">
        <ele>1.1</ele>
        <time>2020-06-04T13:05:56Z</time>
      </trkpt>
      <trkpt lat="46.87995" lon="-2.02406">
        <ele>1</ele>
        <time>2020-06-04T13:05:57Z</time>
      </trkpt>
      <trkpt lat="46.87997" lon="-2.02413">
        <ele>1</ele>
        <time>2020-06-04T13:05:58Z</time>
      </trkpt>
      <trkpt lat="46.87998" lon="-2.0242">
        <ele>1</ele>
        <time>2020-06-04T13:05:59Z</time>
      </trkpt>
      <trkpt lat="46.88" lon="-2.02428">
        <ele>1</ele>
        <time>2020-06-04T13:06:00Z</time>
      </trkpt>
      <trkpt lat="46.88001" lon="-2.02436">
        <ele>1</ele>
        <time>2020-06-04T13:06:01Z</time>
      </trkpt>
      <trkpt lat="46.88003" lon="-2.02443">
        <ele>1</ele>
        <time>2020-06-04T13:06:02Z</time>
      </trkpt>
      <trkpt lat="46.88005" lon="-2.0245">
        <ele>1</ele>
        <time>2020-06-04T13:06:03Z</time>
      </trkpt>
      <trkpt lat="46.88006" lon="-2.02457">
        <ele>1</ele>
        <time>2020-06-04T13:06:04Z</time>
      </trkpt>
      <trkpt lat="46.88007" lon="-2.02464">
        <ele>1</ele>
        <time>2020-06-04T13:06:05Z</time>
      </trkpt>
      <trkpt lat="46.88009" lon="-2.02471">
        <ele>1</ele>
        <time>2020-06-04T13:06:06Z</time>
      </trkpt>
      <trkpt lat="46.8801" lon="-2.02477">
        <ele>1</ele>
        <time>2020-06-04T13:06:07Z</time>
      </trkpt>
      <trkpt lat="46.88012" lon="-2.02484">
        <ele>1</ele>
        <time>2020-06-04T13:06:08Z</time>
      </trkpt>
      <trkpt lat="46.88014" lon="-2.0249">
        <ele>1</ele>
        <time>2020-06-04T13:06:09Z</time>
      </trkpt>
      <trkpt lat="46.88016" lon="-2.02497">
        <ele>1</ele>
        <time>2020-06-04T13:06:10Z</time>
      </trkpt>
      <trkpt lat="46.88017" lon="-2.02503">
        <ele>1</ele>
        <time>2020-06-04T13:06:11Z</time>
      </trkpt>
      <trkpt lat="46.88019" lon="-2.02509">
        <ele>1</ele>
        <time>2020-06-04T13:06:12Z</time>
      </trkpt>
      <trkpt lat="46.8802" lon="-2.02514">
        <ele>1</ele>
        <time>2020-06-04T13:06:13Z</time>
      </trkpt>
      <trkpt lat="46.88022" lon="-2.02518">
        <ele>1</ele>
        <time>2020-06-04T13:06:14Z</time>
      </trkpt>
      <trkpt lat="46.88024" lon="-2.02523">
        <ele>1</ele>
        <time>2020-06-04T13:06:15Z</time>
      </trkpt>
      <trkpt lat="46.88025" lon="-2.02527">
        <ele>1</ele>
        <time>2020-06-04T13:06:16Z</time>
      </trkpt>
      <trkpt lat="46.88027" lon="-2.0253">
        <ele>1</ele>
        <time>2020-06-04T13:06:17Z</time>
      </trkpt>
      <trkpt lat="46.88029" lon="-2.02535">
        <ele>1</ele>
        <time>2020-06-04T13:06:18Z</time>
      </trkpt>
      <trkpt lat="46.88031" lon="-2.02538">
        <ele>1</ele>
        <time>2020-06-04T13:06:19Z</time>
      </trkpt>
      <trkpt lat="46.88034" lon="-2.02541">
        <ele>1</ele>
        <time>2020-06-04T13:06:20Z</time>
      </trkpt>
      <trkpt lat="46.88036" lon="-2.02544">
        <ele>1</ele>
        <time>2020-06-04T13:06:21Z</time>
      </trkpt>
      <trkpt lat="46.8804" lon="-2.02544">
        <ele>1.1</ele>
        <time>2020-06-04T13:06:22Z</time>
      </trkpt>
      <trkpt lat="46.88043" lon="-2.02543">
        <ele>1.1</ele>
        <time>2020-06-04T13:06:23Z</time>
      </trkpt>
      <trkpt lat="46.88047" lon="-2.02543">
        <ele>1.1</ele>
        <time>2020-06-04T13:06:24Z</time>
      </trkpt>
      <trkpt lat="46.88052" lon="-2.02543">
        <ele>1.1</ele>
        <time>2020-06-04T13:06:25Z</time>
      </trkpt>
      <trkpt lat="46.88056" lon="-2.02543">
        <ele>1.1</ele>
        <time>2020-06-04T13:06:26Z</time>
      </trkpt>
      <trkpt lat="46.8806" lon="-2.02543">
        <ele>1.1</ele>
        <time>2020-06-04T13:06:27Z</time>
      </trkpt>
      <trkpt lat="46.88065" lon="-2.02543">
        <ele>1.1</ele>
        <time>2020-06-04T13:06:28Z</time>
      </trkpt>
      <trkpt lat="46.88069" lon="-2.02543">
        <ele>1.1</ele>
        <time>2020-06-04T13:06:29Z</time>
      </trkpt>
      <trkpt lat="46.88073" lon="-2.02543">
        <ele>1.1</ele>
        <time>2020-06-04T13:06:30Z</time>
      </trkpt>
      <trkpt lat="46.88078" lon="-2.02542">
        <ele>1.1</ele>
        <time>2020-06-04T13:06:31Z</time>
      </trkpt>
      <trkpt lat="46.88083" lon="-2.02542">
        <ele>1.1</ele>
        <time>2020-06-04T13:06:32Z</time>
      </trkpt>
      <trkpt lat="46.88087" lon="-2.02542">
        <ele>1.1</ele>
        <time>2020-06-04T13:06:33Z</time>
      </trkpt>
      <trkpt lat="46.88092" lon="-2.02542">
        <ele>1.1</ele>
        <time>2020-06-04T13:06:34Z</time>
      </trkpt>
      <trkpt lat="46.88096" lon="-2.02541">
        <ele>1.1</ele>
        <time>2020-06-04T13:06:35Z</time>
      </trkpt>
      <trkpt lat="46.881" lon="-2.02541">
        <ele>1.1</ele>
        <time>2020-06-04T13:06:36Z</time>
      </trkpt>
      <trkpt lat="46.88105" lon="-2.02541">
        <ele>1.1</ele>
        <time>2020-06-04T13:06:37Z</time>
      </trkpt>
      <trkpt lat="46.8811" lon="-2.02541">
        <ele>1.1</ele>
        <time>2020-06-04T13:06:38Z</time>
      </trkpt>
      <trkpt lat="46.88114" lon="-2.02542">
        <ele>1.1</ele>
        <time>2020-06-04T13:06:39Z</time>
      </trkpt>
      <trkpt lat="46.88119" lon="-2.02542">
        <ele>1.2</ele>
        <time>2020-06-04T13:06:40Z</time>
      </trkpt>
      <trkpt lat="46.88125" lon="-2.02543">
        <ele>1.2</ele>
        <time>2020-06-04T13:06:41Z</time>
      </trkpt>
      <trkpt lat="46.88131" lon="-2.02544">
        <ele>1.2</ele>
        <time>2020-06-04T13:06:42Z</time>
      </trkpt>
      <trkpt lat="46.88136" lon="-2.02543">
        <ele>1.3</ele>
        <time>2020-06-04T13:06:43Z</time>
      </trkpt>
      <trkpt lat="46.88141" lon="-2.02542">
        <ele>1.3</ele>
        <time>2020-06-04T13:06:44Z</time>
      </trkpt>
      <trkpt lat="46.88146" lon="-2.02539">
        <ele>1.4</ele>
        <time>2020-06-04T13:06:45Z</time>
      </trkpt>
      <trkpt lat="46.88152" lon="-2.02538">
        <ele>1.4</ele>
        <time>2020-06-04T13:06:46Z</time>
      </trkpt>
      <trkpt lat="46.88158" lon="-2.02537">
        <ele>1.4</ele>
        <time>2020-06-04T13:06:47Z</time>
      </trkpt>
      <trkpt lat="46.88163" lon="-2.02535">
        <ele>1.5</ele>
        <time>2020-06-04T13:06:48Z</time>
      </trkpt>
      <trkpt lat="46.88169" lon="-2.02534">
        <ele>1.5</ele>
        <time>2020-06-04T13:06:49Z</time>
      </trkpt>
      <trkpt lat="46.88174" lon="-2.02534">
        <ele>1.5</ele>
        <time>2020-06-04T13:06:50Z</time>
      </trkpt>
      <trkpt lat="46.88179" lon="-2.02533">
        <ele>1.6</ele>
        <time>2020-06-04T13:06:51Z</time>
      </trkpt>
      <trkpt lat="46.88184" lon="-2.02532">
        <ele>1.6</ele>
        <time>2020-06-04T13:06:52Z</time>
      </trkpt>
      <trkpt lat="46.88188" lon="-2.02531">
        <ele>1.6</ele>
        <time>2020-06-04T13:06:53Z</time>
      </trkpt>
      <trkpt lat="46.88194" lon="-2.02529">
        <ele>1.7</ele>
        <time>2020-06-04T13:06:54Z</time>
      </trkpt>
      <trkpt lat="46.88199" lon="-2.02527">
        <ele>1.7</ele>
        <time>2020-06-04T13:06:55Z</time>
      </trkpt>
      <trkpt lat="46.88205" lon="-2.02525">
        <ele>1.7</ele>
        <time>2020-06-04T13:06:56Z</time>
      </trkpt>
      <trkpt lat="46.8821" lon="-2.02521">
        <ele>1.7</ele>
        <time>2020-06-04T13:06:57Z</time>
      </trkpt>
      <trkpt lat="46.88216" lon="-2.02518">
        <ele>1.8</ele>
        <time>2020-06-04T13:06:58Z</time>
      </trkpt>
      <trkpt lat="46.88221" lon="-2.02515">
        <ele>1.8</ele>
        <time>2020-06-04T13:06:59Z</time>
      </trkpt>
      <trkpt lat="46.88227" lon="-2.02512">
        <ele>1.8</ele>
        <time>2020-06-04T13:07:00Z</time>
      </trkpt>
      <trkpt lat="46.88232" lon="-2.02511">
        <ele>1.8</ele>
        <time>2020-06-04T13:07:01Z</time>
      </trkpt>
      <trkpt lat="46.88237" lon="-2.02509">
        <ele>1.8</ele>
        <time>2020-06-04T13:07:02Z</time>
      </trkpt>
      <trkpt lat="46.88243" lon="-2.02506">
        <ele>1.8</ele>
        <time>2020-06-04T13:07:03Z</time>
      </trkpt>
      <trkpt lat="46.88248" lon="-2.02502">
        <ele>1.8</ele>
        <time>2020-06-04T13:07:04Z</time>
      </trkpt>
      <trkpt lat="46.88253" lon="-2.02499">
        <ele>1.8</ele>
        <time>2020-06-04T13:07:05Z</time>
      </trkpt>
      <trkpt lat="46.88258" lon="-2.02496">
        <ele>1.8</ele>
        <time>2020-06-04T13:07:06Z</time>
      </trkpt>
      <trkpt lat="46.88263" lon="-2.02492">
        <ele>1.8</ele>
        <time>2020-06-04T13:07:07Z</time>
      </trkpt>
      <trkpt lat="46.88268" lon="-2.02489">
        <ele>1.9</ele>
        <time>2020-06-04T13:07:08Z</time>
      </trkpt>
      <trkpt lat="46.88274" lon="-2.02486">
        <ele>1.9</ele>
        <time>2020-06-04T13:07:09Z</time>
      </trkpt>
      <trkpt lat="46.88278" lon="-2.02484">
        <ele>1.9</ele>
        <time>2020-06-04T13:07:10Z</time>
      </trkpt>
      <trkpt lat="46.88284" lon="-2.02481">
        <ele>2</ele>
        <time>2020-06-04T13:07:11Z</time>
      </trkpt>
      <trkpt lat="46.88289" lon="-2.02478">
        <ele>2.1</ele>
        <time>2020-06-04T13:07:12Z</time>
      </trkpt>
      <trkpt lat="46.88295" lon="-2.02476">
        <ele>2.1</ele>
        <time>2020-06-04T13:07:13Z</time>
      </trkpt>
      <trkpt lat="46.883" lon="-2.02474">
        <ele>2.2</ele>
        <time>2020-06-04T13:07:14Z</time>
      </trkpt>
      <trkpt lat="46.88306" lon="-2.02471">
        <ele>2.2</ele>
        <time>2020-06-04T13:07:15Z</time>
      </trkpt>
      <trkpt lat="46.88311" lon="-2.02469">
        <ele>2.3</ele>
        <time>2020-06-04T13:07:16Z</time>
      </trkpt>
      <trkpt lat="46.88317" lon="-2.02466">
        <ele>2.4</ele>
        <time>2020-06-04T13:07:17Z</time>
      </trkpt>
      <trkpt lat="46.88322" lon="-2.02465">
        <ele>2.4</ele>
        <time>2020-06-04T13:07:18Z</time>
      </trkpt>
      <trkpt lat="46.88327" lon="-2.02462">
        <ele>2.4</ele>
        <time>2020-06-04T13:07:19Z</time>
      </trkpt>
      <trkpt lat="46.88332" lon="-2.0246">
        <ele>2.5</ele>
        <time>2020-06-04T13:07:20Z</time>
      </trkpt>
      <trkpt lat="46.88337" lon="-2.02458">
        <ele>2.5</ele>
        <time>2020-06-04T13:07:21Z</time>
      </trkpt>
      <trkpt lat="46.88342" lon="-2.02456">
        <ele>2.5</ele>
        <time>2020-06-04T13:07:22Z</time>
      </trkpt>
      <trkpt lat="46.88348" lon="-2.02454">
        <ele>2.6</ele>
        <time>2020-06-04T13:07:23Z</time>
      </trkpt>
      <trkpt lat="46.88353" lon="-2.02452">
        <ele>2.6</ele>
        <time>2020-06-04T13:07:24Z</time>
      </trkpt>
      <trkpt lat="46.88357" lon="-2.0245">
        <ele>2.7</ele>
        <time>2020-06-04T13:07:25Z</time>
      </trkpt>
      <trkpt lat="46.88362" lon="-2.02446">
        <ele>2.7</ele>
        <time>2020-06-04T13:07:26Z</time>
      </trkpt>
      <trkpt lat="46.88366" lon="-2.02444">
        <ele>2.7</ele>
        <time>2020-06-04T13:07:27Z</time>
      </trkpt>
      <trkpt lat="46.88371" lon="-2.02442">
        <ele>2.8</ele>
        <time>2020-06-04T13:07:28Z</time>
      </trkpt>
      <trkpt lat="46.88375" lon="-2.02439">
        <ele>2.8</ele>
        <time>2020-06-04T13:07:29Z</time>
      </trkpt>
      <trkpt lat="46.88379" lon="-2.02437">
        <ele>2.8</ele>
        <time>2020-06-04T13:07:30Z</time>
      </trkpt>
      <trkpt lat="46.88384" lon="-2.02434">
        <ele>2.9</ele>
        <time>2020-06-04T13:07:31Z</time>
      </trkpt>
      <trkpt lat="46.88388" lon="-2.02432">
        <ele>2.9</ele>
        <time>2020-06-04T13:07:32Z</time>
      </trkpt>
      <trkpt lat="46.88393" lon="-2.0243">
        <ele>2.9</ele>
        <time>2020-06-04T13:07:33Z</time>
      </trkpt>
      <trkpt lat="46.88397" lon="-2.02427">
        <ele>3</ele>
        <time>2020-06-04T13:07:34Z</time>
      </trkpt>
      <trkpt lat="46.88402" lon="-2.02424">
        <ele>3</ele>
        <time>2020-06-04T13:07:35Z</time>
      </trkpt>
      <trkpt lat="46.88407" lon="-2.02421">
        <ele>3.1</ele>
        <time>2020-06-04T13:07:36Z</time>
      </trkpt>
      <trkpt lat="46.88411" lon="-2.02419">
        <ele>3.2</ele>
        <time>2020-06-04T13:07:37Z</time>
      </trkpt>
      <trkpt lat="46.88415" lon="-2.02416">
        <ele>3.3</ele>
        <time>2020-06-04T13:07:38Z</time>
      </trkpt>
      <trkpt lat="46.8842" lon="-2.02414">
        <ele>3.4</ele>
        <time>2020-06-04T13:07:39Z</time>
      </trkpt>
      <trkpt lat="46.88425" lon="-2.02412">
        <ele>3.4</ele>
        <time>2020-06-04T13:07:40Z</time>
      </trkpt>
      <trkpt lat="46.8843" lon="-2.0241">
        <ele>3.5</ele>
        <time>2020-06-04T13:07:41Z</time>
      </trkpt>
      <trkpt lat="46.88435" lon="-2.02408">
        <ele>3.6</ele>
        <time>2020-06-04T13:07:42Z</time>
      </trkpt>
      <trkpt lat="46.8844" lon="-2.02406">
        <ele>3.7</ele>
        <time>2020-06-04T13:07:43Z</time>
      </trkpt>
      <trkpt lat="46.88445" lon="-2.02404">
        <ele>3.8</ele>
        <time>2020-06-04T13:07:44Z</time>
      </trkpt>
      <trkpt lat="46.8845" lon="-2.02403">
        <ele>3.8</ele>
        <time>2020-06-04T13:07:45Z</time>
      </trkpt>
      <trkpt lat="46.88455" lon="-2.02401">
        <ele>3.9</ele>
        <time>2020-06-04T13:07:46Z</time>
      </trkpt>
      <trkpt lat="46.8846" lon="-2.02399">
        <ele>3.9</ele>
        <time>2020-06-04T13:07:47Z</time>
      </trkpt>
      <trkpt lat="46.88464" lon="-2.02398">
        <ele>4</ele>
        <time>2020-06-04T13:07:48Z</time>
      </trkpt>
      <trkpt lat="46.88468" lon="-2.02396">
        <ele>4</ele>
        <time>2020-06-04T13:07:49Z</time>
      </trkpt>
      <trkpt lat="46.88473" lon="-2.02393">
        <ele>4.1</ele>
        <time>2020-06-04T13:07:50Z</time>
      </trkpt>
      <trkpt lat="46.88477" lon="-2.02391">
        <ele>4.1</ele>
        <time>2020-06-04T13:07:51Z</time>
      </trkpt>
      <trkpt lat="46.88481" lon="-2.02389">
        <ele>4.1</ele>
        <time>2020-06-04T13:07:52Z</time>
      </trkpt>
      <trkpt lat="46.88486" lon="-2.02386">
        <ele>4.1</ele>
        <time>2020-06-04T13:07:53Z</time>
      </trkpt>
      <trkpt lat="46.8849" lon="-2.02383">
        <ele>4.2</ele>
        <time>2020-06-04T13:07:54Z</time>
      </trkpt>
      <trkpt lat="46.88495" lon="-2.02381">
        <ele>4.2</ele>
        <time>2020-06-04T13:07:55Z</time>
      </trkpt>
      <trkpt lat="46.88499" lon="-2.02379">
        <ele>4.2</ele>
        <time>2020-06-04T13:07:56Z</time>
      </trkpt>
      <trkpt lat="46.88503" lon="-2.02377">
        <ele>4.3</ele>
        <time>2020-06-04T13:07:57Z</time>
      </trkpt>
      <trkpt lat="46.88509" lon="-2.02377">
        <ele>4.3</ele>
        <time>2020-06-04T13:07:58Z</time>
      </trkpt>
      <trkpt lat="46.88514" lon="-2.02375">
        <ele>4.3</ele>
        <time>2020-06-04T13:07:59Z</time>
      </trkpt>
      <trkpt lat="46.88518" lon="-2.02373">
        <ele>4.4</ele>
        <time>2020-06-04T13:08:00Z</time>
      </trkpt>
      <trkpt lat="46.88522" lon="-2.02371">
        <ele>4.4</ele>
        <time>2020-06-04T13:08:01Z</time>
      </trkpt>
      <trkpt lat="46.88526" lon="-2.0237">
        <ele>4.4</ele>
        <time>2020-06-04T13:08:02Z</time>
      </trkpt>
      <trkpt lat="46.8853" lon="-2.02368">
        <ele>4.4</ele>
        <time>2020-06-04T13:08:03Z</time>
      </trkpt>
      <trkpt lat="46.88534" lon="-2.02368">
        <ele>4.4</ele>
        <time>2020-06-04T13:08:04Z</time>
      </trkpt>
      <trkpt lat="46.88538" lon="-2.02369">
        <ele>4.4</ele>
        <time>2020-06-04T13:08:05Z</time>
      </trkpt>
      <trkpt lat="46.88543" lon="-2.02369">
        <ele>4.4</ele>
        <time>2020-06-04T13:08:06Z</time>
      </trkpt>
      <trkpt lat="46.88546" lon="-2.02369">
        <ele>4.4</ele>
        <time>2020-06-04T13:08:07Z</time>
      </trkpt>
      <trkpt lat="46.88549" lon="-2.02369">
        <ele>4.4</ele>
        <time>2020-06-04T13:08:08Z</time>
      </trkpt>
      <trkpt lat="46.88553" lon="-2.02369">
        <ele>4.3</ele>
        <time>2020-06-04T13:08:09Z</time>
      </trkpt>
      <trkpt lat="46.88557" lon="-2.02369">
        <ele>4.3</ele>
        <time>2020-06-04T13:08:10Z</time>
      </trkpt>
      <trkpt lat="46.88561" lon="-2.02368">
        <ele>4.3</ele>
        <time>2020-06-04T13:08:11Z</time>
      </trkpt>
      <trkpt lat="46.88565" lon="-2.02367">
        <ele>4.3</ele>
        <time>2020-06-04T13:08:12Z</time>
      </trkpt>
      <trkpt lat="46.8857" lon="-2.02367">
        <ele>4.3</ele>
        <time>2020-06-04T13:08:13Z</time>
      </trkpt>
      <trkpt lat="46.88574" lon="-2.02367">
        <ele>4.3</ele>
        <time>2020-06-04T13:08:14Z</time>
      </trkpt>
      <trkpt lat="46.88579" lon="-2.02365">
        <ele>4.3</ele>
        <time>2020-06-04T13:08:15Z</time>
      </trkpt>
      <trkpt lat="46.88583" lon="-2.02365">
        <ele>4.2</ele>
        <time>2020-06-04T13:08:16Z</time>
      </trkpt>
      <trkpt lat="46.88588" lon="-2.02367">
        <ele>4.2</ele>
        <time>2020-06-04T13:08:17Z</time>
      </trkpt>
      <trkpt lat="46.88592" lon="-2.02367">
        <ele>4.2</ele>
        <time>2020-06-04T13:08:18Z</time>
      </trkpt>
      <trkpt lat="46.88596" lon="-2.02369">
        <ele>4.2</ele>
        <time>2020-06-04T13:08:19Z</time>
      </trkpt>
      <trkpt lat="46.88601" lon="-2.0237">
        <ele>4.2</ele>
        <time>2020-06-04T13:08:20Z</time>
      </trkpt>
      <trkpt lat="46.88606" lon="-2.02372">
        <ele>4.2</ele>
        <time>2020-06-04T13:08:21Z</time>
      </trkpt>
      <trkpt lat="46.88612" lon="-2.02373">
        <ele>4.2</ele>
        <time>2020-06-04T13:08:22Z</time>
      </trkpt>
      <trkpt lat="46.88617" lon="-2.02373">
        <ele>4.2</ele>
        <time>2020-06-04T13:08:23Z</time>
      </trkpt>
      <trkpt lat="46.88622" lon="-2.02372">
        <ele>4.3</ele>
        <time>2020-06-04T13:08:24Z</time>
      </trkpt>
      <trkpt lat="46.88626" lon="-2.02372">
        <ele>4.3</ele>
        <time>2020-06-04T13:08:25Z</time>
      </trkpt>
      <trkpt lat="46.88631" lon="-2.02372">
        <ele>4.3</ele>
        <time>2020-06-04T13:08:26Z</time>
      </trkpt>
      <trkpt lat="46.88634" lon="-2.02374">
        <ele>4.3</ele>
        <time>2020-06-04T13:08:27Z</time>
      </trkpt>
      <trkpt lat="46.88638" lon="-2.02374">
        <ele>4.3</ele>
        <time>2020-06-04T13:08:28Z</time>
      </trkpt>
      <trkpt lat="46.88642" lon="-2.02373">
        <ele>4.3</ele>
        <time>2020-06-04T13:08:29Z</time>
      </trkpt>
      <trkpt lat="46.88645" lon="-2.02371">
        <ele>4.3</ele>
        <time>2020-06-04T13:08:30Z</time>
      </trkpt>
      <trkpt lat="46.88648" lon="-2.0237">
        <ele>4.3</ele>
        <time>2020-06-04T13:08:31Z</time>
      </trkpt>
      <trkpt lat="46.88651" lon="-2.02371">
        <ele>4.3</ele>
        <time>2020-06-04T13:08:32Z</time>
      </trkpt>
      <trkpt lat="46.88655" lon="-2.02371">
        <ele>4.3</ele>
        <time>2020-06-04T13:08:33Z</time>
      </trkpt>
      <trkpt lat="46.88659" lon="-2.02371">
        <ele>4.3</ele>
        <time>2020-06-04T13:08:34Z</time>
      </trkpt>
      <trkpt lat="46.88663" lon="-2.02371">
        <ele>4.3</ele>
        <time>2020-06-04T13:08:35Z</time>
      </trkpt>
      <trkpt lat="46.88666" lon="-2.02372">
        <ele>4.3</ele>
        <time>2020-06-04T13:08:36Z</time>
      </trkpt>
      <trkpt lat="46.8867" lon="-2.02371">
        <ele>4.2</ele>
        <time>2020-06-04T13:08:37Z</time>
      </trkpt>
      <trkpt lat="46.88673" lon="-2.02369">
        <ele>4.2</ele>
        <time>2020-06-04T13:08:38Z</time>
      </trkpt>
      <trkpt lat="46.88675" lon="-2.0237">
        <ele>4.2</ele>
        <time>2020-06-04T13:08:39Z</time>
      </trkpt>
      <trkpt lat="46.88679" lon="-2.02369">
        <ele>4.2</ele>
        <time>2020-06-04T13:08:40Z</time>
      </trkpt>
      <trkpt lat="46.88682" lon="-2.02368">
        <ele>4.2</ele>
        <time>2020-06-04T13:08:41Z</time>
      </trkpt>
      <trkpt lat="46.88683" lon="-2.02369">
        <ele>4.2</ele>
        <time>2020-06-04T13:08:42Z</time>
      </trkpt>
      <trkpt lat="46.88686" lon="-2.02369">
        <ele>4.2</ele>
        <time>2020-06-04T13:08:43Z</time>
      </trkpt>
      <trkpt lat="46.88687" lon="-2.02369">
        <ele>4.2</ele>
        <time>2020-06-04T13:08:44Z</time>
      </trkpt>
      <trkpt lat="46.88687" lon="-2.0237">
        <ele>4.2</ele>
        <time>2020-06-04T13:08:45Z</time>
      </trkpt>
      <trkpt lat="46.88686" lon="-2.02368">
        <ele>4.2</ele>
        <time>2020-06-04T13:08:46Z</time>
      </trkpt>
      <trkpt lat="46.88685" lon="-2.02367">
        <ele>4.2</ele>
        <time>2020-06-04T13:08:47Z</time>
      </trkpt>
      <trkpt lat="46.88685" lon="-2.02367">
        <ele>4.2</ele>
        <time>2020-06-04T13:08:48Z</time>
      </trkpt>
      <trkpt lat="46.88684" lon="-2.02366">
        <ele>4.2</ele>
        <time>2020-06-04T13:08:49Z</time>
      </trkpt>
      <trkpt lat="46.88685" lon="-2.02366">
        <ele>4.2</ele>
        <time>2020-06-04T13:08:50Z</time>
      </trkpt>
      <trkpt lat="46.88685" lon="-2.02366">
        <ele>4.2</ele>
        <time>2020-06-04T13:08:51Z</time>
      </trkpt>
      <trkpt lat="46.88686" lon="-2.02366">
        <ele>4.2</ele>
        <time>2020-06-04T13:08:52Z</time>
      </trkpt>
      <trkpt lat="46.88687" lon="-2.02366">
        <ele>4.2</ele>
        <time>2020-06-04T13:08:53Z</time>
      </trkpt>
      <trkpt lat="46.88687" lon="-2.02366">
        <ele>4.2</ele>
        <time>2020-06-04T13:08:54Z</time>
      </trkpt>
      <trkpt lat="46.88688" lon="-2.02366">
        <ele>4.2</ele>
        <time>2020-06-04T13:08:55Z</time>
      </trkpt>
      <trkpt lat="46.88689" lon="-2.02366">
        <ele>4.2</ele>
        <time>2020-06-04T13:11:31Z</time>
      </trkpt>
      <trkpt lat="46.88689" lon="-2.02366">
        <ele>4.1</ele>
        <time>2020-06-04T13:11:32Z</time>
      </trkpt>
      <trkpt lat="46.88694" lon="-2.02366">
        <ele>4.1</ele>
        <time>2020-06-04T13:11:33Z</time>
      </trkpt>
      <trkpt lat="46.88698" lon="-2.02366">
        <ele>4.1</ele>
        <time>2020-06-04T13:11:34Z</time>
      </trkpt>
      <trkpt lat="46.88702" lon="-2.02366">
        <ele>4.1</ele>
        <time>2020-06-04T13:11:35Z</time>
      </trkpt>
      <trkpt lat="46.88707" lon="-2.02365">
        <ele>4.1</ele>
        <time>2020-06-04T13:11:36Z</time>
      </trkpt>
      <trkpt lat="46.88711" lon="-2.02365">
        <ele>4.1</ele>
        <time>2020-06-04T13:11:37Z</time>
      </trkpt>
      <trkpt lat="46.88715" lon="-2.02366">
        <ele>4.1</ele>
        <time>2020-06-04T13:11:38Z</time>
      </trkpt>
      <trkpt lat="46.88719" lon="-2.02367">
        <ele>4.1</ele>
        <time>2020-06-04T13:11:39Z</time>
      </trkpt>
      <trkpt lat="46.88724" lon="-2.02368">
        <ele>4</ele>
        <time>2020-06-04T13:11:40Z</time>
      </trkpt>
      <trkpt lat="46.88729" lon="-2.02368">
        <ele>4</ele>
        <time>2020-06-04T13:11:41Z</time>
      </trkpt>
      <trkpt lat="46.88734" lon="-2.02368">
        <ele>4</ele>
        <time>2020-06-04T13:11:42Z</time>
      </trkpt>
      <trkpt lat="46.88738" lon="-2.02368">
        <ele>3.9</ele>
        <time>2020-06-04T13:11:43Z</time>
      </trkpt>
      <trkpt lat="46.88743" lon="-2.02369">
        <ele>3.9</ele>
        <time>2020-06-04T13:11:44Z</time>
      </trkpt>
      <trkpt lat="46.88748" lon="-2.0237">
        <ele>3.8</ele>
        <time>2020-06-04T13:11:45Z</time>
      </trkpt>
      <trkpt lat="46.88754" lon="-2.02369">
        <ele>3.8</ele>
        <time>2020-06-04T13:11:46Z</time>
      </trkpt>
      <trkpt lat="46.88758" lon="-2.02371">
        <ele>3.7</ele>
        <time>2020-06-04T13:11:47Z</time>
      </trkpt>
      <trkpt lat="46.88763" lon="-2.02372">
        <ele>3.7</ele>
        <time>2020-06-04T13:11:48Z</time>
      </trkpt>
      <trkpt lat="46.88769" lon="-2.02372">
        <ele>3.7</ele>
        <time>2020-06-04T13:11:49Z</time>
      </trkpt>
      <trkpt lat="46.88775" lon="-2.02372">
        <ele>3.6</ele>
        <time>2020-06-04T13:11:50Z</time>
      </trkpt>
      <trkpt lat="46.88781" lon="-2.02373">
        <ele>3.6</ele>
        <time>2020-06-04T13:11:51Z</time>
      </trkpt>
      <trkpt lat="46.88788" lon="-2.02373">
        <ele>3.6</ele>
        <time>2020-06-04T13:11:52Z</time>
      </trkpt>
      <trkpt lat="46.88794" lon="-2.02373">
        <ele>3.6</ele>
        <time>2020-06-04T13:11:53Z</time>
      </trkpt>
      <trkpt lat="46.888" lon="-2.02373">
        <ele>3.5</ele>
        <time>2020-06-04T13:11:54Z</time>
      </trkpt>
      <trkpt lat="46.88806" lon="-2.02373">
        <ele>3.5</ele>
        <time>2020-06-04T13:11:55Z</time>
      </trkpt>
      <trkpt lat="46.88813" lon="-2.02373">
        <ele>3.5</ele>
        <time>2020-06-04T13:11:56Z</time>
      </trkpt>
      <trkpt lat="46.88819" lon="-2.02374">
        <ele>3.5</ele>
        <time>2020-06-04T13:11:57Z</time>
      </trkpt>
      <trkpt lat="46.88825" lon="-2.02374">
        <ele>3.4</ele>
        <time>2020-06-04T13:11:58Z</time>
      </trkpt>
      <trkpt lat="46.88832" lon="-2.02374">
        <ele>3.4</ele>
        <time>2020-06-04T13:11:59Z</time>
      </trkpt>
      <trkpt lat="46.88838" lon="-2.02375">
        <ele>3.3</ele>
        <time>2020-06-04T13:12:00Z</time>
      </trkpt>
      <trkpt lat="46.88844" lon="-2.02376">
        <ele>3.2</ele>
        <time>2020-06-04T13:12:01Z</time>
      </trkpt>
      <trkpt lat="46.88851" lon="-2.02378">
        <ele>3.1</ele>
        <time>2020-06-04T13:12:02Z</time>
      </trkpt>
      <trkpt lat="46.88858" lon="-2.0238">
        <ele>3</ele>
        <time>2020-06-04T13:12:03Z</time>
      </trkpt>
      <trkpt lat="46.88864" lon="-2.02382">
        <ele>2.8</ele>
        <time>2020-06-04T13:12:04Z</time>
      </trkpt>
      <trkpt lat="46.8887" lon="-2.02384">
        <ele>2.7</ele>
        <time>2020-06-04T13:12:05Z</time>
      </trkpt>
      <trkpt lat="46.88877" lon="-2.02386">
        <ele>2.6</ele>
        <time>2020-06-04T13:12:06Z</time>
      </trkpt>
      <trkpt lat="46.88884" lon="-2.02387">
        <ele>2.6</ele>
        <time>2020-06-04T13:12:07Z</time>
      </trkpt>
      <trkpt lat="46.8889" lon="-2.02388">
        <ele>2.6</ele>
        <time>2020-06-04T13:12:08Z</time>
      </trkpt>
      <trkpt lat="46.88896" lon="-2.02389">
        <ele>2.6</ele>
        <time>2020-06-04T13:12:09Z</time>
      </trkpt>
      <trkpt lat="46.88902" lon="-2.0239">
        <ele>2.6</ele>
        <time>2020-06-04T13:12:10Z</time>
      </trkpt>
      <trkpt lat="46.88908" lon="-2.02391">
        <ele>2.6</ele>
        <time>2020-06-04T13:12:11Z</time>
      </trkpt>
      <trkpt lat="46.88915" lon="-2.02393">
        <ele>2.6</ele>
        <time>2020-06-04T13:12:12Z</time>
      </trkpt>
      <trkpt lat="46.88922" lon="-2.02395">
        <ele>2.6</ele>
        <time>2020-06-04T13:12:13Z</time>
      </trkpt>
      <trkpt lat="46.88928" lon="-2.02395">
        <ele>2.6</ele>
        <time>2020-06-04T13:12:14Z</time>
      </trkpt>
      <trkpt lat="46.88935" lon="-2.02396">
        <ele>2.6</ele>
        <time>2020-06-04T13:12:15Z</time>
      </trkpt>
      <trkpt lat="46.88942" lon="-2.02396">
        <ele>2.6</ele>
        <time>2020-06-04T13:12:16Z</time>
      </trkpt>
      <trkpt lat="46.88948" lon="-2.02398">
        <ele>2.6</ele>
        <time>2020-06-04T13:12:17Z</time>
      </trkpt>
      <trkpt lat="46.88955" lon="-2.02399">
        <ele>2.6</ele>
        <time>2020-06-04T13:12:18Z</time>
      </trkpt>
      <trkpt lat="46.88961" lon="-2.024">
        <ele>2.6</ele>
        <time>2020-06-04T13:12:19Z</time>
      </trkpt>
      <trkpt lat="46.88967" lon="-2.02401">
        <ele>2.6</ele>
        <time>2020-06-04T13:12:20Z</time>
      </trkpt>
      <trkpt lat="46.88974" lon="-2.02402">
        <ele>2.6</ele>
        <time>2020-06-04T13:12:21Z</time>
      </trkpt>
      <trkpt lat="46.88979" lon="-2.02403">
        <ele>2.6</ele>
        <time>2020-06-04T13:12:22Z</time>
      </trkpt>
      <trkpt lat="46.88984" lon="-2.02405">
        <ele>2.6</ele>
        <time>2020-06-04T13:12:23Z</time>
      </trkpt>
      <trkpt lat="46.8899" lon="-2.02406">
        <ele>2.6</ele>
        <time>2020-06-04T13:12:24Z</time>
      </trkpt>
      <trkpt lat="46.88996" lon="-2.02411">
        <ele>2.6</ele>
        <time>2020-06-04T13:12:25Z</time>
      </trkpt>
      <trkpt lat="46.89002" lon="-2.02417">
        <ele>2.6</ele>
        <time>2020-06-04T13:12:26Z</time>
      </trkpt>
      <trkpt lat="46.89008" lon="-2.02424">
        <ele>2.5</ele>
        <time>2020-06-04T13:12:27Z</time>
      </trkpt>
      <trkpt lat="46.8901" lon="-2.02432">
        <ele>2.5</ele>
        <time>2020-06-04T13:12:28Z</time>
      </trkpt>
      <trkpt lat="46.89013" lon="-2.02439">
        <ele>2.5</ele>
        <time>2020-06-04T13:12:29Z</time>
      </trkpt>
      <trkpt lat="46.89014" lon="-2.02445">
        <ele>2.5</ele>
        <time>2020-06-04T13:12:30Z</time>
      </trkpt>
      <trkpt lat="46.89014" lon="-2.02451">
        <ele>2.5</ele>
        <time>2020-06-04T13:12:31Z</time>
      </trkpt>
      <trkpt lat="46.89013" lon="-2.02458">
        <ele>2.5</ele>
        <time>2020-06-04T13:12:32Z</time>
      </trkpt>
      <trkpt lat="46.89012" lon="-2.02466">
        <ele>2.5</ele>
        <time>2020-06-04T13:12:33Z</time>
      </trkpt>
      <trkpt lat="46.8901" lon="-2.0247">
        <ele>2.5</ele>
        <time>2020-06-04T13:12:34Z</time>
      </trkpt>
      <trkpt lat="46.89009" lon="-2.02477">
        <ele>2.5</ele>
        <time>2020-06-04T13:12:35Z</time>
      </trkpt>
      <trkpt lat="46.89008" lon="-2.02483">
        <ele>2.5</ele>
        <time>2020-06-04T13:12:36Z</time>
      </trkpt>
      <trkpt lat="46.89007" lon="-2.0249">
        <ele>2.5</ele>
        <time>2020-06-04T13:12:37Z</time>
      </trkpt>
      <trkpt lat="46.89006" lon="-2.02496">
        <ele>2.5</ele>
        <time>2020-06-04T13:12:38Z</time>
      </trkpt>
      <trkpt lat="46.89006" lon="-2.02503">
        <ele>2.5</ele>
        <time>2020-06-04T13:12:39Z</time>
      </trkpt>
      <trkpt lat="46.89005" lon="-2.02508">
        <ele>2.5</ele>
        <time>2020-06-04T13:12:40Z</time>
      </trkpt>
      <trkpt lat="46.89004" lon="-2.02515">
        <ele>2.5</ele>
        <time>2020-06-04T13:12:41Z</time>
      </trkpt>
      <trkpt lat="46.89004" lon="-2.02521">
        <ele>2.5</ele>
        <time>2020-06-04T13:12:42Z</time>
      </trkpt>
      <trkpt lat="46.89003" lon="-2.02528">
        <ele>2.5</ele>
        <time>2020-06-04T13:12:43Z</time>
      </trkpt>
      <trkpt lat="46.89002" lon="-2.02534">
        <ele>2.5</ele>
        <time>2020-06-04T13:12:44Z</time>
      </trkpt>
      <trkpt lat="46.89001" lon="-2.02539">
        <ele>2.5</ele>
        <time>2020-06-04T13:12:45Z</time>
      </trkpt>
      <trkpt lat="46.89" lon="-2.02546">
        <ele>2.5</ele>
        <time>2020-06-04T13:12:46Z</time>
      </trkpt>
      <trkpt lat="46.88999" lon="-2.02552">
        <ele>2.5</ele>
        <time>2020-06-04T13:12:47Z</time>
      </trkpt>
      <trkpt lat="46.88998" lon="-2.02559">
        <ele>2.5</ele>
        <time>2020-06-04T13:12:48Z</time>
      </trkpt>
      <trkpt lat="46.88997" lon="-2.02565">
        <ele>2.5</ele>
        <time>2020-06-04T13:12:49Z</time>
      </trkpt>
      <trkpt lat="46.88996" lon="-2.0257">
        <ele>2.5</ele>
        <time>2020-06-04T13:12:50Z</time>
      </trkpt>
      <trkpt lat="46.88995" lon="-2.02577">
        <ele>2.5</ele>
        <time>2020-06-04T13:12:51Z</time>
      </trkpt>
      <trkpt lat="46.88994" lon="-2.02585">
        <ele>2.5</ele>
        <time>2020-06-04T13:12:52Z</time>
      </trkpt>
      <trkpt lat="46.88994" lon="-2.02592">
        <ele>2.5</ele>
        <time>2020-06-04T13:12:53Z</time>
      </trkpt>
      <trkpt lat="46.88994" lon="-2.02601">
        <ele>2.5</ele>
        <time>2020-06-04T13:12:54Z</time>
      </trkpt>
      <trkpt lat="46.88993" lon="-2.02609">
        <ele>2.5</ele>
        <time>2020-06-04T13:12:55Z</time>
      </trkpt>
      <trkpt lat="46.88992" lon="-2.02616">
        <ele>2.5</ele>
        <time>2020-06-04T13:12:56Z</time>
      </trkpt>
      <trkpt lat="46.88991" lon="-2.02622">
        <ele>2.5</ele>
        <time>2020-06-04T13:12:57Z</time>
      </trkpt>
      <trkpt lat="46.88991" lon="-2.02629">
        <ele>2.5</ele>
        <time>2020-06-04T13:12:58Z</time>
      </trkpt>
      <trkpt lat="46.88989" lon="-2.02639">
        <ele>2.5</ele>
        <time>2020-06-04T13:12:59Z</time>
      </trkpt>
      <trkpt lat="46.88988" lon="-2.02647">
        <ele>2.5</ele>
        <time>2020-06-04T13:13:00Z</time>
      </trkpt>
      <trkpt lat="46.88986" lon="-2.02655">
        <ele>2.5</ele>
        <time>2020-06-04T13:13:01Z</time>
      </trkpt>
      <trkpt lat="46.88984" lon="-2.02666">
        <ele>2.5</ele>
        <time>2020-06-04T13:13:02Z</time>
      </trkpt>
      <trkpt lat="46.88983" lon="-2.02674">
        <ele>2.5</ele>
        <time>2020-06-04T13:13:03Z</time>
      </trkpt>
      <trkpt lat="46.88981" lon="-2.02683">
        <ele>2.5</ele>
        <time>2020-06-04T13:13:04Z</time>
      </trkpt>
      <trkpt lat="46.88981" lon="-2.02691">
        <ele>2.5</ele>
        <time>2020-06-04T13:13:05Z</time>
      </trkpt>
      <trkpt lat="46.88981" lon="-2.02698">
        <ele>2.5</ele>
        <time>2020-06-04T13:13:06Z</time>
      </trkpt>
      <trkpt lat="46.88982" lon="-2.02705">
        <ele>2.5</ele>
        <time>2020-06-04T13:13:07Z</time>
      </trkpt>
      <trkpt lat="46.88982" lon="-2.02714">
        <ele>2.5</ele>
        <time>2020-06-04T13:13:08Z</time>
      </trkpt>
      <trkpt lat="46.88982" lon="-2.02724">
        <ele>2.5</ele>
        <time>2020-06-04T13:13:09Z</time>
      </trkpt>
      <trkpt lat="46.88982" lon="-2.02732">
        <ele>2.5</ele>
        <time>2020-06-04T13:13:10Z</time>
      </trkpt>
      <trkpt lat="46.88982" lon="-2.02742">
        <ele>2.5</ele>
        <time>2020-06-04T13:13:11Z</time>
      </trkpt>
      <trkpt lat="46.88982" lon="-2.02749">
        <ele>2.5</ele>
        <time>2020-06-04T13:13:12Z</time>
      </trkpt>
      <trkpt lat="46.88982" lon="-2.02755">
        <ele>2.5</ele>
        <time>2020-06-04T13:13:13Z</time>
      </trkpt>
      <trkpt lat="46.88982" lon="-2.02762">
        <ele>2.5</ele>
        <time>2020-06-04T13:13:14Z</time>
      </trkpt>
      <trkpt lat="46.88983" lon="-2.02768">
        <ele>2.5</ele>
        <time>2020-06-04T13:13:15Z</time>
      </trkpt>
      <trkpt lat="46.88983" lon="-2.02776">
        <ele>2.5</ele>
        <time>2020-06-04T13:13:16Z</time>
      </trkpt>
      <trkpt lat="46.88984" lon="-2.02784">
        <ele>2.5</ele>
        <time>2020-06-04T13:13:17Z</time>
      </trkpt>
      <trkpt lat="46.88984" lon="-2.02792">
        <ele>2.6</ele>
        <time>2020-06-04T13:13:18Z</time>
      </trkpt>
      <trkpt lat="46.88984" lon="-2.02801">
        <ele>2.6</ele>
        <time>2020-06-04T13:13:19Z</time>
      </trkpt>
      <trkpt lat="46.88985" lon="-2.0281">
        <ele>2.6</ele>
        <time>2020-06-04T13:13:20Z</time>
      </trkpt>
      <trkpt lat="46.88986" lon="-2.02818">
        <ele>2.6</ele>
        <time>2020-06-04T13:13:21Z</time>
      </trkpt>
      <trkpt lat="46.88986" lon="-2.02825">
        <ele>2.6</ele>
        <time>2020-06-04T13:13:22Z</time>
      </trkpt>
      <trkpt lat="46.88986" lon="-2.02833">
        <ele>2.6</ele>
        <time>2020-06-04T13:13:23Z</time>
      </trkpt>
      <trkpt lat="46.88987" lon="-2.02843">
        <ele>2.6</ele>
        <time>2020-06-04T13:13:24Z</time>
      </trkpt>
      <trkpt lat="46.88987" lon="-2.02851">
        <ele>2.6</ele>
        <time>2020-06-04T13:13:25Z</time>
      </trkpt>
      <trkpt lat="46.88987" lon="-2.0286">
        <ele>2.6</ele>
        <time>2020-06-04T13:13:26Z</time>
      </trkpt>
      <trkpt lat="46.88987" lon="-2.02868">
        <ele>2.6</ele>
        <time>2020-06-04T13:13:27Z</time>
      </trkpt>
      <trkpt lat="46.88987" lon="-2.02876">
        <ele>2.6</ele>
        <time>2020-06-04T13:13:28Z</time>
      </trkpt>
      <trkpt lat="46.88987" lon="-2.02884">
        <ele>2.6</ele>
        <time>2020-06-04T13:13:29Z</time>
      </trkpt>
      <trkpt lat="46.88988" lon="-2.02892">
        <ele>2.6</ele>
        <time>2020-06-04T13:13:30Z</time>
      </trkpt>
      <trkpt lat="46.88988" lon="-2.029">
        <ele>2.6</ele>
        <time>2020-06-04T13:13:31Z</time>
      </trkpt>
      <trkpt lat="46.88989" lon="-2.02909">
        <ele>2.6</ele>
        <time>2020-06-04T13:13:32Z</time>
      </trkpt>
      <trkpt lat="46.88988" lon="-2.02917">
        <ele>2.6</ele>
        <time>2020-06-04T13:13:33Z</time>
      </trkpt>
      <trkpt lat="46.88989" lon="-2.02924">
        <ele>2.6</ele>
        <time>2020-06-04T13:13:34Z</time>
      </trkpt>
      <trkpt lat="46.88988" lon="-2.02932">
        <ele>2.6</ele>
        <time>2020-06-04T13:13:35Z</time>
      </trkpt>
      <trkpt lat="46.88987" lon="-2.02939">
        <ele>2.6</ele>
        <time>2020-06-04T13:13:36Z</time>
      </trkpt>
      <trkpt lat="46.88984" lon="-2.02946">
        <ele>2.6</ele>
        <time>2020-06-04T13:13:37Z</time>
      </trkpt>
      <trkpt lat="46.88982" lon="-2.02955">
        <ele>2.6</ele>
        <time>2020-06-04T13:13:38Z</time>
      </trkpt>
      <trkpt lat="46.88979" lon="-2.02962">
        <ele>2.6</ele>
        <time>2020-06-04T13:13:39Z</time>
      </trkpt>
      <trkpt lat="46.88976" lon="-2.0297">
        <ele>2.6</ele>
        <time>2020-06-04T13:13:40Z</time>
      </trkpt>
      <trkpt lat="46.88974" lon="-2.02977">
        <ele>2.6</ele>
        <time>2020-06-04T13:13:41Z</time>
      </trkpt>
      <trkpt lat="46.88972" lon="-2.02984">
        <ele>2.6</ele>
        <time>2020-06-04T13:13:42Z</time>
      </trkpt>
      <trkpt lat="46.8897" lon="-2.02991">
        <ele>2.6</ele>
        <time>2020-06-04T13:13:43Z</time>
      </trkpt>
      <trkpt lat="46.88969" lon="-2.02998">
        <ele>2.6</ele>
        <time>2020-06-04T13:13:44Z</time>
      </trkpt>
      <trkpt lat="46.88967" lon="-2.03005">
        <ele>2.6</ele>
        <time>2020-06-04T13:13:45Z</time>
      </trkpt>
      <trkpt lat="46.88966" lon="-2.03014">
        <ele>2.6</ele>
        <time>2020-06-04T13:13:46Z</time>
      </trkpt>
      <trkpt lat="46.88964" lon="-2.03023">
        <ele>2.6</ele>
        <time>2020-06-04T13:13:47Z</time>
      </trkpt>
      <trkpt lat="46.88963" lon="-2.03032">
        <ele>2.6</ele>
        <time>2020-06-04T13:13:48Z</time>
      </trkpt>
      <trkpt lat="46.88963" lon="-2.03042">
        <ele>2.6</ele>
        <time>2020-06-04T13:13:49Z</time>
      </trkpt>
      <trkpt lat="46.88964" lon="-2.03051">
        <ele>2.6</ele>
        <time>2020-06-04T13:13:50Z</time>
      </trkpt>
      <trkpt lat="46.88965" lon="-2.03058">
        <ele>2.7</ele>
        <time>2020-06-04T13:13:51Z</time>
      </trkpt>
      <trkpt lat="46.88967" lon="-2.03067">
        <ele>2.7</ele>
        <time>2020-06-04T13:13:52Z</time>
      </trkpt>
      <trkpt lat="46.8897" lon="-2.03075">
        <ele>2.7</ele>
        <time>2020-06-04T13:13:53Z</time>
      </trkpt>
      <trkpt lat="46.88972" lon="-2.03083">
        <ele>2.7</ele>
        <time>2020-06-04T13:13:54Z</time>
      </trkpt>
      <trkpt lat="46.88974" lon="-2.03091">
        <ele>2.7</ele>
        <time>2020-06-04T13:13:55Z</time>
      </trkpt>
      <trkpt lat="46.88976" lon="-2.03099">
        <ele>2.7</ele>
        <time>2020-06-04T13:13:56Z</time>
      </trkpt>
      <trkpt lat="46.88979" lon="-2.03107">
        <ele>2.7</ele>
        <time>2020-06-04T13:13:57Z</time>
      </trkpt>
      <trkpt lat="46.88981" lon="-2.03115">
        <ele>2.7</ele>
        <time>2020-06-04T13:13:58Z</time>
      </trkpt>
      <trkpt lat="46.88984" lon="-2.03122">
        <ele>2.7</ele>
        <time>2020-06-04T13:13:59Z</time>
      </trkpt>
      <trkpt lat="46.88986" lon="-2.0313">
        <ele>2.7</ele>
        <time>2020-06-04T13:14:00Z</time>
      </trkpt>
      <trkpt lat="46.88988" lon="-2.03138">
        <ele>2.7</ele>
        <time>2020-06-04T13:14:01Z</time>
      </trkpt>
      <trkpt lat="46.88991" lon="-2.03146">
        <ele>2.7</ele>
        <time>2020-06-04T13:14:02Z</time>
      </trkpt>
      <trkpt lat="46.88994" lon="-2.03153">
        <ele>2.6</ele>
        <time>2020-06-04T13:14:03Z</time>
      </trkpt>
      <trkpt lat="46.88996" lon="-2.03161">
        <ele>2.6</ele>
        <time>2020-06-04T13:14:04Z</time>
      </trkpt>
      <trkpt lat="46.88999" lon="-2.03169">
        <ele>2.6</ele>
        <time>2020-06-04T13:14:05Z</time>
      </trkpt>
      <trkpt lat="46.89002" lon="-2.03176">
        <ele>2.6</ele>
        <time>2020-06-04T13:14:06Z</time>
      </trkpt>
      <trkpt lat="46.89005" lon="-2.03184">
        <ele>2.6</ele>
        <time>2020-06-04T13:14:07Z</time>
      </trkpt>
      <trkpt lat="46.89009" lon="-2.03191">
        <ele>2.6</ele>
        <time>2020-06-04T13:14:08Z</time>
      </trkpt>
      <trkpt lat="46.89012" lon="-2.03198">
        <ele>2.6</ele>
        <time>2020-06-04T13:14:09Z</time>
      </trkpt>
      <trkpt lat="46.89016" lon="-2.03206">
        <ele>2.6</ele>
        <time>2020-06-04T13:14:10Z</time>
      </trkpt>
      <trkpt lat="46.8902" lon="-2.03214">
        <ele>2.6</ele>
        <time>2020-06-04T13:14:11Z</time>
      </trkpt>
      <trkpt lat="46.89023" lon="-2.03221">
        <ele>2.6</ele>
        <time>2020-06-04T13:14:12Z</time>
      </trkpt>
      <trkpt lat="46.89027" lon="-2.03229">
        <ele>2.6</ele>
        <time>2020-06-04T13:14:13Z</time>
      </trkpt>
      <trkpt lat="46.89031" lon="-2.03236">
        <ele>2.5</ele>
        <time>2020-06-04T13:14:14Z</time>
      </trkpt>
      <trkpt lat="46.89034" lon="-2.03244">
        <ele>2.5</ele>
        <time>2020-06-04T13:14:15Z</time>
      </trkpt>
      <trkpt lat="46.89038" lon="-2.03251">
        <ele>2.5</ele>
        <time>2020-06-04T13:14:16Z</time>
      </trkpt>
      <trkpt lat="46.89042" lon="-2.03258">
        <ele>2.5</ele>
        <time>2020-06-04T13:14:17Z</time>
      </trkpt>
      <trkpt lat="46.89046" lon="-2.03265">
        <ele>2.5</ele>
        <time>2020-06-04T13:14:18Z</time>
      </trkpt>
      <trkpt lat="46.8905" lon="-2.03272">
        <ele>2.5</ele>
        <time>2020-06-04T13:14:19Z</time>
      </trkpt>
      <trkpt lat="46.89054" lon="-2.0328">
        <ele>2.5</ele>
        <time>2020-06-04T13:14:20Z</time>
      </trkpt>
      <trkpt lat="46.89058" lon="-2.03288">
        <ele>2.5</ele>
        <time>2020-06-04T13:14:21Z</time>
      </trkpt>
      <trkpt lat="46.89062" lon="-2.03295">
        <ele>2.6</ele>
        <time>2020-06-04T13:14:22Z</time>
      </trkpt>
      <trkpt lat="46.89066" lon="-2.03302">
        <ele>2.6</ele>
        <time>2020-06-04T13:14:23Z</time>
      </trkpt>
      <trkpt lat="46.8907" lon="-2.0331">
        <ele>2.6</ele>
        <time>2020-06-04T13:14:24Z</time>
      </trkpt>
      <trkpt lat="46.89074" lon="-2.03318">
        <ele>2.6</ele>
        <time>2020-06-04T13:14:25Z</time>
      </trkpt>
      <trkpt lat="46.89078" lon="-2.03325">
        <ele>2.6</ele>
        <time>2020-06-04T13:14:26Z</time>
      </trkpt>
      <trkpt lat="46.89081" lon="-2.03333">
        <ele>2.6</ele>
        <time>2020-06-04T13:14:27Z</time>
      </trkpt>
      <trkpt lat="46.89085" lon="-2.03342">
        <ele>2.6</ele>
        <time>2020-06-04T13:14:28Z</time>
      </trkpt>
      <trkpt lat="46.89089" lon="-2.0335">
        <ele>2.6</ele>
        <time>2020-06-04T13:14:29Z</time>
      </trkpt>
      <trkpt lat="46.89093" lon="-2.03359">
        <ele>2.6</ele>
        <time>2020-06-04T13:14:30Z</time>
      </trkpt>
      <trkpt lat="46.89096" lon="-2.03367">
        <ele>2.6</ele>
        <time>2020-06-04T13:14:31Z</time>
      </trkpt>
      <trkpt lat="46.891" lon="-2.03373">
        <ele>2.6</ele>
        <time>2020-06-04T13:14:32Z</time>
      </trkpt>
      <trkpt lat="46.89103" lon="-2.03381">
        <ele>2.5</ele>
        <time>2020-06-04T13:14:33Z</time>
      </trkpt>
      <trkpt lat="46.89107" lon="-2.03388">
        <ele>2.5</ele>
        <time>2020-06-04T13:14:34Z</time>
      </trkpt>
      <trkpt lat="46.89111" lon="-2.03395">
        <ele>2.5</ele>
        <time>2020-06-04T13:14:35Z</time>
      </trkpt>
      <trkpt lat="46.89114" lon="-2.03403">
        <ele>2.5</ele>
        <time>2020-06-04T13:14:36Z</time>
      </trkpt>
      <trkpt lat="46.89118" lon="-2.0341">
        <ele>2.5</ele>
        <time>2020-06-04T13:14:37Z</time>
      </trkpt>
      <trkpt lat="46.89121" lon="-2.03417">
        <ele>2.5</ele>
        <time>2020-06-04T13:14:38Z</time>
      </trkpt>
      <trkpt lat="46.89125" lon="-2.03425">
        <ele>2.5</ele>
        <time>2020-06-04T13:14:39Z</time>
      </trkpt>
      <trkpt lat="46.89129" lon="-2.03432">
        <ele>2.5</ele>
        <time>2020-06-04T13:14:40Z</time>
      </trkpt>
      <trkpt lat="46.89133" lon="-2.03439">
        <ele>2.5</ele>
        <time>2020-06-04T13:14:41Z</time>
      </trkpt>
      <trkpt lat="46.89136" lon="-2.03446">
        <ele>2.5</ele>
        <time>2020-06-04T13:14:42Z</time>
      </trkpt>
      <trkpt lat="46.89139" lon="-2.03453">
        <ele>2.5</ele>
        <time>2020-06-04T13:14:43Z</time>
      </trkpt>
      <trkpt lat="46.89141" lon="-2.03461">
        <ele>2.5</ele>
        <time>2020-06-04T13:14:44Z</time>
      </trkpt>
      <trkpt lat="46.89145" lon="-2.03469">
        <ele>2.5</ele>
        <time>2020-06-04T13:14:45Z</time>
      </trkpt>
      <trkpt lat="46.89149" lon="-2.03476">
        <ele>2.5</ele>
        <time>2020-06-04T13:14:46Z</time>
      </trkpt>
      <trkpt lat="46.89152" lon="-2.03483">
        <ele>2.5</ele>
        <time>2020-06-04T13:14:47Z</time>
      </trkpt>
      <trkpt lat="46.89156" lon="-2.03491">
        <ele>2.5</ele>
        <time>2020-06-04T13:14:48Z</time>
      </trkpt>
      <trkpt lat="46.8916" lon="-2.03499">
        <ele>2.5</ele>
        <time>2020-06-04T13:14:49Z</time>
      </trkpt>
      <trkpt lat="46.89164" lon="-2.0351">
        <ele>2.5</ele>
        <time>2020-06-04T13:14:50Z</time>
      </trkpt>
      <trkpt lat="46.89169" lon="-2.03519">
        <ele>2.5</ele>
        <time>2020-06-04T13:14:51Z</time>
      </trkpt>
      <trkpt lat="46.89173" lon="-2.03529">
        <ele>2.5</ele>
        <time>2020-06-04T13:14:52Z</time>
      </trkpt>
      <trkpt lat="46.89177" lon="-2.03538">
        <ele>2.5</ele>
        <time>2020-06-04T13:14:53Z</time>
      </trkpt>
      <trkpt lat="46.89182" lon="-2.03547">
        <ele>2.5</ele>
        <time>2020-06-04T13:14:54Z</time>
      </trkpt>
      <trkpt lat="46.89186" lon="-2.03556">
        <ele>2.5</ele>
        <time>2020-06-04T13:14:55Z</time>
      </trkpt>
      <trkpt lat="46.89191" lon="-2.03564">
        <ele>2.5</ele>
        <time>2020-06-04T13:14:56Z</time>
      </trkpt>
      <trkpt lat="46.89196" lon="-2.03574">
        <ele>2.5</ele>
        <time>2020-06-04T13:14:57Z</time>
      </trkpt>
      <trkpt lat="46.89203" lon="-2.03581">
        <ele>2.5</ele>
        <time>2020-06-04T13:14:58Z</time>
      </trkpt>
      <trkpt lat="46.89209" lon="-2.03587">
        <ele>2.5</ele>
        <time>2020-06-04T13:14:59Z</time>
      </trkpt>
      <trkpt lat="46.89217" lon="-2.03591">
        <ele>2.5</ele>
        <time>2020-06-04T13:15:00Z</time>
      </trkpt>
      <trkpt lat="46.89224" lon="-2.03595">
        <ele>2.5</ele>
        <time>2020-06-04T13:15:01Z</time>
      </trkpt>
      <trkpt lat="46.89231" lon="-2.03597">
        <ele>2.5</ele>
        <time>2020-06-04T13:15:02Z</time>
      </trkpt>
      <trkpt lat="46.89238" lon="-2.036">
        <ele>2.5</ele>
        <time>2020-06-04T13:15:03Z</time>
      </trkpt>
      <trkpt lat="46.89244" lon="-2.03602">
        <ele>2.5</ele>
        <time>2020-06-04T13:15:04Z</time>
      </trkpt>
      <trkpt lat="46.89252" lon="-2.03604">
        <ele>2.5</ele>
        <time>2020-06-04T13:15:05Z</time>
      </trkpt>
      <trkpt lat="46.89259" lon="-2.03605">
        <ele>2.5</ele>
        <time>2020-06-04T13:15:06Z</time>
      </trkpt>
      <trkpt lat="46.89267" lon="-2.03606">
        <ele>2.5</ele>
        <time>2020-06-04T13:15:07Z</time>
      </trkpt>
      <trkpt lat="46.89274" lon="-2.03608">
        <ele>2.5</ele>
        <time>2020-06-04T13:15:08Z</time>
      </trkpt>
      <trkpt lat="46.89281" lon="-2.0361">
        <ele>2.5</ele>
        <time>2020-06-04T13:15:09Z</time>
      </trkpt>
      <trkpt lat="46.89288" lon="-2.03612">
        <ele>2.5</ele>
        <time>2020-06-04T13:15:10Z</time>
      </trkpt>
      <trkpt lat="46.89295" lon="-2.03614">
        <ele>2.5</ele>
        <time>2020-06-04T13:15:11Z</time>
      </trkpt>
      <trkpt lat="46.89303" lon="-2.03615">
        <ele>2.5</ele>
        <time>2020-06-04T13:15:12Z</time>
      </trkpt>
      <trkpt lat="46.8931" lon="-2.03617">
        <ele>2.5</ele>
        <time>2020-06-04T13:15:13Z</time>
      </trkpt>
      <trkpt lat="46.89316" lon="-2.03619">
        <ele>2.5</ele>
        <time>2020-06-04T13:15:14Z</time>
      </trkpt>
      <trkpt lat="46.89322" lon="-2.03621">
        <ele>2.5</ele>
        <time>2020-06-04T13:15:15Z</time>
      </trkpt>
      <trkpt lat="46.89328" lon="-2.03624">
        <ele>2.5</ele>
        <time>2020-06-04T13:15:16Z</time>
      </trkpt>
      <trkpt lat="46.89335" lon="-2.03625">
        <ele>2.5</ele>
        <time>2020-06-04T13:15:17Z</time>
      </trkpt>
      <trkpt lat="46.89342" lon="-2.03627">
        <ele>2.5</ele>
        <time>2020-06-04T13:15:18Z</time>
      </trkpt>
      <trkpt lat="46.89348" lon="-2.03629">
        <ele>2.5</ele>
        <time>2020-06-04T13:15:19Z</time>
      </trkpt>
      <trkpt lat="46.89354" lon="-2.03631">
        <ele>2.5</ele>
        <time>2020-06-04T13:15:20Z</time>
      </trkpt>
      <trkpt lat="46.89361" lon="-2.03632">
        <ele>2.5</ele>
        <time>2020-06-04T13:15:21Z</time>
      </trkpt>
      <trkpt lat="46.89367" lon="-2.03634">
        <ele>2.5</ele>
        <time>2020-06-04T13:15:22Z</time>
      </trkpt>
      <trkpt lat="46.89375" lon="-2.03635">
        <ele>2.5</ele>
        <time>2020-06-04T13:15:23Z</time>
      </trkpt>
      <trkpt lat="46.89381" lon="-2.03637">
        <ele>2.5</ele>
        <time>2020-06-04T13:15:24Z</time>
      </trkpt>
      <trkpt lat="46.89388" lon="-2.03639">
        <ele>2.5</ele>
        <time>2020-06-04T13:15:25Z</time>
      </trkpt>
      <trkpt lat="46.89395" lon="-2.0364">
        <ele>2.5</ele>
        <time>2020-06-04T13:15:26Z</time>
      </trkpt>
      <trkpt lat="46.89402" lon="-2.03642">
        <ele>2.5</ele>
        <time>2020-06-04T13:15:27Z</time>
      </trkpt>
      <trkpt lat="46.89409" lon="-2.03644">
        <ele>2.5</ele>
        <time>2020-06-04T13:15:28Z</time>
      </trkpt>
      <trkpt lat="46.89416" lon="-2.03646">
        <ele>2.5</ele>
        <time>2020-06-04T13:15:29Z</time>
      </trkpt>
      <trkpt lat="46.89422" lon="-2.03648">
        <ele>2.5</ele>
        <time>2020-06-04T13:15:30Z</time>
      </trkpt>
      <trkpt lat="46.89429" lon="-2.0365">
        <ele>2.5</ele>
        <time>2020-06-04T13:15:31Z</time>
      </trkpt>
      <trkpt lat="46.89435" lon="-2.03652">
        <ele>2.5</ele>
        <time>2020-06-04T13:15:32Z</time>
      </trkpt>
      <trkpt lat="46.89443" lon="-2.03654">
        <ele>2.5</ele>
        <time>2020-06-04T13:15:33Z</time>
      </trkpt>
      <trkpt lat="46.8945" lon="-2.03657">
        <ele>2.5</ele>
        <time>2020-06-04T13:15:34Z</time>
      </trkpt>
      <trkpt lat="46.89456" lon="-2.03659">
        <ele>2.5</ele>
        <time>2020-06-04T13:15:35Z</time>
      </trkpt>
      <trkpt lat="46.89463" lon="-2.03662">
        <ele>2.5</ele>
        <time>2020-06-04T13:15:36Z</time>
      </trkpt>
      <trkpt lat="46.89469" lon="-2.03664">
        <ele>2.5</ele>
        <time>2020-06-04T13:15:37Z</time>
      </trkpt>
      <trkpt lat="46.89475" lon="-2.03666">
        <ele>2.5</ele>
        <time>2020-06-04T13:15:38Z</time>
      </trkpt>
      <trkpt lat="46.89482" lon="-2.03668">
        <ele>2.5</ele>
        <time>2020-06-04T13:15:39Z</time>
      </trkpt>
      <trkpt lat="46.89488" lon="-2.03669">
        <ele>2.5</ele>
        <time>2020-06-04T13:15:40Z</time>
      </trkpt>
      <trkpt lat="46.89494" lon="-2.03671">
        <ele>2.5</ele>
        <time>2020-06-04T13:15:41Z</time>
      </trkpt>
      <trkpt lat="46.895" lon="-2.03672">
        <ele>2.5</ele>
        <time>2020-06-04T13:15:42Z</time>
      </trkpt>
      <trkpt lat="46.89506" lon="-2.03675">
        <ele>2.5</ele>
        <time>2020-06-04T13:15:43Z</time>
      </trkpt>
      <trkpt lat="46.89511" lon="-2.03677">
        <ele>2.5</ele>
        <time>2020-06-04T13:15:44Z</time>
      </trkpt>
      <trkpt lat="46.89519" lon="-2.03678">
        <ele>2.5</ele>
        <time>2020-06-04T13:15:45Z</time>
      </trkpt>
      <trkpt lat="46.89523" lon="-2.03679">
        <ele>2.4</ele>
        <time>2020-06-04T13:15:46Z</time>
      </trkpt>
      <trkpt lat="46.8953" lon="-2.03679">
        <ele>2.4</ele>
        <time>2020-06-04T13:15:47Z</time>
      </trkpt>
      <trkpt lat="46.89536" lon="-2.03678">
        <ele>2.4</ele>
        <time>2020-06-04T13:15:48Z</time>
      </trkpt>
      <trkpt lat="46.89542" lon="-2.03676">
        <ele>2.4</ele>
        <time>2020-06-04T13:15:49Z</time>
      </trkpt>
      <trkpt lat="46.89548" lon="-2.03675">
        <ele>2.4</ele>
        <time>2020-06-04T13:15:50Z</time>
      </trkpt>
      <trkpt lat="46.89554" lon="-2.03672">
        <ele>2.4</ele>
        <time>2020-06-04T13:15:51Z</time>
      </trkpt>
      <trkpt lat="46.89559" lon="-2.0367">
        <ele>2.4</ele>
        <time>2020-06-04T13:15:52Z</time>
      </trkpt>
      <trkpt lat="46.89565" lon="-2.03667">
        <ele>2.4</ele>
        <time>2020-06-04T13:15:53Z</time>
      </trkpt>
      <trkpt lat="46.89571" lon="-2.03665">
        <ele>2.4</ele>
        <time>2020-06-04T13:15:54Z</time>
      </trkpt>
      <trkpt lat="46.89577" lon="-2.03663">
        <ele>2.4</ele>
        <time>2020-06-04T13:15:55Z</time>
      </trkpt>
      <trkpt lat="46.89583" lon="-2.03659">
        <ele>2.4</ele>
        <time>2020-06-04T13:15:56Z</time>
      </trkpt>
      <trkpt lat="46.89588" lon="-2.03657">
        <ele>2.4</ele>
        <time>2020-06-04T13:15:57Z</time>
      </trkpt>
      <trkpt lat="46.89595" lon="-2.03654">
        <ele>2.4</ele>
        <time>2020-06-04T13:15:58Z</time>
      </trkpt>
      <trkpt lat="46.89602" lon="-2.0365">
        <ele>2.4</ele>
        <time>2020-06-04T13:15:59Z</time>
      </trkpt>
      <trkpt lat="46.89608" lon="-2.03647">
        <ele>2.4</ele>
        <time>2020-06-04T13:16:00Z</time>
      </trkpt>
      <trkpt lat="46.89614" lon="-2.03645">
        <ele>2.3</ele>
        <time>2020-06-04T13:16:01Z</time>
      </trkpt>
      <trkpt lat="46.89621" lon="-2.03643">
        <ele>2.3</ele>
        <time>2020-06-04T13:16:02Z</time>
      </trkpt>
      <trkpt lat="46.89627" lon="-2.03641">
        <ele>2.3</ele>
        <time>2020-06-04T13:16:03Z</time>
      </trkpt>
      <trkpt lat="46.89634" lon="-2.03639">
        <ele>2.3</ele>
        <time>2020-06-04T13:16:04Z</time>
      </trkpt>
      <trkpt lat="46.89641" lon="-2.03637">
        <ele>2.3</ele>
        <time>2020-06-04T13:16:05Z</time>
      </trkpt>
      <trkpt lat="46.89648" lon="-2.03635">
        <ele>2.3</ele>
        <time>2020-06-04T13:16:06Z</time>
      </trkpt>
      <trkpt lat="46.89655" lon="-2.03633">
        <ele>2.3</ele>
        <time>2020-06-04T13:16:07Z</time>
      </trkpt>
      <trkpt lat="46.89661" lon="-2.03632">
        <ele>2.3</ele>
        <time>2020-06-04T13:16:08Z</time>
      </trkpt>
      <trkpt lat="46.89669" lon="-2.0363">
        <ele>2.3</ele>
        <time>2020-06-04T13:16:09Z</time>
      </trkpt>
      <trkpt lat="46.89675" lon="-2.03629">
        <ele>2.3</ele>
        <time>2020-06-04T13:16:10Z</time>
      </trkpt>
      <trkpt lat="46.89681" lon="-2.03627">
        <ele>2.3</ele>
        <time>2020-06-04T13:16:11Z</time>
      </trkpt>
      <trkpt lat="46.89688" lon="-2.03626">
        <ele>2.3</ele>
        <time>2020-06-04T13:16:12Z</time>
      </trkpt>
      <trkpt lat="46.89694" lon="-2.03625">
        <ele>2.3</ele>
        <time>2020-06-04T13:16:13Z</time>
      </trkpt>
      <trkpt lat="46.897" lon="-2.03623">
        <ele>2.3</ele>
        <time>2020-06-04T13:16:14Z</time>
      </trkpt>
      <trkpt lat="46.89706" lon="-2.03623">
        <ele>2.3</ele>
        <time>2020-06-04T13:16:15Z</time>
      </trkpt>
      <trkpt lat="46.89713" lon="-2.03623">
        <ele>2.3</ele>
        <time>2020-06-04T13:16:16Z</time>
      </trkpt>
      <trkpt lat="46.8972" lon="-2.03623">
        <ele>2.3</ele>
        <time>2020-06-04T13:16:17Z</time>
      </trkpt>
      <trkpt lat="46.89725" lon="-2.03623">
        <ele>2.3</ele>
        <time>2020-06-04T13:16:18Z</time>
      </trkpt>
      <trkpt lat="46.89732" lon="-2.03622">
        <ele>2.3</ele>
        <time>2020-06-04T13:16:19Z</time>
      </trkpt>
      <trkpt lat="46.89738" lon="-2.03621">
        <ele>2.2</ele>
        <time>2020-06-04T13:16:20Z</time>
      </trkpt>
      <trkpt lat="46.89744" lon="-2.03618">
        <ele>2.2</ele>
        <time>2020-06-04T13:16:21Z</time>
      </trkpt>
      <trkpt lat="46.89751" lon="-2.03613">
        <ele>2.2</ele>
        <time>2020-06-04T13:16:22Z</time>
      </trkpt>
      <trkpt lat="46.89757" lon="-2.03609">
        <ele>2.2</ele>
        <time>2020-06-04T13:16:23Z</time>
      </trkpt>
      <trkpt lat="46.89763" lon="-2.03605">
        <ele>2.2</ele>
        <time>2020-06-04T13:16:24Z</time>
      </trkpt>
      <trkpt lat="46.89769" lon="-2.03599">
        <ele>2.2</ele>
        <time>2020-06-04T13:16:25Z</time>
      </trkpt>
      <trkpt lat="46.89775" lon="-2.03594">
        <ele>2.2</ele>
        <time>2020-06-04T13:16:26Z</time>
      </trkpt>
      <trkpt lat="46.89782" lon="-2.03587">
        <ele>2.2</ele>
        <time>2020-06-04T13:16:27Z</time>
      </trkpt>
      <trkpt lat="46.89789" lon="-2.03582">
        <ele>2.2</ele>
        <time>2020-06-04T13:16:28Z</time>
      </trkpt>
      <trkpt lat="46.89795" lon="-2.03576">
        <ele>2.3</ele>
        <time>2020-06-04T13:16:29Z</time>
      </trkpt>
      <trkpt lat="46.89801" lon="-2.03569">
        <ele>2.3</ele>
        <time>2020-06-04T13:16:30Z</time>
      </trkpt>
      <trkpt lat="46.89807" lon="-2.03562">
        <ele>2.3</ele>
        <time>2020-06-04T13:16:31Z</time>
      </trkpt>
      <trkpt lat="46.89812" lon="-2.03556">
        <ele>2.2</ele>
        <time>2020-06-04T13:16:32Z</time>
      </trkpt>
      <trkpt lat="46.89818" lon="-2.03551">
        <ele>2.2</ele>
        <time>2020-06-04T13:16:33Z</time>
      </trkpt>
      <trkpt lat="46.89824" lon="-2.03544">
        <ele>2.2</ele>
        <time>2020-06-04T13:16:34Z</time>
      </trkpt>
      <trkpt lat="46.8983" lon="-2.03538">
        <ele>2.2</ele>
        <time>2020-06-04T13:16:35Z</time>
      </trkpt>
      <trkpt lat="46.89837" lon="-2.03533">
        <ele>2.2</ele>
        <time>2020-06-04T13:16:36Z</time>
      </trkpt>
      <trkpt lat="46.89844" lon="-2.03526">
        <ele>2.2</ele>
        <time>2020-06-04T13:16:37Z</time>
      </trkpt>
      <trkpt lat="46.89849" lon="-2.03521">
        <ele>2.2</ele>
        <time>2020-06-04T13:16:38Z</time>
      </trkpt>
      <trkpt lat="46.89855" lon="-2.03515">
        <ele>2.2</ele>
        <time>2020-06-04T13:16:39Z</time>
      </trkpt>
      <trkpt lat="46.89861" lon="-2.03509">
        <ele>2.2</ele>
        <time>2020-06-04T13:16:40Z</time>
      </trkpt>
      <trkpt lat="46.89867" lon="-2.03502">
        <ele>2.2</ele>
        <time>2020-06-04T13:16:41Z</time>
      </trkpt>
      <trkpt lat="46.89873" lon="-2.03495">
        <ele>2.2</ele>
        <time>2020-06-04T13:16:42Z</time>
      </trkpt>
      <trkpt lat="46.89878" lon="-2.03489">
        <ele>2.2</ele>
        <time>2020-06-04T13:16:43Z</time>
      </trkpt>
      <trkpt lat="46.89884" lon="-2.03484">
        <ele>2.2</ele>
        <time>2020-06-04T13:16:44Z</time>
      </trkpt>
      <trkpt lat="46.89889" lon="-2.03478">
        <ele>2.2</ele>
        <time>2020-06-04T13:16:45Z</time>
      </trkpt>
      <trkpt lat="46.89895" lon="-2.03473">
        <ele>2.2</ele>
        <time>2020-06-04T13:16:46Z</time>
      </trkpt>
      <trkpt lat="46.89901" lon="-2.03468">
        <ele>2.2</ele>
        <time>2020-06-04T13:16:47Z</time>
      </trkpt>
      <trkpt lat="46.89908" lon="-2.03462">
        <ele>2.2</ele>
        <time>2020-06-04T13:16:48Z</time>
      </trkpt>
      <trkpt lat="46.89913" lon="-2.03456">
        <ele>2.2</ele>
        <time>2020-06-04T13:16:49Z</time>
      </trkpt>
      <trkpt lat="46.89918" lon="-2.0345">
        <ele>2.2</ele>
        <time>2020-06-04T13:16:50Z</time>
      </trkpt>
      <trkpt lat="46.89925" lon="-2.03446">
        <ele>2.2</ele>
        <time>2020-06-04T13:16:51Z</time>
      </trkpt>
      <trkpt lat="46.89931" lon="-2.03441">
        <ele>2.2</ele>
        <time>2020-06-04T13:16:52Z</time>
      </trkpt>
      <trkpt lat="46.89937" lon="-2.03436">
        <ele>2.2</ele>
        <time>2020-06-04T13:16:53Z</time>
      </trkpt>
      <trkpt lat="46.89944" lon="-2.03432">
        <ele>2.2</ele>
        <time>2020-06-04T13:16:54Z</time>
      </trkpt>
      <trkpt lat="46.8995" lon="-2.03427">
        <ele>2.2</ele>
        <time>2020-06-04T13:16:55Z</time>
      </trkpt>
      <trkpt lat="46.89956" lon="-2.03423">
        <ele>2.2</ele>
        <time>2020-06-04T13:16:56Z</time>
      </trkpt>
      <trkpt lat="46.89963" lon="-2.03419">
        <ele>2.2</ele>
        <time>2020-06-04T13:16:57Z</time>
      </trkpt>
      <trkpt lat="46.89969" lon="-2.03415">
        <ele>2.3</ele>
        <time>2020-06-04T13:16:58Z</time>
      </trkpt>
      <trkpt lat="46.89975" lon="-2.0341">
        <ele>2.3</ele>
        <time>2020-06-04T13:16:59Z</time>
      </trkpt>
      <trkpt lat="46.8998" lon="-2.03406">
        <ele>2.3</ele>
        <time>2020-06-04T13:17:00Z</time>
      </trkpt>
      <trkpt lat="46.89986" lon="-2.03402">
        <ele>2.3</ele>
        <time>2020-06-04T13:17:01Z</time>
      </trkpt>
      <trkpt lat="46.89992" lon="-2.03398">
        <ele>2.3</ele>
        <time>2020-06-04T13:17:02Z</time>
      </trkpt>
      <trkpt lat="46.89997" lon="-2.03394">
        <ele>2.3</ele>
        <time>2020-06-04T13:17:03Z</time>
      </trkpt>
      <trkpt lat="46.90003" lon="-2.03391">
        <ele>2.4</ele>
        <time>2020-06-04T13:17:04Z</time>
      </trkpt>
      <trkpt lat="46.90009" lon="-2.03388">
        <ele>2.4</ele>
        <time>2020-06-04T13:17:05Z</time>
      </trkpt>
      <trkpt lat="46.90016" lon="-2.03386">
        <ele>2.4</ele>
        <time>2020-06-04T13:17:06Z</time>
      </trkpt>
      <trkpt lat="46.90023" lon="-2.03385">
        <ele>2.4</ele>
        <time>2020-06-04T13:17:07Z</time>
      </trkpt>
      <trkpt lat="46.9003" lon="-2.03383">
        <ele>2.4</ele>
        <time>2020-06-04T13:17:08Z</time>
      </trkpt>
      <trkpt lat="46.90038" lon="-2.03381">
        <ele>2.4</ele>
        <time>2020-06-04T13:17:09Z</time>
      </trkpt>
      <trkpt lat="46.90045" lon="-2.03378">
        <ele>2.4</ele>
        <time>2020-06-04T13:17:10Z</time>
      </trkpt>
      <trkpt lat="46.90052" lon="-2.03376">
        <ele>2.4</ele>
        <time>2020-06-04T13:17:11Z</time>
      </trkpt>
      <trkpt lat="46.90059" lon="-2.03374">
        <ele>2.4</ele>
        <time>2020-06-04T13:17:12Z</time>
      </trkpt>
      <trkpt lat="46.90066" lon="-2.03371">
        <ele>2.5</ele>
        <time>2020-06-04T13:17:13Z</time>
      </trkpt>
      <trkpt lat="46.90072" lon="-2.03369">
        <ele>2.5</ele>
        <time>2020-06-04T13:17:14Z</time>
      </trkpt>
      <trkpt lat="46.9008" lon="-2.03367">
        <ele>2.5</ele>
        <time>2020-06-04T13:17:15Z</time>
      </trkpt>
      <trkpt lat="46.90086" lon="-2.03365">
        <ele>2.5</ele>
        <time>2020-06-04T13:17:16Z</time>
      </trkpt>
      <trkpt lat="46.90094" lon="-2.03363">
        <ele>2.5</ele>
        <time>2020-06-04T13:17:17Z</time>
      </trkpt>
      <trkpt lat="46.901" lon="-2.03359">
        <ele>2.6</ele>
        <time>2020-06-04T13:17:18Z</time>
      </trkpt>
      <trkpt lat="46.90106" lon="-2.03355">
        <ele>2.6</ele>
        <time>2020-06-04T13:17:19Z</time>
      </trkpt>
      <trkpt lat="46.90112" lon="-2.0335">
        <ele>2.6</ele>
        <time>2020-06-04T13:17:20Z</time>
      </trkpt>
      <trkpt lat="46.90117" lon="-2.03345">
        <ele>2.6</ele>
        <time>2020-06-04T13:17:21Z</time>
      </trkpt>
      <trkpt lat="46.90121" lon="-2.03337">
        <ele>2.6</ele>
        <time>2020-06-04T13:17:22Z</time>
      </trkpt>
      <trkpt lat="46.90126" lon="-2.03329">
        <ele>2.6</ele>
        <time>2020-06-04T13:17:23Z</time>
      </trkpt>
      <trkpt lat="46.90131" lon="-2.03322">
        <ele>2.6</ele>
        <time>2020-06-04T13:17:24Z</time>
      </trkpt>
      <trkpt lat="46.90136" lon="-2.03316">
        <ele>2.6</ele>
        <time>2020-06-04T13:17:25Z</time>
      </trkpt>
      <trkpt lat="46.90141" lon="-2.03311">
        <ele>2.6</ele>
        <time>2020-06-04T13:17:26Z</time>
      </trkpt>
      <trkpt lat="46.90148" lon="-2.03305">
        <ele>2.7</ele>
        <time>2020-06-04T13:17:27Z</time>
      </trkpt>
      <trkpt lat="46.90155" lon="-2.03303">
        <ele>2.7</ele>
        <time>2020-06-04T13:17:28Z</time>
      </trkpt>
      <trkpt lat="46.90162" lon="-2.03302">
        <ele>2.7</ele>
        <time>2020-06-04T13:17:29Z</time>
      </trkpt>
      <trkpt lat="46.90168" lon="-2.03302">
        <ele>2.7</ele>
        <time>2020-06-04T13:17:30Z</time>
      </trkpt>
      <trkpt lat="46.90176" lon="-2.03302">
        <ele>2.7</ele>
        <time>2020-06-04T13:17:31Z</time>
      </trkpt>
      <trkpt lat="46.90182" lon="-2.03303">
        <ele>2.7</ele>
        <time>2020-06-04T13:17:32Z</time>
      </trkpt>
      <trkpt lat="46.90189" lon="-2.03305">
        <ele>2.7</ele>
        <time>2020-06-04T13:17:33Z</time>
      </trkpt>
      <trkpt lat="46.90196" lon="-2.03306">
        <ele>2.7</ele>
        <time>2020-06-04T13:17:34Z</time>
      </trkpt>
      <trkpt lat="46.90203" lon="-2.03306">
        <ele>2.7</ele>
        <time>2020-06-04T13:17:35Z</time>
      </trkpt>
      <trkpt lat="46.9021" lon="-2.03308">
        <ele>2.7</ele>
        <time>2020-06-04T13:17:36Z</time>
      </trkpt>
      <trkpt lat="46.90216" lon="-2.03309">
        <ele>2.7</ele>
        <time>2020-06-04T13:17:37Z</time>
      </trkpt>
      <trkpt lat="46.90223" lon="-2.0331">
        <ele>2.8</ele>
        <time>2020-06-04T13:17:38Z</time>
      </trkpt>
      <trkpt lat="46.90228" lon="-2.03312">
        <ele>2.8</ele>
        <time>2020-06-04T13:17:39Z</time>
      </trkpt>
      <trkpt lat="46.90235" lon="-2.03313">
        <ele>2.8</ele>
        <time>2020-06-04T13:17:40Z</time>
      </trkpt>
      <trkpt lat="46.90241" lon="-2.03313">
        <ele>2.8</ele>
        <time>2020-06-04T13:17:41Z</time>
      </trkpt>
      <trkpt lat="46.90248" lon="-2.03312">
        <ele>2.8</ele>
        <time>2020-06-04T13:17:42Z</time>
      </trkpt>
      <trkpt lat="46.90255" lon="-2.03312">
        <ele>2.8</ele>
        <time>2020-06-04T13:17:43Z</time>
      </trkpt>
      <trkpt lat="46.90262" lon="-2.03312">
        <ele>2.8</ele>
        <time>2020-06-04T13:17:44Z</time>
      </trkpt>
      <trkpt lat="46.90269" lon="-2.03311">
        <ele>2.8</ele>
        <time>2020-06-04T13:17:45Z</time>
      </trkpt>
      <trkpt lat="46.90276" lon="-2.03311">
        <ele>2.8</ele>
        <time>2020-06-04T13:17:46Z</time>
      </trkpt>
      <trkpt lat="46.90283" lon="-2.0331">
        <ele>2.8</ele>
        <time>2020-06-04T13:17:47Z</time>
      </trkpt>
      <trkpt lat="46.90291" lon="-2.03306">
        <ele>2.8</ele>
        <time>2020-06-04T13:17:48Z</time>
      </trkpt>
      <trkpt lat="46.90298" lon="-2.03305">
        <ele>2.8</ele>
        <time>2020-06-04T13:17:49Z</time>
      </trkpt>
      <trkpt lat="46.90304" lon="-2.03304">
        <ele>2.9</ele>
        <time>2020-06-04T13:17:50Z</time>
      </trkpt>
      <trkpt lat="46.90312" lon="-2.03303">
        <ele>2.9</ele>
        <time>2020-06-04T13:17:51Z</time>
      </trkpt>
      <trkpt lat="46.90319" lon="-2.03304">
        <ele>2.9</ele>
        <time>2020-06-04T13:17:52Z</time>
      </trkpt>
      <trkpt lat="46.90326" lon="-2.03307">
        <ele>2.9</ele>
        <time>2020-06-04T13:17:53Z</time>
      </trkpt>
      <trkpt lat="46.90333" lon="-2.03313">
        <ele>2.9</ele>
        <time>2020-06-04T13:17:54Z</time>
      </trkpt>
      <trkpt lat="46.90339" lon="-2.03318">
        <ele>2.9</ele>
        <time>2020-06-04T13:17:55Z</time>
      </trkpt>
      <trkpt lat="46.90345" lon="-2.03324">
        <ele>3</ele>
        <time>2020-06-04T13:17:56Z</time>
      </trkpt>
      <trkpt lat="46.90349" lon="-2.0333">
        <ele>3</ele>
        <time>2020-06-04T13:17:57Z</time>
      </trkpt>
      <trkpt lat="46.90354" lon="-2.03336">
        <ele>3</ele>
        <time>2020-06-04T13:17:58Z</time>
      </trkpt>
      <trkpt lat="46.9036" lon="-2.03345">
        <ele>3</ele>
        <time>2020-06-04T13:17:59Z</time>
      </trkpt>
      <trkpt lat="46.90364" lon="-2.03352">
        <ele>3</ele>
        <time>2020-06-04T13:18:00Z</time>
      </trkpt>
      <trkpt lat="46.90367" lon="-2.0336">
        <ele>3</ele>
        <time>2020-06-04T13:18:01Z</time>
      </trkpt>
      <trkpt lat="46.90369" lon="-2.03367">
        <ele>3</ele>
        <time>2020-06-04T13:18:02Z</time>
      </trkpt>
      <trkpt lat="46.90371" lon="-2.03375">
        <ele>3.1</ele>
        <time>2020-06-04T13:18:03Z</time>
      </trkpt>
      <trkpt lat="46.90373" lon="-2.03383">
        <ele>3.1</ele>
        <time>2020-06-04T13:18:04Z</time>
      </trkpt>
      <trkpt lat="46.90374" lon="-2.0339">
        <ele>3.1</ele>
        <time>2020-06-04T13:18:05Z</time>
      </trkpt>
      <trkpt lat="46.90375" lon="-2.03398">
        <ele>3.1</ele>
        <time>2020-06-04T13:18:06Z</time>
      </trkpt>
      <trkpt lat="46.90376" lon="-2.03404">
        <ele>3.1</ele>
        <time>2020-06-04T13:18:07Z</time>
      </trkpt>
      <trkpt lat="46.90376" lon="-2.03411">
        <ele>3.1</ele>
        <time>2020-06-04T13:18:08Z</time>
      </trkpt>
      <trkpt lat="46.90377" lon="-2.03419">
        <ele>3.1</ele>
        <time>2020-06-04T13:18:09Z</time>
      </trkpt>
      <trkpt lat="46.90377" lon="-2.03426">
        <ele>3.1</ele>
        <time>2020-06-04T13:18:10Z</time>
      </trkpt>
      <trkpt lat="46.90378" lon="-2.03433">
        <ele>3.2</ele>
        <time>2020-06-04T13:18:11Z</time>
      </trkpt>
      <trkpt lat="46.90379" lon="-2.0344">
        <ele>3.2</ele>
        <time>2020-06-04T13:18:12Z</time>
      </trkpt>
      <trkpt lat="46.9038" lon="-2.03448">
        <ele>3.2</ele>
        <time>2020-06-04T13:18:13Z</time>
      </trkpt>
      <trkpt lat="46.90381" lon="-2.03457">
        <ele>3.2</ele>
        <time>2020-06-04T13:18:14Z</time>
      </trkpt>
      <trkpt lat="46.90381" lon="-2.03463">
        <ele>3.2</ele>
        <time>2020-06-04T13:18:15Z</time>
      </trkpt>
      <trkpt lat="46.9038" lon="-2.0347">
        <ele>3.2</ele>
        <time>2020-06-04T13:18:16Z</time>
      </trkpt>
      <trkpt lat="46.9038" lon="-2.03476">
        <ele>3.2</ele>
        <time>2020-06-04T13:18:17Z</time>
      </trkpt>
      <trkpt lat="46.9038" lon="-2.03482">
        <ele>3.2</ele>
        <time>2020-06-04T13:18:18Z</time>
      </trkpt>
      <trkpt lat="46.9038" lon="-2.03488">
        <ele>3.2</ele>
        <time>2020-06-04T13:18:19Z</time>
      </trkpt>
      <trkpt lat="46.9038" lon="-2.03494">
        <ele>3.2</ele>
        <time>2020-06-04T13:18:20Z</time>
      </trkpt>
      <trkpt lat="46.9038" lon="-2.03502">
        <ele>3.2</ele>
        <time>2020-06-04T13:18:21Z</time>
      </trkpt>
      <trkpt lat="46.9038" lon="-2.03509">
        <ele>3.2</ele>
        <time>2020-06-04T13:18:22Z</time>
      </trkpt>
      <trkpt lat="46.90381" lon="-2.03515">
        <ele>3.2</ele>
        <time>2020-06-04T13:18:23Z</time>
      </trkpt>
      <trkpt lat="46.90381" lon="-2.03522">
        <ele>3.2</ele>
        <time>2020-06-04T13:18:24Z</time>
      </trkpt>
      <trkpt lat="46.90382" lon="-2.03528">
        <ele>3.2</ele>
        <time>2020-06-04T13:18:25Z</time>
      </trkpt>
      <trkpt lat="46.90382" lon="-2.03535">
        <ele>3.2</ele>
        <time>2020-06-04T13:18:26Z</time>
      </trkpt>
      <trkpt lat="46.90383" lon="-2.03541">
        <ele>3.3</ele>
        <time>2020-06-04T13:18:27Z</time>
      </trkpt>
      <trkpt lat="46.90383" lon="-2.03547">
        <ele>3.3</ele>
        <time>2020-06-04T13:18:28Z</time>
      </trkpt>
      <trkpt lat="46.90384" lon="-2.03553">
        <ele>3.3</ele>
        <time>2020-06-04T13:18:29Z</time>
      </trkpt>
      <trkpt lat="46.90385" lon="-2.03559">
        <ele>3.3</ele>
        <time>2020-06-04T13:18:30Z</time>
      </trkpt>
      <trkpt lat="46.90386" lon="-2.03567">
        <ele>3.3</ele>
        <time>2020-06-04T13:18:31Z</time>
      </trkpt>
      <trkpt lat="46.90387" lon="-2.03577">
        <ele>3.3</ele>
        <time>2020-06-04T13:18:32Z</time>
      </trkpt>
      <trkpt lat="46.90389" lon="-2.03584">
        <ele>3.3</ele>
        <time>2020-06-04T13:18:33Z</time>
      </trkpt>
      <trkpt lat="46.90389" lon="-2.03594">
        <ele>3.3</ele>
        <time>2020-06-04T13:18:34Z</time>
      </trkpt>
      <trkpt lat="46.90389" lon="-2.03602">
        <ele>3.3</ele>
        <time>2020-06-04T13:18:35Z</time>
      </trkpt>
      <trkpt lat="46.9039" lon="-2.03612">
        <ele>3.4</ele>
        <time>2020-06-04T13:18:36Z</time>
      </trkpt>
      <trkpt lat="46.9039" lon="-2.03621">
        <ele>3.4</ele>
        <time>2020-06-04T13:18:37Z</time>
      </trkpt>
      <trkpt lat="46.9039" lon="-2.03629">
        <ele>3.4</ele>
        <time>2020-06-04T13:18:38Z</time>
      </trkpt>
      <trkpt lat="46.90391" lon="-2.03637">
        <ele>3.4</ele>
        <time>2020-06-04T13:18:39Z</time>
      </trkpt>
      <trkpt lat="46.90392" lon="-2.03645">
        <ele>3.4</ele>
        <time>2020-06-04T13:18:40Z</time>
      </trkpt>
      <trkpt lat="46.90393" lon="-2.03653">
        <ele>3.4</ele>
        <time>2020-06-04T13:18:41Z</time>
      </trkpt>
      <trkpt lat="46.90395" lon="-2.03661">
        <ele>3.4</ele>
        <time>2020-06-04T13:18:42Z</time>
      </trkpt>
      <trkpt lat="46.90396" lon="-2.03669">
        <ele>3.4</ele>
        <time>2020-06-04T13:18:43Z</time>
      </trkpt>
      <trkpt lat="46.90397" lon="-2.03678">
        <ele>3.5</ele>
        <time>2020-06-04T13:18:44Z</time>
      </trkpt>
      <trkpt lat="46.90399" lon="-2.03687">
        <ele>3.5</ele>
        <time>2020-06-04T13:18:45Z</time>
      </trkpt>
      <trkpt lat="46.904" lon="-2.03695">
        <ele>3.5</ele>
        <time>2020-06-04T13:18:46Z</time>
      </trkpt>
      <trkpt lat="46.90401" lon="-2.03702">
        <ele>3.5</ele>
        <time>2020-06-04T13:18:47Z</time>
      </trkpt>
      <trkpt lat="46.90402" lon="-2.0371">
        <ele>3.5</ele>
        <time>2020-06-04T13:18:48Z</time>
      </trkpt>
      <trkpt lat="46.90404" lon="-2.03718">
        <ele>3.5</ele>
        <time>2020-06-04T13:18:49Z</time>
      </trkpt>
      <trkpt lat="46.90405" lon="-2.03726">
        <ele>3.5</ele>
        <time>2020-06-04T13:18:50Z</time>
      </trkpt>
      <trkpt lat="46.90407" lon="-2.03733">
        <ele>3.6</ele>
        <time>2020-06-04T13:18:51Z</time>
      </trkpt>
      <trkpt lat="46.90409" lon="-2.0374">
        <ele>3.6</ele>
        <time>2020-06-04T13:18:52Z</time>
      </trkpt>
      <trkpt lat="46.90411" lon="-2.03748">
        <ele>3.6</ele>
        <time>2020-06-04T13:18:53Z</time>
      </trkpt>
      <trkpt lat="46.90413" lon="-2.03755">
        <ele>3.6</ele>
        <time>2020-06-04T13:18:54Z</time>
      </trkpt>
      <trkpt lat="46.90415" lon="-2.03763">
        <ele>3.6</ele>
        <time>2020-06-04T13:18:55Z</time>
      </trkpt>
      <trkpt lat="46.90417" lon="-2.03771">
        <ele>3.6</ele>
        <time>2020-06-04T13:18:56Z</time>
      </trkpt>
      <trkpt lat="46.90418" lon="-2.03781">
        <ele>3.6</ele>
        <time>2020-06-04T13:18:57Z</time>
      </trkpt>
      <trkpt lat="46.9042" lon="-2.03789">
        <ele>3.7</ele>
        <time>2020-06-04T13:18:58Z</time>
      </trkpt>
      <trkpt lat="46.90421" lon="-2.03797">
        <ele>3.7</ele>
        <time>2020-06-04T13:18:59Z</time>
      </trkpt>
      <trkpt lat="46.90423" lon="-2.03804">
        <ele>3.7</ele>
        <time>2020-06-04T13:19:00Z</time>
      </trkpt>
      <trkpt lat="46.90423" lon="-2.03812">
        <ele>3.7</ele>
        <time>2020-06-04T13:19:01Z</time>
      </trkpt>
      <trkpt lat="46.90424" lon="-2.03818">
        <ele>3.7</ele>
        <time>2020-06-04T13:19:02Z</time>
      </trkpt>
      <trkpt lat="46.90425" lon="-2.03826">
        <ele>3.7</ele>
        <time>2020-06-04T13:19:03Z</time>
      </trkpt>
      <trkpt lat="46.90425" lon="-2.03834">
        <ele>3.7</ele>
        <time>2020-06-04T13:19:04Z</time>
      </trkpt>
      <trkpt lat="46.90425" lon="-2.03844">
        <ele>3.7</ele>
        <time>2020-06-04T13:19:05Z</time>
      </trkpt>
      <trkpt lat="46.90427" lon="-2.0385">
        <ele>3.8</ele>
        <time>2020-06-04T13:19:06Z</time>
      </trkpt>
      <trkpt lat="46.90428" lon="-2.03857">
        <ele>3.8</ele>
        <time>2020-06-04T13:19:07Z</time>
      </trkpt>
      <trkpt lat="46.90428" lon="-2.03866">
        <ele>3.8</ele>
        <time>2020-06-04T13:19:08Z</time>
      </trkpt>
      <trkpt lat="46.90429" lon="-2.03874">
        <ele>3.8</ele>
        <time>2020-06-04T13:19:09Z</time>
      </trkpt>
      <trkpt lat="46.90429" lon="-2.03882">
        <ele>3.8</ele>
        <time>2020-06-04T13:19:10Z</time>
      </trkpt>
      <trkpt lat="46.90429" lon="-2.0389">
        <ele>3.8</ele>
        <time>2020-06-04T13:19:11Z</time>
      </trkpt>
      <trkpt lat="46.90429" lon="-2.03899">
        <ele>3.7</ele>
        <time>2020-06-04T13:19:12Z</time>
      </trkpt>
      <trkpt lat="46.9043" lon="-2.03908">
        <ele>3.5</ele>
        <time>2020-06-04T13:19:13Z</time>
      </trkpt>
      <trkpt lat="46.90432" lon="-2.03916">
        <ele>3.3</ele>
        <time>2020-06-04T13:19:14Z</time>
      </trkpt>
      <trkpt lat="46.90432" lon="-2.03927">
        <ele>3</ele>
        <time>2020-06-04T13:19:15Z</time>
      </trkpt>
      <trkpt lat="46.90434" lon="-2.03936">
        <ele>2.8</ele>
        <time>2020-06-04T13:19:16Z</time>
      </trkpt>
      <trkpt lat="46.90433" lon="-2.03945">
        <ele>2.5</ele>
        <time>2020-06-04T13:19:17Z</time>
      </trkpt>
      <trkpt lat="46.90432" lon="-2.03954">
        <ele>2.4</ele>
        <time>2020-06-04T13:19:18Z</time>
      </trkpt>
      <trkpt lat="46.90432" lon="-2.03962">
        <ele>2.2</ele>
        <time>2020-06-04T13:19:19Z</time>
      </trkpt>
      <trkpt lat="46.90431" lon="-2.03969">
        <ele>2.1</ele>
        <time>2020-06-04T13:19:20Z</time>
      </trkpt>
      <trkpt lat="46.9043" lon="-2.03977">
        <ele>1.9</ele>
        <time>2020-06-04T13:19:21Z</time>
      </trkpt>
      <trkpt lat="46.90429" lon="-2.03985">
        <ele>1.8</ele>
        <time>2020-06-04T13:19:22Z</time>
      </trkpt>
      <trkpt lat="46.90428" lon="-2.03992">
        <ele>1.7</ele>
        <time>2020-06-04T13:19:23Z</time>
      </trkpt>
      <trkpt lat="46.90427" lon="-2.03998">
        <ele>1.7</ele>
        <time>2020-06-04T13:19:24Z</time>
      </trkpt>
      <trkpt lat="46.90427" lon="-2.04006">
        <ele>1.6</ele>
        <time>2020-06-04T13:19:25Z</time>
      </trkpt>
      <trkpt lat="46.90427" lon="-2.04011">
        <ele>1.6</ele>
        <time>2020-06-04T13:19:26Z</time>
      </trkpt>
      <trkpt lat="46.90426" lon="-2.04019">
        <ele>1.6</ele>
        <time>2020-06-04T13:19:27Z</time>
      </trkpt>
      <trkpt lat="46.90425" lon="-2.04027">
        <ele>1.6</ele>
        <time>2020-06-04T13:19:28Z</time>
      </trkpt>
      <trkpt lat="46.90425" lon="-2.04034">
        <ele>1.6</ele>
        <time>2020-06-04T13:19:29Z</time>
      </trkpt>
      <trkpt lat="46.90425" lon="-2.04041">
        <ele>1.6</ele>
        <time>2020-06-04T13:19:30Z</time>
      </trkpt>
      <trkpt lat="46.90425" lon="-2.04048">
        <ele>1.6</ele>
        <time>2020-06-04T13:19:31Z</time>
      </trkpt>
      <trkpt lat="46.90425" lon="-2.04055">
        <ele>1.6</ele>
        <time>2020-06-04T13:19:32Z</time>
      </trkpt>
      <trkpt lat="46.90426" lon="-2.04062">
        <ele>1.6</ele>
        <time>2020-06-04T13:19:33Z</time>
      </trkpt>
      <trkpt lat="46.90426" lon="-2.0407">
        <ele>1.6</ele>
        <time>2020-06-04T13:19:34Z</time>
      </trkpt>
      <trkpt lat="46.90427" lon="-2.04077">
        <ele>1.6</ele>
        <time>2020-06-04T13:19:35Z</time>
      </trkpt>
      <trkpt lat="46.90428" lon="-2.04085">
        <ele>1.7</ele>
        <time>2020-06-04T13:19:36Z</time>
      </trkpt>
      <trkpt lat="46.9043" lon="-2.04093">
        <ele>1.7</ele>
        <time>2020-06-04T13:19:37Z</time>
      </trkpt>
      <trkpt lat="46.90432" lon="-2.041">
        <ele>1.7</ele>
        <time>2020-06-04T13:19:38Z</time>
      </trkpt>
      <trkpt lat="46.90434" lon="-2.04108">
        <ele>1.7</ele>
        <time>2020-06-04T13:19:39Z</time>
      </trkpt>
      <trkpt lat="46.90437" lon="-2.04115">
        <ele>1.8</ele>
        <time>2020-06-04T13:19:40Z</time>
      </trkpt>
      <trkpt lat="46.9044" lon="-2.04122">
        <ele>1.8</ele>
        <time>2020-06-04T13:19:41Z</time>
      </trkpt>
      <trkpt lat="46.90442" lon="-2.0413">
        <ele>1.8</ele>
        <time>2020-06-04T13:19:42Z</time>
      </trkpt>
      <trkpt lat="46.90443" lon="-2.04138">
        <ele>1.8</ele>
        <time>2020-06-04T13:19:43Z</time>
      </trkpt>
      <trkpt lat="46.90444" lon="-2.04146">
        <ele>1.9</ele>
        <time>2020-06-04T13:19:44Z</time>
      </trkpt>
      <trkpt lat="46.90445" lon="-2.04154">
        <ele>1.9</ele>
        <time>2020-06-04T13:19:45Z</time>
      </trkpt>
      <trkpt lat="46.90446" lon="-2.04163">
        <ele>1.9</ele>
        <time>2020-06-04T13:19:46Z</time>
      </trkpt>
      <trkpt lat="46.90447" lon="-2.0417">
        <ele>1.9</ele>
        <time>2020-06-04T13:19:47Z</time>
      </trkpt>
      <trkpt lat="46.90449" lon="-2.04177">
        <ele>1.9</ele>
        <time>2020-06-04T13:19:48Z</time>
      </trkpt>
      <trkpt lat="46.90451" lon="-2.04182">
        <ele>2</ele>
        <time>2020-06-04T13:19:49Z</time>
      </trkpt>
      <trkpt lat="46.90454" lon="-2.04187">
        <ele>2.1</ele>
        <time>2020-06-04T13:19:50Z</time>
      </trkpt>
      <trkpt lat="46.90456" lon="-2.04188">
        <ele>2.1</ele>
        <time>2020-06-04T13:19:51Z</time>
      </trkpt>
      <trkpt lat="46.90458" lon="-2.04188">
        <ele>2.2</ele>
        <time>2020-06-04T13:19:52Z</time>
      </trkpt>
      <trkpt lat="46.90461" lon="-2.04186">
        <ele>2.3</ele>
        <time>2020-06-04T13:19:53Z</time>
      </trkpt>
      <trkpt lat="46.90463" lon="-2.04184">
        <ele>2.3</ele>
        <time>2020-06-04T13:19:54Z</time>
      </trkpt>
      <trkpt lat="46.90467" lon="-2.04182">
        <ele>2.4</ele>
        <time>2020-06-04T13:19:55Z</time>
      </trkpt>
      <trkpt lat="46.9047" lon="-2.04177">
        <ele>2.5</ele>
        <time>2020-06-04T13:19:56Z</time>
      </trkpt>
      <trkpt lat="46.90475" lon="-2.04175">
        <ele>2.6</ele>
        <time>2020-06-04T13:19:57Z</time>
      </trkpt>
      <trkpt lat="46.90477" lon="-2.04174">
        <ele>2.7</ele>
        <time>2020-06-04T13:19:58Z</time>
      </trkpt>
      <trkpt lat="46.9048" lon="-2.04172">
        <ele>2.8</ele>
        <time>2020-06-04T13:19:59Z</time>
      </trkpt>
      <trkpt lat="46.90484" lon="-2.04172">
        <ele>2.8</ele>
        <time>2020-06-04T13:20:00Z</time>
      </trkpt>
      <trkpt lat="46.90486" lon="-2.0417">
        <ele>2.9</ele>
        <time>2020-06-04T13:20:01Z</time>
      </trkpt>
      <trkpt lat="46.90489" lon="-2.0417">
        <ele>2.9</ele>
        <time>2020-06-04T13:20:02Z</time>
      </trkpt>
      <trkpt lat="46.90493" lon="-2.04168">
        <ele>3</ele>
        <time>2020-06-04T13:20:03Z</time>
      </trkpt>
      <trkpt lat="46.90498" lon="-2.04166">
        <ele>3.1</ele>
        <time>2020-06-04T13:20:04Z</time>
      </trkpt>
      <trkpt lat="46.90501" lon="-2.04165">
        <ele>3.2</ele>
        <time>2020-06-04T13:20:05Z</time>
      </trkpt>
      <trkpt lat="46.90505" lon="-2.04163">
        <ele>3.2</ele>
        <time>2020-06-04T13:20:06Z</time>
      </trkpt>
      <trkpt lat="46.90509" lon="-2.04161">
        <ele>3.3</ele>
        <time>2020-06-04T13:20:07Z</time>
      </trkpt>
      <trkpt lat="46.90513" lon="-2.04159">
        <ele>3.4</ele>
        <time>2020-06-04T13:20:08Z</time>
      </trkpt>
      <trkpt lat="46.90516" lon="-2.04158">
        <ele>3.5</ele>
        <time>2020-06-04T13:20:09Z</time>
      </trkpt>
      <trkpt lat="46.90521" lon="-2.04157">
        <ele>3.6</ele>
        <time>2020-06-04T13:20:10Z</time>
      </trkpt>
      <trkpt lat="46.90524" lon="-2.04157">
        <ele>3.7</ele>
        <time>2020-06-04T13:20:11Z</time>
      </trkpt>
      <trkpt lat="46.90528" lon="-2.04159">
        <ele>3.8</ele>
        <time>2020-06-04T13:20:12Z</time>
      </trkpt>
      <trkpt lat="46.90533" lon="-2.04162">
        <ele>4</ele>
        <time>2020-06-04T13:20:13Z</time>
      </trkpt>
      <trkpt lat="46.90537" lon="-2.04163">
        <ele>4.3</ele>
        <time>2020-06-04T13:20:14Z</time>
      </trkpt>
      <trkpt lat="46.90541" lon="-2.04166">
        <ele>4.5</ele>
        <time>2020-06-04T13:20:15Z</time>
      </trkpt>
      <trkpt lat="46.90545" lon="-2.04168">
        <ele>4.8</ele>
        <time>2020-06-04T13:20:16Z</time>
      </trkpt>
      <trkpt lat="46.90549" lon="-2.04169">
        <ele>5</ele>
        <time>2020-06-04T13:20:17Z</time>
      </trkpt>
      <trkpt lat="46.90553" lon="-2.04169">
        <ele>5.3</ele>
        <time>2020-06-04T13:20:18Z</time>
      </trkpt>
      <trkpt lat="46.90557" lon="-2.04171">
        <ele>5.6</ele>
        <time>2020-06-04T13:20:19Z</time>
      </trkpt>
      <trkpt lat="46.9056" lon="-2.04173">
        <ele>5.8</ele>
        <time>2020-06-04T13:20:20Z</time>
      </trkpt>
      <trkpt lat="46.90565" lon="-2.04173">
        <ele>6.1</ele>
        <time>2020-06-04T13:20:21Z</time>
      </trkpt>
      <trkpt lat="46.90569" lon="-2.04175">
        <ele>6.4</ele>
        <time>2020-06-04T13:20:22Z</time>
      </trkpt>
      <trkpt lat="46.90572" lon="-2.04176">
        <ele>6.7</ele>
        <time>2020-06-04T13:20:23Z</time>
      </trkpt>
      <trkpt lat="46.90576" lon="-2.04175">
        <ele>6.9</ele>
        <time>2020-06-04T13:20:24Z</time>
      </trkpt>
      <trkpt lat="46.90579" lon="-2.04174">
        <ele>7.1</ele>
        <time>2020-06-04T13:20:25Z</time>
      </trkpt>
      <trkpt lat="46.90583" lon="-2.04171">
        <ele>7.5</ele>
        <time>2020-06-04T13:20:26Z</time>
      </trkpt>
      <trkpt lat="46.90587" lon="-2.0417">
        <ele>7.7</ele>
        <time>2020-06-04T13:20:27Z</time>
      </trkpt>
      <trkpt lat="46.90592" lon="-2.04168">
        <ele>8</ele>
        <time>2020-06-04T13:20:28Z</time>
      </trkpt>
      <trkpt lat="46.90595" lon="-2.04167">
        <ele>8.2</ele>
        <time>2020-06-04T13:20:29Z</time>
      </trkpt>
      <trkpt lat="46.906" lon="-2.04165">
        <ele>8.5</ele>
        <time>2020-06-04T13:20:30Z</time>
      </trkpt>
      <trkpt lat="46.90604" lon="-2.04166">
        <ele>8.7</ele>
        <time>2020-06-04T13:20:31Z</time>
      </trkpt>
      <trkpt lat="46.90608" lon="-2.04165">
        <ele>8.9</ele>
        <time>2020-06-04T13:20:32Z</time>
      </trkpt>
      <trkpt lat="46.90613" lon="-2.04163">
        <ele>9.1</ele>
        <time>2020-06-04T13:20:33Z</time>
      </trkpt>
      <trkpt lat="46.90617" lon="-2.04162">
        <ele>9.2</ele>
        <time>2020-06-04T13:20:34Z</time>
      </trkpt>
      <trkpt lat="46.90621" lon="-2.04162">
        <ele>9.3</ele>
        <time>2020-06-04T13:20:35Z</time>
      </trkpt>
      <trkpt lat="46.90624" lon="-2.04162">
        <ele>9.4</ele>
        <time>2020-06-04T13:20:36Z</time>
      </trkpt>
      <trkpt lat="46.90627" lon="-2.04161">
        <ele>9.5</ele>
        <time>2020-06-04T13:20:37Z</time>
      </trkpt>
      <trkpt lat="46.90631" lon="-2.04162">
        <ele>9.6</ele>
        <time>2020-06-04T13:20:38Z</time>
      </trkpt>
      <trkpt lat="46.90635" lon="-2.0416">
        <ele>9.7</ele>
        <time>2020-06-04T13:20:39Z</time>
      </trkpt>
      <trkpt lat="46.90638" lon="-2.0416">
        <ele>9.8</ele>
        <time>2020-06-04T13:20:40Z</time>
      </trkpt>
      <trkpt lat="46.90643" lon="-2.04159">
        <ele>9.9</ele>
        <time>2020-06-04T13:20:41Z</time>
      </trkpt>
      <trkpt lat="46.90647" lon="-2.04158">
        <ele>10</ele>
        <time>2020-06-04T13:20:42Z</time>
      </trkpt>
      <trkpt lat="46.90651" lon="-2.04157">
        <ele>10.1</ele>
        <time>2020-06-04T13:20:43Z</time>
      </trkpt>
      <trkpt lat="46.90655" lon="-2.04157">
        <ele>10.1</ele>
        <time>2020-06-04T13:20:44Z</time>
      </trkpt>
      <trkpt lat="46.90659" lon="-2.04156">
        <ele>10.2</ele>
        <time>2020-06-04T13:20:45Z</time>
      </trkpt>
      <trkpt lat="46.90663" lon="-2.04157">
        <ele>10.2</ele>
        <time>2020-06-04T13:20:46Z</time>
      </trkpt>
      <trkpt lat="46.90667" lon="-2.04157">
        <ele>10.3</ele>
        <time>2020-06-04T13:20:47Z</time>
      </trkpt>
      <trkpt lat="46.9067" lon="-2.04157">
        <ele>10.3</ele>
        <time>2020-06-04T13:20:48Z</time>
      </trkpt>
      <trkpt lat="46.90674" lon="-2.04158">
        <ele>10.3</ele>
        <time>2020-06-04T13:20:49Z</time>
      </trkpt>
      <trkpt lat="46.90679" lon="-2.04156">
        <ele>10.3</ele>
        <time>2020-06-04T13:20:50Z</time>
      </trkpt>
      <trkpt lat="46.90684" lon="-2.04156">
        <ele>10.3</ele>
        <time>2020-06-04T13:20:51Z</time>
      </trkpt>
      <trkpt lat="46.90688" lon="-2.04157">
        <ele>10.3</ele>
        <time>2020-06-04T13:20:52Z</time>
      </trkpt>
      <trkpt lat="46.90692" lon="-2.04156">
        <ele>10.4</ele>
        <time>2020-06-04T13:20:53Z</time>
      </trkpt>
      <trkpt lat="46.90695" lon="-2.04156">
        <ele>10.4</ele>
        <time>2020-06-04T13:20:54Z</time>
      </trkpt>
      <trkpt lat="46.90699" lon="-2.04156">
        <ele>10.4</ele>
        <time>2020-06-04T13:20:55Z</time>
      </trkpt>
      <trkpt lat="46.90704" lon="-2.04156">
        <ele>10.5</ele>
        <time>2020-06-04T13:20:56Z</time>
      </trkpt>
      <trkpt lat="46.90708" lon="-2.04156">
        <ele>10.6</ele>
        <time>2020-06-04T13:20:57Z</time>
      </trkpt>
      <trkpt lat="46.90713" lon="-2.04156">
        <ele>10.6</ele>
        <time>2020-06-04T13:20:58Z</time>
      </trkpt>
      <trkpt lat="46.90718" lon="-2.04154">
        <ele>10.7</ele>
        <time>2020-06-04T13:20:59Z</time>
      </trkpt>
      <trkpt lat="46.90722" lon="-2.04153">
        <ele>10.8</ele>
        <time>2020-06-04T13:21:00Z</time>
      </trkpt>
      <trkpt lat="46.90725" lon="-2.04153">
        <ele>10.8</ele>
        <time>2020-06-04T13:21:01Z</time>
      </trkpt>
      <trkpt lat="46.90729" lon="-2.04152">
        <ele>10.9</ele>
        <time>2020-06-04T13:21:02Z</time>
      </trkpt>
      <trkpt lat="46.90733" lon="-2.04151">
        <ele>10.9</ele>
        <time>2020-06-04T13:21:03Z</time>
      </trkpt>
      <trkpt lat="46.90736" lon="-2.04151">
        <ele>10.9</ele>
        <time>2020-06-04T13:21:04Z</time>
      </trkpt>
      <trkpt lat="46.90739" lon="-2.04152">
        <ele>11</ele>
        <time>2020-06-04T13:21:05Z</time>
      </trkpt>
      <trkpt lat="46.90742" lon="-2.04151">
        <ele>11</ele>
        <time>2020-06-04T13:21:06Z</time>
      </trkpt>
      <trkpt lat="46.90746" lon="-2.04151">
        <ele>11</ele>
        <time>2020-06-04T13:21:07Z</time>
      </trkpt>
      <trkpt lat="46.9075" lon="-2.04151">
        <ele>11.1</ele>
        <time>2020-06-04T13:21:08Z</time>
      </trkpt>
      <trkpt lat="46.90754" lon="-2.0415">
        <ele>11.1</ele>
        <time>2020-06-04T13:21:09Z</time>
      </trkpt>
      <trkpt lat="46.90758" lon="-2.0415">
        <ele>11.2</ele>
        <time>2020-06-04T13:21:10Z</time>
      </trkpt>
      <trkpt lat="46.90763" lon="-2.04149">
        <ele>11.2</ele>
        <time>2020-06-04T13:21:11Z</time>
      </trkpt>
      <trkpt lat="46.90767" lon="-2.04149">
        <ele>11.2</ele>
        <time>2020-06-04T13:21:12Z</time>
      </trkpt>
      <trkpt lat="46.90772" lon="-2.04147">
        <ele>11.3</ele>
        <time>2020-06-04T13:21:13Z</time>
      </trkpt>
      <trkpt lat="46.90776" lon="-2.04146">
        <ele>11.3</ele>
        <time>2020-06-04T13:21:14Z</time>
      </trkpt>
      <trkpt lat="46.90779" lon="-2.04147">
        <ele>11.3</ele>
        <time>2020-06-04T13:21:15Z</time>
      </trkpt>
      <trkpt lat="46.90783" lon="-2.04147">
        <ele>11.3</ele>
        <time>2020-06-04T13:21:16Z</time>
      </trkpt>
      <trkpt lat="46.90787" lon="-2.04147">
        <ele>11.3</ele>
        <time>2020-06-04T13:21:17Z</time>
      </trkpt>
      <trkpt lat="46.90791" lon="-2.04146">
        <ele>11.3</ele>
        <time>2020-06-04T13:21:18Z</time>
      </trkpt>
      <trkpt lat="46.90794" lon="-2.04146">
        <ele>11.3</ele>
        <time>2020-06-04T13:21:19Z</time>
      </trkpt>
      <trkpt lat="46.90798" lon="-2.04146">
        <ele>11.3</ele>
        <time>2020-06-04T13:21:20Z</time>
      </trkpt>
      <trkpt lat="46.90801" lon="-2.04146">
        <ele>11.3</ele>
        <time>2020-06-04T13:21:21Z</time>
      </trkpt>
      <trkpt lat="46.90805" lon="-2.04146">
        <ele>11.3</ele>
        <time>2020-06-04T13:21:22Z</time>
      </trkpt>
      <trkpt lat="46.90808" lon="-2.04145">
        <ele>11.3</ele>
        <time>2020-06-04T13:21:23Z</time>
      </trkpt>
      <trkpt lat="46.90811" lon="-2.04146">
        <ele>11.3</ele>
        <time>2020-06-04T13:21:24Z</time>
      </trkpt>
      <trkpt lat="46.90816" lon="-2.04147">
        <ele>11.3</ele>
        <time>2020-06-04T13:21:25Z</time>
      </trkpt>
      <trkpt lat="46.9082" lon="-2.04148">
        <ele>11.3</ele>
        <time>2020-06-04T13:21:26Z</time>
      </trkpt>
      <trkpt lat="46.90824" lon="-2.04149">
        <ele>11.3</ele>
        <time>2020-06-04T13:21:27Z</time>
      </trkpt>
      <trkpt lat="46.90828" lon="-2.04151">
        <ele>11.3</ele>
        <time>2020-06-04T13:21:28Z</time>
      </trkpt>
      <trkpt lat="46.90832" lon="-2.04152">
        <ele>11.3</ele>
        <time>2020-06-04T13:21:29Z</time>
      </trkpt>
      <trkpt lat="46.90836" lon="-2.04152">
        <ele>11.3</ele>
        <time>2020-06-04T13:21:30Z</time>
      </trkpt>
      <trkpt lat="46.9084" lon="-2.04152">
        <ele>11.3</ele>
        <time>2020-06-04T13:21:31Z</time>
      </trkpt>
      <trkpt lat="46.90845" lon="-2.04151">
        <ele>11.3</ele>
        <time>2020-06-04T13:21:32Z</time>
      </trkpt>
      <trkpt lat="46.90848" lon="-2.04151">
        <ele>11.3</ele>
        <time>2020-06-04T13:21:33Z</time>
      </trkpt>
      <trkpt lat="46.90853" lon="-2.0415">
        <ele>11.3</ele>
        <time>2020-06-04T13:21:34Z</time>
      </trkpt>
      <trkpt lat="46.90857" lon="-2.04149">
        <ele>11.3</ele>
        <time>2020-06-04T13:21:35Z</time>
      </trkpt>
      <trkpt lat="46.90861" lon="-2.04149">
        <ele>11.3</ele>
        <time>2020-06-04T13:21:36Z</time>
      </trkpt>
      <trkpt lat="46.90866" lon="-2.04149">
        <ele>11.2</ele>
        <time>2020-06-04T13:21:37Z</time>
      </trkpt>
      <trkpt lat="46.9087" lon="-2.04149">
        <ele>11.2</ele>
        <time>2020-06-04T13:21:38Z</time>
      </trkpt>
      <trkpt lat="46.90874" lon="-2.04149">
        <ele>11.2</ele>
        <time>2020-06-04T13:21:39Z</time>
      </trkpt>
      <trkpt lat="46.90879" lon="-2.04148">
        <ele>11.2</ele>
        <time>2020-06-04T13:21:40Z</time>
      </trkpt>
      <trkpt lat="46.90883" lon="-2.04148">
        <ele>11.2</ele>
        <time>2020-06-04T13:21:41Z</time>
      </trkpt>
      <trkpt lat="46.90888" lon="-2.04145">
        <ele>11.2</ele>
        <time>2020-06-04T13:21:42Z</time>
      </trkpt>
      <trkpt lat="46.90892" lon="-2.04145">
        <ele>11.2</ele>
        <time>2020-06-04T13:21:43Z</time>
      </trkpt>
      <trkpt lat="46.90896" lon="-2.04145">
        <ele>11.1</ele>
        <time>2020-06-04T13:21:44Z</time>
      </trkpt>
      <trkpt lat="46.909" lon="-2.04145">
        <ele>11.1</ele>
        <time>2020-06-04T13:21:45Z</time>
      </trkpt>
      <trkpt lat="46.90905" lon="-2.04146">
        <ele>11.1</ele>
        <time>2020-06-04T13:21:46Z</time>
      </trkpt>
      <trkpt lat="46.90909" lon="-2.04146">
        <ele>11.1</ele>
        <time>2020-06-04T13:21:47Z</time>
      </trkpt>
      <trkpt lat="46.90914" lon="-2.04147">
        <ele>11.1</ele>
        <time>2020-06-04T13:21:48Z</time>
      </trkpt>
      <trkpt lat="46.90919" lon="-2.04147">
        <ele>11</ele>
        <time>2020-06-04T13:21:49Z</time>
      </trkpt>
      <trkpt lat="46.90924" lon="-2.04146">
        <ele>11</ele>
        <time>2020-06-04T13:21:50Z</time>
      </trkpt>
      <trkpt lat="46.90928" lon="-2.04145">
        <ele>11</ele>
        <time>2020-06-04T13:21:51Z</time>
      </trkpt>
      <trkpt lat="46.90931" lon="-2.04147">
        <ele>10.9</ele>
        <time>2020-06-04T13:21:52Z</time>
      </trkpt>
      <trkpt lat="46.90935" lon="-2.04146">
        <ele>10.8</ele>
        <time>2020-06-04T13:21:53Z</time>
      </trkpt>
      <trkpt lat="46.90941" lon="-2.04145">
        <ele>10.7</ele>
        <time>2020-06-04T13:21:54Z</time>
      </trkpt>
      <trkpt lat="46.90945" lon="-2.04144">
        <ele>10.6</ele>
        <time>2020-06-04T13:21:55Z</time>
      </trkpt>
      <trkpt lat="46.90948" lon="-2.04145">
        <ele>10.5</ele>
        <time>2020-06-04T13:21:56Z</time>
      </trkpt>
      <trkpt lat="46.90953" lon="-2.04144">
        <ele>10.4</ele>
        <time>2020-06-04T13:21:57Z</time>
      </trkpt>
      <trkpt lat="46.90957" lon="-2.04143">
        <ele>10.3</ele>
        <time>2020-06-04T13:21:58Z</time>
      </trkpt>
      <trkpt lat="46.90962" lon="-2.04143">
        <ele>10.1</ele>
        <time>2020-06-04T13:21:59Z</time>
      </trkpt>
      <trkpt lat="46.90966" lon="-2.04142">
        <ele>10</ele>
        <time>2020-06-04T13:22:00Z</time>
      </trkpt>
      <trkpt lat="46.90969" lon="-2.04143">
        <ele>9.9</ele>
        <time>2020-06-04T13:22:01Z</time>
      </trkpt>
      <trkpt lat="46.90972" lon="-2.04143">
        <ele>9.8</ele>
        <time>2020-06-04T13:22:02Z</time>
      </trkpt>
      <trkpt lat="46.90976" lon="-2.04143">
        <ele>9.7</ele>
        <time>2020-06-04T13:22:03Z</time>
      </trkpt>
      <trkpt lat="46.9098" lon="-2.04142">
        <ele>9.6</ele>
        <time>2020-06-04T13:22:04Z</time>
      </trkpt>
      <trkpt lat="46.90985" lon="-2.04143">
        <ele>9.5</ele>
        <time>2020-06-04T13:22:05Z</time>
      </trkpt>
      <trkpt lat="46.90988" lon="-2.04144">
        <ele>9.5</ele>
        <time>2020-06-04T13:22:06Z</time>
      </trkpt>
      <trkpt lat="46.90992" lon="-2.04145">
        <ele>9.4</ele>
        <time>2020-06-04T13:22:07Z</time>
      </trkpt>
      <trkpt lat="46.90996" lon="-2.04145">
        <ele>9.3</ele>
        <time>2020-06-04T13:22:08Z</time>
      </trkpt>
      <trkpt lat="46.91" lon="-2.04145">
        <ele>9.2</ele>
        <time>2020-06-04T13:22:09Z</time>
      </trkpt>
      <trkpt lat="46.91004" lon="-2.04145">
        <ele>9.2</ele>
        <time>2020-06-04T13:22:10Z</time>
      </trkpt>
      <trkpt lat="46.91007" lon="-2.04145">
        <ele>9.1</ele>
        <time>2020-06-04T13:22:11Z</time>
      </trkpt>
      <trkpt lat="46.91011" lon="-2.04145">
        <ele>9.1</ele>
        <time>2020-06-04T13:22:12Z</time>
      </trkpt>
      <trkpt lat="46.91015" lon="-2.04145">
        <ele>9</ele>
        <time>2020-06-04T13:22:13Z</time>
      </trkpt>
      <trkpt lat="46.9102" lon="-2.04145">
        <ele>9</ele>
        <time>2020-06-04T13:22:14Z</time>
      </trkpt>
      <trkpt lat="46.91023" lon="-2.04145">
        <ele>9</ele>
        <time>2020-06-04T13:22:15Z</time>
      </trkpt>
      <trkpt lat="46.91027" lon="-2.04145">
        <ele>8.9</ele>
        <time>2020-06-04T13:22:16Z</time>
      </trkpt>
      <trkpt lat="46.91032" lon="-2.04144">
        <ele>8.9</ele>
        <time>2020-06-04T13:22:17Z</time>
      </trkpt>
      <trkpt lat="46.91035" lon="-2.04144">
        <ele>8.8</ele>
        <time>2020-06-04T13:22:18Z</time>
      </trkpt>
      <trkpt lat="46.91039" lon="-2.04145">
        <ele>8.8</ele>
        <time>2020-06-04T13:22:19Z</time>
      </trkpt>
      <trkpt lat="46.91043" lon="-2.04145">
        <ele>8.8</ele>
        <time>2020-06-04T13:22:20Z</time>
      </trkpt>
      <trkpt lat="46.91047" lon="-2.04144">
        <ele>8.7</ele>
        <time>2020-06-04T13:22:21Z</time>
      </trkpt>
      <trkpt lat="46.91051" lon="-2.04144">
        <ele>8.7</ele>
        <time>2020-06-04T13:22:22Z</time>
      </trkpt>
      <trkpt lat="46.91054" lon="-2.04145">
        <ele>8.7</ele>
        <time>2020-06-04T13:22:23Z</time>
      </trkpt>
      <trkpt lat="46.91057" lon="-2.04147">
        <ele>8.6</ele>
        <time>2020-06-04T13:22:24Z</time>
      </trkpt>
      <trkpt lat="46.91062" lon="-2.04147">
        <ele>8.6</ele>
        <time>2020-06-04T13:22:25Z</time>
      </trkpt>
      <trkpt lat="46.91066" lon="-2.04147">
        <ele>8.6</ele>
        <time>2020-06-04T13:22:26Z</time>
      </trkpt>
      <trkpt lat="46.91071" lon="-2.04148">
        <ele>8.5</ele>
        <time>2020-06-04T13:22:27Z</time>
      </trkpt>
      <trkpt lat="46.91077" lon="-2.04146">
        <ele>8.4</ele>
        <time>2020-06-04T13:22:28Z</time>
      </trkpt>
      <trkpt lat="46.91082" lon="-2.04145">
        <ele>8.4</ele>
        <time>2020-06-04T13:22:29Z</time>
      </trkpt>
      <trkpt lat="46.91085" lon="-2.04144">
        <ele>8.3</ele>
        <time>2020-06-04T13:22:30Z</time>
      </trkpt>
      <trkpt lat="46.91088" lon="-2.04143">
        <ele>8.3</ele>
        <time>2020-06-04T13:22:31Z</time>
      </trkpt>
      <trkpt lat="46.91092" lon="-2.04141">
        <ele>8.2</ele>
        <time>2020-06-04T13:22:32Z</time>
      </trkpt>
      <trkpt lat="46.91095" lon="-2.04139">
        <ele>8.2</ele>
        <time>2020-06-04T13:22:33Z</time>
      </trkpt>
      <trkpt lat="46.91099" lon="-2.04138">
        <ele>8.2</ele>
        <time>2020-06-04T13:22:34Z</time>
      </trkpt>
      <trkpt lat="46.91103" lon="-2.04137">
        <ele>8.1</ele>
        <time>2020-06-04T13:22:35Z</time>
      </trkpt>
      <trkpt lat="46.91106" lon="-2.04136">
        <ele>8.1</ele>
        <time>2020-06-04T13:22:36Z</time>
      </trkpt>
      <trkpt lat="46.9111" lon="-2.04135">
        <ele>8</ele>
        <time>2020-06-04T13:22:37Z</time>
      </trkpt>
      <trkpt lat="46.91113" lon="-2.04134">
        <ele>8</ele>
        <time>2020-06-04T13:22:38Z</time>
      </trkpt>
      <trkpt lat="46.91116" lon="-2.04133">
        <ele>7.9</ele>
        <time>2020-06-04T13:22:39Z</time>
      </trkpt>
      <trkpt lat="46.9112" lon="-2.04132">
        <ele>7.9</ele>
        <time>2020-06-04T13:22:40Z</time>
      </trkpt>
      <trkpt lat="46.91124" lon="-2.0413">
        <ele>7.9</ele>
        <time>2020-06-04T13:22:41Z</time>
      </trkpt>
      <trkpt lat="46.91127" lon="-2.0413">
        <ele>7.8</ele>
        <time>2020-06-04T13:22:42Z</time>
      </trkpt>
      <trkpt lat="46.9113" lon="-2.04131">
        <ele>7.8</ele>
        <time>2020-06-04T13:22:43Z</time>
      </trkpt>
      <trkpt lat="46.91133" lon="-2.04128">
        <ele>7.8</ele>
        <time>2020-06-04T13:22:44Z</time>
      </trkpt>
      <trkpt lat="46.91137" lon="-2.04128">
        <ele>7.7</ele>
        <time>2020-06-04T13:22:45Z</time>
      </trkpt>
      <trkpt lat="46.9114" lon="-2.04127">
        <ele>7.7</ele>
        <time>2020-06-04T13:22:46Z</time>
      </trkpt>
      <trkpt lat="46.91143" lon="-2.04127">
        <ele>7.7</ele>
        <time>2020-06-04T13:22:47Z</time>
      </trkpt>
      <trkpt lat="46.91146" lon="-2.04126">
        <ele>7.7</ele>
        <time>2020-06-04T13:22:48Z</time>
      </trkpt>
      <trkpt lat="46.91149" lon="-2.04125">
        <ele>7.7</ele>
        <time>2020-06-04T13:22:49Z</time>
      </trkpt>
      <trkpt lat="46.91153" lon="-2.04125">
        <ele>7.7</ele>
        <time>2020-06-04T13:22:50Z</time>
      </trkpt>
      <trkpt lat="46.91156" lon="-2.04123">
        <ele>7.7</ele>
        <time>2020-06-04T13:22:51Z</time>
      </trkpt>
      <trkpt lat="46.91159" lon="-2.04122">
        <ele>7.8</ele>
        <time>2020-06-04T13:22:52Z</time>
      </trkpt>
      <trkpt lat="46.91162" lon="-2.04119">
        <ele>7.8</ele>
        <time>2020-06-04T13:22:53Z</time>
      </trkpt>
      <trkpt lat="46.91164" lon="-2.04118">
        <ele>7.8</ele>
        <time>2020-06-04T13:22:54Z</time>
      </trkpt>
      <trkpt lat="46.91167" lon="-2.04115">
        <ele>7.8</ele>
        <time>2020-06-04T13:22:55Z</time>
      </trkpt>
      <trkpt lat="46.91169" lon="-2.04113">
        <ele>7.8</ele>
        <time>2020-06-04T13:22:56Z</time>
      </trkpt>
      <trkpt lat="46.91172" lon="-2.04111">
        <ele>7.8</ele>
        <time>2020-06-04T13:22:57Z</time>
      </trkpt>
      <trkpt lat="46.91174" lon="-2.04109">
        <ele>7.8</ele>
        <time>2020-06-04T13:22:58Z</time>
      </trkpt>
      <trkpt lat="46.91178" lon="-2.04106">
        <ele>7.7</ele>
        <time>2020-06-04T13:22:59Z</time>
      </trkpt>
      <trkpt lat="46.9118" lon="-2.04104">
        <ele>7.7</ele>
        <time>2020-06-04T13:23:00Z</time>
      </trkpt>
      <trkpt lat="46.91183" lon="-2.04102">
        <ele>7.7</ele>
        <time>2020-06-04T13:23:01Z</time>
      </trkpt>
      <trkpt lat="46.91186" lon="-2.04099">
        <ele>7.7</ele>
        <time>2020-06-04T13:23:02Z</time>
      </trkpt>
      <trkpt lat="46.9119" lon="-2.04098">
        <ele>7.7</ele>
        <time>2020-06-04T13:23:03Z</time>
      </trkpt>
      <trkpt lat="46.91192" lon="-2.04095">
        <ele>7.6</ele>
        <time>2020-06-04T13:23:04Z</time>
      </trkpt>
      <trkpt lat="46.91195" lon="-2.04093">
        <ele>7.6</ele>
        <time>2020-06-04T13:23:05Z</time>
      </trkpt>
      <trkpt lat="46.91198" lon="-2.0409">
        <ele>7.6</ele>
        <time>2020-06-04T13:23:06Z</time>
      </trkpt>
      <trkpt lat="46.91201" lon="-2.04089">
        <ele>7.6</ele>
        <time>2020-06-04T13:23:07Z</time>
      </trkpt>
      <trkpt lat="46.91203" lon="-2.04086">
        <ele>7.5</ele>
        <time>2020-06-04T13:23:08Z</time>
      </trkpt>
      <trkpt lat="46.91206" lon="-2.04084">
        <ele>7.5</ele>
        <time>2020-06-04T13:23:09Z</time>
      </trkpt>
      <trkpt lat="46.91209" lon="-2.04079">
        <ele>7.5</ele>
        <time>2020-06-04T13:23:10Z</time>
      </trkpt>
      <trkpt lat="46.91211" lon="-2.04077">
        <ele>7.5</ele>
        <time>2020-06-04T13:23:11Z</time>
      </trkpt>
      <trkpt lat="46.91214" lon="-2.04075">
        <ele>7.5</ele>
        <time>2020-06-04T13:23:12Z</time>
      </trkpt>
      <trkpt lat="46.91217" lon="-2.04072">
        <ele>7.5</ele>
        <time>2020-06-04T13:23:13Z</time>
      </trkpt>
      <trkpt lat="46.91218" lon="-2.0407">
        <ele>7.5</ele>
        <time>2020-06-04T13:23:14Z</time>
      </trkpt>
      <trkpt lat="46.91221" lon="-2.04067">
        <ele>7.5</ele>
        <time>2020-06-04T13:23:15Z</time>
      </trkpt>
      <trkpt lat="46.91222" lon="-2.04066">
        <ele>7.5</ele>
        <time>2020-06-04T13:23:16Z</time>
      </trkpt>
      <trkpt lat="46.91225" lon="-2.04064">
        <ele>7.5</ele>
        <time>2020-06-04T13:23:17Z</time>
      </trkpt>
      <trkpt lat="46.91226" lon="-2.04062">
        <ele>7.5</ele>
        <time>2020-06-04T13:23:18Z</time>
      </trkpt>
      <trkpt lat="46.91229" lon="-2.04061">
        <ele>7.5</ele>
        <time>2020-06-04T13:23:19Z</time>
      </trkpt>
      <trkpt lat="46.91232" lon="-2.04057">
        <ele>7.5</ele>
        <time>2020-06-04T13:23:20Z</time>
      </trkpt>
      <trkpt lat="46.91235" lon="-2.04053">
        <ele>7.5</ele>
        <time>2020-06-04T13:23:21Z</time>
      </trkpt>
      <trkpt lat="46.91238" lon="-2.04051">
        <ele>7.6</ele>
        <time>2020-06-04T13:23:22Z</time>
      </trkpt>
      <trkpt lat="46.91241" lon="-2.04054">
        <ele>7.6</ele>
        <time>2020-06-04T13:23:23Z</time>
      </trkpt>
      <trkpt lat="46.91242" lon="-2.04054">
        <ele>7.6</ele>
        <time>2020-06-04T13:23:24Z</time>
      </trkpt>
      <trkpt lat="46.91245" lon="-2.04058">
        <ele>7.6</ele>
        <time>2020-06-04T13:23:25Z</time>
      </trkpt>
      <trkpt lat="46.91246" lon="-2.04063">
        <ele>7.6</ele>
        <time>2020-06-04T13:23:26Z</time>
      </trkpt>
      <trkpt lat="46.91248" lon="-2.04068">
        <ele>7.7</ele>
        <time>2020-06-04T13:23:27Z</time>
      </trkpt>
      <trkpt lat="46.91249" lon="-2.04073">
        <ele>7.7</ele>
        <time>2020-06-04T13:23:28Z</time>
      </trkpt>
      <trkpt lat="46.91251" lon="-2.04077">
        <ele>7.7</ele>
        <time>2020-06-04T13:23:29Z</time>
      </trkpt>
      <trkpt lat="46.91254" lon="-2.0408">
        <ele>7.7</ele>
        <time>2020-06-04T13:23:30Z</time>
      </trkpt>
      <trkpt lat="46.91256" lon="-2.04087">
        <ele>7.8</ele>
        <time>2020-06-04T13:23:31Z</time>
      </trkpt>
      <trkpt lat="46.91258" lon="-2.04092">
        <ele>7.8</ele>
        <time>2020-06-04T13:23:32Z</time>
      </trkpt>
      <trkpt lat="46.9126" lon="-2.04098">
        <ele>7.8</ele>
        <time>2020-06-04T13:23:33Z</time>
      </trkpt>
      <trkpt lat="46.91261" lon="-2.04103">
        <ele>7.8</ele>
        <time>2020-06-04T13:23:34Z</time>
      </trkpt>
      <trkpt lat="46.91263" lon="-2.04108">
        <ele>7.9</ele>
        <time>2020-06-04T13:23:35Z</time>
      </trkpt>
      <trkpt lat="46.91266" lon="-2.04114">
        <ele>7.9</ele>
        <time>2020-06-04T13:23:36Z</time>
      </trkpt>
      <trkpt lat="46.91268" lon="-2.04118">
        <ele>7.9</ele>
        <time>2020-06-04T13:23:37Z</time>
      </trkpt>
      <trkpt lat="46.9127" lon="-2.04124">
        <ele>8</ele>
        <time>2020-06-04T13:23:38Z</time>
      </trkpt>
      <trkpt lat="46.91273" lon="-2.04129">
        <ele>8</ele>
        <time>2020-06-04T13:23:39Z</time>
      </trkpt>
      <trkpt lat="46.91275" lon="-2.04135">
        <ele>8</ele>
        <time>2020-06-04T13:23:40Z</time>
      </trkpt>
      <trkpt lat="46.91278" lon="-2.04139">
        <ele>8</ele>
        <time>2020-06-04T13:23:41Z</time>
      </trkpt>
      <trkpt lat="46.9128" lon="-2.04144">
        <ele>8.1</ele>
        <time>2020-06-04T13:23:42Z</time>
      </trkpt>
      <trkpt lat="46.91282" lon="-2.04149">
        <ele>8.1</ele>
        <time>2020-06-04T13:23:43Z</time>
      </trkpt>
      <trkpt lat="46.91284" lon="-2.04155">
        <ele>8.1</ele>
        <time>2020-06-04T13:23:44Z</time>
      </trkpt>
      <trkpt lat="46.91286" lon="-2.04161">
        <ele>8.1</ele>
        <time>2020-06-04T13:23:45Z</time>
      </trkpt>
      <trkpt lat="46.91289" lon="-2.04166">
        <ele>8.1</ele>
        <time>2020-06-04T13:23:46Z</time>
      </trkpt>
      <trkpt lat="46.91291" lon="-2.0417">
        <ele>8.1</ele>
        <time>2020-06-04T13:23:47Z</time>
      </trkpt>
      <trkpt lat="46.91294" lon="-2.04175">
        <ele>8.1</ele>
        <time>2020-06-04T13:23:48Z</time>
      </trkpt>
      <trkpt lat="46.91296" lon="-2.04178">
        <ele>8.2</ele>
        <time>2020-06-04T13:23:49Z</time>
      </trkpt>
      <trkpt lat="46.91298" lon="-2.04184">
        <ele>8.2</ele>
        <time>2020-06-04T13:23:50Z</time>
      </trkpt>
      <trkpt lat="46.913" lon="-2.04188">
        <ele>8.2</ele>
        <time>2020-06-04T13:23:51Z</time>
      </trkpt>
      <trkpt lat="46.91302" lon="-2.04194">
        <ele>8.2</ele>
        <time>2020-06-04T13:23:52Z</time>
      </trkpt>
      <trkpt lat="46.91303" lon="-2.042">
        <ele>8.2</ele>
        <time>2020-06-04T13:23:53Z</time>
      </trkpt>
      <trkpt lat="46.91305" lon="-2.04205">
        <ele>8.2</ele>
        <time>2020-06-04T13:23:54Z</time>
      </trkpt>
      <trkpt lat="46.91307" lon="-2.0421">
        <ele>8.2</ele>
        <time>2020-06-04T13:23:55Z</time>
      </trkpt>
      <trkpt lat="46.91309" lon="-2.04215">
        <ele>8.2</ele>
        <time>2020-06-04T13:23:56Z</time>
      </trkpt>
      <trkpt lat="46.91311" lon="-2.04219">
        <ele>8.2</ele>
        <time>2020-06-04T13:23:57Z</time>
      </trkpt>
      <trkpt lat="46.91314" lon="-2.04222">
        <ele>8.2</ele>
        <time>2020-06-04T13:23:58Z</time>
      </trkpt>
      <trkpt lat="46.91316" lon="-2.04227">
        <ele>8.2</ele>
        <time>2020-06-04T13:23:59Z</time>
      </trkpt>
      <trkpt lat="46.9132" lon="-2.04231">
        <ele>8.2</ele>
        <time>2020-06-04T13:24:00Z</time>
      </trkpt>
      <trkpt lat="46.91323" lon="-2.04234">
        <ele>8.1</ele>
        <time>2020-06-04T13:24:01Z</time>
      </trkpt>
      <trkpt lat="46.91326" lon="-2.04237">
        <ele>8.1</ele>
        <time>2020-06-04T13:24:02Z</time>
      </trkpt>
      <trkpt lat="46.91329" lon="-2.04241">
        <ele>8.1</ele>
        <time>2020-06-04T13:24:03Z</time>
      </trkpt>
      <trkpt lat="46.91332" lon="-2.04247">
        <ele>8.1</ele>
        <time>2020-06-04T13:24:04Z</time>
      </trkpt>
      <trkpt lat="46.91335" lon="-2.04252">
        <ele>8</ele>
        <time>2020-06-04T13:24:05Z</time>
      </trkpt>
      <trkpt lat="46.91338" lon="-2.04255">
        <ele>8</ele>
        <time>2020-06-04T13:24:06Z</time>
      </trkpt>
      <trkpt lat="46.91341" lon="-2.04259">
        <ele>8</ele>
        <time>2020-06-04T13:24:07Z</time>
      </trkpt>
      <trkpt lat="46.91344" lon="-2.04261">
        <ele>7.9</ele>
        <time>2020-06-04T13:24:08Z</time>
      </trkpt>
      <trkpt lat="46.91347" lon="-2.04264">
        <ele>7.9</ele>
        <time>2020-06-04T13:24:09Z</time>
      </trkpt>
      <trkpt lat="46.91351" lon="-2.04268">
        <ele>7.9</ele>
        <time>2020-06-04T13:24:10Z</time>
      </trkpt>
      <trkpt lat="46.91354" lon="-2.04271">
        <ele>7.9</ele>
        <time>2020-06-04T13:24:11Z</time>
      </trkpt>
      <trkpt lat="46.91358" lon="-2.04274">
        <ele>7.8</ele>
        <time>2020-06-04T13:24:12Z</time>
      </trkpt>
      <trkpt lat="46.91361" lon="-2.04277">
        <ele>7.8</ele>
        <time>2020-06-04T13:24:13Z</time>
      </trkpt>
      <trkpt lat="46.91363" lon="-2.0428">
        <ele>7.8</ele>
        <time>2020-06-04T13:24:14Z</time>
      </trkpt>
      <trkpt lat="46.91369" lon="-2.04282">
        <ele>7.8</ele>
        <time>2020-06-04T13:24:15Z</time>
      </trkpt>
      <trkpt lat="46.91372" lon="-2.04282">
        <ele>7.7</ele>
        <time>2020-06-04T13:24:16Z</time>
      </trkpt>
      <trkpt lat="46.91376" lon="-2.04282">
        <ele>7.7</ele>
        <time>2020-06-04T13:24:17Z</time>
      </trkpt>
      <trkpt lat="46.91377" lon="-2.04282">
        <ele>7.7</ele>
        <time>2020-06-04T13:24:18Z</time>
      </trkpt>
      <trkpt lat="46.91379" lon="-2.04279">
        <ele>7.7</ele>
        <time>2020-06-04T13:24:19Z</time>
      </trkpt>
      <trkpt lat="46.91383" lon="-2.04275">
        <ele>7.7</ele>
        <time>2020-06-04T13:24:20Z</time>
      </trkpt>
      <trkpt lat="46.91385" lon="-2.0427">
        <ele>7.6</ele>
        <time>2020-06-04T13:24:21Z</time>
      </trkpt>
      <trkpt lat="46.91387" lon="-2.04264">
        <ele>7.6</ele>
        <time>2020-06-04T13:24:22Z</time>
      </trkpt>
      <trkpt lat="46.9139" lon="-2.0426">
        <ele>7.5</ele>
        <time>2020-06-04T13:24:23Z</time>
      </trkpt>
      <trkpt lat="46.91394" lon="-2.04256">
        <ele>7.4</ele>
        <time>2020-06-04T13:24:24Z</time>
      </trkpt>
      <trkpt lat="46.91397" lon="-2.04252">
        <ele>7.4</ele>
        <time>2020-06-04T13:24:25Z</time>
      </trkpt>
      <trkpt lat="46.91401" lon="-2.04247">
        <ele>7.3</ele>
        <time>2020-06-04T13:24:26Z</time>
      </trkpt>
      <trkpt lat="46.91404" lon="-2.04243">
        <ele>7.2</ele>
        <time>2020-06-04T13:24:27Z</time>
      </trkpt>
      <trkpt lat="46.91408" lon="-2.04237">
        <ele>7.1</ele>
        <time>2020-06-04T13:24:28Z</time>
      </trkpt>
      <trkpt lat="46.91412" lon="-2.04233">
        <ele>7</ele>
        <time>2020-06-04T13:24:29Z</time>
      </trkpt>
      <trkpt lat="46.91418" lon="-2.04229">
        <ele>6.9</ele>
        <time>2020-06-04T13:24:30Z</time>
      </trkpt>
      <trkpt lat="46.91421" lon="-2.04227">
        <ele>6.8</ele>
        <time>2020-06-04T13:24:31Z</time>
      </trkpt>
      <trkpt lat="46.91425" lon="-2.04222">
        <ele>6.7</ele>
        <time>2020-06-04T13:24:32Z</time>
      </trkpt>
      <trkpt lat="46.9143" lon="-2.04218">
        <ele>6.7</ele>
        <time>2020-06-04T13:24:33Z</time>
      </trkpt>
      <trkpt lat="46.91434" lon="-2.04214">
        <ele>6.6</ele>
        <time>2020-06-04T13:24:34Z</time>
      </trkpt>
      <trkpt lat="46.91438" lon="-2.04209">
        <ele>6.6</ele>
        <time>2020-06-04T13:24:35Z</time>
      </trkpt>
      <trkpt lat="46.91442" lon="-2.04208">
        <ele>6.5</ele>
        <time>2020-06-04T13:24:36Z</time>
      </trkpt>
      <trkpt lat="46.91446" lon="-2.04206">
        <ele>6.5</ele>
        <time>2020-06-04T13:24:37Z</time>
      </trkpt>
      <trkpt lat="46.9145" lon="-2.04205">
        <ele>6.4</ele>
        <time>2020-06-04T13:24:38Z</time>
      </trkpt>
      <trkpt lat="46.91453" lon="-2.04203">
        <ele>6.4</ele>
        <time>2020-06-04T13:24:39Z</time>
      </trkpt>
      <trkpt lat="46.91458" lon="-2.04201">
        <ele>6.3</ele>
        <time>2020-06-04T13:24:40Z</time>
      </trkpt>
      <trkpt lat="46.91462" lon="-2.04197">
        <ele>6.3</ele>
        <time>2020-06-04T13:24:41Z</time>
      </trkpt>
      <trkpt lat="46.91466" lon="-2.04194">
        <ele>6.2</ele>
        <time>2020-06-04T13:24:42Z</time>
      </trkpt>
      <trkpt lat="46.91471" lon="-2.0419">
        <ele>6.2</ele>
        <time>2020-06-04T13:24:43Z</time>
      </trkpt>
      <trkpt lat="46.91475" lon="-2.04186">
        <ele>6.1</ele>
        <time>2020-06-04T13:24:44Z</time>
      </trkpt>
      <trkpt lat="46.91479" lon="-2.04184">
        <ele>6.1</ele>
        <time>2020-06-04T13:24:45Z</time>
      </trkpt>
      <trkpt lat="46.91483" lon="-2.04182">
        <ele>6.1</ele>
        <time>2020-06-04T13:24:46Z</time>
      </trkpt>
      <trkpt lat="46.91486" lon="-2.0418">
        <ele>6.1</ele>
        <time>2020-06-04T13:24:47Z</time>
      </trkpt>
      <trkpt lat="46.91491" lon="-2.04177">
        <ele>6.1</ele>
        <time>2020-06-04T13:24:48Z</time>
      </trkpt>
      <trkpt lat="46.91495" lon="-2.04171">
        <ele>6.3</ele>
        <time>2020-06-04T13:24:49Z</time>
      </trkpt>
      <trkpt lat="46.91498" lon="-2.04168">
        <ele>6.4</ele>
        <time>2020-06-04T13:24:50Z</time>
      </trkpt>
      <trkpt lat="46.91502" lon="-2.04166">
        <ele>6.6</ele>
        <time>2020-06-04T13:24:51Z</time>
      </trkpt>
      <trkpt lat="46.91505" lon="-2.04164">
        <ele>6.8</ele>
        <time>2020-06-04T13:24:52Z</time>
      </trkpt>
      <trkpt lat="46.91509" lon="-2.04164">
        <ele>6.8</ele>
        <time>2020-06-04T13:24:53Z</time>
      </trkpt>
      <trkpt lat="46.91511" lon="-2.04167">
        <ele>6.9</ele>
        <time>2020-06-04T13:24:54Z</time>
      </trkpt>
      <trkpt lat="46.91513" lon="-2.04172">
        <ele>6.9</ele>
        <time>2020-06-04T13:24:55Z</time>
      </trkpt>
      <trkpt lat="46.91514" lon="-2.04176">
        <ele>6.9</ele>
        <time>2020-06-04T13:24:56Z</time>
      </trkpt>
      <trkpt lat="46.91516" lon="-2.04179">
        <ele>6.9</ele>
        <time>2020-06-04T13:24:57Z</time>
      </trkpt>
      <trkpt lat="46.91519" lon="-2.04183">
        <ele>6.9</ele>
        <time>2020-06-04T13:24:58Z</time>
      </trkpt>
      <trkpt lat="46.91522" lon="-2.04188">
        <ele>6.9</ele>
        <time>2020-06-04T13:24:59Z</time>
      </trkpt>
      <trkpt lat="46.91525" lon="-2.04191">
        <ele>6.9</ele>
        <time>2020-06-04T13:25:00Z</time>
      </trkpt>
      <trkpt lat="46.91529" lon="-2.04194">
        <ele>7</ele>
        <time>2020-06-04T13:25:01Z</time>
      </trkpt>
      <trkpt lat="46.91531" lon="-2.04198">
        <ele>7</ele>
        <time>2020-06-04T13:25:02Z</time>
      </trkpt>
      <trkpt lat="46.91535" lon="-2.04201">
        <ele>7.1</ele>
        <time>2020-06-04T13:25:03Z</time>
      </trkpt>
      <trkpt lat="46.91537" lon="-2.04206">
        <ele>7.1</ele>
        <time>2020-06-04T13:25:04Z</time>
      </trkpt>
      <trkpt lat="46.9154" lon="-2.04211">
        <ele>7.2</ele>
        <time>2020-06-04T13:25:05Z</time>
      </trkpt>
      <trkpt lat="46.91543" lon="-2.04214">
        <ele>7.2</ele>
        <time>2020-06-04T13:25:06Z</time>
      </trkpt>
      <trkpt lat="46.91546" lon="-2.04218">
        <ele>7.3</ele>
        <time>2020-06-04T13:25:07Z</time>
      </trkpt>
      <trkpt lat="46.91548" lon="-2.04224">
        <ele>7.3</ele>
        <time>2020-06-04T13:25:08Z</time>
      </trkpt>
      <trkpt lat="46.91551" lon="-2.04231">
        <ele>7.4</ele>
        <time>2020-06-04T13:25:09Z</time>
      </trkpt>
      <trkpt lat="46.91554" lon="-2.04236">
        <ele>7.4</ele>
        <time>2020-06-04T13:25:10Z</time>
      </trkpt>
      <trkpt lat="46.91556" lon="-2.04243">
        <ele>7.5</ele>
        <time>2020-06-04T13:25:11Z</time>
      </trkpt>
      <trkpt lat="46.91558" lon="-2.0425">
        <ele>7.5</ele>
        <time>2020-06-04T13:25:12Z</time>
      </trkpt>
      <trkpt lat="46.9156" lon="-2.04256">
        <ele>7.5</ele>
        <time>2020-06-04T13:25:13Z</time>
      </trkpt>
      <trkpt lat="46.91562" lon="-2.04262">
        <ele>7.6</ele>
        <time>2020-06-04T13:25:14Z</time>
      </trkpt>
      <trkpt lat="46.91564" lon="-2.04268">
        <ele>7.6</ele>
        <time>2020-06-04T13:25:15Z</time>
      </trkpt>
      <trkpt lat="46.91565" lon="-2.04276">
        <ele>7.6</ele>
        <time>2020-06-04T13:25:16Z</time>
      </trkpt>
      <trkpt lat="46.91567" lon="-2.04281">
        <ele>7.6</ele>
        <time>2020-06-04T13:25:17Z</time>
      </trkpt>
      <trkpt lat="46.91569" lon="-2.04288">
        <ele>7.7</ele>
        <time>2020-06-04T13:25:18Z</time>
      </trkpt>
      <trkpt lat="46.91571" lon="-2.04294">
        <ele>7.7</ele>
        <time>2020-06-04T13:25:19Z</time>
      </trkpt>
      <trkpt lat="46.91573" lon="-2.04299">
        <ele>7.6</ele>
        <time>2020-06-04T13:25:20Z</time>
      </trkpt>
      <trkpt lat="46.91574" lon="-2.04305">
        <ele>7.6</ele>
        <time>2020-06-04T13:25:21Z</time>
      </trkpt>
      <trkpt lat="46.91577" lon="-2.04313">
        <ele>7.5</ele>
        <time>2020-06-04T13:25:22Z</time>
      </trkpt>
      <trkpt lat="46.91579" lon="-2.04317">
        <ele>7.5</ele>
        <time>2020-06-04T13:25:23Z</time>
      </trkpt>
      <trkpt lat="46.91581" lon="-2.04322">
        <ele>7.5</ele>
        <time>2020-06-04T13:25:24Z</time>
      </trkpt>
      <trkpt lat="46.91583" lon="-2.04327">
        <ele>7.4</ele>
        <time>2020-06-04T13:25:25Z</time>
      </trkpt>
      <trkpt lat="46.91586" lon="-2.04333">
        <ele>7.4</ele>
        <time>2020-06-04T13:25:26Z</time>
      </trkpt>
      <trkpt lat="46.91588" lon="-2.04338">
        <ele>7.3</ele>
        <time>2020-06-04T13:25:27Z</time>
      </trkpt>
      <trkpt lat="46.91591" lon="-2.04342">
        <ele>7.3</ele>
        <time>2020-06-04T13:25:28Z</time>
      </trkpt>
      <trkpt lat="46.91594" lon="-2.04345">
        <ele>7.2</ele>
        <time>2020-06-04T13:25:29Z</time>
      </trkpt>
      <trkpt lat="46.91595" lon="-2.04349">
        <ele>7.1</ele>
        <time>2020-06-04T13:25:30Z</time>
      </trkpt>
      <trkpt lat="46.91596" lon="-2.0435">
        <ele>7.1</ele>
        <time>2020-06-04T13:25:31Z</time>
      </trkpt>
      <trkpt lat="46.91598" lon="-2.04354">
        <ele>7</ele>
        <time>2020-06-04T13:25:32Z</time>
      </trkpt>
      <trkpt lat="46.91599" lon="-2.04358">
        <ele>6.9</ele>
        <time>2020-06-04T13:25:33Z</time>
      </trkpt>
      <trkpt lat="46.916" lon="-2.0436">
        <ele>6.9</ele>
        <time>2020-06-04T13:25:34Z</time>
      </trkpt>
      <trkpt lat="46.91602" lon="-2.04363">
        <ele>6.8</ele>
        <time>2020-06-04T13:25:35Z</time>
      </trkpt>
      <trkpt lat="46.91606" lon="-2.04365">
        <ele>6.7</ele>
        <time>2020-06-04T13:25:36Z</time>
      </trkpt>
      <trkpt lat="46.91608" lon="-2.04369">
        <ele>6.6</ele>
        <time>2020-06-04T13:25:37Z</time>
      </trkpt>
      <trkpt lat="46.91611" lon="-2.04374">
        <ele>6.6</ele>
        <time>2020-06-04T13:25:38Z</time>
      </trkpt>
      <trkpt lat="46.91613" lon="-2.0438">
        <ele>6.5</ele>
        <time>2020-06-04T13:25:39Z</time>
      </trkpt>
      <trkpt lat="46.91615" lon="-2.04384">
        <ele>6.5</ele>
        <time>2020-06-04T13:25:40Z</time>
      </trkpt>
      <trkpt lat="46.91618" lon="-2.04389">
        <ele>6.4</ele>
        <time>2020-06-04T13:25:41Z</time>
      </trkpt>
      <trkpt lat="46.91621" lon="-2.04393">
        <ele>6.2</ele>
        <time>2020-06-04T13:25:42Z</time>
      </trkpt>
      <trkpt lat="46.91624" lon="-2.04399">
        <ele>6.1</ele>
        <time>2020-06-04T13:25:43Z</time>
      </trkpt>
      <trkpt lat="46.91626" lon="-2.04403">
        <ele>6</ele>
        <time>2020-06-04T13:25:44Z</time>
      </trkpt>
      <trkpt lat="46.91631" lon="-2.04407">
        <ele>5.9</ele>
        <time>2020-06-04T13:25:45Z</time>
      </trkpt>
      <trkpt lat="46.91635" lon="-2.0441">
        <ele>5.9</ele>
        <time>2020-06-04T13:25:46Z</time>
      </trkpt>
      <trkpt lat="46.91639" lon="-2.04413">
        <ele>5.8</ele>
        <time>2020-06-04T13:25:47Z</time>
      </trkpt>
      <trkpt lat="46.91642" lon="-2.04417">
        <ele>5.7</ele>
        <time>2020-06-04T13:25:48Z</time>
      </trkpt>
      <trkpt lat="46.91646" lon="-2.04421">
        <ele>5.6</ele>
        <time>2020-06-04T13:25:49Z</time>
      </trkpt>
      <trkpt lat="46.91649" lon="-2.04425">
        <ele>5.6</ele>
        <time>2020-06-04T13:25:50Z</time>
      </trkpt>
      <trkpt lat="46.91653" lon="-2.04429">
        <ele>5.6</ele>
        <time>2020-06-04T13:25:51Z</time>
      </trkpt>
      <trkpt lat="46.91656" lon="-2.04435">
        <ele>5.5</ele>
        <time>2020-06-04T13:25:52Z</time>
      </trkpt>
      <trkpt lat="46.9166" lon="-2.04441">
        <ele>5.5</ele>
        <time>2020-06-04T13:25:53Z</time>
      </trkpt>
      <trkpt lat="46.91663" lon="-2.04445">
        <ele>5.5</ele>
        <time>2020-06-04T13:25:54Z</time>
      </trkpt>
      <trkpt lat="46.91667" lon="-2.0445">
        <ele>5.4</ele>
        <time>2020-06-04T13:25:55Z</time>
      </trkpt>
      <trkpt lat="46.91671" lon="-2.04454">
        <ele>5.4</ele>
        <time>2020-06-04T13:25:56Z</time>
      </trkpt>
      <trkpt lat="46.91674" lon="-2.04457">
        <ele>5.3</ele>
        <time>2020-06-04T13:25:57Z</time>
      </trkpt>
      <trkpt lat="46.91679" lon="-2.0446">
        <ele>5.2</ele>
        <time>2020-06-04T13:25:58Z</time>
      </trkpt>
      <trkpt lat="46.91682" lon="-2.04465">
        <ele>5.2</ele>
        <time>2020-06-04T13:25:59Z</time>
      </trkpt>
      <trkpt lat="46.91684" lon="-2.04469">
        <ele>5.1</ele>
        <time>2020-06-04T13:26:00Z</time>
      </trkpt>
      <trkpt lat="46.91688" lon="-2.04474">
        <ele>5.1</ele>
        <time>2020-06-04T13:26:01Z</time>
      </trkpt>
      <trkpt lat="46.91691" lon="-2.0448">
        <ele>5</ele>
        <time>2020-06-04T13:26:02Z</time>
      </trkpt>
      <trkpt lat="46.91695" lon="-2.04484">
        <ele>5</ele>
        <time>2020-06-04T13:26:03Z</time>
      </trkpt>
      <trkpt lat="46.91699" lon="-2.04489">
        <ele>4.9</ele>
        <time>2020-06-04T13:26:04Z</time>
      </trkpt>
      <trkpt lat="46.91703" lon="-2.04493">
        <ele>4.9</ele>
        <time>2020-06-04T13:26:05Z</time>
      </trkpt>
      <trkpt lat="46.91706" lon="-2.04497">
        <ele>4.8</ele>
        <time>2020-06-04T13:26:06Z</time>
      </trkpt>
      <trkpt lat="46.91709" lon="-2.04503">
        <ele>4.8</ele>
        <time>2020-06-04T13:26:07Z</time>
      </trkpt>
      <trkpt lat="46.91712" lon="-2.04507">
        <ele>4.7</ele>
        <time>2020-06-04T13:26:08Z</time>
      </trkpt>
      <trkpt lat="46.91715" lon="-2.04512">
        <ele>4.7</ele>
        <time>2020-06-04T13:26:09Z</time>
      </trkpt>
      <trkpt lat="46.91719" lon="-2.04516">
        <ele>4.6</ele>
        <time>2020-06-04T13:26:10Z</time>
      </trkpt>
      <trkpt lat="46.91722" lon="-2.0452">
        <ele>4.6</ele>
        <time>2020-06-04T13:26:11Z</time>
      </trkpt>
      <trkpt lat="46.91726" lon="-2.04524">
        <ele>4.6</ele>
        <time>2020-06-04T13:26:12Z</time>
      </trkpt>
      <trkpt lat="46.9173" lon="-2.04529">
        <ele>4.5</ele>
        <time>2020-06-04T13:26:13Z</time>
      </trkpt>
      <trkpt lat="46.91732" lon="-2.04532">
        <ele>4.5</ele>
        <time>2020-06-04T13:26:14Z</time>
      </trkpt>
      <trkpt lat="46.91735" lon="-2.04536">
        <ele>4.5</ele>
        <time>2020-06-04T13:26:15Z</time>
      </trkpt>
      <trkpt lat="46.91739" lon="-2.04539">
        <ele>4.5</ele>
        <time>2020-06-04T13:26:16Z</time>
      </trkpt>
      <trkpt lat="46.91741" lon="-2.04543">
        <ele>4.4</ele>
        <time>2020-06-04T13:26:17Z</time>
      </trkpt>
      <trkpt lat="46.91744" lon="-2.04547">
        <ele>4.4</ele>
        <time>2020-06-04T13:26:18Z</time>
      </trkpt>
      <trkpt lat="46.91748" lon="-2.0455">
        <ele>4.4</ele>
        <time>2020-06-04T13:26:19Z</time>
      </trkpt>
      <trkpt lat="46.91751" lon="-2.04553">
        <ele>4.4</ele>
        <time>2020-06-04T13:26:20Z</time>
      </trkpt>
      <trkpt lat="46.91753" lon="-2.04556">
        <ele>4.4</ele>
        <time>2020-06-04T13:26:21Z</time>
      </trkpt>
      <trkpt lat="46.91755" lon="-2.04557">
        <ele>4.4</ele>
        <time>2020-06-04T13:26:22Z</time>
      </trkpt>
      <trkpt lat="46.91756" lon="-2.04558">
        <ele>4.4</ele>
        <time>2020-06-04T13:26:23Z</time>
      </trkpt>
      <trkpt lat="46.91757" lon="-2.04558">
        <ele>4.4</ele>
        <time>2020-06-04T13:26:24Z</time>
      </trkpt>
      <trkpt lat="46.91757" lon="-2.04558">
        <ele>4.4</ele>
        <time>2020-06-04T13:26:25Z</time>
      </trkpt>
      <trkpt lat="46.91758" lon="-2.04557">
        <ele>4.4</ele>
        <time>2020-06-04T13:26:26Z</time>
      </trkpt>
      <trkpt lat="46.91757" lon="-2.04557">
        <ele>4.4</ele>
        <time>2020-06-04T13:26:27Z</time>
      </trkpt>
      <trkpt lat="46.91756" lon="-2.04557">
        <ele>4.4</ele>
        <time>2020-06-04T13:26:28Z</time>
      </trkpt>
      <trkpt lat="46.91755" lon="-2.04554">
        <ele>4.4</ele>
        <time>2020-06-04T13:26:29Z</time>
      </trkpt>
      <trkpt lat="46.91755" lon="-2.04554">
        <ele>4.4</ele>
        <time>2020-06-04T13:26:30Z</time>
      </trkpt>
      <trkpt lat="46.91756" lon="-2.04554">
        <ele>4.4</ele>
        <time>2020-06-04T13:26:31Z</time>
      </trkpt>
      <trkpt lat="46.91756" lon="-2.04555">
        <ele>4.4</ele>
        <time>2020-06-04T13:26:32Z</time>
      </trkpt>
      <trkpt lat="46.91757" lon="-2.04555">
        <ele>4.4</ele>
        <time>2020-06-04T13:26:33Z</time>
      </trkpt>
      <trkpt lat="46.91757" lon="-2.04555">
        <ele>4.4</ele>
        <time>2020-06-04T13:26:34Z</time>
      </trkpt>
      <trkpt lat="46.91758" lon="-2.04556">
        <ele>4.4</ele>
        <time>2020-06-04T13:26:35Z</time>
      </trkpt>
      <trkpt lat="46.91759" lon="-2.04556">
        <ele>4.4</ele>
        <time>2020-06-04T13:26:36Z</time>
      </trkpt>
      <trkpt lat="46.91759" lon="-2.04556">
        <ele>4.4</ele>
        <time>2020-06-04T13:26:37Z</time>
      </trkpt>
      <trkpt lat="46.91761" lon="-2.0456">
        <ele>4.3</ele>
        <time>2020-06-04T13:26:38Z</time>
      </trkpt>
      <trkpt lat="46.91763" lon="-2.04563">
        <ele>4.3</ele>
        <time>2020-06-04T13:26:39Z</time>
      </trkpt>
      <trkpt lat="46.91766" lon="-2.04568">
        <ele>4.2</ele>
        <time>2020-06-04T13:26:40Z</time>
      </trkpt>
      <trkpt lat="46.91769" lon="-2.04573">
        <ele>4.2</ele>
        <time>2020-06-04T13:26:41Z</time>
      </trkpt>
      <trkpt lat="46.91771" lon="-2.04579">
        <ele>4.1</ele>
        <time>2020-06-04T13:26:42Z</time>
      </trkpt>
      <trkpt lat="46.91774" lon="-2.04581">
        <ele>4.1</ele>
        <time>2020-06-04T13:26:43Z</time>
      </trkpt>
      <trkpt lat="46.91778" lon="-2.04586">
        <ele>4</ele>
        <time>2020-06-04T13:26:44Z</time>
      </trkpt>
      <trkpt lat="46.91781" lon="-2.04591">
        <ele>3.9</ele>
        <time>2020-06-04T13:26:45Z</time>
      </trkpt>
      <trkpt lat="46.91784" lon="-2.04597">
        <ele>3.8</ele>
        <time>2020-06-04T13:26:46Z</time>
      </trkpt>
      <trkpt lat="46.91787" lon="-2.04602">
        <ele>3.7</ele>
        <time>2020-06-04T13:26:47Z</time>
      </trkpt>
      <trkpt lat="46.9179" lon="-2.04606">
        <ele>3.6</ele>
        <time>2020-06-04T13:26:48Z</time>
      </trkpt>
      <trkpt lat="46.91794" lon="-2.0461">
        <ele>3.5</ele>
        <time>2020-06-04T13:26:49Z</time>
      </trkpt>
      <trkpt lat="46.91797" lon="-2.04614">
        <ele>3.4</ele>
        <time>2020-06-04T13:26:50Z</time>
      </trkpt>
      <trkpt lat="46.91801" lon="-2.04619">
        <ele>3.3</ele>
        <time>2020-06-04T13:26:51Z</time>
      </trkpt>
      <trkpt lat="46.91805" lon="-2.04624">
        <ele>3.1</ele>
        <time>2020-06-04T13:26:52Z</time>
      </trkpt>
      <trkpt lat="46.91808" lon="-2.0463">
        <ele>3</ele>
        <time>2020-06-04T13:26:53Z</time>
      </trkpt>
      <trkpt lat="46.91812" lon="-2.04636">
        <ele>2.8</ele>
        <time>2020-06-04T13:26:54Z</time>
      </trkpt>
      <trkpt lat="46.91816" lon="-2.0464">
        <ele>2.7</ele>
        <time>2020-06-04T13:26:55Z</time>
      </trkpt>
      <trkpt lat="46.9182" lon="-2.04645">
        <ele>2.6</ele>
        <time>2020-06-04T13:26:56Z</time>
      </trkpt>
      <trkpt lat="46.91824" lon="-2.0465">
        <ele>2.5</ele>
        <time>2020-06-04T13:26:57Z</time>
      </trkpt>
      <trkpt lat="46.91828" lon="-2.04655">
        <ele>2.4</ele>
        <time>2020-06-04T13:26:58Z</time>
      </trkpt>
      <trkpt lat="46.91832" lon="-2.0466">
        <ele>2.3</ele>
        <time>2020-06-04T13:26:59Z</time>
      </trkpt>
      <trkpt lat="46.91836" lon="-2.04665">
        <ele>2.2</ele>
        <time>2020-06-04T13:27:00Z</time>
      </trkpt>
      <trkpt lat="46.91839" lon="-2.0467">
        <ele>2.1</ele>
        <time>2020-06-04T13:27:01Z</time>
      </trkpt>
      <trkpt lat="46.91844" lon="-2.04676">
        <ele>2.1</ele>
        <time>2020-06-04T13:27:02Z</time>
      </trkpt>
      <trkpt lat="46.91849" lon="-2.0468">
        <ele>2.1</ele>
        <time>2020-06-04T13:27:03Z</time>
      </trkpt>
      <trkpt lat="46.91853" lon="-2.04686">
        <ele>2.1</ele>
        <time>2020-06-04T13:27:04Z</time>
      </trkpt>
      <trkpt lat="46.91857" lon="-2.04691">
        <ele>2.1</ele>
        <time>2020-06-04T13:27:05Z</time>
      </trkpt>
      <trkpt lat="46.91862" lon="-2.04694">
        <ele>2.1</ele>
        <time>2020-06-04T13:27:06Z</time>
      </trkpt>
      <trkpt lat="46.91867" lon="-2.04699">
        <ele>2.1</ele>
        <time>2020-06-04T13:27:07Z</time>
      </trkpt>
      <trkpt lat="46.91872" lon="-2.04703">
        <ele>2.1</ele>
        <time>2020-06-04T13:27:08Z</time>
      </trkpt>
      <trkpt lat="46.91876" lon="-2.04708">
        <ele>2.1</ele>
        <time>2020-06-04T13:27:09Z</time>
      </trkpt>
      <trkpt lat="46.91881" lon="-2.04712">
        <ele>2.1</ele>
        <time>2020-06-04T13:27:10Z</time>
      </trkpt>
      <trkpt lat="46.91886" lon="-2.04717">
        <ele>2.1</ele>
        <time>2020-06-04T13:27:11Z</time>
      </trkpt>
      <trkpt lat="46.9189" lon="-2.04721">
        <ele>2.1</ele>
        <time>2020-06-04T13:27:12Z</time>
      </trkpt>
      <trkpt lat="46.91894" lon="-2.04725">
        <ele>2.1</ele>
        <time>2020-06-04T13:27:13Z</time>
      </trkpt>
      <trkpt lat="46.91898" lon="-2.0473">
        <ele>2.2</ele>
        <time>2020-06-04T13:27:14Z</time>
      </trkpt>
      <trkpt lat="46.91902" lon="-2.04734">
        <ele>2.2</ele>
        <time>2020-06-04T13:27:15Z</time>
      </trkpt>
      <trkpt lat="46.91906" lon="-2.04738">
        <ele>2.2</ele>
        <time>2020-06-04T13:27:16Z</time>
      </trkpt>
      <trkpt lat="46.91911" lon="-2.04743">
        <ele>2.2</ele>
        <time>2020-06-04T13:27:17Z</time>
      </trkpt>
      <trkpt lat="46.91915" lon="-2.04748">
        <ele>2.2</ele>
        <time>2020-06-04T13:27:18Z</time>
      </trkpt>
      <trkpt lat="46.91918" lon="-2.04752">
        <ele>2.2</ele>
        <time>2020-06-04T13:27:19Z</time>
      </trkpt>
      <trkpt lat="46.91922" lon="-2.04757">
        <ele>2.2</ele>
        <time>2020-06-04T13:27:20Z</time>
      </trkpt>
      <trkpt lat="46.91926" lon="-2.04762">
        <ele>2.2</ele>
        <time>2020-06-04T13:27:21Z</time>
      </trkpt>
      <trkpt lat="46.9193" lon="-2.04767">
        <ele>2.2</ele>
        <time>2020-06-04T13:27:22Z</time>
      </trkpt>
      <trkpt lat="46.91934" lon="-2.04772">
        <ele>2.2</ele>
        <time>2020-06-04T13:27:23Z</time>
      </trkpt>
      <trkpt lat="46.91937" lon="-2.04777">
        <ele>2.2</ele>
        <time>2020-06-04T13:27:24Z</time>
      </trkpt>
      <trkpt lat="46.91941" lon="-2.04782">
        <ele>2.3</ele>
        <time>2020-06-04T13:27:25Z</time>
      </trkpt>
      <trkpt lat="46.91944" lon="-2.04787">
        <ele>2.3</ele>
        <time>2020-06-04T13:27:26Z</time>
      </trkpt>
      <trkpt lat="46.91947" lon="-2.04792">
        <ele>2.3</ele>
        <time>2020-06-04T13:27:27Z</time>
      </trkpt>
      <trkpt lat="46.91951" lon="-2.04797">
        <ele>2.3</ele>
        <time>2020-06-04T13:27:28Z</time>
      </trkpt>
      <trkpt lat="46.91955" lon="-2.04801">
        <ele>2.3</ele>
        <time>2020-06-04T13:27:29Z</time>
      </trkpt>
      <trkpt lat="46.91959" lon="-2.04805">
        <ele>2.2</ele>
        <time>2020-06-04T13:27:30Z</time>
      </trkpt>
      <trkpt lat="46.91963" lon="-2.04809">
        <ele>2.2</ele>
        <time>2020-06-04T13:27:31Z</time>
      </trkpt>
      <trkpt lat="46.91967" lon="-2.04812">
        <ele>2.2</ele>
        <time>2020-06-04T13:27:32Z</time>
      </trkpt>
      <trkpt lat="46.91973" lon="-2.04813">
        <ele>2.2</ele>
        <time>2020-06-04T13:27:33Z</time>
      </trkpt>
      <trkpt lat="46.91978" lon="-2.04812">
        <ele>2.1</ele>
        <time>2020-06-04T13:27:34Z</time>
      </trkpt>
      <trkpt lat="46.91983" lon="-2.0481">
        <ele>2.1</ele>
        <time>2020-06-04T13:27:35Z</time>
      </trkpt>
      <trkpt lat="46.91988" lon="-2.04808">
        <ele>2.1</ele>
        <time>2020-06-04T13:27:36Z</time>
      </trkpt>
      <trkpt lat="46.91992" lon="-2.04809">
        <ele>2.1</ele>
        <time>2020-06-04T13:27:37Z</time>
      </trkpt>
      <trkpt lat="46.91996" lon="-2.04811">
        <ele>2.1</ele>
        <time>2020-06-04T13:27:38Z</time>
      </trkpt>
      <trkpt lat="46.91997" lon="-2.04817">
        <ele>2.1</ele>
        <time>2020-06-04T13:27:39Z</time>
      </trkpt>
      <trkpt lat="46.91997" lon="-2.04822">
        <ele>2.1</ele>
        <time>2020-06-04T13:27:40Z</time>
      </trkpt>
      <trkpt lat="46.91996" lon="-2.04828">
        <ele>2.1</ele>
        <time>2020-06-04T13:27:41Z</time>
      </trkpt>
      <trkpt lat="46.91996" lon="-2.04833">
        <ele>2.1</ele>
        <time>2020-06-04T13:27:42Z</time>
      </trkpt>
      <trkpt lat="46.91995" lon="-2.0484">
        <ele>2.1</ele>
        <time>2020-06-04T13:27:43Z</time>
      </trkpt>
      <trkpt lat="46.91993" lon="-2.04845">
        <ele>2.1</ele>
        <time>2020-06-04T13:27:44Z</time>
      </trkpt>
      <trkpt lat="46.91992" lon="-2.04851">
        <ele>2.1</ele>
        <time>2020-06-04T13:27:45Z</time>
      </trkpt>
      <trkpt lat="46.9199" lon="-2.04858">
        <ele>2.1</ele>
        <time>2020-06-04T13:27:46Z</time>
      </trkpt>
      <trkpt lat="46.91988" lon="-2.04864">
        <ele>2.1</ele>
        <time>2020-06-04T13:27:47Z</time>
      </trkpt>
      <trkpt lat="46.91986" lon="-2.04872">
        <ele>2.2</ele>
        <time>2020-06-04T13:27:48Z</time>
      </trkpt>
      <trkpt lat="46.91986" lon="-2.04878">
        <ele>2.2</ele>
        <time>2020-06-04T13:27:49Z</time>
      </trkpt>
      <trkpt lat="46.91987" lon="-2.04885">
        <ele>2.2</ele>
        <time>2020-06-04T13:27:50Z</time>
      </trkpt>
      <trkpt lat="46.91988" lon="-2.04891">
        <ele>2.2</ele>
        <time>2020-06-04T13:27:51Z</time>
      </trkpt>
      <trkpt lat="46.9199" lon="-2.04897">
        <ele>2.3</ele>
        <time>2020-06-04T13:27:52Z</time>
      </trkpt>
      <trkpt lat="46.91993" lon="-2.04903">
        <ele>2.3</ele>
        <time>2020-06-04T13:27:53Z</time>
      </trkpt>
      <trkpt lat="46.91996" lon="-2.04907">
        <ele>2.3</ele>
        <time>2020-06-04T13:27:54Z</time>
      </trkpt>
      <trkpt lat="46.92" lon="-2.04911">
        <ele>2.3</ele>
        <time>2020-06-04T13:27:55Z</time>
      </trkpt>
      <trkpt lat="46.92004" lon="-2.04914">
        <ele>2.3</ele>
        <time>2020-06-04T13:27:56Z</time>
      </trkpt>
      <trkpt lat="46.92008" lon="-2.04915">
        <ele>2.3</ele>
        <time>2020-06-04T13:27:57Z</time>
      </trkpt>
      <trkpt lat="46.92012" lon="-2.04918">
        <ele>2.3</ele>
        <time>2020-06-04T13:27:58Z</time>
      </trkpt>
      <trkpt lat="46.92017" lon="-2.0492">
        <ele>2.3</ele>
        <time>2020-06-04T13:27:59Z</time>
      </trkpt>
      <trkpt lat="46.92022" lon="-2.04923">
        <ele>2.3</ele>
        <time>2020-06-04T13:28:00Z</time>
      </trkpt>
      <trkpt lat="46.92025" lon="-2.04925">
        <ele>2.3</ele>
        <time>2020-06-04T13:28:01Z</time>
      </trkpt>
      <trkpt lat="46.9203" lon="-2.04928">
        <ele>2.3</ele>
        <time>2020-06-04T13:28:02Z</time>
      </trkpt>
      <trkpt lat="46.92035" lon="-2.0493">
        <ele>2.4</ele>
        <time>2020-06-04T13:28:03Z</time>
      </trkpt>
      <trkpt lat="46.92039" lon="-2.04934">
        <ele>2.4</ele>
        <time>2020-06-04T13:28:04Z</time>
      </trkpt>
      <trkpt lat="46.92043" lon="-2.04939">
        <ele>2.4</ele>
        <time>2020-06-04T13:28:05Z</time>
      </trkpt>
      <trkpt lat="46.92046" lon="-2.04945">
        <ele>2.5</ele>
        <time>2020-06-04T13:28:06Z</time>
      </trkpt>
      <trkpt lat="46.92047" lon="-2.04952">
        <ele>2.5</ele>
        <time>2020-06-04T13:28:07Z</time>
      </trkpt>
      <trkpt lat="46.92045" lon="-2.04957">
        <ele>2.5</ele>
        <time>2020-06-04T13:28:08Z</time>
      </trkpt>
      <trkpt lat="46.92042" lon="-2.04962">
        <ele>2.6</ele>
        <time>2020-06-04T13:28:09Z</time>
      </trkpt>
      <trkpt lat="46.9204" lon="-2.04968">
        <ele>2.6</ele>
        <time>2020-06-04T13:28:10Z</time>
      </trkpt>
      <trkpt lat="46.92037" lon="-2.04973">
        <ele>2.6</ele>
        <time>2020-06-04T13:28:11Z</time>
      </trkpt>
      <trkpt lat="46.92035" lon="-2.04979">
        <ele>2.6</ele>
        <time>2020-06-04T13:28:12Z</time>
      </trkpt>
      <trkpt lat="46.92033" lon="-2.04984">
        <ele>2.6</ele>
        <time>2020-06-04T13:28:13Z</time>
      </trkpt>
      <trkpt lat="46.92031" lon="-2.04989">
        <ele>2.6</ele>
        <time>2020-06-04T13:28:14Z</time>
      </trkpt>
      <trkpt lat="46.92029" lon="-2.04993">
        <ele>2.6</ele>
        <time>2020-06-04T13:28:15Z</time>
      </trkpt>
      <trkpt lat="46.92027" lon="-2.04998">
        <ele>2.6</ele>
        <time>2020-06-04T13:28:16Z</time>
      </trkpt>
      <trkpt lat="46.92024" lon="-2.05002">
        <ele>2.6</ele>
        <time>2020-06-04T13:28:17Z</time>
      </trkpt>
      <trkpt lat="46.9202" lon="-2.05005">
        <ele>2.6</ele>
        <time>2020-06-04T13:28:18Z</time>
      </trkpt>
      <trkpt lat="46.92017" lon="-2.05009">
        <ele>2.6</ele>
        <time>2020-06-04T13:28:19Z</time>
      </trkpt>
      <trkpt lat="46.92014" lon="-2.05014">
        <ele>2.6</ele>
        <time>2020-06-04T13:28:20Z</time>
      </trkpt>
      <trkpt lat="46.9201" lon="-2.05018">
        <ele>2.7</ele>
        <time>2020-06-04T13:28:21Z</time>
      </trkpt>
      <trkpt lat="46.92006" lon="-2.05022">
        <ele>2.7</ele>
        <time>2020-06-04T13:28:22Z</time>
      </trkpt>
      <trkpt lat="46.92002" lon="-2.05027">
        <ele>2.7</ele>
        <time>2020-06-04T13:28:23Z</time>
      </trkpt>
      <trkpt lat="46.91998" lon="-2.05032">
        <ele>2.7</ele>
        <time>2020-06-04T13:28:24Z</time>
      </trkpt>
      <trkpt lat="46.91995" lon="-2.05037">
        <ele>2.7</ele>
        <time>2020-06-04T13:28:25Z</time>
      </trkpt>
      <trkpt lat="46.91992" lon="-2.05042">
        <ele>2.8</ele>
        <time>2020-06-04T13:28:26Z</time>
      </trkpt>
      <trkpt lat="46.9199" lon="-2.05048">
        <ele>2.8</ele>
        <time>2020-06-04T13:28:27Z</time>
      </trkpt>
      <trkpt lat="46.91987" lon="-2.05055">
        <ele>2.7</ele>
        <time>2020-06-04T13:28:28Z</time>
      </trkpt>
      <trkpt lat="46.91985" lon="-2.05062">
        <ele>2.7</ele>
        <time>2020-06-04T13:28:29Z</time>
      </trkpt>
      <trkpt lat="46.91983" lon="-2.0507">
        <ele>2.7</ele>
        <time>2020-06-04T13:28:30Z</time>
      </trkpt>
      <trkpt lat="46.91982" lon="-2.05075">
        <ele>2.7</ele>
        <time>2020-06-04T13:28:31Z</time>
      </trkpt>
      <trkpt lat="46.9198" lon="-2.05083">
        <ele>2.6</ele>
        <time>2020-06-04T13:28:32Z</time>
      </trkpt>
      <trkpt lat="46.91978" lon="-2.05088">
        <ele>2.6</ele>
        <time>2020-06-04T13:28:33Z</time>
      </trkpt>
      <trkpt lat="46.91977" lon="-2.05093">
        <ele>2.6</ele>
        <time>2020-06-04T13:28:34Z</time>
      </trkpt>
      <trkpt lat="46.91975" lon="-2.05098">
        <ele>2.6</ele>
        <time>2020-06-04T13:28:35Z</time>
      </trkpt>
      <trkpt lat="46.91972" lon="-2.05103">
        <ele>2.6</ele>
        <time>2020-06-04T13:28:36Z</time>
      </trkpt>
      <trkpt lat="46.9197" lon="-2.05111">
        <ele>2.5</ele>
        <time>2020-06-04T13:28:37Z</time>
      </trkpt>
      <trkpt lat="46.91968" lon="-2.05116">
        <ele>2.5</ele>
        <time>2020-06-04T13:28:38Z</time>
      </trkpt>
      <trkpt lat="46.91966" lon="-2.05121">
        <ele>2.5</ele>
        <time>2020-06-04T13:28:39Z</time>
      </trkpt>
      <trkpt lat="46.91962" lon="-2.05125">
        <ele>2.5</ele>
        <time>2020-06-04T13:28:40Z</time>
      </trkpt>
      <trkpt lat="46.91959" lon="-2.05129">
        <ele>2.5</ele>
        <time>2020-06-04T13:28:41Z</time>
      </trkpt>
      <trkpt lat="46.91954" lon="-2.05129">
        <ele>2.5</ele>
        <time>2020-06-04T13:28:42Z</time>
      </trkpt>
      <trkpt lat="46.9195" lon="-2.05129">
        <ele>2.5</ele>
        <time>2020-06-04T13:28:43Z</time>
      </trkpt>
      <trkpt lat="46.91945" lon="-2.05129">
        <ele>2.5</ele>
        <time>2020-06-04T13:28:44Z</time>
      </trkpt>
      <trkpt lat="46.91941" lon="-2.05128">
        <ele>2.5</ele>
        <time>2020-06-04T13:28:45Z</time>
      </trkpt>
      <trkpt lat="46.91937" lon="-2.05127">
        <ele>2.5</ele>
        <time>2020-06-04T13:28:46Z</time>
      </trkpt>
      <trkpt lat="46.91933" lon="-2.05126">
        <ele>2.6</ele>
        <time>2020-06-04T13:28:47Z</time>
      </trkpt>
      <trkpt lat="46.91929" lon="-2.05126">
        <ele>2.6</ele>
        <time>2020-06-04T13:28:48Z</time>
      </trkpt>
      <trkpt lat="46.91925" lon="-2.05125">
        <ele>2.6</ele>
        <time>2020-06-04T13:28:49Z</time>
      </trkpt>
      <trkpt lat="46.9192" lon="-2.05123">
        <ele>2.6</ele>
        <time>2020-06-04T13:28:50Z</time>
      </trkpt>
      <trkpt lat="46.91916" lon="-2.05121">
        <ele>2.6</ele>
        <time>2020-06-04T13:28:51Z</time>
      </trkpt>
      <trkpt lat="46.91913" lon="-2.05115">
        <ele>2.6</ele>
        <time>2020-06-04T13:28:52Z</time>
      </trkpt>
      <trkpt lat="46.91909" lon="-2.05113">
        <ele>2.6</ele>
        <time>2020-06-04T13:28:53Z</time>
      </trkpt>
      <trkpt lat="46.91904" lon="-2.05111">
        <ele>2.6</ele>
        <time>2020-06-04T13:28:54Z</time>
      </trkpt>
      <trkpt lat="46.919" lon="-2.05111">
        <ele>2.6</ele>
        <time>2020-06-04T13:28:55Z</time>
      </trkpt>
      <trkpt lat="46.91896" lon="-2.05113">
        <ele>2.6</ele>
        <time>2020-06-04T13:28:56Z</time>
      </trkpt>
      <trkpt lat="46.91895" lon="-2.05119">
        <ele>2.6</ele>
        <time>2020-06-04T13:28:57Z</time>
      </trkpt>
      <trkpt lat="46.91894" lon="-2.05126">
        <ele>2.6</ele>
        <time>2020-06-04T13:28:58Z</time>
      </trkpt>
      <trkpt lat="46.91891" lon="-2.05131">
        <ele>2.6</ele>
        <time>2020-06-04T13:28:59Z</time>
      </trkpt>
      <trkpt lat="46.9189" lon="-2.05135">
        <ele>2.6</ele>
        <time>2020-06-04T13:29:00Z</time>
      </trkpt>
      <trkpt lat="46.91887" lon="-2.05139">
        <ele>2.6</ele>
        <time>2020-06-04T13:29:01Z</time>
      </trkpt>
      <trkpt lat="46.91885" lon="-2.05144">
        <ele>2.6</ele>
        <time>2020-06-04T13:29:02Z</time>
      </trkpt>
      <trkpt lat="46.91883" lon="-2.05149">
        <ele>2.6</ele>
        <time>2020-06-04T13:29:03Z</time>
      </trkpt>
      <trkpt lat="46.9188" lon="-2.05154">
        <ele>2.6</ele>
        <time>2020-06-04T13:29:04Z</time>
      </trkpt>
      <trkpt lat="46.91878" lon="-2.05159">
        <ele>2.6</ele>
        <time>2020-06-04T13:29:05Z</time>
      </trkpt>
      <trkpt lat="46.91875" lon="-2.05163">
        <ele>2.6</ele>
        <time>2020-06-04T13:29:06Z</time>
      </trkpt>
      <trkpt lat="46.91872" lon="-2.05168">
        <ele>2.6</ele>
        <time>2020-06-04T13:29:07Z</time>
      </trkpt>
      <trkpt lat="46.91869" lon="-2.05172">
        <ele>2.6</ele>
        <time>2020-06-04T13:29:08Z</time>
      </trkpt>
      <trkpt lat="46.91866" lon="-2.05179">
        <ele>2.6</ele>
        <time>2020-06-04T13:29:09Z</time>
      </trkpt>
      <trkpt lat="46.91863" lon="-2.05185">
        <ele>2.6</ele>
        <time>2020-06-04T13:29:10Z</time>
      </trkpt>
      <trkpt lat="46.9186" lon="-2.0519">
        <ele>2.6</ele>
        <time>2020-06-04T13:29:11Z</time>
      </trkpt>
      <trkpt lat="46.91859" lon="-2.05197">
        <ele>2.6</ele>
        <time>2020-06-04T13:29:12Z</time>
      </trkpt>
      <trkpt lat="46.91858" lon="-2.05202">
        <ele>2.6</ele>
        <time>2020-06-04T13:29:13Z</time>
      </trkpt>
      <trkpt lat="46.91857" lon="-2.05208">
        <ele>2.6</ele>
        <time>2020-06-04T13:29:14Z</time>
      </trkpt>
      <trkpt lat="46.91856" lon="-2.05215">
        <ele>2.6</ele>
        <time>2020-06-04T13:29:15Z</time>
      </trkpt>
      <trkpt lat="46.91854" lon="-2.05222">
        <ele>2.6</ele>
        <time>2020-06-04T13:29:16Z</time>
      </trkpt>
      <trkpt lat="46.91853" lon="-2.05229">
        <ele>2.6</ele>
        <time>2020-06-04T13:29:17Z</time>
      </trkpt>
      <trkpt lat="46.91851" lon="-2.05236">
        <ele>2.6</ele>
        <time>2020-06-04T13:29:18Z</time>
      </trkpt>
      <trkpt lat="46.9185" lon="-2.05243">
        <ele>2.6</ele>
        <time>2020-06-04T13:29:19Z</time>
      </trkpt>
      <trkpt lat="46.91848" lon="-2.0525">
        <ele>2.6</ele>
        <time>2020-06-04T13:29:20Z</time>
      </trkpt>
      <trkpt lat="46.91846" lon="-2.05256">
        <ele>2.6</ele>
        <time>2020-06-04T13:29:21Z</time>
      </trkpt>
      <trkpt lat="46.91845" lon="-2.05262">
        <ele>2.6</ele>
        <time>2020-06-04T13:29:22Z</time>
      </trkpt>
      <trkpt lat="46.91843" lon="-2.05269">
        <ele>2.6</ele>
        <time>2020-06-04T13:29:23Z</time>
      </trkpt>
      <trkpt lat="46.91842" lon="-2.05274">
        <ele>2.6</ele>
        <time>2020-06-04T13:29:24Z</time>
      </trkpt>
      <trkpt lat="46.9184" lon="-2.0528">
        <ele>2.6</ele>
        <time>2020-06-04T13:29:25Z</time>
      </trkpt>
      <trkpt lat="46.91839" lon="-2.05288">
        <ele>2.6</ele>
        <time>2020-06-04T13:29:26Z</time>
      </trkpt>
      <trkpt lat="46.91837" lon="-2.05294">
        <ele>2.6</ele>
        <time>2020-06-04T13:29:27Z</time>
      </trkpt>
      <trkpt lat="46.91836" lon="-2.05301">
        <ele>2.6</ele>
        <time>2020-06-04T13:29:28Z</time>
      </trkpt>
      <trkpt lat="46.91835" lon="-2.05308">
        <ele>2.6</ele>
        <time>2020-06-04T13:29:29Z</time>
      </trkpt>
      <trkpt lat="46.91833" lon="-2.05314">
        <ele>2.6</ele>
        <time>2020-06-04T13:29:30Z</time>
      </trkpt>
      <trkpt lat="46.91832" lon="-2.0532">
        <ele>2.6</ele>
        <time>2020-06-04T13:29:31Z</time>
      </trkpt>
      <trkpt lat="46.91831" lon="-2.05326">
        <ele>2.6</ele>
        <time>2020-06-04T13:29:32Z</time>
      </trkpt>
      <trkpt lat="46.91829" lon="-2.05333">
        <ele>2.6</ele>
        <time>2020-06-04T13:29:33Z</time>
      </trkpt>
      <trkpt lat="46.91828" lon="-2.0534">
        <ele>2.6</ele>
        <time>2020-06-04T13:29:34Z</time>
      </trkpt>
      <trkpt lat="46.91826" lon="-2.05346">
        <ele>2.6</ele>
        <time>2020-06-04T13:29:35Z</time>
      </trkpt>
      <trkpt lat="46.91825" lon="-2.05353">
        <ele>2.6</ele>
        <time>2020-06-04T13:29:36Z</time>
      </trkpt>
      <trkpt lat="46.91824" lon="-2.0536">
        <ele>2.6</ele>
        <time>2020-06-04T13:29:37Z</time>
      </trkpt>
      <trkpt lat="46.91824" lon="-2.05366">
        <ele>2.6</ele>
        <time>2020-06-04T13:29:38Z</time>
      </trkpt>
      <trkpt lat="46.91826" lon="-2.05371">
        <ele>2.6</ele>
        <time>2020-06-04T13:29:39Z</time>
      </trkpt>
      <trkpt lat="46.91829" lon="-2.05376">
        <ele>2.6</ele>
        <time>2020-06-04T13:29:40Z</time>
      </trkpt>
      <trkpt lat="46.91832" lon="-2.05377">
        <ele>2.6</ele>
        <time>2020-06-04T13:29:41Z</time>
      </trkpt>
      <trkpt lat="46.91835" lon="-2.05379">
        <ele>2.6</ele>
        <time>2020-06-04T13:29:42Z</time>
      </trkpt>
      <trkpt lat="46.91839" lon="-2.0538">
        <ele>2.6</ele>
        <time>2020-06-04T13:29:43Z</time>
      </trkpt>
      <trkpt lat="46.91842" lon="-2.05382">
        <ele>2.6</ele>
        <time>2020-06-04T13:29:44Z</time>
      </trkpt>
      <trkpt lat="46.91845" lon="-2.05383">
        <ele>2.6</ele>
        <time>2020-06-04T13:29:45Z</time>
      </trkpt>
      <trkpt lat="46.91848" lon="-2.05383">
        <ele>2.6</ele>
        <time>2020-06-04T13:29:46Z</time>
      </trkpt>
      <trkpt lat="46.91851" lon="-2.05385">
        <ele>2.6</ele>
        <time>2020-06-04T13:29:47Z</time>
      </trkpt>
      <trkpt lat="46.91855" lon="-2.05385">
        <ele>2.6</ele>
        <time>2020-06-04T13:29:48Z</time>
      </trkpt>
      <trkpt lat="46.91859" lon="-2.05387">
        <ele>2.6</ele>
        <time>2020-06-04T13:29:49Z</time>
      </trkpt>
      <trkpt lat="46.91864" lon="-2.05388">
        <ele>2.6</ele>
        <time>2020-06-04T13:29:50Z</time>
      </trkpt>
      <trkpt lat="46.91868" lon="-2.05389">
        <ele>2.6</ele>
        <time>2020-06-04T13:29:51Z</time>
      </trkpt>
      <trkpt lat="46.91872" lon="-2.05391">
        <ele>2.6</ele>
        <time>2020-06-04T13:29:52Z</time>
      </trkpt>
      <trkpt lat="46.91876" lon="-2.05394">
        <ele>2.6</ele>
        <time>2020-06-04T13:29:53Z</time>
      </trkpt>
      <trkpt lat="46.91881" lon="-2.05394">
        <ele>2.6</ele>
        <time>2020-06-04T13:29:54Z</time>
      </trkpt>
      <trkpt lat="46.91885" lon="-2.05396">
        <ele>2.6</ele>
        <time>2020-06-04T13:29:55Z</time>
      </trkpt>
      <trkpt lat="46.9189" lon="-2.05399">
        <ele>2.6</ele>
        <time>2020-06-04T13:29:56Z</time>
      </trkpt>
      <trkpt lat="46.91895" lon="-2.05399">
        <ele>2.6</ele>
        <time>2020-06-04T13:29:57Z</time>
      </trkpt>
      <trkpt lat="46.91899" lon="-2.05401">
        <ele>2.6</ele>
        <time>2020-06-04T13:29:58Z</time>
      </trkpt>
      <trkpt lat="46.91903" lon="-2.05402">
        <ele>2.6</ele>
        <time>2020-06-04T13:29:59Z</time>
      </trkpt>
      <trkpt lat="46.91907" lon="-2.05403">
        <ele>2.6</ele>
        <time>2020-06-04T13:30:00Z</time>
      </trkpt>
      <trkpt lat="46.91911" lon="-2.05404">
        <ele>2.6</ele>
        <time>2020-06-04T13:30:01Z</time>
      </trkpt>
      <trkpt lat="46.91916" lon="-2.05405">
        <ele>2.6</ele>
        <time>2020-06-04T13:30:02Z</time>
      </trkpt>
      <trkpt lat="46.91919" lon="-2.05406">
        <ele>2.6</ele>
        <time>2020-06-04T13:30:03Z</time>
      </trkpt>
      <trkpt lat="46.91924" lon="-2.05406">
        <ele>2.6</ele>
        <time>2020-06-04T13:30:04Z</time>
      </trkpt>
      <trkpt lat="46.91929" lon="-2.05402">
        <ele>2.6</ele>
        <time>2020-06-04T13:30:05Z</time>
      </trkpt>
      <trkpt lat="46.91934" lon="-2.054">
        <ele>2.6</ele>
        <time>2020-06-04T13:30:06Z</time>
      </trkpt>
      <trkpt lat="46.91938" lon="-2.05397">
        <ele>2.6</ele>
        <time>2020-06-04T13:30:07Z</time>
      </trkpt>
      <trkpt lat="46.91941" lon="-2.05393">
        <ele>2.6</ele>
        <time>2020-06-04T13:30:08Z</time>
      </trkpt>
      <trkpt lat="46.91944" lon="-2.05388">
        <ele>2.6</ele>
        <time>2020-06-04T13:30:09Z</time>
      </trkpt>
      <trkpt lat="46.91948" lon="-2.05384">
        <ele>2.6</ele>
        <time>2020-06-04T13:30:10Z</time>
      </trkpt>
      <trkpt lat="46.9195" lon="-2.0538">
        <ele>2.6</ele>
        <time>2020-06-04T13:30:11Z</time>
      </trkpt>
      <trkpt lat="46.91953" lon="-2.05376">
        <ele>2.6</ele>
        <time>2020-06-04T13:30:12Z</time>
      </trkpt>
      <trkpt lat="46.91956" lon="-2.05373">
        <ele>2.6</ele>
        <time>2020-06-04T13:30:13Z</time>
      </trkpt>
      <trkpt lat="46.91959" lon="-2.05369">
        <ele>2.6</ele>
        <time>2020-06-04T13:30:14Z</time>
      </trkpt>
      <trkpt lat="46.91962" lon="-2.05366">
        <ele>2.6</ele>
        <time>2020-06-04T13:30:15Z</time>
      </trkpt>
      <trkpt lat="46.91966" lon="-2.05365">
        <ele>2.6</ele>
        <time>2020-06-04T13:30:16Z</time>
      </trkpt>
      <trkpt lat="46.9197" lon="-2.05369">
        <ele>2.6</ele>
        <time>2020-06-04T13:30:17Z</time>
      </trkpt>
      <trkpt lat="46.91974" lon="-2.05372">
        <ele>2.6</ele>
        <time>2020-06-04T13:30:18Z</time>
      </trkpt>
      <trkpt lat="46.91978" lon="-2.05375">
        <ele>2.6</ele>
        <time>2020-06-04T13:30:19Z</time>
      </trkpt>
      <trkpt lat="46.91983" lon="-2.05379">
        <ele>2.6</ele>
        <time>2020-06-04T13:30:20Z</time>
      </trkpt>
      <trkpt lat="46.91986" lon="-2.05383">
        <ele>2.7</ele>
        <time>2020-06-04T13:30:21Z</time>
      </trkpt>
      <trkpt lat="46.91989" lon="-2.05388">
        <ele>2.7</ele>
        <time>2020-06-04T13:30:22Z</time>
      </trkpt>
      <trkpt lat="46.91991" lon="-2.05392">
        <ele>2.7</ele>
        <time>2020-06-04T13:30:23Z</time>
      </trkpt>
      <trkpt lat="46.91993" lon="-2.05397">
        <ele>2.7</ele>
        <time>2020-06-04T13:30:24Z</time>
      </trkpt>
      <trkpt lat="46.91994" lon="-2.05403">
        <ele>2.7</ele>
        <time>2020-06-04T13:30:25Z</time>
      </trkpt>
      <trkpt lat="46.91996" lon="-2.0541">
        <ele>2.7</ele>
        <time>2020-06-04T13:30:26Z</time>
      </trkpt>
      <trkpt lat="46.91997" lon="-2.05416">
        <ele>2.7</ele>
        <time>2020-06-04T13:30:27Z</time>
      </trkpt>
      <trkpt lat="46.91997" lon="-2.05422">
        <ele>2.7</ele>
        <time>2020-06-04T13:30:28Z</time>
      </trkpt>
      <trkpt lat="46.91997" lon="-2.05426">
        <ele>2.7</ele>
        <time>2020-06-04T13:30:29Z</time>
      </trkpt>
      <trkpt lat="46.91997" lon="-2.05432">
        <ele>2.7</ele>
        <time>2020-06-04T13:30:30Z</time>
      </trkpt>
      <trkpt lat="46.91995" lon="-2.05436">
        <ele>2.7</ele>
        <time>2020-06-04T13:30:31Z</time>
      </trkpt>
      <trkpt lat="46.91993" lon="-2.0544">
        <ele>2.8</ele>
        <time>2020-06-04T13:30:32Z</time>
      </trkpt>
      <trkpt lat="46.91991" lon="-2.05445">
        <ele>2.8</ele>
        <time>2020-06-04T13:30:33Z</time>
      </trkpt>
      <trkpt lat="46.91988" lon="-2.05448">
        <ele>2.8</ele>
        <time>2020-06-04T13:30:34Z</time>
      </trkpt>
      <trkpt lat="46.91985" lon="-2.05452">
        <ele>2.8</ele>
        <time>2020-06-04T13:30:35Z</time>
      </trkpt>
      <trkpt lat="46.91982" lon="-2.05456">
        <ele>2.8</ele>
        <time>2020-06-04T13:30:36Z</time>
      </trkpt>
      <trkpt lat="46.9198" lon="-2.0546">
        <ele>2.8</ele>
        <time>2020-06-04T13:30:37Z</time>
      </trkpt>
      <trkpt lat="46.91977" lon="-2.05463">
        <ele>2.8</ele>
        <time>2020-06-04T13:30:38Z</time>
      </trkpt>
      <trkpt lat="46.91974" lon="-2.05466">
        <ele>2.9</ele>
        <time>2020-06-04T13:30:39Z</time>
      </trkpt>
      <trkpt lat="46.91972" lon="-2.05469">
        <ele>2.9</ele>
        <time>2020-06-04T13:30:40Z</time>
      </trkpt>
      <trkpt lat="46.9197" lon="-2.05474">
        <ele>2.9</ele>
        <time>2020-06-04T13:30:41Z</time>
      </trkpt>
      <trkpt lat="46.91967" lon="-2.05476">
        <ele>2.9</ele>
        <time>2020-06-04T13:30:42Z</time>
      </trkpt>
      <trkpt lat="46.91965" lon="-2.05482">
        <ele>2.9</ele>
        <time>2020-06-04T13:30:43Z</time>
      </trkpt>
      <trkpt lat="46.91962" lon="-2.05486">
        <ele>3</ele>
        <time>2020-06-04T13:30:44Z</time>
      </trkpt>
      <trkpt lat="46.91959" lon="-2.0549">
        <ele>3</ele>
        <time>2020-06-04T13:30:45Z</time>
      </trkpt>
      <trkpt lat="46.91957" lon="-2.05495">
        <ele>3</ele>
        <time>2020-06-04T13:30:46Z</time>
      </trkpt>
      <trkpt lat="46.91954" lon="-2.05499">
        <ele>3</ele>
        <time>2020-06-04T13:30:47Z</time>
      </trkpt>
      <trkpt lat="46.91951" lon="-2.05504">
        <ele>3</ele>
        <time>2020-06-04T13:30:48Z</time>
      </trkpt>
      <trkpt lat="46.91947" lon="-2.05509">
        <ele>3</ele>
        <time>2020-06-04T13:30:49Z</time>
      </trkpt>
      <trkpt lat="46.91945" lon="-2.05514">
        <ele>3.1</ele>
        <time>2020-06-04T13:30:50Z</time>
      </trkpt>
      <trkpt lat="46.91943" lon="-2.05521">
        <ele>3.1</ele>
        <time>2020-06-04T13:30:51Z</time>
      </trkpt>
      <trkpt lat="46.91941" lon="-2.05528">
        <ele>3.1</ele>
        <time>2020-06-04T13:30:52Z</time>
      </trkpt>
      <trkpt lat="46.91942" lon="-2.05536">
        <ele>3.1</ele>
        <time>2020-06-04T13:30:53Z</time>
      </trkpt>
      <trkpt lat="46.91942" lon="-2.05544">
        <ele>3</ele>
        <time>2020-06-04T13:30:54Z</time>
      </trkpt>
      <trkpt lat="46.91943" lon="-2.05551">
        <ele>3</ele>
        <time>2020-06-04T13:30:55Z</time>
      </trkpt>
      <trkpt lat="46.91945" lon="-2.05558">
        <ele>3</ele>
        <time>2020-06-04T13:30:56Z</time>
      </trkpt>
      <trkpt lat="46.91948" lon="-2.05564">
        <ele>3</ele>
        <time>2020-06-04T13:30:57Z</time>
      </trkpt>
      <trkpt lat="46.91951" lon="-2.0557">
        <ele>3</ele>
        <time>2020-06-04T13:30:58Z</time>
      </trkpt>
      <trkpt lat="46.91953" lon="-2.05577">
        <ele>3</ele>
        <time>2020-06-04T13:30:59Z</time>
      </trkpt>
      <trkpt lat="46.91955" lon="-2.05583">
        <ele>3</ele>
        <time>2020-06-04T13:31:00Z</time>
      </trkpt>
      <trkpt lat="46.91957" lon="-2.05589">
        <ele>3</ele>
        <time>2020-06-04T13:31:01Z</time>
      </trkpt>
      <trkpt lat="46.9196" lon="-2.05597">
        <ele>2.9</ele>
        <time>2020-06-04T13:31:02Z</time>
      </trkpt>
      <trkpt lat="46.91962" lon="-2.05603">
        <ele>2.9</ele>
        <time>2020-06-04T13:31:03Z</time>
      </trkpt>
      <trkpt lat="46.91963" lon="-2.0561">
        <ele>2.9</ele>
        <time>2020-06-04T13:31:04Z</time>
      </trkpt>
      <trkpt lat="46.91965" lon="-2.05616">
        <ele>2.9</ele>
        <time>2020-06-04T13:31:05Z</time>
      </trkpt>
      <trkpt lat="46.91967" lon="-2.05623">
        <ele>2.9</ele>
        <time>2020-06-04T13:31:06Z</time>
      </trkpt>
      <trkpt lat="46.91968" lon="-2.05629">
        <ele>2.9</ele>
        <time>2020-06-04T13:31:07Z</time>
      </trkpt>
      <trkpt lat="46.91969" lon="-2.05635">
        <ele>2.9</ele>
        <time>2020-06-04T13:31:08Z</time>
      </trkpt>
      <trkpt lat="46.91971" lon="-2.05641">
        <ele>2.9</ele>
        <time>2020-06-04T13:31:09Z</time>
      </trkpt>
      <trkpt lat="46.91972" lon="-2.05647">
        <ele>2.9</ele>
        <time>2020-06-04T13:31:10Z</time>
      </trkpt>
      <trkpt lat="46.91973" lon="-2.05653">
        <ele>2.9</ele>
        <time>2020-06-04T13:31:11Z</time>
      </trkpt>
      <trkpt lat="46.91973" lon="-2.05659">
        <ele>2.9</ele>
        <time>2020-06-04T13:31:12Z</time>
      </trkpt>
      <trkpt lat="46.91971" lon="-2.05664">
        <ele>2.9</ele>
        <time>2020-06-04T13:31:13Z</time>
      </trkpt>
      <trkpt lat="46.91967" lon="-2.05668">
        <ele>2.9</ele>
        <time>2020-06-04T13:31:14Z</time>
      </trkpt>
      <trkpt lat="46.91964" lon="-2.05672">
        <ele>2.9</ele>
        <time>2020-06-04T13:31:15Z</time>
      </trkpt>
      <trkpt lat="46.91961" lon="-2.05677">
        <ele>2.9</ele>
        <time>2020-06-04T13:31:16Z</time>
      </trkpt>
      <trkpt lat="46.91958" lon="-2.05682">
        <ele>2.9</ele>
        <time>2020-06-04T13:31:17Z</time>
      </trkpt>
      <trkpt lat="46.91957" lon="-2.05689">
        <ele>2.9</ele>
        <time>2020-06-04T13:31:18Z</time>
      </trkpt>
      <trkpt lat="46.91956" lon="-2.05696">
        <ele>3</ele>
        <time>2020-06-04T13:31:19Z</time>
      </trkpt>
      <trkpt lat="46.91955" lon="-2.05702">
        <ele>3</ele>
        <time>2020-06-04T13:31:20Z</time>
      </trkpt>
      <trkpt lat="46.91955" lon="-2.05708">
        <ele>3</ele>
        <time>2020-06-04T13:31:21Z</time>
      </trkpt>
      <trkpt lat="46.91955" lon="-2.05715">
        <ele>3</ele>
        <time>2020-06-04T13:31:22Z</time>
      </trkpt>
      <trkpt lat="46.91956" lon="-2.05721">
        <ele>3</ele>
        <time>2020-06-04T13:31:23Z</time>
      </trkpt>
      <trkpt lat="46.91959" lon="-2.05727">
        <ele>3</ele>
        <time>2020-06-04T13:31:24Z</time>
      </trkpt>
      <trkpt lat="46.91961" lon="-2.05733">
        <ele>3</ele>
        <time>2020-06-04T13:31:25Z</time>
      </trkpt>
      <trkpt lat="46.91965" lon="-2.05741">
        <ele>3</ele>
        <time>2020-06-04T13:31:26Z</time>
      </trkpt>
      <trkpt lat="46.91968" lon="-2.05746">
        <ele>3</ele>
        <time>2020-06-04T13:31:27Z</time>
      </trkpt>
      <trkpt lat="46.9197" lon="-2.05751">
        <ele>3</ele>
        <time>2020-06-04T13:31:28Z</time>
      </trkpt>
      <trkpt lat="46.91972" lon="-2.05756">
        <ele>3</ele>
        <time>2020-06-04T13:31:29Z</time>
      </trkpt>
      <trkpt lat="46.91974" lon="-2.05761">
        <ele>3</ele>
        <time>2020-06-04T13:31:30Z</time>
      </trkpt>
      <trkpt lat="46.91977" lon="-2.05766">
        <ele>3</ele>
        <time>2020-06-04T13:31:31Z</time>
      </trkpt>
      <trkpt lat="46.91979" lon="-2.05771">
        <ele>3</ele>
        <time>2020-06-04T13:31:32Z</time>
      </trkpt>
      <trkpt lat="46.91982" lon="-2.05776">
        <ele>3</ele>
        <time>2020-06-04T13:31:33Z</time>
      </trkpt>
      <trkpt lat="46.91986" lon="-2.05781">
        <ele>3</ele>
        <time>2020-06-04T13:31:34Z</time>
      </trkpt>
      <trkpt lat="46.91989" lon="-2.05785">
        <ele>3</ele>
        <time>2020-06-04T13:31:35Z</time>
      </trkpt>
      <trkpt lat="46.91992" lon="-2.05789">
        <ele>3</ele>
        <time>2020-06-04T13:31:36Z</time>
      </trkpt>
      <trkpt lat="46.91995" lon="-2.05793">
        <ele>3</ele>
        <time>2020-06-04T13:31:37Z</time>
      </trkpt>
      <trkpt lat="46.91997" lon="-2.05798">
        <ele>3</ele>
        <time>2020-06-04T13:31:38Z</time>
      </trkpt>
      <trkpt lat="46.92" lon="-2.05803">
        <ele>3</ele>
        <time>2020-06-04T13:31:39Z</time>
      </trkpt>
      <trkpt lat="46.92002" lon="-2.05807">
        <ele>3</ele>
        <time>2020-06-04T13:31:40Z</time>
      </trkpt>
      <trkpt lat="46.92003" lon="-2.05812">
        <ele>3</ele>
        <time>2020-06-04T13:31:41Z</time>
      </trkpt>
      <trkpt lat="46.92002" lon="-2.05813">
        <ele>3.1</ele>
        <time>2020-06-04T13:31:42Z</time>
      </trkpt>
      <trkpt lat="46.92" lon="-2.05814">
        <ele>3.1</ele>
        <time>2020-06-04T13:31:43Z</time>
      </trkpt>
      <trkpt lat="46.91997" lon="-2.05815">
        <ele>3.1</ele>
        <time>2020-06-04T13:31:44Z</time>
      </trkpt>
      <trkpt lat="46.91993" lon="-2.05816">
        <ele>3.1</ele>
        <time>2020-06-04T13:31:45Z</time>
      </trkpt>
      <trkpt lat="46.91989" lon="-2.05817">
        <ele>3.1</ele>
        <time>2020-06-04T13:31:46Z</time>
      </trkpt>
      <trkpt lat="46.91985" lon="-2.05818">
        <ele>3.1</ele>
        <time>2020-06-04T13:31:47Z</time>
      </trkpt>
      <trkpt lat="46.91982" lon="-2.05819">
        <ele>3.2</ele>
        <time>2020-06-04T13:31:48Z</time>
      </trkpt>
      <trkpt lat="46.91978" lon="-2.05821">
        <ele>3.2</ele>
        <time>2020-06-04T13:31:49Z</time>
      </trkpt>
      <trkpt lat="46.91974" lon="-2.05822">
        <ele>3.2</ele>
        <time>2020-06-04T13:31:50Z</time>
      </trkpt>
      <trkpt lat="46.91971" lon="-2.05824">
        <ele>3.2</ele>
        <time>2020-06-04T13:31:51Z</time>
      </trkpt>
      <trkpt lat="46.91967" lon="-2.05824">
        <ele>3.2</ele>
        <time>2020-06-04T13:31:52Z</time>
      </trkpt>
      <trkpt lat="46.91963" lon="-2.05825">
        <ele>3.2</ele>
        <time>2020-06-04T13:31:53Z</time>
      </trkpt>
      <trkpt lat="46.91959" lon="-2.05826">
        <ele>3.2</ele>
        <time>2020-06-04T13:31:54Z</time>
      </trkpt>
      <trkpt lat="46.91954" lon="-2.05828">
        <ele>3.2</ele>
        <time>2020-06-04T13:31:55Z</time>
      </trkpt>
      <trkpt lat="46.9195" lon="-2.05831">
        <ele>3.2</ele>
        <time>2020-06-04T13:31:56Z</time>
      </trkpt>
      <trkpt lat="46.91945" lon="-2.05832">
        <ele>3.1</ele>
        <time>2020-06-04T13:31:57Z</time>
      </trkpt>
      <trkpt lat="46.9194" lon="-2.05835">
        <ele>3.1</ele>
        <time>2020-06-04T13:31:58Z</time>
      </trkpt>
      <trkpt lat="46.91935" lon="-2.05839">
        <ele>3.1</ele>
        <time>2020-06-04T13:31:59Z</time>
      </trkpt>
      <trkpt lat="46.9193" lon="-2.05841">
        <ele>3.1</ele>
        <time>2020-06-04T13:32:00Z</time>
      </trkpt>
      <trkpt lat="46.91926" lon="-2.05845">
        <ele>3.1</ele>
        <time>2020-06-04T13:32:01Z</time>
      </trkpt>
      <trkpt lat="46.91922" lon="-2.05848">
        <ele>3</ele>
        <time>2020-06-04T13:32:02Z</time>
      </trkpt>
      <trkpt lat="46.91918" lon="-2.05851">
        <ele>3</ele>
        <time>2020-06-04T13:32:03Z</time>
      </trkpt>
      <trkpt lat="46.91914" lon="-2.05855">
        <ele>3</ele>
        <time>2020-06-04T13:32:04Z</time>
      </trkpt>
      <trkpt lat="46.9191" lon="-2.05858">
        <ele>3</ele>
        <time>2020-06-04T13:32:05Z</time>
      </trkpt>
      <trkpt lat="46.91906" lon="-2.05862">
        <ele>3</ele>
        <time>2020-06-04T13:32:06Z</time>
      </trkpt>
      <trkpt lat="46.91901" lon="-2.05864">
        <ele>3</ele>
        <time>2020-06-04T13:32:07Z</time>
      </trkpt>
      <trkpt lat="46.91897" lon="-2.05867">
        <ele>3</ele>
        <time>2020-06-04T13:32:08Z</time>
      </trkpt>
      <trkpt lat="46.91891" lon="-2.05866">
        <ele>3</ele>
        <time>2020-06-04T13:32:09Z</time>
      </trkpt>
      <trkpt lat="46.91885" lon="-2.05864">
        <ele>3</ele>
        <time>2020-06-04T13:32:10Z</time>
      </trkpt>
      <trkpt lat="46.91881" lon="-2.05862">
        <ele>3</ele>
        <time>2020-06-04T13:32:11Z</time>
      </trkpt>
      <trkpt lat="46.91876" lon="-2.0586">
        <ele>2.9</ele>
        <time>2020-06-04T13:32:12Z</time>
      </trkpt>
      <trkpt lat="46.91872" lon="-2.05858">
        <ele>2.9</ele>
        <time>2020-06-04T13:32:13Z</time>
      </trkpt>
      <trkpt lat="46.91867" lon="-2.05857">
        <ele>2.9</ele>
        <time>2020-06-04T13:32:14Z</time>
      </trkpt>
      <trkpt lat="46.91863" lon="-2.05855">
        <ele>2.9</ele>
        <time>2020-06-04T13:32:15Z</time>
      </trkpt>
      <trkpt lat="46.91858" lon="-2.05854">
        <ele>2.9</ele>
        <time>2020-06-04T13:32:16Z</time>
      </trkpt>
      <trkpt lat="46.91854" lon="-2.05854">
        <ele>2.9</ele>
        <time>2020-06-04T13:32:17Z</time>
      </trkpt>
      <trkpt lat="46.9185" lon="-2.05854">
        <ele>2.9</ele>
        <time>2020-06-04T13:32:18Z</time>
      </trkpt>
      <trkpt lat="46.91845" lon="-2.05855">
        <ele>2.9</ele>
        <time>2020-06-04T13:32:19Z</time>
      </trkpt>
      <trkpt lat="46.91841" lon="-2.05857">
        <ele>2.8</ele>
        <time>2020-06-04T13:32:20Z</time>
      </trkpt>
      <trkpt lat="46.91836" lon="-2.05859">
        <ele>2.8</ele>
        <time>2020-06-04T13:32:21Z</time>
      </trkpt>
      <trkpt lat="46.91831" lon="-2.05861">
        <ele>2.8</ele>
        <time>2020-06-04T13:32:22Z</time>
      </trkpt>
      <trkpt lat="46.91827" lon="-2.05864">
        <ele>2.8</ele>
        <time>2020-06-04T13:32:23Z</time>
      </trkpt>
      <trkpt lat="46.91823" lon="-2.05867">
        <ele>2.8</ele>
        <time>2020-06-04T13:32:24Z</time>
      </trkpt>
      <trkpt lat="46.91819" lon="-2.0587">
        <ele>2.8</ele>
        <time>2020-06-04T13:32:25Z</time>
      </trkpt>
      <trkpt lat="46.91814" lon="-2.05875">
        <ele>2.7</ele>
        <time>2020-06-04T13:32:26Z</time>
      </trkpt>
      <trkpt lat="46.91809" lon="-2.05878">
        <ele>2.7</ele>
        <time>2020-06-04T13:32:27Z</time>
      </trkpt>
      <trkpt lat="46.91804" lon="-2.05881">
        <ele>2.7</ele>
        <time>2020-06-04T13:32:28Z</time>
      </trkpt>
      <trkpt lat="46.918" lon="-2.05885">
        <ele>2.7</ele>
        <time>2020-06-04T13:32:29Z</time>
      </trkpt>
      <trkpt lat="46.91795" lon="-2.05889">
        <ele>2.7</ele>
        <time>2020-06-04T13:32:30Z</time>
      </trkpt>
      <trkpt lat="46.91791" lon="-2.05892">
        <ele>2.7</ele>
        <time>2020-06-04T13:32:31Z</time>
      </trkpt>
      <trkpt lat="46.91786" lon="-2.05896">
        <ele>2.7</ele>
        <time>2020-06-04T13:32:32Z</time>
      </trkpt>
      <trkpt lat="46.91782" lon="-2.05902">
        <ele>2.7</ele>
        <time>2020-06-04T13:32:33Z</time>
      </trkpt>
      <trkpt lat="46.91777" lon="-2.05906">
        <ele>2.7</ele>
        <time>2020-06-04T13:32:34Z</time>
      </trkpt>
      <trkpt lat="46.91773" lon="-2.05909">
        <ele>2.7</ele>
        <time>2020-06-04T13:32:35Z</time>
      </trkpt>
      <trkpt lat="46.91769" lon="-2.05914">
        <ele>2.7</ele>
        <time>2020-06-04T13:32:36Z</time>
      </trkpt>
      <trkpt lat="46.91764" lon="-2.05917">
        <ele>2.7</ele>
        <time>2020-06-04T13:32:37Z</time>
      </trkpt>
      <trkpt lat="46.9176" lon="-2.05921">
        <ele>2.7</ele>
        <time>2020-06-04T13:32:38Z</time>
      </trkpt>
      <trkpt lat="46.91756" lon="-2.05927">
        <ele>2.7</ele>
        <time>2020-06-04T13:32:39Z</time>
      </trkpt>
      <trkpt lat="46.91752" lon="-2.05931">
        <ele>2.7</ele>
        <time>2020-06-04T13:32:40Z</time>
      </trkpt>
      <trkpt lat="46.91748" lon="-2.05935">
        <ele>2.7</ele>
        <time>2020-06-04T13:32:41Z</time>
      </trkpt>
      <trkpt lat="46.91743" lon="-2.05939">
        <ele>2.7</ele>
        <time>2020-06-04T13:32:42Z</time>
      </trkpt>
      <trkpt lat="46.9174" lon="-2.05944">
        <ele>2.7</ele>
        <time>2020-06-04T13:32:43Z</time>
      </trkpt>
      <trkpt lat="46.91735" lon="-2.05947">
        <ele>2.7</ele>
        <time>2020-06-04T13:32:44Z</time>
      </trkpt>
      <trkpt lat="46.91732" lon="-2.05953">
        <ele>2.6</ele>
        <time>2020-06-04T13:32:45Z</time>
      </trkpt>
      <trkpt lat="46.91728" lon="-2.05958">
        <ele>2.6</ele>
        <time>2020-06-04T13:32:46Z</time>
      </trkpt>
      <trkpt lat="46.91723" lon="-2.05963">
        <ele>2.6</ele>
        <time>2020-06-04T13:32:47Z</time>
      </trkpt>
      <trkpt lat="46.91719" lon="-2.05967">
        <ele>2.5</ele>
        <time>2020-06-04T13:32:48Z</time>
      </trkpt>
      <trkpt lat="46.91715" lon="-2.05971">
        <ele>2.5</ele>
        <time>2020-06-04T13:32:49Z</time>
      </trkpt>
      <trkpt lat="46.91711" lon="-2.05975">
        <ele>2.5</ele>
        <time>2020-06-04T13:32:50Z</time>
      </trkpt>
      <trkpt lat="46.91707" lon="-2.05979">
        <ele>2.5</ele>
        <time>2020-06-04T13:32:51Z</time>
      </trkpt>
      <trkpt lat="46.91703" lon="-2.05983">
        <ele>2.4</ele>
        <time>2020-06-04T13:32:52Z</time>
      </trkpt>
      <trkpt lat="46.917" lon="-2.05987">
        <ele>2.4</ele>
        <time>2020-06-04T13:32:53Z</time>
      </trkpt>
      <trkpt lat="46.91696" lon="-2.0599">
        <ele>2.4</ele>
        <time>2020-06-04T13:32:54Z</time>
      </trkpt>
      <trkpt lat="46.91693" lon="-2.05996">
        <ele>2.4</ele>
        <time>2020-06-04T13:32:55Z</time>
      </trkpt>
      <trkpt lat="46.91689" lon="-2.06001">
        <ele>2.3</ele>
        <time>2020-06-04T13:32:56Z</time>
      </trkpt>
      <trkpt lat="46.91686" lon="-2.06006">
        <ele>2.3</ele>
        <time>2020-06-04T13:32:57Z</time>
      </trkpt>
      <trkpt lat="46.91682" lon="-2.0601">
        <ele>2.3</ele>
        <time>2020-06-04T13:32:58Z</time>
      </trkpt>
      <trkpt lat="46.91678" lon="-2.06012">
        <ele>2.2</ele>
        <time>2020-06-04T13:32:59Z</time>
      </trkpt>
      <trkpt lat="46.91675" lon="-2.06016">
        <ele>2.2</ele>
        <time>2020-06-04T13:33:00Z</time>
      </trkpt>
      <trkpt lat="46.91671" lon="-2.06019">
        <ele>2.2</ele>
        <time>2020-06-04T13:33:01Z</time>
      </trkpt>
      <trkpt lat="46.91667" lon="-2.06021">
        <ele>2.2</ele>
        <time>2020-06-04T13:33:02Z</time>
      </trkpt>
      <trkpt lat="46.91663" lon="-2.06023">
        <ele>2.2</ele>
        <time>2020-06-04T13:33:03Z</time>
      </trkpt>
      <trkpt lat="46.91659" lon="-2.06025">
        <ele>2.1</ele>
        <time>2020-06-04T13:33:04Z</time>
      </trkpt>
      <trkpt lat="46.91654" lon="-2.06023">
        <ele>2.1</ele>
        <time>2020-06-04T13:33:05Z</time>
      </trkpt>
      <trkpt lat="46.91651" lon="-2.0602">
        <ele>2.1</ele>
        <time>2020-06-04T13:33:06Z</time>
      </trkpt>
      <trkpt lat="46.91646" lon="-2.06016">
        <ele>2.1</ele>
        <time>2020-06-04T13:33:07Z</time>
      </trkpt>
      <trkpt lat="46.91643" lon="-2.06012">
        <ele>2.1</ele>
        <time>2020-06-04T13:33:08Z</time>
      </trkpt>
      <trkpt lat="46.9164" lon="-2.06008">
        <ele>2.1</ele>
        <time>2020-06-04T13:33:09Z</time>
      </trkpt>
      <trkpt lat="46.91636" lon="-2.06004">
        <ele>2.1</ele>
        <time>2020-06-04T13:33:10Z</time>
      </trkpt>
      <trkpt lat="46.91631" lon="-2.06">
        <ele>2.1</ele>
        <time>2020-06-04T13:33:11Z</time>
      </trkpt>
      <trkpt lat="46.91628" lon="-2.05996">
        <ele>2.1</ele>
        <time>2020-06-04T13:33:12Z</time>
      </trkpt>
      <trkpt lat="46.91624" lon="-2.05995">
        <ele>2.1</ele>
        <time>2020-06-04T13:33:13Z</time>
      </trkpt>
      <trkpt lat="46.9162" lon="-2.05997">
        <ele>2.1</ele>
        <time>2020-06-04T13:33:14Z</time>
      </trkpt>
      <trkpt lat="46.91617" lon="-2.06002">
        <ele>2.1</ele>
        <time>2020-06-04T13:33:15Z</time>
      </trkpt>
      <trkpt lat="46.91615" lon="-2.06008">
        <ele>2.1</ele>
        <time>2020-06-04T13:33:16Z</time>
      </trkpt>
      <trkpt lat="46.91612" lon="-2.06015">
        <ele>2.1</ele>
        <time>2020-06-04T13:33:17Z</time>
      </trkpt>
      <trkpt lat="46.91609" lon="-2.06023">
        <ele>2.1</ele>
        <time>2020-06-04T13:33:18Z</time>
      </trkpt>
      <trkpt lat="46.91606" lon="-2.0603">
        <ele>2</ele>
        <time>2020-06-04T13:33:19Z</time>
      </trkpt>
      <trkpt lat="46.91605" lon="-2.06038">
        <ele>2</ele>
        <time>2020-06-04T13:33:20Z</time>
      </trkpt>
      <trkpt lat="46.91603" lon="-2.06044">
        <ele>2</ele>
        <time>2020-06-04T13:33:21Z</time>
      </trkpt>
      <trkpt lat="46.916" lon="-2.0605">
        <ele>2</ele>
        <time>2020-06-04T13:33:22Z</time>
      </trkpt>
      <trkpt lat="46.91596" lon="-2.06055">
        <ele>2</ele>
        <time>2020-06-04T13:33:23Z</time>
      </trkpt>
      <trkpt lat="46.91592" lon="-2.06058">
        <ele>2</ele>
        <time>2020-06-04T13:33:24Z</time>
      </trkpt>
      <trkpt lat="46.91587" lon="-2.06061">
        <ele>2</ele>
        <time>2020-06-04T13:33:25Z</time>
      </trkpt>
      <trkpt lat="46.91584" lon="-2.06065">
        <ele>1.9</ele>
        <time>2020-06-04T13:33:26Z</time>
      </trkpt>
      <trkpt lat="46.9158" lon="-2.06068">
        <ele>1.9</ele>
        <time>2020-06-04T13:33:27Z</time>
      </trkpt>
      <trkpt lat="46.91576" lon="-2.06072">
        <ele>1.9</ele>
        <time>2020-06-04T13:33:28Z</time>
      </trkpt>
      <trkpt lat="46.91572" lon="-2.06075">
        <ele>1.9</ele>
        <time>2020-06-04T13:33:29Z</time>
      </trkpt>
      <trkpt lat="46.91567" lon="-2.06079">
        <ele>1.9</ele>
        <time>2020-06-04T13:33:30Z</time>
      </trkpt>
      <trkpt lat="46.91563" lon="-2.06083">
        <ele>1.9</ele>
        <time>2020-06-04T13:33:31Z</time>
      </trkpt>
      <trkpt lat="46.9156" lon="-2.06088">
        <ele>1.9</ele>
        <time>2020-06-04T13:33:32Z</time>
      </trkpt>
      <trkpt lat="46.91557" lon="-2.06091">
        <ele>1.9</ele>
        <time>2020-06-04T13:33:33Z</time>
      </trkpt>
      <trkpt lat="46.91553" lon="-2.06094">
        <ele>1.9</ele>
        <time>2020-06-04T13:33:34Z</time>
      </trkpt>
      <trkpt lat="46.91551" lon="-2.06099">
        <ele>2</ele>
        <time>2020-06-04T13:33:35Z</time>
      </trkpt>
      <trkpt lat="46.91549" lon="-2.06105">
        <ele>2</ele>
        <time>2020-06-04T13:33:36Z</time>
      </trkpt>
      <trkpt lat="46.91548" lon="-2.06109">
        <ele>2</ele>
        <time>2020-06-04T13:33:37Z</time>
      </trkpt>
      <trkpt lat="46.91547" lon="-2.06114">
        <ele>2</ele>
        <time>2020-06-04T13:33:38Z</time>
      </trkpt>
      <trkpt lat="46.91547" lon="-2.06119">
        <ele>2</ele>
        <time>2020-06-04T13:33:39Z</time>
      </trkpt>
      <trkpt lat="46.91546" lon="-2.06123">
        <ele>2.1</ele>
        <time>2020-06-04T13:33:40Z</time>
      </trkpt>
      <trkpt lat="46.91546" lon="-2.06128">
        <ele>2.1</ele>
        <time>2020-06-04T13:33:41Z</time>
      </trkpt>
      <trkpt lat="46.91546" lon="-2.06132">
        <ele>2.1</ele>
        <time>2020-06-04T13:33:42Z</time>
      </trkpt>
      <trkpt lat="46.91545" lon="-2.06136">
        <ele>2.1</ele>
        <time>2020-06-04T13:33:43Z</time>
      </trkpt>
      <trkpt lat="46.91545" lon="-2.06138">
        <ele>2.1</ele>
        <time>2020-06-04T13:33:44Z</time>
      </trkpt>
      <trkpt lat="46.91542" lon="-2.06139">
        <ele>2.2</ele>
        <time>2020-06-04T13:33:45Z</time>
      </trkpt>
      <trkpt lat="46.9154" lon="-2.06138">
        <ele>2.2</ele>
        <time>2020-06-04T13:33:46Z</time>
      </trkpt>
      <trkpt lat="46.91537" lon="-2.0614">
        <ele>2.2</ele>
        <time>2020-06-04T13:33:47Z</time>
      </trkpt>
      <trkpt lat="46.91534" lon="-2.06142">
        <ele>2.2</ele>
        <time>2020-06-04T13:33:48Z</time>
      </trkpt>
      <trkpt lat="46.91531" lon="-2.06146">
        <ele>2.2</ele>
        <time>2020-06-04T13:33:49Z</time>
      </trkpt>
      <trkpt lat="46.91528" lon="-2.06149">
        <ele>2.2</ele>
        <time>2020-06-04T13:33:50Z</time>
      </trkpt>
      <trkpt lat="46.91525" lon="-2.06153">
        <ele>2.2</ele>
        <time>2020-06-04T13:33:51Z</time>
      </trkpt>
      <trkpt lat="46.91521" lon="-2.06157">
        <ele>2.2</ele>
        <time>2020-06-04T13:33:52Z</time>
      </trkpt>
      <trkpt lat="46.91518" lon="-2.06158">
        <ele>2.2</ele>
        <time>2020-06-04T13:33:53Z</time>
      </trkpt>
      <trkpt lat="46.91515" lon="-2.06161">
        <ele>2.2</ele>
        <time>2020-06-04T13:33:54Z</time>
      </trkpt>
      <trkpt lat="46.91511" lon="-2.06166">
        <ele>2.2</ele>
        <time>2020-06-04T13:33:55Z</time>
      </trkpt>
      <trkpt lat="46.91508" lon="-2.06171">
        <ele>2.3</ele>
        <time>2020-06-04T13:33:56Z</time>
      </trkpt>
      <trkpt lat="46.91504" lon="-2.06174">
        <ele>2.3</ele>
        <time>2020-06-04T13:33:57Z</time>
      </trkpt>
      <trkpt lat="46.915" lon="-2.06177">
        <ele>2.3</ele>
        <time>2020-06-04T13:33:58Z</time>
      </trkpt>
      <trkpt lat="46.91497" lon="-2.06181">
        <ele>2.3</ele>
        <time>2020-06-04T13:33:59Z</time>
      </trkpt>
      <trkpt lat="46.91492" lon="-2.06184">
        <ele>2.3</ele>
        <time>2020-06-04T13:34:00Z</time>
      </trkpt>
      <trkpt lat="46.91489" lon="-2.06188">
        <ele>2.4</ele>
        <time>2020-06-04T13:34:01Z</time>
      </trkpt>
      <trkpt lat="46.91485" lon="-2.06192">
        <ele>2.4</ele>
        <time>2020-06-04T13:34:02Z</time>
      </trkpt>
      <trkpt lat="46.91482" lon="-2.06197">
        <ele>2.4</ele>
        <time>2020-06-04T13:34:03Z</time>
      </trkpt>
      <trkpt lat="46.91479" lon="-2.06204">
        <ele>2.4</ele>
        <time>2020-06-04T13:34:04Z</time>
      </trkpt>
      <trkpt lat="46.91477" lon="-2.06211">
        <ele>2.4</ele>
        <time>2020-06-04T13:34:05Z</time>
      </trkpt>
      <trkpt lat="46.91474" lon="-2.06217">
        <ele>2.4</ele>
        <time>2020-06-04T13:34:06Z</time>
      </trkpt>
      <trkpt lat="46.91471" lon="-2.06223">
        <ele>2.5</ele>
        <time>2020-06-04T13:34:07Z</time>
      </trkpt>
      <trkpt lat="46.91468" lon="-2.06229">
        <ele>2.5</ele>
        <time>2020-06-04T13:34:08Z</time>
      </trkpt>
      <trkpt lat="46.91466" lon="-2.06235">
        <ele>2.5</ele>
        <time>2020-06-04T13:34:09Z</time>
      </trkpt>
      <trkpt lat="46.91463" lon="-2.06241">
        <ele>2.5</ele>
        <time>2020-06-04T13:34:10Z</time>
      </trkpt>
      <trkpt lat="46.9146" lon="-2.06248">
        <ele>2.5</ele>
        <time>2020-06-04T13:34:11Z</time>
      </trkpt>
      <trkpt lat="46.91457" lon="-2.06253">
        <ele>2.5</ele>
        <time>2020-06-04T13:34:12Z</time>
      </trkpt>
      <trkpt lat="46.91453" lon="-2.06259">
        <ele>2.5</ele>
        <time>2020-06-04T13:34:13Z</time>
      </trkpt>
      <trkpt lat="46.9145" lon="-2.06264">
        <ele>2.5</ele>
        <time>2020-06-04T13:34:14Z</time>
      </trkpt>
      <trkpt lat="46.91447" lon="-2.06269">
        <ele>2.5</ele>
        <time>2020-06-04T13:34:15Z</time>
      </trkpt>
      <trkpt lat="46.91443" lon="-2.06273">
        <ele>2.5</ele>
        <time>2020-06-04T13:34:16Z</time>
      </trkpt>
      <trkpt lat="46.91439" lon="-2.06278">
        <ele>2.5</ele>
        <time>2020-06-04T13:34:17Z</time>
      </trkpt>
      <trkpt lat="46.91436" lon="-2.06283">
        <ele>2.5</ele>
        <time>2020-06-04T13:34:18Z</time>
      </trkpt>
      <trkpt lat="46.91432" lon="-2.06288">
        <ele>2.5</ele>
        <time>2020-06-04T13:34:19Z</time>
      </trkpt>
      <trkpt lat="46.91429" lon="-2.06293">
        <ele>2.5</ele>
        <time>2020-06-04T13:34:20Z</time>
      </trkpt>
      <trkpt lat="46.91426" lon="-2.06297">
        <ele>2.5</ele>
        <time>2020-06-04T13:34:21Z</time>
      </trkpt>
      <trkpt lat="46.91423" lon="-2.06301">
        <ele>2.5</ele>
        <time>2020-06-04T13:34:22Z</time>
      </trkpt>
      <trkpt lat="46.91419" lon="-2.06305">
        <ele>2.5</ele>
        <time>2020-06-04T13:34:23Z</time>
      </trkpt>
      <trkpt lat="46.91416" lon="-2.06309">
        <ele>2.5</ele>
        <time>2020-06-04T13:34:24Z</time>
      </trkpt>
      <trkpt lat="46.91413" lon="-2.06313">
        <ele>2.5</ele>
        <time>2020-06-04T13:34:25Z</time>
      </trkpt>
      <trkpt lat="46.9141" lon="-2.06317">
        <ele>2.5</ele>
        <time>2020-06-04T13:34:26Z</time>
      </trkpt>
      <trkpt lat="46.91407" lon="-2.0632">
        <ele>2.5</ele>
        <time>2020-06-04T13:34:27Z</time>
      </trkpt>
      <trkpt lat="46.91404" lon="-2.06322">
        <ele>2.5</ele>
        <time>2020-06-04T13:34:28Z</time>
      </trkpt>
      <trkpt lat="46.91401" lon="-2.06326">
        <ele>2.5</ele>
        <time>2020-06-04T13:34:29Z</time>
      </trkpt>
      <trkpt lat="46.91397" lon="-2.06329">
        <ele>2.5</ele>
        <time>2020-06-04T13:34:30Z</time>
      </trkpt>
      <trkpt lat="46.91394" lon="-2.06332">
        <ele>2.5</ele>
        <time>2020-06-04T13:34:31Z</time>
      </trkpt>
      <trkpt lat="46.91391" lon="-2.06335">
        <ele>2.5</ele>
        <time>2020-06-04T13:34:32Z</time>
      </trkpt>
      <trkpt lat="46.91387" lon="-2.06339">
        <ele>2.5</ele>
        <time>2020-06-04T13:34:33Z</time>
      </trkpt>
      <trkpt lat="46.91383" lon="-2.06341">
        <ele>2.5</ele>
        <time>2020-06-04T13:34:34Z</time>
      </trkpt>
      <trkpt lat="46.9138" lon="-2.06344">
        <ele>2.5</ele>
        <time>2020-06-04T13:34:35Z</time>
      </trkpt>
      <trkpt lat="46.91376" lon="-2.06345">
        <ele>2.5</ele>
        <time>2020-06-04T13:34:36Z</time>
      </trkpt>
      <trkpt lat="46.91373" lon="-2.06348">
        <ele>2.5</ele>
        <time>2020-06-04T13:34:37Z</time>
      </trkpt>
      <trkpt lat="46.91369" lon="-2.0635">
        <ele>2.5</ele>
        <time>2020-06-04T13:34:38Z</time>
      </trkpt>
      <trkpt lat="46.91365" lon="-2.06353">
        <ele>2.5</ele>
        <time>2020-06-04T13:34:39Z</time>
      </trkpt>
      <trkpt lat="46.9136" lon="-2.06355">
        <ele>2.5</ele>
        <time>2020-06-04T13:34:40Z</time>
      </trkpt>
      <trkpt lat="46.91356" lon="-2.06357">
        <ele>2.5</ele>
        <time>2020-06-04T13:34:41Z</time>
      </trkpt>
      <trkpt lat="46.91352" lon="-2.06359">
        <ele>2.5</ele>
        <time>2020-06-04T13:34:42Z</time>
      </trkpt>
      <trkpt lat="46.91348" lon="-2.06361">
        <ele>2.4</ele>
        <time>2020-06-04T13:34:43Z</time>
      </trkpt>
      <trkpt lat="46.91344" lon="-2.06362">
        <ele>2.4</ele>
        <time>2020-06-04T13:34:44Z</time>
      </trkpt>
      <trkpt lat="46.9134" lon="-2.06364">
        <ele>2.4</ele>
        <time>2020-06-04T13:34:45Z</time>
      </trkpt>
      <trkpt lat="46.91335" lon="-2.06365">
        <ele>2.4</ele>
        <time>2020-06-04T13:34:46Z</time>
      </trkpt>
      <trkpt lat="46.91331" lon="-2.06367">
        <ele>2.4</ele>
        <time>2020-06-04T13:34:47Z</time>
      </trkpt>
      <trkpt lat="46.91327" lon="-2.0637">
        <ele>2.3</ele>
        <time>2020-06-04T13:34:48Z</time>
      </trkpt>
      <trkpt lat="46.91323" lon="-2.06372">
        <ele>2.3</ele>
        <time>2020-06-04T13:34:49Z</time>
      </trkpt>
      <trkpt lat="46.91318" lon="-2.06374">
        <ele>2.3</ele>
        <time>2020-06-04T13:34:50Z</time>
      </trkpt>
      <trkpt lat="46.91314" lon="-2.06377">
        <ele>2.3</ele>
        <time>2020-06-04T13:34:51Z</time>
      </trkpt>
      <trkpt lat="46.9131" lon="-2.0638">
        <ele>2.3</ele>
        <time>2020-06-04T13:34:52Z</time>
      </trkpt>
      <trkpt lat="46.91307" lon="-2.06384">
        <ele>2.3</ele>
        <time>2020-06-04T13:34:53Z</time>
      </trkpt>
      <trkpt lat="46.91304" lon="-2.06392">
        <ele>2.3</ele>
        <time>2020-06-04T13:34:54Z</time>
      </trkpt>
      <trkpt lat="46.91303" lon="-2.06399">
        <ele>2.3</ele>
        <time>2020-06-04T13:34:55Z</time>
      </trkpt>
      <trkpt lat="46.91303" lon="-2.06406">
        <ele>2.3</ele>
        <time>2020-06-04T13:34:56Z</time>
      </trkpt>
      <trkpt lat="46.91304" lon="-2.06414">
        <ele>2.3</ele>
        <time>2020-06-04T13:34:57Z</time>
      </trkpt>
      <trkpt lat="46.91305" lon="-2.06421">
        <ele>2.3</ele>
        <time>2020-06-04T13:34:58Z</time>
      </trkpt>
      <trkpt lat="46.91306" lon="-2.06428">
        <ele>2.3</ele>
        <time>2020-06-04T13:34:59Z</time>
      </trkpt>
      <trkpt lat="46.91306" lon="-2.06437">
        <ele>2.3</ele>
        <time>2020-06-04T13:35:00Z</time>
      </trkpt>
      <trkpt lat="46.91307" lon="-2.06444">
        <ele>2.3</ele>
        <time>2020-06-04T13:35:01Z</time>
      </trkpt>
      <trkpt lat="46.91308" lon="-2.06452">
        <ele>2.4</ele>
        <time>2020-06-04T13:35:02Z</time>
      </trkpt>
      <trkpt lat="46.91308" lon="-2.06459">
        <ele>2.4</ele>
        <time>2020-06-04T13:35:03Z</time>
      </trkpt>
      <trkpt lat="46.91309" lon="-2.06467">
        <ele>2.4</ele>
        <time>2020-06-04T13:35:04Z</time>
      </trkpt>
      <trkpt lat="46.9131" lon="-2.06475">
        <ele>2.4</ele>
        <time>2020-06-04T13:35:05Z</time>
      </trkpt>
      <trkpt lat="46.91309" lon="-2.0648">
        <ele>2.4</ele>
        <time>2020-06-04T13:35:06Z</time>
      </trkpt>
      <trkpt lat="46.91308" lon="-2.06487">
        <ele>2.4</ele>
        <time>2020-06-04T13:35:07Z</time>
      </trkpt>
      <trkpt lat="46.91308" lon="-2.06493">
        <ele>2.4</ele>
        <time>2020-06-04T13:35:08Z</time>
      </trkpt>
      <trkpt lat="46.91308" lon="-2.065">
        <ele>2.5</ele>
        <time>2020-06-04T13:35:09Z</time>
      </trkpt>
      <trkpt lat="46.91307" lon="-2.06505">
        <ele>2.5</ele>
        <time>2020-06-04T13:35:10Z</time>
      </trkpt>
      <trkpt lat="46.91307" lon="-2.0651">
        <ele>2.5</ele>
        <time>2020-06-04T13:35:11Z</time>
      </trkpt>
      <trkpt lat="46.91306" lon="-2.06516">
        <ele>2.5</ele>
        <time>2020-06-04T13:35:12Z</time>
      </trkpt>
      <trkpt lat="46.91305" lon="-2.06523">
        <ele>2.5</ele>
        <time>2020-06-04T13:35:13Z</time>
      </trkpt>
      <trkpt lat="46.91305" lon="-2.06528">
        <ele>2.5</ele>
        <time>2020-06-04T13:35:14Z</time>
      </trkpt>
      <trkpt lat="46.91304" lon="-2.06534">
        <ele>2.5</ele>
        <time>2020-06-04T13:35:15Z</time>
      </trkpt>
      <trkpt lat="46.91304" lon="-2.06541">
        <ele>2.5</ele>
        <time>2020-06-04T13:35:16Z</time>
      </trkpt>
      <trkpt lat="46.91303" lon="-2.06547">
        <ele>2.5</ele>
        <time>2020-06-04T13:35:17Z</time>
      </trkpt>
      <trkpt lat="46.91302" lon="-2.06553">
        <ele>2.5</ele>
        <time>2020-06-04T13:35:18Z</time>
      </trkpt>
      <trkpt lat="46.91302" lon="-2.0656">
        <ele>2.5</ele>
        <time>2020-06-04T13:35:19Z</time>
      </trkpt>
      <trkpt lat="46.913" lon="-2.06565">
        <ele>2.5</ele>
        <time>2020-06-04T13:35:20Z</time>
      </trkpt>
      <trkpt lat="46.91298" lon="-2.0657">
        <ele>2.5</ele>
        <time>2020-06-04T13:35:21Z</time>
      </trkpt>
      <trkpt lat="46.91297" lon="-2.06576">
        <ele>2.5</ele>
        <time>2020-06-04T13:35:22Z</time>
      </trkpt>
      <trkpt lat="46.91295" lon="-2.06581">
        <ele>2.5</ele>
        <time>2020-06-04T13:35:23Z</time>
      </trkpt>
      <trkpt lat="46.91294" lon="-2.06586">
        <ele>2.5</ele>
        <time>2020-06-04T13:35:24Z</time>
      </trkpt>
      <trkpt lat="46.91291" lon="-2.06591">
        <ele>2.5</ele>
        <time>2020-06-04T13:35:25Z</time>
      </trkpt>
      <trkpt lat="46.9129" lon="-2.06596">
        <ele>2.5</ele>
        <time>2020-06-04T13:35:26Z</time>
      </trkpt>
      <trkpt lat="46.91287" lon="-2.066">
        <ele>2.5</ele>
        <time>2020-06-04T13:35:27Z</time>
      </trkpt>
      <trkpt lat="46.91286" lon="-2.06605">
        <ele>2.5</ele>
        <time>2020-06-04T13:35:28Z</time>
      </trkpt>
      <trkpt lat="46.91284" lon="-2.0661">
        <ele>2.5</ele>
        <time>2020-06-04T13:35:29Z</time>
      </trkpt>
      <trkpt lat="46.91282" lon="-2.06615">
        <ele>2.6</ele>
        <time>2020-06-04T13:35:30Z</time>
      </trkpt>
      <trkpt lat="46.9128" lon="-2.06619">
        <ele>2.6</ele>
        <time>2020-06-04T13:35:31Z</time>
      </trkpt>
      <trkpt lat="46.91278" lon="-2.06624">
        <ele>2.6</ele>
        <time>2020-06-04T13:35:32Z</time>
      </trkpt>
      <trkpt lat="46.91276" lon="-2.06629">
        <ele>2.6</ele>
        <time>2020-06-04T13:35:33Z</time>
      </trkpt>
      <trkpt lat="46.91273" lon="-2.06635">
        <ele>2.6</ele>
        <time>2020-06-04T13:35:34Z</time>
      </trkpt>
      <trkpt lat="46.91271" lon="-2.06642">
        <ele>2.6</ele>
        <time>2020-06-04T13:35:35Z</time>
      </trkpt>
      <trkpt lat="46.91269" lon="-2.06649">
        <ele>2.6</ele>
        <time>2020-06-04T13:35:36Z</time>
      </trkpt>
      <trkpt lat="46.91266" lon="-2.06656">
        <ele>2.6</ele>
        <time>2020-06-04T13:35:37Z</time>
      </trkpt>
      <trkpt lat="46.91263" lon="-2.06663">
        <ele>2.6</ele>
        <time>2020-06-04T13:35:38Z</time>
      </trkpt>
      <trkpt lat="46.91259" lon="-2.06669">
        <ele>2.6</ele>
        <time>2020-06-04T13:35:39Z</time>
      </trkpt>
      <trkpt lat="46.91257" lon="-2.06676">
        <ele>2.6</ele>
        <time>2020-06-04T13:35:40Z</time>
      </trkpt>
      <trkpt lat="46.91255" lon="-2.06683">
        <ele>2.6</ele>
        <time>2020-06-04T13:35:41Z</time>
      </trkpt>
      <trkpt lat="46.91252" lon="-2.0669">
        <ele>2.6</ele>
        <time>2020-06-04T13:35:42Z</time>
      </trkpt>
      <trkpt lat="46.91249" lon="-2.06697">
        <ele>2.5</ele>
        <time>2020-06-04T13:35:43Z</time>
      </trkpt>
      <trkpt lat="46.91246" lon="-2.06704">
        <ele>2.5</ele>
        <time>2020-06-04T13:35:44Z</time>
      </trkpt>
      <trkpt lat="46.91243" lon="-2.0671">
        <ele>2.5</ele>
        <time>2020-06-04T13:35:45Z</time>
      </trkpt>
      <trkpt lat="46.9124" lon="-2.06717">
        <ele>2.5</ele>
        <time>2020-06-04T13:35:46Z</time>
      </trkpt>
      <trkpt lat="46.91237" lon="-2.06723">
        <ele>2.4</ele>
        <time>2020-06-04T13:35:47Z</time>
      </trkpt>
      <trkpt lat="46.91235" lon="-2.06729">
        <ele>2.4</ele>
        <time>2020-06-04T13:35:48Z</time>
      </trkpt>
      <trkpt lat="46.91232" lon="-2.06735">
        <ele>2.4</ele>
        <time>2020-06-04T13:35:49Z</time>
      </trkpt>
      <trkpt lat="46.9123" lon="-2.06743">
        <ele>2.4</ele>
        <time>2020-06-04T13:35:50Z</time>
      </trkpt>
      <trkpt lat="46.91227" lon="-2.06748">
        <ele>2.3</ele>
        <time>2020-06-04T13:35:51Z</time>
      </trkpt>
      <trkpt lat="46.91224" lon="-2.06754">
        <ele>2.3</ele>
        <time>2020-06-04T13:35:52Z</time>
      </trkpt>
      <trkpt lat="46.91221" lon="-2.0676">
        <ele>2.3</ele>
        <time>2020-06-04T13:35:53Z</time>
      </trkpt>
      <trkpt lat="46.91219" lon="-2.06766">
        <ele>2.3</ele>
        <time>2020-06-04T13:35:54Z</time>
      </trkpt>
      <trkpt lat="46.91217" lon="-2.06773">
        <ele>2.3</ele>
        <time>2020-06-04T13:35:55Z</time>
      </trkpt>
      <trkpt lat="46.91214" lon="-2.06779">
        <ele>2.3</ele>
        <time>2020-06-04T13:35:56Z</time>
      </trkpt>
      <trkpt lat="46.91212" lon="-2.06786">
        <ele>2.3</ele>
        <time>2020-06-04T13:35:57Z</time>
      </trkpt>
      <trkpt lat="46.91209" lon="-2.06792">
        <ele>2.3</ele>
        <time>2020-06-04T13:35:58Z</time>
      </trkpt>
      <trkpt lat="46.91206" lon="-2.06798">
        <ele>2.3</ele>
        <time>2020-06-04T13:35:59Z</time>
      </trkpt>
      <trkpt lat="46.91204" lon="-2.06807">
        <ele>2.3</ele>
        <time>2020-06-04T13:36:00Z</time>
      </trkpt>
      <trkpt lat="46.91203" lon="-2.06814">
        <ele>2.2</ele>
        <time>2020-06-04T13:36:01Z</time>
      </trkpt>
      <trkpt lat="46.91201" lon="-2.06821">
        <ele>2.2</ele>
        <time>2020-06-04T13:36:02Z</time>
      </trkpt>
      <trkpt lat="46.91199" lon="-2.06828">
        <ele>2.2</ele>
        <time>2020-06-04T13:36:03Z</time>
      </trkpt>
      <trkpt lat="46.91198" lon="-2.06836">
        <ele>2.2</ele>
        <time>2020-06-04T13:36:04Z</time>
      </trkpt>
      <trkpt lat="46.91197" lon="-2.06844">
        <ele>2.2</ele>
        <time>2020-06-04T13:36:05Z</time>
      </trkpt>
      <trkpt lat="46.91196" lon="-2.06851">
        <ele>2.2</ele>
        <time>2020-06-04T13:36:06Z</time>
      </trkpt>
      <trkpt lat="46.91195" lon="-2.06858">
        <ele>2.2</ele>
        <time>2020-06-04T13:36:07Z</time>
      </trkpt>
      <trkpt lat="46.91194" lon="-2.06866">
        <ele>2.2</ele>
        <time>2020-06-04T13:36:08Z</time>
      </trkpt>
      <trkpt lat="46.91193" lon="-2.06875">
        <ele>2.2</ele>
        <time>2020-06-04T13:36:09Z</time>
      </trkpt>
      <trkpt lat="46.91191" lon="-2.06884">
        <ele>2.2</ele>
        <time>2020-06-04T13:36:10Z</time>
      </trkpt>
      <trkpt lat="46.91191" lon="-2.06893">
        <ele>2.2</ele>
        <time>2020-06-04T13:36:11Z</time>
      </trkpt>
      <trkpt lat="46.91191" lon="-2.06902">
        <ele>2.2</ele>
        <time>2020-06-04T13:36:12Z</time>
      </trkpt>
      <trkpt lat="46.9119" lon="-2.06909">
        <ele>2.2</ele>
        <time>2020-06-04T13:36:13Z</time>
      </trkpt>
      <trkpt lat="46.9119" lon="-2.06917">
        <ele>2.2</ele>
        <time>2020-06-04T13:36:14Z</time>
      </trkpt>
      <trkpt lat="46.91189" lon="-2.06924">
        <ele>2.2</ele>
        <time>2020-06-04T13:36:15Z</time>
      </trkpt>
      <trkpt lat="46.91189" lon="-2.06931">
        <ele>2.2</ele>
        <time>2020-06-04T13:36:16Z</time>
      </trkpt>
      <trkpt lat="46.91188" lon="-2.06938">
        <ele>2.2</ele>
        <time>2020-06-04T13:36:17Z</time>
      </trkpt>
      <trkpt lat="46.91188" lon="-2.06944">
        <ele>2.2</ele>
        <time>2020-06-04T13:36:18Z</time>
      </trkpt>
      <trkpt lat="46.91188" lon="-2.06951">
        <ele>2.2</ele>
        <time>2020-06-04T13:36:19Z</time>
      </trkpt>
      <trkpt lat="46.91187" lon="-2.06957">
        <ele>2.2</ele>
        <time>2020-06-04T13:36:20Z</time>
      </trkpt>
      <trkpt lat="46.91185" lon="-2.06964">
        <ele>2.2</ele>
        <time>2020-06-04T13:36:21Z</time>
      </trkpt>
      <trkpt lat="46.91185" lon="-2.06972">
        <ele>2.2</ele>
        <time>2020-06-04T13:36:22Z</time>
      </trkpt>
      <trkpt lat="46.91184" lon="-2.0698">
        <ele>2.2</ele>
        <time>2020-06-04T13:36:23Z</time>
      </trkpt>
      <trkpt lat="46.91184" lon="-2.06988">
        <ele>2.2</ele>
        <time>2020-06-04T13:36:24Z</time>
      </trkpt>
      <trkpt lat="46.91183" lon="-2.06995">
        <ele>2.2</ele>
        <time>2020-06-04T13:36:25Z</time>
      </trkpt>
      <trkpt lat="46.91183" lon="-2.07003">
        <ele>2.2</ele>
        <time>2020-06-04T13:36:26Z</time>
      </trkpt>
      <trkpt lat="46.91182" lon="-2.07011">
        <ele>2.2</ele>
        <time>2020-06-04T13:36:27Z</time>
      </trkpt>
      <trkpt lat="46.91179" lon="-2.07018">
        <ele>2.2</ele>
        <time>2020-06-04T13:36:28Z</time>
      </trkpt>
      <trkpt lat="46.91178" lon="-2.07026">
        <ele>2.1</ele>
        <time>2020-06-04T13:36:29Z</time>
      </trkpt>
      <trkpt lat="46.91175" lon="-2.07033">
        <ele>2.1</ele>
        <time>2020-06-04T13:36:30Z</time>
      </trkpt>
      <trkpt lat="46.91172" lon="-2.0704">
        <ele>2.1</ele>
        <time>2020-06-04T13:36:31Z</time>
      </trkpt>
      <trkpt lat="46.91168" lon="-2.07048">
        <ele>2.2</ele>
        <time>2020-06-04T13:36:32Z</time>
      </trkpt>
      <trkpt lat="46.91165" lon="-2.07054">
        <ele>2.2</ele>
        <time>2020-06-04T13:36:33Z</time>
      </trkpt>
      <trkpt lat="46.91161" lon="-2.07061">
        <ele>2.2</ele>
        <time>2020-06-04T13:36:34Z</time>
      </trkpt>
      <trkpt lat="46.91158" lon="-2.07069">
        <ele>2.2</ele>
        <time>2020-06-04T13:36:35Z</time>
      </trkpt>
      <trkpt lat="46.91155" lon="-2.07077">
        <ele>2.2</ele>
        <time>2020-06-04T13:36:36Z</time>
      </trkpt>
      <trkpt lat="46.91151" lon="-2.07084">
        <ele>2.2</ele>
        <time>2020-06-04T13:36:37Z</time>
      </trkpt>
      <trkpt lat="46.91147" lon="-2.07089">
        <ele>2.2</ele>
        <time>2020-06-04T13:36:38Z</time>
      </trkpt>
      <trkpt lat="46.91143" lon="-2.07094">
        <ele>2.1</ele>
        <time>2020-06-04T13:36:39Z</time>
      </trkpt>
      <trkpt lat="46.91138" lon="-2.07099">
        <ele>2.1</ele>
        <time>2020-06-04T13:36:40Z</time>
      </trkpt>
      <trkpt lat="46.91133" lon="-2.07102">
        <ele>2.1</ele>
        <time>2020-06-04T13:36:41Z</time>
      </trkpt>
      <trkpt lat="46.91129" lon="-2.07105">
        <ele>2.1</ele>
        <time>2020-06-04T13:36:42Z</time>
      </trkpt>
      <trkpt lat="46.91124" lon="-2.07108">
        <ele>2.1</ele>
        <time>2020-06-04T13:36:43Z</time>
      </trkpt>
      <trkpt lat="46.9112" lon="-2.07112">
        <ele>2.1</ele>
        <time>2020-06-04T13:36:44Z</time>
      </trkpt>
      <trkpt lat="46.91116" lon="-2.07116">
        <ele>2.1</ele>
        <time>2020-06-04T13:36:45Z</time>
      </trkpt>
      <trkpt lat="46.91112" lon="-2.0712">
        <ele>2.1</ele>
        <time>2020-06-04T13:36:46Z</time>
      </trkpt>
      <trkpt lat="46.91108" lon="-2.07124">
        <ele>2.1</ele>
        <time>2020-06-04T13:36:47Z</time>
      </trkpt>
      <trkpt lat="46.91104" lon="-2.07129">
        <ele>2.1</ele>
        <time>2020-06-04T13:36:48Z</time>
      </trkpt>
      <trkpt lat="46.91102" lon="-2.07134">
        <ele>2</ele>
        <time>2020-06-04T13:36:49Z</time>
      </trkpt>
      <trkpt lat="46.911" lon="-2.07139">
        <ele>2</ele>
        <time>2020-06-04T13:36:50Z</time>
      </trkpt>
      <trkpt lat="46.91099" lon="-2.07144">
        <ele>2</ele>
        <time>2020-06-04T13:36:51Z</time>
      </trkpt>
      <trkpt lat="46.91098" lon="-2.07149">
        <ele>2</ele>
        <time>2020-06-04T13:36:52Z</time>
      </trkpt>
      <trkpt lat="46.91097" lon="-2.07155">
        <ele>2</ele>
        <time>2020-06-04T13:36:53Z</time>
      </trkpt>
      <trkpt lat="46.91096" lon="-2.07162">
        <ele>2</ele>
        <time>2020-06-04T13:36:54Z</time>
      </trkpt>
      <trkpt lat="46.91098" lon="-2.07168">
        <ele>2</ele>
        <time>2020-06-04T13:36:55Z</time>
      </trkpt>
      <trkpt lat="46.91099" lon="-2.07174">
        <ele>2</ele>
        <time>2020-06-04T13:36:56Z</time>
      </trkpt>
      <trkpt lat="46.911" lon="-2.07181">
        <ele>2</ele>
        <time>2020-06-04T13:36:57Z</time>
      </trkpt>
      <trkpt lat="46.91101" lon="-2.07188">
        <ele>2.1</ele>
        <time>2020-06-04T13:36:58Z</time>
      </trkpt>
      <trkpt lat="46.91101" lon="-2.07195">
        <ele>2.1</ele>
        <time>2020-06-04T13:36:59Z</time>
      </trkpt>
      <trkpt lat="46.91102" lon="-2.07202">
        <ele>2.1</ele>
        <time>2020-06-04T13:37:00Z</time>
      </trkpt>
      <trkpt lat="46.91103" lon="-2.07209">
        <ele>2.1</ele>
        <time>2020-06-04T13:37:01Z</time>
      </trkpt>
      <trkpt lat="46.91104" lon="-2.07215">
        <ele>2.1</ele>
        <time>2020-06-04T13:37:02Z</time>
      </trkpt>
      <trkpt lat="46.91105" lon="-2.07222">
        <ele>2.1</ele>
        <time>2020-06-04T13:37:03Z</time>
      </trkpt>
      <trkpt lat="46.91106" lon="-2.07229">
        <ele>2.1</ele>
        <time>2020-06-04T13:37:04Z</time>
      </trkpt>
      <trkpt lat="46.91107" lon="-2.07237">
        <ele>2.1</ele>
        <time>2020-06-04T13:37:05Z</time>
      </trkpt>
      <trkpt lat="46.91107" lon="-2.07243">
        <ele>2.1</ele>
        <time>2020-06-04T13:37:06Z</time>
      </trkpt>
      <trkpt lat="46.91107" lon="-2.07251">
        <ele>2.1</ele>
        <time>2020-06-04T13:37:07Z</time>
      </trkpt>
      <trkpt lat="46.91108" lon="-2.07258">
        <ele>2.1</ele>
        <time>2020-06-04T13:37:08Z</time>
      </trkpt>
      <trkpt lat="46.91109" lon="-2.07266">
        <ele>2.1</ele>
        <time>2020-06-04T13:37:09Z</time>
      </trkpt>
      <trkpt lat="46.91109" lon="-2.07272">
        <ele>2.1</ele>
        <time>2020-06-04T13:37:10Z</time>
      </trkpt>
      <trkpt lat="46.9111" lon="-2.0728">
        <ele>2.2</ele>
        <time>2020-06-04T13:37:11Z</time>
      </trkpt>
      <trkpt lat="46.9111" lon="-2.07288">
        <ele>2.2</ele>
        <time>2020-06-04T13:37:12Z</time>
      </trkpt>
      <trkpt lat="46.91111" lon="-2.07296">
        <ele>2.2</ele>
        <time>2020-06-04T13:37:13Z</time>
      </trkpt>
      <trkpt lat="46.91111" lon="-2.07304">
        <ele>2.2</ele>
        <time>2020-06-04T13:37:14Z</time>
      </trkpt>
      <trkpt lat="46.91111" lon="-2.07312">
        <ele>2.2</ele>
        <time>2020-06-04T13:37:15Z</time>
      </trkpt>
      <trkpt lat="46.91111" lon="-2.0732">
        <ele>2.2</ele>
        <time>2020-06-04T13:37:16Z</time>
      </trkpt>
      <trkpt lat="46.9111" lon="-2.07327">
        <ele>2.2</ele>
        <time>2020-06-04T13:37:17Z</time>
      </trkpt>
      <trkpt lat="46.9111" lon="-2.07334">
        <ele>2.2</ele>
        <time>2020-06-04T13:37:18Z</time>
      </trkpt>
      <trkpt lat="46.9111" lon="-2.0734">
        <ele>2.2</ele>
        <time>2020-06-04T13:37:19Z</time>
      </trkpt>
      <trkpt lat="46.9111" lon="-2.07347">
        <ele>2.2</ele>
        <time>2020-06-04T13:37:20Z</time>
      </trkpt>
      <trkpt lat="46.9111" lon="-2.07354">
        <ele>2.2</ele>
        <time>2020-06-04T13:37:21Z</time>
      </trkpt>
      <trkpt lat="46.9111" lon="-2.07362">
        <ele>2.2</ele>
        <time>2020-06-04T13:37:22Z</time>
      </trkpt>
      <trkpt lat="46.9111" lon="-2.07369">
        <ele>2.2</ele>
        <time>2020-06-04T13:37:23Z</time>
      </trkpt>
      <trkpt lat="46.9111" lon="-2.07376">
        <ele>2.2</ele>
        <time>2020-06-04T13:37:24Z</time>
      </trkpt>
      <trkpt lat="46.91109" lon="-2.07383">
        <ele>2.2</ele>
        <time>2020-06-04T13:37:25Z</time>
      </trkpt>
      <trkpt lat="46.91109" lon="-2.0739">
        <ele>2.2</ele>
        <time>2020-06-04T13:37:26Z</time>
      </trkpt>
      <trkpt lat="46.91109" lon="-2.07397">
        <ele>2.2</ele>
        <time>2020-06-04T13:37:27Z</time>
      </trkpt>
      <trkpt lat="46.91108" lon="-2.07405">
        <ele>2.2</ele>
        <time>2020-06-04T13:37:28Z</time>
      </trkpt>
      <trkpt lat="46.91108" lon="-2.07412">
        <ele>2.2</ele>
        <time>2020-06-04T13:37:29Z</time>
      </trkpt>
      <trkpt lat="46.91108" lon="-2.0742">
        <ele>2.2</ele>
        <time>2020-06-04T13:37:30Z</time>
      </trkpt>
      <trkpt lat="46.91107" lon="-2.07428">
        <ele>2.2</ele>
        <time>2020-06-04T13:37:31Z</time>
      </trkpt>
      <trkpt lat="46.91107" lon="-2.07435">
        <ele>2.2</ele>
        <time>2020-06-04T13:37:32Z</time>
      </trkpt>
      <trkpt lat="46.91107" lon="-2.07443">
        <ele>2.2</ele>
        <time>2020-06-04T13:37:33Z</time>
      </trkpt>
      <trkpt lat="46.91107" lon="-2.07449">
        <ele>2.2</ele>
        <time>2020-06-04T13:37:34Z</time>
      </trkpt>
      <trkpt lat="46.91107" lon="-2.07456">
        <ele>2.2</ele>
        <time>2020-06-04T13:37:35Z</time>
      </trkpt>
      <trkpt lat="46.91106" lon="-2.07464">
        <ele>2.2</ele>
        <time>2020-06-04T13:37:36Z</time>
      </trkpt>
      <trkpt lat="46.91106" lon="-2.07472">
        <ele>2.2</ele>
        <time>2020-06-04T13:37:37Z</time>
      </trkpt>
      <trkpt lat="46.91106" lon="-2.07481">
        <ele>2.2</ele>
        <time>2020-06-04T13:37:38Z</time>
      </trkpt>
      <trkpt lat="46.91105" lon="-2.07488">
        <ele>2.2</ele>
        <time>2020-06-04T13:37:39Z</time>
      </trkpt>
      <trkpt lat="46.91105" lon="-2.07496">
        <ele>2.2</ele>
        <time>2020-06-04T13:37:40Z</time>
      </trkpt>
      <trkpt lat="46.91106" lon="-2.07503">
        <ele>2.2</ele>
        <time>2020-06-04T13:37:41Z</time>
      </trkpt>
      <trkpt lat="46.91108" lon="-2.0751">
        <ele>2.2</ele>
        <time>2020-06-04T13:37:42Z</time>
      </trkpt>
      <trkpt lat="46.91109" lon="-2.07516">
        <ele>2.2</ele>
        <time>2020-06-04T13:37:43Z</time>
      </trkpt>
      <trkpt lat="46.91111" lon="-2.07523">
        <ele>2.2</ele>
        <time>2020-06-04T13:37:44Z</time>
      </trkpt>
      <trkpt lat="46.91112" lon="-2.0753">
        <ele>2.2</ele>
        <time>2020-06-04T13:37:45Z</time>
      </trkpt>
      <trkpt lat="46.91114" lon="-2.07538">
        <ele>2.2</ele>
        <time>2020-06-04T13:37:46Z</time>
      </trkpt>
      <trkpt lat="46.91115" lon="-2.07545">
        <ele>2.2</ele>
        <time>2020-06-04T13:37:47Z</time>
      </trkpt>
      <trkpt lat="46.91116" lon="-2.07553">
        <ele>2.2</ele>
        <time>2020-06-04T13:37:48Z</time>
      </trkpt>
      <trkpt lat="46.91117" lon="-2.0756">
        <ele>2.2</ele>
        <time>2020-06-04T13:37:49Z</time>
      </trkpt>
      <trkpt lat="46.91118" lon="-2.07568">
        <ele>2.2</ele>
        <time>2020-06-04T13:37:50Z</time>
      </trkpt>
      <trkpt lat="46.9112" lon="-2.07575">
        <ele>2.2</ele>
        <time>2020-06-04T13:37:51Z</time>
      </trkpt>
      <trkpt lat="46.91122" lon="-2.07582">
        <ele>2.2</ele>
        <time>2020-06-04T13:37:52Z</time>
      </trkpt>
      <trkpt lat="46.91124" lon="-2.07587">
        <ele>2.2</ele>
        <time>2020-06-04T13:37:53Z</time>
      </trkpt>
      <trkpt lat="46.91126" lon="-2.07592">
        <ele>2.2</ele>
        <time>2020-06-04T13:37:54Z</time>
      </trkpt>
      <trkpt lat="46.91127" lon="-2.07598">
        <ele>2.2</ele>
        <time>2020-06-04T13:37:55Z</time>
      </trkpt>
      <trkpt lat="46.91129" lon="-2.07604">
        <ele>2.2</ele>
        <time>2020-06-04T13:37:56Z</time>
      </trkpt>
      <trkpt lat="46.9113" lon="-2.07609">
        <ele>2.2</ele>
        <time>2020-06-04T13:37:57Z</time>
      </trkpt>
      <trkpt lat="46.91132" lon="-2.07613">
        <ele>2.2</ele>
        <time>2020-06-04T13:37:58Z</time>
      </trkpt>
      <trkpt lat="46.91134" lon="-2.07618">
        <ele>2.2</ele>
        <time>2020-06-04T13:37:59Z</time>
      </trkpt>
      <trkpt lat="46.91136" lon="-2.07623">
        <ele>2.2</ele>
        <time>2020-06-04T13:38:00Z</time>
      </trkpt>
      <trkpt lat="46.91139" lon="-2.07628">
        <ele>2.2</ele>
        <time>2020-06-04T13:38:01Z</time>
      </trkpt>
      <trkpt lat="46.9114" lon="-2.07631">
        <ele>2.2</ele>
        <time>2020-06-04T13:38:02Z</time>
      </trkpt>
      <trkpt lat="46.91142" lon="-2.07636">
        <ele>2.2</ele>
        <time>2020-06-04T13:38:03Z</time>
      </trkpt>
      <trkpt lat="46.91145" lon="-2.0764">
        <ele>2.2</ele>
        <time>2020-06-04T13:38:04Z</time>
      </trkpt>
      <trkpt lat="46.91146" lon="-2.07644">
        <ele>2.2</ele>
        <time>2020-06-04T13:38:05Z</time>
      </trkpt>
      <trkpt lat="46.91148" lon="-2.0765">
        <ele>2.2</ele>
        <time>2020-06-04T13:38:06Z</time>
      </trkpt>
      <trkpt lat="46.91149" lon="-2.07655">
        <ele>2.2</ele>
        <time>2020-06-04T13:38:07Z</time>
      </trkpt>
      <trkpt lat="46.91151" lon="-2.0766">
        <ele>2.2</ele>
        <time>2020-06-04T13:38:08Z</time>
      </trkpt>
      <trkpt lat="46.91153" lon="-2.07666">
        <ele>2.2</ele>
        <time>2020-06-04T13:38:09Z</time>
      </trkpt>
      <trkpt lat="46.91155" lon="-2.07672">
        <ele>2.2</ele>
        <time>2020-06-04T13:38:10Z</time>
      </trkpt>
      <trkpt lat="46.91158" lon="-2.07677">
        <ele>2.2</ele>
        <time>2020-06-04T13:38:11Z</time>
      </trkpt>
      <trkpt lat="46.9116" lon="-2.07683">
        <ele>2.2</ele>
        <time>2020-06-04T13:38:12Z</time>
      </trkpt>
      <trkpt lat="46.91162" lon="-2.07688">
        <ele>2.2</ele>
        <time>2020-06-04T13:38:13Z</time>
      </trkpt>
      <trkpt lat="46.91163" lon="-2.07693">
        <ele>2.3</ele>
        <time>2020-06-04T13:38:14Z</time>
      </trkpt>
      <trkpt lat="46.91165" lon="-2.07699">
        <ele>2.3</ele>
        <time>2020-06-04T13:38:15Z</time>
      </trkpt>
      <trkpt lat="46.91167" lon="-2.07705">
        <ele>2.3</ele>
        <time>2020-06-04T13:38:16Z</time>
      </trkpt>
      <trkpt lat="46.9117" lon="-2.0771">
        <ele>2.3</ele>
        <time>2020-06-04T13:38:17Z</time>
      </trkpt>
      <trkpt lat="46.91173" lon="-2.07716">
        <ele>2.3</ele>
        <time>2020-06-04T13:38:18Z</time>
      </trkpt>
      <trkpt lat="46.91176" lon="-2.07722">
        <ele>2.3</ele>
        <time>2020-06-04T13:38:19Z</time>
      </trkpt>
      <trkpt lat="46.91178" lon="-2.07727">
        <ele>2.3</ele>
        <time>2020-06-04T13:38:20Z</time>
      </trkpt>
      <trkpt lat="46.91181" lon="-2.07732">
        <ele>2.3</ele>
        <time>2020-06-04T13:38:21Z</time>
      </trkpt>
      <trkpt lat="46.91183" lon="-2.07738">
        <ele>2.3</ele>
        <time>2020-06-04T13:38:22Z</time>
      </trkpt>
      <trkpt lat="46.91186" lon="-2.07744">
        <ele>2.3</ele>
        <time>2020-06-04T13:38:23Z</time>
      </trkpt>
      <trkpt lat="46.91189" lon="-2.07749">
        <ele>2.3</ele>
        <time>2020-06-04T13:38:24Z</time>
      </trkpt>
      <trkpt lat="46.91191" lon="-2.07756">
        <ele>2.3</ele>
        <time>2020-06-04T13:38:25Z</time>
      </trkpt>
      <trkpt lat="46.91193" lon="-2.07762">
        <ele>2.3</ele>
        <time>2020-06-04T13:38:26Z</time>
      </trkpt>
      <trkpt lat="46.91196" lon="-2.07767">
        <ele>2.3</ele>
        <time>2020-06-04T13:38:27Z</time>
      </trkpt>
      <trkpt lat="46.91199" lon="-2.07772">
        <ele>2.3</ele>
        <time>2020-06-04T13:38:28Z</time>
      </trkpt>
      <trkpt lat="46.91202" lon="-2.07776">
        <ele>2.2</ele>
        <time>2020-06-04T13:38:29Z</time>
      </trkpt>
      <trkpt lat="46.91205" lon="-2.07781">
        <ele>2.2</ele>
        <time>2020-06-04T13:38:30Z</time>
      </trkpt>
      <trkpt lat="46.91208" lon="-2.07785">
        <ele>2.2</ele>
        <time>2020-06-04T13:38:31Z</time>
      </trkpt>
      <trkpt lat="46.91211" lon="-2.0779">
        <ele>2.2</ele>
        <time>2020-06-04T13:38:32Z</time>
      </trkpt>
      <trkpt lat="46.91215" lon="-2.07795">
        <ele>2.2</ele>
        <time>2020-06-04T13:38:33Z</time>
      </trkpt>
      <trkpt lat="46.91218" lon="-2.07799">
        <ele>2.2</ele>
        <time>2020-06-04T13:38:34Z</time>
      </trkpt>
      <trkpt lat="46.91221" lon="-2.07803">
        <ele>2.2</ele>
        <time>2020-06-04T13:38:35Z</time>
      </trkpt>
      <trkpt lat="46.91225" lon="-2.07807">
        <ele>2.2</ele>
        <time>2020-06-04T13:38:36Z</time>
      </trkpt>
      <trkpt lat="46.91227" lon="-2.07812">
        <ele>2.2</ele>
        <time>2020-06-04T13:38:37Z</time>
      </trkpt>
      <trkpt lat="46.9123" lon="-2.07818">
        <ele>2.1</ele>
        <time>2020-06-04T13:38:38Z</time>
      </trkpt>
      <trkpt lat="46.91234" lon="-2.07822">
        <ele>2.1</ele>
        <time>2020-06-04T13:38:39Z</time>
      </trkpt>
      <trkpt lat="46.91238" lon="-2.07826">
        <ele>2.1</ele>
        <time>2020-06-04T13:38:40Z</time>
      </trkpt>
      <trkpt lat="46.9124" lon="-2.07832">
        <ele>2.1</ele>
        <time>2020-06-04T13:38:41Z</time>
      </trkpt>
      <trkpt lat="46.91243" lon="-2.07839">
        <ele>2.1</ele>
        <time>2020-06-04T13:38:42Z</time>
      </trkpt>
      <trkpt lat="46.91244" lon="-2.07846">
        <ele>2.1</ele>
        <time>2020-06-04T13:38:43Z</time>
      </trkpt>
      <trkpt lat="46.91246" lon="-2.07851">
        <ele>2.1</ele>
        <time>2020-06-04T13:38:44Z</time>
      </trkpt>
      <trkpt lat="46.91247" lon="-2.07857">
        <ele>2.1</ele>
        <time>2020-06-04T13:38:45Z</time>
      </trkpt>
      <trkpt lat="46.91248" lon="-2.07864">
        <ele>2.1</ele>
        <time>2020-06-04T13:38:46Z</time>
      </trkpt>
      <trkpt lat="46.91248" lon="-2.0787">
        <ele>2.1</ele>
        <time>2020-06-04T13:38:47Z</time>
      </trkpt>
      <trkpt lat="46.91248" lon="-2.07876">
        <ele>2.1</ele>
        <time>2020-06-04T13:38:48Z</time>
      </trkpt>
      <trkpt lat="46.91248" lon="-2.07882">
        <ele>2.1</ele>
        <time>2020-06-04T13:38:49Z</time>
      </trkpt>
      <trkpt lat="46.91248" lon="-2.07889">
        <ele>2.1</ele>
        <time>2020-06-04T13:38:50Z</time>
      </trkpt>
      <trkpt lat="46.91248" lon="-2.07896">
        <ele>2.1</ele>
        <time>2020-06-04T13:38:51Z</time>
      </trkpt>
      <trkpt lat="46.91247" lon="-2.07902">
        <ele>2</ele>
        <time>2020-06-04T13:38:52Z</time>
      </trkpt>
      <trkpt lat="46.91247" lon="-2.07909">
        <ele>2</ele>
        <time>2020-06-04T13:38:53Z</time>
      </trkpt>
      <trkpt lat="46.91247" lon="-2.07916">
        <ele>2</ele>
        <time>2020-06-04T13:38:54Z</time>
      </trkpt>
      <trkpt lat="46.91247" lon="-2.07923">
        <ele>2</ele>
        <time>2020-06-04T13:38:55Z</time>
      </trkpt>
      <trkpt lat="46.91246" lon="-2.0793">
        <ele>2</ele>
        <time>2020-06-04T13:38:56Z</time>
      </trkpt>
      <trkpt lat="46.91246" lon="-2.07936">
        <ele>2</ele>
        <time>2020-06-04T13:38:57Z</time>
      </trkpt>
      <trkpt lat="46.91246" lon="-2.07941">
        <ele>2</ele>
        <time>2020-06-04T13:38:58Z</time>
      </trkpt>
      <trkpt lat="46.91246" lon="-2.07947">
        <ele>2</ele>
        <time>2020-06-04T13:38:59Z</time>
      </trkpt>
      <trkpt lat="46.91246" lon="-2.07954">
        <ele>2</ele>
        <time>2020-06-04T13:39:00Z</time>
      </trkpt>
      <trkpt lat="46.91246" lon="-2.07961">
        <ele>2</ele>
        <time>2020-06-04T13:39:01Z</time>
      </trkpt>
      <trkpt lat="46.91246" lon="-2.07966">
        <ele>1.9</ele>
        <time>2020-06-04T13:39:02Z</time>
      </trkpt>
      <trkpt lat="46.91245" lon="-2.07973">
        <ele>1.9</ele>
        <time>2020-06-04T13:39:03Z</time>
      </trkpt>
      <trkpt lat="46.91245" lon="-2.07979">
        <ele>1.9</ele>
        <time>2020-06-04T13:39:04Z</time>
      </trkpt>
      <trkpt lat="46.91245" lon="-2.07985">
        <ele>1.9</ele>
        <time>2020-06-04T13:39:05Z</time>
      </trkpt>
      <trkpt lat="46.91246" lon="-2.07991">
        <ele>1.9</ele>
        <time>2020-06-04T13:39:06Z</time>
      </trkpt>
      <trkpt lat="46.91246" lon="-2.07997">
        <ele>1.9</ele>
        <time>2020-06-04T13:39:07Z</time>
      </trkpt>
      <trkpt lat="46.91246" lon="-2.08003">
        <ele>1.9</ele>
        <time>2020-06-04T13:39:08Z</time>
      </trkpt>
      <trkpt lat="46.91246" lon="-2.08009">
        <ele>1.9</ele>
        <time>2020-06-04T13:39:09Z</time>
      </trkpt>
      <trkpt lat="46.91245" lon="-2.08016">
        <ele>1.9</ele>
        <time>2020-06-04T13:39:10Z</time>
      </trkpt>
      <trkpt lat="46.91245" lon="-2.08021">
        <ele>2</ele>
        <time>2020-06-04T13:39:11Z</time>
      </trkpt>
      <trkpt lat="46.91245" lon="-2.08026">
        <ele>2</ele>
        <time>2020-06-04T13:39:12Z</time>
      </trkpt>
      <trkpt lat="46.91244" lon="-2.08031">
        <ele>2</ele>
        <time>2020-06-04T13:39:13Z</time>
      </trkpt>
      <trkpt lat="46.91244" lon="-2.08036">
        <ele>2</ele>
        <time>2020-06-04T13:39:14Z</time>
      </trkpt>
      <trkpt lat="46.91243" lon="-2.08041">
        <ele>2</ele>
        <time>2020-06-04T13:39:15Z</time>
      </trkpt>
      <trkpt lat="46.91243" lon="-2.08046">
        <ele>2</ele>
        <time>2020-06-04T13:39:16Z</time>
      </trkpt>
      <trkpt lat="46.91242" lon="-2.08051">
        <ele>2</ele>
        <time>2020-06-04T13:39:17Z</time>
      </trkpt>
      <trkpt lat="46.91242" lon="-2.08056">
        <ele>1.9</ele>
        <time>2020-06-04T13:39:18Z</time>
      </trkpt>
      <trkpt lat="46.91241" lon="-2.08061">
        <ele>1.9</ele>
        <time>2020-06-04T13:39:19Z</time>
      </trkpt>
      <trkpt lat="46.91241" lon="-2.08067">
        <ele>1.9</ele>
        <time>2020-06-04T13:39:20Z</time>
      </trkpt>
      <trkpt lat="46.91241" lon="-2.08072">
        <ele>1.9</ele>
        <time>2020-06-04T13:39:21Z</time>
      </trkpt>
      <trkpt lat="46.9124" lon="-2.08077">
        <ele>1.9</ele>
        <time>2020-06-04T13:39:22Z</time>
      </trkpt>
      <trkpt lat="46.9124" lon="-2.08081">
        <ele>1.9</ele>
        <time>2020-06-04T13:39:23Z</time>
      </trkpt>
      <trkpt lat="46.9124" lon="-2.08086">
        <ele>1.9</ele>
        <time>2020-06-04T13:39:24Z</time>
      </trkpt>
      <trkpt lat="46.9124" lon="-2.0809">
        <ele>1.9</ele>
        <time>2020-06-04T13:39:25Z</time>
      </trkpt>
      <trkpt lat="46.9124" lon="-2.08095">
        <ele>1.9</ele>
        <time>2020-06-04T13:39:26Z</time>
      </trkpt>
      <trkpt lat="46.9124" lon="-2.08096">
        <ele>1.9</ele>
        <time>2020-06-04T13:39:27Z</time>
      </trkpt>
      <trkpt lat="46.9124" lon="-2.08098">
        <ele>1.9</ele>
        <time>2020-06-04T13:39:28Z</time>
      </trkpt>
      <trkpt lat="46.91241" lon="-2.08099">
        <ele>1.9</ele>
        <time>2020-06-04T13:39:29Z</time>
      </trkpt>
      <trkpt lat="46.91241" lon="-2.08099">
        <ele>1.9</ele>
        <time>2020-06-04T13:39:30Z</time>
      </trkpt>
      <trkpt lat="46.91242" lon="-2.081">
        <ele>1.9</ele>
        <time>2020-06-04T13:39:31Z</time>
      </trkpt>
      <trkpt lat="46.91242" lon="-2.081">
        <ele>1.9</ele>
        <time>2020-06-04T13:39:32Z</time>
      </trkpt>
      <trkpt lat="46.91242" lon="-2.08101">
        <ele>1.9</ele>
        <time>2020-06-04T13:39:33Z</time>
      </trkpt>
      <trkpt lat="46.91243" lon="-2.08101">
        <ele>1.9</ele>
        <time>2020-06-04T13:39:34Z</time>
      </trkpt>
      <trkpt lat="46.91243" lon="-2.08101">
        <ele>1.9</ele>
        <time>2020-06-04T13:39:35Z</time>
      </trkpt>
      <trkpt lat="46.91244" lon="-2.08102">
        <ele>1.9</ele>
        <time>2020-06-04T13:39:36Z</time>
      </trkpt>
      <trkpt lat="46.91244" lon="-2.08102">
        <ele>1.9</ele>
        <time>2020-06-04T13:39:37Z</time>
      </trkpt>
      <trkpt lat="46.91245" lon="-2.08103">
        <ele>1.9</ele>
        <time>2020-06-04T13:39:38Z</time>
      </trkpt>
      <trkpt lat="46.91245" lon="-2.08103">
        <ele>1.9</ele>
        <time>2020-06-04T13:39:39Z</time>
      </trkpt>
      <trkpt lat="46.91246" lon="-2.08104">
        <ele>1.9</ele>
        <time>2020-06-04T13:39:40Z</time>
      </trkpt>
      <trkpt lat="46.91246" lon="-2.08104">
        <ele>1.9</ele>
        <time>2020-06-04T13:45:09Z</time>
      </trkpt>
      <trkpt lat="46.91247" lon="-2.08105">
        <ele>1.9</ele>
        <time>2020-06-04T13:45:10Z</time>
      </trkpt>
      <trkpt lat="46.9125" lon="-2.08106">
        <ele>1.9</ele>
        <time>2020-06-04T13:45:11Z</time>
      </trkpt>
      <trkpt lat="46.91254" lon="-2.08106">
        <ele>1.9</ele>
        <time>2020-06-04T13:45:12Z</time>
      </trkpt>
      <trkpt lat="46.91257" lon="-2.08105">
        <ele>1.9</ele>
        <time>2020-06-04T13:45:13Z</time>
      </trkpt>
      <trkpt lat="46.91261" lon="-2.08106">
        <ele>1.9</ele>
        <time>2020-06-04T13:45:14Z</time>
      </trkpt>
      <trkpt lat="46.91266" lon="-2.08106">
        <ele>1.9</ele>
        <time>2020-06-04T13:45:15Z</time>
      </trkpt>
      <trkpt lat="46.9127" lon="-2.08106">
        <ele>1.9</ele>
        <time>2020-06-04T13:45:16Z</time>
      </trkpt>
      <trkpt lat="46.91274" lon="-2.08107">
        <ele>1.9</ele>
        <time>2020-06-04T13:45:17Z</time>
      </trkpt>
      <trkpt lat="46.91278" lon="-2.08108">
        <ele>1.9</ele>
        <time>2020-06-04T13:45:18Z</time>
      </trkpt>
      <trkpt lat="46.91282" lon="-2.08109">
        <ele>1.9</ele>
        <time>2020-06-04T13:45:19Z</time>
      </trkpt>
      <trkpt lat="46.91287" lon="-2.0811">
        <ele>1.9</ele>
        <time>2020-06-04T13:45:20Z</time>
      </trkpt>
      <trkpt lat="46.91291" lon="-2.0811">
        <ele>1.9</ele>
        <time>2020-06-04T13:45:21Z</time>
      </trkpt>
      <trkpt lat="46.91296" lon="-2.08111">
        <ele>1.9</ele>
        <time>2020-06-04T13:45:22Z</time>
      </trkpt>
      <trkpt lat="46.913" lon="-2.08111">
        <ele>1.9</ele>
        <time>2020-06-04T13:45:23Z</time>
      </trkpt>
      <trkpt lat="46.91304" lon="-2.08112">
        <ele>1.9</ele>
        <time>2020-06-04T13:45:24Z</time>
      </trkpt>
      <trkpt lat="46.91309" lon="-2.08112">
        <ele>1.9</ele>
        <time>2020-06-04T13:45:25Z</time>
      </trkpt>
      <trkpt lat="46.91312" lon="-2.08113">
        <ele>1.9</ele>
        <time>2020-06-04T13:45:26Z</time>
      </trkpt>
      <trkpt lat="46.91317" lon="-2.08112">
        <ele>1.9</ele>
        <time>2020-06-04T13:45:27Z</time>
      </trkpt>
      <trkpt lat="46.91322" lon="-2.0811">
        <ele>1.9</ele>
        <time>2020-06-04T13:45:28Z</time>
      </trkpt>
      <trkpt lat="46.91326" lon="-2.08108">
        <ele>1.9</ele>
        <time>2020-06-04T13:45:29Z</time>
      </trkpt>
      <trkpt lat="46.9133" lon="-2.08105">
        <ele>1.9</ele>
        <time>2020-06-04T13:45:30Z</time>
      </trkpt>
      <trkpt lat="46.91333" lon="-2.08098">
        <ele>1.9</ele>
        <time>2020-06-04T13:45:31Z</time>
      </trkpt>
      <trkpt lat="46.91335" lon="-2.08092">
        <ele>1.9</ele>
        <time>2020-06-04T13:45:32Z</time>
      </trkpt>
      <trkpt lat="46.91337" lon="-2.08084">
        <ele>1.9</ele>
        <time>2020-06-04T13:45:33Z</time>
      </trkpt>
      <trkpt lat="46.91339" lon="-2.08078">
        <ele>1.9</ele>
        <time>2020-06-04T13:45:34Z</time>
      </trkpt>
      <trkpt lat="46.91339" lon="-2.08072">
        <ele>1.9</ele>
        <time>2020-06-04T13:45:35Z</time>
      </trkpt>
      <trkpt lat="46.9134" lon="-2.08066">
        <ele>1.9</ele>
        <time>2020-06-04T13:45:36Z</time>
      </trkpt>
      <trkpt lat="46.91342" lon="-2.0806">
        <ele>2</ele>
        <time>2020-06-04T13:45:37Z</time>
      </trkpt>
      <trkpt lat="46.91343" lon="-2.08054">
        <ele>2</ele>
        <time>2020-06-04T13:45:38Z</time>
      </trkpt>
      <trkpt lat="46.91344" lon="-2.08049">
        <ele>2</ele>
        <time>2020-06-04T13:45:39Z</time>
      </trkpt>
      <trkpt lat="46.91346" lon="-2.08044">
        <ele>2</ele>
        <time>2020-06-04T13:45:40Z</time>
      </trkpt>
      <trkpt lat="46.91348" lon="-2.0804">
        <ele>2</ele>
        <time>2020-06-04T13:45:41Z</time>
      </trkpt>
      <trkpt lat="46.91352" lon="-2.08038">
        <ele>2</ele>
        <time>2020-06-04T13:45:42Z</time>
      </trkpt>
      <trkpt lat="46.91357" lon="-2.08036">
        <ele>2.1</ele>
        <time>2020-06-04T13:45:43Z</time>
      </trkpt>
      <trkpt lat="46.91362" lon="-2.08034">
        <ele>2.1</ele>
        <time>2020-06-04T13:45:44Z</time>
      </trkpt>
      <trkpt lat="46.91367" lon="-2.08034">
        <ele>2.1</ele>
        <time>2020-06-04T13:45:45Z</time>
      </trkpt>
      <trkpt lat="46.91372" lon="-2.08034">
        <ele>2.1</ele>
        <time>2020-06-04T13:45:46Z</time>
      </trkpt>
      <trkpt lat="46.91377" lon="-2.08034">
        <ele>2.1</ele>
        <time>2020-06-04T13:45:47Z</time>
      </trkpt>
      <trkpt lat="46.91381" lon="-2.08035">
        <ele>2.1</ele>
        <time>2020-06-04T13:45:48Z</time>
      </trkpt>
      <trkpt lat="46.91385" lon="-2.08037">
        <ele>2.1</ele>
        <time>2020-06-04T13:45:49Z</time>
      </trkpt>
      <trkpt lat="46.91389" lon="-2.0804">
        <ele>2.2</ele>
        <time>2020-06-04T13:45:50Z</time>
      </trkpt>
      <trkpt lat="46.91394" lon="-2.08043">
        <ele>2.2</ele>
        <time>2020-06-04T13:45:51Z</time>
      </trkpt>
      <trkpt lat="46.91397" lon="-2.08045">
        <ele>2.2</ele>
        <time>2020-06-04T13:45:52Z</time>
      </trkpt>
      <trkpt lat="46.91401" lon="-2.08047">
        <ele>2.2</ele>
        <time>2020-06-04T13:45:53Z</time>
      </trkpt>
      <trkpt lat="46.91406" lon="-2.0805">
        <ele>2.2</ele>
        <time>2020-06-04T13:45:54Z</time>
      </trkpt>
      <trkpt lat="46.91408" lon="-2.08056">
        <ele>2.2</ele>
        <time>2020-06-04T13:45:55Z</time>
      </trkpt>
      <trkpt lat="46.91413" lon="-2.08058">
        <ele>2.2</ele>
        <time>2020-06-04T13:45:56Z</time>
      </trkpt>
      <trkpt lat="46.91417" lon="-2.08061">
        <ele>2.2</ele>
        <time>2020-06-04T13:45:57Z</time>
      </trkpt>
      <trkpt lat="46.91421" lon="-2.08063">
        <ele>2.2</ele>
        <time>2020-06-04T13:45:58Z</time>
      </trkpt>
      <trkpt lat="46.91426" lon="-2.08066">
        <ele>2.2</ele>
        <time>2020-06-04T13:45:59Z</time>
      </trkpt>
      <trkpt lat="46.9143" lon="-2.08068">
        <ele>2.2</ele>
        <time>2020-06-04T13:46:00Z</time>
      </trkpt>
      <trkpt lat="46.91433" lon="-2.0807">
        <ele>2.2</ele>
        <time>2020-06-04T13:46:01Z</time>
      </trkpt>
      <trkpt lat="46.91437" lon="-2.08071">
        <ele>2.2</ele>
        <time>2020-06-04T13:46:02Z</time>
      </trkpt>
      <trkpt lat="46.91441" lon="-2.08073">
        <ele>2.2</ele>
        <time>2020-06-04T13:46:03Z</time>
      </trkpt>
      <trkpt lat="46.91444" lon="-2.08074">
        <ele>2.2</ele>
        <time>2020-06-04T13:46:04Z</time>
      </trkpt>
      <trkpt lat="46.91448" lon="-2.08074">
        <ele>2.2</ele>
        <time>2020-06-04T13:46:05Z</time>
      </trkpt>
      <trkpt lat="46.91452" lon="-2.08075">
        <ele>2.3</ele>
        <time>2020-06-04T13:46:06Z</time>
      </trkpt>
      <trkpt lat="46.91454" lon="-2.08075">
        <ele>2.3</ele>
        <time>2020-06-04T13:46:07Z</time>
      </trkpt>
      <trkpt lat="46.91457" lon="-2.08075">
        <ele>2.3</ele>
        <time>2020-06-04T13:46:08Z</time>
      </trkpt>
      <trkpt lat="46.9146" lon="-2.08075">
        <ele>2.3</ele>
        <time>2020-06-04T13:46:09Z</time>
      </trkpt>
      <trkpt lat="46.91463" lon="-2.08075">
        <ele>2.3</ele>
        <time>2020-06-04T13:46:10Z</time>
      </trkpt>
      <trkpt lat="46.91467" lon="-2.08078">
        <ele>2.3</ele>
        <time>2020-06-04T13:46:11Z</time>
      </trkpt>
      <trkpt lat="46.91468" lon="-2.08079">
        <ele>2.3</ele>
        <time>2020-06-04T13:46:12Z</time>
      </trkpt>
      <trkpt lat="46.9147" lon="-2.08083">
        <ele>2.3</ele>
        <time>2020-06-04T13:46:13Z</time>
      </trkpt>
      <trkpt lat="46.9147" lon="-2.08087">
        <ele>2.3</ele>
        <time>2020-06-04T13:46:14Z</time>
      </trkpt>
      <trkpt lat="46.91471" lon="-2.08092">
        <ele>2.3</ele>
        <time>2020-06-04T13:46:15Z</time>
      </trkpt>
      <trkpt lat="46.91471" lon="-2.08094">
        <ele>2.3</ele>
        <time>2020-06-04T13:46:16Z</time>
      </trkpt>
      <trkpt lat="46.91471" lon="-2.08099">
        <ele>2.3</ele>
        <time>2020-06-04T13:46:17Z</time>
      </trkpt>
      <trkpt lat="46.91471" lon="-2.08103">
        <ele>2.3</ele>
        <time>2020-06-04T13:46:18Z</time>
      </trkpt>
      <trkpt lat="46.91471" lon="-2.08107">
        <ele>2.3</ele>
        <time>2020-06-04T13:46:19Z</time>
      </trkpt>
      <trkpt lat="46.91471" lon="-2.08113">
        <ele>2.3</ele>
        <time>2020-06-04T13:46:20Z</time>
      </trkpt>
      <trkpt lat="46.91472" lon="-2.08117">
        <ele>2.3</ele>
        <time>2020-06-04T13:46:21Z</time>
      </trkpt>
      <trkpt lat="46.91473" lon="-2.08122">
        <ele>2.3</ele>
        <time>2020-06-04T13:46:22Z</time>
      </trkpt>
      <trkpt lat="46.91474" lon="-2.08127">
        <ele>2.3</ele>
        <time>2020-06-04T13:46:23Z</time>
      </trkpt>
      <trkpt lat="46.91475" lon="-2.08132">
        <ele>2.3</ele>
        <time>2020-06-04T13:46:24Z</time>
      </trkpt>
      <trkpt lat="46.91477" lon="-2.08138">
        <ele>2.3</ele>
        <time>2020-06-04T13:46:25Z</time>
      </trkpt>
      <trkpt lat="46.91477" lon="-2.08144">
        <ele>2.3</ele>
        <time>2020-06-04T13:46:26Z</time>
      </trkpt>
      <trkpt lat="46.91479" lon="-2.08149">
        <ele>2.3</ele>
        <time>2020-06-04T13:46:27Z</time>
      </trkpt>
      <trkpt lat="46.9148" lon="-2.08155">
        <ele>2.3</ele>
        <time>2020-06-04T13:46:28Z</time>
      </trkpt>
      <trkpt lat="46.91482" lon="-2.0816">
        <ele>2.3</ele>
        <time>2020-06-04T13:46:29Z</time>
      </trkpt>
      <trkpt lat="46.91483" lon="-2.08166">
        <ele>2.3</ele>
        <time>2020-06-04T13:46:30Z</time>
      </trkpt>
      <trkpt lat="46.91483" lon="-2.08168">
        <ele>2.3</ele>
        <time>2020-06-04T13:46:31Z</time>
      </trkpt>
      <trkpt lat="46.91484" lon="-2.08172">
        <ele>2.3</ele>
        <time>2020-06-04T13:46:32Z</time>
      </trkpt>
      <trkpt lat="46.91484" lon="-2.08179">
        <ele>2.3</ele>
        <time>2020-06-04T13:46:33Z</time>
      </trkpt>
      <trkpt lat="46.91484" lon="-2.08183">
        <ele>2.3</ele>
        <time>2020-06-04T13:46:34Z</time>
      </trkpt>
      <trkpt lat="46.91484" lon="-2.08187">
        <ele>2.3</ele>
        <time>2020-06-04T13:46:35Z</time>
      </trkpt>
      <trkpt lat="46.91484" lon="-2.08191">
        <ele>2.3</ele>
        <time>2020-06-04T13:46:36Z</time>
      </trkpt>
      <trkpt lat="46.91484" lon="-2.08196">
        <ele>2.3</ele>
        <time>2020-06-04T13:46:37Z</time>
      </trkpt>
      <trkpt lat="46.91483" lon="-2.082">
        <ele>2.3</ele>
        <time>2020-06-04T13:46:38Z</time>
      </trkpt>
      <trkpt lat="46.91483" lon="-2.08206">
        <ele>2.3</ele>
        <time>2020-06-04T13:46:39Z</time>
      </trkpt>
      <trkpt lat="46.91483" lon="-2.08211">
        <ele>2.3</ele>
        <time>2020-06-04T13:46:40Z</time>
      </trkpt>
      <trkpt lat="46.91483" lon="-2.08217">
        <ele>2.3</ele>
        <time>2020-06-04T13:46:41Z</time>
      </trkpt>
      <trkpt lat="46.91483" lon="-2.08223">
        <ele>2.3</ele>
        <time>2020-06-04T13:46:42Z</time>
      </trkpt>
      <trkpt lat="46.91483" lon="-2.08229">
        <ele>2.3</ele>
        <time>2020-06-04T13:46:43Z</time>
      </trkpt>
      <trkpt lat="46.91483" lon="-2.08234">
        <ele>2.3</ele>
        <time>2020-06-04T13:46:44Z</time>
      </trkpt>
      <trkpt lat="46.91483" lon="-2.08239">
        <ele>2.3</ele>
        <time>2020-06-04T13:46:45Z</time>
      </trkpt>
      <trkpt lat="46.91483" lon="-2.08245">
        <ele>2.3</ele>
        <time>2020-06-04T13:46:46Z</time>
      </trkpt>
      <trkpt lat="46.91484" lon="-2.08251">
        <ele>2.3</ele>
        <time>2020-06-04T13:46:47Z</time>
      </trkpt>
      <trkpt lat="46.91485" lon="-2.08257">
        <ele>2.3</ele>
        <time>2020-06-04T13:46:48Z</time>
      </trkpt>
      <trkpt lat="46.91486" lon="-2.08264">
        <ele>2.3</ele>
        <time>2020-06-04T13:46:49Z</time>
      </trkpt>
      <trkpt lat="46.91486" lon="-2.0827">
        <ele>2.3</ele>
        <time>2020-06-04T13:46:50Z</time>
      </trkpt>
      <trkpt lat="46.91486" lon="-2.08275">
        <ele>2.3</ele>
        <time>2020-06-04T13:46:51Z</time>
      </trkpt>
      <trkpt lat="46.91487" lon="-2.0828">
        <ele>2.3</ele>
        <time>2020-06-04T13:46:52Z</time>
      </trkpt>
      <trkpt lat="46.91488" lon="-2.08285">
        <ele>2.3</ele>
        <time>2020-06-04T13:46:53Z</time>
      </trkpt>
      <trkpt lat="46.9149" lon="-2.08291">
        <ele>2.3</ele>
        <time>2020-06-04T13:46:54Z</time>
      </trkpt>
      <trkpt lat="46.91493" lon="-2.08293">
        <ele>2.3</ele>
        <time>2020-06-04T13:46:55Z</time>
      </trkpt>
      <trkpt lat="46.91497" lon="-2.08295">
        <ele>2.3</ele>
        <time>2020-06-04T13:46:56Z</time>
      </trkpt>
      <trkpt lat="46.91502" lon="-2.08296">
        <ele>2.3</ele>
        <time>2020-06-04T13:46:57Z</time>
      </trkpt>
      <trkpt lat="46.91507" lon="-2.08295">
        <ele>2.3</ele>
        <time>2020-06-04T13:46:58Z</time>
      </trkpt>
      <trkpt lat="46.91511" lon="-2.08294">
        <ele>2.3</ele>
        <time>2020-06-04T13:46:59Z</time>
      </trkpt>
      <trkpt lat="46.91515" lon="-2.08293">
        <ele>2.3</ele>
        <time>2020-06-04T13:47:00Z</time>
      </trkpt>
      <trkpt lat="46.91519" lon="-2.08291">
        <ele>2.3</ele>
        <time>2020-06-04T13:47:01Z</time>
      </trkpt>
      <trkpt lat="46.91523" lon="-2.0829">
        <ele>2.3</ele>
        <time>2020-06-04T13:47:02Z</time>
      </trkpt>
      <trkpt lat="46.91526" lon="-2.08287">
        <ele>2.3</ele>
        <time>2020-06-04T13:47:03Z</time>
      </trkpt>
      <trkpt lat="46.9153" lon="-2.08283">
        <ele>2.3</ele>
        <time>2020-06-04T13:47:04Z</time>
      </trkpt>
      <trkpt lat="46.91534" lon="-2.08279">
        <ele>2.3</ele>
        <time>2020-06-04T13:47:05Z</time>
      </trkpt>
      <trkpt lat="46.91537" lon="-2.08275">
        <ele>2.3</ele>
        <time>2020-06-04T13:47:06Z</time>
      </trkpt>
      <trkpt lat="46.9154" lon="-2.08271">
        <ele>2.3</ele>
        <time>2020-06-04T13:47:07Z</time>
      </trkpt>
      <trkpt lat="46.91543" lon="-2.08267">
        <ele>2.3</ele>
        <time>2020-06-04T13:47:08Z</time>
      </trkpt>
      <trkpt lat="46.91545" lon="-2.08264">
        <ele>2.4</ele>
        <time>2020-06-04T13:47:09Z</time>
      </trkpt>
      <trkpt lat="46.91548" lon="-2.08261">
        <ele>2.4</ele>
        <time>2020-06-04T13:47:10Z</time>
      </trkpt>
      <trkpt lat="46.9155" lon="-2.08258">
        <ele>2.4</ele>
        <time>2020-06-04T13:47:11Z</time>
      </trkpt>
      <trkpt lat="46.91553" lon="-2.08254">
        <ele>2.4</ele>
        <time>2020-06-04T13:47:12Z</time>
      </trkpt>
      <trkpt lat="46.91556" lon="-2.0825">
        <ele>2.4</ele>
        <time>2020-06-04T13:47:13Z</time>
      </trkpt>
      <trkpt lat="46.91559" lon="-2.08246">
        <ele>2.4</ele>
        <time>2020-06-04T13:47:14Z</time>
      </trkpt>
      <trkpt lat="46.91562" lon="-2.08242">
        <ele>2.4</ele>
        <time>2020-06-04T13:47:15Z</time>
      </trkpt>
      <trkpt lat="46.91565" lon="-2.08239">
        <ele>2.4</ele>
        <time>2020-06-04T13:47:16Z</time>
      </trkpt>
      <trkpt lat="46.91568" lon="-2.08234">
        <ele>2.4</ele>
        <time>2020-06-04T13:47:17Z</time>
      </trkpt>
      <trkpt lat="46.91572" lon="-2.08229">
        <ele>2.5</ele>
        <time>2020-06-04T13:47:18Z</time>
      </trkpt>
      <trkpt lat="46.91575" lon="-2.08225">
        <ele>2.5</ele>
        <time>2020-06-04T13:47:19Z</time>
      </trkpt>
      <trkpt lat="46.91578" lon="-2.08221">
        <ele>2.5</ele>
        <time>2020-06-04T13:47:20Z</time>
      </trkpt>
      <trkpt lat="46.91583" lon="-2.08218">
        <ele>2.5</ele>
        <time>2020-06-04T13:47:21Z</time>
      </trkpt>
      <trkpt lat="46.91589" lon="-2.08217">
        <ele>2.5</ele>
        <time>2020-06-04T13:47:22Z</time>
      </trkpt>
      <trkpt lat="46.91595" lon="-2.08219">
        <ele>2.5</ele>
        <time>2020-06-04T13:47:23Z</time>
      </trkpt>
      <trkpt lat="46.91598" lon="-2.08222">
        <ele>2.5</ele>
        <time>2020-06-04T13:47:24Z</time>
      </trkpt>
      <trkpt lat="46.91602" lon="-2.08226">
        <ele>2.5</ele>
        <time>2020-06-04T13:47:25Z</time>
      </trkpt>
      <trkpt lat="46.91605" lon="-2.08231">
        <ele>2.5</ele>
        <time>2020-06-04T13:47:26Z</time>
      </trkpt>
      <trkpt lat="46.91607" lon="-2.08236">
        <ele>2.5</ele>
        <time>2020-06-04T13:47:27Z</time>
      </trkpt>
      <trkpt lat="46.9161" lon="-2.08241">
        <ele>2.5</ele>
        <time>2020-06-04T13:47:28Z</time>
      </trkpt>
      <trkpt lat="46.91612" lon="-2.08247">
        <ele>2.5</ele>
        <time>2020-06-04T13:47:29Z</time>
      </trkpt>
      <trkpt lat="46.91614" lon="-2.08253">
        <ele>2.5</ele>
        <time>2020-06-04T13:47:30Z</time>
      </trkpt>
      <trkpt lat="46.91616" lon="-2.08259">
        <ele>2.5</ele>
        <time>2020-06-04T13:47:31Z</time>
      </trkpt>
      <trkpt lat="46.91617" lon="-2.08265">
        <ele>2.5</ele>
        <time>2020-06-04T13:47:32Z</time>
      </trkpt>
      <trkpt lat="46.91619" lon="-2.0827">
        <ele>2.5</ele>
        <time>2020-06-04T13:47:33Z</time>
      </trkpt>
      <trkpt lat="46.91621" lon="-2.08276">
        <ele>2.5</ele>
        <time>2020-06-04T13:47:34Z</time>
      </trkpt>
      <trkpt lat="46.91622" lon="-2.08282">
        <ele>2.5</ele>
        <time>2020-06-04T13:47:35Z</time>
      </trkpt>
      <trkpt lat="46.91623" lon="-2.08287">
        <ele>2.5</ele>
        <time>2020-06-04T13:47:36Z</time>
      </trkpt>
      <trkpt lat="46.91625" lon="-2.08293">
        <ele>2.4</ele>
        <time>2020-06-04T13:47:37Z</time>
      </trkpt>
      <trkpt lat="46.91626" lon="-2.08298">
        <ele>2.4</ele>
        <time>2020-06-04T13:47:38Z</time>
      </trkpt>
      <trkpt lat="46.91627" lon="-2.08303">
        <ele>2.4</ele>
        <time>2020-06-04T13:47:39Z</time>
      </trkpt>
      <trkpt lat="46.91628" lon="-2.08307">
        <ele>2.4</ele>
        <time>2020-06-04T13:47:40Z</time>
      </trkpt>
      <trkpt lat="46.9163" lon="-2.08312">
        <ele>2.4</ele>
        <time>2020-06-04T13:47:41Z</time>
      </trkpt>
      <trkpt lat="46.91631" lon="-2.08318">
        <ele>2.4</ele>
        <time>2020-06-04T13:47:42Z</time>
      </trkpt>
      <trkpt lat="46.91632" lon="-2.08323">
        <ele>2.4</ele>
        <time>2020-06-04T13:47:43Z</time>
      </trkpt>
      <trkpt lat="46.91634" lon="-2.08328">
        <ele>2.4</ele>
        <time>2020-06-04T13:47:44Z</time>
      </trkpt>
      <trkpt lat="46.91636" lon="-2.08332">
        <ele>2.4</ele>
        <time>2020-06-04T13:47:45Z</time>
      </trkpt>
      <trkpt lat="46.9164" lon="-2.08333">
        <ele>2.4</ele>
        <time>2020-06-04T13:47:46Z</time>
      </trkpt>
      <trkpt lat="46.91644" lon="-2.08335">
        <ele>2.4</ele>
        <time>2020-06-04T13:47:47Z</time>
      </trkpt>
      <trkpt lat="46.91647" lon="-2.08335">
        <ele>2.4</ele>
        <time>2020-06-04T13:47:48Z</time>
      </trkpt>
      <trkpt lat="46.91651" lon="-2.08334">
        <ele>2.4</ele>
        <time>2020-06-04T13:47:49Z</time>
      </trkpt>
      <trkpt lat="46.91655" lon="-2.08334">
        <ele>2.4</ele>
        <time>2020-06-04T13:47:50Z</time>
      </trkpt>
      <trkpt lat="46.91659" lon="-2.08335">
        <ele>2.4</ele>
        <time>2020-06-04T13:47:51Z</time>
      </trkpt>
      <trkpt lat="46.91664" lon="-2.08335">
        <ele>2.4</ele>
        <time>2020-06-04T13:47:52Z</time>
      </trkpt>
      <trkpt lat="46.91668" lon="-2.08334">
        <ele>2.4</ele>
        <time>2020-06-04T13:47:53Z</time>
      </trkpt>
      <trkpt lat="46.91672" lon="-2.08333">
        <ele>2.5</ele>
        <time>2020-06-04T13:47:54Z</time>
      </trkpt>
      <trkpt lat="46.91676" lon="-2.0833">
        <ele>2.5</ele>
        <time>2020-06-04T13:47:55Z</time>
      </trkpt>
      <trkpt lat="46.9168" lon="-2.08328">
        <ele>2.5</ele>
        <time>2020-06-04T13:47:56Z</time>
      </trkpt>
      <trkpt lat="46.91684" lon="-2.08326">
        <ele>2.5</ele>
        <time>2020-06-04T13:47:57Z</time>
      </trkpt>
      <trkpt lat="46.91688" lon="-2.08324">
        <ele>2.5</ele>
        <time>2020-06-04T13:47:58Z</time>
      </trkpt>
      <trkpt lat="46.91692" lon="-2.08322">
        <ele>2.5</ele>
        <time>2020-06-04T13:47:59Z</time>
      </trkpt>
      <trkpt lat="46.91695" lon="-2.08318">
        <ele>2.5</ele>
        <time>2020-06-04T13:48:00Z</time>
      </trkpt>
      <trkpt lat="46.91699" lon="-2.08316">
        <ele>2.5</ele>
        <time>2020-06-04T13:48:01Z</time>
      </trkpt>
      <trkpt lat="46.91703" lon="-2.08315">
        <ele>2.5</ele>
        <time>2020-06-04T13:48:02Z</time>
      </trkpt>
      <trkpt lat="46.91707" lon="-2.08312">
        <ele>2.5</ele>
        <time>2020-06-04T13:48:03Z</time>
      </trkpt>
      <trkpt lat="46.91711" lon="-2.08309">
        <ele>2.5</ele>
        <time>2020-06-04T13:48:04Z</time>
      </trkpt>
      <trkpt lat="46.91715" lon="-2.08306">
        <ele>2.5</ele>
        <time>2020-06-04T13:48:05Z</time>
      </trkpt>
      <trkpt lat="46.91719" lon="-2.08304">
        <ele>2.5</ele>
        <time>2020-06-04T13:48:06Z</time>
      </trkpt>
      <trkpt lat="46.91722" lon="-2.08301">
        <ele>2.5</ele>
        <time>2020-06-04T13:48:07Z</time>
      </trkpt>
      <trkpt lat="46.91726" lon="-2.08299">
        <ele>2.5</ele>
        <time>2020-06-04T13:48:08Z</time>
      </trkpt>
      <trkpt lat="46.9173" lon="-2.08297">
        <ele>2.5</ele>
        <time>2020-06-04T13:48:09Z</time>
      </trkpt>
      <trkpt lat="46.91734" lon="-2.08295">
        <ele>2.5</ele>
        <time>2020-06-04T13:48:10Z</time>
      </trkpt>
      <trkpt lat="46.91738" lon="-2.08293">
        <ele>2.5</ele>
        <time>2020-06-04T13:48:11Z</time>
      </trkpt>
      <trkpt lat="46.91742" lon="-2.0829">
        <ele>2.5</ele>
        <time>2020-06-04T13:48:12Z</time>
      </trkpt>
      <trkpt lat="46.91747" lon="-2.08288">
        <ele>2.5</ele>
        <time>2020-06-04T13:48:13Z</time>
      </trkpt>
      <trkpt lat="46.9175" lon="-2.08287">
        <ele>2.5</ele>
        <time>2020-06-04T13:48:14Z</time>
      </trkpt>
      <trkpt lat="46.91754" lon="-2.08285">
        <ele>2.4</ele>
        <time>2020-06-04T13:48:15Z</time>
      </trkpt>
      <trkpt lat="46.91759" lon="-2.08284">
        <ele>2.4</ele>
        <time>2020-06-04T13:48:16Z</time>
      </trkpt>
      <trkpt lat="46.91763" lon="-2.08282">
        <ele>2.3</ele>
        <time>2020-06-04T13:48:17Z</time>
      </trkpt>
      <trkpt lat="46.91767" lon="-2.08279">
        <ele>2.3</ele>
        <time>2020-06-04T13:48:18Z</time>
      </trkpt>
      <trkpt lat="46.9177" lon="-2.08276">
        <ele>2.3</ele>
        <time>2020-06-04T13:48:19Z</time>
      </trkpt>
      <trkpt lat="46.91773" lon="-2.08274">
        <ele>2.2</ele>
        <time>2020-06-04T13:48:20Z</time>
      </trkpt>
      <trkpt lat="46.91777" lon="-2.08271">
        <ele>2.2</ele>
        <time>2020-06-04T13:48:21Z</time>
      </trkpt>
      <trkpt lat="46.91781" lon="-2.08268">
        <ele>2.1</ele>
        <time>2020-06-04T13:48:22Z</time>
      </trkpt>
      <trkpt lat="46.91785" lon="-2.08264">
        <ele>2.1</ele>
        <time>2020-06-04T13:48:23Z</time>
      </trkpt>
      <trkpt lat="46.91786" lon="-2.0826">
        <ele>2</ele>
        <time>2020-06-04T13:48:24Z</time>
      </trkpt>
      <trkpt lat="46.9179" lon="-2.08257">
        <ele>2</ele>
        <time>2020-06-04T13:48:25Z</time>
      </trkpt>
      <trkpt lat="46.91791" lon="-2.08254">
        <ele>1.9</ele>
        <time>2020-06-04T13:48:26Z</time>
      </trkpt>
      <trkpt lat="46.91795" lon="-2.0825">
        <ele>1.9</ele>
        <time>2020-06-04T13:48:27Z</time>
      </trkpt>
      <trkpt lat="46.91796" lon="-2.08248">
        <ele>1.8</ele>
        <time>2020-06-04T13:48:28Z</time>
      </trkpt>
      <trkpt lat="46.91799" lon="-2.08244">
        <ele>1.8</ele>
        <time>2020-06-04T13:48:29Z</time>
      </trkpt>
      <trkpt lat="46.91801" lon="-2.08239">
        <ele>1.8</ele>
        <time>2020-06-04T13:48:30Z</time>
      </trkpt>
      <trkpt lat="46.91803" lon="-2.08234">
        <ele>1.7</ele>
        <time>2020-06-04T13:48:31Z</time>
      </trkpt>
      <trkpt lat="46.91805" lon="-2.08227">
        <ele>1.7</ele>
        <time>2020-06-04T13:48:32Z</time>
      </trkpt>
      <trkpt lat="46.91806" lon="-2.08221">
        <ele>1.7</ele>
        <time>2020-06-04T13:48:33Z</time>
      </trkpt>
      <trkpt lat="46.91808" lon="-2.08215">
        <ele>1.6</ele>
        <time>2020-06-04T13:48:34Z</time>
      </trkpt>
      <trkpt lat="46.9181" lon="-2.08209">
        <ele>1.6</ele>
        <time>2020-06-04T13:48:35Z</time>
      </trkpt>
      <trkpt lat="46.91812" lon="-2.08204">
        <ele>1.6</ele>
        <time>2020-06-04T13:48:36Z</time>
      </trkpt>
      <trkpt lat="46.91814" lon="-2.08199">
        <ele>1.6</ele>
        <time>2020-06-04T13:48:37Z</time>
      </trkpt>
      <trkpt lat="46.91817" lon="-2.08195">
        <ele>1.6</ele>
        <time>2020-06-04T13:48:38Z</time>
      </trkpt>
      <trkpt lat="46.9182" lon="-2.08192">
        <ele>1.6</ele>
        <time>2020-06-04T13:48:39Z</time>
      </trkpt>
      <trkpt lat="46.91824" lon="-2.08188">
        <ele>1.6</ele>
        <time>2020-06-04T13:48:40Z</time>
      </trkpt>
      <trkpt lat="46.91828" lon="-2.08185">
        <ele>1.6</ele>
        <time>2020-06-04T13:48:41Z</time>
      </trkpt>
      <trkpt lat="46.91831" lon="-2.08184">
        <ele>1.6</ele>
        <time>2020-06-04T13:48:42Z</time>
      </trkpt>
      <trkpt lat="46.91835" lon="-2.08182">
        <ele>1.6</ele>
        <time>2020-06-04T13:48:43Z</time>
      </trkpt>
      <trkpt lat="46.91838" lon="-2.08179">
        <ele>1.6</ele>
        <time>2020-06-04T13:48:44Z</time>
      </trkpt>
      <trkpt lat="46.91841" lon="-2.08177">
        <ele>1.5</ele>
        <time>2020-06-04T13:48:45Z</time>
      </trkpt>
      <trkpt lat="46.91844" lon="-2.08174">
        <ele>1.5</ele>
        <time>2020-06-04T13:48:46Z</time>
      </trkpt>
      <trkpt lat="46.91846" lon="-2.08171">
        <ele>1.5</ele>
        <time>2020-06-04T13:48:47Z</time>
      </trkpt>
      <trkpt lat="46.91849" lon="-2.08168">
        <ele>1.5</ele>
        <time>2020-06-04T13:48:48Z</time>
      </trkpt>
      <trkpt lat="46.91851" lon="-2.08165">
        <ele>1.5</ele>
        <time>2020-06-04T13:48:49Z</time>
      </trkpt>
      <trkpt lat="46.91852" lon="-2.08163">
        <ele>1.5</ele>
        <time>2020-06-04T13:48:50Z</time>
      </trkpt>
      <trkpt lat="46.91853" lon="-2.08163">
        <ele>1.5</ele>
        <time>2020-06-04T13:48:51Z</time>
      </trkpt>
      <trkpt lat="46.91855" lon="-2.08161">
        <ele>1.5</ele>
        <time>2020-06-04T13:48:52Z</time>
      </trkpt>
      <trkpt lat="46.91858" lon="-2.0816">
        <ele>1.5</ele>
        <time>2020-06-04T13:48:53Z</time>
      </trkpt>
      <trkpt lat="46.91859" lon="-2.0816">
        <ele>1.5</ele>
        <time>2020-06-04T13:48:54Z</time>
      </trkpt>
      <trkpt lat="46.9186" lon="-2.08159">
        <ele>1.5</ele>
        <time>2020-06-04T13:48:55Z</time>
      </trkpt>
      <trkpt lat="46.9186" lon="-2.08158">
        <ele>1.5</ele>
        <time>2020-06-04T13:48:56Z</time>
      </trkpt>
      <trkpt lat="46.9186" lon="-2.08157">
        <ele>1.5</ele>
        <time>2020-06-04T13:48:57Z</time>
      </trkpt>
      <trkpt lat="46.91859" lon="-2.08157">
        <ele>1.5</ele>
        <time>2020-06-04T13:48:58Z</time>
      </trkpt>
      <trkpt lat="46.91859" lon="-2.08156">
        <ele>1.5</ele>
        <time>2020-06-04T13:48:59Z</time>
      </trkpt>
      <trkpt lat="46.91858" lon="-2.08158">
        <ele>1.5</ele>
        <time>2020-06-04T13:49:00Z</time>
      </trkpt>
      <trkpt lat="46.91858" lon="-2.08158">
        <ele>1.5</ele>
        <time>2020-06-04T13:49:01Z</time>
      </trkpt>
      <trkpt lat="46.91857" lon="-2.08159">
        <ele>1.5</ele>
        <time>2020-06-04T13:49:02Z</time>
      </trkpt>
      <trkpt lat="46.91857" lon="-2.08159">
        <ele>1.5</ele>
        <time>2020-06-04T13:49:03Z</time>
      </trkpt>
      <trkpt lat="46.91856" lon="-2.08159">
        <ele>1.5</ele>
        <time>2020-06-04T13:49:04Z</time>
      </trkpt>
      <trkpt lat="46.91857" lon="-2.08161">
        <ele>1.5</ele>
        <time>2020-06-04T13:49:05Z</time>
      </trkpt>
      <trkpt lat="46.91857" lon="-2.08162">
        <ele>1.5</ele>
        <time>2020-06-04T13:49:06Z</time>
      </trkpt>
      <trkpt lat="46.91857" lon="-2.08163">
        <ele>1.5</ele>
        <time>2020-06-04T13:49:07Z</time>
      </trkpt>
      <trkpt lat="46.91858" lon="-2.08164">
        <ele>1.5</ele>
        <time>2020-06-04T13:49:08Z</time>
      </trkpt>
      <trkpt lat="46.91859" lon="-2.08164">
        <ele>1.5</ele>
        <time>2020-06-04T13:49:09Z</time>
      </trkpt>
      <trkpt lat="46.9186" lon="-2.08164">
        <ele>1.5</ele>
        <time>2020-06-04T13:49:10Z</time>
      </trkpt>
      <trkpt lat="46.91861" lon="-2.08164">
        <ele>1.5</ele>
        <time>2020-06-04T13:49:11Z</time>
      </trkpt>
      <trkpt lat="46.91862" lon="-2.08164">
        <ele>1.5</ele>
        <time>2020-06-04T13:49:20Z</time>
      </trkpt>
      <trkpt lat="46.91863" lon="-2.08164">
        <ele>1.5</ele>
        <time>2020-06-04T13:49:21Z</time>
      </trkpt>
      <trkpt lat="46.91867" lon="-2.08163">
        <ele>1.5</ele>
        <time>2020-06-04T13:49:22Z</time>
      </trkpt>
      <trkpt lat="46.91869" lon="-2.08163">
        <ele>1.5</ele>
        <time>2020-06-04T13:49:23Z</time>
      </trkpt>
      <trkpt lat="46.91872" lon="-2.08164">
        <ele>1.5</ele>
        <time>2020-06-04T13:49:24Z</time>
      </trkpt>
      <trkpt lat="46.91877" lon="-2.08165">
        <ele>1.5</ele>
        <time>2020-06-04T13:49:25Z</time>
      </trkpt>
      <trkpt lat="46.9188" lon="-2.08166">
        <ele>1.5</ele>
        <time>2020-06-04T13:49:26Z</time>
      </trkpt>
      <trkpt lat="46.91885" lon="-2.08166">
        <ele>1.5</ele>
        <time>2020-06-04T13:49:27Z</time>
      </trkpt>
      <trkpt lat="46.91888" lon="-2.08166">
        <ele>1.5</ele>
        <time>2020-06-04T13:49:28Z</time>
      </trkpt>
      <trkpt lat="46.91892" lon="-2.08165">
        <ele>1.6</ele>
        <time>2020-06-04T13:49:29Z</time>
      </trkpt>
      <trkpt lat="46.91895" lon="-2.08163">
        <ele>1.7</ele>
        <time>2020-06-04T13:49:30Z</time>
      </trkpt>
      <trkpt lat="46.91898" lon="-2.08159">
        <ele>1.7</ele>
        <time>2020-06-04T13:49:31Z</time>
      </trkpt>
      <trkpt lat="46.919" lon="-2.08155">
        <ele>1.7</ele>
        <time>2020-06-04T13:49:32Z</time>
      </trkpt>
      <trkpt lat="46.91902" lon="-2.08151">
        <ele>1.7</ele>
        <time>2020-06-04T13:49:33Z</time>
      </trkpt>
      <trkpt lat="46.91903" lon="-2.08147">
        <ele>1.8</ele>
        <time>2020-06-04T13:49:34Z</time>
      </trkpt>
      <trkpt lat="46.91905" lon="-2.08142">
        <ele>1.8</ele>
        <time>2020-06-04T13:49:35Z</time>
      </trkpt>
      <trkpt lat="46.91907" lon="-2.08138">
        <ele>1.8</ele>
        <time>2020-06-04T13:49:36Z</time>
      </trkpt>
      <trkpt lat="46.91908" lon="-2.08133">
        <ele>1.8</ele>
        <time>2020-06-04T13:49:37Z</time>
      </trkpt>
      <trkpt lat="46.9191" lon="-2.08128">
        <ele>1.9</ele>
        <time>2020-06-04T13:49:38Z</time>
      </trkpt>
      <trkpt lat="46.91911" lon="-2.08123">
        <ele>1.9</ele>
        <time>2020-06-04T13:49:39Z</time>
      </trkpt>
      <trkpt lat="46.91913" lon="-2.08118">
        <ele>1.9</ele>
        <time>2020-06-04T13:49:40Z</time>
      </trkpt>
      <trkpt lat="46.91914" lon="-2.08111">
        <ele>2</ele>
        <time>2020-06-04T13:49:41Z</time>
      </trkpt>
      <trkpt lat="46.91916" lon="-2.08106">
        <ele>2</ele>
        <time>2020-06-04T13:49:42Z</time>
      </trkpt>
      <trkpt lat="46.91919" lon="-2.08101">
        <ele>2</ele>
        <time>2020-06-04T13:49:43Z</time>
      </trkpt>
      <trkpt lat="46.91921" lon="-2.08095">
        <ele>2.1</ele>
        <time>2020-06-04T13:49:44Z</time>
      </trkpt>
      <trkpt lat="46.91924" lon="-2.08089">
        <ele>2.1</ele>
        <time>2020-06-04T13:49:45Z</time>
      </trkpt>
      <trkpt lat="46.91926" lon="-2.08083">
        <ele>2.2</ele>
        <time>2020-06-04T13:49:46Z</time>
      </trkpt>
      <trkpt lat="46.91927" lon="-2.08077">
        <ele>2.2</ele>
        <time>2020-06-04T13:49:47Z</time>
      </trkpt>
      <trkpt lat="46.9193" lon="-2.08074">
        <ele>2.2</ele>
        <time>2020-06-04T13:49:48Z</time>
      </trkpt>
      <trkpt lat="46.91933" lon="-2.08076">
        <ele>2.2</ele>
        <time>2020-06-04T13:49:49Z</time>
      </trkpt>
      <trkpt lat="46.91933" lon="-2.08077">
        <ele>2.2</ele>
        <time>2020-06-04T13:49:50Z</time>
      </trkpt>
      <trkpt lat="46.91936" lon="-2.08081">
        <ele>2.2</ele>
        <time>2020-06-04T13:49:51Z</time>
      </trkpt>
      <trkpt lat="46.91938" lon="-2.08082">
        <ele>2.2</ele>
        <time>2020-06-04T13:49:52Z</time>
      </trkpt>
      <trkpt lat="46.91941" lon="-2.08085">
        <ele>2.2</ele>
        <time>2020-06-04T13:49:53Z</time>
      </trkpt>
      <trkpt lat="46.91945" lon="-2.08087">
        <ele>2.1</ele>
        <time>2020-06-04T13:49:54Z</time>
      </trkpt>
      <trkpt lat="46.91948" lon="-2.08089">
        <ele>2.1</ele>
        <time>2020-06-04T13:49:55Z</time>
      </trkpt>
      <trkpt lat="46.91952" lon="-2.0809">
        <ele>2.1</ele>
        <time>2020-06-04T13:49:56Z</time>
      </trkpt>
      <trkpt lat="46.91952" lon="-2.08091">
        <ele>2.1</ele>
        <time>2020-06-04T13:49:57Z</time>
      </trkpt>
      <trkpt lat="46.91955" lon="-2.08093">
        <ele>2.1</ele>
        <time>2020-06-04T13:49:58Z</time>
      </trkpt>
      <trkpt lat="46.91959" lon="-2.08094">
        <ele>2.1</ele>
        <time>2020-06-04T13:49:59Z</time>
      </trkpt>
      <trkpt lat="46.9196" lon="-2.08094">
        <ele>2.1</ele>
        <time>2020-06-04T13:50:00Z</time>
      </trkpt>
      <trkpt lat="46.91962" lon="-2.08094">
        <ele>2.1</ele>
        <time>2020-06-04T13:50:01Z</time>
      </trkpt>
      <trkpt lat="46.91968" lon="-2.08096">
        <ele>2.1</ele>
        <time>2020-06-04T13:50:02Z</time>
      </trkpt>
      <trkpt lat="46.91973" lon="-2.08096">
        <ele>2.1</ele>
        <time>2020-06-04T13:50:03Z</time>
      </trkpt>
      <trkpt lat="46.91977" lon="-2.08097">
        <ele>2.1</ele>
        <time>2020-06-04T13:50:04Z</time>
      </trkpt>
      <trkpt lat="46.91982" lon="-2.08097">
        <ele>2.1</ele>
        <time>2020-06-04T13:50:05Z</time>
      </trkpt>
      <trkpt lat="46.91985" lon="-2.08099">
        <ele>2.1</ele>
        <time>2020-06-04T13:50:06Z</time>
      </trkpt>
      <trkpt lat="46.91989" lon="-2.08103">
        <ele>2.1</ele>
        <time>2020-06-04T13:50:07Z</time>
      </trkpt>
      <trkpt lat="46.91992" lon="-2.08109">
        <ele>2.1</ele>
        <time>2020-06-04T13:50:08Z</time>
      </trkpt>
      <trkpt lat="46.91996" lon="-2.08115">
        <ele>2.1</ele>
        <time>2020-06-04T13:50:09Z</time>
      </trkpt>
      <trkpt lat="46.91999" lon="-2.0812">
        <ele>2.1</ele>
        <time>2020-06-04T13:50:10Z</time>
      </trkpt>
      <trkpt lat="46.92002" lon="-2.08126">
        <ele>2.1</ele>
        <time>2020-06-04T13:50:11Z</time>
      </trkpt>
      <trkpt lat="46.92005" lon="-2.0813">
        <ele>2.1</ele>
        <time>2020-06-04T13:50:12Z</time>
      </trkpt>
      <trkpt lat="46.92007" lon="-2.08136">
        <ele>2.1</ele>
        <time>2020-06-04T13:50:13Z</time>
      </trkpt>
      <trkpt lat="46.9201" lon="-2.08142">
        <ele>2.1</ele>
        <time>2020-06-04T13:50:14Z</time>
      </trkpt>
      <trkpt lat="46.92011" lon="-2.08147">
        <ele>2.1</ele>
        <time>2020-06-04T13:50:15Z</time>
      </trkpt>
      <trkpt lat="46.92012" lon="-2.08153">
        <ele>2.1</ele>
        <time>2020-06-04T13:50:16Z</time>
      </trkpt>
      <trkpt lat="46.92014" lon="-2.08159">
        <ele>2.1</ele>
        <time>2020-06-04T13:50:17Z</time>
      </trkpt>
      <trkpt lat="46.92015" lon="-2.08166">
        <ele>2.1</ele>
        <time>2020-06-04T13:50:18Z</time>
      </trkpt>
      <trkpt lat="46.92017" lon="-2.08172">
        <ele>2.1</ele>
        <time>2020-06-04T13:50:19Z</time>
      </trkpt>
      <trkpt lat="46.92019" lon="-2.08177">
        <ele>2.1</ele>
        <time>2020-06-04T13:50:20Z</time>
      </trkpt>
      <trkpt lat="46.92021" lon="-2.08183">
        <ele>2</ele>
        <time>2020-06-04T13:50:21Z</time>
      </trkpt>
      <trkpt lat="46.92024" lon="-2.08188">
        <ele>2</ele>
        <time>2020-06-04T13:50:22Z</time>
      </trkpt>
      <trkpt lat="46.92029" lon="-2.08189">
        <ele>2</ele>
        <time>2020-06-04T13:50:23Z</time>
      </trkpt>
      <trkpt lat="46.92034" lon="-2.0819">
        <ele>2</ele>
        <time>2020-06-04T13:50:24Z</time>
      </trkpt>
      <trkpt lat="46.92038" lon="-2.08191">
        <ele>2</ele>
        <time>2020-06-04T13:50:25Z</time>
      </trkpt>
      <trkpt lat="46.92043" lon="-2.08193">
        <ele>2</ele>
        <time>2020-06-04T13:50:26Z</time>
      </trkpt>
      <trkpt lat="46.92048" lon="-2.08194">
        <ele>2</ele>
        <time>2020-06-04T13:50:27Z</time>
      </trkpt>
      <trkpt lat="46.92052" lon="-2.08196">
        <ele>2</ele>
        <time>2020-06-04T13:50:28Z</time>
      </trkpt>
      <trkpt lat="46.92057" lon="-2.08196">
        <ele>2</ele>
        <time>2020-06-04T13:50:29Z</time>
      </trkpt>
      <trkpt lat="46.92062" lon="-2.08197">
        <ele>2</ele>
        <time>2020-06-04T13:50:30Z</time>
      </trkpt>
      <trkpt lat="46.92067" lon="-2.08197">
        <ele>2</ele>
        <time>2020-06-04T13:50:31Z</time>
      </trkpt>
      <trkpt lat="46.92072" lon="-2.08197">
        <ele>2</ele>
        <time>2020-06-04T13:50:32Z</time>
      </trkpt>
      <trkpt lat="46.92076" lon="-2.08197">
        <ele>2</ele>
        <time>2020-06-04T13:50:33Z</time>
      </trkpt>
      <trkpt lat="46.92081" lon="-2.08196">
        <ele>2</ele>
        <time>2020-06-04T13:50:34Z</time>
      </trkpt>
      <trkpt lat="46.92085" lon="-2.08196">
        <ele>2</ele>
        <time>2020-06-04T13:50:35Z</time>
      </trkpt>
      <trkpt lat="46.92089" lon="-2.08196">
        <ele>2</ele>
        <time>2020-06-04T13:50:36Z</time>
      </trkpt>
      <trkpt lat="46.92093" lon="-2.08196">
        <ele>2</ele>
        <time>2020-06-04T13:50:37Z</time>
      </trkpt>
      <trkpt lat="46.92098" lon="-2.08194">
        <ele>2</ele>
        <time>2020-06-04T13:50:38Z</time>
      </trkpt>
      <trkpt lat="46.92102" lon="-2.08193">
        <ele>2</ele>
        <time>2020-06-04T13:50:39Z</time>
      </trkpt>
      <trkpt lat="46.92106" lon="-2.08191">
        <ele>2</ele>
        <time>2020-06-04T13:50:40Z</time>
      </trkpt>
      <trkpt lat="46.92111" lon="-2.0819">
        <ele>2</ele>
        <time>2020-06-04T13:50:41Z</time>
      </trkpt>
      <trkpt lat="46.92115" lon="-2.08189">
        <ele>2</ele>
        <time>2020-06-04T13:50:42Z</time>
      </trkpt>
      <trkpt lat="46.92119" lon="-2.08187">
        <ele>2</ele>
        <time>2020-06-04T13:50:43Z</time>
      </trkpt>
      <trkpt lat="46.92123" lon="-2.08186">
        <ele>2</ele>
        <time>2020-06-04T13:50:44Z</time>
      </trkpt>
      <trkpt lat="46.92129" lon="-2.08183">
        <ele>2</ele>
        <time>2020-06-04T13:50:45Z</time>
      </trkpt>
      <trkpt lat="46.92132" lon="-2.08182">
        <ele>2</ele>
        <time>2020-06-04T13:50:46Z</time>
      </trkpt>
      <trkpt lat="46.92136" lon="-2.08181">
        <ele>2</ele>
        <time>2020-06-04T13:50:47Z</time>
      </trkpt>
      <trkpt lat="46.9214" lon="-2.0818">
        <ele>2</ele>
        <time>2020-06-04T13:50:48Z</time>
      </trkpt>
      <trkpt lat="46.92144" lon="-2.08177">
        <ele>2</ele>
        <time>2020-06-04T13:50:49Z</time>
      </trkpt>
      <trkpt lat="46.92149" lon="-2.08177">
        <ele>2</ele>
        <time>2020-06-04T13:50:50Z</time>
      </trkpt>
      <trkpt lat="46.92153" lon="-2.08175">
        <ele>2</ele>
        <time>2020-06-04T13:50:51Z</time>
      </trkpt>
      <trkpt lat="46.92157" lon="-2.08173">
        <ele>2</ele>
        <time>2020-06-04T13:50:52Z</time>
      </trkpt>
      <trkpt lat="46.92162" lon="-2.08171">
        <ele>2</ele>
        <time>2020-06-04T13:50:53Z</time>
      </trkpt>
      <trkpt lat="46.92166" lon="-2.0817">
        <ele>2</ele>
        <time>2020-06-04T13:50:54Z</time>
      </trkpt>
      <trkpt lat="46.92171" lon="-2.08168">
        <ele>2</ele>
        <time>2020-06-04T13:50:55Z</time>
      </trkpt>
      <trkpt lat="46.92175" lon="-2.08167">
        <ele>2</ele>
        <time>2020-06-04T13:50:56Z</time>
      </trkpt>
      <trkpt lat="46.9218" lon="-2.08165">
        <ele>2</ele>
        <time>2020-06-04T13:50:57Z</time>
      </trkpt>
      <trkpt lat="46.92185" lon="-2.08163">
        <ele>2</ele>
        <time>2020-06-04T13:50:58Z</time>
      </trkpt>
      <trkpt lat="46.92189" lon="-2.08163">
        <ele>2</ele>
        <time>2020-06-04T13:50:59Z</time>
      </trkpt>
      <trkpt lat="46.92194" lon="-2.08162">
        <ele>2</ele>
        <time>2020-06-04T13:51:00Z</time>
      </trkpt>
      <trkpt lat="46.92198" lon="-2.08161">
        <ele>1.9</ele>
        <time>2020-06-04T13:51:01Z</time>
      </trkpt>
      <trkpt lat="46.92203" lon="-2.0816">
        <ele>1.9</ele>
        <time>2020-06-04T13:51:02Z</time>
      </trkpt>
      <trkpt lat="46.92208" lon="-2.0816">
        <ele>1.9</ele>
        <time>2020-06-04T13:51:03Z</time>
      </trkpt>
      <trkpt lat="46.92211" lon="-2.08159">
        <ele>1.9</ele>
        <time>2020-06-04T13:51:04Z</time>
      </trkpt>
      <trkpt lat="46.92216" lon="-2.08158">
        <ele>1.9</ele>
        <time>2020-06-04T13:51:05Z</time>
      </trkpt>
      <trkpt lat="46.92219" lon="-2.08157">
        <ele>1.9</ele>
        <time>2020-06-04T13:51:06Z</time>
      </trkpt>
      <trkpt lat="46.92223" lon="-2.08157">
        <ele>1.9</ele>
        <time>2020-06-04T13:51:07Z</time>
      </trkpt>
      <trkpt lat="46.92228" lon="-2.08155">
        <ele>1.9</ele>
        <time>2020-06-04T13:51:08Z</time>
      </trkpt>
      <trkpt lat="46.92232" lon="-2.08154">
        <ele>1.9</ele>
        <time>2020-06-04T13:51:09Z</time>
      </trkpt>
      <trkpt lat="46.92235" lon="-2.08152">
        <ele>1.9</ele>
        <time>2020-06-04T13:51:10Z</time>
      </trkpt>
      <trkpt lat="46.92239" lon="-2.0815">
        <ele>1.9</ele>
        <time>2020-06-04T13:51:11Z</time>
      </trkpt>
      <trkpt lat="46.92243" lon="-2.08148">
        <ele>1.9</ele>
        <time>2020-06-04T13:51:12Z</time>
      </trkpt>
      <trkpt lat="46.92248" lon="-2.08146">
        <ele>1.9</ele>
        <time>2020-06-04T13:51:13Z</time>
      </trkpt>
      <trkpt lat="46.92252" lon="-2.08144">
        <ele>1.9</ele>
        <time>2020-06-04T13:51:14Z</time>
      </trkpt>
      <trkpt lat="46.92256" lon="-2.08142">
        <ele>1.9</ele>
        <time>2020-06-04T13:51:15Z</time>
      </trkpt>
      <trkpt lat="46.9226" lon="-2.0814">
        <ele>1.9</ele>
        <time>2020-06-04T13:51:16Z</time>
      </trkpt>
      <trkpt lat="46.92265" lon="-2.08138">
        <ele>1.9</ele>
        <time>2020-06-04T13:51:17Z</time>
      </trkpt>
      <trkpt lat="46.92269" lon="-2.08137">
        <ele>1.9</ele>
        <time>2020-06-04T13:51:18Z</time>
      </trkpt>
      <trkpt lat="46.92273" lon="-2.08137">
        <ele>1.9</ele>
        <time>2020-06-04T13:51:19Z</time>
      </trkpt>
      <trkpt lat="46.92277" lon="-2.08136">
        <ele>1.9</ele>
        <time>2020-06-04T13:51:20Z</time>
      </trkpt>
      <trkpt lat="46.92281" lon="-2.08137">
        <ele>1.9</ele>
        <time>2020-06-04T13:51:21Z</time>
      </trkpt>
      <trkpt lat="46.92285" lon="-2.08137">
        <ele>1.9</ele>
        <time>2020-06-04T13:51:22Z</time>
      </trkpt>
      <trkpt lat="46.92289" lon="-2.08137">
        <ele>1.9</ele>
        <time>2020-06-04T13:51:23Z</time>
      </trkpt>
      <trkpt lat="46.92291" lon="-2.08136">
        <ele>1.9</ele>
        <time>2020-06-04T13:51:24Z</time>
      </trkpt>
      <trkpt lat="46.92295" lon="-2.08136">
        <ele>1.9</ele>
        <time>2020-06-04T13:51:25Z</time>
      </trkpt>
      <trkpt lat="46.92298" lon="-2.08134">
        <ele>1.9</ele>
        <time>2020-06-04T13:51:26Z</time>
      </trkpt>
      <trkpt lat="46.92303" lon="-2.0813">
        <ele>1.9</ele>
        <time>2020-06-04T13:51:27Z</time>
      </trkpt>
      <trkpt lat="46.92306" lon="-2.08127">
        <ele>1.9</ele>
        <time>2020-06-04T13:51:28Z</time>
      </trkpt>
      <trkpt lat="46.9231" lon="-2.08124">
        <ele>1.9</ele>
        <time>2020-06-04T13:51:29Z</time>
      </trkpt>
      <trkpt lat="46.92314" lon="-2.08121">
        <ele>1.9</ele>
        <time>2020-06-04T13:51:30Z</time>
      </trkpt>
      <trkpt lat="46.92318" lon="-2.08119">
        <ele>1.9</ele>
        <time>2020-06-04T13:51:31Z</time>
      </trkpt>
      <trkpt lat="46.92322" lon="-2.08116">
        <ele>1.9</ele>
        <time>2020-06-04T13:51:32Z</time>
      </trkpt>
      <trkpt lat="46.92326" lon="-2.08113">
        <ele>1.9</ele>
        <time>2020-06-04T13:51:33Z</time>
      </trkpt>
      <trkpt lat="46.92328" lon="-2.08111">
        <ele>1.9</ele>
        <time>2020-06-04T13:51:34Z</time>
      </trkpt>
      <trkpt lat="46.92332" lon="-2.08109">
        <ele>1.9</ele>
        <time>2020-06-04T13:51:35Z</time>
      </trkpt>
      <trkpt lat="46.92336" lon="-2.08107">
        <ele>1.9</ele>
        <time>2020-06-04T13:51:36Z</time>
      </trkpt>
      <trkpt lat="46.9234" lon="-2.08104">
        <ele>1.9</ele>
        <time>2020-06-04T13:51:37Z</time>
      </trkpt>
      <trkpt lat="46.92343" lon="-2.08102">
        <ele>1.9</ele>
        <time>2020-06-04T13:51:38Z</time>
      </trkpt>
      <trkpt lat="46.92346" lon="-2.08101">
        <ele>1.9</ele>
        <time>2020-06-04T13:51:39Z</time>
      </trkpt>
      <trkpt lat="46.92349" lon="-2.081">
        <ele>1.9</ele>
        <time>2020-06-04T13:51:40Z</time>
      </trkpt>
      <trkpt lat="46.92352" lon="-2.08098">
        <ele>1.9</ele>
        <time>2020-06-04T13:51:41Z</time>
      </trkpt>
      <trkpt lat="46.92355" lon="-2.08095">
        <ele>1.9</ele>
        <time>2020-06-04T13:51:42Z</time>
      </trkpt>
      <trkpt lat="46.92358" lon="-2.08093">
        <ele>1.9</ele>
        <time>2020-06-04T13:51:43Z</time>
      </trkpt>
      <trkpt lat="46.92362" lon="-2.08091">
        <ele>1.9</ele>
        <time>2020-06-04T13:51:44Z</time>
      </trkpt>
      <trkpt lat="46.92366" lon="-2.0809">
        <ele>1.9</ele>
        <time>2020-06-04T13:51:45Z</time>
      </trkpt>
      <trkpt lat="46.9237" lon="-2.08088">
        <ele>1.9</ele>
        <time>2020-06-04T13:51:46Z</time>
      </trkpt>
      <trkpt lat="46.92374" lon="-2.08087">
        <ele>1.9</ele>
        <time>2020-06-04T13:51:47Z</time>
      </trkpt>
      <trkpt lat="46.92378" lon="-2.08085">
        <ele>1.9</ele>
        <time>2020-06-04T13:51:48Z</time>
      </trkpt>
      <trkpt lat="46.92382" lon="-2.08083">
        <ele>1.9</ele>
        <time>2020-06-04T13:51:49Z</time>
      </trkpt>
      <trkpt lat="46.92386" lon="-2.0808">
        <ele>1.9</ele>
        <time>2020-06-04T13:51:50Z</time>
      </trkpt>
      <trkpt lat="46.9239" lon="-2.08076">
        <ele>1.9</ele>
        <time>2020-06-04T13:51:51Z</time>
      </trkpt>
      <trkpt lat="46.92394" lon="-2.08073">
        <ele>1.9</ele>
        <time>2020-06-04T13:51:52Z</time>
      </trkpt>
      <trkpt lat="46.92397" lon="-2.08071">
        <ele>1.9</ele>
        <time>2020-06-04T13:51:53Z</time>
      </trkpt>
      <trkpt lat="46.92401" lon="-2.08071">
        <ele>1.9</ele>
        <time>2020-06-04T13:51:54Z</time>
      </trkpt>
      <trkpt lat="46.92405" lon="-2.0807">
        <ele>1.9</ele>
        <time>2020-06-04T13:51:55Z</time>
      </trkpt>
      <trkpt lat="46.92409" lon="-2.08069">
        <ele>2</ele>
        <time>2020-06-04T13:51:56Z</time>
      </trkpt>
      <trkpt lat="46.92414" lon="-2.08067">
        <ele>2</ele>
        <time>2020-06-04T13:51:57Z</time>
      </trkpt>
      <trkpt lat="46.92417" lon="-2.08065">
        <ele>2</ele>
        <time>2020-06-04T13:51:58Z</time>
      </trkpt>
      <trkpt lat="46.92421" lon="-2.08063">
        <ele>2</ele>
        <time>2020-06-04T13:51:59Z</time>
      </trkpt>
      <trkpt lat="46.92425" lon="-2.0806">
        <ele>2</ele>
        <time>2020-06-04T13:52:00Z</time>
      </trkpt>
      <trkpt lat="46.92429" lon="-2.08058">
        <ele>2</ele>
        <time>2020-06-04T13:52:01Z</time>
      </trkpt>
      <trkpt lat="46.92433" lon="-2.08054">
        <ele>2</ele>
        <time>2020-06-04T13:52:02Z</time>
      </trkpt>
      <trkpt lat="46.92437" lon="-2.08051">
        <ele>2</ele>
        <time>2020-06-04T13:52:03Z</time>
      </trkpt>
      <trkpt lat="46.92441" lon="-2.08049">
        <ele>2</ele>
        <time>2020-06-04T13:52:04Z</time>
      </trkpt>
      <trkpt lat="46.92444" lon="-2.08046">
        <ele>2</ele>
        <time>2020-06-04T13:52:05Z</time>
      </trkpt>
      <trkpt lat="46.92447" lon="-2.08042">
        <ele>2.1</ele>
        <time>2020-06-04T13:52:06Z</time>
      </trkpt>
      <trkpt lat="46.92451" lon="-2.08039">
        <ele>2.1</ele>
        <time>2020-06-04T13:52:07Z</time>
      </trkpt>
      <trkpt lat="46.92455" lon="-2.08035">
        <ele>2.1</ele>
        <time>2020-06-04T13:52:08Z</time>
      </trkpt>
      <trkpt lat="46.92459" lon="-2.08033">
        <ele>2.1</ele>
        <time>2020-06-04T13:52:09Z</time>
      </trkpt>
      <trkpt lat="46.92463" lon="-2.08031">
        <ele>2.1</ele>
        <time>2020-06-04T13:52:10Z</time>
      </trkpt>
      <trkpt lat="46.92467" lon="-2.08028">
        <ele>2.1</ele>
        <time>2020-06-04T13:52:11Z</time>
      </trkpt>
      <trkpt lat="46.9247" lon="-2.08026">
        <ele>2.1</ele>
        <time>2020-06-04T13:52:12Z</time>
      </trkpt>
      <trkpt lat="46.92474" lon="-2.08023">
        <ele>2.1</ele>
        <time>2020-06-04T13:52:13Z</time>
      </trkpt>
      <trkpt lat="46.92478" lon="-2.08021">
        <ele>2.1</ele>
        <time>2020-06-04T13:52:14Z</time>
      </trkpt>
      <trkpt lat="46.92481" lon="-2.08019">
        <ele>2.1</ele>
        <time>2020-06-04T13:52:15Z</time>
      </trkpt>
      <trkpt lat="46.92485" lon="-2.08017">
        <ele>2.1</ele>
        <time>2020-06-04T13:52:16Z</time>
      </trkpt>
      <trkpt lat="46.92489" lon="-2.08016">
        <ele>2.1</ele>
        <time>2020-06-04T13:52:17Z</time>
      </trkpt>
      <trkpt lat="46.92494" lon="-2.08015">
        <ele>2.1</ele>
        <time>2020-06-04T13:52:18Z</time>
      </trkpt>
      <trkpt lat="46.92498" lon="-2.08012">
        <ele>2.1</ele>
        <time>2020-06-04T13:52:19Z</time>
      </trkpt>
      <trkpt lat="46.92502" lon="-2.08009">
        <ele>2.1</ele>
        <time>2020-06-04T13:52:20Z</time>
      </trkpt>
      <trkpt lat="46.92506" lon="-2.08007">
        <ele>2.1</ele>
        <time>2020-06-04T13:52:21Z</time>
      </trkpt>
      <trkpt lat="46.92509" lon="-2.08004">
        <ele>2.1</ele>
        <time>2020-06-04T13:52:22Z</time>
      </trkpt>
      <trkpt lat="46.92513" lon="-2.08001">
        <ele>2.1</ele>
        <time>2020-06-04T13:52:23Z</time>
      </trkpt>
      <trkpt lat="46.92516" lon="-2.07998">
        <ele>2.1</ele>
        <time>2020-06-04T13:52:24Z</time>
      </trkpt>
      <trkpt lat="46.9252" lon="-2.07995">
        <ele>2.1</ele>
        <time>2020-06-04T13:52:25Z</time>
      </trkpt>
      <trkpt lat="46.92523" lon="-2.07992">
        <ele>2.1</ele>
        <time>2020-06-04T13:52:26Z</time>
      </trkpt>
      <trkpt lat="46.92526" lon="-2.0799">
        <ele>2.1</ele>
        <time>2020-06-04T13:52:27Z</time>
      </trkpt>
      <trkpt lat="46.9253" lon="-2.07988">
        <ele>2.1</ele>
        <time>2020-06-04T13:52:28Z</time>
      </trkpt>
      <trkpt lat="46.92534" lon="-2.07985">
        <ele>2.1</ele>
        <time>2020-06-04T13:52:29Z</time>
      </trkpt>
      <trkpt lat="46.92537" lon="-2.07983">
        <ele>2.1</ele>
        <time>2020-06-04T13:52:30Z</time>
      </trkpt>
      <trkpt lat="46.92541" lon="-2.07981">
        <ele>2.1</ele>
        <time>2020-06-04T13:52:31Z</time>
      </trkpt>
      <trkpt lat="46.92545" lon="-2.07979">
        <ele>2.1</ele>
        <time>2020-06-04T13:52:32Z</time>
      </trkpt>
      <trkpt lat="46.92548" lon="-2.07977">
        <ele>2.1</ele>
        <time>2020-06-04T13:52:33Z</time>
      </trkpt>
      <trkpt lat="46.92552" lon="-2.07974">
        <ele>2.1</ele>
        <time>2020-06-04T13:52:34Z</time>
      </trkpt>
      <trkpt lat="46.92555" lon="-2.07972">
        <ele>2.1</ele>
        <time>2020-06-04T13:52:35Z</time>
      </trkpt>
      <trkpt lat="46.92558" lon="-2.07971">
        <ele>2.1</ele>
        <time>2020-06-04T13:52:36Z</time>
      </trkpt>
      <trkpt lat="46.92561" lon="-2.07969">
        <ele>2.1</ele>
        <time>2020-06-04T13:52:37Z</time>
      </trkpt>
      <trkpt lat="46.92564" lon="-2.07968">
        <ele>2.1</ele>
        <time>2020-06-04T13:52:38Z</time>
      </trkpt>
      <trkpt lat="46.92568" lon="-2.07966">
        <ele>2.1</ele>
        <time>2020-06-04T13:52:39Z</time>
      </trkpt>
      <trkpt lat="46.92571" lon="-2.07966">
        <ele>2.1</ele>
        <time>2020-06-04T13:52:40Z</time>
      </trkpt>
      <trkpt lat="46.92574" lon="-2.07964">
        <ele>2.1</ele>
        <time>2020-06-04T13:52:41Z</time>
      </trkpt>
      <trkpt lat="46.92577" lon="-2.07962">
        <ele>2.1</ele>
        <time>2020-06-04T13:52:42Z</time>
      </trkpt>
      <trkpt lat="46.9258" lon="-2.07961">
        <ele>2.1</ele>
        <time>2020-06-04T13:52:43Z</time>
      </trkpt>
      <trkpt lat="46.92584" lon="-2.07959">
        <ele>2.1</ele>
        <time>2020-06-04T13:52:44Z</time>
      </trkpt>
      <trkpt lat="46.92587" lon="-2.07956">
        <ele>2.1</ele>
        <time>2020-06-04T13:52:45Z</time>
      </trkpt>
      <trkpt lat="46.9259" lon="-2.07955">
        <ele>2.1</ele>
        <time>2020-06-04T13:52:46Z</time>
      </trkpt>
      <trkpt lat="46.92593" lon="-2.07952">
        <ele>2.1</ele>
        <time>2020-06-04T13:52:47Z</time>
      </trkpt>
      <trkpt lat="46.92597" lon="-2.07948">
        <ele>2.1</ele>
        <time>2020-06-04T13:52:48Z</time>
      </trkpt>
      <trkpt lat="46.92601" lon="-2.07945">
        <ele>2.1</ele>
        <time>2020-06-04T13:52:49Z</time>
      </trkpt>
      <trkpt lat="46.92604" lon="-2.07941">
        <ele>2.1</ele>
        <time>2020-06-04T13:52:50Z</time>
      </trkpt>
      <trkpt lat="46.92606" lon="-2.07938">
        <ele>2.1</ele>
        <time>2020-06-04T13:52:51Z</time>
      </trkpt>
      <trkpt lat="46.92608" lon="-2.07933">
        <ele>2.1</ele>
        <time>2020-06-04T13:52:52Z</time>
      </trkpt>
      <trkpt lat="46.92608" lon="-2.07926">
        <ele>2.1</ele>
        <time>2020-06-04T13:52:53Z</time>
      </trkpt>
      <trkpt lat="46.92607" lon="-2.0792">
        <ele>2.2</ele>
        <time>2020-06-04T13:52:54Z</time>
      </trkpt>
      <trkpt lat="46.92605" lon="-2.07915">
        <ele>2.2</ele>
        <time>2020-06-04T13:52:55Z</time>
      </trkpt>
      <trkpt lat="46.92603" lon="-2.0791">
        <ele>2.2</ele>
        <time>2020-06-04T13:52:56Z</time>
      </trkpt>
      <trkpt lat="46.92601" lon="-2.07906">
        <ele>2.2</ele>
        <time>2020-06-04T13:52:57Z</time>
      </trkpt>
      <trkpt lat="46.92598" lon="-2.079">
        <ele>2.3</ele>
        <time>2020-06-04T13:52:58Z</time>
      </trkpt>
      <trkpt lat="46.92595" lon="-2.07894">
        <ele>2.3</ele>
        <time>2020-06-04T13:52:59Z</time>
      </trkpt>
      <trkpt lat="46.92592" lon="-2.07888">
        <ele>2.4</ele>
        <time>2020-06-04T13:53:00Z</time>
      </trkpt>
      <trkpt lat="46.92589" lon="-2.07883">
        <ele>2.4</ele>
        <time>2020-06-04T13:53:01Z</time>
      </trkpt>
      <trkpt lat="46.92586" lon="-2.07877">
        <ele>2.4</ele>
        <time>2020-06-04T13:53:02Z</time>
      </trkpt>
      <trkpt lat="46.92584" lon="-2.07872">
        <ele>2.4</ele>
        <time>2020-06-04T13:53:03Z</time>
      </trkpt>
      <trkpt lat="46.92581" lon="-2.07867">
        <ele>2.5</ele>
        <time>2020-06-04T13:53:04Z</time>
      </trkpt>
      <trkpt lat="46.92579" lon="-2.07862">
        <ele>2.5</ele>
        <time>2020-06-04T13:53:05Z</time>
      </trkpt>
      <trkpt lat="46.92576" lon="-2.07854">
        <ele>2.5</ele>
        <time>2020-06-04T13:53:06Z</time>
      </trkpt>
      <trkpt lat="46.92573" lon="-2.07849">
        <ele>2.6</ele>
        <time>2020-06-04T13:53:07Z</time>
      </trkpt>
      <trkpt lat="46.92571" lon="-2.07842">
        <ele>2.6</ele>
        <time>2020-06-04T13:53:08Z</time>
      </trkpt>
      <trkpt lat="46.92569" lon="-2.07835">
        <ele>2.6</ele>
        <time>2020-06-04T13:53:09Z</time>
      </trkpt>
      <trkpt lat="46.92568" lon="-2.07826">
        <ele>2.6</ele>
        <time>2020-06-04T13:53:10Z</time>
      </trkpt>
      <trkpt lat="46.92566" lon="-2.07817">
        <ele>2.6</ele>
        <time>2020-06-04T13:53:11Z</time>
      </trkpt>
      <trkpt lat="46.92564" lon="-2.07809">
        <ele>2.6</ele>
        <time>2020-06-04T13:53:12Z</time>
      </trkpt>
      <trkpt lat="46.92564" lon="-2.07801">
        <ele>2.6</ele>
        <time>2020-06-04T13:53:13Z</time>
      </trkpt>
      <trkpt lat="46.92563" lon="-2.07795">
        <ele>2.6</ele>
        <time>2020-06-04T13:53:14Z</time>
      </trkpt>
      <trkpt lat="46.92562" lon="-2.07788">
        <ele>2.6</ele>
        <time>2020-06-04T13:53:15Z</time>
      </trkpt>
      <trkpt lat="46.92561" lon="-2.0778">
        <ele>2.7</ele>
        <time>2020-06-04T13:53:16Z</time>
      </trkpt>
      <trkpt lat="46.92561" lon="-2.07771">
        <ele>2.7</ele>
        <time>2020-06-04T13:53:17Z</time>
      </trkpt>
      <trkpt lat="46.9256" lon="-2.07761">
        <ele>2.7</ele>
        <time>2020-06-04T13:53:18Z</time>
      </trkpt>
      <trkpt lat="46.9256" lon="-2.07753">
        <ele>2.7</ele>
        <time>2020-06-04T13:53:19Z</time>
      </trkpt>
      <trkpt lat="46.9256" lon="-2.07745">
        <ele>2.7</ele>
        <time>2020-06-04T13:53:20Z</time>
      </trkpt>
      <trkpt lat="46.92559" lon="-2.07737">
        <ele>2.7</ele>
        <time>2020-06-04T13:53:21Z</time>
      </trkpt>
      <trkpt lat="46.92559" lon="-2.0773">
        <ele>2.8</ele>
        <time>2020-06-04T13:53:22Z</time>
      </trkpt>
      <trkpt lat="46.9256" lon="-2.07723">
        <ele>2.8</ele>
        <time>2020-06-04T13:53:23Z</time>
      </trkpt>
      <trkpt lat="46.9256" lon="-2.07716">
        <ele>2.8</ele>
        <time>2020-06-04T13:53:24Z</time>
      </trkpt>
      <trkpt lat="46.9256" lon="-2.07709">
        <ele>2.8</ele>
        <time>2020-06-04T13:53:25Z</time>
      </trkpt>
      <trkpt lat="46.92559" lon="-2.07702">
        <ele>2.8</ele>
        <time>2020-06-04T13:53:26Z</time>
      </trkpt>
      <trkpt lat="46.9256" lon="-2.07694">
        <ele>2.8</ele>
        <time>2020-06-04T13:53:27Z</time>
      </trkpt>
      <trkpt lat="46.9256" lon="-2.07687">
        <ele>2.8</ele>
        <time>2020-06-04T13:53:28Z</time>
      </trkpt>
      <trkpt lat="46.92561" lon="-2.0768">
        <ele>2.8</ele>
        <time>2020-06-04T13:53:29Z</time>
      </trkpt>
      <trkpt lat="46.92562" lon="-2.07674">
        <ele>2.8</ele>
        <time>2020-06-04T13:53:30Z</time>
      </trkpt>
      <trkpt lat="46.92563" lon="-2.07668">
        <ele>2.8</ele>
        <time>2020-06-04T13:53:31Z</time>
      </trkpt>
      <trkpt lat="46.92565" lon="-2.07662">
        <ele>2.8</ele>
        <time>2020-06-04T13:53:32Z</time>
      </trkpt>
      <trkpt lat="46.92567" lon="-2.07656">
        <ele>2.8</ele>
        <time>2020-06-04T13:53:33Z</time>
      </trkpt>
      <trkpt lat="46.92568" lon="-2.0765">
        <ele>2.8</ele>
        <time>2020-06-04T13:53:34Z</time>
      </trkpt>
      <trkpt lat="46.9257" lon="-2.07642">
        <ele>2.8</ele>
        <time>2020-06-04T13:53:35Z</time>
      </trkpt>
      <trkpt lat="46.92573" lon="-2.07636">
        <ele>2.8</ele>
        <time>2020-06-04T13:53:36Z</time>
      </trkpt>
      <trkpt lat="46.92577" lon="-2.07631">
        <ele>2.8</ele>
        <time>2020-06-04T13:53:37Z</time>
      </trkpt>
      <trkpt lat="46.92581" lon="-2.07627">
        <ele>2.8</ele>
        <time>2020-06-04T13:53:38Z</time>
      </trkpt>
      <trkpt lat="46.92586" lon="-2.07624">
        <ele>2.8</ele>
        <time>2020-06-04T13:53:39Z</time>
      </trkpt>
      <trkpt lat="46.9259" lon="-2.0762">
        <ele>2.8</ele>
        <time>2020-06-04T13:53:40Z</time>
      </trkpt>
      <trkpt lat="46.92593" lon="-2.07615">
        <ele>2.8</ele>
        <time>2020-06-04T13:53:41Z</time>
      </trkpt>
      <trkpt lat="46.92598" lon="-2.0761">
        <ele>2.8</ele>
        <time>2020-06-04T13:53:42Z</time>
      </trkpt>
      <trkpt lat="46.92602" lon="-2.07606">
        <ele>2.8</ele>
        <time>2020-06-04T13:53:43Z</time>
      </trkpt>
      <trkpt lat="46.92606" lon="-2.076">
        <ele>2.8</ele>
        <time>2020-06-04T13:53:44Z</time>
      </trkpt>
      <trkpt lat="46.9261" lon="-2.07595">
        <ele>2.8</ele>
        <time>2020-06-04T13:53:45Z</time>
      </trkpt>
      <trkpt lat="46.92613" lon="-2.0759">
        <ele>2.8</ele>
        <time>2020-06-04T13:53:46Z</time>
      </trkpt>
      <trkpt lat="46.92614" lon="-2.07583">
        <ele>2.8</ele>
        <time>2020-06-04T13:53:47Z</time>
      </trkpt>
      <trkpt lat="46.92615" lon="-2.07576">
        <ele>2.9</ele>
        <time>2020-06-04T13:53:48Z</time>
      </trkpt>
      <trkpt lat="46.92616" lon="-2.0757">
        <ele>2.9</ele>
        <time>2020-06-04T13:53:49Z</time>
      </trkpt>
      <trkpt lat="46.92617" lon="-2.07564">
        <ele>2.9</ele>
        <time>2020-06-04T13:53:50Z</time>
      </trkpt>
      <trkpt lat="46.92618" lon="-2.07558">
        <ele>2.9</ele>
        <time>2020-06-04T13:53:51Z</time>
      </trkpt>
      <trkpt lat="46.92619" lon="-2.07552">
        <ele>2.9</ele>
        <time>2020-06-04T13:53:52Z</time>
      </trkpt>
      <trkpt lat="46.9262" lon="-2.07544">
        <ele>2.9</ele>
        <time>2020-06-04T13:53:53Z</time>
      </trkpt>
      <trkpt lat="46.9262" lon="-2.07538">
        <ele>2.9</ele>
        <time>2020-06-04T13:53:54Z</time>
      </trkpt>
      <trkpt lat="46.9262" lon="-2.07534">
        <ele>2.9</ele>
        <time>2020-06-04T13:53:55Z</time>
      </trkpt>
      <trkpt lat="46.9262" lon="-2.07532">
        <ele>2.9</ele>
        <time>2020-06-04T13:53:56Z</time>
      </trkpt>
      <trkpt lat="46.92621" lon="-2.07531">
        <ele>2.9</ele>
        <time>2020-06-04T13:53:57Z</time>
      </trkpt>
      <trkpt lat="46.92621" lon="-2.07531">
        <ele>2.9</ele>
        <time>2020-06-04T13:53:58Z</time>
      </trkpt>
      <trkpt lat="46.92621" lon="-2.07531">
        <ele>2.9</ele>
        <time>2020-06-04T13:53:59Z</time>
      </trkpt>
      <trkpt lat="46.92622" lon="-2.0753">
        <ele>2.9</ele>
        <time>2020-06-04T13:54:00Z</time>
      </trkpt>
      <trkpt lat="46.92622" lon="-2.0753">
        <ele>2.9</ele>
        <time>2020-06-04T13:54:01Z</time>
      </trkpt>
      <trkpt lat="46.92622" lon="-2.0753">
        <ele>2.9</ele>
        <time>2020-06-04T13:54:02Z</time>
      </trkpt>
      <trkpt lat="46.92623" lon="-2.07529">
        <ele>2.9</ele>
        <time>2020-06-04T13:54:03Z</time>
      </trkpt>
      <trkpt lat="46.92625" lon="-2.07527">
        <ele>2.9</ele>
        <time>2020-06-04T13:54:04Z</time>
      </trkpt>
      <trkpt lat="46.92628" lon="-2.07524">
        <ele>2.8</ele>
        <time>2020-06-04T13:54:05Z</time>
      </trkpt>
      <trkpt lat="46.92631" lon="-2.07522">
        <ele>2.8</ele>
        <time>2020-06-04T13:54:06Z</time>
      </trkpt>
      <trkpt lat="46.92635" lon="-2.07519">
        <ele>2.8</ele>
        <time>2020-06-04T13:54:07Z</time>
      </trkpt>
      <trkpt lat="46.92639" lon="-2.07517">
        <ele>2.8</ele>
        <time>2020-06-04T13:54:08Z</time>
      </trkpt>
      <trkpt lat="46.92642" lon="-2.07516">
        <ele>2.8</ele>
        <time>2020-06-04T13:54:09Z</time>
      </trkpt>
      <trkpt lat="46.92646" lon="-2.07515">
        <ele>2.7</ele>
        <time>2020-06-04T13:54:10Z</time>
      </trkpt>
      <trkpt lat="46.9265" lon="-2.07512">
        <ele>2.7</ele>
        <time>2020-06-04T13:54:11Z</time>
      </trkpt>
      <trkpt lat="46.92654" lon="-2.0751">
        <ele>2.7</ele>
        <time>2020-06-04T13:54:12Z</time>
      </trkpt>
      <trkpt lat="46.92659" lon="-2.07506">
        <ele>2.7</ele>
        <time>2020-06-04T13:54:13Z</time>
      </trkpt>
      <trkpt lat="46.92663" lon="-2.07504">
        <ele>2.7</ele>
        <time>2020-06-04T13:54:14Z</time>
      </trkpt>
      <trkpt lat="46.92668" lon="-2.07501">
        <ele>2.6</ele>
        <time>2020-06-04T13:54:15Z</time>
      </trkpt>
      <trkpt lat="46.92673" lon="-2.07499">
        <ele>2.6</ele>
        <time>2020-06-04T13:54:16Z</time>
      </trkpt>
      <trkpt lat="46.92677" lon="-2.07497">
        <ele>2.6</ele>
        <time>2020-06-04T13:54:17Z</time>
      </trkpt>
      <trkpt lat="46.92681" lon="-2.07494">
        <ele>2.5</ele>
        <time>2020-06-04T13:54:18Z</time>
      </trkpt>
      <trkpt lat="46.92686" lon="-2.07492">
        <ele>2.5</ele>
        <time>2020-06-04T13:54:19Z</time>
      </trkpt>
      <trkpt lat="46.92691" lon="-2.07489">
        <ele>2.5</ele>
        <time>2020-06-04T13:54:20Z</time>
      </trkpt>
      <trkpt lat="46.92696" lon="-2.07487">
        <ele>2.4</ele>
        <time>2020-06-04T13:54:21Z</time>
      </trkpt>
      <trkpt lat="46.927" lon="-2.07485">
        <ele>2.4</ele>
        <time>2020-06-04T13:54:22Z</time>
      </trkpt>
      <trkpt lat="46.92704" lon="-2.07482">
        <ele>2.4</ele>
        <time>2020-06-04T13:54:23Z</time>
      </trkpt>
      <trkpt lat="46.92708" lon="-2.07481">
        <ele>2.3</ele>
        <time>2020-06-04T13:54:24Z</time>
      </trkpt>
      <trkpt lat="46.92712" lon="-2.07479">
        <ele>2.3</ele>
        <time>2020-06-04T13:54:25Z</time>
      </trkpt>
      <trkpt lat="46.92717" lon="-2.07477">
        <ele>2.3</ele>
        <time>2020-06-04T13:54:26Z</time>
      </trkpt>
      <trkpt lat="46.92722" lon="-2.07476">
        <ele>2.2</ele>
        <time>2020-06-04T13:54:27Z</time>
      </trkpt>
      <trkpt lat="46.92727" lon="-2.07473">
        <ele>2.2</ele>
        <time>2020-06-04T13:54:28Z</time>
      </trkpt>
      <trkpt lat="46.92732" lon="-2.0747">
        <ele>2.2</ele>
        <time>2020-06-04T13:54:29Z</time>
      </trkpt>
      <trkpt lat="46.92737" lon="-2.07469">
        <ele>2.1</ele>
        <time>2020-06-04T13:54:30Z</time>
      </trkpt>
      <trkpt lat="46.92741" lon="-2.07466">
        <ele>2.1</ele>
        <time>2020-06-04T13:54:31Z</time>
      </trkpt>
      <trkpt lat="46.92745" lon="-2.07464">
        <ele>2.1</ele>
        <time>2020-06-04T13:54:32Z</time>
      </trkpt>
      <trkpt lat="46.92749" lon="-2.07461">
        <ele>2.1</ele>
        <time>2020-06-04T13:54:33Z</time>
      </trkpt>
      <trkpt lat="46.92753" lon="-2.07458">
        <ele>2.1</ele>
        <time>2020-06-04T13:54:34Z</time>
      </trkpt>
      <trkpt lat="46.92757" lon="-2.07456">
        <ele>2.1</ele>
        <time>2020-06-04T13:54:35Z</time>
      </trkpt>
      <trkpt lat="46.92762" lon="-2.07454">
        <ele>2.1</ele>
        <time>2020-06-04T13:54:36Z</time>
      </trkpt>
      <trkpt lat="46.92767" lon="-2.07452">
        <ele>2.1</ele>
        <time>2020-06-04T13:54:37Z</time>
      </trkpt>
      <trkpt lat="46.92772" lon="-2.0745">
        <ele>2.1</ele>
        <time>2020-06-04T13:54:38Z</time>
      </trkpt>
      <trkpt lat="46.92776" lon="-2.07448">
        <ele>2.1</ele>
        <time>2020-06-04T13:54:39Z</time>
      </trkpt>
      <trkpt lat="46.92781" lon="-2.07447">
        <ele>2.1</ele>
        <time>2020-06-04T13:54:40Z</time>
      </trkpt>
      <trkpt lat="46.92785" lon="-2.07446">
        <ele>2.1</ele>
        <time>2020-06-04T13:54:41Z</time>
      </trkpt>
      <trkpt lat="46.9279" lon="-2.07444">
        <ele>2.1</ele>
        <time>2020-06-04T13:54:42Z</time>
      </trkpt>
      <trkpt lat="46.92795" lon="-2.07442">
        <ele>2.1</ele>
        <time>2020-06-04T13:54:43Z</time>
      </trkpt>
      <trkpt lat="46.928" lon="-2.07441">
        <ele>2.1</ele>
        <time>2020-06-04T13:54:44Z</time>
      </trkpt>
      <trkpt lat="46.92805" lon="-2.07439">
        <ele>2.1</ele>
        <time>2020-06-04T13:54:45Z</time>
      </trkpt>
      <trkpt lat="46.9281" lon="-2.07437">
        <ele>2</ele>
        <time>2020-06-04T13:54:46Z</time>
      </trkpt>
      <trkpt lat="46.92815" lon="-2.07435">
        <ele>2</ele>
        <time>2020-06-04T13:54:47Z</time>
      </trkpt>
      <trkpt lat="46.92819" lon="-2.07433">
        <ele>2</ele>
        <time>2020-06-04T13:54:48Z</time>
      </trkpt>
      <trkpt lat="46.92823" lon="-2.07431">
        <ele>2</ele>
        <time>2020-06-04T13:54:49Z</time>
      </trkpt>
      <trkpt lat="46.92828" lon="-2.07429">
        <ele>2</ele>
        <time>2020-06-04T13:54:50Z</time>
      </trkpt>
      <trkpt lat="46.92832" lon="-2.07428">
        <ele>2</ele>
        <time>2020-06-04T13:54:51Z</time>
      </trkpt>
      <trkpt lat="46.92837" lon="-2.07427">
        <ele>2</ele>
        <time>2020-06-04T13:54:52Z</time>
      </trkpt>
      <trkpt lat="46.92841" lon="-2.07426">
        <ele>2</ele>
        <time>2020-06-04T13:54:53Z</time>
      </trkpt>
      <trkpt lat="46.92846" lon="-2.07424">
        <ele>2</ele>
        <time>2020-06-04T13:54:54Z</time>
      </trkpt>
      <trkpt lat="46.9285" lon="-2.07421">
        <ele>2</ele>
        <time>2020-06-04T13:54:55Z</time>
      </trkpt>
      <trkpt lat="46.92855" lon="-2.07419">
        <ele>2</ele>
        <time>2020-06-04T13:54:56Z</time>
      </trkpt>
      <trkpt lat="46.9286" lon="-2.07416">
        <ele>2</ele>
        <time>2020-06-04T13:54:57Z</time>
      </trkpt>
      <trkpt lat="46.92865" lon="-2.07414">
        <ele>2</ele>
        <time>2020-06-04T13:54:58Z</time>
      </trkpt>
      <trkpt lat="46.9287" lon="-2.07413">
        <ele>2</ele>
        <time>2020-06-04T13:54:59Z</time>
      </trkpt>
      <trkpt lat="46.92874" lon="-2.07411">
        <ele>2</ele>
        <time>2020-06-04T13:55:00Z</time>
      </trkpt>
      <trkpt lat="46.92879" lon="-2.07409">
        <ele>2</ele>
        <time>2020-06-04T13:55:01Z</time>
      </trkpt>
      <trkpt lat="46.92883" lon="-2.07405">
        <ele>2</ele>
        <time>2020-06-04T13:55:02Z</time>
      </trkpt>
      <trkpt lat="46.92887" lon="-2.07403">
        <ele>2</ele>
        <time>2020-06-04T13:55:03Z</time>
      </trkpt>
      <trkpt lat="46.92891" lon="-2.07401">
        <ele>2</ele>
        <time>2020-06-04T13:55:04Z</time>
      </trkpt>
      <trkpt lat="46.92895" lon="-2.07399">
        <ele>2</ele>
        <time>2020-06-04T13:55:05Z</time>
      </trkpt>
      <trkpt lat="46.92899" lon="-2.07397">
        <ele>2</ele>
        <time>2020-06-04T13:55:06Z</time>
      </trkpt>
      <trkpt lat="46.92903" lon="-2.07394">
        <ele>2</ele>
        <time>2020-06-04T13:55:07Z</time>
      </trkpt>
      <trkpt lat="46.92907" lon="-2.07392">
        <ele>2</ele>
        <time>2020-06-04T13:55:08Z</time>
      </trkpt>
      <trkpt lat="46.92912" lon="-2.0739">
        <ele>2</ele>
        <time>2020-06-04T13:55:09Z</time>
      </trkpt>
      <trkpt lat="46.92916" lon="-2.07388">
        <ele>2</ele>
        <time>2020-06-04T13:55:10Z</time>
      </trkpt>
      <trkpt lat="46.92919" lon="-2.07388">
        <ele>2</ele>
        <time>2020-06-04T13:55:11Z</time>
      </trkpt>
      <trkpt lat="46.92924" lon="-2.07387">
        <ele>2</ele>
        <time>2020-06-04T13:55:12Z</time>
      </trkpt>
      <trkpt lat="46.92928" lon="-2.07386">
        <ele>2</ele>
        <time>2020-06-04T13:55:13Z</time>
      </trkpt>
      <trkpt lat="46.92932" lon="-2.07384">
        <ele>2</ele>
        <time>2020-06-04T13:55:14Z</time>
      </trkpt>
      <trkpt lat="46.92936" lon="-2.07381">
        <ele>2</ele>
        <time>2020-06-04T13:55:15Z</time>
      </trkpt>
      <trkpt lat="46.92941" lon="-2.07379">
        <ele>2</ele>
        <time>2020-06-04T13:55:16Z</time>
      </trkpt>
      <trkpt lat="46.92945" lon="-2.07377">
        <ele>2</ele>
        <time>2020-06-04T13:55:17Z</time>
      </trkpt>
      <trkpt lat="46.9295" lon="-2.07375">
        <ele>2</ele>
        <time>2020-06-04T13:55:18Z</time>
      </trkpt>
      <trkpt lat="46.92954" lon="-2.07373">
        <ele>2</ele>
        <time>2020-06-04T13:55:19Z</time>
      </trkpt>
      <trkpt lat="46.92959" lon="-2.07371">
        <ele>2</ele>
        <time>2020-06-04T13:55:20Z</time>
      </trkpt>
      <trkpt lat="46.92963" lon="-2.07369">
        <ele>2</ele>
        <time>2020-06-04T13:55:21Z</time>
      </trkpt>
      <trkpt lat="46.92968" lon="-2.07367">
        <ele>2</ele>
        <time>2020-06-04T13:55:22Z</time>
      </trkpt>
      <trkpt lat="46.92972" lon="-2.07365">
        <ele>2</ele>
        <time>2020-06-04T13:55:23Z</time>
      </trkpt>
      <trkpt lat="46.92976" lon="-2.07361">
        <ele>2</ele>
        <time>2020-06-04T13:55:24Z</time>
      </trkpt>
      <trkpt lat="46.92981" lon="-2.07358">
        <ele>2</ele>
        <time>2020-06-04T13:55:25Z</time>
      </trkpt>
      <trkpt lat="46.92987" lon="-2.07355">
        <ele>2</ele>
        <time>2020-06-04T13:55:26Z</time>
      </trkpt>
      <trkpt lat="46.92992" lon="-2.07352">
        <ele>2</ele>
        <time>2020-06-04T13:55:27Z</time>
      </trkpt>
      <trkpt lat="46.92996" lon="-2.0735">
        <ele>2</ele>
        <time>2020-06-04T13:55:28Z</time>
      </trkpt>
      <trkpt lat="46.93" lon="-2.07349">
        <ele>2</ele>
        <time>2020-06-04T13:55:29Z</time>
      </trkpt>
      <trkpt lat="46.93004" lon="-2.07347">
        <ele>2</ele>
        <time>2020-06-04T13:55:30Z</time>
      </trkpt>
      <trkpt lat="46.93009" lon="-2.07343">
        <ele>2</ele>
        <time>2020-06-04T13:55:31Z</time>
      </trkpt>
      <trkpt lat="46.93015" lon="-2.0734">
        <ele>2</ele>
        <time>2020-06-04T13:55:32Z</time>
      </trkpt>
      <trkpt lat="46.93021" lon="-2.07339">
        <ele>2</ele>
        <time>2020-06-04T13:55:33Z</time>
      </trkpt>
      <trkpt lat="46.93026" lon="-2.07337">
        <ele>2</ele>
        <time>2020-06-04T13:55:34Z</time>
      </trkpt>
      <trkpt lat="46.93032" lon="-2.07336">
        <ele>2</ele>
        <time>2020-06-04T13:55:35Z</time>
      </trkpt>
      <trkpt lat="46.93037" lon="-2.07334">
        <ele>1.9</ele>
        <time>2020-06-04T13:55:36Z</time>
      </trkpt>
      <trkpt lat="46.93042" lon="-2.07332">
        <ele>1.9</ele>
        <time>2020-06-04T13:55:37Z</time>
      </trkpt>
      <trkpt lat="46.93047" lon="-2.07329">
        <ele>1.9</ele>
        <time>2020-06-04T13:55:38Z</time>
      </trkpt>
      <trkpt lat="46.93051" lon="-2.07326">
        <ele>1.9</ele>
        <time>2020-06-04T13:55:39Z</time>
      </trkpt>
      <trkpt lat="46.93056" lon="-2.07325">
        <ele>1.9</ele>
        <time>2020-06-04T13:55:40Z</time>
      </trkpt>
      <trkpt lat="46.93061" lon="-2.07322">
        <ele>1.9</ele>
        <time>2020-06-04T13:55:41Z</time>
      </trkpt>
      <trkpt lat="46.93067" lon="-2.0732">
        <ele>1.9</ele>
        <time>2020-06-04T13:55:42Z</time>
      </trkpt>
      <trkpt lat="46.93072" lon="-2.07318">
        <ele>2</ele>
        <time>2020-06-04T13:55:43Z</time>
      </trkpt>
      <trkpt lat="46.93077" lon="-2.07316">
        <ele>2</ele>
        <time>2020-06-04T13:55:44Z</time>
      </trkpt>
      <trkpt lat="46.93082" lon="-2.07315">
        <ele>2</ele>
        <time>2020-06-04T13:55:45Z</time>
      </trkpt>
      <trkpt lat="46.93087" lon="-2.07312">
        <ele>2</ele>
        <time>2020-06-04T13:55:46Z</time>
      </trkpt>
      <trkpt lat="46.93092" lon="-2.0731">
        <ele>2</ele>
        <time>2020-06-04T13:55:47Z</time>
      </trkpt>
      <trkpt lat="46.93097" lon="-2.07308">
        <ele>2</ele>
        <time>2020-06-04T13:55:48Z</time>
      </trkpt>
      <trkpt lat="46.93102" lon="-2.07305">
        <ele>2</ele>
        <time>2020-06-04T13:55:49Z</time>
      </trkpt>
      <trkpt lat="46.93107" lon="-2.07302">
        <ele>2</ele>
        <time>2020-06-04T13:55:50Z</time>
      </trkpt>
      <trkpt lat="46.93112" lon="-2.073">
        <ele>2</ele>
        <time>2020-06-04T13:55:51Z</time>
      </trkpt>
      <trkpt lat="46.93117" lon="-2.07298">
        <ele>2</ele>
        <time>2020-06-04T13:55:52Z</time>
      </trkpt>
      <trkpt lat="46.93122" lon="-2.07295">
        <ele>2</ele>
        <time>2020-06-04T13:55:53Z</time>
      </trkpt>
      <trkpt lat="46.93127" lon="-2.07293">
        <ele>2</ele>
        <time>2020-06-04T13:55:54Z</time>
      </trkpt>
      <trkpt lat="46.93132" lon="-2.0729">
        <ele>2</ele>
        <time>2020-06-04T13:55:55Z</time>
      </trkpt>
      <trkpt lat="46.93137" lon="-2.07288">
        <ele>2</ele>
        <time>2020-06-04T13:55:56Z</time>
      </trkpt>
      <trkpt lat="46.93142" lon="-2.07285">
        <ele>2</ele>
        <time>2020-06-04T13:55:57Z</time>
      </trkpt>
      <trkpt lat="46.93146" lon="-2.07283">
        <ele>2</ele>
        <time>2020-06-04T13:55:58Z</time>
      </trkpt>
      <trkpt lat="46.93151" lon="-2.07282">
        <ele>2</ele>
        <time>2020-06-04T13:55:59Z</time>
      </trkpt>
      <trkpt lat="46.93155" lon="-2.0728">
        <ele>2</ele>
        <time>2020-06-04T13:56:00Z</time>
      </trkpt>
      <trkpt lat="46.93159" lon="-2.07278">
        <ele>2</ele>
        <time>2020-06-04T13:56:01Z</time>
      </trkpt>
      <trkpt lat="46.93162" lon="-2.07275">
        <ele>2</ele>
        <time>2020-06-04T13:56:02Z</time>
      </trkpt>
      <trkpt lat="46.93167" lon="-2.07272">
        <ele>2</ele>
        <time>2020-06-04T13:56:03Z</time>
      </trkpt>
      <trkpt lat="46.93172" lon="-2.07269">
        <ele>2</ele>
        <time>2020-06-04T13:56:04Z</time>
      </trkpt>
      <trkpt lat="46.93177" lon="-2.07266">
        <ele>2</ele>
        <time>2020-06-04T13:56:05Z</time>
      </trkpt>
      <trkpt lat="46.93182" lon="-2.07263">
        <ele>2</ele>
        <time>2020-06-04T13:56:06Z</time>
      </trkpt>
      <trkpt lat="46.93187" lon="-2.07261">
        <ele>2</ele>
        <time>2020-06-04T13:56:07Z</time>
      </trkpt>
      <trkpt lat="46.93192" lon="-2.0726">
        <ele>2</ele>
        <time>2020-06-04T13:56:08Z</time>
      </trkpt>
      <trkpt lat="46.93197" lon="-2.07259">
        <ele>2</ele>
        <time>2020-06-04T13:56:09Z</time>
      </trkpt>
      <trkpt lat="46.93203" lon="-2.07258">
        <ele>2</ele>
        <time>2020-06-04T13:56:10Z</time>
      </trkpt>
      <trkpt lat="46.93209" lon="-2.07256">
        <ele>2</ele>
        <time>2020-06-04T13:56:11Z</time>
      </trkpt>
      <trkpt lat="46.93214" lon="-2.07253">
        <ele>2</ele>
        <time>2020-06-04T13:56:12Z</time>
      </trkpt>
      <trkpt lat="46.9322" lon="-2.07251">
        <ele>2</ele>
        <time>2020-06-04T13:56:13Z</time>
      </trkpt>
      <trkpt lat="46.93225" lon="-2.07248">
        <ele>2</ele>
        <time>2020-06-04T13:56:14Z</time>
      </trkpt>
      <trkpt lat="46.9323" lon="-2.07245">
        <ele>2</ele>
        <time>2020-06-04T13:56:15Z</time>
      </trkpt>
      <trkpt lat="46.93234" lon="-2.07243">
        <ele>2</ele>
        <time>2020-06-04T13:56:16Z</time>
      </trkpt>
      <trkpt lat="46.93238" lon="-2.07241">
        <ele>2</ele>
        <time>2020-06-04T13:56:17Z</time>
      </trkpt>
      <trkpt lat="46.93243" lon="-2.07239">
        <ele>2</ele>
        <time>2020-06-04T13:56:18Z</time>
      </trkpt>
      <trkpt lat="46.93248" lon="-2.07237">
        <ele>2</ele>
        <time>2020-06-04T13:56:19Z</time>
      </trkpt>
      <trkpt lat="46.93253" lon="-2.07236">
        <ele>2</ele>
        <time>2020-06-04T13:56:20Z</time>
      </trkpt>
      <trkpt lat="46.93257" lon="-2.07232">
        <ele>2.1</ele>
        <time>2020-06-04T13:56:21Z</time>
      </trkpt>
      <trkpt lat="46.93263" lon="-2.07229">
        <ele>2.1</ele>
        <time>2020-06-04T13:56:22Z</time>
      </trkpt>
      <trkpt lat="46.93268" lon="-2.07227">
        <ele>2.1</ele>
        <time>2020-06-04T13:56:23Z</time>
      </trkpt>
      <trkpt lat="46.93273" lon="-2.07224">
        <ele>2.1</ele>
        <time>2020-06-04T13:56:24Z</time>
      </trkpt>
      <trkpt lat="46.93277" lon="-2.07222">
        <ele>2.1</ele>
        <time>2020-06-04T13:56:25Z</time>
      </trkpt>
      <trkpt lat="46.93282" lon="-2.0722">
        <ele>2.1</ele>
        <time>2020-06-04T13:56:26Z</time>
      </trkpt>
      <trkpt lat="46.93287" lon="-2.07216">
        <ele>2.1</ele>
        <time>2020-06-04T13:56:27Z</time>
      </trkpt>
      <trkpt lat="46.93292" lon="-2.07215">
        <ele>2</ele>
        <time>2020-06-04T13:56:28Z</time>
      </trkpt>
      <trkpt lat="46.93296" lon="-2.07214">
        <ele>2</ele>
        <time>2020-06-04T13:56:29Z</time>
      </trkpt>
      <trkpt lat="46.93302" lon="-2.07213">
        <ele>2</ele>
        <time>2020-06-04T13:56:30Z</time>
      </trkpt>
      <trkpt lat="46.93307" lon="-2.0721">
        <ele>2</ele>
        <time>2020-06-04T13:56:31Z</time>
      </trkpt>
      <trkpt lat="46.93312" lon="-2.07209">
        <ele>2</ele>
        <time>2020-06-04T13:56:32Z</time>
      </trkpt>
      <trkpt lat="46.93317" lon="-2.07207">
        <ele>2</ele>
        <time>2020-06-04T13:56:33Z</time>
      </trkpt>
      <trkpt lat="46.93322" lon="-2.07204">
        <ele>2</ele>
        <time>2020-06-04T13:56:34Z</time>
      </trkpt>
      <trkpt lat="46.93326" lon="-2.07203">
        <ele>1.9</ele>
        <time>2020-06-04T13:56:35Z</time>
      </trkpt>
      <trkpt lat="46.93331" lon="-2.072">
        <ele>1.9</ele>
        <time>2020-06-04T13:56:36Z</time>
      </trkpt>
      <trkpt lat="46.93335" lon="-2.07197">
        <ele>1.9</ele>
        <time>2020-06-04T13:56:37Z</time>
      </trkpt>
      <trkpt lat="46.93341" lon="-2.07195">
        <ele>1.9</ele>
        <time>2020-06-04T13:56:38Z</time>
      </trkpt>
      <trkpt lat="46.93347" lon="-2.07193">
        <ele>1.9</ele>
        <time>2020-06-04T13:56:39Z</time>
      </trkpt>
      <trkpt lat="46.93352" lon="-2.0719">
        <ele>1.9</ele>
        <time>2020-06-04T13:56:40Z</time>
      </trkpt>
      <trkpt lat="46.93358" lon="-2.07187">
        <ele>1.9</ele>
        <time>2020-06-04T13:56:41Z</time>
      </trkpt>
      <trkpt lat="46.93363" lon="-2.07185">
        <ele>1.9</ele>
        <time>2020-06-04T13:56:42Z</time>
      </trkpt>
      <trkpt lat="46.93368" lon="-2.07182">
        <ele>1.9</ele>
        <time>2020-06-04T13:56:43Z</time>
      </trkpt>
      <trkpt lat="46.93372" lon="-2.07178">
        <ele>1.8</ele>
        <time>2020-06-04T13:56:44Z</time>
      </trkpt>
      <trkpt lat="46.93377" lon="-2.07176">
        <ele>1.8</ele>
        <time>2020-06-04T13:56:45Z</time>
      </trkpt>
      <trkpt lat="46.93381" lon="-2.07173">
        <ele>1.8</ele>
        <time>2020-06-04T13:56:46Z</time>
      </trkpt>
      <trkpt lat="46.93385" lon="-2.0717">
        <ele>1.8</ele>
        <time>2020-06-04T13:56:47Z</time>
      </trkpt>
      <trkpt lat="46.93389" lon="-2.07167">
        <ele>1.8</ele>
        <time>2020-06-04T13:56:48Z</time>
      </trkpt>
      <trkpt lat="46.93394" lon="-2.07165">
        <ele>1.8</ele>
        <time>2020-06-04T13:56:49Z</time>
      </trkpt>
      <trkpt lat="46.934" lon="-2.07163">
        <ele>1.8</ele>
        <time>2020-06-04T13:56:50Z</time>
      </trkpt>
      <trkpt lat="46.93405" lon="-2.0716">
        <ele>1.8</ele>
        <time>2020-06-04T13:56:51Z</time>
      </trkpt>
      <trkpt lat="46.9341" lon="-2.07156">
        <ele>1.8</ele>
        <time>2020-06-04T13:56:52Z</time>
      </trkpt>
      <trkpt lat="46.93416" lon="-2.07156">
        <ele>1.9</ele>
        <time>2020-06-04T13:56:53Z</time>
      </trkpt>
      <trkpt lat="46.93422" lon="-2.07153">
        <ele>1.9</ele>
        <time>2020-06-04T13:56:54Z</time>
      </trkpt>
      <trkpt lat="46.93426" lon="-2.07151">
        <ele>2</ele>
        <time>2020-06-04T13:56:55Z</time>
      </trkpt>
      <trkpt lat="46.93431" lon="-2.07149">
        <ele>2</ele>
        <time>2020-06-04T13:56:56Z</time>
      </trkpt>
      <trkpt lat="46.93436" lon="-2.07146">
        <ele>2.1</ele>
        <time>2020-06-04T13:56:57Z</time>
      </trkpt>
      <trkpt lat="46.93441" lon="-2.07143">
        <ele>2.1</ele>
        <time>2020-06-04T13:56:58Z</time>
      </trkpt>
      <trkpt lat="46.93446" lon="-2.07141">
        <ele>2.1</ele>
        <time>2020-06-04T13:56:59Z</time>
      </trkpt>
      <trkpt lat="46.93451" lon="-2.0714">
        <ele>2.1</ele>
        <time>2020-06-04T13:57:00Z</time>
      </trkpt>
      <trkpt lat="46.93455" lon="-2.07139">
        <ele>2.1</ele>
        <time>2020-06-04T13:57:01Z</time>
      </trkpt>
      <trkpt lat="46.93458" lon="-2.07136">
        <ele>2.1</ele>
        <time>2020-06-04T13:57:02Z</time>
      </trkpt>
      <trkpt lat="46.93462" lon="-2.07135">
        <ele>2.2</ele>
        <time>2020-06-04T13:57:03Z</time>
      </trkpt>
      <trkpt lat="46.93466" lon="-2.07134">
        <ele>2.2</ele>
        <time>2020-06-04T13:57:04Z</time>
      </trkpt>
      <trkpt lat="46.93469" lon="-2.07133">
        <ele>2.3</ele>
        <time>2020-06-04T13:57:05Z</time>
      </trkpt>
      <trkpt lat="46.93473" lon="-2.07132">
        <ele>2.3</ele>
        <time>2020-06-04T13:57:06Z</time>
      </trkpt>
      <trkpt lat="46.93477" lon="-2.07129">
        <ele>2.4</ele>
        <time>2020-06-04T13:57:07Z</time>
      </trkpt>
      <trkpt lat="46.93481" lon="-2.07127">
        <ele>2.5</ele>
        <time>2020-06-04T13:57:08Z</time>
      </trkpt>
      <trkpt lat="46.93482" lon="-2.07122">
        <ele>2.5</ele>
        <time>2020-06-04T13:57:09Z</time>
      </trkpt>
      <trkpt lat="46.93485" lon="-2.0712">
        <ele>2.5</ele>
        <time>2020-06-04T13:57:10Z</time>
      </trkpt>
      <trkpt lat="46.93489" lon="-2.07116">
        <ele>2.6</ele>
        <time>2020-06-04T13:57:11Z</time>
      </trkpt>
      <trkpt lat="46.93492" lon="-2.07112">
        <ele>2.7</ele>
        <time>2020-06-04T13:57:12Z</time>
      </trkpt>
      <trkpt lat="46.93495" lon="-2.07108">
        <ele>2.7</ele>
        <time>2020-06-04T13:57:13Z</time>
      </trkpt>
      <trkpt lat="46.93499" lon="-2.07104">
        <ele>2.8</ele>
        <time>2020-06-04T13:57:14Z</time>
      </trkpt>
      <trkpt lat="46.93501" lon="-2.07099">
        <ele>2.9</ele>
        <time>2020-06-04T13:57:15Z</time>
      </trkpt>
      <trkpt lat="46.93501" lon="-2.07094">
        <ele>2.9</ele>
        <time>2020-06-04T13:57:16Z</time>
      </trkpt>
      <trkpt lat="46.93502" lon="-2.0709">
        <ele>3</ele>
        <time>2020-06-04T13:57:17Z</time>
      </trkpt>
      <trkpt lat="46.93504" lon="-2.07086">
        <ele>3</ele>
        <time>2020-06-04T13:57:18Z</time>
      </trkpt>
      <trkpt lat="46.93505" lon="-2.07081">
        <ele>3</ele>
        <time>2020-06-04T13:57:19Z</time>
      </trkpt>
      <trkpt lat="46.93505" lon="-2.07079">
        <ele>3</ele>
        <time>2020-06-04T13:57:20Z</time>
      </trkpt>
      <trkpt lat="46.93505" lon="-2.07075">
        <ele>3</ele>
        <time>2020-06-04T13:57:21Z</time>
      </trkpt>
      <trkpt lat="46.93505" lon="-2.07071">
        <ele>3</ele>
        <time>2020-06-04T13:57:22Z</time>
      </trkpt>
      <trkpt lat="46.93505" lon="-2.07067">
        <ele>3</ele>
        <time>2020-06-04T13:57:23Z</time>
      </trkpt>
      <trkpt lat="46.93503" lon="-2.07064">
        <ele>3</ele>
        <time>2020-06-04T13:57:24Z</time>
      </trkpt>
      <trkpt lat="46.93502" lon="-2.0706">
        <ele>3</ele>
        <time>2020-06-04T13:57:25Z</time>
      </trkpt>
      <trkpt lat="46.935" lon="-2.07057">
        <ele>3</ele>
        <time>2020-06-04T13:57:26Z</time>
      </trkpt>
      <trkpt lat="46.93497" lon="-2.07054">
        <ele>3</ele>
        <time>2020-06-04T13:57:27Z</time>
      </trkpt>
      <trkpt lat="46.93495" lon="-2.0705">
        <ele>3</ele>
        <time>2020-06-04T13:57:28Z</time>
      </trkpt>
      <trkpt lat="46.93493" lon="-2.07046">
        <ele>3</ele>
        <time>2020-06-04T13:57:29Z</time>
      </trkpt>
      <trkpt lat="46.93491" lon="-2.07042">
        <ele>3</ele>
        <time>2020-06-04T13:57:30Z</time>
      </trkpt>
      <trkpt lat="46.93489" lon="-2.07039">
        <ele>3</ele>
        <time>2020-06-04T13:57:31Z</time>
      </trkpt>
      <trkpt lat="46.93487" lon="-2.07036">
        <ele>3</ele>
        <time>2020-06-04T13:57:32Z</time>
      </trkpt>
      <trkpt lat="46.93484" lon="-2.07033">
        <ele>3</ele>
        <time>2020-06-04T13:57:33Z</time>
      </trkpt>
      <trkpt lat="46.93482" lon="-2.07029">
        <ele>3</ele>
        <time>2020-06-04T13:57:34Z</time>
      </trkpt>
      <trkpt lat="46.9348" lon="-2.07024">
        <ele>3</ele>
        <time>2020-06-04T13:57:35Z</time>
      </trkpt>
      <trkpt lat="46.93477" lon="-2.07019">
        <ele>3</ele>
        <time>2020-06-04T13:57:36Z</time>
      </trkpt>
      <trkpt lat="46.93474" lon="-2.07015">
        <ele>3</ele>
        <time>2020-06-04T13:57:37Z</time>
      </trkpt>
      <trkpt lat="46.93472" lon="-2.07009">
        <ele>3</ele>
        <time>2020-06-04T13:57:38Z</time>
      </trkpt>
      <trkpt lat="46.9347" lon="-2.07004">
        <ele>3</ele>
        <time>2020-06-04T13:57:39Z</time>
      </trkpt>
      <trkpt lat="46.93468" lon="-2.07">
        <ele>3</ele>
        <time>2020-06-04T13:57:40Z</time>
      </trkpt>
      <trkpt lat="46.93466" lon="-2.06996">
        <ele>3</ele>
        <time>2020-06-04T13:57:41Z</time>
      </trkpt>
      <trkpt lat="46.93464" lon="-2.0699">
        <ele>3</ele>
        <time>2020-06-04T13:57:42Z</time>
      </trkpt>
      <trkpt lat="46.93461" lon="-2.06985">
        <ele>3</ele>
        <time>2020-06-04T13:57:43Z</time>
      </trkpt>
      <trkpt lat="46.93458" lon="-2.0698">
        <ele>3</ele>
        <time>2020-06-04T13:57:44Z</time>
      </trkpt>
      <trkpt lat="46.93457" lon="-2.06974">
        <ele>3</ele>
        <time>2020-06-04T13:57:45Z</time>
      </trkpt>
      <trkpt lat="46.93454" lon="-2.0697">
        <ele>3</ele>
        <time>2020-06-04T13:57:46Z</time>
      </trkpt>
      <trkpt lat="46.93451" lon="-2.06965">
        <ele>2.9</ele>
        <time>2020-06-04T13:57:47Z</time>
      </trkpt>
      <trkpt lat="46.93449" lon="-2.0696">
        <ele>2.9</ele>
        <time>2020-06-04T13:57:48Z</time>
      </trkpt>
      <trkpt lat="46.93447" lon="-2.06956">
        <ele>2.9</ele>
        <time>2020-06-04T13:57:49Z</time>
      </trkpt>
      <trkpt lat="46.93444" lon="-2.06951">
        <ele>2.8</ele>
        <time>2020-06-04T13:57:50Z</time>
      </trkpt>
      <trkpt lat="46.93442" lon="-2.06946">
        <ele>2.8</ele>
        <time>2020-06-04T13:57:51Z</time>
      </trkpt>
      <trkpt lat="46.9344" lon="-2.06942">
        <ele>2.7</ele>
        <time>2020-06-04T13:57:52Z</time>
      </trkpt>
      <trkpt lat="46.93438" lon="-2.06934">
        <ele>2.6</ele>
        <time>2020-06-04T13:57:53Z</time>
      </trkpt>
      <trkpt lat="46.93436" lon="-2.06927">
        <ele>2.6</ele>
        <time>2020-06-04T13:57:54Z</time>
      </trkpt>
      <trkpt lat="46.93434" lon="-2.06921">
        <ele>2.5</ele>
        <time>2020-06-04T13:57:55Z</time>
      </trkpt>
      <trkpt lat="46.93431" lon="-2.06917">
        <ele>2.5</ele>
        <time>2020-06-04T13:57:56Z</time>
      </trkpt>
      <trkpt lat="46.93429" lon="-2.06913">
        <ele>2.4</ele>
        <time>2020-06-04T13:57:57Z</time>
      </trkpt>
      <trkpt lat="46.93427" lon="-2.06909">
        <ele>2.4</ele>
        <time>2020-06-04T13:57:58Z</time>
      </trkpt>
      <trkpt lat="46.93425" lon="-2.06905">
        <ele>2.4</ele>
        <time>2020-06-04T13:57:59Z</time>
      </trkpt>
      <trkpt lat="46.93422" lon="-2.06899">
        <ele>2.4</ele>
        <time>2020-06-04T13:58:00Z</time>
      </trkpt>
      <trkpt lat="46.93419" lon="-2.06892">
        <ele>2.4</ele>
        <time>2020-06-04T13:58:01Z</time>
      </trkpt>
      <trkpt lat="46.93417" lon="-2.06888">
        <ele>2.3</ele>
        <time>2020-06-04T13:58:02Z</time>
      </trkpt>
      <trkpt lat="46.93414" lon="-2.06883">
        <ele>2.3</ele>
        <time>2020-06-04T13:58:03Z</time>
      </trkpt>
      <trkpt lat="46.93411" lon="-2.06879">
        <ele>2.3</ele>
        <time>2020-06-04T13:58:04Z</time>
      </trkpt>
      <trkpt lat="46.93409" lon="-2.06875">
        <ele>2.3</ele>
        <time>2020-06-04T13:58:05Z</time>
      </trkpt>
      <trkpt lat="46.93407" lon="-2.0687">
        <ele>2.3</ele>
        <time>2020-06-04T13:58:06Z</time>
      </trkpt>
      <trkpt lat="46.93405" lon="-2.06866">
        <ele>2.3</ele>
        <time>2020-06-04T13:58:07Z</time>
      </trkpt>
      <trkpt lat="46.93403" lon="-2.0686">
        <ele>2.3</ele>
        <time>2020-06-04T13:58:08Z</time>
      </trkpt>
      <trkpt lat="46.93401" lon="-2.06855">
        <ele>2.3</ele>
        <time>2020-06-04T13:58:09Z</time>
      </trkpt>
      <trkpt lat="46.93398" lon="-2.06849">
        <ele>2.3</ele>
        <time>2020-06-04T13:58:10Z</time>
      </trkpt>
      <trkpt lat="46.93395" lon="-2.06844">
        <ele>2.3</ele>
        <time>2020-06-04T13:58:11Z</time>
      </trkpt>
      <trkpt lat="46.93393" lon="-2.06838">
        <ele>2.3</ele>
        <time>2020-06-04T13:58:12Z</time>
      </trkpt>
      <trkpt lat="46.93389" lon="-2.06832">
        <ele>2.2</ele>
        <time>2020-06-04T13:58:13Z</time>
      </trkpt>
      <trkpt lat="46.93386" lon="-2.06825">
        <ele>2.2</ele>
        <time>2020-06-04T13:58:14Z</time>
      </trkpt>
      <trkpt lat="46.93382" lon="-2.06819">
        <ele>2.2</ele>
        <time>2020-06-04T13:58:15Z</time>
      </trkpt>
      <trkpt lat="46.93379" lon="-2.06813">
        <ele>2.2</ele>
        <time>2020-06-04T13:58:16Z</time>
      </trkpt>
      <trkpt lat="46.93376" lon="-2.06808">
        <ele>2.2</ele>
        <time>2020-06-04T13:58:17Z</time>
      </trkpt>
      <trkpt lat="46.93373" lon="-2.06802">
        <ele>2.1</ele>
        <time>2020-06-04T13:58:18Z</time>
      </trkpt>
      <trkpt lat="46.93369" lon="-2.06797">
        <ele>2.1</ele>
        <time>2020-06-04T13:58:19Z</time>
      </trkpt>
      <trkpt lat="46.93366" lon="-2.06791">
        <ele>2.1</ele>
        <time>2020-06-04T13:58:20Z</time>
      </trkpt>
      <trkpt lat="46.93362" lon="-2.06784">
        <ele>2.1</ele>
        <time>2020-06-04T13:58:21Z</time>
      </trkpt>
      <trkpt lat="46.93359" lon="-2.06778">
        <ele>2</ele>
        <time>2020-06-04T13:58:22Z</time>
      </trkpt>
      <trkpt lat="46.93355" lon="-2.06772">
        <ele>2</ele>
        <time>2020-06-04T13:58:23Z</time>
      </trkpt>
      <trkpt lat="46.93351" lon="-2.06765">
        <ele>2</ele>
        <time>2020-06-04T13:58:24Z</time>
      </trkpt>
      <trkpt lat="46.93348" lon="-2.06758">
        <ele>2</ele>
        <time>2020-06-04T13:58:25Z</time>
      </trkpt>
      <trkpt lat="46.93344" lon="-2.0675">
        <ele>1.9</ele>
        <time>2020-06-04T13:58:26Z</time>
      </trkpt>
      <trkpt lat="46.9334" lon="-2.06743">
        <ele>1.9</ele>
        <time>2020-06-04T13:58:27Z</time>
      </trkpt>
      <trkpt lat="46.93336" lon="-2.06737">
        <ele>1.9</ele>
        <time>2020-06-04T13:58:28Z</time>
      </trkpt>
      <trkpt lat="46.93331" lon="-2.06731">
        <ele>1.9</ele>
        <time>2020-06-04T13:58:29Z</time>
      </trkpt>
      <trkpt lat="46.93328" lon="-2.06724">
        <ele>1.9</ele>
        <time>2020-06-04T13:58:30Z</time>
      </trkpt>
      <trkpt lat="46.93325" lon="-2.06717">
        <ele>1.8</ele>
        <time>2020-06-04T13:58:31Z</time>
      </trkpt>
      <trkpt lat="46.93323" lon="-2.06711">
        <ele>1.8</ele>
        <time>2020-06-04T13:58:32Z</time>
      </trkpt>
      <trkpt lat="46.9332" lon="-2.06703">
        <ele>1.8</ele>
        <time>2020-06-04T13:58:33Z</time>
      </trkpt>
      <trkpt lat="46.93319" lon="-2.06693">
        <ele>1.8</ele>
        <time>2020-06-04T13:58:34Z</time>
      </trkpt>
      <trkpt lat="46.93318" lon="-2.06685">
        <ele>1.8</ele>
        <time>2020-06-04T13:58:35Z</time>
      </trkpt>
      <trkpt lat="46.93317" lon="-2.06676">
        <ele>1.8</ele>
        <time>2020-06-04T13:58:36Z</time>
      </trkpt>
      <trkpt lat="46.93317" lon="-2.06667">
        <ele>1.8</ele>
        <time>2020-06-04T13:58:37Z</time>
      </trkpt>
      <trkpt lat="46.93316" lon="-2.06658">
        <ele>1.8</ele>
        <time>2020-06-04T13:58:38Z</time>
      </trkpt>
      <trkpt lat="46.93316" lon="-2.0665">
        <ele>1.8</ele>
        <time>2020-06-04T13:58:39Z</time>
      </trkpt>
      <trkpt lat="46.93316" lon="-2.06642">
        <ele>1.8</ele>
        <time>2020-06-04T13:58:40Z</time>
      </trkpt>
      <trkpt lat="46.93317" lon="-2.06631">
        <ele>1.8</ele>
        <time>2020-06-04T13:58:41Z</time>
      </trkpt>
      <trkpt lat="46.93317" lon="-2.06622">
        <ele>1.8</ele>
        <time>2020-06-04T13:58:42Z</time>
      </trkpt>
      <trkpt lat="46.93318" lon="-2.06611">
        <ele>1.8</ele>
        <time>2020-06-04T13:58:43Z</time>
      </trkpt>
      <trkpt lat="46.93318" lon="-2.06601">
        <ele>1.8</ele>
        <time>2020-06-04T13:58:44Z</time>
      </trkpt>
      <trkpt lat="46.93318" lon="-2.06592">
        <ele>1.9</ele>
        <time>2020-06-04T13:58:45Z</time>
      </trkpt>
      <trkpt lat="46.93318" lon="-2.06582">
        <ele>2</ele>
        <time>2020-06-04T13:58:46Z</time>
      </trkpt>
      <trkpt lat="46.93318" lon="-2.06573">
        <ele>2</ele>
        <time>2020-06-04T13:58:47Z</time>
      </trkpt>
      <trkpt lat="46.93318" lon="-2.06565">
        <ele>2.1</ele>
        <time>2020-06-04T13:58:48Z</time>
      </trkpt>
      <trkpt lat="46.93319" lon="-2.06557">
        <ele>2.1</ele>
        <time>2020-06-04T13:58:49Z</time>
      </trkpt>
      <trkpt lat="46.9332" lon="-2.06548">
        <ele>2.2</ele>
        <time>2020-06-04T13:58:50Z</time>
      </trkpt>
      <trkpt lat="46.9332" lon="-2.06539">
        <ele>2.2</ele>
        <time>2020-06-04T13:58:51Z</time>
      </trkpt>
      <trkpt lat="46.9332" lon="-2.06531">
        <ele>2.3</ele>
        <time>2020-06-04T13:58:52Z</time>
      </trkpt>
      <trkpt lat="46.9332" lon="-2.06521">
        <ele>2.4</ele>
        <time>2020-06-04T13:58:53Z</time>
      </trkpt>
      <trkpt lat="46.93319" lon="-2.06511">
        <ele>2.4</ele>
        <time>2020-06-04T13:58:54Z</time>
      </trkpt>
      <trkpt lat="46.93319" lon="-2.06502">
        <ele>2.5</ele>
        <time>2020-06-04T13:58:55Z</time>
      </trkpt>
      <trkpt lat="46.93319" lon="-2.06493">
        <ele>2.5</ele>
        <time>2020-06-04T13:58:56Z</time>
      </trkpt>
      <trkpt lat="46.93319" lon="-2.06485">
        <ele>2.6</ele>
        <time>2020-06-04T13:58:57Z</time>
      </trkpt>
      <trkpt lat="46.9332" lon="-2.06476">
        <ele>2.6</ele>
        <time>2020-06-04T13:58:58Z</time>
      </trkpt>
      <trkpt lat="46.9332" lon="-2.06468">
        <ele>2.7</ele>
        <time>2020-06-04T13:58:59Z</time>
      </trkpt>
      <trkpt lat="46.9332" lon="-2.06458">
        <ele>2.7</ele>
        <time>2020-06-04T13:59:00Z</time>
      </trkpt>
      <trkpt lat="46.93319" lon="-2.06453">
        <ele>2.7</ele>
        <time>2020-06-04T13:59:01Z</time>
      </trkpt>
      <trkpt lat="46.93319" lon="-2.06443">
        <ele>2.7</ele>
        <time>2020-06-04T13:59:02Z</time>
      </trkpt>
      <trkpt lat="46.93319" lon="-2.06434">
        <ele>2.7</ele>
        <time>2020-06-04T13:59:03Z</time>
      </trkpt>
      <trkpt lat="46.9332" lon="-2.06426">
        <ele>2.8</ele>
        <time>2020-06-04T13:59:04Z</time>
      </trkpt>
      <trkpt lat="46.9332" lon="-2.06418">
        <ele>2.8</ele>
        <time>2020-06-04T13:59:05Z</time>
      </trkpt>
      <trkpt lat="46.93321" lon="-2.0641">
        <ele>2.8</ele>
        <time>2020-06-04T13:59:06Z</time>
      </trkpt>
      <trkpt lat="46.93322" lon="-2.06402">
        <ele>2.8</ele>
        <time>2020-06-04T13:59:07Z</time>
      </trkpt>
      <trkpt lat="46.93322" lon="-2.06394">
        <ele>2.8</ele>
        <time>2020-06-04T13:59:08Z</time>
      </trkpt>
      <trkpt lat="46.93322" lon="-2.06387">
        <ele>2.7</ele>
        <time>2020-06-04T13:59:09Z</time>
      </trkpt>
      <trkpt lat="46.93321" lon="-2.0638">
        <ele>2.7</ele>
        <time>2020-06-04T13:59:10Z</time>
      </trkpt>
      <trkpt lat="46.93321" lon="-2.06373">
        <ele>2.6</ele>
        <time>2020-06-04T13:59:11Z</time>
      </trkpt>
      <trkpt lat="46.93321" lon="-2.06367">
        <ele>2.6</ele>
        <time>2020-06-04T13:59:12Z</time>
      </trkpt>
      <trkpt lat="46.93321" lon="-2.06361">
        <ele>2.6</ele>
        <time>2020-06-04T13:59:13Z</time>
      </trkpt>
      <trkpt lat="46.93322" lon="-2.06353">
        <ele>2.5</ele>
        <time>2020-06-04T13:59:14Z</time>
      </trkpt>
      <trkpt lat="46.93321" lon="-2.06346">
        <ele>2.5</ele>
        <time>2020-06-04T13:59:15Z</time>
      </trkpt>
      <trkpt lat="46.93321" lon="-2.06337">
        <ele>2.4</ele>
        <time>2020-06-04T13:59:16Z</time>
      </trkpt>
      <trkpt lat="46.93321" lon="-2.0633">
        <ele>2.3</ele>
        <time>2020-06-04T13:59:17Z</time>
      </trkpt>
      <trkpt lat="46.9332" lon="-2.06322">
        <ele>2.3</ele>
        <time>2020-06-04T13:59:18Z</time>
      </trkpt>
      <trkpt lat="46.9332" lon="-2.06314">
        <ele>2.2</ele>
        <time>2020-06-04T13:59:19Z</time>
      </trkpt>
      <trkpt lat="46.93321" lon="-2.06307">
        <ele>2.1</ele>
        <time>2020-06-04T13:59:20Z</time>
      </trkpt>
      <trkpt lat="46.93321" lon="-2.063">
        <ele>2.1</ele>
        <time>2020-06-04T13:59:21Z</time>
      </trkpt>
      <trkpt lat="46.93321" lon="-2.06292">
        <ele>2</ele>
        <time>2020-06-04T13:59:22Z</time>
      </trkpt>
      <trkpt lat="46.93322" lon="-2.06285">
        <ele>2</ele>
        <time>2020-06-04T13:59:23Z</time>
      </trkpt>
      <trkpt lat="46.93322" lon="-2.06278">
        <ele>1.9</ele>
        <time>2020-06-04T13:59:24Z</time>
      </trkpt>
      <trkpt lat="46.93323" lon="-2.06268">
        <ele>1.8</ele>
        <time>2020-06-04T13:59:25Z</time>
      </trkpt>
      <trkpt lat="46.93323" lon="-2.06259">
        <ele>1.8</ele>
        <time>2020-06-04T13:59:26Z</time>
      </trkpt>
      <trkpt lat="46.93324" lon="-2.0625">
        <ele>1.7</ele>
        <time>2020-06-04T13:59:27Z</time>
      </trkpt>
      <trkpt lat="46.93325" lon="-2.06239">
        <ele>1.6</ele>
        <time>2020-06-04T13:59:28Z</time>
      </trkpt>
      <trkpt lat="46.93326" lon="-2.06227">
        <ele>1.6</ele>
        <time>2020-06-04T13:59:29Z</time>
      </trkpt>
      <trkpt lat="46.93328" lon="-2.06214">
        <ele>1.6</ele>
        <time>2020-06-04T13:59:30Z</time>
      </trkpt>
      <trkpt lat="46.93329" lon="-2.06199">
        <ele>1.6</ele>
        <time>2020-06-04T13:59:31Z</time>
      </trkpt>
      <trkpt lat="46.93331" lon="-2.06186">
        <ele>1.5</ele>
        <time>2020-06-04T13:59:32Z</time>
      </trkpt>
      <trkpt lat="46.93333" lon="-2.06173">
        <ele>1.5</ele>
        <time>2020-06-04T13:59:33Z</time>
      </trkpt>
      <trkpt lat="46.93334" lon="-2.0616">
        <ele>1.5</ele>
        <time>2020-06-04T13:59:34Z</time>
      </trkpt>
      <trkpt lat="46.93336" lon="-2.06146">
        <ele>1.5</ele>
        <time>2020-06-04T13:59:35Z</time>
      </trkpt>
      <trkpt lat="46.93337" lon="-2.06133">
        <ele>1.5</ele>
        <time>2020-06-04T13:59:36Z</time>
      </trkpt>
      <trkpt lat="46.93339" lon="-2.06119">
        <ele>1.5</ele>
        <time>2020-06-04T13:59:37Z</time>
      </trkpt>
      <trkpt lat="46.9334" lon="-2.06106">
        <ele>1.5</ele>
        <time>2020-06-04T13:59:38Z</time>
      </trkpt>
      <trkpt lat="46.9334" lon="-2.06093">
        <ele>1.5</ele>
        <time>2020-06-04T13:59:39Z</time>
      </trkpt>
      <trkpt lat="46.93342" lon="-2.06081">
        <ele>1.6</ele>
        <time>2020-06-04T13:59:40Z</time>
      </trkpt>
      <trkpt lat="46.93342" lon="-2.06069">
        <ele>1.6</ele>
        <time>2020-06-04T13:59:41Z</time>
      </trkpt>
      <trkpt lat="46.93343" lon="-2.06058">
        <ele>1.6</ele>
        <time>2020-06-04T13:59:42Z</time>
      </trkpt>
      <trkpt lat="46.93345" lon="-2.06047">
        <ele>1.6</ele>
        <time>2020-06-04T13:59:43Z</time>
      </trkpt>
      <trkpt lat="46.93346" lon="-2.06037">
        <ele>1.6</ele>
        <time>2020-06-04T13:59:44Z</time>
      </trkpt>
      <trkpt lat="46.93347" lon="-2.06027">
        <ele>1.6</ele>
        <time>2020-06-04T13:59:45Z</time>
      </trkpt>
      <trkpt lat="46.93348" lon="-2.06016">
        <ele>1.7</ele>
        <time>2020-06-04T13:59:46Z</time>
      </trkpt>
      <trkpt lat="46.93349" lon="-2.06006">
        <ele>1.7</ele>
        <time>2020-06-04T13:59:47Z</time>
      </trkpt>
      <trkpt lat="46.9335" lon="-2.05996">
        <ele>1.8</ele>
        <time>2020-06-04T13:59:48Z</time>
      </trkpt>
      <trkpt lat="46.93351" lon="-2.05986">
        <ele>1.8</ele>
        <time>2020-06-04T13:59:49Z</time>
      </trkpt>
      <trkpt lat="46.93353" lon="-2.05976">
        <ele>1.8</ele>
        <time>2020-06-04T13:59:50Z</time>
      </trkpt>
      <trkpt lat="46.93354" lon="-2.05966">
        <ele>1.9</ele>
        <time>2020-06-04T13:59:51Z</time>
      </trkpt>
      <trkpt lat="46.93356" lon="-2.05956">
        <ele>1.9</ele>
        <time>2020-06-04T13:59:52Z</time>
      </trkpt>
      <trkpt lat="46.93358" lon="-2.05947">
        <ele>1.9</ele>
        <time>2020-06-04T13:59:53Z</time>
      </trkpt>
      <trkpt lat="46.9336" lon="-2.05939">
        <ele>2</ele>
        <time>2020-06-04T13:59:54Z</time>
      </trkpt>
      <trkpt lat="46.93362" lon="-2.0593">
        <ele>2</ele>
        <time>2020-06-04T13:59:55Z</time>
      </trkpt>
      <trkpt lat="46.93364" lon="-2.05922">
        <ele>2</ele>
        <time>2020-06-04T13:59:56Z</time>
      </trkpt>
      <trkpt lat="46.93367" lon="-2.05915">
        <ele>2</ele>
        <time>2020-06-04T13:59:57Z</time>
      </trkpt>
      <trkpt lat="46.9337" lon="-2.05907">
        <ele>2</ele>
        <time>2020-06-04T13:59:58Z</time>
      </trkpt>
      <trkpt lat="46.93372" lon="-2.05901">
        <ele>2</ele>
        <time>2020-06-04T13:59:59Z</time>
      </trkpt>
      <trkpt lat="46.93376" lon="-2.05895">
        <ele>2</ele>
        <time>2020-06-04T14:00:00Z</time>
      </trkpt>
      <trkpt lat="46.9338" lon="-2.05891">
        <ele>2</ele>
        <time>2020-06-04T14:00:01Z</time>
      </trkpt>
      <trkpt lat="46.93384" lon="-2.05885">
        <ele>2</ele>
        <time>2020-06-04T14:00:02Z</time>
      </trkpt>
      <trkpt lat="46.93387" lon="-2.05879">
        <ele>2.1</ele>
        <time>2020-06-04T14:00:03Z</time>
      </trkpt>
      <trkpt lat="46.93389" lon="-2.05874">
        <ele>2.1</ele>
        <time>2020-06-04T14:00:04Z</time>
      </trkpt>
      <trkpt lat="46.93392" lon="-2.05869">
        <ele>2.1</ele>
        <time>2020-06-04T14:00:05Z</time>
      </trkpt>
      <trkpt lat="46.93395" lon="-2.05864">
        <ele>2.1</ele>
        <time>2020-06-04T14:00:06Z</time>
      </trkpt>
      <trkpt lat="46.93399" lon="-2.0586">
        <ele>2.1</ele>
        <time>2020-06-04T14:00:07Z</time>
      </trkpt>
      <trkpt lat="46.93401" lon="-2.05855">
        <ele>2.1</ele>
        <time>2020-06-04T14:00:08Z</time>
      </trkpt>
      <trkpt lat="46.93404" lon="-2.0585">
        <ele>2.2</ele>
        <time>2020-06-04T14:00:09Z</time>
      </trkpt>
      <trkpt lat="46.93406" lon="-2.05846">
        <ele>2.2</ele>
        <time>2020-06-04T14:00:10Z</time>
      </trkpt>
      <trkpt lat="46.93409" lon="-2.05842">
        <ele>2.2</ele>
        <time>2020-06-04T14:00:11Z</time>
      </trkpt>
      <trkpt lat="46.93412" lon="-2.05838">
        <ele>2.3</ele>
        <time>2020-06-04T14:00:12Z</time>
      </trkpt>
      <trkpt lat="46.93414" lon="-2.05834">
        <ele>2.3</ele>
        <time>2020-06-04T14:00:13Z</time>
      </trkpt>
      <trkpt lat="46.93416" lon="-2.05831">
        <ele>2.4</ele>
        <time>2020-06-04T14:00:14Z</time>
      </trkpt>
      <trkpt lat="46.93418" lon="-2.05827">
        <ele>2.4</ele>
        <time>2020-06-04T14:00:15Z</time>
      </trkpt>
      <trkpt lat="46.93421" lon="-2.05823">
        <ele>2.4</ele>
        <time>2020-06-04T14:00:16Z</time>
      </trkpt>
      <trkpt lat="46.93424" lon="-2.0582">
        <ele>2.5</ele>
        <time>2020-06-04T14:00:17Z</time>
      </trkpt>
      <trkpt lat="46.93426" lon="-2.05816">
        <ele>2.5</ele>
        <time>2020-06-04T14:00:18Z</time>
      </trkpt>
      <trkpt lat="46.93428" lon="-2.05812">
        <ele>2.6</ele>
        <time>2020-06-04T14:00:19Z</time>
      </trkpt>
      <trkpt lat="46.93431" lon="-2.05807">
        <ele>2.6</ele>
        <time>2020-06-04T14:00:20Z</time>
      </trkpt>
      <trkpt lat="46.93433" lon="-2.05803">
        <ele>2.6</ele>
        <time>2020-06-04T14:00:21Z</time>
      </trkpt>
      <trkpt lat="46.93436" lon="-2.05798">
        <ele>2.7</ele>
        <time>2020-06-04T14:00:22Z</time>
      </trkpt>
      <trkpt lat="46.93438" lon="-2.05795">
        <ele>2.7</ele>
        <time>2020-06-04T14:00:23Z</time>
      </trkpt>
      <trkpt lat="46.9344" lon="-2.0579">
        <ele>2.7</ele>
        <time>2020-06-04T14:00:24Z</time>
      </trkpt>
      <trkpt lat="46.93442" lon="-2.05786">
        <ele>2.8</ele>
        <time>2020-06-04T14:00:25Z</time>
      </trkpt>
      <trkpt lat="46.93444" lon="-2.05782">
        <ele>2.8</ele>
        <time>2020-06-04T14:00:26Z</time>
      </trkpt>
      <trkpt lat="46.93443" lon="-2.05777">
        <ele>2.8</ele>
        <time>2020-06-04T14:00:27Z</time>
      </trkpt>
      <trkpt lat="46.93444" lon="-2.05772">
        <ele>2.9</ele>
        <time>2020-06-04T14:00:28Z</time>
      </trkpt>
      <trkpt lat="46.93444" lon="-2.05767">
        <ele>2.9</ele>
        <time>2020-06-04T14:00:29Z</time>
      </trkpt>
      <trkpt lat="46.93445" lon="-2.05763">
        <ele>2.9</ele>
        <time>2020-06-04T14:00:30Z</time>
      </trkpt>
      <trkpt lat="46.93446" lon="-2.05759">
        <ele>2.9</ele>
        <time>2020-06-04T14:00:31Z</time>
      </trkpt>
      <trkpt lat="46.93447" lon="-2.05754">
        <ele>3</ele>
        <time>2020-06-04T14:00:32Z</time>
      </trkpt>
      <trkpt lat="46.93448" lon="-2.0575">
        <ele>3</ele>
        <time>2020-06-04T14:00:33Z</time>
      </trkpt>
      <trkpt lat="46.93449" lon="-2.05746">
        <ele>3</ele>
        <time>2020-06-04T14:00:34Z</time>
      </trkpt>
      <trkpt lat="46.93451" lon="-2.05741">
        <ele>3.1</ele>
        <time>2020-06-04T14:00:35Z</time>
      </trkpt>
      <trkpt lat="46.93453" lon="-2.05736">
        <ele>3</ele>
        <time>2020-06-04T14:00:36Z</time>
      </trkpt>
      <trkpt lat="46.93455" lon="-2.0573">
        <ele>3</ele>
        <time>2020-06-04T14:00:37Z</time>
      </trkpt>
      <trkpt lat="46.93458" lon="-2.05725">
        <ele>3</ele>
        <time>2020-06-04T14:00:38Z</time>
      </trkpt>
      <trkpt lat="46.9346" lon="-2.05719">
        <ele>3</ele>
        <time>2020-06-04T14:00:39Z</time>
      </trkpt>
      <trkpt lat="46.93463" lon="-2.05714">
        <ele>3</ele>
        <time>2020-06-04T14:00:40Z</time>
      </trkpt>
      <trkpt lat="46.93466" lon="-2.05708">
        <ele>3</ele>
        <time>2020-06-04T14:00:41Z</time>
      </trkpt>
      <trkpt lat="46.93468" lon="-2.05702">
        <ele>2.9</ele>
        <time>2020-06-04T14:00:42Z</time>
      </trkpt>
      <trkpt lat="46.93471" lon="-2.05696">
        <ele>2.9</ele>
        <time>2020-06-04T14:00:43Z</time>
      </trkpt>
      <trkpt lat="46.93473" lon="-2.05689">
        <ele>2.9</ele>
        <time>2020-06-04T14:00:44Z</time>
      </trkpt>
      <trkpt lat="46.93475" lon="-2.05682">
        <ele>2.9</ele>
        <time>2020-06-04T14:00:45Z</time>
      </trkpt>
      <trkpt lat="46.93475" lon="-2.05675">
        <ele>2.9</ele>
        <time>2020-06-04T14:00:46Z</time>
      </trkpt>
      <trkpt lat="46.93476" lon="-2.05668">
        <ele>2.9</ele>
        <time>2020-06-04T14:00:47Z</time>
      </trkpt>
      <trkpt lat="46.93478" lon="-2.05662">
        <ele>2.8</ele>
        <time>2020-06-04T14:00:48Z</time>
      </trkpt>
      <trkpt lat="46.9348" lon="-2.05656">
        <ele>2.8</ele>
        <time>2020-06-04T14:00:49Z</time>
      </trkpt>
      <trkpt lat="46.93482" lon="-2.05651">
        <ele>2.8</ele>
        <time>2020-06-04T14:00:50Z</time>
      </trkpt>
      <trkpt lat="46.93484" lon="-2.05646">
        <ele>2.8</ele>
        <time>2020-06-04T14:00:51Z</time>
      </trkpt>
      <trkpt lat="46.93483" lon="-2.0564">
        <ele>2.8</ele>
        <time>2020-06-04T14:00:52Z</time>
      </trkpt>
      <trkpt lat="46.93483" lon="-2.05635">
        <ele>2.8</ele>
        <time>2020-06-04T14:00:53Z</time>
      </trkpt>
      <trkpt lat="46.93484" lon="-2.05631">
        <ele>2.8</ele>
        <time>2020-06-04T14:00:54Z</time>
      </trkpt>
      <trkpt lat="46.93485" lon="-2.0563">
        <ele>2.8</ele>
        <time>2020-06-04T14:00:55Z</time>
      </trkpt>
      <trkpt lat="46.93484" lon="-2.05628">
        <ele>2.8</ele>
        <time>2020-06-04T14:00:56Z</time>
      </trkpt>
      <trkpt lat="46.93484" lon="-2.05627">
        <ele>2.8</ele>
        <time>2020-06-04T14:00:57Z</time>
      </trkpt>
      <trkpt lat="46.93485" lon="-2.05626">
        <ele>2.8</ele>
        <time>2020-06-04T14:00:58Z</time>
      </trkpt>
      <trkpt lat="46.93486" lon="-2.05624">
        <ele>2.8</ele>
        <time>2020-06-04T14:00:59Z</time>
      </trkpt>
      <trkpt lat="46.93486" lon="-2.05622">
        <ele>2.8</ele>
        <time>2020-06-04T14:01:00Z</time>
      </trkpt>
      <trkpt lat="46.93488" lon="-2.0562">
        <ele>2.8</ele>
        <time>2020-06-04T14:01:01Z</time>
      </trkpt>
      <trkpt lat="46.93489" lon="-2.05619">
        <ele>2.8</ele>
        <time>2020-06-04T14:01:02Z</time>
      </trkpt>
      <trkpt lat="46.9349" lon="-2.05618">
        <ele>2.8</ele>
        <time>2020-06-04T14:01:03Z</time>
      </trkpt>
      <trkpt lat="46.93492" lon="-2.05616">
        <ele>2.8</ele>
        <time>2020-06-04T14:01:04Z</time>
      </trkpt>
      <trkpt lat="46.93493" lon="-2.05616">
        <ele>2.8</ele>
        <time>2020-06-04T14:01:05Z</time>
      </trkpt>
      <trkpt lat="46.93495" lon="-2.05616">
        <ele>2.8</ele>
        <time>2020-06-04T14:01:06Z</time>
      </trkpt>
      <trkpt lat="46.93496" lon="-2.05614">
        <ele>2.8</ele>
        <time>2020-06-04T14:01:07Z</time>
      </trkpt>
      <trkpt lat="46.93497" lon="-2.05613">
        <ele>2.8</ele>
        <time>2020-06-04T14:01:08Z</time>
      </trkpt>
      <trkpt lat="46.93498" lon="-2.05611">
        <ele>2.8</ele>
        <time>2020-06-04T14:01:09Z</time>
      </trkpt>
      <trkpt lat="46.93498" lon="-2.05609">
        <ele>2.8</ele>
        <time>2020-06-04T14:01:10Z</time>
      </trkpt>
      <trkpt lat="46.93499" lon="-2.05607">
        <ele>2.8</ele>
        <time>2020-06-04T14:01:11Z</time>
      </trkpt>
      <trkpt lat="46.93501" lon="-2.05606">
        <ele>2.8</ele>
        <time>2020-06-04T14:01:12Z</time>
      </trkpt>
      <trkpt lat="46.93502" lon="-2.05605">
        <ele>2.8</ele>
        <time>2020-06-04T14:01:13Z</time>
      </trkpt>
      <trkpt lat="46.93501" lon="-2.05604">
        <ele>2.8</ele>
        <time>2020-06-04T14:01:14Z</time>
      </trkpt>
      <trkpt lat="46.93501" lon="-2.05604">
        <ele>2.8</ele>
        <time>2020-06-04T14:01:15Z</time>
      </trkpt>
      <trkpt lat="46.93501" lon="-2.05604">
        <ele>2.8</ele>
        <time>2020-06-04T14:01:16Z</time>
      </trkpt>
      <trkpt lat="46.935" lon="-2.05604">
        <ele>2.8</ele>
        <time>2020-06-04T14:01:17Z</time>
      </trkpt>
      <trkpt lat="46.93501" lon="-2.05603">
        <ele>2.8</ele>
        <time>2020-06-04T14:01:18Z</time>
      </trkpt>
      <trkpt lat="46.93501" lon="-2.05603">
        <ele>2.8</ele>
        <time>2020-06-04T14:01:19Z</time>
      </trkpt>
      <trkpt lat="46.93501" lon="-2.05603">
        <ele>2.7</ele>
        <time>2020-06-04T14:01:20Z</time>
      </trkpt>
      <trkpt lat="46.93501" lon="-2.05603">
        <ele>2.7</ele>
        <time>2020-06-04T14:01:21Z</time>
      </trkpt>
      <trkpt lat="46.93501" lon="-2.05603">
        <ele>2.7</ele>
        <time>2020-06-04T14:01:22Z</time>
      </trkpt>
      <trkpt lat="46.935" lon="-2.05602">
        <ele>2.7</ele>
        <time>2020-06-04T14:01:23Z</time>
      </trkpt>
      <trkpt lat="46.935" lon="-2.05601">
        <ele>2.7</ele>
        <time>2020-06-04T14:01:24Z</time>
      </trkpt>
      <trkpt lat="46.93502" lon="-2.056">
        <ele>2.7</ele>
        <time>2020-06-04T14:01:25Z</time>
      </trkpt>
      <trkpt lat="46.93502" lon="-2.056">
        <ele>2.7</ele>
        <time>2020-06-04T14:01:26Z</time>
      </trkpt>
      <trkpt lat="46.93502" lon="-2.05599">
        <ele>2.7</ele>
        <time>2020-06-04T14:01:27Z</time>
      </trkpt>
      <trkpt lat="46.93501" lon="-2.05598">
        <ele>2.7</ele>
        <time>2020-06-04T14:01:28Z</time>
      </trkpt>
      <trkpt lat="46.93502" lon="-2.05598">
        <ele>2.7</ele>
        <time>2020-06-04T14:01:29Z</time>
      </trkpt>
      <trkpt lat="46.93502" lon="-2.05597">
        <ele>2.7</ele>
        <time>2020-06-04T14:01:30Z</time>
      </trkpt>
      <trkpt lat="46.93503" lon="-2.05597">
        <ele>2.7</ele>
        <time>2020-06-04T14:01:31Z</time>
      </trkpt>
      <trkpt lat="46.93502" lon="-2.05597">
        <ele>2.7</ele>
        <time>2020-06-04T14:01:32Z</time>
      </trkpt>
      <trkpt lat="46.93502" lon="-2.05597">
        <ele>2.7</ele>
        <time>2020-06-04T14:01:33Z</time>
      </trkpt>
      <trkpt lat="46.93503" lon="-2.05597">
        <ele>2.7</ele>
        <time>2020-06-04T14:01:34Z</time>
      </trkpt>
      <trkpt lat="46.93503" lon="-2.05597">
        <ele>2.7</ele>
        <time>2020-06-04T14:01:35Z</time>
      </trkpt>
      <trkpt lat="46.93503" lon="-2.05596">
        <ele>2.7</ele>
        <time>2020-06-04T14:01:36Z</time>
      </trkpt>
      <trkpt lat="46.93504" lon="-2.05596">
        <ele>2.7</ele>
        <time>2020-06-04T14:01:37Z</time>
      </trkpt>
      <trkpt lat="46.93503" lon="-2.05596">
        <ele>2.7</ele>
        <time>2020-06-04T14:01:38Z</time>
      </trkpt>
      <trkpt lat="46.93503" lon="-2.05595">
        <ele>2.7</ele>
        <time>2020-06-04T14:01:39Z</time>
      </trkpt>
      <trkpt lat="46.93504" lon="-2.05594">
        <ele>2.7</ele>
        <time>2020-06-04T14:01:40Z</time>
      </trkpt>
      <trkpt lat="46.93504" lon="-2.05593">
        <ele>2.7</ele>
        <time>2020-06-04T14:01:41Z</time>
      </trkpt>
      <trkpt lat="46.93505" lon="-2.05593">
        <ele>2.7</ele>
        <time>2020-06-04T14:01:42Z</time>
      </trkpt>
      <trkpt lat="46.93506" lon="-2.05594">
        <ele>2.7</ele>
        <time>2020-06-04T14:01:43Z</time>
      </trkpt>
      <trkpt lat="46.93506" lon="-2.05595">
        <ele>2.8</ele>
        <time>2020-06-04T14:01:44Z</time>
      </trkpt>
      <trkpt lat="46.93508" lon="-2.05595">
        <ele>2.8</ele>
        <time>2020-06-04T14:01:45Z</time>
      </trkpt>
      <trkpt lat="46.93507" lon="-2.05596">
        <ele>2.8</ele>
        <time>2020-06-04T14:01:46Z</time>
      </trkpt>
      <trkpt lat="46.93506" lon="-2.05596">
        <ele>2.8</ele>
        <time>2020-06-04T14:01:48Z</time>
      </trkpt>
      <trkpt lat="46.93505" lon="-2.05596">
        <ele>2.8</ele>
        <time>2020-06-04T14:01:49Z</time>
      </trkpt>
      <trkpt lat="46.93505" lon="-2.05597">
        <ele>2.8</ele>
        <time>2020-06-04T14:01:50Z</time>
      </trkpt>
      <trkpt lat="46.93504" lon="-2.05597">
        <ele>2.8</ele>
        <time>2020-06-04T14:01:51Z</time>
      </trkpt>
      <trkpt lat="46.93504" lon="-2.05598">
        <ele>2.8</ele>
        <time>2020-06-04T14:01:52Z</time>
      </trkpt>
      <trkpt lat="46.93504" lon="-2.05598">
        <ele>2.8</ele>
        <time>2020-06-04T14:01:53Z</time>
      </trkpt>
      <trkpt lat="46.93504" lon="-2.05599">
        <ele>2.8</ele>
        <time>2020-06-04T14:01:54Z</time>
      </trkpt>
      <trkpt lat="46.93503" lon="-2.05601">
        <ele>2.8</ele>
        <time>2020-06-04T14:01:55Z</time>
      </trkpt>
      <trkpt lat="46.93503" lon="-2.05602">
        <ele>2.8</ele>
        <time>2020-06-04T14:01:56Z</time>
      </trkpt>
      <trkpt lat="46.93502" lon="-2.05603">
        <ele>2.8</ele>
        <time>2020-06-04T14:01:57Z</time>
      </trkpt>
      <trkpt lat="46.93502" lon="-2.05604">
        <ele>2.8</ele>
        <time>2020-06-04T14:01:58Z</time>
      </trkpt>
      <trkpt lat="46.93501" lon="-2.05606">
        <ele>2.8</ele>
        <time>2020-06-04T14:01:59Z</time>
      </trkpt>
      <trkpt lat="46.93501" lon="-2.05607">
        <ele>2.8</ele>
        <time>2020-06-04T14:02:00Z</time>
      </trkpt>
      <trkpt lat="46.935" lon="-2.05608">
        <ele>2.8</ele>
        <time>2020-06-04T14:02:01Z</time>
      </trkpt>
      <trkpt lat="46.935" lon="-2.05609">
        <ele>2.8</ele>
        <time>2020-06-04T14:02:02Z</time>
      </trkpt>
      <trkpt lat="46.93499" lon="-2.0561">
        <ele>2.8</ele>
        <time>2020-06-04T14:02:03Z</time>
      </trkpt>
      <trkpt lat="46.93499" lon="-2.05612">
        <ele>2.8</ele>
        <time>2020-06-04T14:02:04Z</time>
      </trkpt>
      <trkpt lat="46.93498" lon="-2.05613">
        <ele>2.8</ele>
        <time>2020-06-04T14:02:05Z</time>
      </trkpt>
      <trkpt lat="46.93498" lon="-2.05614">
        <ele>2.8</ele>
        <time>2020-06-04T14:02:06Z</time>
      </trkpt>
      <trkpt lat="46.93498" lon="-2.05615">
        <ele>2.8</ele>
        <time>2020-06-04T14:02:07Z</time>
      </trkpt>
      <trkpt lat="46.93497" lon="-2.05616">
        <ele>2.8</ele>
        <time>2020-06-04T14:02:08Z</time>
      </trkpt>
      <trkpt lat="46.93497" lon="-2.05618">
        <ele>2.8</ele>
        <time>2020-06-04T14:02:33Z</time>
      </trkpt>
      <trkpt lat="46.93496" lon="-2.05619">
        <ele>2.8</ele>
        <time>2020-06-04T14:02:34Z</time>
      </trkpt>
      <trkpt lat="46.93496" lon="-2.0562">
        <ele>2.8</ele>
        <time>2020-06-04T14:02:35Z</time>
      </trkpt>
      <trkpt lat="46.93496" lon="-2.05626">
        <ele>2.8</ele>
        <time>2020-06-04T14:02:36Z</time>
      </trkpt>
      <trkpt lat="46.93499" lon="-2.05629">
        <ele>2.7</ele>
        <time>2020-06-04T14:02:37Z</time>
      </trkpt>
      <trkpt lat="46.93502" lon="-2.05632">
        <ele>2.7</ele>
        <time>2020-06-04T14:02:38Z</time>
      </trkpt>
      <trkpt lat="46.93505" lon="-2.05635">
        <ele>2.7</ele>
        <time>2020-06-04T14:02:39Z</time>
      </trkpt>
      <trkpt lat="46.93509" lon="-2.05638">
        <ele>2.7</ele>
        <time>2020-06-04T14:02:40Z</time>
      </trkpt>
      <trkpt lat="46.93512" lon="-2.05642">
        <ele>2.7</ele>
        <time>2020-06-04T14:02:41Z</time>
      </trkpt>
      <trkpt lat="46.93515" lon="-2.05646">
        <ele>2.7</ele>
        <time>2020-06-04T14:02:42Z</time>
      </trkpt>
      <trkpt lat="46.93518" lon="-2.0565">
        <ele>2.6</ele>
        <time>2020-06-04T14:02:43Z</time>
      </trkpt>
      <trkpt lat="46.9352" lon="-2.05656">
        <ele>2.6</ele>
        <time>2020-06-04T14:02:44Z</time>
      </trkpt>
      <trkpt lat="46.9352" lon="-2.05663">
        <ele>2.5</ele>
        <time>2020-06-04T14:02:45Z</time>
      </trkpt>
      <trkpt lat="46.93521" lon="-2.0567">
        <ele>2.5</ele>
        <time>2020-06-04T14:02:46Z</time>
      </trkpt>
      <trkpt lat="46.93522" lon="-2.05677">
        <ele>2.5</ele>
        <time>2020-06-04T14:02:47Z</time>
      </trkpt>
      <trkpt lat="46.93521" lon="-2.05685">
        <ele>2.4</ele>
        <time>2020-06-04T14:02:48Z</time>
      </trkpt>
      <trkpt lat="46.93522" lon="-2.05692">
        <ele>2.3</ele>
        <time>2020-06-04T14:02:49Z</time>
      </trkpt>
      <trkpt lat="46.93525" lon="-2.05697">
        <ele>2.3</ele>
        <time>2020-06-04T14:02:50Z</time>
      </trkpt>
      <trkpt lat="46.9353" lon="-2.05699">
        <ele>2.3</ele>
        <time>2020-06-04T14:02:51Z</time>
      </trkpt>
      <trkpt lat="46.93534" lon="-2.057">
        <ele>2.3</ele>
        <time>2020-06-04T14:02:52Z</time>
      </trkpt>
      <trkpt lat="46.93539" lon="-2.05702">
        <ele>2.2</ele>
        <time>2020-06-04T14:02:53Z</time>
      </trkpt>
      <trkpt lat="46.93543" lon="-2.05704">
        <ele>2.2</ele>
        <time>2020-06-04T14:02:54Z</time>
      </trkpt>
      <trkpt lat="46.93547" lon="-2.05707">
        <ele>2.1</ele>
        <time>2020-06-04T14:02:55Z</time>
      </trkpt>
      <trkpt lat="46.93551" lon="-2.05709">
        <ele>2.1</ele>
        <time>2020-06-04T14:02:56Z</time>
      </trkpt>
      <trkpt lat="46.93556" lon="-2.05711">
        <ele>2.1</ele>
        <time>2020-06-04T14:02:57Z</time>
      </trkpt>
      <trkpt lat="46.9356" lon="-2.05714">
        <ele>2</ele>
        <time>2020-06-04T14:02:58Z</time>
      </trkpt>
      <trkpt lat="46.93564" lon="-2.05716">
        <ele>2</ele>
        <time>2020-06-04T14:02:59Z</time>
      </trkpt>
      <trkpt lat="46.93569" lon="-2.05719">
        <ele>2</ele>
        <time>2020-06-04T14:03:00Z</time>
      </trkpt>
      <trkpt lat="46.93573" lon="-2.0572">
        <ele>2</ele>
        <time>2020-06-04T14:03:01Z</time>
      </trkpt>
      <trkpt lat="46.93577" lon="-2.05723">
        <ele>2</ele>
        <time>2020-06-04T14:03:02Z</time>
      </trkpt>
      <trkpt lat="46.93581" lon="-2.05726">
        <ele>1.9</ele>
        <time>2020-06-04T14:03:03Z</time>
      </trkpt>
      <trkpt lat="46.93586" lon="-2.05727">
        <ele>1.9</ele>
        <time>2020-06-04T14:03:04Z</time>
      </trkpt>
      <trkpt lat="46.93591" lon="-2.0573">
        <ele>1.9</ele>
        <time>2020-06-04T14:03:05Z</time>
      </trkpt>
      <trkpt lat="46.93596" lon="-2.05731">
        <ele>1.8</ele>
        <time>2020-06-04T14:03:06Z</time>
      </trkpt>
      <trkpt lat="46.93602" lon="-2.05733">
        <ele>1.8</ele>
        <time>2020-06-04T14:03:07Z</time>
      </trkpt>
      <trkpt lat="46.93607" lon="-2.05736">
        <ele>1.8</ele>
        <time>2020-06-04T14:03:08Z</time>
      </trkpt>
      <trkpt lat="46.93612" lon="-2.05739">
        <ele>1.7</ele>
        <time>2020-06-04T14:03:09Z</time>
      </trkpt>
      <trkpt lat="46.93618" lon="-2.05743">
        <ele>1.7</ele>
        <time>2020-06-04T14:03:10Z</time>
      </trkpt>
      <trkpt lat="46.93622" lon="-2.05746">
        <ele>1.6</ele>
        <time>2020-06-04T14:03:11Z</time>
      </trkpt>
      <trkpt lat="46.93627" lon="-2.0575">
        <ele>1.6</ele>
        <time>2020-06-04T14:03:12Z</time>
      </trkpt>
      <trkpt lat="46.93632" lon="-2.05752">
        <ele>1.6</ele>
        <time>2020-06-04T14:03:13Z</time>
      </trkpt>
      <trkpt lat="46.93637" lon="-2.05755">
        <ele>1.6</ele>
        <time>2020-06-04T14:03:14Z</time>
      </trkpt>
      <trkpt lat="46.93642" lon="-2.05759">
        <ele>1.6</ele>
        <time>2020-06-04T14:03:15Z</time>
      </trkpt>
      <trkpt lat="46.93647" lon="-2.05761">
        <ele>1.6</ele>
        <time>2020-06-04T14:03:16Z</time>
      </trkpt>
      <trkpt lat="46.93651" lon="-2.05764">
        <ele>1.7</ele>
        <time>2020-06-04T14:03:17Z</time>
      </trkpt>
      <trkpt lat="46.93656" lon="-2.05767">
        <ele>1.7</ele>
        <time>2020-06-04T14:03:18Z</time>
      </trkpt>
      <trkpt lat="46.9366" lon="-2.0577">
        <ele>1.7</ele>
        <time>2020-06-04T14:03:19Z</time>
      </trkpt>
      <trkpt lat="46.93664" lon="-2.05774">
        <ele>1.7</ele>
        <time>2020-06-04T14:03:20Z</time>
      </trkpt>
      <trkpt lat="46.93667" lon="-2.05779">
        <ele>1.7</ele>
        <time>2020-06-04T14:03:21Z</time>
      </trkpt>
      <trkpt lat="46.93668" lon="-2.05785">
        <ele>1.7</ele>
        <time>2020-06-04T14:03:22Z</time>
      </trkpt>
      <trkpt lat="46.93669" lon="-2.05792">
        <ele>1.7</ele>
        <time>2020-06-04T14:03:23Z</time>
      </trkpt>
      <trkpt lat="46.93668" lon="-2.058">
        <ele>1.7</ele>
        <time>2020-06-04T14:03:24Z</time>
      </trkpt>
      <trkpt lat="46.93667" lon="-2.05807">
        <ele>1.7</ele>
        <time>2020-06-04T14:03:25Z</time>
      </trkpt>
      <trkpt lat="46.93666" lon="-2.05814">
        <ele>1.7</ele>
        <time>2020-06-04T14:03:26Z</time>
      </trkpt>
      <trkpt lat="46.93665" lon="-2.05821">
        <ele>1.7</ele>
        <time>2020-06-04T14:03:27Z</time>
      </trkpt>
      <trkpt lat="46.93664" lon="-2.05828">
        <ele>1.7</ele>
        <time>2020-06-04T14:03:28Z</time>
      </trkpt>
      <trkpt lat="46.93662" lon="-2.05835">
        <ele>1.7</ele>
        <time>2020-06-04T14:03:29Z</time>
      </trkpt>
      <trkpt lat="46.93661" lon="-2.05841">
        <ele>1.7</ele>
        <time>2020-06-04T14:03:30Z</time>
      </trkpt>
      <trkpt lat="46.93662" lon="-2.05847">
        <ele>1.7</ele>
        <time>2020-06-04T14:03:31Z</time>
      </trkpt>
      <trkpt lat="46.93663" lon="-2.05852">
        <ele>1.7</ele>
        <time>2020-06-04T14:03:32Z</time>
      </trkpt>
      <trkpt lat="46.93667" lon="-2.05853">
        <ele>1.7</ele>
        <time>2020-06-04T14:03:33Z</time>
      </trkpt>
      <trkpt lat="46.93671" lon="-2.05853">
        <ele>1.8</ele>
        <time>2020-06-04T14:03:34Z</time>
      </trkpt>
      <trkpt lat="46.93675" lon="-2.05852">
        <ele>1.8</ele>
        <time>2020-06-04T14:03:35Z</time>
      </trkpt>
      <trkpt lat="46.9368" lon="-2.0585">
        <ele>1.9</ele>
        <time>2020-06-04T14:03:36Z</time>
      </trkpt>
      <trkpt lat="46.93685" lon="-2.05847">
        <ele>1.9</ele>
        <time>2020-06-04T14:03:37Z</time>
      </trkpt>
      <trkpt lat="46.9369" lon="-2.05846">
        <ele>1.9</ele>
        <time>2020-06-04T14:03:38Z</time>
      </trkpt>
      <trkpt lat="46.93695" lon="-2.05844">
        <ele>2</ele>
        <time>2020-06-04T14:03:39Z</time>
      </trkpt>
      <trkpt lat="46.937" lon="-2.05842">
        <ele>2</ele>
        <time>2020-06-04T14:03:40Z</time>
      </trkpt>
      <trkpt lat="46.93705" lon="-2.05841">
        <ele>2</ele>
        <time>2020-06-04T14:03:41Z</time>
      </trkpt>
      <trkpt lat="46.9371" lon="-2.0584">
        <ele>2.1</ele>
        <time>2020-06-04T14:03:42Z</time>
      </trkpt>
      <trkpt lat="46.93715" lon="-2.05838">
        <ele>2.1</ele>
        <time>2020-06-04T14:03:43Z</time>
      </trkpt>
      <trkpt lat="46.93721" lon="-2.05837">
        <ele>2.1</ele>
        <time>2020-06-04T14:03:44Z</time>
      </trkpt>
      <trkpt lat="46.93725" lon="-2.05837">
        <ele>2.2</ele>
        <time>2020-06-04T14:03:45Z</time>
      </trkpt>
      <trkpt lat="46.93731" lon="-2.05837">
        <ele>2.2</ele>
        <time>2020-06-04T14:03:46Z</time>
      </trkpt>
      <trkpt lat="46.93736" lon="-2.05837">
        <ele>2.3</ele>
        <time>2020-06-04T14:03:47Z</time>
      </trkpt>
      <trkpt lat="46.93741" lon="-2.05838">
        <ele>2.3</ele>
        <time>2020-06-04T14:03:48Z</time>
      </trkpt>
      <trkpt lat="46.93745" lon="-2.05839">
        <ele>2.3</ele>
        <time>2020-06-04T14:03:49Z</time>
      </trkpt>
      <trkpt lat="46.9375" lon="-2.0584">
        <ele>2.4</ele>
        <time>2020-06-04T14:03:50Z</time>
      </trkpt>
      <trkpt lat="46.93755" lon="-2.05842">
        <ele>2.4</ele>
        <time>2020-06-04T14:03:51Z</time>
      </trkpt>
      <trkpt lat="46.9376" lon="-2.05844">
        <ele>2.4</ele>
        <time>2020-06-04T14:03:52Z</time>
      </trkpt>
      <trkpt lat="46.93764" lon="-2.05847">
        <ele>2.5</ele>
        <time>2020-06-04T14:03:53Z</time>
      </trkpt>
      <trkpt lat="46.93768" lon="-2.0585">
        <ele>2.5</ele>
        <time>2020-06-04T14:03:54Z</time>
      </trkpt>
      <trkpt lat="46.93772" lon="-2.05852">
        <ele>2.5</ele>
        <time>2020-06-04T14:03:55Z</time>
      </trkpt>
      <trkpt lat="46.93776" lon="-2.05855">
        <ele>2.5</ele>
        <time>2020-06-04T14:03:56Z</time>
      </trkpt>
      <trkpt lat="46.9378" lon="-2.05857">
        <ele>2.6</ele>
        <time>2020-06-04T14:03:57Z</time>
      </trkpt>
      <trkpt lat="46.93782" lon="-2.05862">
        <ele>2.6</ele>
        <time>2020-06-04T14:03:58Z</time>
      </trkpt>
      <trkpt lat="46.93784" lon="-2.05868">
        <ele>2.6</ele>
        <time>2020-06-04T14:03:59Z</time>
      </trkpt>
      <trkpt lat="46.93785" lon="-2.05874">
        <ele>2.6</ele>
        <time>2020-06-04T14:04:00Z</time>
      </trkpt>
      <trkpt lat="46.93785" lon="-2.0588">
        <ele>2.6</ele>
        <time>2020-06-04T14:04:01Z</time>
      </trkpt>
      <trkpt lat="46.93784" lon="-2.05886">
        <ele>2.6</ele>
        <time>2020-06-04T14:04:02Z</time>
      </trkpt>
      <trkpt lat="46.93782" lon="-2.05891">
        <ele>2.6</ele>
        <time>2020-06-04T14:04:03Z</time>
      </trkpt>
      <trkpt lat="46.93781" lon="-2.05897">
        <ele>2.5</ele>
        <time>2020-06-04T14:04:04Z</time>
      </trkpt>
      <trkpt lat="46.93779" lon="-2.05903">
        <ele>2.5</ele>
        <time>2020-06-04T14:04:05Z</time>
      </trkpt>
      <trkpt lat="46.93777" lon="-2.05909">
        <ele>2.5</ele>
        <time>2020-06-04T14:04:06Z</time>
      </trkpt>
      <trkpt lat="46.93775" lon="-2.05915">
        <ele>2.5</ele>
        <time>2020-06-04T14:04:07Z</time>
      </trkpt>
      <trkpt lat="46.93773" lon="-2.05921">
        <ele>2.5</ele>
        <time>2020-06-04T14:04:08Z</time>
      </trkpt>
      <trkpt lat="46.93771" lon="-2.05927">
        <ele>2.4</ele>
        <time>2020-06-04T14:04:09Z</time>
      </trkpt>
      <trkpt lat="46.93769" lon="-2.05933">
        <ele>2.4</ele>
        <time>2020-06-04T14:04:10Z</time>
      </trkpt>
      <trkpt lat="46.93766" lon="-2.0594">
        <ele>2.4</ele>
        <time>2020-06-04T14:04:11Z</time>
      </trkpt>
      <trkpt lat="46.93763" lon="-2.05946">
        <ele>2.3</ele>
        <time>2020-06-04T14:04:12Z</time>
      </trkpt>
      <trkpt lat="46.93761" lon="-2.05952">
        <ele>2.3</ele>
        <time>2020-06-04T14:04:13Z</time>
      </trkpt>
      <trkpt lat="46.93759" lon="-2.05959">
        <ele>2.2</ele>
        <time>2020-06-04T14:04:14Z</time>
      </trkpt>
      <trkpt lat="46.93757" lon="-2.05966">
        <ele>2.2</ele>
        <time>2020-06-04T14:04:15Z</time>
      </trkpt>
      <trkpt lat="46.93755" lon="-2.05973">
        <ele>2.1</ele>
        <time>2020-06-04T14:04:16Z</time>
      </trkpt>
      <trkpt lat="46.93755" lon="-2.0598">
        <ele>2.1</ele>
        <time>2020-06-04T14:04:17Z</time>
      </trkpt>
      <trkpt lat="46.93755" lon="-2.05988">
        <ele>2</ele>
        <time>2020-06-04T14:04:18Z</time>
      </trkpt>
      <trkpt lat="46.93757" lon="-2.05994">
        <ele>2</ele>
        <time>2020-06-04T14:04:19Z</time>
      </trkpt>
      <trkpt lat="46.93759" lon="-2.06">
        <ele>2</ele>
        <time>2020-06-04T14:04:20Z</time>
      </trkpt>
      <trkpt lat="46.93761" lon="-2.06006">
        <ele>1.9</ele>
        <time>2020-06-04T14:04:21Z</time>
      </trkpt>
      <trkpt lat="46.93764" lon="-2.06011">
        <ele>1.8</ele>
        <time>2020-06-04T14:04:22Z</time>
      </trkpt>
      <trkpt lat="46.93767" lon="-2.06016">
        <ele>1.8</ele>
        <time>2020-06-04T14:04:23Z</time>
      </trkpt>
      <trkpt lat="46.93771" lon="-2.06021">
        <ele>1.7</ele>
        <time>2020-06-04T14:04:24Z</time>
      </trkpt>
      <trkpt lat="46.93775" lon="-2.06025">
        <ele>1.7</ele>
        <time>2020-06-04T14:04:25Z</time>
      </trkpt>
      <trkpt lat="46.93779" lon="-2.06029">
        <ele>1.6</ele>
        <time>2020-06-04T14:04:26Z</time>
      </trkpt>
      <trkpt lat="46.93783" lon="-2.06033">
        <ele>1.6</ele>
        <time>2020-06-04T14:04:27Z</time>
      </trkpt>
      <trkpt lat="46.93787" lon="-2.06037">
        <ele>1.5</ele>
        <time>2020-06-04T14:04:28Z</time>
      </trkpt>
      <trkpt lat="46.93791" lon="-2.0604">
        <ele>1.5</ele>
        <time>2020-06-04T14:04:29Z</time>
      </trkpt>
      <trkpt lat="46.93795" lon="-2.06044">
        <ele>1.4</ele>
        <time>2020-06-04T14:04:30Z</time>
      </trkpt>
      <trkpt lat="46.93798" lon="-2.06048">
        <ele>1.3</ele>
        <time>2020-06-04T14:04:31Z</time>
      </trkpt>
      <trkpt lat="46.93801" lon="-2.06051">
        <ele>1.3</ele>
        <time>2020-06-04T14:04:32Z</time>
      </trkpt>
      <trkpt lat="46.93805" lon="-2.06054">
        <ele>1.2</ele>
        <time>2020-06-04T14:04:33Z</time>
      </trkpt>
      <trkpt lat="46.93808" lon="-2.06056">
        <ele>1.1</ele>
        <time>2020-06-04T14:04:34Z</time>
      </trkpt>
      <trkpt lat="46.93812" lon="-2.06057">
        <ele>1.1</ele>
        <time>2020-06-04T14:04:35Z</time>
      </trkpt>
      <trkpt lat="46.93814" lon="-2.06058">
        <ele>1</ele>
        <time>2020-06-04T14:04:36Z</time>
      </trkpt>
      <trkpt lat="46.93814" lon="-2.06055">
        <ele>1</ele>
        <time>2020-06-04T14:04:37Z</time>
      </trkpt>
      <trkpt lat="46.93816" lon="-2.06051">
        <ele>1</ele>
        <time>2020-06-04T14:04:38Z</time>
      </trkpt>
      <trkpt lat="46.93817" lon="-2.06049">
        <ele>1</ele>
        <time>2020-06-04T14:04:39Z</time>
      </trkpt>
      <trkpt lat="46.93819" lon="-2.06046">
        <ele>1</ele>
        <time>2020-06-04T14:04:40Z</time>
      </trkpt>
      <trkpt lat="46.93821" lon="-2.06042">
        <ele>1</ele>
        <time>2020-06-04T14:04:41Z</time>
      </trkpt>
      <trkpt lat="46.93823" lon="-2.06038">
        <ele>1</ele>
        <time>2020-06-04T14:04:42Z</time>
      </trkpt>
      <trkpt lat="46.93826" lon="-2.06034">
        <ele>1</ele>
        <time>2020-06-04T14:04:43Z</time>
      </trkpt>
      <trkpt lat="46.93828" lon="-2.06031">
        <ele>1</ele>
        <time>2020-06-04T14:04:44Z</time>
      </trkpt>
      <trkpt lat="46.9383" lon="-2.06026">
        <ele>1</ele>
        <time>2020-06-04T14:04:45Z</time>
      </trkpt>
      <trkpt lat="46.93833" lon="-2.06021">
        <ele>1</ele>
        <time>2020-06-04T14:04:46Z</time>
      </trkpt>
      <trkpt lat="46.93835" lon="-2.06016">
        <ele>1</ele>
        <time>2020-06-04T14:04:47Z</time>
      </trkpt>
      <trkpt lat="46.93837" lon="-2.0601">
        <ele>1</ele>
        <time>2020-06-04T14:04:48Z</time>
      </trkpt>
      <trkpt lat="46.9384" lon="-2.06005">
        <ele>1</ele>
        <time>2020-06-04T14:04:49Z</time>
      </trkpt>
      <trkpt lat="46.93842" lon="-2.05999">
        <ele>1</ele>
        <time>2020-06-04T14:04:50Z</time>
      </trkpt>
      <trkpt lat="46.93845" lon="-2.05993">
        <ele>1</ele>
        <time>2020-06-04T14:04:51Z</time>
      </trkpt>
      <trkpt lat="46.93848" lon="-2.05987">
        <ele>1</ele>
        <time>2020-06-04T14:04:52Z</time>
      </trkpt>
      <trkpt lat="46.93851" lon="-2.05982">
        <ele>1</ele>
        <time>2020-06-04T14:04:53Z</time>
      </trkpt>
      <trkpt lat="46.93854" lon="-2.05976">
        <ele>1</ele>
        <time>2020-06-04T14:04:54Z</time>
      </trkpt>
      <trkpt lat="46.93857" lon="-2.05971">
        <ele>1</ele>
        <time>2020-06-04T14:04:55Z</time>
      </trkpt>
      <trkpt lat="46.9386" lon="-2.05966">
        <ele>1</ele>
        <time>2020-06-04T14:04:56Z</time>
      </trkpt>
      <trkpt lat="46.93863" lon="-2.05961">
        <ele>1</ele>
        <time>2020-06-04T14:04:57Z</time>
      </trkpt>
      <trkpt lat="46.93865" lon="-2.05954">
        <ele>1</ele>
        <time>2020-06-04T14:04:58Z</time>
      </trkpt>
      <trkpt lat="46.93868" lon="-2.05949">
        <ele>1</ele>
        <time>2020-06-04T14:04:59Z</time>
      </trkpt>
      <trkpt lat="46.93871" lon="-2.05944">
        <ele>1</ele>
        <time>2020-06-04T14:05:00Z</time>
      </trkpt>
      <trkpt lat="46.93875" lon="-2.05938">
        <ele>1</ele>
        <time>2020-06-04T14:05:01Z</time>
      </trkpt>
      <trkpt lat="46.93878" lon="-2.05934">
        <ele>1</ele>
        <time>2020-06-04T14:05:02Z</time>
      </trkpt>
      <trkpt lat="46.93882" lon="-2.05929">
        <ele>1</ele>
        <time>2020-06-04T14:05:03Z</time>
      </trkpt>
      <trkpt lat="46.93884" lon="-2.05923">
        <ele>1</ele>
        <time>2020-06-04T14:05:04Z</time>
      </trkpt>
      <trkpt lat="46.93888" lon="-2.05918">
        <ele>1</ele>
        <time>2020-06-04T14:05:05Z</time>
      </trkpt>
      <trkpt lat="46.93891" lon="-2.05913">
        <ele>1</ele>
        <time>2020-06-04T14:05:06Z</time>
      </trkpt>
      <trkpt lat="46.93895" lon="-2.05908">
        <ele>1</ele>
        <time>2020-06-04T14:05:07Z</time>
      </trkpt>
      <trkpt lat="46.93899" lon="-2.05903">
        <ele>1</ele>
        <time>2020-06-04T14:05:08Z</time>
      </trkpt>
      <trkpt lat="46.93902" lon="-2.05897">
        <ele>1</ele>
        <time>2020-06-04T14:05:09Z</time>
      </trkpt>
      <trkpt lat="46.93906" lon="-2.05892">
        <ele>1</ele>
        <time>2020-06-04T14:05:10Z</time>
      </trkpt>
      <trkpt lat="46.9391" lon="-2.05887">
        <ele>1</ele>
        <time>2020-06-04T14:05:11Z</time>
      </trkpt>
      <trkpt lat="46.93914" lon="-2.05881">
        <ele>1</ele>
        <time>2020-06-04T14:05:12Z</time>
      </trkpt>
      <trkpt lat="46.93918" lon="-2.05876">
        <ele>1</ele>
        <time>2020-06-04T14:05:13Z</time>
      </trkpt>
      <trkpt lat="46.93922" lon="-2.05871">
        <ele>1</ele>
        <time>2020-06-04T14:05:14Z</time>
      </trkpt>
      <trkpt lat="46.93927" lon="-2.05866">
        <ele>1</ele>
        <time>2020-06-04T14:05:15Z</time>
      </trkpt>
      <trkpt lat="46.93931" lon="-2.05862">
        <ele>1</ele>
        <time>2020-06-04T14:05:16Z</time>
      </trkpt>
      <trkpt lat="46.93935" lon="-2.05856">
        <ele>1</ele>
        <time>2020-06-04T14:05:17Z</time>
      </trkpt>
      <trkpt lat="46.93939" lon="-2.05851">
        <ele>1</ele>
        <time>2020-06-04T14:05:18Z</time>
      </trkpt>
      <trkpt lat="46.93943" lon="-2.05845">
        <ele>1</ele>
        <time>2020-06-04T14:05:19Z</time>
      </trkpt>
      <trkpt lat="46.93947" lon="-2.05839">
        <ele>1</ele>
        <time>2020-06-04T14:05:20Z</time>
      </trkpt>
      <trkpt lat="46.9395" lon="-2.05832">
        <ele>1</ele>
        <time>2020-06-04T14:05:21Z</time>
      </trkpt>
      <trkpt lat="46.93953" lon="-2.05825">
        <ele>1</ele>
        <time>2020-06-04T14:05:22Z</time>
      </trkpt>
      <trkpt lat="46.93957" lon="-2.0582">
        <ele>1</ele>
        <time>2020-06-04T14:05:23Z</time>
      </trkpt>
      <trkpt lat="46.9396" lon="-2.05813">
        <ele>0.9</ele>
        <time>2020-06-04T14:05:24Z</time>
      </trkpt>
      <trkpt lat="46.93963" lon="-2.05806">
        <ele>0.9</ele>
        <time>2020-06-04T14:05:25Z</time>
      </trkpt>
      <trkpt lat="46.93966" lon="-2.05799">
        <ele>0.9</ele>
        <time>2020-06-04T14:05:26Z</time>
      </trkpt>
      <trkpt lat="46.93969" lon="-2.05793">
        <ele>0.9</ele>
        <time>2020-06-04T14:05:27Z</time>
      </trkpt>
      <trkpt lat="46.93972" lon="-2.05786">
        <ele>0.8</ele>
        <time>2020-06-04T14:05:28Z</time>
      </trkpt>
      <trkpt lat="46.93975" lon="-2.05779">
        <ele>0.8</ele>
        <time>2020-06-04T14:05:29Z</time>
      </trkpt>
      <trkpt lat="46.93978" lon="-2.05773">
        <ele>0.8</ele>
        <time>2020-06-04T14:05:30Z</time>
      </trkpt>
      <trkpt lat="46.93981" lon="-2.05768">
        <ele>0.8</ele>
        <time>2020-06-04T14:05:31Z</time>
      </trkpt>
      <trkpt lat="46.93986" lon="-2.05763">
        <ele>0.7</ele>
        <time>2020-06-04T14:05:32Z</time>
      </trkpt>
      <trkpt lat="46.93989" lon="-2.05758">
        <ele>0.7</ele>
        <time>2020-06-04T14:05:33Z</time>
      </trkpt>
      <trkpt lat="46.93994" lon="-2.05753">
        <ele>0.7</ele>
        <time>2020-06-04T14:05:34Z</time>
      </trkpt>
      <trkpt lat="46.93998" lon="-2.05748">
        <ele>0.7</ele>
        <time>2020-06-04T14:05:35Z</time>
      </trkpt>
      <trkpt lat="46.94002" lon="-2.05744">
        <ele>0.6</ele>
        <time>2020-06-04T14:05:36Z</time>
      </trkpt>
      <trkpt lat="46.94006" lon="-2.0574">
        <ele>0.6</ele>
        <time>2020-06-04T14:05:37Z</time>
      </trkpt>
      <trkpt lat="46.94008" lon="-2.05735">
        <ele>0.6</ele>
        <time>2020-06-04T14:05:38Z</time>
      </trkpt>
      <trkpt lat="46.9401" lon="-2.05728">
        <ele>0.6</ele>
        <time>2020-06-04T14:05:39Z</time>
      </trkpt>
      <trkpt lat="46.94011" lon="-2.05721">
        <ele>0.6</ele>
        <time>2020-06-04T14:05:40Z</time>
      </trkpt>
      <trkpt lat="46.94011" lon="-2.05714">
        <ele>0.5</ele>
        <time>2020-06-04T14:05:41Z</time>
      </trkpt>
      <trkpt lat="46.9401" lon="-2.05707">
        <ele>0.5</ele>
        <time>2020-06-04T14:05:42Z</time>
      </trkpt>
      <trkpt lat="46.94009" lon="-2.05699">
        <ele>0.5</ele>
        <time>2020-06-04T14:05:43Z</time>
      </trkpt>
      <trkpt lat="46.94009" lon="-2.05692">
        <ele>0.5</ele>
        <time>2020-06-04T14:05:44Z</time>
      </trkpt>
      <trkpt lat="46.94009" lon="-2.05685">
        <ele>0.5</ele>
        <time>2020-06-04T14:05:45Z</time>
      </trkpt>
      <trkpt lat="46.9401" lon="-2.05677">
        <ele>0.5</ele>
        <time>2020-06-04T14:05:46Z</time>
      </trkpt>
      <trkpt lat="46.94011" lon="-2.0567">
        <ele>0.5</ele>
        <time>2020-06-04T14:05:47Z</time>
      </trkpt>
      <trkpt lat="46.94011" lon="-2.05662">
        <ele>0.4</ele>
        <time>2020-06-04T14:05:48Z</time>
      </trkpt>
      <trkpt lat="46.94011" lon="-2.05654">
        <ele>0.4</ele>
        <time>2020-06-04T14:05:49Z</time>
      </trkpt>
      <trkpt lat="46.94012" lon="-2.05647">
        <ele>0.4</ele>
        <time>2020-06-04T14:05:50Z</time>
      </trkpt>
      <trkpt lat="46.94013" lon="-2.05639">
        <ele>0.4</ele>
        <time>2020-06-04T14:05:51Z</time>
      </trkpt>
      <trkpt lat="46.94013" lon="-2.05632">
        <ele>0.4</ele>
        <time>2020-06-04T14:05:52Z</time>
      </trkpt>
      <trkpt lat="46.94014" lon="-2.05624">
        <ele>0.5</ele>
        <time>2020-06-04T14:05:53Z</time>
      </trkpt>
      <trkpt lat="46.94014" lon="-2.05616">
        <ele>0.5</ele>
        <time>2020-06-04T14:05:54Z</time>
      </trkpt>
      <trkpt lat="46.94015" lon="-2.05609">
        <ele>0.5</ele>
        <time>2020-06-04T14:05:55Z</time>
      </trkpt>
      <trkpt lat="46.94015" lon="-2.05602">
        <ele>0.5</ele>
        <time>2020-06-04T14:05:56Z</time>
      </trkpt>
      <trkpt lat="46.94016" lon="-2.05594">
        <ele>0.5</ele>
        <time>2020-06-04T14:05:57Z</time>
      </trkpt>
      <trkpt lat="46.94016" lon="-2.05587">
        <ele>0.6</ele>
        <time>2020-06-04T14:05:58Z</time>
      </trkpt>
      <trkpt lat="46.94017" lon="-2.0558">
        <ele>0.6</ele>
        <time>2020-06-04T14:05:59Z</time>
      </trkpt>
      <trkpt lat="46.94018" lon="-2.05572">
        <ele>0.6</ele>
        <time>2020-06-04T14:06:00Z</time>
      </trkpt>
      <trkpt lat="46.94018" lon="-2.05565">
        <ele>0.6</ele>
        <time>2020-06-04T14:06:01Z</time>
      </trkpt>
      <trkpt lat="46.94019" lon="-2.05557">
        <ele>0.6</ele>
        <time>2020-06-04T14:06:02Z</time>
      </trkpt>
      <trkpt lat="46.9402" lon="-2.05549">
        <ele>0.6</ele>
        <time>2020-06-04T14:06:03Z</time>
      </trkpt>
      <trkpt lat="46.94021" lon="-2.05541">
        <ele>0.6</ele>
        <time>2020-06-04T14:06:04Z</time>
      </trkpt>
      <trkpt lat="46.94022" lon="-2.05534">
        <ele>0.6</ele>
        <time>2020-06-04T14:06:05Z</time>
      </trkpt>
      <trkpt lat="46.94023" lon="-2.05527">
        <ele>0.6</ele>
        <time>2020-06-04T14:06:06Z</time>
      </trkpt>
      <trkpt lat="46.94025" lon="-2.0552">
        <ele>0.6</ele>
        <time>2020-06-04T14:06:07Z</time>
      </trkpt>
      <trkpt lat="46.94025" lon="-2.05513">
        <ele>0.5</ele>
        <time>2020-06-04T14:06:08Z</time>
      </trkpt>
      <trkpt lat="46.94026" lon="-2.05506">
        <ele>0.5</ele>
        <time>2020-06-04T14:06:09Z</time>
      </trkpt>
      <trkpt lat="46.94027" lon="-2.05499">
        <ele>0.5</ele>
        <time>2020-06-04T14:06:10Z</time>
      </trkpt>
      <trkpt lat="46.94028" lon="-2.05492">
        <ele>0.5</ele>
        <time>2020-06-04T14:06:11Z</time>
      </trkpt>
      <trkpt lat="46.94029" lon="-2.05484">
        <ele>0.5</ele>
        <time>2020-06-04T14:06:12Z</time>
      </trkpt>
      <trkpt lat="46.94029" lon="-2.05476">
        <ele>0.5</ele>
        <time>2020-06-04T14:06:13Z</time>
      </trkpt>
      <trkpt lat="46.94029" lon="-2.05468">
        <ele>0.5</ele>
        <time>2020-06-04T14:06:14Z</time>
      </trkpt>
      <trkpt lat="46.9403" lon="-2.0546">
        <ele>0.5</ele>
        <time>2020-06-04T14:06:15Z</time>
      </trkpt>
      <trkpt lat="46.94032" lon="-2.05453">
        <ele>0.5</ele>
        <time>2020-06-04T14:06:16Z</time>
      </trkpt>
      <trkpt lat="46.94033" lon="-2.05446">
        <ele>0.5</ele>
        <time>2020-06-04T14:06:17Z</time>
      </trkpt>
      <trkpt lat="46.94034" lon="-2.0544">
        <ele>0.5</ele>
        <time>2020-06-04T14:06:18Z</time>
      </trkpt>
      <trkpt lat="46.94035" lon="-2.05434">
        <ele>0.5</ele>
        <time>2020-06-04T14:06:19Z</time>
      </trkpt>
      <trkpt lat="46.94037" lon="-2.05428">
        <ele>0.5</ele>
        <time>2020-06-04T14:06:20Z</time>
      </trkpt>
      <trkpt lat="46.94037" lon="-2.05422">
        <ele>0.5</ele>
        <time>2020-06-04T14:06:21Z</time>
      </trkpt>
      <trkpt lat="46.94038" lon="-2.05416">
        <ele>0.5</ele>
        <time>2020-06-04T14:06:22Z</time>
      </trkpt>
      <trkpt lat="46.94038" lon="-2.0541">
        <ele>0.5</ele>
        <time>2020-06-04T14:06:23Z</time>
      </trkpt>
      <trkpt lat="46.94039" lon="-2.05404">
        <ele>0.5</ele>
        <time>2020-06-04T14:06:24Z</time>
      </trkpt>
      <trkpt lat="46.9404" lon="-2.05399">
        <ele>0.5</ele>
        <time>2020-06-04T14:06:25Z</time>
      </trkpt>
      <trkpt lat="46.94041" lon="-2.05393">
        <ele>0.5</ele>
        <time>2020-06-04T14:06:26Z</time>
      </trkpt>
      <trkpt lat="46.94042" lon="-2.05387">
        <ele>0.5</ele>
        <time>2020-06-04T14:06:27Z</time>
      </trkpt>
      <trkpt lat="46.94043" lon="-2.05381">
        <ele>0.5</ele>
        <time>2020-06-04T14:06:28Z</time>
      </trkpt>
      <trkpt lat="46.94044" lon="-2.05376">
        <ele>0.5</ele>
        <time>2020-06-04T14:06:29Z</time>
      </trkpt>
      <trkpt lat="46.94045" lon="-2.0537">
        <ele>0.5</ele>
        <time>2020-06-04T14:06:30Z</time>
      </trkpt>
      <trkpt lat="46.94046" lon="-2.05365">
        <ele>0.5</ele>
        <time>2020-06-04T14:06:31Z</time>
      </trkpt>
      <trkpt lat="46.94047" lon="-2.05361">
        <ele>0.5</ele>
        <time>2020-06-04T14:06:32Z</time>
      </trkpt>
      <trkpt lat="46.94048" lon="-2.05356">
        <ele>0.5</ele>
        <time>2020-06-04T14:06:33Z</time>
      </trkpt>
      <trkpt lat="46.94048" lon="-2.05351">
        <ele>0.5</ele>
        <time>2020-06-04T14:06:34Z</time>
      </trkpt>
      <trkpt lat="46.94049" lon="-2.05345">
        <ele>0.5</ele>
        <time>2020-06-04T14:06:35Z</time>
      </trkpt>
      <trkpt lat="46.94049" lon="-2.05339">
        <ele>0.5</ele>
        <time>2020-06-04T14:06:36Z</time>
      </trkpt>
      <trkpt lat="46.9405" lon="-2.05332">
        <ele>0.5</ele>
        <time>2020-06-04T14:06:37Z</time>
      </trkpt>
      <trkpt lat="46.94051" lon="-2.05325">
        <ele>0.5</ele>
        <time>2020-06-04T14:06:38Z</time>
      </trkpt>
      <trkpt lat="46.94051" lon="-2.05318">
        <ele>0.5</ele>
        <time>2020-06-04T14:06:39Z</time>
      </trkpt>
      <trkpt lat="46.94052" lon="-2.05311">
        <ele>0.6</ele>
        <time>2020-06-04T14:06:40Z</time>
      </trkpt>
      <trkpt lat="46.94053" lon="-2.05303">
        <ele>0.6</ele>
        <time>2020-06-04T14:06:41Z</time>
      </trkpt>
      <trkpt lat="46.94053" lon="-2.05296">
        <ele>0.6</ele>
        <time>2020-06-04T14:06:42Z</time>
      </trkpt>
      <trkpt lat="46.94055" lon="-2.05288">
        <ele>0.6</ele>
        <time>2020-06-04T14:06:43Z</time>
      </trkpt>
      <trkpt lat="46.94057" lon="-2.05281">
        <ele>0.6</ele>
        <time>2020-06-04T14:06:44Z</time>
      </trkpt>
      <trkpt lat="46.94057" lon="-2.05274">
        <ele>0.6</ele>
        <time>2020-06-04T14:06:45Z</time>
      </trkpt>
      <trkpt lat="46.94058" lon="-2.05267">
        <ele>0.6</ele>
        <time>2020-06-04T14:06:46Z</time>
      </trkpt>
      <trkpt lat="46.9406" lon="-2.0526">
        <ele>0.6</ele>
        <time>2020-06-04T14:06:47Z</time>
      </trkpt>
      <trkpt lat="46.94063" lon="-2.05253">
        <ele>0.6</ele>
        <time>2020-06-04T14:06:48Z</time>
      </trkpt>
      <trkpt lat="46.94067" lon="-2.05248">
        <ele>0.6</ele>
        <time>2020-06-04T14:06:49Z</time>
      </trkpt>
      <trkpt lat="46.94071" lon="-2.05243">
        <ele>0.6</ele>
        <time>2020-06-04T14:06:50Z</time>
      </trkpt>
      <trkpt lat="46.94075" lon="-2.05238">
        <ele>0.7</ele>
        <time>2020-06-04T14:06:51Z</time>
      </trkpt>
      <trkpt lat="46.94079" lon="-2.05232">
        <ele>0.7</ele>
        <time>2020-06-04T14:06:52Z</time>
      </trkpt>
      <trkpt lat="46.94082" lon="-2.05226">
        <ele>0.7</ele>
        <time>2020-06-04T14:06:53Z</time>
      </trkpt>
      <trkpt lat="46.94086" lon="-2.0522">
        <ele>0.7</ele>
        <time>2020-06-04T14:06:54Z</time>
      </trkpt>
      <trkpt lat="46.9409" lon="-2.05215">
        <ele>0.7</ele>
        <time>2020-06-04T14:06:55Z</time>
      </trkpt>
      <trkpt lat="46.94094" lon="-2.05209">
        <ele>0.7</ele>
        <time>2020-06-04T14:06:56Z</time>
      </trkpt>
      <trkpt lat="46.94098" lon="-2.05203">
        <ele>0.7</ele>
        <time>2020-06-04T14:06:57Z</time>
      </trkpt>
      <trkpt lat="46.94102" lon="-2.05197">
        <ele>0.7</ele>
        <time>2020-06-04T14:06:58Z</time>
      </trkpt>
      <trkpt lat="46.94107" lon="-2.05192">
        <ele>0.7</ele>
        <time>2020-06-04T14:06:59Z</time>
      </trkpt>
      <trkpt lat="46.94111" lon="-2.05186">
        <ele>0.7</ele>
        <time>2020-06-04T14:07:00Z</time>
      </trkpt>
      <trkpt lat="46.94115" lon="-2.05181">
        <ele>0.7</ele>
        <time>2020-06-04T14:07:01Z</time>
      </trkpt>
      <trkpt lat="46.94119" lon="-2.05175">
        <ele>0.7</ele>
        <time>2020-06-04T14:07:02Z</time>
      </trkpt>
      <trkpt lat="46.94124" lon="-2.0517">
        <ele>0.7</ele>
        <time>2020-06-04T14:07:03Z</time>
      </trkpt>
      <trkpt lat="46.94128" lon="-2.05163">
        <ele>0.7</ele>
        <time>2020-06-04T14:07:04Z</time>
      </trkpt>
      <trkpt lat="46.94132" lon="-2.05158">
        <ele>0.7</ele>
        <time>2020-06-04T14:07:05Z</time>
      </trkpt>
      <trkpt lat="46.94136" lon="-2.05152">
        <ele>0.7</ele>
        <time>2020-06-04T14:07:06Z</time>
      </trkpt>
      <trkpt lat="46.9414" lon="-2.05148">
        <ele>0.7</ele>
        <time>2020-06-04T14:07:07Z</time>
      </trkpt>
      <trkpt lat="46.94145" lon="-2.05143">
        <ele>0.7</ele>
        <time>2020-06-04T14:07:08Z</time>
      </trkpt>
      <trkpt lat="46.94149" lon="-2.05138">
        <ele>0.7</ele>
        <time>2020-06-04T14:07:09Z</time>
      </trkpt>
      <trkpt lat="46.94152" lon="-2.05134">
        <ele>0.7</ele>
        <time>2020-06-04T14:07:10Z</time>
      </trkpt>
      <trkpt lat="46.94156" lon="-2.05129">
        <ele>0.7</ele>
        <time>2020-06-04T14:07:11Z</time>
      </trkpt>
      <trkpt lat="46.9416" lon="-2.05125">
        <ele>0.7</ele>
        <time>2020-06-04T14:07:12Z</time>
      </trkpt>
      <trkpt lat="46.94164" lon="-2.05124">
        <ele>0.7</ele>
        <time>2020-06-04T14:07:13Z</time>
      </trkpt>
      <trkpt lat="46.94166" lon="-2.05125">
        <ele>0.7</ele>
        <time>2020-06-04T14:07:14Z</time>
      </trkpt>
      <trkpt lat="46.94167" lon="-2.05126">
        <ele>0.7</ele>
        <time>2020-06-04T14:07:15Z</time>
      </trkpt>
      <trkpt lat="46.94167" lon="-2.05126">
        <ele>0.7</ele>
        <time>2020-06-04T14:07:16Z</time>
      </trkpt>
      <trkpt lat="46.94168" lon="-2.05126">
        <ele>0.7</ele>
        <time>2020-06-04T14:07:17Z</time>
      </trkpt>
      <trkpt lat="46.94168" lon="-2.05126">
        <ele>0.7</ele>
        <time>2020-06-04T14:07:18Z</time>
      </trkpt>
      <trkpt lat="46.94168" lon="-2.05126">
        <ele>0.7</ele>
        <time>2020-06-04T14:07:19Z</time>
      </trkpt>
      <trkpt lat="46.94168" lon="-2.05128">
        <ele>0.7</ele>
        <time>2020-06-04T14:07:20Z</time>
      </trkpt>
      <trkpt lat="46.94168" lon="-2.05128">
        <ele>0.7</ele>
        <time>2020-06-04T14:07:21Z</time>
      </trkpt>
      <trkpt lat="46.94169" lon="-2.05129">
        <ele>0.7</ele>
        <time>2020-06-04T14:07:22Z</time>
      </trkpt>
      <trkpt lat="46.94169" lon="-2.05129">
        <ele>0.7</ele>
        <time>2020-06-04T14:07:23Z</time>
      </trkpt>
      <trkpt lat="46.94169" lon="-2.05129">
        <ele>0.7</ele>
        <time>2020-06-04T14:07:24Z</time>
      </trkpt>
      <trkpt lat="46.94169" lon="-2.0513">
        <ele>0.7</ele>
        <time>2020-06-04T14:07:25Z</time>
      </trkpt>
      <trkpt lat="46.94169" lon="-2.05131">
        <ele>0.7</ele>
        <time>2020-06-04T14:07:26Z</time>
      </trkpt>
      <trkpt lat="46.9417" lon="-2.05131">
        <ele>0.7</ele>
        <time>2020-06-04T14:07:27Z</time>
      </trkpt>
      <trkpt lat="46.9417" lon="-2.05132">
        <ele>0.7</ele>
        <time>2020-06-04T14:07:28Z</time>
      </trkpt>
      <trkpt lat="46.94169" lon="-2.05131">
        <ele>0.7</ele>
        <time>2020-06-04T14:07:29Z</time>
      </trkpt>
      <trkpt lat="46.9417" lon="-2.05131">
        <ele>0.7</ele>
        <time>2020-06-04T14:07:30Z</time>
      </trkpt>
      <trkpt lat="46.9417" lon="-2.05132">
        <ele>0.7</ele>
        <time>2020-06-04T14:07:31Z</time>
      </trkpt>
      <trkpt lat="46.9417" lon="-2.05133">
        <ele>0.8</ele>
        <time>2020-06-04T14:07:32Z</time>
      </trkpt>
      <trkpt lat="46.9417" lon="-2.05133">
        <ele>0.8</ele>
        <time>2020-06-04T14:07:33Z</time>
      </trkpt>
      <trkpt lat="46.9417" lon="-2.05133">
        <ele>0.8</ele>
        <time>2020-06-04T14:07:34Z</time>
      </trkpt>
      <trkpt lat="46.9417" lon="-2.05133">
        <ele>0.8</ele>
        <time>2020-06-04T14:07:35Z</time>
      </trkpt>
      <trkpt lat="46.9417" lon="-2.05133">
        <ele>0.8</ele>
        <time>2020-06-04T14:07:36Z</time>
      </trkpt>
      <trkpt lat="46.9417" lon="-2.05132">
        <ele>0.8</ele>
        <time>2020-06-04T14:07:37Z</time>
      </trkpt>
      <trkpt lat="46.9417" lon="-2.05132">
        <ele>0.8</ele>
        <time>2020-06-04T14:07:38Z</time>
      </trkpt>
      <trkpt lat="46.9417" lon="-2.05132">
        <ele>0.8</ele>
        <time>2020-06-04T14:07:39Z</time>
      </trkpt>
      <trkpt lat="46.9417" lon="-2.05132">
        <ele>0.8</ele>
        <time>2020-06-04T14:07:40Z</time>
      </trkpt>
      <trkpt lat="46.94169" lon="-2.05131">
        <ele>0.8</ele>
        <time>2020-06-04T14:07:41Z</time>
      </trkpt>
      <trkpt lat="46.94179" lon="-2.05131">
        <ele>0.8</ele>
        <time>2020-06-04T14:09:29Z</time>
      </trkpt>
      <trkpt lat="46.9418" lon="-2.05133">
        <ele>0.8</ele>
        <time>2020-06-04T14:09:30Z</time>
      </trkpt>
      <trkpt lat="46.94181" lon="-2.05137">
        <ele>0.8</ele>
        <time>2020-06-04T14:09:31Z</time>
      </trkpt>
      <trkpt lat="46.94181" lon="-2.05139">
        <ele>0.8</ele>
        <time>2020-06-04T14:09:32Z</time>
      </trkpt>
      <trkpt lat="46.94183" lon="-2.05142">
        <ele>0.8</ele>
        <time>2020-06-04T14:09:33Z</time>
      </trkpt>
      <trkpt lat="46.94184" lon="-2.05143">
        <ele>0.8</ele>
        <time>2020-06-04T14:09:34Z</time>
      </trkpt>
      <trkpt lat="46.94187" lon="-2.05143">
        <ele>0.9</ele>
        <time>2020-06-04T14:09:35Z</time>
      </trkpt>
      <trkpt lat="46.94188" lon="-2.05144">
        <ele>0.9</ele>
        <time>2020-06-04T14:09:36Z</time>
      </trkpt>
      <trkpt lat="46.94191" lon="-2.05142">
        <ele>0.9</ele>
        <time>2020-06-04T14:09:37Z</time>
      </trkpt>
      <trkpt lat="46.94192" lon="-2.05141">
        <ele>0.9</ele>
        <time>2020-06-04T14:09:38Z</time>
      </trkpt>
      <trkpt lat="46.94195" lon="-2.05138">
        <ele>0.9</ele>
        <time>2020-06-04T14:09:39Z</time>
      </trkpt>
      <trkpt lat="46.94198" lon="-2.05135">
        <ele>0.9</ele>
        <time>2020-06-04T14:09:40Z</time>
      </trkpt>
      <trkpt lat="46.94202" lon="-2.05132">
        <ele>0.9</ele>
        <time>2020-06-04T14:09:41Z</time>
      </trkpt>
      <trkpt lat="46.94206" lon="-2.05129">
        <ele>0.9</ele>
        <time>2020-06-04T14:09:42Z</time>
      </trkpt>
      <trkpt lat="46.9421" lon="-2.05125">
        <ele>0.9</ele>
        <time>2020-06-04T14:09:43Z</time>
      </trkpt>
      <trkpt lat="46.94213" lon="-2.0512">
        <ele>0.9</ele>
        <time>2020-06-04T14:09:44Z</time>
      </trkpt>
      <trkpt lat="46.94216" lon="-2.05116">
        <ele>0.9</ele>
        <time>2020-06-04T14:09:45Z</time>
      </trkpt>
      <trkpt lat="46.9422" lon="-2.05111">
        <ele>0.8</ele>
        <time>2020-06-04T14:09:46Z</time>
      </trkpt>
      <trkpt lat="46.94223" lon="-2.05107">
        <ele>0.8</ele>
        <time>2020-06-04T14:09:47Z</time>
      </trkpt>
      <trkpt lat="46.94227" lon="-2.05103">
        <ele>0.8</ele>
        <time>2020-06-04T14:09:48Z</time>
      </trkpt>
      <trkpt lat="46.9423" lon="-2.05099">
        <ele>0.8</ele>
        <time>2020-06-04T14:09:49Z</time>
      </trkpt>
      <trkpt lat="46.94234" lon="-2.05095">
        <ele>0.7</ele>
        <time>2020-06-04T14:09:50Z</time>
      </trkpt>
      <trkpt lat="46.94237" lon="-2.05092">
        <ele>0.7</ele>
        <time>2020-06-04T14:09:51Z</time>
      </trkpt>
      <trkpt lat="46.9424" lon="-2.05088">
        <ele>0.7</ele>
        <time>2020-06-04T14:09:52Z</time>
      </trkpt>
      <trkpt lat="46.94243" lon="-2.05084">
        <ele>0.7</ele>
        <time>2020-06-04T14:09:53Z</time>
      </trkpt>
      <trkpt lat="46.94246" lon="-2.0508">
        <ele>0.7</ele>
        <time>2020-06-04T14:09:54Z</time>
      </trkpt>
      <trkpt lat="46.94249" lon="-2.05077">
        <ele>0.7</ele>
        <time>2020-06-04T14:09:55Z</time>
      </trkpt>
      <trkpt lat="46.94252" lon="-2.05073">
        <ele>0.7</ele>
        <time>2020-06-04T14:09:56Z</time>
      </trkpt>
      <trkpt lat="46.94256" lon="-2.05068">
        <ele>0.7</ele>
        <time>2020-06-04T14:09:57Z</time>
      </trkpt>
      <trkpt lat="46.94259" lon="-2.05064">
        <ele>0.7</ele>
        <time>2020-06-04T14:09:58Z</time>
      </trkpt>
      <trkpt lat="46.94263" lon="-2.0506">
        <ele>0.7</ele>
        <time>2020-06-04T14:09:59Z</time>
      </trkpt>
      <trkpt lat="46.94267" lon="-2.05055">
        <ele>0.7</ele>
        <time>2020-06-04T14:10:00Z</time>
      </trkpt>
      <trkpt lat="46.94269" lon="-2.05051">
        <ele>0.7</ele>
        <time>2020-06-04T14:10:01Z</time>
      </trkpt>
      <trkpt lat="46.94272" lon="-2.05049">
        <ele>0.7</ele>
        <time>2020-06-04T14:10:02Z</time>
      </trkpt>
      <trkpt lat="46.94277" lon="-2.05044">
        <ele>0.7</ele>
        <time>2020-06-04T14:10:03Z</time>
      </trkpt>
      <trkpt lat="46.9428" lon="-2.05042">
        <ele>0.7</ele>
        <time>2020-06-04T14:10:04Z</time>
      </trkpt>
      <trkpt lat="46.94283" lon="-2.05039">
        <ele>0.7</ele>
        <time>2020-06-04T14:10:05Z</time>
      </trkpt>
      <trkpt lat="46.94286" lon="-2.05036">
        <ele>0.7</ele>
        <time>2020-06-04T14:10:06Z</time>
      </trkpt>
      <trkpt lat="46.9429" lon="-2.05032">
        <ele>0.7</ele>
        <time>2020-06-04T14:10:07Z</time>
      </trkpt>
      <trkpt lat="46.94294" lon="-2.05026">
        <ele>0.7</ele>
        <time>2020-06-04T14:10:08Z</time>
      </trkpt>
      <trkpt lat="46.94297" lon="-2.05021">
        <ele>0.7</ele>
        <time>2020-06-04T14:10:09Z</time>
      </trkpt>
      <trkpt lat="46.94301" lon="-2.05016">
        <ele>0.7</ele>
        <time>2020-06-04T14:10:10Z</time>
      </trkpt>
      <trkpt lat="46.94304" lon="-2.05011">
        <ele>0.7</ele>
        <time>2020-06-04T14:10:11Z</time>
      </trkpt>
      <trkpt lat="46.94308" lon="-2.05008">
        <ele>0.7</ele>
        <time>2020-06-04T14:10:12Z</time>
      </trkpt>
      <trkpt lat="46.94311" lon="-2.05004">
        <ele>0.7</ele>
        <time>2020-06-04T14:10:13Z</time>
      </trkpt>
      <trkpt lat="46.94314" lon="-2.05001">
        <ele>0.7</ele>
        <time>2020-06-04T14:10:14Z</time>
      </trkpt>
      <trkpt lat="46.94316" lon="-2.04998">
        <ele>0.7</ele>
        <time>2020-06-04T14:10:15Z</time>
      </trkpt>
      <trkpt lat="46.9432" lon="-2.04994">
        <ele>0.7</ele>
        <time>2020-06-04T14:10:16Z</time>
      </trkpt>
      <trkpt lat="46.94324" lon="-2.0499">
        <ele>0.7</ele>
        <time>2020-06-04T14:10:17Z</time>
      </trkpt>
      <trkpt lat="46.94327" lon="-2.04987">
        <ele>0.7</ele>
        <time>2020-06-04T14:10:18Z</time>
      </trkpt>
      <trkpt lat="46.94332" lon="-2.04982">
        <ele>0.7</ele>
        <time>2020-06-04T14:10:19Z</time>
      </trkpt>
      <trkpt lat="46.94335" lon="-2.04979">
        <ele>0.7</ele>
        <time>2020-06-04T14:10:20Z</time>
      </trkpt>
      <trkpt lat="46.94339" lon="-2.04974">
        <ele>0.8</ele>
        <time>2020-06-04T14:10:21Z</time>
      </trkpt>
      <trkpt lat="46.94342" lon="-2.04971">
        <ele>0.8</ele>
        <time>2020-06-04T14:10:22Z</time>
      </trkpt>
      <trkpt lat="46.94346" lon="-2.04967">
        <ele>0.8</ele>
        <time>2020-06-04T14:10:23Z</time>
      </trkpt>
      <trkpt lat="46.9435" lon="-2.04963">
        <ele>0.8</ele>
        <time>2020-06-04T14:10:24Z</time>
      </trkpt>
      <trkpt lat="46.94353" lon="-2.04959">
        <ele>0.8</ele>
        <time>2020-06-04T14:10:25Z</time>
      </trkpt>
      <trkpt lat="46.94357" lon="-2.04954">
        <ele>0.8</ele>
        <time>2020-06-04T14:10:26Z</time>
      </trkpt>
      <trkpt lat="46.94361" lon="-2.04949">
        <ele>0.8</ele>
        <time>2020-06-04T14:10:27Z</time>
      </trkpt>
      <trkpt lat="46.94364" lon="-2.04945">
        <ele>0.8</ele>
        <time>2020-06-04T14:10:28Z</time>
      </trkpt>
      <trkpt lat="46.94366" lon="-2.04941">
        <ele>0.8</ele>
        <time>2020-06-04T14:10:29Z</time>
      </trkpt>
      <trkpt lat="46.94368" lon="-2.04938">
        <ele>0.8</ele>
        <time>2020-06-04T14:10:30Z</time>
      </trkpt>
      <trkpt lat="46.94371" lon="-2.04934">
        <ele>0.8</ele>
        <time>2020-06-04T14:10:31Z</time>
      </trkpt>
      <trkpt lat="46.94374" lon="-2.0493">
        <ele>0.8</ele>
        <time>2020-06-04T14:10:32Z</time>
      </trkpt>
      <trkpt lat="46.94376" lon="-2.04926">
        <ele>0.8</ele>
        <time>2020-06-04T14:10:33Z</time>
      </trkpt>
      <trkpt lat="46.94379" lon="-2.04923">
        <ele>0.8</ele>
        <time>2020-06-04T14:10:34Z</time>
      </trkpt>
      <trkpt lat="46.94383" lon="-2.04918">
        <ele>0.8</ele>
        <time>2020-06-04T14:10:35Z</time>
      </trkpt>
      <trkpt lat="46.94386" lon="-2.04913">
        <ele>0.8</ele>
        <time>2020-06-04T14:10:36Z</time>
      </trkpt>
      <trkpt lat="46.94388" lon="-2.04909">
        <ele>0.8</ele>
        <time>2020-06-04T14:10:37Z</time>
      </trkpt>
      <trkpt lat="46.9439" lon="-2.04903">
        <ele>0.8</ele>
        <time>2020-06-04T14:10:38Z</time>
      </trkpt>
      <trkpt lat="46.94393" lon="-2.04898">
        <ele>0.8</ele>
        <time>2020-06-04T14:10:39Z</time>
      </trkpt>
      <trkpt lat="46.94396" lon="-2.04893">
        <ele>0.8</ele>
        <time>2020-06-04T14:10:40Z</time>
      </trkpt>
      <trkpt lat="46.94399" lon="-2.04888">
        <ele>0.8</ele>
        <time>2020-06-04T14:10:41Z</time>
      </trkpt>
      <trkpt lat="46.94401" lon="-2.04884">
        <ele>0.8</ele>
        <time>2020-06-04T14:10:42Z</time>
      </trkpt>
      <trkpt lat="46.94404" lon="-2.04879">
        <ele>0.8</ele>
        <time>2020-06-04T14:10:43Z</time>
      </trkpt>
      <trkpt lat="46.94407" lon="-2.04875">
        <ele>0.8</ele>
        <time>2020-06-04T14:10:44Z</time>
      </trkpt>
      <trkpt lat="46.94409" lon="-2.04871">
        <ele>0.8</ele>
        <time>2020-06-04T14:10:45Z</time>
      </trkpt>
      <trkpt lat="46.94412" lon="-2.04867">
        <ele>0.8</ele>
        <time>2020-06-04T14:10:46Z</time>
      </trkpt>
      <trkpt lat="46.94414" lon="-2.04862">
        <ele>0.8</ele>
        <time>2020-06-04T14:10:47Z</time>
      </trkpt>
      <trkpt lat="46.94417" lon="-2.04856">
        <ele>0.8</ele>
        <time>2020-06-04T14:10:48Z</time>
      </trkpt>
      <trkpt lat="46.94419" lon="-2.04852">
        <ele>0.8</ele>
        <time>2020-06-04T14:10:49Z</time>
      </trkpt>
      <trkpt lat="46.94422" lon="-2.04847">
        <ele>0.8</ele>
        <time>2020-06-04T14:10:50Z</time>
      </trkpt>
      <trkpt lat="46.94424" lon="-2.04843">
        <ele>0.8</ele>
        <time>2020-06-04T14:10:51Z</time>
      </trkpt>
      <trkpt lat="46.94427" lon="-2.04839">
        <ele>0.8</ele>
        <time>2020-06-04T14:10:52Z</time>
      </trkpt>
      <trkpt lat="46.9443" lon="-2.04834">
        <ele>0.8</ele>
        <time>2020-06-04T14:10:53Z</time>
      </trkpt>
      <trkpt lat="46.94433" lon="-2.0483">
        <ele>0.8</ele>
        <time>2020-06-04T14:10:54Z</time>
      </trkpt>
      <trkpt lat="46.94437" lon="-2.04825">
        <ele>0.8</ele>
        <time>2020-06-04T14:10:55Z</time>
      </trkpt>
      <trkpt lat="46.9444" lon="-2.04821">
        <ele>0.9</ele>
        <time>2020-06-04T14:10:56Z</time>
      </trkpt>
      <trkpt lat="46.94444" lon="-2.04817">
        <ele>0.9</ele>
        <time>2020-06-04T14:10:57Z</time>
      </trkpt>
      <trkpt lat="46.94447" lon="-2.04812">
        <ele>0.9</ele>
        <time>2020-06-04T14:10:58Z</time>
      </trkpt>
      <trkpt lat="46.94451" lon="-2.04807">
        <ele>0.9</ele>
        <time>2020-06-04T14:10:59Z</time>
      </trkpt>
      <trkpt lat="46.94455" lon="-2.04803">
        <ele>0.9</ele>
        <time>2020-06-04T14:11:00Z</time>
      </trkpt>
      <trkpt lat="46.94459" lon="-2.04798">
        <ele>1</ele>
        <time>2020-06-04T14:11:01Z</time>
      </trkpt>
      <trkpt lat="46.94463" lon="-2.04793">
        <ele>1</ele>
        <time>2020-06-04T14:11:02Z</time>
      </trkpt>
      <trkpt lat="46.94466" lon="-2.04788">
        <ele>1</ele>
        <time>2020-06-04T14:11:03Z</time>
      </trkpt>
      <trkpt lat="46.9447" lon="-2.04783">
        <ele>1</ele>
        <time>2020-06-04T14:11:04Z</time>
      </trkpt>
      <trkpt lat="46.94473" lon="-2.04777">
        <ele>1</ele>
        <time>2020-06-04T14:11:05Z</time>
      </trkpt>
      <trkpt lat="46.94477" lon="-2.04773">
        <ele>1</ele>
        <time>2020-06-04T14:11:06Z</time>
      </trkpt>
      <trkpt lat="46.94479" lon="-2.04766">
        <ele>1</ele>
        <time>2020-06-04T14:11:07Z</time>
      </trkpt>
      <trkpt lat="46.94482" lon="-2.0476">
        <ele>1</ele>
        <time>2020-06-04T14:11:08Z</time>
      </trkpt>
      <trkpt lat="46.94485" lon="-2.04754">
        <ele>1</ele>
        <time>2020-06-04T14:11:09Z</time>
      </trkpt>
      <trkpt lat="46.94488" lon="-2.04748">
        <ele>1.1</ele>
        <time>2020-06-04T14:11:10Z</time>
      </trkpt>
      <trkpt lat="46.94491" lon="-2.04743">
        <ele>1.1</ele>
        <time>2020-06-04T14:11:11Z</time>
      </trkpt>
      <trkpt lat="46.94494" lon="-2.04736">
        <ele>1.1</ele>
        <time>2020-06-04T14:11:12Z</time>
      </trkpt>
      <trkpt lat="46.94497" lon="-2.0473">
        <ele>1.1</ele>
        <time>2020-06-04T14:11:13Z</time>
      </trkpt>
      <trkpt lat="46.945" lon="-2.04724">
        <ele>1.1</ele>
        <time>2020-06-04T14:11:14Z</time>
      </trkpt>
      <trkpt lat="46.94503" lon="-2.04718">
        <ele>1.1</ele>
        <time>2020-06-04T14:11:15Z</time>
      </trkpt>
      <trkpt lat="46.94506" lon="-2.04711">
        <ele>1.1</ele>
        <time>2020-06-04T14:11:16Z</time>
      </trkpt>
      <trkpt lat="46.94508" lon="-2.04705">
        <ele>1.2</ele>
        <time>2020-06-04T14:11:17Z</time>
      </trkpt>
      <trkpt lat="46.94511" lon="-2.04699">
        <ele>1.2</ele>
        <time>2020-06-04T14:11:18Z</time>
      </trkpt>
      <trkpt lat="46.94514" lon="-2.04693">
        <ele>1.2</ele>
        <time>2020-06-04T14:11:19Z</time>
      </trkpt>
      <trkpt lat="46.94516" lon="-2.04688">
        <ele>1.2</ele>
        <time>2020-06-04T14:11:20Z</time>
      </trkpt>
      <trkpt lat="46.94519" lon="-2.04681">
        <ele>1.2</ele>
        <time>2020-06-04T14:11:21Z</time>
      </trkpt>
      <trkpt lat="46.94521" lon="-2.04675">
        <ele>1.3</ele>
        <time>2020-06-04T14:11:22Z</time>
      </trkpt>
      <trkpt lat="46.94523" lon="-2.04668">
        <ele>1.3</ele>
        <time>2020-06-04T14:11:23Z</time>
      </trkpt>
      <trkpt lat="46.94525" lon="-2.04661">
        <ele>1.3</ele>
        <time>2020-06-04T14:11:24Z</time>
      </trkpt>
      <trkpt lat="46.94527" lon="-2.04654">
        <ele>1.3</ele>
        <time>2020-06-04T14:11:25Z</time>
      </trkpt>
      <trkpt lat="46.94529" lon="-2.04647">
        <ele>1.3</ele>
        <time>2020-06-04T14:11:26Z</time>
      </trkpt>
      <trkpt lat="46.9453" lon="-2.0464">
        <ele>1.3</ele>
        <time>2020-06-04T14:11:27Z</time>
      </trkpt>
      <trkpt lat="46.94531" lon="-2.04632">
        <ele>1.3</ele>
        <time>2020-06-04T14:11:28Z</time>
      </trkpt>
      <trkpt lat="46.94533" lon="-2.04625">
        <ele>1.4</ele>
        <time>2020-06-04T14:11:29Z</time>
      </trkpt>
      <trkpt lat="46.94534" lon="-2.04617">
        <ele>1.4</ele>
        <time>2020-06-04T14:11:30Z</time>
      </trkpt>
      <trkpt lat="46.94535" lon="-2.04609">
        <ele>1.4</ele>
        <time>2020-06-04T14:11:31Z</time>
      </trkpt>
      <trkpt lat="46.94538" lon="-2.04603">
        <ele>1.4</ele>
        <time>2020-06-04T14:11:32Z</time>
      </trkpt>
      <trkpt lat="46.94539" lon="-2.04597">
        <ele>1.4</ele>
        <time>2020-06-04T14:11:33Z</time>
      </trkpt>
      <trkpt lat="46.94542" lon="-2.0459">
        <ele>1.5</ele>
        <time>2020-06-04T14:11:34Z</time>
      </trkpt>
      <trkpt lat="46.94544" lon="-2.04583">
        <ele>1.5</ele>
        <time>2020-06-04T14:11:35Z</time>
      </trkpt>
      <trkpt lat="46.94547" lon="-2.04577">
        <ele>1.5</ele>
        <time>2020-06-04T14:11:36Z</time>
      </trkpt>
      <trkpt lat="46.94549" lon="-2.04572">
        <ele>1.5</ele>
        <time>2020-06-04T14:11:37Z</time>
      </trkpt>
      <trkpt lat="46.94552" lon="-2.04566">
        <ele>1.5</ele>
        <time>2020-06-04T14:11:38Z</time>
      </trkpt>
      <trkpt lat="46.94555" lon="-2.0456">
        <ele>1.5</ele>
        <time>2020-06-04T14:11:39Z</time>
      </trkpt>
      <trkpt lat="46.94558" lon="-2.04553">
        <ele>1.5</ele>
        <time>2020-06-04T14:11:40Z</time>
      </trkpt>
      <trkpt lat="46.94561" lon="-2.04547">
        <ele>1.5</ele>
        <time>2020-06-04T14:11:41Z</time>
      </trkpt>
      <trkpt lat="46.94565" lon="-2.04541">
        <ele>1.6</ele>
        <time>2020-06-04T14:11:42Z</time>
      </trkpt>
      <trkpt lat="46.94568" lon="-2.04535">
        <ele>1.6</ele>
        <time>2020-06-04T14:11:43Z</time>
      </trkpt>
      <trkpt lat="46.94572" lon="-2.04529">
        <ele>1.6</ele>
        <time>2020-06-04T14:11:44Z</time>
      </trkpt>
      <trkpt lat="46.94575" lon="-2.04523">
        <ele>1.6</ele>
        <time>2020-06-04T14:11:45Z</time>
      </trkpt>
      <trkpt lat="46.94579" lon="-2.04517">
        <ele>1.6</ele>
        <time>2020-06-04T14:11:46Z</time>
      </trkpt>
      <trkpt lat="46.94583" lon="-2.04511">
        <ele>1.7</ele>
        <time>2020-06-04T14:11:47Z</time>
      </trkpt>
      <trkpt lat="46.94587" lon="-2.04506">
        <ele>1.7</ele>
        <time>2020-06-04T14:11:48Z</time>
      </trkpt>
      <trkpt lat="46.94591" lon="-2.04502">
        <ele>1.7</ele>
        <time>2020-06-04T14:11:49Z</time>
      </trkpt>
      <trkpt lat="46.94596" lon="-2.04498">
        <ele>1.8</ele>
        <time>2020-06-04T14:11:50Z</time>
      </trkpt>
      <trkpt lat="46.946" lon="-2.04494">
        <ele>1.8</ele>
        <time>2020-06-04T14:11:51Z</time>
      </trkpt>
      <trkpt lat="46.94605" lon="-2.0449">
        <ele>1.8</ele>
        <time>2020-06-04T14:11:52Z</time>
      </trkpt>
      <trkpt lat="46.94609" lon="-2.04487">
        <ele>1.8</ele>
        <time>2020-06-04T14:11:53Z</time>
      </trkpt>
      <trkpt lat="46.94615" lon="-2.04483">
        <ele>1.8</ele>
        <time>2020-06-04T14:11:54Z</time>
      </trkpt>
      <trkpt lat="46.94618" lon="-2.04479">
        <ele>1.8</ele>
        <time>2020-06-04T14:11:55Z</time>
      </trkpt>
      <trkpt lat="46.94622" lon="-2.04475">
        <ele>1.8</ele>
        <time>2020-06-04T14:11:56Z</time>
      </trkpt>
      <trkpt lat="46.94626" lon="-2.04471">
        <ele>1.8</ele>
        <time>2020-06-04T14:11:57Z</time>
      </trkpt>
      <trkpt lat="46.94631" lon="-2.04466">
        <ele>1.8</ele>
        <time>2020-06-04T14:11:58Z</time>
      </trkpt>
      <trkpt lat="46.94635" lon="-2.04462">
        <ele>1.8</ele>
        <time>2020-06-04T14:11:59Z</time>
      </trkpt>
      <trkpt lat="46.94639" lon="-2.04458">
        <ele>1.9</ele>
        <time>2020-06-04T14:12:00Z</time>
      </trkpt>
      <trkpt lat="46.94644" lon="-2.04453">
        <ele>1.9</ele>
        <time>2020-06-04T14:12:01Z</time>
      </trkpt>
      <trkpt lat="46.94648" lon="-2.0445">
        <ele>1.9</ele>
        <time>2020-06-04T14:12:02Z</time>
      </trkpt>
      <trkpt lat="46.94652" lon="-2.04447">
        <ele>1.9</ele>
        <time>2020-06-04T14:12:03Z</time>
      </trkpt>
      <trkpt lat="46.94657" lon="-2.04445">
        <ele>1.9</ele>
        <time>2020-06-04T14:12:04Z</time>
      </trkpt>
      <trkpt lat="46.94661" lon="-2.04442">
        <ele>1.9</ele>
        <time>2020-06-04T14:12:05Z</time>
      </trkpt>
      <trkpt lat="46.94665" lon="-2.04439">
        <ele>1.9</ele>
        <time>2020-06-04T14:12:06Z</time>
      </trkpt>
      <trkpt lat="46.9467" lon="-2.04436">
        <ele>1.9</ele>
        <time>2020-06-04T14:12:07Z</time>
      </trkpt>
      <trkpt lat="46.94675" lon="-2.04433">
        <ele>1.9</ele>
        <time>2020-06-04T14:12:08Z</time>
      </trkpt>
      <trkpt lat="46.94679" lon="-2.04429">
        <ele>1.9</ele>
        <time>2020-06-04T14:12:09Z</time>
      </trkpt>
      <trkpt lat="46.94684" lon="-2.04426">
        <ele>1.9</ele>
        <time>2020-06-04T14:12:10Z</time>
      </trkpt>
      <trkpt lat="46.94688" lon="-2.04423">
        <ele>1.9</ele>
        <time>2020-06-04T14:12:11Z</time>
      </trkpt>
      <trkpt lat="46.94692" lon="-2.0442">
        <ele>1.9</ele>
        <time>2020-06-04T14:12:12Z</time>
      </trkpt>
      <trkpt lat="46.94697" lon="-2.04415">
        <ele>2</ele>
        <time>2020-06-04T14:12:13Z</time>
      </trkpt>
      <trkpt lat="46.94702" lon="-2.04412">
        <ele>2</ele>
        <time>2020-06-04T14:12:14Z</time>
      </trkpt>
      <trkpt lat="46.94707" lon="-2.04408">
        <ele>2</ele>
        <time>2020-06-04T14:12:15Z</time>
      </trkpt>
      <trkpt lat="46.94711" lon="-2.04404">
        <ele>2</ele>
        <time>2020-06-04T14:12:16Z</time>
      </trkpt>
      <trkpt lat="46.94715" lon="-2.044">
        <ele>2</ele>
        <time>2020-06-04T14:12:17Z</time>
      </trkpt>
      <trkpt lat="46.94719" lon="-2.04397">
        <ele>2</ele>
        <time>2020-06-04T14:12:18Z</time>
      </trkpt>
      <trkpt lat="46.94723" lon="-2.04393">
        <ele>2</ele>
        <time>2020-06-04T14:12:19Z</time>
      </trkpt>
      <trkpt lat="46.94727" lon="-2.04388">
        <ele>2</ele>
        <time>2020-06-04T14:12:20Z</time>
      </trkpt>
      <trkpt lat="46.94732" lon="-2.04384">
        <ele>2</ele>
        <time>2020-06-04T14:12:21Z</time>
      </trkpt>
      <trkpt lat="46.94736" lon="-2.0438">
        <ele>2</ele>
        <time>2020-06-04T14:12:22Z</time>
      </trkpt>
      <trkpt lat="46.94741" lon="-2.04376">
        <ele>2</ele>
        <time>2020-06-04T14:12:23Z</time>
      </trkpt>
      <trkpt lat="46.94746" lon="-2.04372">
        <ele>2</ele>
        <time>2020-06-04T14:12:24Z</time>
      </trkpt>
      <trkpt lat="46.9475" lon="-2.04369">
        <ele>2</ele>
        <time>2020-06-04T14:12:25Z</time>
      </trkpt>
      <trkpt lat="46.94754" lon="-2.04366">
        <ele>2</ele>
        <time>2020-06-04T14:12:26Z</time>
      </trkpt>
      <trkpt lat="46.94758" lon="-2.04362">
        <ele>2</ele>
        <time>2020-06-04T14:12:27Z</time>
      </trkpt>
      <trkpt lat="46.94763" lon="-2.04358">
        <ele>2</ele>
        <time>2020-06-04T14:12:28Z</time>
      </trkpt>
      <trkpt lat="46.94767" lon="-2.04354">
        <ele>2</ele>
        <time>2020-06-04T14:12:29Z</time>
      </trkpt>
      <trkpt lat="46.94771" lon="-2.0435">
        <ele>2</ele>
        <time>2020-06-04T14:12:30Z</time>
      </trkpt>
      <trkpt lat="46.94775" lon="-2.04346">
        <ele>2</ele>
        <time>2020-06-04T14:12:31Z</time>
      </trkpt>
      <trkpt lat="46.94779" lon="-2.04343">
        <ele>2</ele>
        <time>2020-06-04T14:12:32Z</time>
      </trkpt>
      <trkpt lat="46.94783" lon="-2.04339">
        <ele>2</ele>
        <time>2020-06-04T14:12:33Z</time>
      </trkpt>
      <trkpt lat="46.94787" lon="-2.04335">
        <ele>2</ele>
        <time>2020-06-04T14:12:34Z</time>
      </trkpt>
      <trkpt lat="46.94791" lon="-2.04334">
        <ele>2</ele>
        <time>2020-06-04T14:12:35Z</time>
      </trkpt>
      <trkpt lat="46.94795" lon="-2.0433">
        <ele>2</ele>
        <time>2020-06-04T14:12:36Z</time>
      </trkpt>
      <trkpt lat="46.94799" lon="-2.04328">
        <ele>2</ele>
        <time>2020-06-04T14:12:37Z</time>
      </trkpt>
      <trkpt lat="46.94804" lon="-2.04328">
        <ele>2</ele>
        <time>2020-06-04T14:12:38Z</time>
      </trkpt>
      <trkpt lat="46.94808" lon="-2.04331">
        <ele>2</ele>
        <time>2020-06-04T14:12:39Z</time>
      </trkpt>
      <trkpt lat="46.94813" lon="-2.04334">
        <ele>1.9</ele>
        <time>2020-06-04T14:12:40Z</time>
      </trkpt>
      <trkpt lat="46.94817" lon="-2.04337">
        <ele>1.8</ele>
        <time>2020-06-04T14:12:41Z</time>
      </trkpt>
      <trkpt lat="46.9482" lon="-2.04341">
        <ele>1.7</ele>
        <time>2020-06-04T14:12:42Z</time>
      </trkpt>
      <trkpt lat="46.94824" lon="-2.04345">
        <ele>1.6</ele>
        <time>2020-06-04T14:12:43Z</time>
      </trkpt>
      <trkpt lat="46.94828" lon="-2.0435">
        <ele>1.5</ele>
        <time>2020-06-04T14:12:44Z</time>
      </trkpt>
      <trkpt lat="46.9483" lon="-2.04357">
        <ele>1.5</ele>
        <time>2020-06-04T14:12:45Z</time>
      </trkpt>
      <trkpt lat="46.94833" lon="-2.04363">
        <ele>1.4</ele>
        <time>2020-06-04T14:12:46Z</time>
      </trkpt>
      <trkpt lat="46.94836" lon="-2.0437">
        <ele>1.4</ele>
        <time>2020-06-04T14:12:47Z</time>
      </trkpt>
      <trkpt lat="46.94838" lon="-2.04376">
        <ele>1.4</ele>
        <time>2020-06-04T14:12:48Z</time>
      </trkpt>
      <trkpt lat="46.9484" lon="-2.04383">
        <ele>1.3</ele>
        <time>2020-06-04T14:12:49Z</time>
      </trkpt>
      <trkpt lat="46.94842" lon="-2.04391">
        <ele>1.3</ele>
        <time>2020-06-04T14:12:50Z</time>
      </trkpt>
      <trkpt lat="46.94844" lon="-2.04398">
        <ele>1.2</ele>
        <time>2020-06-04T14:12:51Z</time>
      </trkpt>
      <trkpt lat="46.94846" lon="-2.04405">
        <ele>1.2</ele>
        <time>2020-06-04T14:12:52Z</time>
      </trkpt>
      <trkpt lat="46.94848" lon="-2.04412">
        <ele>1.2</ele>
        <time>2020-06-04T14:12:53Z</time>
      </trkpt>
      <trkpt lat="46.9485" lon="-2.04418">
        <ele>1.2</ele>
        <time>2020-06-04T14:12:54Z</time>
      </trkpt>
      <trkpt lat="46.94852" lon="-2.04425">
        <ele>1.1</ele>
        <time>2020-06-04T14:12:55Z</time>
      </trkpt>
      <trkpt lat="46.94854" lon="-2.04431">
        <ele>1.1</ele>
        <time>2020-06-04T14:12:56Z</time>
      </trkpt>
      <trkpt lat="46.94856" lon="-2.04436">
        <ele>1.1</ele>
        <time>2020-06-04T14:12:57Z</time>
      </trkpt>
      <trkpt lat="46.94858" lon="-2.04442">
        <ele>1.1</ele>
        <time>2020-06-04T14:12:58Z</time>
      </trkpt>
      <trkpt lat="46.94859" lon="-2.04449">
        <ele>1.1</ele>
        <time>2020-06-04T14:12:59Z</time>
      </trkpt>
      <trkpt lat="46.94861" lon="-2.04455">
        <ele>1.1</ele>
        <time>2020-06-04T14:13:00Z</time>
      </trkpt>
      <trkpt lat="46.94863" lon="-2.04461">
        <ele>1.1</ele>
        <time>2020-06-04T14:13:01Z</time>
      </trkpt>
      <trkpt lat="46.94865" lon="-2.04467">
        <ele>1.1</ele>
        <time>2020-06-04T14:13:02Z</time>
      </trkpt>
      <trkpt lat="46.94867" lon="-2.04473">
        <ele>1.1</ele>
        <time>2020-06-04T14:13:03Z</time>
      </trkpt>
      <trkpt lat="46.94869" lon="-2.04479">
        <ele>1.1</ele>
        <time>2020-06-04T14:13:04Z</time>
      </trkpt>
      <trkpt lat="46.9487" lon="-2.04486">
        <ele>1.1</ele>
        <time>2020-06-04T14:13:05Z</time>
      </trkpt>
      <trkpt lat="46.94872" lon="-2.04492">
        <ele>1.1</ele>
        <time>2020-06-04T14:13:06Z</time>
      </trkpt>
      <trkpt lat="46.94874" lon="-2.04498">
        <ele>1.1</ele>
        <time>2020-06-04T14:13:07Z</time>
      </trkpt>
      <trkpt lat="46.94876" lon="-2.04504">
        <ele>1</ele>
        <time>2020-06-04T14:13:08Z</time>
      </trkpt>
      <trkpt lat="46.94878" lon="-2.0451">
        <ele>1</ele>
        <time>2020-06-04T14:13:09Z</time>
      </trkpt>
      <trkpt lat="46.9488" lon="-2.04516">
        <ele>1</ele>
        <time>2020-06-04T14:13:10Z</time>
      </trkpt>
      <trkpt lat="46.94882" lon="-2.04522">
        <ele>1</ele>
        <time>2020-06-04T14:13:11Z</time>
      </trkpt>
      <trkpt lat="46.94884" lon="-2.04529">
        <ele>0.9</ele>
        <time>2020-06-04T14:13:12Z</time>
      </trkpt>
      <trkpt lat="46.94885" lon="-2.04535">
        <ele>0.9</ele>
        <time>2020-06-04T14:13:13Z</time>
      </trkpt>
      <trkpt lat="46.94887" lon="-2.0454">
        <ele>0.9</ele>
        <time>2020-06-04T14:13:14Z</time>
      </trkpt>
      <trkpt lat="46.94889" lon="-2.04547">
        <ele>0.8</ele>
        <time>2020-06-04T14:13:15Z</time>
      </trkpt>
      <trkpt lat="46.94891" lon="-2.04552">
        <ele>0.8</ele>
        <time>2020-06-04T14:13:16Z</time>
      </trkpt>
      <trkpt lat="46.94894" lon="-2.04558">
        <ele>0.8</ele>
        <time>2020-06-04T14:13:17Z</time>
      </trkpt>
      <trkpt lat="46.94896" lon="-2.04565">
        <ele>0.7</ele>
        <time>2020-06-04T14:13:18Z</time>
      </trkpt>
      <trkpt lat="46.94898" lon="-2.04571">
        <ele>0.7</ele>
        <time>2020-06-04T14:13:19Z</time>
      </trkpt>
      <trkpt lat="46.94902" lon="-2.04577">
        <ele>0.7</ele>
        <time>2020-06-04T14:13:20Z</time>
      </trkpt>
      <trkpt lat="46.94904" lon="-2.04584">
        <ele>0.7</ele>
        <time>2020-06-04T14:13:21Z</time>
      </trkpt>
      <trkpt lat="46.94907" lon="-2.0459">
        <ele>0.7</ele>
        <time>2020-06-04T14:13:22Z</time>
      </trkpt>
      <trkpt lat="46.94908" lon="-2.04597">
        <ele>0.7</ele>
        <time>2020-06-04T14:13:23Z</time>
      </trkpt>
      <trkpt lat="46.9491" lon="-2.04603">
        <ele>0.7</ele>
        <time>2020-06-04T14:13:24Z</time>
      </trkpt>
      <trkpt lat="46.94912" lon="-2.04609">
        <ele>0.7</ele>
        <time>2020-06-04T14:13:25Z</time>
      </trkpt>
      <trkpt lat="46.94913" lon="-2.04614">
        <ele>0.7</ele>
        <time>2020-06-04T14:13:26Z</time>
      </trkpt>
      <trkpt lat="46.94915" lon="-2.04619">
        <ele>0.7</ele>
        <time>2020-06-04T14:13:27Z</time>
      </trkpt>
      <trkpt lat="46.94917" lon="-2.04624">
        <ele>0.7</ele>
        <time>2020-06-04T14:13:28Z</time>
      </trkpt>
      <trkpt lat="46.94919" lon="-2.04631">
        <ele>0.7</ele>
        <time>2020-06-04T14:13:29Z</time>
      </trkpt>
      <trkpt lat="46.94922" lon="-2.04635">
        <ele>0.7</ele>
        <time>2020-06-04T14:13:30Z</time>
      </trkpt>
      <trkpt lat="46.94924" lon="-2.04641">
        <ele>0.7</ele>
        <time>2020-06-04T14:13:31Z</time>
      </trkpt>
      <trkpt lat="46.94925" lon="-2.04645">
        <ele>0.7</ele>
        <time>2020-06-04T14:13:32Z</time>
      </trkpt>
      <trkpt lat="46.94926" lon="-2.04651">
        <ele>0.7</ele>
        <time>2020-06-04T14:13:33Z</time>
      </trkpt>
      <trkpt lat="46.94928" lon="-2.04657">
        <ele>0.7</ele>
        <time>2020-06-04T14:13:34Z</time>
      </trkpt>
      <trkpt lat="46.94929" lon="-2.04663">
        <ele>0.7</ele>
        <time>2020-06-04T14:13:35Z</time>
      </trkpt>
      <trkpt lat="46.9493" lon="-2.04668">
        <ele>0.7</ele>
        <time>2020-06-04T14:13:36Z</time>
      </trkpt>
      <trkpt lat="46.94932" lon="-2.04674">
        <ele>0.7</ele>
        <time>2020-06-04T14:13:37Z</time>
      </trkpt>
      <trkpt lat="46.94933" lon="-2.04679">
        <ele>0.6</ele>
        <time>2020-06-04T14:13:38Z</time>
      </trkpt>
      <trkpt lat="46.94935" lon="-2.04684">
        <ele>0.6</ele>
        <time>2020-06-04T14:13:39Z</time>
      </trkpt>
      <trkpt lat="46.94937" lon="-2.04688">
        <ele>0.6</ele>
        <time>2020-06-04T14:13:40Z</time>
      </trkpt>
      <trkpt lat="46.94939" lon="-2.04691">
        <ele>0.6</ele>
        <time>2020-06-04T14:13:41Z</time>
      </trkpt>
      <trkpt lat="46.9494" lon="-2.04697">
        <ele>0.6</ele>
        <time>2020-06-04T14:13:42Z</time>
      </trkpt>
      <trkpt lat="46.94941" lon="-2.04701">
        <ele>0.6</ele>
        <time>2020-06-04T14:13:43Z</time>
      </trkpt>
      <trkpt lat="46.94942" lon="-2.04705">
        <ele>0.7</ele>
        <time>2020-06-04T14:13:44Z</time>
      </trkpt>
      <trkpt lat="46.94943" lon="-2.04708">
        <ele>0.7</ele>
        <time>2020-06-04T14:13:45Z</time>
      </trkpt>
      <trkpt lat="46.94945" lon="-2.04709">
        <ele>0.7</ele>
        <time>2020-06-04T14:13:46Z</time>
      </trkpt>
      <trkpt lat="46.94945" lon="-2.04709">
        <ele>0.7</ele>
        <time>2020-06-04T14:13:47Z</time>
      </trkpt>
      <trkpt lat="46.94944" lon="-2.0471">
        <ele>0.7</ele>
        <time>2020-06-04T14:13:48Z</time>
      </trkpt>
      <trkpt lat="46.94944" lon="-2.04709">
        <ele>0.7</ele>
        <time>2020-06-04T14:13:49Z</time>
      </trkpt>
      <trkpt lat="46.94945" lon="-2.04707">
        <ele>0.7</ele>
        <time>2020-06-04T14:13:50Z</time>
      </trkpt>
      <trkpt lat="46.94945" lon="-2.04707">
        <ele>0.7</ele>
        <time>2020-06-04T14:13:51Z</time>
      </trkpt>
      <trkpt lat="46.94946" lon="-2.04707">
        <ele>0.7</ele>
        <time>2020-06-04T14:13:52Z</time>
      </trkpt>
      <trkpt lat="46.94946" lon="-2.04706">
        <ele>0.7</ele>
        <time>2020-06-04T14:13:53Z</time>
      </trkpt>
      <trkpt lat="46.94946" lon="-2.04705">
        <ele>0.7</ele>
        <time>2020-06-04T14:13:54Z</time>
      </trkpt>
      <trkpt lat="46.94946" lon="-2.04706">
        <ele>0.7</ele>
        <time>2020-06-04T14:13:55Z</time>
      </trkpt>
      <trkpt lat="46.94946" lon="-2.04707">
        <ele>0.7</ele>
        <time>2020-06-04T14:13:56Z</time>
      </trkpt>
      <trkpt lat="46.94946" lon="-2.04709">
        <ele>0.7</ele>
        <time>2020-06-04T14:13:57Z</time>
      </trkpt>
      <trkpt lat="46.94946" lon="-2.0471">
        <ele>0.8</ele>
        <time>2020-06-04T14:13:58Z</time>
      </trkpt>
      <trkpt lat="46.94946" lon="-2.04711">
        <ele>0.8</ele>
        <time>2020-06-04T14:13:59Z</time>
      </trkpt>
      <trkpt lat="46.94946" lon="-2.04713">
        <ele>0.8</ele>
        <time>2020-06-04T14:14:00Z</time>
      </trkpt>
      <trkpt lat="46.94946" lon="-2.04714">
        <ele>0.8</ele>
        <time>2020-06-04T14:14:01Z</time>
      </trkpt>
      <trkpt lat="46.94946" lon="-2.04715">
        <ele>0.8</ele>
        <time>2020-06-04T14:14:02Z</time>
      </trkpt>
      <trkpt lat="46.94946" lon="-2.04716">
        <ele>0.8</ele>
        <time>2020-06-04T14:14:56Z</time>
      </trkpt>
      <trkpt lat="46.94946" lon="-2.04718">
        <ele>0.8</ele>
        <time>2020-06-04T14:14:57Z</time>
      </trkpt>
      <trkpt lat="46.94948" lon="-2.04722">
        <ele>0.8</ele>
        <time>2020-06-04T14:14:58Z</time>
      </trkpt>
      <trkpt lat="46.94949" lon="-2.04726">
        <ele>0.9</ele>
        <time>2020-06-04T14:14:59Z</time>
      </trkpt>
      <trkpt lat="46.9495" lon="-2.04731">
        <ele>0.9</ele>
        <time>2020-06-04T14:15:00Z</time>
      </trkpt>
      <trkpt lat="46.94952" lon="-2.04735">
        <ele>0.9</ele>
        <time>2020-06-04T14:15:01Z</time>
      </trkpt>
      <trkpt lat="46.94953" lon="-2.0474">
        <ele>0.9</ele>
        <time>2020-06-04T14:15:02Z</time>
      </trkpt>
      <trkpt lat="46.94954" lon="-2.04745">
        <ele>1</ele>
        <time>2020-06-04T14:15:03Z</time>
      </trkpt>
      <trkpt lat="46.94955" lon="-2.04746">
        <ele>1</ele>
        <time>2020-06-04T14:15:04Z</time>
      </trkpt>
      <trkpt lat="46.94956" lon="-2.04747">
        <ele>1</ele>
        <time>2020-06-04T14:15:05Z</time>
      </trkpt>
      <trkpt lat="46.94956" lon="-2.04746">
        <ele>1</ele>
        <time>2020-06-04T14:15:06Z</time>
      </trkpt>
      <trkpt lat="46.94956" lon="-2.04745">
        <ele>1</ele>
        <time>2020-06-04T14:15:07Z</time>
      </trkpt>
      <trkpt lat="46.94956" lon="-2.04745">
        <ele>1</ele>
        <time>2020-06-04T14:15:08Z</time>
      </trkpt>
      <trkpt lat="46.94956" lon="-2.04746">
        <ele>1</ele>
        <time>2020-06-04T14:15:09Z</time>
      </trkpt>
      <trkpt lat="46.94957" lon="-2.04746">
        <ele>1</ele>
        <time>2020-06-04T14:15:10Z</time>
      </trkpt>
      <trkpt lat="46.94958" lon="-2.04745">
        <ele>1</ele>
        <time>2020-06-04T14:15:11Z</time>
      </trkpt>
      <trkpt lat="46.94958" lon="-2.04745">
        <ele>1</ele>
        <time>2020-06-04T14:15:12Z</time>
      </trkpt>
      <trkpt lat="46.94958" lon="-2.04745">
        <ele>1</ele>
        <time>2020-06-04T14:15:13Z</time>
      </trkpt>
      <trkpt lat="46.94958" lon="-2.04745">
        <ele>1</ele>
        <time>2020-06-04T14:15:14Z</time>
      </trkpt>
      <trkpt lat="46.94958" lon="-2.04745">
        <ele>1</ele>
        <time>2020-06-04T14:15:15Z</time>
      </trkpt>
      <trkpt lat="46.94958" lon="-2.04745">
        <ele>1</ele>
        <time>2020-06-04T14:15:16Z</time>
      </trkpt>
      <trkpt lat="46.94958" lon="-2.04745">
        <ele>1</ele>
        <time>2020-06-04T14:15:17Z</time>
      </trkpt>
      <trkpt lat="46.94958" lon="-2.04752">
        <ele>1</ele>
        <time>2020-06-04T14:18:13Z</time>
      </trkpt>
      <trkpt lat="46.94959" lon="-2.04753">
        <ele>1</ele>
        <time>2020-06-04T14:18:14Z</time>
      </trkpt>
      <trkpt lat="46.9496" lon="-2.04755">
        <ele>1</ele>
        <time>2020-06-04T14:18:15Z</time>
      </trkpt>
      <trkpt lat="46.9496" lon="-2.04757">
        <ele>1</ele>
        <time>2020-06-04T14:18:16Z</time>
      </trkpt>
      <trkpt lat="46.94961" lon="-2.04758">
        <ele>1</ele>
        <time>2020-06-04T14:18:17Z</time>
      </trkpt>
      <trkpt lat="46.94962" lon="-2.04758">
        <ele>1.1</ele>
        <time>2020-06-04T14:18:18Z</time>
      </trkpt>
      <trkpt lat="46.94963" lon="-2.04756">
        <ele>1.1</ele>
        <time>2020-06-04T14:18:19Z</time>
      </trkpt>
      <trkpt lat="46.94966" lon="-2.04752">
        <ele>1</ele>
        <time>2020-06-04T14:18:20Z</time>
      </trkpt>
      <trkpt lat="46.94967" lon="-2.04751">
        <ele>1</ele>
        <time>2020-06-04T14:18:21Z</time>
      </trkpt>
      <trkpt lat="46.94969" lon="-2.04748">
        <ele>1</ele>
        <time>2020-06-04T14:18:22Z</time>
      </trkpt>
      <trkpt lat="46.94972" lon="-2.04746">
        <ele>1</ele>
        <time>2020-06-04T14:18:23Z</time>
      </trkpt>
      <trkpt lat="46.94974" lon="-2.04743">
        <ele>1</ele>
        <time>2020-06-04T14:18:24Z</time>
      </trkpt>
      <trkpt lat="46.94976" lon="-2.04741">
        <ele>1</ele>
        <time>2020-06-04T14:18:25Z</time>
      </trkpt>
      <trkpt lat="46.94979" lon="-2.04739">
        <ele>1</ele>
        <time>2020-06-04T14:18:26Z</time>
      </trkpt>
      <trkpt lat="46.94982" lon="-2.04737">
        <ele>1</ele>
        <time>2020-06-04T14:18:27Z</time>
      </trkpt>
      <trkpt lat="46.94984" lon="-2.04734">
        <ele>1</ele>
        <time>2020-06-04T14:18:28Z</time>
      </trkpt>
      <trkpt lat="46.94988" lon="-2.04731">
        <ele>0.9</ele>
        <time>2020-06-04T14:18:29Z</time>
      </trkpt>
      <trkpt lat="46.94991" lon="-2.04728">
        <ele>0.9</ele>
        <time>2020-06-04T14:18:30Z</time>
      </trkpt>
      <trkpt lat="46.94995" lon="-2.04725">
        <ele>0.9</ele>
        <time>2020-06-04T14:18:31Z</time>
      </trkpt>
      <trkpt lat="46.94999" lon="-2.04722">
        <ele>0.9</ele>
        <time>2020-06-04T14:18:32Z</time>
      </trkpt>
      <trkpt lat="46.95003" lon="-2.04719">
        <ele>0.9</ele>
        <time>2020-06-04T14:18:33Z</time>
      </trkpt>
      <trkpt lat="46.95008" lon="-2.04716">
        <ele>0.9</ele>
        <time>2020-06-04T14:18:34Z</time>
      </trkpt>
      <trkpt lat="46.95012" lon="-2.04714">
        <ele>0.9</ele>
        <time>2020-06-04T14:18:35Z</time>
      </trkpt>
      <trkpt lat="46.95016" lon="-2.04712">
        <ele>0.9</ele>
        <time>2020-06-04T14:18:36Z</time>
      </trkpt>
      <trkpt lat="46.95021" lon="-2.0471">
        <ele>0.9</ele>
        <time>2020-06-04T14:18:37Z</time>
      </trkpt>
      <trkpt lat="46.95026" lon="-2.04706">
        <ele>0.9</ele>
        <time>2020-06-04T14:18:38Z</time>
      </trkpt>
      <trkpt lat="46.9503" lon="-2.04703">
        <ele>0.9</ele>
        <time>2020-06-04T14:18:39Z</time>
      </trkpt>
      <trkpt lat="46.95034" lon="-2.04701">
        <ele>1</ele>
        <time>2020-06-04T14:18:40Z</time>
      </trkpt>
      <trkpt lat="46.95039" lon="-2.04699">
        <ele>1</ele>
        <time>2020-06-04T14:18:41Z</time>
      </trkpt>
      <trkpt lat="46.95043" lon="-2.04697">
        <ele>1</ele>
        <time>2020-06-04T14:18:42Z</time>
      </trkpt>
      <trkpt lat="46.95046" lon="-2.04695">
        <ele>1</ele>
        <time>2020-06-04T14:18:43Z</time>
      </trkpt>
      <trkpt lat="46.95051" lon="-2.04692">
        <ele>1</ele>
        <time>2020-06-04T14:18:44Z</time>
      </trkpt>
      <trkpt lat="46.95054" lon="-2.0469">
        <ele>1</ele>
        <time>2020-06-04T14:18:45Z</time>
      </trkpt>
      <trkpt lat="46.95058" lon="-2.04688">
        <ele>1</ele>
        <time>2020-06-04T14:18:46Z</time>
      </trkpt>
      <trkpt lat="46.95062" lon="-2.04686">
        <ele>1</ele>
        <time>2020-06-04T14:18:47Z</time>
      </trkpt>
      <trkpt lat="46.95066" lon="-2.04682">
        <ele>1</ele>
        <time>2020-06-04T14:18:48Z</time>
      </trkpt>
      <trkpt lat="46.95071" lon="-2.04678">
        <ele>1</ele>
        <time>2020-06-04T14:18:49Z</time>
      </trkpt>
      <trkpt lat="46.95076" lon="-2.04675">
        <ele>1</ele>
        <time>2020-06-04T14:18:50Z</time>
      </trkpt>
      <trkpt lat="46.9508" lon="-2.04672">
        <ele>0.9</ele>
        <time>2020-06-04T14:18:51Z</time>
      </trkpt>
      <trkpt lat="46.95085" lon="-2.04667">
        <ele>0.9</ele>
        <time>2020-06-04T14:18:52Z</time>
      </trkpt>
      <trkpt lat="46.9509" lon="-2.04664">
        <ele>0.9</ele>
        <time>2020-06-04T14:18:53Z</time>
      </trkpt>
      <trkpt lat="46.95094" lon="-2.04661">
        <ele>0.9</ele>
        <time>2020-06-04T14:18:54Z</time>
      </trkpt>
      <trkpt lat="46.95099" lon="-2.04657">
        <ele>0.8</ele>
        <time>2020-06-04T14:18:55Z</time>
      </trkpt>
      <trkpt lat="46.95104" lon="-2.04653">
        <ele>0.8</ele>
        <time>2020-06-04T14:18:56Z</time>
      </trkpt>
      <trkpt lat="46.9511" lon="-2.0465">
        <ele>0.8</ele>
        <time>2020-06-04T14:18:57Z</time>
      </trkpt>
      <trkpt lat="46.95115" lon="-2.04646">
        <ele>0.8</ele>
        <time>2020-06-04T14:18:58Z</time>
      </trkpt>
      <trkpt lat="46.95119" lon="-2.04643">
        <ele>0.8</ele>
        <time>2020-06-04T14:18:59Z</time>
      </trkpt>
      <trkpt lat="46.95124" lon="-2.0464">
        <ele>0.8</ele>
        <time>2020-06-04T14:19:00Z</time>
      </trkpt>
      <trkpt lat="46.95128" lon="-2.04638">
        <ele>0.8</ele>
        <time>2020-06-04T14:19:01Z</time>
      </trkpt>
      <trkpt lat="46.95133" lon="-2.04634">
        <ele>0.8</ele>
        <time>2020-06-04T14:19:02Z</time>
      </trkpt>
      <trkpt lat="46.95137" lon="-2.04632">
        <ele>0.9</ele>
        <time>2020-06-04T14:19:03Z</time>
      </trkpt>
      <trkpt lat="46.95142" lon="-2.04629">
        <ele>0.9</ele>
        <time>2020-06-04T14:19:04Z</time>
      </trkpt>
      <trkpt lat="46.95146" lon="-2.04626">
        <ele>0.9</ele>
        <time>2020-06-04T14:19:05Z</time>
      </trkpt>
      <trkpt lat="46.95151" lon="-2.04623">
        <ele>0.9</ele>
        <time>2020-06-04T14:19:06Z</time>
      </trkpt>
      <trkpt lat="46.95155" lon="-2.0462">
        <ele>1</ele>
        <time>2020-06-04T14:19:07Z</time>
      </trkpt>
      <trkpt lat="46.95159" lon="-2.04617">
        <ele>1</ele>
        <time>2020-06-04T14:19:08Z</time>
      </trkpt>
      <trkpt lat="46.95164" lon="-2.04614">
        <ele>1</ele>
        <time>2020-06-04T14:19:09Z</time>
      </trkpt>
      <trkpt lat="46.95168" lon="-2.04612">
        <ele>1</ele>
        <time>2020-06-04T14:19:10Z</time>
      </trkpt>
      <trkpt lat="46.95172" lon="-2.04608">
        <ele>1</ele>
        <time>2020-06-04T14:19:11Z</time>
      </trkpt>
      <trkpt lat="46.95176" lon="-2.04606">
        <ele>1</ele>
        <time>2020-06-04T14:19:12Z</time>
      </trkpt>
      <trkpt lat="46.9518" lon="-2.04603">
        <ele>1</ele>
        <time>2020-06-04T14:19:13Z</time>
      </trkpt>
      <trkpt lat="46.95184" lon="-2.046">
        <ele>1</ele>
        <time>2020-06-04T14:19:14Z</time>
      </trkpt>
      <trkpt lat="46.95188" lon="-2.04597">
        <ele>1</ele>
        <time>2020-06-04T14:19:15Z</time>
      </trkpt>
      <trkpt lat="46.95193" lon="-2.04593">
        <ele>1</ele>
        <time>2020-06-04T14:19:16Z</time>
      </trkpt>
      <trkpt lat="46.95197" lon="-2.0459">
        <ele>1</ele>
        <time>2020-06-04T14:19:17Z</time>
      </trkpt>
      <trkpt lat="46.95201" lon="-2.04587">
        <ele>1</ele>
        <time>2020-06-04T14:19:18Z</time>
      </trkpt>
      <trkpt lat="46.95206" lon="-2.04584">
        <ele>1</ele>
        <time>2020-06-04T14:19:19Z</time>
      </trkpt>
      <trkpt lat="46.9521" lon="-2.04581">
        <ele>1</ele>
        <time>2020-06-04T14:19:20Z</time>
      </trkpt>
      <trkpt lat="46.95214" lon="-2.04577">
        <ele>1</ele>
        <time>2020-06-04T14:19:21Z</time>
      </trkpt>
      <trkpt lat="46.95219" lon="-2.04574">
        <ele>1</ele>
        <time>2020-06-04T14:19:22Z</time>
      </trkpt>
      <trkpt lat="46.95223" lon="-2.04571">
        <ele>1</ele>
        <time>2020-06-04T14:19:23Z</time>
      </trkpt>
      <trkpt lat="46.95229" lon="-2.04568">
        <ele>1</ele>
        <time>2020-06-04T14:19:24Z</time>
      </trkpt>
      <trkpt lat="46.95233" lon="-2.04566">
        <ele>1</ele>
        <time>2020-06-04T14:19:25Z</time>
      </trkpt>
      <trkpt lat="46.95238" lon="-2.04562">
        <ele>1</ele>
        <time>2020-06-04T14:19:26Z</time>
      </trkpt>
      <trkpt lat="46.95242" lon="-2.04559">
        <ele>1</ele>
        <time>2020-06-04T14:19:27Z</time>
      </trkpt>
      <trkpt lat="46.95246" lon="-2.04556">
        <ele>1.1</ele>
        <time>2020-06-04T14:19:28Z</time>
      </trkpt>
      <trkpt lat="46.9525" lon="-2.04553">
        <ele>1.1</ele>
        <time>2020-06-04T14:19:29Z</time>
      </trkpt>
      <trkpt lat="46.95254" lon="-2.0455">
        <ele>1.1</ele>
        <time>2020-06-04T14:19:30Z</time>
      </trkpt>
      <trkpt lat="46.95258" lon="-2.04547">
        <ele>1.1</ele>
        <time>2020-06-04T14:19:31Z</time>
      </trkpt>
      <trkpt lat="46.95262" lon="-2.04544">
        <ele>1.1</ele>
        <time>2020-06-04T14:19:32Z</time>
      </trkpt>
      <trkpt lat="46.95266" lon="-2.04541">
        <ele>1.1</ele>
        <time>2020-06-04T14:19:33Z</time>
      </trkpt>
      <trkpt lat="46.9527" lon="-2.04539">
        <ele>1.1</ele>
        <time>2020-06-04T14:19:34Z</time>
      </trkpt>
      <trkpt lat="46.95274" lon="-2.04535">
        <ele>1.1</ele>
        <time>2020-06-04T14:19:35Z</time>
      </trkpt>
      <trkpt lat="46.95279" lon="-2.04533">
        <ele>1.1</ele>
        <time>2020-06-04T14:19:36Z</time>
      </trkpt>
      <trkpt lat="46.95283" lon="-2.0453">
        <ele>1</ele>
        <time>2020-06-04T14:19:37Z</time>
      </trkpt>
      <trkpt lat="46.95288" lon="-2.04527">
        <ele>0.8</ele>
        <time>2020-06-04T14:19:38Z</time>
      </trkpt>
      <trkpt lat="46.95291" lon="-2.04524">
        <ele>0.8</ele>
        <time>2020-06-04T14:19:39Z</time>
      </trkpt>
      <trkpt lat="46.95295" lon="-2.04521">
        <ele>0.7</ele>
        <time>2020-06-04T14:19:40Z</time>
      </trkpt>
      <trkpt lat="46.95299" lon="-2.04518">
        <ele>0.6</ele>
        <time>2020-06-04T14:19:41Z</time>
      </trkpt>
      <trkpt lat="46.95302" lon="-2.04515">
        <ele>0.5</ele>
        <time>2020-06-04T14:19:42Z</time>
      </trkpt>
      <trkpt lat="46.95306" lon="-2.04512">
        <ele>0.4</ele>
        <time>2020-06-04T14:19:43Z</time>
      </trkpt>
      <trkpt lat="46.95311" lon="-2.04509">
        <ele>0.3</ele>
        <time>2020-06-04T14:19:44Z</time>
      </trkpt>
      <trkpt lat="46.95315" lon="-2.04506">
        <ele>0.3</ele>
        <time>2020-06-04T14:19:45Z</time>
      </trkpt>
      <trkpt lat="46.95318" lon="-2.04503">
        <ele>0.2</ele>
        <time>2020-06-04T14:19:46Z</time>
      </trkpt>
      <trkpt lat="46.95322" lon="-2.045">
        <ele>0.1</ele>
        <time>2020-06-04T14:19:47Z</time>
      </trkpt>
      <trkpt lat="46.95326" lon="-2.04497">
        <ele>0.1</ele>
        <time>2020-06-04T14:19:48Z</time>
      </trkpt>
      <trkpt lat="46.95331" lon="-2.04494">
        <ele>2.9</ele>
        <time>2020-06-04T14:19:49Z</time>
      </trkpt>
      <trkpt lat="46.95335" lon="-2.04491">
        <ele>3</ele>
        <time>2020-06-04T14:19:50Z</time>
      </trkpt>
      <trkpt lat="46.95339" lon="-2.04488">
        <ele>3</ele>
        <time>2020-06-04T14:19:51Z</time>
      </trkpt>
      <trkpt lat="46.95344" lon="-2.04484">
        <ele>3</ele>
        <time>2020-06-04T14:19:52Z</time>
      </trkpt>
      <trkpt lat="46.95349" lon="-2.04481">
        <ele>3</ele>
        <time>2020-06-04T14:19:53Z</time>
      </trkpt>
      <trkpt lat="46.95354" lon="-2.04478">
        <ele>3</ele>
        <time>2020-06-04T14:19:54Z</time>
      </trkpt>
      <trkpt lat="46.95359" lon="-2.04475">
        <ele>3</ele>
        <time>2020-06-04T14:19:55Z</time>
      </trkpt>
      <trkpt lat="46.95364" lon="-2.04471">
        <ele>0.1</ele>
        <time>2020-06-04T14:19:56Z</time>
      </trkpt>
      <trkpt lat="46.95369" lon="-2.04468">
        <ele>0.1</ele>
        <time>2020-06-04T14:19:57Z</time>
      </trkpt>
      <trkpt lat="46.95375" lon="-2.04464">
        <ele>0.1</ele>
        <time>2020-06-04T14:19:58Z</time>
      </trkpt>
      <trkpt lat="46.9538" lon="-2.04459">
        <ele>0.2</ele>
        <time>2020-06-04T14:19:59Z</time>
      </trkpt>
      <trkpt lat="46.95386" lon="-2.04455">
        <ele>0.2</ele>
        <time>2020-06-04T14:20:00Z</time>
      </trkpt>
      <trkpt lat="46.95392" lon="-2.04452">
        <ele>0.2</ele>
        <time>2020-06-04T14:20:01Z</time>
      </trkpt>
      <trkpt lat="46.95397" lon="-2.04449">
        <ele>0.3</ele>
        <time>2020-06-04T14:20:02Z</time>
      </trkpt>
      <trkpt lat="46.95402" lon="-2.04445">
        <ele>0.3</ele>
        <time>2020-06-04T14:20:03Z</time>
      </trkpt>
      <trkpt lat="46.95407" lon="-2.04442">
        <ele>0.4</ele>
        <time>2020-06-04T14:20:04Z</time>
      </trkpt>
      <trkpt lat="46.95412" lon="-2.04439">
        <ele>0.4</ele>
        <time>2020-06-04T14:20:05Z</time>
      </trkpt>
      <trkpt lat="46.95418" lon="-2.04435">
        <ele>0.4</ele>
        <time>2020-06-04T14:20:06Z</time>
      </trkpt>
      <trkpt lat="46.95423" lon="-2.04432">
        <ele>0.4</ele>
        <time>2020-06-04T14:20:07Z</time>
      </trkpt>
      <trkpt lat="46.95428" lon="-2.04429">
        <ele>0.5</ele>
        <time>2020-06-04T14:20:08Z</time>
      </trkpt>
      <trkpt lat="46.95433" lon="-2.04426">
        <ele>0.5</ele>
        <time>2020-06-04T14:20:09Z</time>
      </trkpt>
      <trkpt lat="46.95438" lon="-2.04423">
        <ele>0.5</ele>
        <time>2020-06-04T14:20:10Z</time>
      </trkpt>
      <trkpt lat="46.95444" lon="-2.0442">
        <ele>0.5</ele>
        <time>2020-06-04T14:20:11Z</time>
      </trkpt>
      <trkpt lat="46.95449" lon="-2.04417">
        <ele>0.5</ele>
        <time>2020-06-04T14:20:12Z</time>
      </trkpt>
      <trkpt lat="46.95454" lon="-2.04414">
        <ele>0.5</ele>
        <time>2020-06-04T14:20:13Z</time>
      </trkpt>
      <trkpt lat="46.95459" lon="-2.0441">
        <ele>0.5</ele>
        <time>2020-06-04T14:20:14Z</time>
      </trkpt>
      <trkpt lat="46.95464" lon="-2.04406">
        <ele>0.5</ele>
        <time>2020-06-04T14:20:15Z</time>
      </trkpt>
      <trkpt lat="46.95468" lon="-2.04401">
        <ele>0.5</ele>
        <time>2020-06-04T14:20:16Z</time>
      </trkpt>
      <trkpt lat="46.95472" lon="-2.04398">
        <ele>0.5</ele>
        <time>2020-06-04T14:20:17Z</time>
      </trkpt>
      <trkpt lat="46.95477" lon="-2.04396">
        <ele>0.4</ele>
        <time>2020-06-04T14:20:18Z</time>
      </trkpt>
      <trkpt lat="46.95481" lon="-2.04394">
        <ele>0.4</ele>
        <time>2020-06-04T14:20:19Z</time>
      </trkpt>
      <trkpt lat="46.95486" lon="-2.04392">
        <ele>0.4</ele>
        <time>2020-06-04T14:20:20Z</time>
      </trkpt>
      <trkpt lat="46.95491" lon="-2.04388">
        <ele>0.4</ele>
        <time>2020-06-04T14:20:21Z</time>
      </trkpt>
      <trkpt lat="46.95496" lon="-2.04384">
        <ele>0.5</ele>
        <time>2020-06-04T14:20:22Z</time>
      </trkpt>
      <trkpt lat="46.95501" lon="-2.0438">
        <ele>0.5</ele>
        <time>2020-06-04T14:20:23Z</time>
      </trkpt>
      <trkpt lat="46.95506" lon="-2.04376">
        <ele>0.5</ele>
        <time>2020-06-04T14:20:24Z</time>
      </trkpt>
      <trkpt lat="46.95511" lon="-2.04373">
        <ele>0.6</ele>
        <time>2020-06-04T14:20:25Z</time>
      </trkpt>
      <trkpt lat="46.95516" lon="-2.0437">
        <ele>0.6</ele>
        <time>2020-06-04T14:20:26Z</time>
      </trkpt>
      <trkpt lat="46.95521" lon="-2.04367">
        <ele>0.6</ele>
        <time>2020-06-04T14:20:27Z</time>
      </trkpt>
      <trkpt lat="46.95525" lon="-2.04364">
        <ele>0.7</ele>
        <time>2020-06-04T14:20:28Z</time>
      </trkpt>
      <trkpt lat="46.95529" lon="-2.04362">
        <ele>0.7</ele>
        <time>2020-06-04T14:20:29Z</time>
      </trkpt>
      <trkpt lat="46.95533" lon="-2.04359">
        <ele>0.7</ele>
        <time>2020-06-04T14:20:30Z</time>
      </trkpt>
      <trkpt lat="46.95536" lon="-2.04356">
        <ele>0.7</ele>
        <time>2020-06-04T14:20:31Z</time>
      </trkpt>
      <trkpt lat="46.95539" lon="-2.04353">
        <ele>0.7</ele>
        <time>2020-06-04T14:20:32Z</time>
      </trkpt>
      <trkpt lat="46.95543" lon="-2.0435">
        <ele>0.7</ele>
        <time>2020-06-04T14:20:33Z</time>
      </trkpt>
      <trkpt lat="46.95546" lon="-2.04347">
        <ele>0.7</ele>
        <time>2020-06-04T14:20:34Z</time>
      </trkpt>
      <trkpt lat="46.9555" lon="-2.04344">
        <ele>0.7</ele>
        <time>2020-06-04T14:20:35Z</time>
      </trkpt>
      <trkpt lat="46.95554" lon="-2.0434">
        <ele>0.7</ele>
        <time>2020-06-04T14:20:36Z</time>
      </trkpt>
      <trkpt lat="46.95558" lon="-2.04337">
        <ele>0.7</ele>
        <time>2020-06-04T14:20:37Z</time>
      </trkpt>
      <trkpt lat="46.95562" lon="-2.04333">
        <ele>0.8</ele>
        <time>2020-06-04T14:20:38Z</time>
      </trkpt>
      <trkpt lat="46.95567" lon="-2.0433">
        <ele>0.8</ele>
        <time>2020-06-04T14:20:39Z</time>
      </trkpt>
      <trkpt lat="46.9557" lon="-2.04327">
        <ele>0.8</ele>
        <time>2020-06-04T14:20:40Z</time>
      </trkpt>
      <trkpt lat="46.95575" lon="-2.04323">
        <ele>0.8</ele>
        <time>2020-06-04T14:20:41Z</time>
      </trkpt>
      <trkpt lat="46.95579" lon="-2.0432">
        <ele>0.8</ele>
        <time>2020-06-04T14:20:42Z</time>
      </trkpt>
      <trkpt lat="46.95584" lon="-2.04317">
        <ele>0.9</ele>
        <time>2020-06-04T14:20:43Z</time>
      </trkpt>
      <trkpt lat="46.95588" lon="-2.04313">
        <ele>0.9</ele>
        <time>2020-06-04T14:20:44Z</time>
      </trkpt>
      <trkpt lat="46.95593" lon="-2.04309">
        <ele>0.9</ele>
        <time>2020-06-04T14:20:45Z</time>
      </trkpt>
      <trkpt lat="46.95598" lon="-2.04306">
        <ele>0.9</ele>
        <time>2020-06-04T14:20:46Z</time>
      </trkpt>
      <trkpt lat="46.95603" lon="-2.04303">
        <ele>1</ele>
        <time>2020-06-04T14:20:47Z</time>
      </trkpt>
      <trkpt lat="46.95607" lon="-2.043">
        <ele>1</ele>
        <time>2020-06-04T14:20:48Z</time>
      </trkpt>
      <trkpt lat="46.95612" lon="-2.04297">
        <ele>1</ele>
        <time>2020-06-04T14:20:49Z</time>
      </trkpt>
      <trkpt lat="46.95616" lon="-2.04294">
        <ele>1</ele>
        <time>2020-06-04T14:20:50Z</time>
      </trkpt>
      <trkpt lat="46.95621" lon="-2.04291">
        <ele>1</ele>
        <time>2020-06-04T14:20:51Z</time>
      </trkpt>
      <trkpt lat="46.95625" lon="-2.04288">
        <ele>1</ele>
        <time>2020-06-04T14:20:52Z</time>
      </trkpt>
      <trkpt lat="46.9563" lon="-2.04285">
        <ele>1</ele>
        <time>2020-06-04T14:20:53Z</time>
      </trkpt>
      <trkpt lat="46.95635" lon="-2.04282">
        <ele>1</ele>
        <time>2020-06-04T14:20:54Z</time>
      </trkpt>
      <trkpt lat="46.95639" lon="-2.04279">
        <ele>1</ele>
        <time>2020-06-04T14:20:55Z</time>
      </trkpt>
      <trkpt lat="46.95643" lon="-2.04276">
        <ele>1</ele>
        <time>2020-06-04T14:20:56Z</time>
      </trkpt>
      <trkpt lat="46.95647" lon="-2.04273">
        <ele>1</ele>
        <time>2020-06-04T14:20:57Z</time>
      </trkpt>
      <trkpt lat="46.95651" lon="-2.0427">
        <ele>1</ele>
        <time>2020-06-04T14:20:58Z</time>
      </trkpt>
      <trkpt lat="46.95656" lon="-2.04267">
        <ele>1.1</ele>
        <time>2020-06-04T14:20:59Z</time>
      </trkpt>
      <trkpt lat="46.9566" lon="-2.04264">
        <ele>1.1</ele>
        <time>2020-06-04T14:21:00Z</time>
      </trkpt>
      <trkpt lat="46.95665" lon="-2.04262">
        <ele>1.1</ele>
        <time>2020-06-04T14:21:01Z</time>
      </trkpt>
      <trkpt lat="46.95669" lon="-2.0426">
        <ele>1.1</ele>
        <time>2020-06-04T14:21:02Z</time>
      </trkpt>
      <trkpt lat="46.95674" lon="-2.04257">
        <ele>1.1</ele>
        <time>2020-06-04T14:21:03Z</time>
      </trkpt>
      <trkpt lat="46.95678" lon="-2.04254">
        <ele>1.1</ele>
        <time>2020-06-04T14:21:04Z</time>
      </trkpt>
      <trkpt lat="46.95683" lon="-2.0425">
        <ele>1.1</ele>
        <time>2020-06-04T14:21:05Z</time>
      </trkpt>
      <trkpt lat="46.95688" lon="-2.04247">
        <ele>1.1</ele>
        <time>2020-06-04T14:21:06Z</time>
      </trkpt>
      <trkpt lat="46.95693" lon="-2.04245">
        <ele>1.1</ele>
        <time>2020-06-04T14:21:07Z</time>
      </trkpt>
      <trkpt lat="46.95698" lon="-2.04243">
        <ele>1.1</ele>
        <time>2020-06-04T14:21:08Z</time>
      </trkpt>
      <trkpt lat="46.95704" lon="-2.04243">
        <ele>1.1</ele>
        <time>2020-06-04T14:21:09Z</time>
      </trkpt>
      <trkpt lat="46.95708" lon="-2.04243">
        <ele>1.1</ele>
        <time>2020-06-04T14:21:10Z</time>
      </trkpt>
      <trkpt lat="46.95712" lon="-2.04243">
        <ele>1.1</ele>
        <time>2020-06-04T14:21:11Z</time>
      </trkpt>
      <trkpt lat="46.95717" lon="-2.04242">
        <ele>1.1</ele>
        <time>2020-06-04T14:21:12Z</time>
      </trkpt>
      <trkpt lat="46.95721" lon="-2.04242">
        <ele>1.1</ele>
        <time>2020-06-04T14:21:13Z</time>
      </trkpt>
      <trkpt lat="46.95725" lon="-2.04241">
        <ele>1.1</ele>
        <time>2020-06-04T14:21:14Z</time>
      </trkpt>
      <trkpt lat="46.95729" lon="-2.04241">
        <ele>1.1</ele>
        <time>2020-06-04T14:21:15Z</time>
      </trkpt>
      <trkpt lat="46.95733" lon="-2.04242">
        <ele>1.1</ele>
        <time>2020-06-04T14:21:16Z</time>
      </trkpt>
      <trkpt lat="46.95737" lon="-2.04242">
        <ele>1.2</ele>
        <time>2020-06-04T14:21:17Z</time>
      </trkpt>
      <trkpt lat="46.95742" lon="-2.04243">
        <ele>1.2</ele>
        <time>2020-06-04T14:21:18Z</time>
      </trkpt>
      <trkpt lat="46.95747" lon="-2.04243">
        <ele>1.2</ele>
        <time>2020-06-04T14:21:19Z</time>
      </trkpt>
      <trkpt lat="46.95752" lon="-2.04244">
        <ele>1.2</ele>
        <time>2020-06-04T14:21:20Z</time>
      </trkpt>
      <trkpt lat="46.95757" lon="-2.04245">
        <ele>1.2</ele>
        <time>2020-06-04T14:21:21Z</time>
      </trkpt>
      <trkpt lat="46.95762" lon="-2.04245">
        <ele>1.2</ele>
        <time>2020-06-04T14:21:22Z</time>
      </trkpt>
      <trkpt lat="46.95766" lon="-2.04246">
        <ele>1.2</ele>
        <time>2020-06-04T14:21:23Z</time>
      </trkpt>
      <trkpt lat="46.9577" lon="-2.04247">
        <ele>1.2</ele>
        <time>2020-06-04T14:21:24Z</time>
      </trkpt>
      <trkpt lat="46.95775" lon="-2.04248">
        <ele>1.2</ele>
        <time>2020-06-04T14:21:25Z</time>
      </trkpt>
      <trkpt lat="46.95778" lon="-2.04249">
        <ele>1.2</ele>
        <time>2020-06-04T14:21:26Z</time>
      </trkpt>
      <trkpt lat="46.95782" lon="-2.0425">
        <ele>1.2</ele>
        <time>2020-06-04T14:21:27Z</time>
      </trkpt>
      <trkpt lat="46.95786" lon="-2.04251">
        <ele>1.2</ele>
        <time>2020-06-04T14:21:28Z</time>
      </trkpt>
      <trkpt lat="46.9579" lon="-2.04253">
        <ele>1.2</ele>
        <time>2020-06-04T14:21:29Z</time>
      </trkpt>
      <trkpt lat="46.95795" lon="-2.04253">
        <ele>1.2</ele>
        <time>2020-06-04T14:21:30Z</time>
      </trkpt>
      <trkpt lat="46.95799" lon="-2.04254">
        <ele>1.2</ele>
        <time>2020-06-04T14:21:31Z</time>
      </trkpt>
      <trkpt lat="46.95804" lon="-2.04254">
        <ele>1.2</ele>
        <time>2020-06-04T14:21:32Z</time>
      </trkpt>
      <trkpt lat="46.95809" lon="-2.04255">
        <ele>1.2</ele>
        <time>2020-06-04T14:21:33Z</time>
      </trkpt>
      <trkpt lat="46.95814" lon="-2.04255">
        <ele>1.1</ele>
        <time>2020-06-04T14:21:34Z</time>
      </trkpt>
      <trkpt lat="46.9582" lon="-2.04256">
        <ele>1.1</ele>
        <time>2020-06-04T14:21:35Z</time>
      </trkpt>
      <trkpt lat="46.95826" lon="-2.04256">
        <ele>1.1</ele>
        <time>2020-06-04T14:21:36Z</time>
      </trkpt>
      <trkpt lat="46.95831" lon="-2.04258">
        <ele>1.1</ele>
        <time>2020-06-04T14:21:37Z</time>
      </trkpt>
      <trkpt lat="46.95837" lon="-2.04258">
        <ele>1</ele>
        <time>2020-06-04T14:21:38Z</time>
      </trkpt>
      <trkpt lat="46.95842" lon="-2.04258">
        <ele>1</ele>
        <time>2020-06-04T14:21:39Z</time>
      </trkpt>
      <trkpt lat="46.95847" lon="-2.04258">
        <ele>1</ele>
        <time>2020-06-04T14:21:40Z</time>
      </trkpt>
      <trkpt lat="46.95852" lon="-2.04259">
        <ele>1</ele>
        <time>2020-06-04T14:21:41Z</time>
      </trkpt>
      <trkpt lat="46.95857" lon="-2.0426">
        <ele>1</ele>
        <time>2020-06-04T14:21:42Z</time>
      </trkpt>
      <trkpt lat="46.95862" lon="-2.04261">
        <ele>1</ele>
        <time>2020-06-04T14:21:43Z</time>
      </trkpt>
      <trkpt lat="46.95867" lon="-2.04261">
        <ele>1</ele>
        <time>2020-06-04T14:21:44Z</time>
      </trkpt>
      <trkpt lat="46.95873" lon="-2.04263">
        <ele>1</ele>
        <time>2020-06-04T14:21:45Z</time>
      </trkpt>
      <trkpt lat="46.95878" lon="-2.04264">
        <ele>1</ele>
        <time>2020-06-04T14:21:46Z</time>
      </trkpt>
      <trkpt lat="46.95883" lon="-2.04265">
        <ele>1</ele>
        <time>2020-06-04T14:21:47Z</time>
      </trkpt>
      <trkpt lat="46.95887" lon="-2.04267">
        <ele>1</ele>
        <time>2020-06-04T14:21:48Z</time>
      </trkpt>
      <trkpt lat="46.95891" lon="-2.04267">
        <ele>1</ele>
        <time>2020-06-04T14:21:49Z</time>
      </trkpt>
      <trkpt lat="46.95895" lon="-2.04267">
        <ele>1</ele>
        <time>2020-06-04T14:21:50Z</time>
      </trkpt>
      <trkpt lat="46.95899" lon="-2.04268">
        <ele>1</ele>
        <time>2020-06-04T14:21:51Z</time>
      </trkpt>
      <trkpt lat="46.95903" lon="-2.04268">
        <ele>1</ele>
        <time>2020-06-04T14:21:52Z</time>
      </trkpt>
      <trkpt lat="46.95906" lon="-2.04269">
        <ele>1</ele>
        <time>2020-06-04T14:21:53Z</time>
      </trkpt>
      <trkpt lat="46.95908" lon="-2.0427">
        <ele>1</ele>
        <time>2020-06-04T14:21:54Z</time>
      </trkpt>
      <trkpt lat="46.95912" lon="-2.04271">
        <ele>1.1</ele>
        <time>2020-06-04T14:21:55Z</time>
      </trkpt>
      <trkpt lat="46.95912" lon="-2.04271">
        <ele>1.1</ele>
        <time>2020-06-04T14:21:56Z</time>
      </trkpt>
      <trkpt lat="46.95912" lon="-2.04272">
        <ele>1.1</ele>
        <time>2020-06-04T14:21:57Z</time>
      </trkpt>
      <trkpt lat="46.95911" lon="-2.04272">
        <ele>1.1</ele>
        <time>2020-06-04T14:21:58Z</time>
      </trkpt>
      <trkpt lat="46.95911" lon="-2.04272">
        <ele>1.1</ele>
        <time>2020-06-04T14:21:59Z</time>
      </trkpt>
      <trkpt lat="46.9591" lon="-2.04272">
        <ele>1.1</ele>
        <time>2020-06-04T14:22:00Z</time>
      </trkpt>
      <trkpt lat="46.95911" lon="-2.04272">
        <ele>1.1</ele>
        <time>2020-06-04T14:22:01Z</time>
      </trkpt>
      <trkpt lat="46.95912" lon="-2.04273">
        <ele>1.1</ele>
        <time>2020-06-04T14:22:02Z</time>
      </trkpt>
      <trkpt lat="46.95913" lon="-2.04273">
        <ele>1.1</ele>
        <time>2020-06-04T14:22:03Z</time>
      </trkpt>
      <trkpt lat="46.95914" lon="-2.04273">
        <ele>1.1</ele>
        <time>2020-06-04T14:22:04Z</time>
      </trkpt>
      <trkpt lat="46.95915" lon="-2.04273">
        <ele>1.1</ele>
        <time>2020-06-04T14:22:05Z</time>
      </trkpt>
      <trkpt lat="46.95916" lon="-2.04273">
        <ele>1.1</ele>
        <time>2020-06-04T14:22:06Z</time>
      </trkpt>
      <trkpt lat="46.95917" lon="-2.04273">
        <ele>1.1</ele>
        <time>2020-06-04T14:22:07Z</time>
      </trkpt>
      <trkpt lat="46.95918" lon="-2.04273">
        <ele>1.1</ele>
        <time>2020-06-04T14:22:22Z</time>
      </trkpt>
      <trkpt lat="46.95919" lon="-2.04274">
        <ele>1.1</ele>
        <time>2020-06-04T14:22:23Z</time>
      </trkpt>
      <trkpt lat="46.95923" lon="-2.04273">
        <ele>1.1</ele>
        <time>2020-06-04T14:22:24Z</time>
      </trkpt>
      <trkpt lat="46.95927" lon="-2.04274">
        <ele>1.1</ele>
        <time>2020-06-04T14:22:25Z</time>
      </trkpt>
      <trkpt lat="46.95931" lon="-2.04275">
        <ele>1.1</ele>
        <time>2020-06-04T14:22:26Z</time>
      </trkpt>
      <trkpt lat="46.95935" lon="-2.04276">
        <ele>1.1</ele>
        <time>2020-06-04T14:22:27Z</time>
      </trkpt>
      <trkpt lat="46.95939" lon="-2.04277">
        <ele>1.1</ele>
        <time>2020-06-04T14:22:28Z</time>
      </trkpt>
      <trkpt lat="46.95944" lon="-2.04278">
        <ele>1.1</ele>
        <time>2020-06-04T14:22:29Z</time>
      </trkpt>
      <trkpt lat="46.95949" lon="-2.04279">
        <ele>1.1</ele>
        <time>2020-06-04T14:22:30Z</time>
      </trkpt>
      <trkpt lat="46.95954" lon="-2.0428">
        <ele>1.1</ele>
        <time>2020-06-04T14:22:31Z</time>
      </trkpt>
      <trkpt lat="46.95958" lon="-2.04281">
        <ele>1.1</ele>
        <time>2020-06-04T14:22:32Z</time>
      </trkpt>
      <trkpt lat="46.95964" lon="-2.04281">
        <ele>1.1</ele>
        <time>2020-06-04T14:22:33Z</time>
      </trkpt>
      <trkpt lat="46.95968" lon="-2.04282">
        <ele>1.1</ele>
        <time>2020-06-04T14:22:34Z</time>
      </trkpt>
      <trkpt lat="46.95973" lon="-2.04283">
        <ele>1.1</ele>
        <time>2020-06-04T14:22:35Z</time>
      </trkpt>
      <trkpt lat="46.95978" lon="-2.04284">
        <ele>1.1</ele>
        <time>2020-06-04T14:22:36Z</time>
      </trkpt>
      <trkpt lat="46.95983" lon="-2.04285">
        <ele>1.2</ele>
        <time>2020-06-04T14:22:37Z</time>
      </trkpt>
      <trkpt lat="46.95988" lon="-2.04286">
        <ele>1.2</ele>
        <time>2020-06-04T14:22:38Z</time>
      </trkpt>
      <trkpt lat="46.95992" lon="-2.04287">
        <ele>1.2</ele>
        <time>2020-06-04T14:22:39Z</time>
      </trkpt>
      <trkpt lat="46.95997" lon="-2.04287">
        <ele>1.2</ele>
        <time>2020-06-04T14:22:40Z</time>
      </trkpt>
      <trkpt lat="46.96001" lon="-2.04287">
        <ele>1.2</ele>
        <time>2020-06-04T14:22:41Z</time>
      </trkpt>
      <trkpt lat="46.96006" lon="-2.04288">
        <ele>1.2</ele>
        <time>2020-06-04T14:22:42Z</time>
      </trkpt>
      <trkpt lat="46.9601" lon="-2.04288">
        <ele>1.2</ele>
        <time>2020-06-04T14:22:43Z</time>
      </trkpt>
      <trkpt lat="46.96015" lon="-2.04289">
        <ele>1.2</ele>
        <time>2020-06-04T14:22:44Z</time>
      </trkpt>
      <trkpt lat="46.96019" lon="-2.04289">
        <ele>1.2</ele>
        <time>2020-06-04T14:22:45Z</time>
      </trkpt>
      <trkpt lat="46.96023" lon="-2.0429">
        <ele>1.2</ele>
        <time>2020-06-04T14:22:46Z</time>
      </trkpt>
      <trkpt lat="46.96027" lon="-2.04291">
        <ele>1.2</ele>
        <time>2020-06-04T14:22:47Z</time>
      </trkpt>
      <trkpt lat="46.96031" lon="-2.04291">
        <ele>1.2</ele>
        <time>2020-06-04T14:22:48Z</time>
      </trkpt>
      <trkpt lat="46.96035" lon="-2.04292">
        <ele>1.2</ele>
        <time>2020-06-04T14:22:49Z</time>
      </trkpt>
      <trkpt lat="46.96038" lon="-2.04293">
        <ele>1.2</ele>
        <time>2020-06-04T14:22:50Z</time>
      </trkpt>
      <trkpt lat="46.96043" lon="-2.04292">
        <ele>1.2</ele>
        <time>2020-06-04T14:22:51Z</time>
      </trkpt>
      <trkpt lat="46.96047" lon="-2.04294">
        <ele>1.1</ele>
        <time>2020-06-04T14:22:52Z</time>
      </trkpt>
      <trkpt lat="46.96052" lon="-2.04295">
        <ele>1.1</ele>
        <time>2020-06-04T14:22:53Z</time>
      </trkpt>
      <trkpt lat="46.96056" lon="-2.04296">
        <ele>1.1</ele>
        <time>2020-06-04T14:22:54Z</time>
      </trkpt>
      <trkpt lat="46.96061" lon="-2.04297">
        <ele>1.1</ele>
        <time>2020-06-04T14:22:55Z</time>
      </trkpt>
      <trkpt lat="46.96066" lon="-2.04298">
        <ele>1.1</ele>
        <time>2020-06-04T14:22:56Z</time>
      </trkpt>
      <trkpt lat="46.96071" lon="-2.04298">
        <ele>1.1</ele>
        <time>2020-06-04T14:22:57Z</time>
      </trkpt>
      <trkpt lat="46.96076" lon="-2.043">
        <ele>1</ele>
        <time>2020-06-04T14:22:58Z</time>
      </trkpt>
      <trkpt lat="46.9608" lon="-2.04301">
        <ele>1</ele>
        <time>2020-06-04T14:22:59Z</time>
      </trkpt>
      <trkpt lat="46.96085" lon="-2.04301">
        <ele>1</ele>
        <time>2020-06-04T14:23:00Z</time>
      </trkpt>
      <trkpt lat="46.9609" lon="-2.04302">
        <ele>1</ele>
        <time>2020-06-04T14:23:01Z</time>
      </trkpt>
      <trkpt lat="46.96094" lon="-2.04303">
        <ele>1</ele>
        <time>2020-06-04T14:23:02Z</time>
      </trkpt>
      <trkpt lat="46.96098" lon="-2.04303">
        <ele>1</ele>
        <time>2020-06-04T14:23:03Z</time>
      </trkpt>
      <trkpt lat="46.96103" lon="-2.04304">
        <ele>1</ele>
        <time>2020-06-04T14:23:04Z</time>
      </trkpt>
      <trkpt lat="46.96108" lon="-2.04304">
        <ele>1</ele>
        <time>2020-06-04T14:23:05Z</time>
      </trkpt>
      <trkpt lat="46.96113" lon="-2.04306">
        <ele>1</ele>
        <time>2020-06-04T14:23:06Z</time>
      </trkpt>
      <trkpt lat="46.96119" lon="-2.04307">
        <ele>1</ele>
        <time>2020-06-04T14:23:07Z</time>
      </trkpt>
      <trkpt lat="46.96124" lon="-2.04308">
        <ele>0.9</ele>
        <time>2020-06-04T14:23:08Z</time>
      </trkpt>
      <trkpt lat="46.96129" lon="-2.0431">
        <ele>0.9</ele>
        <time>2020-06-04T14:23:09Z</time>
      </trkpt>
      <trkpt lat="46.96134" lon="-2.04312">
        <ele>0.9</ele>
        <time>2020-06-04T14:23:10Z</time>
      </trkpt>
      <trkpt lat="46.9614" lon="-2.04315">
        <ele>0.9</ele>
        <time>2020-06-04T14:23:11Z</time>
      </trkpt>
      <trkpt lat="46.96144" lon="-2.04317">
        <ele>0.9</ele>
        <time>2020-06-04T14:23:12Z</time>
      </trkpt>
      <trkpt lat="46.96148" lon="-2.04318">
        <ele>0.9</ele>
        <time>2020-06-04T14:23:13Z</time>
      </trkpt>
      <trkpt lat="46.96153" lon="-2.04317">
        <ele>0.9</ele>
        <time>2020-06-04T14:23:14Z</time>
      </trkpt>
      <trkpt lat="46.96157" lon="-2.04316">
        <ele>0.9</ele>
        <time>2020-06-04T14:23:15Z</time>
      </trkpt>
      <trkpt lat="46.96162" lon="-2.04316">
        <ele>0.9</ele>
        <time>2020-06-04T14:23:16Z</time>
      </trkpt>
      <trkpt lat="46.96167" lon="-2.04317">
        <ele>0.9</ele>
        <time>2020-06-04T14:23:17Z</time>
      </trkpt>
      <trkpt lat="46.96172" lon="-2.04317">
        <ele>0.9</ele>
        <time>2020-06-04T14:23:18Z</time>
      </trkpt>
      <trkpt lat="46.96177" lon="-2.04317">
        <ele>0.9</ele>
        <time>2020-06-04T14:23:19Z</time>
      </trkpt>
      <trkpt lat="46.96182" lon="-2.04319">
        <ele>0.9</ele>
        <time>2020-06-04T14:23:20Z</time>
      </trkpt>
      <trkpt lat="46.96186" lon="-2.0432">
        <ele>0.9</ele>
        <time>2020-06-04T14:23:21Z</time>
      </trkpt>
      <trkpt lat="46.96191" lon="-2.04321">
        <ele>0.9</ele>
        <time>2020-06-04T14:23:22Z</time>
      </trkpt>
      <trkpt lat="46.96195" lon="-2.04321">
        <ele>0.9</ele>
        <time>2020-06-04T14:23:23Z</time>
      </trkpt>
      <trkpt lat="46.96198" lon="-2.04323">
        <ele>0.9</ele>
        <time>2020-06-04T14:23:24Z</time>
      </trkpt>
      <trkpt lat="46.96202" lon="-2.04324">
        <ele>0.9</ele>
        <time>2020-06-04T14:23:25Z</time>
      </trkpt>
      <trkpt lat="46.96206" lon="-2.04324">
        <ele>0.9</ele>
        <time>2020-06-04T14:23:26Z</time>
      </trkpt>
      <trkpt lat="46.9621" lon="-2.04324">
        <ele>0.9</ele>
        <time>2020-06-04T14:23:27Z</time>
      </trkpt>
      <trkpt lat="46.96214" lon="-2.04325">
        <ele>0.9</ele>
        <time>2020-06-04T14:23:28Z</time>
      </trkpt>
      <trkpt lat="46.96218" lon="-2.04325">
        <ele>0.9</ele>
        <time>2020-06-04T14:23:29Z</time>
      </trkpt>
      <trkpt lat="46.96223" lon="-2.04325">
        <ele>0.9</ele>
        <time>2020-06-04T14:23:30Z</time>
      </trkpt>
      <trkpt lat="46.96226" lon="-2.04326">
        <ele>1</ele>
        <time>2020-06-04T14:23:31Z</time>
      </trkpt>
      <trkpt lat="46.9623" lon="-2.04327">
        <ele>1</ele>
        <time>2020-06-04T14:23:32Z</time>
      </trkpt>
      <trkpt lat="46.96235" lon="-2.04328">
        <ele>1</ele>
        <time>2020-06-04T14:23:33Z</time>
      </trkpt>
      <trkpt lat="46.96239" lon="-2.04328">
        <ele>1.1</ele>
        <time>2020-06-04T14:23:34Z</time>
      </trkpt>
      <trkpt lat="46.96243" lon="-2.0433">
        <ele>1.1</ele>
        <time>2020-06-04T14:23:35Z</time>
      </trkpt>
      <trkpt lat="46.96247" lon="-2.04331">
        <ele>1.1</ele>
        <time>2020-06-04T14:23:36Z</time>
      </trkpt>
      <trkpt lat="46.96252" lon="-2.04331">
        <ele>1.2</ele>
        <time>2020-06-04T14:23:37Z</time>
      </trkpt>
      <trkpt lat="46.96256" lon="-2.04333">
        <ele>1.2</ele>
        <time>2020-06-04T14:23:38Z</time>
      </trkpt>
      <trkpt lat="46.96261" lon="-2.04334">
        <ele>1.2</ele>
        <time>2020-06-04T14:23:39Z</time>
      </trkpt>
      <trkpt lat="46.96265" lon="-2.04335">
        <ele>1.2</ele>
        <time>2020-06-04T14:23:40Z</time>
      </trkpt>
      <trkpt lat="46.9627" lon="-2.04336">
        <ele>1.3</ele>
        <time>2020-06-04T14:23:41Z</time>
      </trkpt>
      <trkpt lat="46.96274" lon="-2.04337">
        <ele>1.3</ele>
        <time>2020-06-04T14:23:42Z</time>
      </trkpt>
      <trkpt lat="46.9628" lon="-2.04338">
        <ele>1.3</ele>
        <time>2020-06-04T14:23:43Z</time>
      </trkpt>
      <trkpt lat="46.96284" lon="-2.04339">
        <ele>1.3</ele>
        <time>2020-06-04T14:23:44Z</time>
      </trkpt>
      <trkpt lat="46.9629" lon="-2.04339">
        <ele>1.2</ele>
        <time>2020-06-04T14:23:45Z</time>
      </trkpt>
      <trkpt lat="46.96296" lon="-2.04339">
        <ele>1.2</ele>
        <time>2020-06-04T14:23:46Z</time>
      </trkpt>
      <trkpt lat="46.96302" lon="-2.0434">
        <ele>1.2</ele>
        <time>2020-06-04T14:23:47Z</time>
      </trkpt>
      <trkpt lat="46.96306" lon="-2.04342">
        <ele>1.2</ele>
        <time>2020-06-04T14:23:48Z</time>
      </trkpt>
      <trkpt lat="46.96311" lon="-2.04343">
        <ele>1.2</ele>
        <time>2020-06-04T14:23:49Z</time>
      </trkpt>
      <trkpt lat="46.96316" lon="-2.04345">
        <ele>1.1</ele>
        <time>2020-06-04T14:23:50Z</time>
      </trkpt>
      <trkpt lat="46.9632" lon="-2.04346">
        <ele>1.1</ele>
        <time>2020-06-04T14:23:51Z</time>
      </trkpt>
      <trkpt lat="46.96325" lon="-2.04346">
        <ele>1.1</ele>
        <time>2020-06-04T14:23:52Z</time>
      </trkpt>
      <trkpt lat="46.96329" lon="-2.04347">
        <ele>1</ele>
        <time>2020-06-04T14:23:53Z</time>
      </trkpt>
      <trkpt lat="46.96334" lon="-2.04348">
        <ele>1</ele>
        <time>2020-06-04T14:23:54Z</time>
      </trkpt>
      <trkpt lat="46.9634" lon="-2.04347">
        <ele>1</ele>
        <time>2020-06-04T14:23:55Z</time>
      </trkpt>
      <trkpt lat="46.96345" lon="-2.04349">
        <ele>1</ele>
        <time>2020-06-04T14:23:56Z</time>
      </trkpt>
      <trkpt lat="46.9635" lon="-2.04349">
        <ele>1</ele>
        <time>2020-06-04T14:23:57Z</time>
      </trkpt>
      <trkpt lat="46.96356" lon="-2.04349">
        <ele>1</ele>
        <time>2020-06-04T14:23:58Z</time>
      </trkpt>
      <trkpt lat="46.96361" lon="-2.04349">
        <ele>0.9</ele>
        <time>2020-06-04T14:23:59Z</time>
      </trkpt>
      <trkpt lat="46.96367" lon="-2.04349">
        <ele>0.9</ele>
        <time>2020-06-04T14:24:00Z</time>
      </trkpt>
      <trkpt lat="46.96373" lon="-2.0435">
        <ele>0.9</ele>
        <time>2020-06-04T14:24:01Z</time>
      </trkpt>
      <trkpt lat="46.96378" lon="-2.04352">
        <ele>0.9</ele>
        <time>2020-06-04T14:24:02Z</time>
      </trkpt>
      <trkpt lat="46.96383" lon="-2.04354">
        <ele>0.9</ele>
        <time>2020-06-04T14:24:03Z</time>
      </trkpt>
      <trkpt lat="46.96389" lon="-2.04355">
        <ele>0.9</ele>
        <time>2020-06-04T14:24:04Z</time>
      </trkpt>
      <trkpt lat="46.96395" lon="-2.04356">
        <ele>0.9</ele>
        <time>2020-06-04T14:24:05Z</time>
      </trkpt>
      <trkpt lat="46.964" lon="-2.04358">
        <ele>0.9</ele>
        <time>2020-06-04T14:24:06Z</time>
      </trkpt>
      <trkpt lat="46.96405" lon="-2.04359">
        <ele>0.9</ele>
        <time>2020-06-04T14:24:07Z</time>
      </trkpt>
      <trkpt lat="46.96409" lon="-2.04361">
        <ele>0.9</ele>
        <time>2020-06-04T14:24:08Z</time>
      </trkpt>
      <trkpt lat="46.96414" lon="-2.04362">
        <ele>0.8</ele>
        <time>2020-06-04T14:24:09Z</time>
      </trkpt>
      <trkpt lat="46.96418" lon="-2.04364">
        <ele>0.8</ele>
        <time>2020-06-04T14:24:10Z</time>
      </trkpt>
      <trkpt lat="46.96423" lon="-2.04364">
        <ele>0.8</ele>
        <time>2020-06-04T14:24:11Z</time>
      </trkpt>
      <trkpt lat="46.96428" lon="-2.04363">
        <ele>0.8</ele>
        <time>2020-06-04T14:24:12Z</time>
      </trkpt>
      <trkpt lat="46.96434" lon="-2.04362">
        <ele>0.8</ele>
        <time>2020-06-04T14:24:13Z</time>
      </trkpt>
      <trkpt lat="46.9644" lon="-2.04363">
        <ele>0.7</ele>
        <time>2020-06-04T14:24:14Z</time>
      </trkpt>
      <trkpt lat="46.96445" lon="-2.04364">
        <ele>0.7</ele>
        <time>2020-06-04T14:24:15Z</time>
      </trkpt>
      <trkpt lat="46.9645" lon="-2.04365">
        <ele>0.8</ele>
        <time>2020-06-04T14:24:16Z</time>
      </trkpt>
      <trkpt lat="46.96456" lon="-2.04367">
        <ele>0.8</ele>
        <time>2020-06-04T14:24:17Z</time>
      </trkpt>
      <trkpt lat="46.96461" lon="-2.04369">
        <ele>0.8</ele>
        <time>2020-06-04T14:24:18Z</time>
      </trkpt>
      <trkpt lat="46.96465" lon="-2.04371">
        <ele>0.8</ele>
        <time>2020-06-04T14:24:19Z</time>
      </trkpt>
      <trkpt lat="46.96471" lon="-2.04372">
        <ele>0.8</ele>
        <time>2020-06-04T14:24:20Z</time>
      </trkpt>
      <trkpt lat="46.96476" lon="-2.04373">
        <ele>0.8</ele>
        <time>2020-06-04T14:24:21Z</time>
      </trkpt>
      <trkpt lat="46.96481" lon="-2.04374">
        <ele>0.8</ele>
        <time>2020-06-04T14:24:22Z</time>
      </trkpt>
      <trkpt lat="46.96486" lon="-2.04375">
        <ele>0.8</ele>
        <time>2020-06-04T14:24:23Z</time>
      </trkpt>
      <trkpt lat="46.96492" lon="-2.04376">
        <ele>0.8</ele>
        <time>2020-06-04T14:24:24Z</time>
      </trkpt>
      <trkpt lat="46.96497" lon="-2.04377">
        <ele>0.8</ele>
        <time>2020-06-04T14:24:25Z</time>
      </trkpt>
      <trkpt lat="46.96502" lon="-2.04377">
        <ele>0.8</ele>
        <time>2020-06-04T14:24:26Z</time>
      </trkpt>
      <trkpt lat="46.96507" lon="-2.04377">
        <ele>0.8</ele>
        <time>2020-06-04T14:24:27Z</time>
      </trkpt>
      <trkpt lat="46.96512" lon="-2.04378">
        <ele>0.8</ele>
        <time>2020-06-04T14:24:28Z</time>
      </trkpt>
      <trkpt lat="46.96517" lon="-2.04379">
        <ele>0.8</ele>
        <time>2020-06-04T14:24:29Z</time>
      </trkpt>
      <trkpt lat="46.96523" lon="-2.04379">
        <ele>0.9</ele>
        <time>2020-06-04T14:24:30Z</time>
      </trkpt>
      <trkpt lat="46.96529" lon="-2.0438">
        <ele>0.9</ele>
        <time>2020-06-04T14:24:31Z</time>
      </trkpt>
      <trkpt lat="46.96535" lon="-2.04382">
        <ele>0.9</ele>
        <time>2020-06-04T14:24:32Z</time>
      </trkpt>
      <trkpt lat="46.9654" lon="-2.04383">
        <ele>0.9</ele>
        <time>2020-06-04T14:24:33Z</time>
      </trkpt>
      <trkpt lat="46.96545" lon="-2.04383">
        <ele>0.9</ele>
        <time>2020-06-04T14:24:34Z</time>
      </trkpt>
      <trkpt lat="46.96549" lon="-2.04384">
        <ele>0.9</ele>
        <time>2020-06-04T14:24:35Z</time>
      </trkpt>
      <trkpt lat="46.96554" lon="-2.04384">
        <ele>0.9</ele>
        <time>2020-06-04T14:24:36Z</time>
      </trkpt>
      <trkpt lat="46.96559" lon="-2.04385">
        <ele>0.9</ele>
        <time>2020-06-04T14:24:37Z</time>
      </trkpt>
      <trkpt lat="46.96564" lon="-2.04385">
        <ele>0.9</ele>
        <time>2020-06-04T14:24:38Z</time>
      </trkpt>
      <trkpt lat="46.96569" lon="-2.04387">
        <ele>0.9</ele>
        <time>2020-06-04T14:24:39Z</time>
      </trkpt>
      <trkpt lat="46.96574" lon="-2.04388">
        <ele>0.8</ele>
        <time>2020-06-04T14:24:40Z</time>
      </trkpt>
      <trkpt lat="46.96579" lon="-2.04389">
        <ele>0.8</ele>
        <time>2020-06-04T14:24:41Z</time>
      </trkpt>
      <trkpt lat="46.96584" lon="-2.0439">
        <ele>0.8</ele>
        <time>2020-06-04T14:24:42Z</time>
      </trkpt>
      <trkpt lat="46.96589" lon="-2.04391">
        <ele>0.8</ele>
        <time>2020-06-04T14:24:43Z</time>
      </trkpt>
      <trkpt lat="46.96594" lon="-2.04392">
        <ele>0.8</ele>
        <time>2020-06-04T14:24:44Z</time>
      </trkpt>
      <trkpt lat="46.96599" lon="-2.04393">
        <ele>0.8</ele>
        <time>2020-06-04T14:24:45Z</time>
      </trkpt>
      <trkpt lat="46.96603" lon="-2.04394">
        <ele>0.8</ele>
        <time>2020-06-04T14:24:46Z</time>
      </trkpt>
      <trkpt lat="46.96608" lon="-2.04395">
        <ele>0.7</ele>
        <time>2020-06-04T14:24:47Z</time>
      </trkpt>
      <trkpt lat="46.96613" lon="-2.04396">
        <ele>0.7</ele>
        <time>2020-06-04T14:24:48Z</time>
      </trkpt>
      <trkpt lat="46.96618" lon="-2.04397">
        <ele>0.7</ele>
        <time>2020-06-04T14:24:49Z</time>
      </trkpt>
      <trkpt lat="46.96623" lon="-2.04397">
        <ele>0.7</ele>
        <time>2020-06-04T14:24:50Z</time>
      </trkpt>
      <trkpt lat="46.96628" lon="-2.04398">
        <ele>0.8</ele>
        <time>2020-06-04T14:24:51Z</time>
      </trkpt>
      <trkpt lat="46.96634" lon="-2.04399">
        <ele>0.8</ele>
        <time>2020-06-04T14:24:52Z</time>
      </trkpt>
      <trkpt lat="46.96639" lon="-2.044">
        <ele>0.8</ele>
        <time>2020-06-04T14:24:53Z</time>
      </trkpt>
      <trkpt lat="46.96645" lon="-2.04401">
        <ele>0.8</ele>
        <time>2020-06-04T14:24:54Z</time>
      </trkpt>
      <trkpt lat="46.9665" lon="-2.04402">
        <ele>0.8</ele>
        <time>2020-06-04T14:24:55Z</time>
      </trkpt>
      <trkpt lat="46.96655" lon="-2.04402">
        <ele>0.9</ele>
        <time>2020-06-04T14:24:56Z</time>
      </trkpt>
      <trkpt lat="46.96661" lon="-2.04402">
        <ele>0.9</ele>
        <time>2020-06-04T14:24:57Z</time>
      </trkpt>
      <trkpt lat="46.96668" lon="-2.04399">
        <ele>0.9</ele>
        <time>2020-06-04T14:24:58Z</time>
      </trkpt>
      <trkpt lat="46.96674" lon="-2.04396">
        <ele>0.9</ele>
        <time>2020-06-04T14:24:59Z</time>
      </trkpt>
      <trkpt lat="46.9668" lon="-2.04393">
        <ele>0.8</ele>
        <time>2020-06-04T14:25:00Z</time>
      </trkpt>
      <trkpt lat="46.96686" lon="-2.0439">
        <ele>0.8</ele>
        <time>2020-06-04T14:25:01Z</time>
      </trkpt>
      <trkpt lat="46.96692" lon="-2.04387">
        <ele>0.8</ele>
        <time>2020-06-04T14:25:02Z</time>
      </trkpt>
      <trkpt lat="46.96697" lon="-2.04384">
        <ele>0.8</ele>
        <time>2020-06-04T14:25:03Z</time>
      </trkpt>
      <trkpt lat="46.96703" lon="-2.0438">
        <ele>0.8</ele>
        <time>2020-06-04T14:25:04Z</time>
      </trkpt>
      <trkpt lat="46.96707" lon="-2.04377">
        <ele>0.7</ele>
        <time>2020-06-04T14:25:05Z</time>
      </trkpt>
      <trkpt lat="46.96713" lon="-2.04375">
        <ele>0.7</ele>
        <time>2020-06-04T14:25:06Z</time>
      </trkpt>
      <trkpt lat="46.96718" lon="-2.04372">
        <ele>0.7</ele>
        <time>2020-06-04T14:25:07Z</time>
      </trkpt>
      <trkpt lat="46.96723" lon="-2.0437">
        <ele>0.7</ele>
        <time>2020-06-04T14:25:08Z</time>
      </trkpt>
      <trkpt lat="46.96728" lon="-2.04367">
        <ele>0.7</ele>
        <time>2020-06-04T14:25:09Z</time>
      </trkpt>
      <trkpt lat="46.96733" lon="-2.04364">
        <ele>0.7</ele>
        <time>2020-06-04T14:25:10Z</time>
      </trkpt>
      <trkpt lat="46.96738" lon="-2.04362">
        <ele>0.7</ele>
        <time>2020-06-04T14:25:11Z</time>
      </trkpt>
      <trkpt lat="46.96744" lon="-2.04359">
        <ele>0.6</ele>
        <time>2020-06-04T14:25:12Z</time>
      </trkpt>
      <trkpt lat="46.96749" lon="-2.04358">
        <ele>0.6</ele>
        <time>2020-06-04T14:25:13Z</time>
      </trkpt>
      <trkpt lat="46.96753" lon="-2.04356">
        <ele>0.5</ele>
        <time>2020-06-04T14:25:14Z</time>
      </trkpt>
      <trkpt lat="46.96758" lon="-2.04355">
        <ele>0.5</ele>
        <time>2020-06-04T14:25:15Z</time>
      </trkpt>
      <trkpt lat="46.96763" lon="-2.04355">
        <ele>0.5</ele>
        <time>2020-06-04T14:25:16Z</time>
      </trkpt>
      <trkpt lat="46.96768" lon="-2.04355">
        <ele>0.4</ele>
        <time>2020-06-04T14:25:17Z</time>
      </trkpt>
      <trkpt lat="46.96773" lon="-2.04354">
        <ele>0.4</ele>
        <time>2020-06-04T14:25:18Z</time>
      </trkpt>
      <trkpt lat="46.96778" lon="-2.04352">
        <ele>0.4</ele>
        <time>2020-06-04T14:25:19Z</time>
      </trkpt>
      <trkpt lat="46.96784" lon="-2.04349">
        <ele>0.4</ele>
        <time>2020-06-04T14:25:20Z</time>
      </trkpt>
      <trkpt lat="46.96788" lon="-2.04342">
        <ele>0.4</ele>
        <time>2020-06-04T14:25:21Z</time>
      </trkpt>
      <trkpt lat="46.9679" lon="-2.04333">
        <ele>0.4</ele>
        <time>2020-06-04T14:25:22Z</time>
      </trkpt>
      <trkpt lat="46.96791" lon="-2.04325">
        <ele>0.4</ele>
        <time>2020-06-04T14:25:23Z</time>
      </trkpt>
      <trkpt lat="46.96792" lon="-2.04316">
        <ele>0.5</ele>
        <time>2020-06-04T14:25:24Z</time>
      </trkpt>
      <trkpt lat="46.96793" lon="-2.04307">
        <ele>0.5</ele>
        <time>2020-06-04T14:25:25Z</time>
      </trkpt>
      <trkpt lat="46.96794" lon="-2.04298">
        <ele>0.6</ele>
        <time>2020-06-04T14:25:26Z</time>
      </trkpt>
      <trkpt lat="46.96796" lon="-2.04289">
        <ele>0.6</ele>
        <time>2020-06-04T14:25:27Z</time>
      </trkpt>
      <trkpt lat="46.96797" lon="-2.04281">
        <ele>0.7</ele>
        <time>2020-06-04T14:25:28Z</time>
      </trkpt>
      <trkpt lat="46.96798" lon="-2.04272">
        <ele>0.8</ele>
        <time>2020-06-04T14:25:29Z</time>
      </trkpt>
      <trkpt lat="46.96799" lon="-2.04263">
        <ele>0.9</ele>
        <time>2020-06-04T14:25:30Z</time>
      </trkpt>
      <trkpt lat="46.96799" lon="-2.04255">
        <ele>1</ele>
        <time>2020-06-04T14:25:31Z</time>
      </trkpt>
      <trkpt lat="46.968" lon="-2.04247">
        <ele>1.2</ele>
        <time>2020-06-04T14:25:32Z</time>
      </trkpt>
      <trkpt lat="46.968" lon="-2.04239">
        <ele>1.3</ele>
        <time>2020-06-04T14:25:33Z</time>
      </trkpt>
      <trkpt lat="46.968" lon="-2.04231">
        <ele>1.5</ele>
        <time>2020-06-04T14:25:34Z</time>
      </trkpt>
      <trkpt lat="46.96799" lon="-2.04222">
        <ele>1.6</ele>
        <time>2020-06-04T14:25:35Z</time>
      </trkpt>
      <trkpt lat="46.96801" lon="-2.04214">
        <ele>1.7</ele>
        <time>2020-06-04T14:25:36Z</time>
      </trkpt>
      <trkpt lat="46.96803" lon="-2.04207">
        <ele>1.8</ele>
        <time>2020-06-04T14:25:37Z</time>
      </trkpt>
      <trkpt lat="46.96808" lon="-2.04203">
        <ele>1.9</ele>
        <time>2020-06-04T14:25:38Z</time>
      </trkpt>
      <trkpt lat="46.96812" lon="-2.042">
        <ele>1.9</ele>
        <time>2020-06-04T14:25:39Z</time>
      </trkpt>
      <trkpt lat="46.96814" lon="-2.04194">
        <ele>2</ele>
        <time>2020-06-04T14:25:40Z</time>
      </trkpt>
      <trkpt lat="46.96815" lon="-2.04188">
        <ele>2</ele>
        <time>2020-06-04T14:25:41Z</time>
      </trkpt>
      <trkpt lat="46.96816" lon="-2.04181">
        <ele>2.1</ele>
        <time>2020-06-04T14:25:42Z</time>
      </trkpt>
      <trkpt lat="46.96817" lon="-2.04175">
        <ele>2.1</ele>
        <time>2020-06-04T14:25:43Z</time>
      </trkpt>
      <trkpt lat="46.96817" lon="-2.04168">
        <ele>2.1</ele>
        <time>2020-06-04T14:25:44Z</time>
      </trkpt>
      <trkpt lat="46.96818" lon="-2.04161">
        <ele>2.2</ele>
        <time>2020-06-04T14:25:45Z</time>
      </trkpt>
      <trkpt lat="46.96819" lon="-2.04153">
        <ele>2.2</ele>
        <time>2020-06-04T14:25:46Z</time>
      </trkpt>
      <trkpt lat="46.96819" lon="-2.04146">
        <ele>2.2</ele>
        <time>2020-06-04T14:25:47Z</time>
      </trkpt>
      <trkpt lat="46.9682" lon="-2.04139">
        <ele>2.2</ele>
        <time>2020-06-04T14:25:48Z</time>
      </trkpt>
      <trkpt lat="46.9682" lon="-2.04131">
        <ele>2.2</ele>
        <time>2020-06-04T14:25:49Z</time>
      </trkpt>
      <trkpt lat="46.96821" lon="-2.04124">
        <ele>2.2</ele>
        <time>2020-06-04T14:25:50Z</time>
      </trkpt>
      <trkpt lat="46.96822" lon="-2.04117">
        <ele>2.3</ele>
        <time>2020-06-04T14:25:51Z</time>
      </trkpt>
      <trkpt lat="46.96822" lon="-2.04109">
        <ele>2.3</ele>
        <time>2020-06-04T14:25:52Z</time>
      </trkpt>
      <trkpt lat="46.96823" lon="-2.04101">
        <ele>2.3</ele>
        <time>2020-06-04T14:25:53Z</time>
      </trkpt>
      <trkpt lat="46.96823" lon="-2.04092">
        <ele>2.3</ele>
        <time>2020-06-04T14:25:54Z</time>
      </trkpt>
      <trkpt lat="46.96824" lon="-2.04084">
        <ele>2.2</ele>
        <time>2020-06-04T14:25:55Z</time>
      </trkpt>
      <trkpt lat="46.96825" lon="-2.04076">
        <ele>2.2</ele>
        <time>2020-06-04T14:25:56Z</time>
      </trkpt>
      <trkpt lat="46.96825" lon="-2.04067">
        <ele>2.2</ele>
        <time>2020-06-04T14:25:57Z</time>
      </trkpt>
      <trkpt lat="46.96826" lon="-2.04059">
        <ele>2.2</ele>
        <time>2020-06-04T14:25:58Z</time>
      </trkpt>
      <trkpt lat="46.96826" lon="-2.04051">
        <ele>2.2</ele>
        <time>2020-06-04T14:25:59Z</time>
      </trkpt>
      <trkpt lat="46.96827" lon="-2.04043">
        <ele>2.1</ele>
        <time>2020-06-04T14:26:00Z</time>
      </trkpt>
      <trkpt lat="46.96828" lon="-2.04035">
        <ele>2.1</ele>
        <time>2020-06-04T14:26:01Z</time>
      </trkpt>
      <trkpt lat="46.96829" lon="-2.04027">
        <ele>2.1</ele>
        <time>2020-06-04T14:26:02Z</time>
      </trkpt>
      <trkpt lat="46.96829" lon="-2.04019">
        <ele>2</ele>
        <time>2020-06-04T14:26:03Z</time>
      </trkpt>
      <trkpt lat="46.96829" lon="-2.04011">
        <ele>2</ele>
        <time>2020-06-04T14:26:04Z</time>
      </trkpt>
      <trkpt lat="46.9683" lon="-2.04002">
        <ele>2</ele>
        <time>2020-06-04T14:26:05Z</time>
      </trkpt>
      <trkpt lat="46.96831" lon="-2.03994">
        <ele>1.9</ele>
        <time>2020-06-04T14:26:06Z</time>
      </trkpt>
      <trkpt lat="46.96831" lon="-2.03985">
        <ele>1.9</ele>
        <time>2020-06-04T14:26:07Z</time>
      </trkpt>
      <trkpt lat="46.96832" lon="-2.03977">
        <ele>1.9</ele>
        <time>2020-06-04T14:26:08Z</time>
      </trkpt>
      <trkpt lat="46.96833" lon="-2.03968">
        <ele>2</ele>
        <time>2020-06-04T14:26:09Z</time>
      </trkpt>
      <trkpt lat="46.96834" lon="-2.03959">
        <ele>2</ele>
        <time>2020-06-04T14:26:10Z</time>
      </trkpt>
      <trkpt lat="46.96835" lon="-2.0395">
        <ele>2.1</ele>
        <time>2020-06-04T14:26:11Z</time>
      </trkpt>
      <trkpt lat="46.96836" lon="-2.03943">
        <ele>2.2</ele>
        <time>2020-06-04T14:26:12Z</time>
      </trkpt>
      <trkpt lat="46.96837" lon="-2.03935">
        <ele>2.2</ele>
        <time>2020-06-04T14:26:13Z</time>
      </trkpt>
      <trkpt lat="46.96838" lon="-2.03927">
        <ele>2.4</ele>
        <time>2020-06-04T14:26:14Z</time>
      </trkpt>
      <trkpt lat="46.96839" lon="-2.03919">
        <ele>2.5</ele>
        <time>2020-06-04T14:26:15Z</time>
      </trkpt>
      <trkpt lat="46.9684" lon="-2.03911">
        <ele>2.6</ele>
        <time>2020-06-04T14:26:16Z</time>
      </trkpt>
      <trkpt lat="46.9684" lon="-2.03904">
        <ele>2.7</ele>
        <time>2020-06-04T14:26:17Z</time>
      </trkpt>
      <trkpt lat="46.96841" lon="-2.03896">
        <ele>2.7</ele>
        <time>2020-06-04T14:26:18Z</time>
      </trkpt>
      <trkpt lat="46.96842" lon="-2.03892">
        <ele>2.8</ele>
        <time>2020-06-04T14:26:19Z</time>
      </trkpt>
      <trkpt lat="46.96843" lon="-2.03888">
        <ele>2.8</ele>
        <time>2020-06-04T14:26:20Z</time>
      </trkpt>
      <trkpt lat="46.96846" lon="-2.03884">
        <ele>2.8</ele>
        <time>2020-06-04T14:26:21Z</time>
      </trkpt>
      <trkpt lat="46.96848" lon="-2.03881">
        <ele>2.8</ele>
        <time>2020-06-04T14:26:22Z</time>
      </trkpt>
      <trkpt lat="46.9685" lon="-2.03876">
        <ele>2.8</ele>
        <time>2020-06-04T14:26:23Z</time>
      </trkpt>
      <trkpt lat="46.96851" lon="-2.03869">
        <ele>2.8</ele>
        <time>2020-06-04T14:26:24Z</time>
      </trkpt>
      <trkpt lat="46.96852" lon="-2.03861">
        <ele>2.8</ele>
        <time>2020-06-04T14:26:25Z</time>
      </trkpt>
      <trkpt lat="46.96853" lon="-2.03853">
        <ele>2.8</ele>
        <time>2020-06-04T14:26:26Z</time>
      </trkpt>
      <trkpt lat="46.96854" lon="-2.03845">
        <ele>2.8</ele>
        <time>2020-06-04T14:26:27Z</time>
      </trkpt>
      <trkpt lat="46.96856" lon="-2.03837">
        <ele>2.7</ele>
        <time>2020-06-04T14:26:28Z</time>
      </trkpt>
      <trkpt lat="46.96857" lon="-2.0383">
        <ele>2.7</ele>
        <time>2020-06-04T14:26:29Z</time>
      </trkpt>
      <trkpt lat="46.96858" lon="-2.03822">
        <ele>2.7</ele>
        <time>2020-06-04T14:26:30Z</time>
      </trkpt>
      <trkpt lat="46.96859" lon="-2.03814">
        <ele>2.7</ele>
        <time>2020-06-04T14:26:31Z</time>
      </trkpt>
      <trkpt lat="46.9686" lon="-2.03806">
        <ele>2.7</ele>
        <time>2020-06-04T14:26:32Z</time>
      </trkpt>
      <trkpt lat="46.96861" lon="-2.03797">
        <ele>2.7</ele>
        <time>2020-06-04T14:26:33Z</time>
      </trkpt>
      <trkpt lat="46.96862" lon="-2.03789">
        <ele>2.7</ele>
        <time>2020-06-04T14:26:34Z</time>
      </trkpt>
      <trkpt lat="46.96863" lon="-2.0378">
        <ele>2.7</ele>
        <time>2020-06-04T14:26:35Z</time>
      </trkpt>
      <trkpt lat="46.96864" lon="-2.03771">
        <ele>2.7</ele>
        <time>2020-06-04T14:26:36Z</time>
      </trkpt>
      <trkpt lat="46.96865" lon="-2.03764">
        <ele>2.7</ele>
        <time>2020-06-04T14:26:37Z</time>
      </trkpt>
      <trkpt lat="46.96866" lon="-2.03757">
        <ele>2.7</ele>
        <time>2020-06-04T14:26:38Z</time>
      </trkpt>
      <trkpt lat="46.96867" lon="-2.03749">
        <ele>2.7</ele>
        <time>2020-06-04T14:26:39Z</time>
      </trkpt>
      <trkpt lat="46.96868" lon="-2.03742">
        <ele>2.6</ele>
        <time>2020-06-04T14:26:40Z</time>
      </trkpt>
      <trkpt lat="46.96869" lon="-2.03735">
        <ele>2.6</ele>
        <time>2020-06-04T14:26:41Z</time>
      </trkpt>
      <trkpt lat="46.96869" lon="-2.0373">
        <ele>2.6</ele>
        <time>2020-06-04T14:26:42Z</time>
      </trkpt>
      <trkpt lat="46.96871" lon="-2.03724">
        <ele>2.6</ele>
        <time>2020-06-04T14:26:43Z</time>
      </trkpt>
      <trkpt lat="46.96872" lon="-2.03717">
        <ele>2.6</ele>
        <time>2020-06-04T14:26:44Z</time>
      </trkpt>
      <trkpt lat="46.96873" lon="-2.03711">
        <ele>2.6</ele>
        <time>2020-06-04T14:26:45Z</time>
      </trkpt>
      <trkpt lat="46.96874" lon="-2.03704">
        <ele>2.6</ele>
        <time>2020-06-04T14:26:46Z</time>
      </trkpt>
      <trkpt lat="46.96875" lon="-2.03699">
        <ele>2.6</ele>
        <time>2020-06-04T14:26:47Z</time>
      </trkpt>
      <trkpt lat="46.96875" lon="-2.03694">
        <ele>2.6</ele>
        <time>2020-06-04T14:26:48Z</time>
      </trkpt>
      <trkpt lat="46.96876" lon="-2.03689">
        <ele>2.6</ele>
        <time>2020-06-04T14:26:49Z</time>
      </trkpt>
      <trkpt lat="46.96876" lon="-2.03683">
        <ele>2.6</ele>
        <time>2020-06-04T14:26:50Z</time>
      </trkpt>
      <trkpt lat="46.96877" lon="-2.03677">
        <ele>2.6</ele>
        <time>2020-06-04T14:26:51Z</time>
      </trkpt>
      <trkpt lat="46.96878" lon="-2.03671">
        <ele>2.6</ele>
        <time>2020-06-04T14:26:52Z</time>
      </trkpt>
      <trkpt lat="46.96879" lon="-2.03665">
        <ele>2.6</ele>
        <time>2020-06-04T14:26:53Z</time>
      </trkpt>
      <trkpt lat="46.96878" lon="-2.03658">
        <ele>2.6</ele>
        <time>2020-06-04T14:26:54Z</time>
      </trkpt>
      <trkpt lat="46.96879" lon="-2.0365">
        <ele>2.6</ele>
        <time>2020-06-04T14:26:55Z</time>
      </trkpt>
      <trkpt lat="46.96879" lon="-2.03643">
        <ele>2.5</ele>
        <time>2020-06-04T14:26:56Z</time>
      </trkpt>
      <trkpt lat="46.96879" lon="-2.03635">
        <ele>2.5</ele>
        <time>2020-06-04T14:26:57Z</time>
      </trkpt>
      <trkpt lat="46.96879" lon="-2.03626">
        <ele>2.5</ele>
        <time>2020-06-04T14:26:58Z</time>
      </trkpt>
      <trkpt lat="46.96878" lon="-2.03618">
        <ele>2.5</ele>
        <time>2020-06-04T14:26:59Z</time>
      </trkpt>
      <trkpt lat="46.96878" lon="-2.03609">
        <ele>2.5</ele>
        <time>2020-06-04T14:27:00Z</time>
      </trkpt>
      <trkpt lat="46.96879" lon="-2.036">
        <ele>2.5</ele>
        <time>2020-06-04T14:27:01Z</time>
      </trkpt>
      <trkpt lat="46.9688" lon="-2.0359">
        <ele>2.5</ele>
        <time>2020-06-04T14:27:02Z</time>
      </trkpt>
      <trkpt lat="46.9688" lon="-2.03582">
        <ele>2.5</ele>
        <time>2020-06-04T14:27:03Z</time>
      </trkpt>
      <trkpt lat="46.9688" lon="-2.03572">
        <ele>2.4</ele>
        <time>2020-06-04T14:27:04Z</time>
      </trkpt>
      <trkpt lat="46.9688" lon="-2.03563">
        <ele>2.4</ele>
        <time>2020-06-04T14:27:05Z</time>
      </trkpt>
      <trkpt lat="46.96879" lon="-2.03555">
        <ele>2.4</ele>
        <time>2020-06-04T14:27:06Z</time>
      </trkpt>
      <trkpt lat="46.96879" lon="-2.03546">
        <ele>2.4</ele>
        <time>2020-06-04T14:27:07Z</time>
      </trkpt>
      <trkpt lat="46.96879" lon="-2.03537">
        <ele>2.3</ele>
        <time>2020-06-04T14:27:08Z</time>
      </trkpt>
      <trkpt lat="46.9688" lon="-2.03528">
        <ele>2.3</ele>
        <time>2020-06-04T14:27:09Z</time>
      </trkpt>
      <trkpt lat="46.96881" lon="-2.0352">
        <ele>2.2</ele>
        <time>2020-06-04T14:27:10Z</time>
      </trkpt>
      <trkpt lat="46.96881" lon="-2.03511">
        <ele>2.2</ele>
        <time>2020-06-04T14:27:11Z</time>
      </trkpt>
      <trkpt lat="46.96881" lon="-2.03502">
        <ele>2.2</ele>
        <time>2020-06-04T14:27:12Z</time>
      </trkpt>
      <trkpt lat="46.96882" lon="-2.03494">
        <ele>2.2</ele>
        <time>2020-06-04T14:27:13Z</time>
      </trkpt>
      <trkpt lat="46.96882" lon="-2.03486">
        <ele>2.1</ele>
        <time>2020-06-04T14:27:14Z</time>
      </trkpt>
      <trkpt lat="46.96882" lon="-2.03476">
        <ele>2.1</ele>
        <time>2020-06-04T14:27:15Z</time>
      </trkpt>
      <trkpt lat="46.96882" lon="-2.03468">
        <ele>2.1</ele>
        <time>2020-06-04T14:27:16Z</time>
      </trkpt>
      <trkpt lat="46.96883" lon="-2.03459">
        <ele>2.1</ele>
        <time>2020-06-04T14:27:17Z</time>
      </trkpt>
      <trkpt lat="46.96883" lon="-2.03451">
        <ele>2.1</ele>
        <time>2020-06-04T14:27:18Z</time>
      </trkpt>
      <trkpt lat="46.96883" lon="-2.03443">
        <ele>2.1</ele>
        <time>2020-06-04T14:27:19Z</time>
      </trkpt>
      <trkpt lat="46.96883" lon="-2.03434">
        <ele>2.1</ele>
        <time>2020-06-04T14:27:20Z</time>
      </trkpt>
      <trkpt lat="46.96884" lon="-2.03426">
        <ele>2</ele>
        <time>2020-06-04T14:27:21Z</time>
      </trkpt>
      <trkpt lat="46.96884" lon="-2.03417">
        <ele>2</ele>
        <time>2020-06-04T14:27:22Z</time>
      </trkpt>
      <trkpt lat="46.96884" lon="-2.03409">
        <ele>2</ele>
        <time>2020-06-04T14:27:23Z</time>
      </trkpt>
      <trkpt lat="46.96884" lon="-2.03401">
        <ele>2</ele>
        <time>2020-06-04T14:27:24Z</time>
      </trkpt>
      <trkpt lat="46.96885" lon="-2.03393">
        <ele>2</ele>
        <time>2020-06-04T14:27:25Z</time>
      </trkpt>
      <trkpt lat="46.96885" lon="-2.03384">
        <ele>2</ele>
        <time>2020-06-04T14:27:26Z</time>
      </trkpt>
      <trkpt lat="46.96885" lon="-2.03376">
        <ele>2</ele>
        <time>2020-06-04T14:27:27Z</time>
      </trkpt>
      <trkpt lat="46.96885" lon="-2.03369">
        <ele>2</ele>
        <time>2020-06-04T14:27:28Z</time>
      </trkpt>
      <trkpt lat="46.96885" lon="-2.03363">
        <ele>2</ele>
        <time>2020-06-04T14:27:29Z</time>
      </trkpt>
      <trkpt lat="46.96885" lon="-2.03357">
        <ele>2</ele>
        <time>2020-06-04T14:27:30Z</time>
      </trkpt>
      <trkpt lat="46.96884" lon="-2.03351">
        <ele>2</ele>
        <time>2020-06-04T14:27:31Z</time>
      </trkpt>
      <trkpt lat="46.96886" lon="-2.03345">
        <ele>2</ele>
        <time>2020-06-04T14:27:32Z</time>
      </trkpt>
      <trkpt lat="46.96886" lon="-2.03342">
        <ele>2</ele>
        <time>2020-06-04T14:27:33Z</time>
      </trkpt>
      <trkpt lat="46.9689" lon="-2.03341">
        <ele>2.2</ele>
        <time>2020-06-04T14:27:34Z</time>
      </trkpt>
      <trkpt lat="46.96892" lon="-2.03341">
        <ele>2.2</ele>
        <time>2020-06-04T14:27:35Z</time>
      </trkpt>
      <trkpt lat="46.96896" lon="-2.03341">
        <ele>2.2</ele>
        <time>2020-06-04T14:27:36Z</time>
      </trkpt>
      <trkpt lat="46.96901" lon="-2.03342">
        <ele>2.4</ele>
        <time>2020-06-04T14:27:37Z</time>
      </trkpt>
      <trkpt lat="46.96905" lon="-2.03343">
        <ele>2.4</ele>
        <time>2020-06-04T14:27:38Z</time>
      </trkpt>
      <trkpt lat="46.9691" lon="-2.03342">
        <ele>2.5</ele>
        <time>2020-06-04T14:27:39Z</time>
      </trkpt>
      <trkpt lat="46.96915" lon="-2.03342">
        <ele>2.5</ele>
        <time>2020-06-04T14:27:40Z</time>
      </trkpt>
      <trkpt lat="46.96919" lon="-2.03342">
        <ele>2.5</ele>
        <time>2020-06-04T14:27:41Z</time>
      </trkpt>
      <trkpt lat="46.96924" lon="-2.03343">
        <ele>2.6</ele>
        <time>2020-06-04T14:27:42Z</time>
      </trkpt>
      <trkpt lat="46.96928" lon="-2.03344">
        <ele>2.6</ele>
        <time>2020-06-04T14:27:43Z</time>
      </trkpt>
      <trkpt lat="46.96933" lon="-2.03345">
        <ele>2.6</ele>
        <time>2020-06-04T14:27:44Z</time>
      </trkpt>
      <trkpt lat="46.96938" lon="-2.03345">
        <ele>2.6</ele>
        <time>2020-06-04T14:27:45Z</time>
      </trkpt>
      <trkpt lat="46.96943" lon="-2.03346">
        <ele>2.6</ele>
        <time>2020-06-04T14:27:46Z</time>
      </trkpt>
      <trkpt lat="46.96948" lon="-2.03346">
        <ele>2.6</ele>
        <time>2020-06-04T14:27:47Z</time>
      </trkpt>
      <trkpt lat="46.96952" lon="-2.03346">
        <ele>2.6</ele>
        <time>2020-06-04T14:27:48Z</time>
      </trkpt>
      <trkpt lat="46.96957" lon="-2.03347">
        <ele>2.6</ele>
        <time>2020-06-04T14:27:49Z</time>
      </trkpt>
      <trkpt lat="46.96963" lon="-2.03346">
        <ele>2.6</ele>
        <time>2020-06-04T14:27:50Z</time>
      </trkpt>
      <trkpt lat="46.96968" lon="-2.03346">
        <ele>2.6</ele>
        <time>2020-06-04T14:27:51Z</time>
      </trkpt>
      <trkpt lat="46.96974" lon="-2.03345">
        <ele>2.6</ele>
        <time>2020-06-04T14:27:52Z</time>
      </trkpt>
      <trkpt lat="46.96978" lon="-2.03345">
        <ele>2.6</ele>
        <time>2020-06-04T14:27:53Z</time>
      </trkpt>
      <trkpt lat="46.96982" lon="-2.03344">
        <ele>2.6</ele>
        <time>2020-06-04T14:27:54Z</time>
      </trkpt>
      <trkpt lat="46.96986" lon="-2.03344">
        <ele>2.6</ele>
        <time>2020-06-04T14:27:55Z</time>
      </trkpt>
      <trkpt lat="46.9699" lon="-2.03345">
        <ele>2.6</ele>
        <time>2020-06-04T14:27:56Z</time>
      </trkpt>
      <trkpt lat="46.96993" lon="-2.03346">
        <ele>2.6</ele>
        <time>2020-06-04T14:27:57Z</time>
      </trkpt>
      <trkpt lat="46.96997" lon="-2.03346">
        <ele>2.6</ele>
        <time>2020-06-04T14:27:58Z</time>
      </trkpt>
      <trkpt lat="46.97001" lon="-2.03346">
        <ele>2.6</ele>
        <time>2020-06-04T14:27:59Z</time>
      </trkpt>
      <trkpt lat="46.97005" lon="-2.03345">
        <ele>2.6</ele>
        <time>2020-06-04T14:28:00Z</time>
      </trkpt>
      <trkpt lat="46.9701" lon="-2.03344">
        <ele>2.6</ele>
        <time>2020-06-04T14:28:01Z</time>
      </trkpt>
      <trkpt lat="46.97015" lon="-2.03344">
        <ele>2.6</ele>
        <time>2020-06-04T14:28:02Z</time>
      </trkpt>
      <trkpt lat="46.97019" lon="-2.03344">
        <ele>2.6</ele>
        <time>2020-06-04T14:28:03Z</time>
      </trkpt>
      <trkpt lat="46.97024" lon="-2.03343">
        <ele>2.5</ele>
        <time>2020-06-04T14:28:04Z</time>
      </trkpt>
      <trkpt lat="46.97028" lon="-2.03343">
        <ele>2.5</ele>
        <time>2020-06-04T14:28:05Z</time>
      </trkpt>
      <trkpt lat="46.97033" lon="-2.03344">
        <ele>2.5</ele>
        <time>2020-06-04T14:28:06Z</time>
      </trkpt>
      <trkpt lat="46.97039" lon="-2.03343">
        <ele>2.5</ele>
        <time>2020-06-04T14:28:07Z</time>
      </trkpt>
      <trkpt lat="46.97043" lon="-2.03343">
        <ele>2.5</ele>
        <time>2020-06-04T14:28:08Z</time>
      </trkpt>
      <trkpt lat="46.97048" lon="-2.03344">
        <ele>2.5</ele>
        <time>2020-06-04T14:28:09Z</time>
      </trkpt>
      <trkpt lat="46.97054" lon="-2.03345">
        <ele>2.5</ele>
        <time>2020-06-04T14:28:10Z</time>
      </trkpt>
      <trkpt lat="46.97059" lon="-2.03345">
        <ele>2.4</ele>
        <time>2020-06-04T14:28:11Z</time>
      </trkpt>
      <trkpt lat="46.97063" lon="-2.03346">
        <ele>2.4</ele>
        <time>2020-06-04T14:28:12Z</time>
      </trkpt>
      <trkpt lat="46.97068" lon="-2.03347">
        <ele>2.4</ele>
        <time>2020-06-04T14:28:13Z</time>
      </trkpt>
      <trkpt lat="46.97073" lon="-2.03348">
        <ele>2.4</ele>
        <time>2020-06-04T14:28:14Z</time>
      </trkpt>
      <trkpt lat="46.97078" lon="-2.03349">
        <ele>2.3</ele>
        <time>2020-06-04T14:28:15Z</time>
      </trkpt>
      <trkpt lat="46.97082" lon="-2.0335">
        <ele>2.3</ele>
        <time>2020-06-04T14:28:16Z</time>
      </trkpt>
      <trkpt lat="46.97087" lon="-2.03352">
        <ele>2.3</ele>
        <time>2020-06-04T14:28:17Z</time>
      </trkpt>
      <trkpt lat="46.97091" lon="-2.03354">
        <ele>2.4</ele>
        <time>2020-06-04T14:28:18Z</time>
      </trkpt>
      <trkpt lat="46.97096" lon="-2.03358">
        <ele>2.4</ele>
        <time>2020-06-04T14:28:19Z</time>
      </trkpt>
      <trkpt lat="46.97101" lon="-2.03362">
        <ele>2.4</ele>
        <time>2020-06-04T14:28:20Z</time>
      </trkpt>
      <trkpt lat="46.97106" lon="-2.03369">
        <ele>2.5</ele>
        <time>2020-06-04T14:28:21Z</time>
      </trkpt>
      <trkpt lat="46.97111" lon="-2.03375">
        <ele>2.5</ele>
        <time>2020-06-04T14:28:22Z</time>
      </trkpt>
      <trkpt lat="46.97115" lon="-2.0338">
        <ele>2.6</ele>
        <time>2020-06-04T14:28:23Z</time>
      </trkpt>
      <trkpt lat="46.9712" lon="-2.03384">
        <ele>2.6</ele>
        <time>2020-06-04T14:28:24Z</time>
      </trkpt>
      <trkpt lat="46.97124" lon="-2.03388">
        <ele>2.6</ele>
        <time>2020-06-04T14:28:25Z</time>
      </trkpt>
      <trkpt lat="46.9713" lon="-2.03391">
        <ele>2.6</ele>
        <time>2020-06-04T14:28:26Z</time>
      </trkpt>
      <trkpt lat="46.97134" lon="-2.03394">
        <ele>2.7</ele>
        <time>2020-06-04T14:28:27Z</time>
      </trkpt>
      <trkpt lat="46.97141" lon="-2.03395">
        <ele>2.7</ele>
        <time>2020-06-04T14:28:28Z</time>
      </trkpt>
      <trkpt lat="46.97146" lon="-2.03396">
        <ele>2.7</ele>
        <time>2020-06-04T14:28:29Z</time>
      </trkpt>
      <trkpt lat="46.97152" lon="-2.03395">
        <ele>2.8</ele>
        <time>2020-06-04T14:28:30Z</time>
      </trkpt>
      <trkpt lat="46.97158" lon="-2.03394">
        <ele>2.8</ele>
        <time>2020-06-04T14:28:31Z</time>
      </trkpt>
      <trkpt lat="46.97163" lon="-2.03393">
        <ele>2.8</ele>
        <time>2020-06-04T14:28:32Z</time>
      </trkpt>
      <trkpt lat="46.97168" lon="-2.03393">
        <ele>2.8</ele>
        <time>2020-06-04T14:28:33Z</time>
      </trkpt>
      <trkpt lat="46.97174" lon="-2.03392">
        <ele>2.9</ele>
        <time>2020-06-04T14:28:34Z</time>
      </trkpt>
      <trkpt lat="46.9718" lon="-2.03391">
        <ele>2.8</ele>
        <time>2020-06-04T14:28:35Z</time>
      </trkpt>
      <trkpt lat="46.97185" lon="-2.0339">
        <ele>2.8</ele>
        <time>2020-06-04T14:28:36Z</time>
      </trkpt>
      <trkpt lat="46.9719" lon="-2.0339">
        <ele>2.8</ele>
        <time>2020-06-04T14:28:37Z</time>
      </trkpt>
      <trkpt lat="46.97195" lon="-2.03389">
        <ele>2.8</ele>
        <time>2020-06-04T14:28:38Z</time>
      </trkpt>
      <trkpt lat="46.97201" lon="-2.0339">
        <ele>2.7</ele>
        <time>2020-06-04T14:28:39Z</time>
      </trkpt>
      <trkpt lat="46.97207" lon="-2.0339">
        <ele>2.6</ele>
        <time>2020-06-04T14:28:40Z</time>
      </trkpt>
      <trkpt lat="46.97212" lon="-2.03391">
        <ele>2.5</ele>
        <time>2020-06-04T14:28:41Z</time>
      </trkpt>
      <trkpt lat="46.97218" lon="-2.03392">
        <ele>2.5</ele>
        <time>2020-06-04T14:28:42Z</time>
      </trkpt>
      <trkpt lat="46.97224" lon="-2.03393">
        <ele>2.4</ele>
        <time>2020-06-04T14:28:43Z</time>
      </trkpt>
      <trkpt lat="46.97229" lon="-2.03394">
        <ele>2.4</ele>
        <time>2020-06-04T14:28:44Z</time>
      </trkpt>
      <trkpt lat="46.97234" lon="-2.03395">
        <ele>2.4</ele>
        <time>2020-06-04T14:28:45Z</time>
      </trkpt>
      <trkpt lat="46.9724" lon="-2.03396">
        <ele>2.4</ele>
        <time>2020-06-04T14:28:46Z</time>
      </trkpt>
      <trkpt lat="46.97245" lon="-2.03397">
        <ele>2.4</ele>
        <time>2020-06-04T14:28:47Z</time>
      </trkpt>
      <trkpt lat="46.97251" lon="-2.03398">
        <ele>2.5</ele>
        <time>2020-06-04T14:28:48Z</time>
      </trkpt>
      <trkpt lat="46.97257" lon="-2.03398">
        <ele>2.5</ele>
        <time>2020-06-04T14:28:49Z</time>
      </trkpt>
      <trkpt lat="46.97263" lon="-2.03398">
        <ele>2.6</ele>
        <time>2020-06-04T14:28:50Z</time>
      </trkpt>
      <trkpt lat="46.97269" lon="-2.03398">
        <ele>2.6</ele>
        <time>2020-06-04T14:28:51Z</time>
      </trkpt>
      <trkpt lat="46.97275" lon="-2.03397">
        <ele>2.6</ele>
        <time>2020-06-04T14:28:52Z</time>
      </trkpt>
      <trkpt lat="46.97281" lon="-2.03396">
        <ele>2.6</ele>
        <time>2020-06-04T14:28:53Z</time>
      </trkpt>
      <trkpt lat="46.97288" lon="-2.03395">
        <ele>2.5</ele>
        <time>2020-06-04T14:28:54Z</time>
      </trkpt>
      <trkpt lat="46.97293" lon="-2.03393">
        <ele>2.5</ele>
        <time>2020-06-04T14:28:55Z</time>
      </trkpt>
      <trkpt lat="46.97297" lon="-2.03392">
        <ele>2.4</ele>
        <time>2020-06-04T14:28:56Z</time>
      </trkpt>
      <trkpt lat="46.97302" lon="-2.03391">
        <ele>2.3</ele>
        <time>2020-06-04T14:28:57Z</time>
      </trkpt>
      <trkpt lat="46.97307" lon="-2.03388">
        <ele>2.3</ele>
        <time>2020-06-04T14:28:58Z</time>
      </trkpt>
      <trkpt lat="46.97312" lon="-2.03387">
        <ele>2.2</ele>
        <time>2020-06-04T14:28:59Z</time>
      </trkpt>
      <trkpt lat="46.97318" lon="-2.03386">
        <ele>2.2</ele>
        <time>2020-06-04T14:29:00Z</time>
      </trkpt>
      <trkpt lat="46.97324" lon="-2.03384">
        <ele>2.1</ele>
        <time>2020-06-04T14:29:01Z</time>
      </trkpt>
      <trkpt lat="46.9733" lon="-2.03382">
        <ele>2.1</ele>
        <time>2020-06-04T14:29:02Z</time>
      </trkpt>
      <trkpt lat="46.97333" lon="-2.0338">
        <ele>2.1</ele>
        <time>2020-06-04T14:29:03Z</time>
      </trkpt>
      <trkpt lat="46.97338" lon="-2.03377">
        <ele>2</ele>
        <time>2020-06-04T14:29:04Z</time>
      </trkpt>
      <trkpt lat="46.97342" lon="-2.03375">
        <ele>2</ele>
        <time>2020-06-04T14:29:05Z</time>
      </trkpt>
      <trkpt lat="46.97348" lon="-2.03373">
        <ele>2.1</ele>
        <time>2020-06-04T14:29:06Z</time>
      </trkpt>
      <trkpt lat="46.97353" lon="-2.03372">
        <ele>2.1</ele>
        <time>2020-06-04T14:29:07Z</time>
      </trkpt>
      <trkpt lat="46.97359" lon="-2.03371">
        <ele>2.1</ele>
        <time>2020-06-04T14:29:08Z</time>
      </trkpt>
      <trkpt lat="46.97363" lon="-2.03372">
        <ele>2.1</ele>
        <time>2020-06-04T14:29:09Z</time>
      </trkpt>
      <trkpt lat="46.97369" lon="-2.03372">
        <ele>2.1</ele>
        <time>2020-06-04T14:29:10Z</time>
      </trkpt>
      <trkpt lat="46.97377" lon="-2.03372">
        <ele>2.1</ele>
        <time>2020-06-04T14:29:11Z</time>
      </trkpt>
      <trkpt lat="46.97384" lon="-2.03373">
        <ele>2.1</ele>
        <time>2020-06-04T14:29:12Z</time>
      </trkpt>
      <trkpt lat="46.9739" lon="-2.03374">
        <ele>2.1</ele>
        <time>2020-06-04T14:29:13Z</time>
      </trkpt>
      <trkpt lat="46.97396" lon="-2.03375">
        <ele>2.1</ele>
        <time>2020-06-04T14:29:14Z</time>
      </trkpt>
      <trkpt lat="46.97401" lon="-2.03376">
        <ele>2.1</ele>
        <time>2020-06-04T14:29:15Z</time>
      </trkpt>
      <trkpt lat="46.97405" lon="-2.03377">
        <ele>2.1</ele>
        <time>2020-06-04T14:29:16Z</time>
      </trkpt>
      <trkpt lat="46.97411" lon="-2.03378">
        <ele>2.1</ele>
        <time>2020-06-04T14:29:17Z</time>
      </trkpt>
      <trkpt lat="46.97417" lon="-2.03379">
        <ele>2.1</ele>
        <time>2020-06-04T14:29:18Z</time>
      </trkpt>
      <trkpt lat="46.97422" lon="-2.0338">
        <ele>2.1</ele>
        <time>2020-06-04T14:29:19Z</time>
      </trkpt>
      <trkpt lat="46.97426" lon="-2.03381">
        <ele>2.1</ele>
        <time>2020-06-04T14:29:20Z</time>
      </trkpt>
      <trkpt lat="46.9743" lon="-2.03382">
        <ele>2.1</ele>
        <time>2020-06-04T14:29:21Z</time>
      </trkpt>
      <trkpt lat="46.97434" lon="-2.03383">
        <ele>2.1</ele>
        <time>2020-06-04T14:29:22Z</time>
      </trkpt>
      <trkpt lat="46.97439" lon="-2.03384">
        <ele>2</ele>
        <time>2020-06-04T14:29:23Z</time>
      </trkpt>
      <trkpt lat="46.97444" lon="-2.03386">
        <ele>2</ele>
        <time>2020-06-04T14:29:24Z</time>
      </trkpt>
      <trkpt lat="46.97448" lon="-2.03388">
        <ele>2</ele>
        <time>2020-06-04T14:29:25Z</time>
      </trkpt>
      <trkpt lat="46.97453" lon="-2.0339">
        <ele>2</ele>
        <time>2020-06-04T14:29:26Z</time>
      </trkpt>
      <trkpt lat="46.97458" lon="-2.03392">
        <ele>2</ele>
        <time>2020-06-04T14:29:27Z</time>
      </trkpt>
      <trkpt lat="46.97464" lon="-2.03394">
        <ele>2</ele>
        <time>2020-06-04T14:29:28Z</time>
      </trkpt>
      <trkpt lat="46.97469" lon="-2.03395">
        <ele>2</ele>
        <time>2020-06-04T14:29:29Z</time>
      </trkpt>
      <trkpt lat="46.97474" lon="-2.03396">
        <ele>2</ele>
        <time>2020-06-04T14:29:30Z</time>
      </trkpt>
      <trkpt lat="46.9748" lon="-2.03395">
        <ele>2</ele>
        <time>2020-06-04T14:29:31Z</time>
      </trkpt>
      <trkpt lat="46.97485" lon="-2.03397">
        <ele>2</ele>
        <time>2020-06-04T14:29:32Z</time>
      </trkpt>
      <trkpt lat="46.97489" lon="-2.03398">
        <ele>2</ele>
        <time>2020-06-04T14:29:33Z</time>
      </trkpt>
      <trkpt lat="46.97494" lon="-2.034">
        <ele>2</ele>
        <time>2020-06-04T14:29:34Z</time>
      </trkpt>
      <trkpt lat="46.97499" lon="-2.03402">
        <ele>2</ele>
        <time>2020-06-04T14:29:35Z</time>
      </trkpt>
      <trkpt lat="46.97504" lon="-2.03404">
        <ele>2</ele>
        <time>2020-06-04T14:29:36Z</time>
      </trkpt>
      <trkpt lat="46.97509" lon="-2.03406">
        <ele>2</ele>
        <time>2020-06-04T14:29:37Z</time>
      </trkpt>
      <trkpt lat="46.97514" lon="-2.03409">
        <ele>2</ele>
        <time>2020-06-04T14:29:38Z</time>
      </trkpt>
      <trkpt lat="46.97518" lon="-2.03411">
        <ele>2</ele>
        <time>2020-06-04T14:29:39Z</time>
      </trkpt>
      <trkpt lat="46.97522" lon="-2.03413">
        <ele>2</ele>
        <time>2020-06-04T14:29:40Z</time>
      </trkpt>
      <trkpt lat="46.97528" lon="-2.03415">
        <ele>2</ele>
        <time>2020-06-04T14:29:41Z</time>
      </trkpt>
      <trkpt lat="46.97533" lon="-2.03417">
        <ele>2</ele>
        <time>2020-06-04T14:29:42Z</time>
      </trkpt>
      <trkpt lat="46.97537" lon="-2.03419">
        <ele>2</ele>
        <time>2020-06-04T14:29:43Z</time>
      </trkpt>
      <trkpt lat="46.97541" lon="-2.03421">
        <ele>1.9</ele>
        <time>2020-06-04T14:29:44Z</time>
      </trkpt>
      <trkpt lat="46.97545" lon="-2.03424">
        <ele>1.9</ele>
        <time>2020-06-04T14:29:45Z</time>
      </trkpt>
      <trkpt lat="46.9755" lon="-2.03426">
        <ele>1.9</ele>
        <time>2020-06-04T14:29:46Z</time>
      </trkpt>
      <trkpt lat="46.97555" lon="-2.0343">
        <ele>1.9</ele>
        <time>2020-06-04T14:29:47Z</time>
      </trkpt>
      <trkpt lat="46.9756" lon="-2.03433">
        <ele>1.9</ele>
        <time>2020-06-04T14:29:48Z</time>
      </trkpt>
      <trkpt lat="46.97564" lon="-2.03436">
        <ele>1.9</ele>
        <time>2020-06-04T14:29:49Z</time>
      </trkpt>
      <trkpt lat="46.97569" lon="-2.03439">
        <ele>1.9</ele>
        <time>2020-06-04T14:29:50Z</time>
      </trkpt>
      <trkpt lat="46.97574" lon="-2.03442">
        <ele>1.9</ele>
        <time>2020-06-04T14:29:51Z</time>
      </trkpt>
      <trkpt lat="46.97579" lon="-2.03445">
        <ele>1.9</ele>
        <time>2020-06-04T14:29:52Z</time>
      </trkpt>
      <trkpt lat="46.97583" lon="-2.03449">
        <ele>1.9</ele>
        <time>2020-06-04T14:29:53Z</time>
      </trkpt>
      <trkpt lat="46.97586" lon="-2.03452">
        <ele>1.9</ele>
        <time>2020-06-04T14:29:54Z</time>
      </trkpt>
      <trkpt lat="46.9759" lon="-2.03456">
        <ele>1.9</ele>
        <time>2020-06-04T14:29:55Z</time>
      </trkpt>
      <trkpt lat="46.97594" lon="-2.03459">
        <ele>1.9</ele>
        <time>2020-06-04T14:29:56Z</time>
      </trkpt>
      <trkpt lat="46.97598" lon="-2.0346">
        <ele>1.9</ele>
        <time>2020-06-04T14:29:57Z</time>
      </trkpt>
      <trkpt lat="46.97602" lon="-2.03463">
        <ele>1.9</ele>
        <time>2020-06-04T14:29:58Z</time>
      </trkpt>
      <trkpt lat="46.97603" lon="-2.03464">
        <ele>1.9</ele>
        <time>2020-06-04T14:29:59Z</time>
      </trkpt>
      <trkpt lat="46.97607" lon="-2.03466">
        <ele>1.9</ele>
        <time>2020-06-04T14:30:00Z</time>
      </trkpt>
      <trkpt lat="46.97611" lon="-2.03469">
        <ele>1.9</ele>
        <time>2020-06-04T14:30:01Z</time>
      </trkpt>
      <trkpt lat="46.97615" lon="-2.03471">
        <ele>1.9</ele>
        <time>2020-06-04T14:30:02Z</time>
      </trkpt>
      <trkpt lat="46.9762" lon="-2.03474">
        <ele>1.9</ele>
        <time>2020-06-04T14:30:03Z</time>
      </trkpt>
      <trkpt lat="46.97624" lon="-2.03477">
        <ele>2</ele>
        <time>2020-06-04T14:30:04Z</time>
      </trkpt>
      <trkpt lat="46.97628" lon="-2.03479">
        <ele>2</ele>
        <time>2020-06-04T14:30:05Z</time>
      </trkpt>
      <trkpt lat="46.97632" lon="-2.03481">
        <ele>2</ele>
        <time>2020-06-04T14:30:06Z</time>
      </trkpt>
      <trkpt lat="46.97637" lon="-2.03482">
        <ele>2.1</ele>
        <time>2020-06-04T14:30:07Z</time>
      </trkpt>
      <trkpt lat="46.97642" lon="-2.03484">
        <ele>2.1</ele>
        <time>2020-06-04T14:30:08Z</time>
      </trkpt>
      <trkpt lat="46.97646" lon="-2.03486">
        <ele>2.1</ele>
        <time>2020-06-04T14:30:09Z</time>
      </trkpt>
      <trkpt lat="46.97651" lon="-2.03487">
        <ele>2.2</ele>
        <time>2020-06-04T14:30:10Z</time>
      </trkpt>
      <trkpt lat="46.97656" lon="-2.03488">
        <ele>2.2</ele>
        <time>2020-06-04T14:30:11Z</time>
      </trkpt>
      <trkpt lat="46.9766" lon="-2.03489">
        <ele>2.2</ele>
        <time>2020-06-04T14:30:12Z</time>
      </trkpt>
      <trkpt lat="46.97665" lon="-2.0349">
        <ele>2.2</ele>
        <time>2020-06-04T14:30:13Z</time>
      </trkpt>
      <trkpt lat="46.97669" lon="-2.03491">
        <ele>2.2</ele>
        <time>2020-06-04T14:30:14Z</time>
      </trkpt>
      <trkpt lat="46.97674" lon="-2.03491">
        <ele>2.2</ele>
        <time>2020-06-04T14:30:15Z</time>
      </trkpt>
      <trkpt lat="46.97679" lon="-2.03491">
        <ele>2.2</ele>
        <time>2020-06-04T14:30:16Z</time>
      </trkpt>
      <trkpt lat="46.97683" lon="-2.0349">
        <ele>2.2</ele>
        <time>2020-06-04T14:30:17Z</time>
      </trkpt>
      <trkpt lat="46.97689" lon="-2.0349">
        <ele>2.2</ele>
        <time>2020-06-04T14:30:18Z</time>
      </trkpt>
      <trkpt lat="46.97695" lon="-2.0349">
        <ele>2.2</ele>
        <time>2020-06-04T14:30:19Z</time>
      </trkpt>
      <trkpt lat="46.977" lon="-2.0349">
        <ele>2.1</ele>
        <time>2020-06-04T14:30:20Z</time>
      </trkpt>
      <trkpt lat="46.97705" lon="-2.0349">
        <ele>2.1</ele>
        <time>2020-06-04T14:30:21Z</time>
      </trkpt>
      <trkpt lat="46.97709" lon="-2.0349">
        <ele>2.1</ele>
        <time>2020-06-04T14:30:22Z</time>
      </trkpt>
      <trkpt lat="46.97712" lon="-2.0349">
        <ele>2.1</ele>
        <time>2020-06-04T14:30:23Z</time>
      </trkpt>
      <trkpt lat="46.97717" lon="-2.0349">
        <ele>2.1</ele>
        <time>2020-06-04T14:30:24Z</time>
      </trkpt>
      <trkpt lat="46.97723" lon="-2.03489">
        <ele>2.1</ele>
        <time>2020-06-04T14:30:25Z</time>
      </trkpt>
      <trkpt lat="46.97728" lon="-2.03489">
        <ele>2.1</ele>
        <time>2020-06-04T14:30:26Z</time>
      </trkpt>
      <trkpt lat="46.97731" lon="-2.03488">
        <ele>2.1</ele>
        <time>2020-06-04T14:30:27Z</time>
      </trkpt>
      <trkpt lat="46.97735" lon="-2.03488">
        <ele>2.1</ele>
        <time>2020-06-04T14:30:28Z</time>
      </trkpt>
      <trkpt lat="46.97739" lon="-2.03488">
        <ele>2.1</ele>
        <time>2020-06-04T14:30:29Z</time>
      </trkpt>
      <trkpt lat="46.97743" lon="-2.03487">
        <ele>2.2</ele>
        <time>2020-06-04T14:30:30Z</time>
      </trkpt>
      <trkpt lat="46.97748" lon="-2.03486">
        <ele>2.2</ele>
        <time>2020-06-04T14:30:31Z</time>
      </trkpt>
      <trkpt lat="46.97754" lon="-2.03485">
        <ele>2.2</ele>
        <time>2020-06-04T14:30:32Z</time>
      </trkpt>
      <trkpt lat="46.9776" lon="-2.03485">
        <ele>2.3</ele>
        <time>2020-06-04T14:30:33Z</time>
      </trkpt>
      <trkpt lat="46.97765" lon="-2.03486">
        <ele>2.3</ele>
        <time>2020-06-04T14:30:34Z</time>
      </trkpt>
      <trkpt lat="46.97769" lon="-2.03486">
        <ele>2.3</ele>
        <time>2020-06-04T14:30:35Z</time>
      </trkpt>
      <trkpt lat="46.97775" lon="-2.03486">
        <ele>2.3</ele>
        <time>2020-06-04T14:30:36Z</time>
      </trkpt>
      <trkpt lat="46.97779" lon="-2.03486">
        <ele>2.3</ele>
        <time>2020-06-04T14:30:37Z</time>
      </trkpt>
      <trkpt lat="46.97783" lon="-2.03485">
        <ele>2.3</ele>
        <time>2020-06-04T14:30:38Z</time>
      </trkpt>
      <trkpt lat="46.97789" lon="-2.03484">
        <ele>2.3</ele>
        <time>2020-06-04T14:30:39Z</time>
      </trkpt>
      <trkpt lat="46.97794" lon="-2.03483">
        <ele>2.2</ele>
        <time>2020-06-04T14:30:40Z</time>
      </trkpt>
      <trkpt lat="46.978" lon="-2.03481">
        <ele>2.2</ele>
        <time>2020-06-04T14:30:41Z</time>
      </trkpt>
      <trkpt lat="46.97805" lon="-2.03479">
        <ele>2.3</ele>
        <time>2020-06-04T14:30:42Z</time>
      </trkpt>
      <trkpt lat="46.97809" lon="-2.03476">
        <ele>2.3</ele>
        <time>2020-06-04T14:30:43Z</time>
      </trkpt>
      <trkpt lat="46.97813" lon="-2.03474">
        <ele>2.3</ele>
        <time>2020-06-04T14:30:44Z</time>
      </trkpt>
      <trkpt lat="46.97818" lon="-2.0347">
        <ele>2.3</ele>
        <time>2020-06-04T14:30:45Z</time>
      </trkpt>
      <trkpt lat="46.97822" lon="-2.03467">
        <ele>2.3</ele>
        <time>2020-06-04T14:30:46Z</time>
      </trkpt>
      <trkpt lat="46.97826" lon="-2.03464">
        <ele>2.3</ele>
        <time>2020-06-04T14:30:47Z</time>
      </trkpt>
      <trkpt lat="46.97829" lon="-2.03461">
        <ele>2.3</ele>
        <time>2020-06-04T14:30:48Z</time>
      </trkpt>
      <trkpt lat="46.97833" lon="-2.03458">
        <ele>2.3</ele>
        <time>2020-06-04T14:30:49Z</time>
      </trkpt>
      <trkpt lat="46.97837" lon="-2.03456">
        <ele>2.3</ele>
        <time>2020-06-04T14:30:50Z</time>
      </trkpt>
      <trkpt lat="46.9784" lon="-2.03453">
        <ele>2.4</ele>
        <time>2020-06-04T14:30:51Z</time>
      </trkpt>
      <trkpt lat="46.97844" lon="-2.03451">
        <ele>2.4</ele>
        <time>2020-06-04T14:30:52Z</time>
      </trkpt>
      <trkpt lat="46.97849" lon="-2.03448">
        <ele>2.4</ele>
        <time>2020-06-04T14:30:53Z</time>
      </trkpt>
      <trkpt lat="46.97853" lon="-2.03446">
        <ele>2.4</ele>
        <time>2020-06-04T14:30:54Z</time>
      </trkpt>
      <trkpt lat="46.97857" lon="-2.03444">
        <ele>2.4</ele>
        <time>2020-06-04T14:30:55Z</time>
      </trkpt>
      <trkpt lat="46.97861" lon="-2.03441">
        <ele>2.3</ele>
        <time>2020-06-04T14:30:56Z</time>
      </trkpt>
      <trkpt lat="46.97865" lon="-2.03439">
        <ele>2.3</ele>
        <time>2020-06-04T14:30:57Z</time>
      </trkpt>
      <trkpt lat="46.97868" lon="-2.03438">
        <ele>2.3</ele>
        <time>2020-06-04T14:30:58Z</time>
      </trkpt>
      <trkpt lat="46.97872" lon="-2.03435">
        <ele>2.3</ele>
        <time>2020-06-04T14:30:59Z</time>
      </trkpt>
      <trkpt lat="46.97878" lon="-2.03432">
        <ele>2.2</ele>
        <time>2020-06-04T14:31:00Z</time>
      </trkpt>
      <trkpt lat="46.97883" lon="-2.03429">
        <ele>2.2</ele>
        <time>2020-06-04T14:31:01Z</time>
      </trkpt>
      <trkpt lat="46.97888" lon="-2.03426">
        <ele>2.2</ele>
        <time>2020-06-04T14:31:02Z</time>
      </trkpt>
      <trkpt lat="46.97892" lon="-2.03424">
        <ele>2.2</ele>
        <time>2020-06-04T14:31:03Z</time>
      </trkpt>
      <trkpt lat="46.97897" lon="-2.03421">
        <ele>2.1</ele>
        <time>2020-06-04T14:31:04Z</time>
      </trkpt>
      <trkpt lat="46.97901" lon="-2.03419">
        <ele>2.1</ele>
        <time>2020-06-04T14:31:05Z</time>
      </trkpt>
      <trkpt lat="46.97907" lon="-2.03415">
        <ele>2.1</ele>
        <time>2020-06-04T14:31:06Z</time>
      </trkpt>
      <trkpt lat="46.97911" lon="-2.03412">
        <ele>2.1</ele>
        <time>2020-06-04T14:31:07Z</time>
      </trkpt>
      <trkpt lat="46.97915" lon="-2.0341">
        <ele>2.1</ele>
        <time>2020-06-04T14:31:08Z</time>
      </trkpt>
      <trkpt lat="46.97922" lon="-2.03407">
        <ele>2.1</ele>
        <time>2020-06-04T14:31:09Z</time>
      </trkpt>
      <trkpt lat="46.97926" lon="-2.03405">
        <ele>2.1</ele>
        <time>2020-06-04T14:31:10Z</time>
      </trkpt>
      <trkpt lat="46.97931" lon="-2.03403">
        <ele>2.1</ele>
        <time>2020-06-04T14:31:11Z</time>
      </trkpt>
      <trkpt lat="46.97936" lon="-2.03401">
        <ele>2.1</ele>
        <time>2020-06-04T14:31:12Z</time>
      </trkpt>
      <trkpt lat="46.97941" lon="-2.03399">
        <ele>2.1</ele>
        <time>2020-06-04T14:31:13Z</time>
      </trkpt>
      <trkpt lat="46.97945" lon="-2.03396">
        <ele>2.1</ele>
        <time>2020-06-04T14:31:14Z</time>
      </trkpt>
      <trkpt lat="46.9795" lon="-2.03392">
        <ele>2.1</ele>
        <time>2020-06-04T14:31:15Z</time>
      </trkpt>
      <trkpt lat="46.97953" lon="-2.03387">
        <ele>2.1</ele>
        <time>2020-06-04T14:31:16Z</time>
      </trkpt>
      <trkpt lat="46.97956" lon="-2.03379">
        <ele>2.2</ele>
        <time>2020-06-04T14:31:17Z</time>
      </trkpt>
      <trkpt lat="46.97957" lon="-2.03372">
        <ele>2.2</ele>
        <time>2020-06-04T14:31:18Z</time>
      </trkpt>
      <trkpt lat="46.97958" lon="-2.03365">
        <ele>2.2</ele>
        <time>2020-06-04T14:31:19Z</time>
      </trkpt>
      <trkpt lat="46.97959" lon="-2.03358">
        <ele>2.2</ele>
        <time>2020-06-04T14:31:20Z</time>
      </trkpt>
      <trkpt lat="46.9796" lon="-2.03351">
        <ele>2.2</ele>
        <time>2020-06-04T14:31:21Z</time>
      </trkpt>
      <trkpt lat="46.97961" lon="-2.03344">
        <ele>2.3</ele>
        <time>2020-06-04T14:31:22Z</time>
      </trkpt>
      <trkpt lat="46.97961" lon="-2.03337">
        <ele>2.3</ele>
        <time>2020-06-04T14:31:23Z</time>
      </trkpt>
      <trkpt lat="46.97961" lon="-2.03331">
        <ele>2.3</ele>
        <time>2020-06-04T14:31:24Z</time>
      </trkpt>
      <trkpt lat="46.97961" lon="-2.03323">
        <ele>2.3</ele>
        <time>2020-06-04T14:31:25Z</time>
      </trkpt>
      <trkpt lat="46.97962" lon="-2.03316">
        <ele>2.3</ele>
        <time>2020-06-04T14:31:26Z</time>
      </trkpt>
      <trkpt lat="46.97961" lon="-2.03309">
        <ele>2.4</ele>
        <time>2020-06-04T14:31:27Z</time>
      </trkpt>
      <trkpt lat="46.97962" lon="-2.03302">
        <ele>2.4</ele>
        <time>2020-06-04T14:31:28Z</time>
      </trkpt>
      <trkpt lat="46.97963" lon="-2.03295">
        <ele>2.4</ele>
        <time>2020-06-04T14:31:29Z</time>
      </trkpt>
      <trkpt lat="46.97964" lon="-2.03288">
        <ele>2.4</ele>
        <time>2020-06-04T14:31:30Z</time>
      </trkpt>
      <trkpt lat="46.97965" lon="-2.03281">
        <ele>2.4</ele>
        <time>2020-06-04T14:31:31Z</time>
      </trkpt>
      <trkpt lat="46.97966" lon="-2.03273">
        <ele>2.4</ele>
        <time>2020-06-04T14:31:32Z</time>
      </trkpt>
      <trkpt lat="46.97968" lon="-2.03265">
        <ele>2.5</ele>
        <time>2020-06-04T14:31:33Z</time>
      </trkpt>
      <trkpt lat="46.97971" lon="-2.03259">
        <ele>2.5</ele>
        <time>2020-06-04T14:31:34Z</time>
      </trkpt>
      <trkpt lat="46.97974" lon="-2.03252">
        <ele>2.5</ele>
        <time>2020-06-04T14:31:35Z</time>
      </trkpt>
      <trkpt lat="46.97977" lon="-2.03247">
        <ele>2.5</ele>
        <time>2020-06-04T14:31:36Z</time>
      </trkpt>
      <trkpt lat="46.97982" lon="-2.03245">
        <ele>2.5</ele>
        <time>2020-06-04T14:31:37Z</time>
      </trkpt>
      <trkpt lat="46.97987" lon="-2.03243">
        <ele>2.5</ele>
        <time>2020-06-04T14:31:38Z</time>
      </trkpt>
      <trkpt lat="46.97992" lon="-2.03243">
        <ele>2.5</ele>
        <time>2020-06-04T14:31:39Z</time>
      </trkpt>
      <trkpt lat="46.97996" lon="-2.03245">
        <ele>2.5</ele>
        <time>2020-06-04T14:31:40Z</time>
      </trkpt>
      <trkpt lat="46.98001" lon="-2.03245">
        <ele>2.5</ele>
        <time>2020-06-04T14:31:41Z</time>
      </trkpt>
      <trkpt lat="46.98007" lon="-2.03249">
        <ele>2.5</ele>
        <time>2020-06-04T14:31:42Z</time>
      </trkpt>
      <trkpt lat="46.98011" lon="-2.03251">
        <ele>2.5</ele>
        <time>2020-06-04T14:31:43Z</time>
      </trkpt>
      <trkpt lat="46.98015" lon="-2.03252">
        <ele>2.5</ele>
        <time>2020-06-04T14:31:44Z</time>
      </trkpt>
      <trkpt lat="46.9802" lon="-2.03253">
        <ele>2.5</ele>
        <time>2020-06-04T14:31:45Z</time>
      </trkpt>
      <trkpt lat="46.98024" lon="-2.03253">
        <ele>2.5</ele>
        <time>2020-06-04T14:31:46Z</time>
      </trkpt>
      <trkpt lat="46.98029" lon="-2.03255">
        <ele>2.5</ele>
        <time>2020-06-04T14:31:47Z</time>
      </trkpt>
      <trkpt lat="46.98034" lon="-2.03255">
        <ele>2.5</ele>
        <time>2020-06-04T14:31:48Z</time>
      </trkpt>
      <trkpt lat="46.9804" lon="-2.03256">
        <ele>2.5</ele>
        <time>2020-06-04T14:31:49Z</time>
      </trkpt>
      <trkpt lat="46.98044" lon="-2.03257">
        <ele>2.5</ele>
        <time>2020-06-04T14:31:50Z</time>
      </trkpt>
      <trkpt lat="46.98049" lon="-2.03258">
        <ele>2.5</ele>
        <time>2020-06-04T14:31:51Z</time>
      </trkpt>
      <trkpt lat="46.98054" lon="-2.03258">
        <ele>2.5</ele>
        <time>2020-06-04T14:31:52Z</time>
      </trkpt>
      <trkpt lat="46.98059" lon="-2.03258">
        <ele>2.5</ele>
        <time>2020-06-04T14:31:53Z</time>
      </trkpt>
      <trkpt lat="46.98064" lon="-2.03258">
        <ele>2.5</ele>
        <time>2020-06-04T14:31:54Z</time>
      </trkpt>
      <trkpt lat="46.98068" lon="-2.03257">
        <ele>2.5</ele>
        <time>2020-06-04T14:31:55Z</time>
      </trkpt>
      <trkpt lat="46.98074" lon="-2.03256">
        <ele>2.5</ele>
        <time>2020-06-04T14:31:56Z</time>
      </trkpt>
      <trkpt lat="46.98078" lon="-2.03254">
        <ele>2.5</ele>
        <time>2020-06-04T14:31:57Z</time>
      </trkpt>
      <trkpt lat="46.98081" lon="-2.03251">
        <ele>2.5</ele>
        <time>2020-06-04T14:31:58Z</time>
      </trkpt>
      <trkpt lat="46.98084" lon="-2.03248">
        <ele>2.4</ele>
        <time>2020-06-04T14:31:59Z</time>
      </trkpt>
      <trkpt lat="46.98087" lon="-2.03245">
        <ele>2.4</ele>
        <time>2020-06-04T14:32:00Z</time>
      </trkpt>
      <trkpt lat="46.9809" lon="-2.03242">
        <ele>2.4</ele>
        <time>2020-06-04T14:32:01Z</time>
      </trkpt>
      <trkpt lat="46.98093" lon="-2.03239">
        <ele>2.4</ele>
        <time>2020-06-04T14:32:02Z</time>
      </trkpt>
      <trkpt lat="46.98096" lon="-2.03237">
        <ele>2.4</ele>
        <time>2020-06-04T14:32:03Z</time>
      </trkpt>
      <trkpt lat="46.981" lon="-2.03234">
        <ele>2.4</ele>
        <time>2020-06-04T14:32:04Z</time>
      </trkpt>
      <trkpt lat="46.98103" lon="-2.03233">
        <ele>2.4</ele>
        <time>2020-06-04T14:32:05Z</time>
      </trkpt>
      <trkpt lat="46.98107" lon="-2.03232">
        <ele>2.4</ele>
        <time>2020-06-04T14:32:06Z</time>
      </trkpt>
      <trkpt lat="46.98111" lon="-2.03231">
        <ele>2.3</ele>
        <time>2020-06-04T14:32:07Z</time>
      </trkpt>
      <trkpt lat="46.98116" lon="-2.03231">
        <ele>2.3</ele>
        <time>2020-06-04T14:32:08Z</time>
      </trkpt>
      <trkpt lat="46.9812" lon="-2.0323">
        <ele>2.3</ele>
        <time>2020-06-04T14:32:09Z</time>
      </trkpt>
      <trkpt lat="46.98124" lon="-2.03229">
        <ele>2.3</ele>
        <time>2020-06-04T14:32:10Z</time>
      </trkpt>
      <trkpt lat="46.98128" lon="-2.03229">
        <ele>2.3</ele>
        <time>2020-06-04T14:32:11Z</time>
      </trkpt>
      <trkpt lat="46.98132" lon="-2.03229">
        <ele>2.3</ele>
        <time>2020-06-04T14:32:12Z</time>
      </trkpt>
      <trkpt lat="46.98136" lon="-2.03229">
        <ele>2.3</ele>
        <time>2020-06-04T14:32:13Z</time>
      </trkpt>
      <trkpt lat="46.9814" lon="-2.03228">
        <ele>2.2</ele>
        <time>2020-06-04T14:32:14Z</time>
      </trkpt>
      <trkpt lat="46.98143" lon="-2.03226">
        <ele>2.2</ele>
        <time>2020-06-04T14:32:15Z</time>
      </trkpt>
      <trkpt lat="46.98147" lon="-2.03225">
        <ele>2.2</ele>
        <time>2020-06-04T14:32:16Z</time>
      </trkpt>
      <trkpt lat="46.9815" lon="-2.03221">
        <ele>2.2</ele>
        <time>2020-06-04T14:32:17Z</time>
      </trkpt>
      <trkpt lat="46.98154" lon="-2.03218">
        <ele>2.2</ele>
        <time>2020-06-04T14:32:18Z</time>
      </trkpt>
      <trkpt lat="46.98156" lon="-2.03212">
        <ele>2.2</ele>
        <time>2020-06-04T14:32:19Z</time>
      </trkpt>
      <trkpt lat="46.98157" lon="-2.03205">
        <ele>2.2</ele>
        <time>2020-06-04T14:32:20Z</time>
      </trkpt>
      <trkpt lat="46.98158" lon="-2.03199">
        <ele>2.3</ele>
        <time>2020-06-04T14:32:21Z</time>
      </trkpt>
      <trkpt lat="46.98159" lon="-2.03194">
        <ele>2.3</ele>
        <time>2020-06-04T14:32:22Z</time>
      </trkpt>
      <trkpt lat="46.9816" lon="-2.03187">
        <ele>2.3</ele>
        <time>2020-06-04T14:32:23Z</time>
      </trkpt>
      <trkpt lat="46.9816" lon="-2.0318">
        <ele>2.3</ele>
        <time>2020-06-04T14:32:24Z</time>
      </trkpt>
      <trkpt lat="46.9816" lon="-2.03173">
        <ele>2.3</ele>
        <time>2020-06-04T14:32:25Z</time>
      </trkpt>
      <trkpt lat="46.9816" lon="-2.03166">
        <ele>2.3</ele>
        <time>2020-06-04T14:32:26Z</time>
      </trkpt>
      <trkpt lat="46.98161" lon="-2.03159">
        <ele>2.3</ele>
        <time>2020-06-04T14:32:27Z</time>
      </trkpt>
      <trkpt lat="46.98161" lon="-2.0315">
        <ele>2.3</ele>
        <time>2020-06-04T14:32:28Z</time>
      </trkpt>
      <trkpt lat="46.98162" lon="-2.03144">
        <ele>2.3</ele>
        <time>2020-06-04T14:32:29Z</time>
      </trkpt>
      <trkpt lat="46.98162" lon="-2.03137">
        <ele>2.3</ele>
        <time>2020-06-04T14:32:30Z</time>
      </trkpt>
      <trkpt lat="46.98163" lon="-2.03129">
        <ele>2.3</ele>
        <time>2020-06-04T14:32:31Z</time>
      </trkpt>
      <trkpt lat="46.98163" lon="-2.03122">
        <ele>2.3</ele>
        <time>2020-06-04T14:32:32Z</time>
      </trkpt>
      <trkpt lat="46.98163" lon="-2.03115">
        <ele>2.3</ele>
        <time>2020-06-04T14:32:33Z</time>
      </trkpt>
      <trkpt lat="46.98163" lon="-2.03108">
        <ele>2.4</ele>
        <time>2020-06-04T14:32:34Z</time>
      </trkpt>
      <trkpt lat="46.98163" lon="-2.03101">
        <ele>2.4</ele>
        <time>2020-06-04T14:32:35Z</time>
      </trkpt>
      <trkpt lat="46.98164" lon="-2.03095">
        <ele>2.4</ele>
        <time>2020-06-04T14:32:36Z</time>
      </trkpt>
      <trkpt lat="46.98165" lon="-2.03087">
        <ele>2.4</ele>
        <time>2020-06-04T14:32:37Z</time>
      </trkpt>
      <trkpt lat="46.98165" lon="-2.03079">
        <ele>2.4</ele>
        <time>2020-06-04T14:32:38Z</time>
      </trkpt>
      <trkpt lat="46.98169" lon="-2.03073">
        <ele>2.5</ele>
        <time>2020-06-04T14:32:39Z</time>
      </trkpt>
      <trkpt lat="46.98173" lon="-2.0307">
        <ele>2.5</ele>
        <time>2020-06-04T14:32:40Z</time>
      </trkpt>
      <trkpt lat="46.98179" lon="-2.03068">
        <ele>2.5</ele>
        <time>2020-06-04T14:32:41Z</time>
      </trkpt>
      <trkpt lat="46.98184" lon="-2.03066">
        <ele>2.5</ele>
        <time>2020-06-04T14:32:42Z</time>
      </trkpt>
      <trkpt lat="46.98188" lon="-2.03064">
        <ele>2.5</ele>
        <time>2020-06-04T14:32:43Z</time>
      </trkpt>
      <trkpt lat="46.98193" lon="-2.03062">
        <ele>2.5</ele>
        <time>2020-06-04T14:32:44Z</time>
      </trkpt>
      <trkpt lat="46.98197" lon="-2.03059">
        <ele>2.6</ele>
        <time>2020-06-04T14:32:45Z</time>
      </trkpt>
      <trkpt lat="46.98202" lon="-2.03058">
        <ele>2.6</ele>
        <time>2020-06-04T14:32:46Z</time>
      </trkpt>
      <trkpt lat="46.98206" lon="-2.03055">
        <ele>2.5</ele>
        <time>2020-06-04T14:32:47Z</time>
      </trkpt>
      <trkpt lat="46.9821" lon="-2.03054">
        <ele>2.5</ele>
        <time>2020-06-04T14:32:48Z</time>
      </trkpt>
      <trkpt lat="46.98214" lon="-2.03052">
        <ele>2.5</ele>
        <time>2020-06-04T14:32:49Z</time>
      </trkpt>
      <trkpt lat="46.98219" lon="-2.03051">
        <ele>2.4</ele>
        <time>2020-06-04T14:32:50Z</time>
      </trkpt>
      <trkpt lat="46.98223" lon="-2.03049">
        <ele>2.4</ele>
        <time>2020-06-04T14:32:51Z</time>
      </trkpt>
      <trkpt lat="46.98228" lon="-2.03049">
        <ele>2.3</ele>
        <time>2020-06-04T14:32:52Z</time>
      </trkpt>
      <trkpt lat="46.98232" lon="-2.03049">
        <ele>2.2</ele>
        <time>2020-06-04T14:32:53Z</time>
      </trkpt>
      <trkpt lat="46.98236" lon="-2.0305">
        <ele>2.2</ele>
        <time>2020-06-04T14:32:54Z</time>
      </trkpt>
      <trkpt lat="46.9824" lon="-2.03053">
        <ele>2.1</ele>
        <time>2020-06-04T14:32:55Z</time>
      </trkpt>
      <trkpt lat="46.98245" lon="-2.03057">
        <ele>2.1</ele>
        <time>2020-06-04T14:32:56Z</time>
      </trkpt>
      <trkpt lat="46.98249" lon="-2.03064">
        <ele>2.1</ele>
        <time>2020-06-04T14:32:57Z</time>
      </trkpt>
      <trkpt lat="46.9825" lon="-2.03069">
        <ele>2.1</ele>
        <time>2020-06-04T14:32:58Z</time>
      </trkpt>
      <trkpt lat="46.98251" lon="-2.03075">
        <ele>2.1</ele>
        <time>2020-06-04T14:32:59Z</time>
      </trkpt>
      <trkpt lat="46.98251" lon="-2.03082">
        <ele>2.2</ele>
        <time>2020-06-04T14:33:00Z</time>
      </trkpt>
      <trkpt lat="46.98253" lon="-2.03089">
        <ele>2.3</ele>
        <time>2020-06-04T14:33:01Z</time>
      </trkpt>
      <trkpt lat="46.98255" lon="-2.03095">
        <ele>2.3</ele>
        <time>2020-06-04T14:33:02Z</time>
      </trkpt>
      <trkpt lat="46.98257" lon="-2.03101">
        <ele>2.4</ele>
        <time>2020-06-04T14:33:03Z</time>
      </trkpt>
      <trkpt lat="46.9826" lon="-2.03106">
        <ele>2.4</ele>
        <time>2020-06-04T14:33:04Z</time>
      </trkpt>
      <trkpt lat="46.98264" lon="-2.03108">
        <ele>2.4</ele>
        <time>2020-06-04T14:33:05Z</time>
      </trkpt>
      <trkpt lat="46.98268" lon="-2.03109">
        <ele>2.4</ele>
        <time>2020-06-04T14:33:06Z</time>
      </trkpt>
      <trkpt lat="46.98272" lon="-2.03111">
        <ele>2.4</ele>
        <time>2020-06-04T14:33:07Z</time>
      </trkpt>
      <trkpt lat="46.98277" lon="-2.03112">
        <ele>2.4</ele>
        <time>2020-06-04T14:33:08Z</time>
      </trkpt>
      <trkpt lat="46.98282" lon="-2.03111">
        <ele>2.4</ele>
        <time>2020-06-04T14:33:09Z</time>
      </trkpt>
      <trkpt lat="46.98287" lon="-2.0311">
        <ele>2.4</ele>
        <time>2020-06-04T14:33:10Z</time>
      </trkpt>
      <trkpt lat="46.98291" lon="-2.0311">
        <ele>2.4</ele>
        <time>2020-06-04T14:33:11Z</time>
      </trkpt>
      <trkpt lat="46.98296" lon="-2.03111">
        <ele>2.5</ele>
        <time>2020-06-04T14:33:12Z</time>
      </trkpt>
      <trkpt lat="46.98301" lon="-2.03111">
        <ele>2.5</ele>
        <time>2020-06-04T14:33:13Z</time>
      </trkpt>
      <trkpt lat="46.98306" lon="-2.0311">
        <ele>2.5</ele>
        <time>2020-06-04T14:33:14Z</time>
      </trkpt>
      <trkpt lat="46.9831" lon="-2.0311">
        <ele>2.5</ele>
        <time>2020-06-04T14:33:15Z</time>
      </trkpt>
      <trkpt lat="46.98314" lon="-2.03111">
        <ele>2.5</ele>
        <time>2020-06-04T14:33:16Z</time>
      </trkpt>
      <trkpt lat="46.98318" lon="-2.03111">
        <ele>2.5</ele>
        <time>2020-06-04T14:33:17Z</time>
      </trkpt>
      <trkpt lat="46.98322" lon="-2.03111">
        <ele>2.6</ele>
        <time>2020-06-04T14:33:18Z</time>
      </trkpt>
      <trkpt lat="46.98327" lon="-2.03111">
        <ele>2.6</ele>
        <time>2020-06-04T14:33:19Z</time>
      </trkpt>
      <trkpt lat="46.98332" lon="-2.0311">
        <ele>2.6</ele>
        <time>2020-06-04T14:33:20Z</time>
      </trkpt>
      <trkpt lat="46.98337" lon="-2.0311">
        <ele>2.5</ele>
        <time>2020-06-04T14:33:21Z</time>
      </trkpt>
      <trkpt lat="46.9834" lon="-2.03111">
        <ele>2.5</ele>
        <time>2020-06-04T14:33:22Z</time>
      </trkpt>
      <trkpt lat="46.98344" lon="-2.03111">
        <ele>2.5</ele>
        <time>2020-06-04T14:33:23Z</time>
      </trkpt>
      <trkpt lat="46.98348" lon="-2.03111">
        <ele>2.5</ele>
        <time>2020-06-04T14:33:24Z</time>
      </trkpt>
      <trkpt lat="46.98352" lon="-2.03111">
        <ele>2.5</ele>
        <time>2020-06-04T14:33:25Z</time>
      </trkpt>
      <trkpt lat="46.98357" lon="-2.03112">
        <ele>2.5</ele>
        <time>2020-06-04T14:33:26Z</time>
      </trkpt>
      <trkpt lat="46.98361" lon="-2.03112">
        <ele>2.5</ele>
        <time>2020-06-04T14:33:27Z</time>
      </trkpt>
      <trkpt lat="46.98364" lon="-2.03112">
        <ele>2.4</ele>
        <time>2020-06-04T14:33:28Z</time>
      </trkpt>
      <trkpt lat="46.98369" lon="-2.03111">
        <ele>2.4</ele>
        <time>2020-06-04T14:33:29Z</time>
      </trkpt>
      <trkpt lat="46.98373" lon="-2.03112">
        <ele>2.4</ele>
        <time>2020-06-04T14:33:30Z</time>
      </trkpt>
      <trkpt lat="46.98377" lon="-2.03114">
        <ele>2.4</ele>
        <time>2020-06-04T14:33:31Z</time>
      </trkpt>
      <trkpt lat="46.98382" lon="-2.03116">
        <ele>2.3</ele>
        <time>2020-06-04T14:33:32Z</time>
      </trkpt>
      <trkpt lat="46.98385" lon="-2.03117">
        <ele>2.3</ele>
        <time>2020-06-04T14:33:33Z</time>
      </trkpt>
      <trkpt lat="46.98389" lon="-2.03118">
        <ele>2.3</ele>
        <time>2020-06-04T14:33:34Z</time>
      </trkpt>
      <trkpt lat="46.98393" lon="-2.03121">
        <ele>2.3</ele>
        <time>2020-06-04T14:33:35Z</time>
      </trkpt>
      <trkpt lat="46.98397" lon="-2.03123">
        <ele>2.3</ele>
        <time>2020-06-04T14:33:36Z</time>
      </trkpt>
      <trkpt lat="46.98402" lon="-2.03125">
        <ele>2.3</ele>
        <time>2020-06-04T14:33:37Z</time>
      </trkpt>
      <trkpt lat="46.98406" lon="-2.03127">
        <ele>2.3</ele>
        <time>2020-06-04T14:33:38Z</time>
      </trkpt>
      <trkpt lat="46.98411" lon="-2.03129">
        <ele>2.3</ele>
        <time>2020-06-04T14:33:39Z</time>
      </trkpt>
      <trkpt lat="46.98415" lon="-2.03131">
        <ele>2.3</ele>
        <time>2020-06-04T14:33:40Z</time>
      </trkpt>
      <trkpt lat="46.98419" lon="-2.03132">
        <ele>2.3</ele>
        <time>2020-06-04T14:33:41Z</time>
      </trkpt>
      <trkpt lat="46.98424" lon="-2.03133">
        <ele>2.3</ele>
        <time>2020-06-04T14:33:42Z</time>
      </trkpt>
      <trkpt lat="46.98429" lon="-2.03134">
        <ele>2.3</ele>
        <time>2020-06-04T14:33:43Z</time>
      </trkpt>
      <trkpt lat="46.98433" lon="-2.03136">
        <ele>2.3</ele>
        <time>2020-06-04T14:33:44Z</time>
      </trkpt>
      <trkpt lat="46.98437" lon="-2.03138">
        <ele>2.3</ele>
        <time>2020-06-04T14:33:45Z</time>
      </trkpt>
      <trkpt lat="46.98442" lon="-2.03139">
        <ele>2.3</ele>
        <time>2020-06-04T14:33:46Z</time>
      </trkpt>
      <trkpt lat="46.98446" lon="-2.0314">
        <ele>2.3</ele>
        <time>2020-06-04T14:33:47Z</time>
      </trkpt>
      <trkpt lat="46.98451" lon="-2.03141">
        <ele>2.3</ele>
        <time>2020-06-04T14:33:48Z</time>
      </trkpt>
      <trkpt lat="46.98455" lon="-2.03143">
        <ele>2.3</ele>
        <time>2020-06-04T14:33:49Z</time>
      </trkpt>
      <trkpt lat="46.98459" lon="-2.03144">
        <ele>2.3</ele>
        <time>2020-06-04T14:33:50Z</time>
      </trkpt>
      <trkpt lat="46.98463" lon="-2.03145">
        <ele>2.3</ele>
        <time>2020-06-04T14:33:51Z</time>
      </trkpt>
      <trkpt lat="46.98468" lon="-2.03147">
        <ele>2.3</ele>
        <time>2020-06-04T14:33:52Z</time>
      </trkpt>
      <trkpt lat="46.98472" lon="-2.03148">
        <ele>2.3</ele>
        <time>2020-06-04T14:33:53Z</time>
      </trkpt>
      <trkpt lat="46.98477" lon="-2.03149">
        <ele>2.4</ele>
        <time>2020-06-04T14:33:54Z</time>
      </trkpt>
      <trkpt lat="46.98481" lon="-2.03149">
        <ele>2.4</ele>
        <time>2020-06-04T14:33:55Z</time>
      </trkpt>
      <trkpt lat="46.98486" lon="-2.03147">
        <ele>2.4</ele>
        <time>2020-06-04T14:33:56Z</time>
      </trkpt>
      <trkpt lat="46.9849" lon="-2.03142">
        <ele>2.4</ele>
        <time>2020-06-04T14:33:57Z</time>
      </trkpt>
      <trkpt lat="46.98494" lon="-2.03136">
        <ele>2.4</ele>
        <time>2020-06-04T14:33:58Z</time>
      </trkpt>
      <trkpt lat="46.98497" lon="-2.03131">
        <ele>2.4</ele>
        <time>2020-06-04T14:33:59Z</time>
      </trkpt>
      <trkpt lat="46.985" lon="-2.03125">
        <ele>2.5</ele>
        <time>2020-06-04T14:34:00Z</time>
      </trkpt>
      <trkpt lat="46.98502" lon="-2.03119">
        <ele>2.5</ele>
        <time>2020-06-04T14:34:01Z</time>
      </trkpt>
      <trkpt lat="46.98504" lon="-2.03113">
        <ele>2.5</ele>
        <time>2020-06-04T14:34:02Z</time>
      </trkpt>
      <trkpt lat="46.98506" lon="-2.03106">
        <ele>2.5</ele>
        <time>2020-06-04T14:34:03Z</time>
      </trkpt>
      <trkpt lat="46.98508" lon="-2.03099">
        <ele>2.5</ele>
        <time>2020-06-04T14:34:04Z</time>
      </trkpt>
      <trkpt lat="46.98509" lon="-2.03092">
        <ele>2.6</ele>
        <time>2020-06-04T14:34:05Z</time>
      </trkpt>
      <trkpt lat="46.98511" lon="-2.03085">
        <ele>2.6</ele>
        <time>2020-06-04T14:34:06Z</time>
      </trkpt>
      <trkpt lat="46.98512" lon="-2.03078">
        <ele>2.6</ele>
        <time>2020-06-04T14:34:07Z</time>
      </trkpt>
      <trkpt lat="46.98513" lon="-2.03071">
        <ele>2.6</ele>
        <time>2020-06-04T14:34:08Z</time>
      </trkpt>
      <trkpt lat="46.98513" lon="-2.03065">
        <ele>2.6</ele>
        <time>2020-06-04T14:34:09Z</time>
      </trkpt>
      <trkpt lat="46.98514" lon="-2.03059">
        <ele>2.6</ele>
        <time>2020-06-04T14:34:10Z</time>
      </trkpt>
      <trkpt lat="46.98516" lon="-2.03054">
        <ele>2.5</ele>
        <time>2020-06-04T14:34:11Z</time>
      </trkpt>
      <trkpt lat="46.98519" lon="-2.03049">
        <ele>2.5</ele>
        <time>2020-06-04T14:34:12Z</time>
      </trkpt>
      <trkpt lat="46.98521" lon="-2.03043">
        <ele>2.5</ele>
        <time>2020-06-04T14:34:13Z</time>
      </trkpt>
      <trkpt lat="46.98524" lon="-2.03038">
        <ele>2.5</ele>
        <time>2020-06-04T14:34:14Z</time>
      </trkpt>
      <trkpt lat="46.98526" lon="-2.03032">
        <ele>2.4</ele>
        <time>2020-06-04T14:34:15Z</time>
      </trkpt>
      <trkpt lat="46.98529" lon="-2.03026">
        <ele>2.4</ele>
        <time>2020-06-04T14:34:16Z</time>
      </trkpt>
      <trkpt lat="46.98531" lon="-2.03021">
        <ele>2.4</ele>
        <time>2020-06-04T14:34:17Z</time>
      </trkpt>
      <trkpt lat="46.98533" lon="-2.03015">
        <ele>2.4</ele>
        <time>2020-06-04T14:34:18Z</time>
      </trkpt>
      <trkpt lat="46.98536" lon="-2.0301">
        <ele>2.4</ele>
        <time>2020-06-04T14:34:19Z</time>
      </trkpt>
      <trkpt lat="46.98539" lon="-2.03005">
        <ele>2.4</ele>
        <time>2020-06-04T14:34:20Z</time>
      </trkpt>
      <trkpt lat="46.98542" lon="-2.02998">
        <ele>2.4</ele>
        <time>2020-06-04T14:34:21Z</time>
      </trkpt>
      <trkpt lat="46.98545" lon="-2.02992">
        <ele>2.4</ele>
        <time>2020-06-04T14:34:22Z</time>
      </trkpt>
      <trkpt lat="46.98548" lon="-2.02986">
        <ele>2.4</ele>
        <time>2020-06-04T14:34:23Z</time>
      </trkpt>
      <trkpt lat="46.98552" lon="-2.0298">
        <ele>2.4</ele>
        <time>2020-06-04T14:34:24Z</time>
      </trkpt>
      <trkpt lat="46.98555" lon="-2.02975">
        <ele>2.4</ele>
        <time>2020-06-04T14:34:25Z</time>
      </trkpt>
      <trkpt lat="46.98558" lon="-2.02969">
        <ele>2.4</ele>
        <time>2020-06-04T14:34:26Z</time>
      </trkpt>
      <trkpt lat="46.98561" lon="-2.02964">
        <ele>2.4</ele>
        <time>2020-06-04T14:34:27Z</time>
      </trkpt>
      <trkpt lat="46.98564" lon="-2.02958">
        <ele>2.3</ele>
        <time>2020-06-04T14:34:28Z</time>
      </trkpt>
      <trkpt lat="46.98567" lon="-2.02952">
        <ele>2.3</ele>
        <time>2020-06-04T14:34:29Z</time>
      </trkpt>
      <trkpt lat="46.9857" lon="-2.02948">
        <ele>2.3</ele>
        <time>2020-06-04T14:34:30Z</time>
      </trkpt>
      <trkpt lat="46.98573" lon="-2.02943">
        <ele>2.2</ele>
        <time>2020-06-04T14:34:31Z</time>
      </trkpt>
      <trkpt lat="46.98577" lon="-2.02937">
        <ele>2.2</ele>
        <time>2020-06-04T14:34:32Z</time>
      </trkpt>
      <trkpt lat="46.98579" lon="-2.02932">
        <ele>2.2</ele>
        <time>2020-06-04T14:34:33Z</time>
      </trkpt>
      <trkpt lat="46.98582" lon="-2.02926">
        <ele>2.1</ele>
        <time>2020-06-04T14:34:34Z</time>
      </trkpt>
      <trkpt lat="46.98584" lon="-2.02922">
        <ele>2.1</ele>
        <time>2020-06-04T14:34:35Z</time>
      </trkpt>
      <trkpt lat="46.98587" lon="-2.02918">
        <ele>2.1</ele>
        <time>2020-06-04T14:34:36Z</time>
      </trkpt>
      <trkpt lat="46.9859" lon="-2.02914">
        <ele>2.1</ele>
        <time>2020-06-04T14:34:37Z</time>
      </trkpt>
      <trkpt lat="46.98592" lon="-2.02911">
        <ele>2.1</ele>
        <time>2020-06-04T14:34:38Z</time>
      </trkpt>
      <trkpt lat="46.98596" lon="-2.0291">
        <ele>2.1</ele>
        <time>2020-06-04T14:34:39Z</time>
      </trkpt>
      <trkpt lat="46.98599" lon="-2.02913">
        <ele>2.1</ele>
        <time>2020-06-04T14:34:40Z</time>
      </trkpt>
      <trkpt lat="46.98603" lon="-2.02915">
        <ele>2.1</ele>
        <time>2020-06-04T14:34:41Z</time>
      </trkpt>
      <trkpt lat="46.98606" lon="-2.02916">
        <ele>2.1</ele>
        <time>2020-06-04T14:34:42Z</time>
      </trkpt>
      <trkpt lat="46.9861" lon="-2.02917">
        <ele>2.1</ele>
        <time>2020-06-04T14:34:43Z</time>
      </trkpt>
      <trkpt lat="46.98614" lon="-2.02918">
        <ele>2.1</ele>
        <time>2020-06-04T14:34:44Z</time>
      </trkpt>
      <trkpt lat="46.98617" lon="-2.0292">
        <ele>2.1</ele>
        <time>2020-06-04T14:34:45Z</time>
      </trkpt>
      <trkpt lat="46.98621" lon="-2.02921">
        <ele>2.1</ele>
        <time>2020-06-04T14:34:46Z</time>
      </trkpt>
      <trkpt lat="46.98625" lon="-2.02923">
        <ele>2.1</ele>
        <time>2020-06-04T14:34:47Z</time>
      </trkpt>
      <trkpt lat="46.98629" lon="-2.02924">
        <ele>2.1</ele>
        <time>2020-06-04T14:34:48Z</time>
      </trkpt>
      <trkpt lat="46.98634" lon="-2.02925">
        <ele>2.1</ele>
        <time>2020-06-04T14:34:49Z</time>
      </trkpt>
      <trkpt lat="46.98637" lon="-2.02927">
        <ele>2.1</ele>
        <time>2020-06-04T14:34:50Z</time>
      </trkpt>
      <trkpt lat="46.98642" lon="-2.02928">
        <ele>2.1</ele>
        <time>2020-06-04T14:34:51Z</time>
      </trkpt>
      <trkpt lat="46.98647" lon="-2.02929">
        <ele>2.1</ele>
        <time>2020-06-04T14:34:52Z</time>
      </trkpt>
      <trkpt lat="46.98651" lon="-2.02931">
        <ele>2.1</ele>
        <time>2020-06-04T14:34:53Z</time>
      </trkpt>
      <trkpt lat="46.98655" lon="-2.02931">
        <ele>2.1</ele>
        <time>2020-06-04T14:34:54Z</time>
      </trkpt>
      <trkpt lat="46.98659" lon="-2.02932">
        <ele>2.1</ele>
        <time>2020-06-04T14:34:55Z</time>
      </trkpt>
      <trkpt lat="46.98663" lon="-2.02933">
        <ele>2.1</ele>
        <time>2020-06-04T14:34:56Z</time>
      </trkpt>
      <trkpt lat="46.98667" lon="-2.02935">
        <ele>2.1</ele>
        <time>2020-06-04T14:34:57Z</time>
      </trkpt>
      <trkpt lat="46.98671" lon="-2.02938">
        <ele>2.1</ele>
        <time>2020-06-04T14:34:58Z</time>
      </trkpt>
      <trkpt lat="46.98675" lon="-2.02941">
        <ele>2.1</ele>
        <time>2020-06-04T14:34:59Z</time>
      </trkpt>
      <trkpt lat="46.98679" lon="-2.02946">
        <ele>2.1</ele>
        <time>2020-06-04T14:35:00Z</time>
      </trkpt>
      <trkpt lat="46.98683" lon="-2.02951">
        <ele>2.1</ele>
        <time>2020-06-04T14:35:01Z</time>
      </trkpt>
      <trkpt lat="46.98687" lon="-2.02957">
        <ele>2.1</ele>
        <time>2020-06-04T14:35:02Z</time>
      </trkpt>
      <trkpt lat="46.9869" lon="-2.02963">
        <ele>2.1</ele>
        <time>2020-06-04T14:35:03Z</time>
      </trkpt>
      <trkpt lat="46.98694" lon="-2.02968">
        <ele>2.1</ele>
        <time>2020-06-04T14:35:04Z</time>
      </trkpt>
      <trkpt lat="46.98696" lon="-2.02974">
        <ele>2.1</ele>
        <time>2020-06-04T14:35:05Z</time>
      </trkpt>
      <trkpt lat="46.98699" lon="-2.02979">
        <ele>2.1</ele>
        <time>2020-06-04T14:35:06Z</time>
      </trkpt>
      <trkpt lat="46.98702" lon="-2.02983">
        <ele>2.1</ele>
        <time>2020-06-04T14:35:07Z</time>
      </trkpt>
      <trkpt lat="46.98704" lon="-2.02988">
        <ele>2.1</ele>
        <time>2020-06-04T14:35:08Z</time>
      </trkpt>
      <trkpt lat="46.98707" lon="-2.02992">
        <ele>2.1</ele>
        <time>2020-06-04T14:35:09Z</time>
      </trkpt>
      <trkpt lat="46.9871" lon="-2.02996">
        <ele>2.1</ele>
        <time>2020-06-04T14:35:10Z</time>
      </trkpt>
      <trkpt lat="46.98713" lon="-2.03001">
        <ele>2.1</ele>
        <time>2020-06-04T14:35:11Z</time>
      </trkpt>
      <trkpt lat="46.98715" lon="-2.03006">
        <ele>2.1</ele>
        <time>2020-06-04T14:35:12Z</time>
      </trkpt>
      <trkpt lat="46.98719" lon="-2.03009">
        <ele>2.1</ele>
        <time>2020-06-04T14:35:13Z</time>
      </trkpt>
      <trkpt lat="46.98722" lon="-2.03013">
        <ele>2.1</ele>
        <time>2020-06-04T14:35:14Z</time>
      </trkpt>
      <trkpt lat="46.98724" lon="-2.03017">
        <ele>2.2</ele>
        <time>2020-06-04T14:35:15Z</time>
      </trkpt>
      <trkpt lat="46.98728" lon="-2.0302">
        <ele>2.2</ele>
        <time>2020-06-04T14:35:16Z</time>
      </trkpt>
      <trkpt lat="46.98731" lon="-2.03025">
        <ele>2.2</ele>
        <time>2020-06-04T14:35:17Z</time>
      </trkpt>
      <trkpt lat="46.98734" lon="-2.0303">
        <ele>2.2</ele>
        <time>2020-06-04T14:35:18Z</time>
      </trkpt>
      <trkpt lat="46.98738" lon="-2.03034">
        <ele>2.2</ele>
        <time>2020-06-04T14:35:19Z</time>
      </trkpt>
      <trkpt lat="46.98741" lon="-2.03039">
        <ele>2.2</ele>
        <time>2020-06-04T14:35:20Z</time>
      </trkpt>
      <trkpt lat="46.98744" lon="-2.03043">
        <ele>2.2</ele>
        <time>2020-06-04T14:35:21Z</time>
      </trkpt>
      <trkpt lat="46.98747" lon="-2.03049">
        <ele>2.2</ele>
        <time>2020-06-04T14:35:22Z</time>
      </trkpt>
      <trkpt lat="46.9875" lon="-2.03055">
        <ele>2.2</ele>
        <time>2020-06-04T14:35:23Z</time>
      </trkpt>
      <trkpt lat="46.98752" lon="-2.0306">
        <ele>2.2</ele>
        <time>2020-06-04T14:35:24Z</time>
      </trkpt>
      <trkpt lat="46.98755" lon="-2.03066">
        <ele>2.2</ele>
        <time>2020-06-04T14:35:25Z</time>
      </trkpt>
      <trkpt lat="46.98757" lon="-2.03072">
        <ele>2.2</ele>
        <time>2020-06-04T14:35:26Z</time>
      </trkpt>
      <trkpt lat="46.9876" lon="-2.03077">
        <ele>2.2</ele>
        <time>2020-06-04T14:35:27Z</time>
      </trkpt>
      <trkpt lat="46.98763" lon="-2.03082">
        <ele>2.2</ele>
        <time>2020-06-04T14:35:28Z</time>
      </trkpt>
      <trkpt lat="46.98766" lon="-2.03086">
        <ele>2.2</ele>
        <time>2020-06-04T14:35:29Z</time>
      </trkpt>
      <trkpt lat="46.98769" lon="-2.03091">
        <ele>2.2</ele>
        <time>2020-06-04T14:35:30Z</time>
      </trkpt>
      <trkpt lat="46.98772" lon="-2.03095">
        <ele>2.2</ele>
        <time>2020-06-04T14:35:31Z</time>
      </trkpt>
      <trkpt lat="46.98776" lon="-2.03099">
        <ele>2.2</ele>
        <time>2020-06-04T14:35:32Z</time>
      </trkpt>
      <trkpt lat="46.98779" lon="-2.03102">
        <ele>2.2</ele>
        <time>2020-06-04T14:35:33Z</time>
      </trkpt>
      <trkpt lat="46.98783" lon="-2.03104">
        <ele>2.2</ele>
        <time>2020-06-04T14:35:34Z</time>
      </trkpt>
      <trkpt lat="46.98787" lon="-2.03106">
        <ele>2.2</ele>
        <time>2020-06-04T14:35:35Z</time>
      </trkpt>
      <trkpt lat="46.98791" lon="-2.03109">
        <ele>2.2</ele>
        <time>2020-06-04T14:35:36Z</time>
      </trkpt>
      <trkpt lat="46.98795" lon="-2.03111">
        <ele>2.2</ele>
        <time>2020-06-04T14:35:37Z</time>
      </trkpt>
      <trkpt lat="46.98797" lon="-2.03114">
        <ele>2.1</ele>
        <time>2020-06-04T14:35:38Z</time>
      </trkpt>
      <trkpt lat="46.98801" lon="-2.03117">
        <ele>2.1</ele>
        <time>2020-06-04T14:35:39Z</time>
      </trkpt>
      <trkpt lat="46.98805" lon="-2.0312">
        <ele>2.1</ele>
        <time>2020-06-04T14:35:40Z</time>
      </trkpt>
      <trkpt lat="46.98808" lon="-2.03123">
        <ele>2.1</ele>
        <time>2020-06-04T14:35:41Z</time>
      </trkpt>
      <trkpt lat="46.98812" lon="-2.03125">
        <ele>2.1</ele>
        <time>2020-06-04T14:35:42Z</time>
      </trkpt>
      <trkpt lat="46.98817" lon="-2.03128">
        <ele>2.2</ele>
        <time>2020-06-04T14:35:43Z</time>
      </trkpt>
      <trkpt lat="46.9882" lon="-2.03131">
        <ele>2.2</ele>
        <time>2020-06-04T14:35:44Z</time>
      </trkpt>
      <trkpt lat="46.98824" lon="-2.03133">
        <ele>2.2</ele>
        <time>2020-06-04T14:35:45Z</time>
      </trkpt>
      <trkpt lat="46.98828" lon="-2.03135">
        <ele>2.2</ele>
        <time>2020-06-04T14:35:46Z</time>
      </trkpt>
      <trkpt lat="46.98831" lon="-2.03139">
        <ele>2.2</ele>
        <time>2020-06-04T14:35:47Z</time>
      </trkpt>
      <trkpt lat="46.98834" lon="-2.03142">
        <ele>2.2</ele>
        <time>2020-06-04T14:35:48Z</time>
      </trkpt>
      <trkpt lat="46.98838" lon="-2.03143">
        <ele>2.2</ele>
        <time>2020-06-04T14:35:49Z</time>
      </trkpt>
      <trkpt lat="46.98841" lon="-2.03144">
        <ele>2.2</ele>
        <time>2020-06-04T14:35:50Z</time>
      </trkpt>
      <trkpt lat="46.98844" lon="-2.03146">
        <ele>2.3</ele>
        <time>2020-06-04T14:35:51Z</time>
      </trkpt>
      <trkpt lat="46.98847" lon="-2.03148">
        <ele>2.3</ele>
        <time>2020-06-04T14:35:52Z</time>
      </trkpt>
      <trkpt lat="46.9885" lon="-2.03149">
        <ele>2.3</ele>
        <time>2020-06-04T14:35:53Z</time>
      </trkpt>
      <trkpt lat="46.98854" lon="-2.0315">
        <ele>2.3</ele>
        <time>2020-06-04T14:35:54Z</time>
      </trkpt>
      <trkpt lat="46.98856" lon="-2.03151">
        <ele>2.3</ele>
        <time>2020-06-04T14:35:55Z</time>
      </trkpt>
      <trkpt lat="46.98859" lon="-2.03152">
        <ele>2.3</ele>
        <time>2020-06-04T14:35:56Z</time>
      </trkpt>
      <trkpt lat="46.98863" lon="-2.03152">
        <ele>2.3</ele>
        <time>2020-06-04T14:35:57Z</time>
      </trkpt>
      <trkpt lat="46.98866" lon="-2.03152">
        <ele>2.4</ele>
        <time>2020-06-04T14:35:58Z</time>
      </trkpt>
      <trkpt lat="46.9887" lon="-2.03152">
        <ele>2.4</ele>
        <time>2020-06-04T14:35:59Z</time>
      </trkpt>
      <trkpt lat="46.98874" lon="-2.03152">
        <ele>2.4</ele>
        <time>2020-06-04T14:36:00Z</time>
      </trkpt>
      <trkpt lat="46.98878" lon="-2.0315">
        <ele>2.4</ele>
        <time>2020-06-04T14:36:01Z</time>
      </trkpt>
      <trkpt lat="46.98882" lon="-2.03149">
        <ele>2.4</ele>
        <time>2020-06-04T14:36:02Z</time>
      </trkpt>
      <trkpt lat="46.98887" lon="-2.03148">
        <ele>2.4</ele>
        <time>2020-06-04T14:36:03Z</time>
      </trkpt>
      <trkpt lat="46.98891" lon="-2.03146">
        <ele>2.4</ele>
        <time>2020-06-04T14:36:04Z</time>
      </trkpt>
      <trkpt lat="46.98895" lon="-2.03143">
        <ele>2.4</ele>
        <time>2020-06-04T14:36:05Z</time>
      </trkpt>
      <trkpt lat="46.98899" lon="-2.03139">
        <ele>2.5</ele>
        <time>2020-06-04T14:36:06Z</time>
      </trkpt>
      <trkpt lat="46.98903" lon="-2.03135">
        <ele>2.5</ele>
        <time>2020-06-04T14:36:07Z</time>
      </trkpt>
      <trkpt lat="46.98905" lon="-2.0313">
        <ele>2.5</ele>
        <time>2020-06-04T14:36:08Z</time>
      </trkpt>
      <trkpt lat="46.98907" lon="-2.03123">
        <ele>2.5</ele>
        <time>2020-06-04T14:36:09Z</time>
      </trkpt>
      <trkpt lat="46.98909" lon="-2.03118">
        <ele>2.5</ele>
        <time>2020-06-04T14:36:10Z</time>
      </trkpt>
      <trkpt lat="46.98912" lon="-2.03114">
        <ele>2.5</ele>
        <time>2020-06-04T14:36:11Z</time>
      </trkpt>
      <trkpt lat="46.98915" lon="-2.03109">
        <ele>2.6</ele>
        <time>2020-06-04T14:36:12Z</time>
      </trkpt>
      <trkpt lat="46.98917" lon="-2.03104">
        <ele>2.6</ele>
        <time>2020-06-04T14:36:13Z</time>
      </trkpt>
      <trkpt lat="46.98919" lon="-2.03098">
        <ele>2.6</ele>
        <time>2020-06-04T14:36:14Z</time>
      </trkpt>
      <trkpt lat="46.98922" lon="-2.03092">
        <ele>2.6</ele>
        <time>2020-06-04T14:36:15Z</time>
      </trkpt>
      <trkpt lat="46.98924" lon="-2.03085">
        <ele>2.6</ele>
        <time>2020-06-04T14:36:16Z</time>
      </trkpt>
      <trkpt lat="46.98927" lon="-2.0308">
        <ele>2.6</ele>
        <time>2020-06-04T14:36:17Z</time>
      </trkpt>
      <trkpt lat="46.9893" lon="-2.03076">
        <ele>2.7</ele>
        <time>2020-06-04T14:36:18Z</time>
      </trkpt>
      <trkpt lat="46.98932" lon="-2.03071">
        <ele>2.7</ele>
        <time>2020-06-04T14:36:19Z</time>
      </trkpt>
      <trkpt lat="46.98934" lon="-2.03066">
        <ele>2.7</ele>
        <time>2020-06-04T14:36:20Z</time>
      </trkpt>
      <trkpt lat="46.98936" lon="-2.03061">
        <ele>2.6</ele>
        <time>2020-06-04T14:36:21Z</time>
      </trkpt>
      <trkpt lat="46.98938" lon="-2.03058">
        <ele>2.6</ele>
        <time>2020-06-04T14:36:22Z</time>
      </trkpt>
      <trkpt lat="46.98941" lon="-2.03053">
        <ele>2.6</ele>
        <time>2020-06-04T14:36:23Z</time>
      </trkpt>
      <trkpt lat="46.98943" lon="-2.03049">
        <ele>2.6</ele>
        <time>2020-06-04T14:36:24Z</time>
      </trkpt>
      <trkpt lat="46.98946" lon="-2.03046">
        <ele>2.6</ele>
        <time>2020-06-04T14:36:25Z</time>
      </trkpt>
      <trkpt lat="46.9895" lon="-2.03043">
        <ele>2.6</ele>
        <time>2020-06-04T14:36:26Z</time>
      </trkpt>
      <trkpt lat="46.98954" lon="-2.03043">
        <ele>2.6</ele>
        <time>2020-06-04T14:36:27Z</time>
      </trkpt>
      <trkpt lat="46.98957" lon="-2.03043">
        <ele>2.6</ele>
        <time>2020-06-04T14:36:28Z</time>
      </trkpt>
      <trkpt lat="46.98961" lon="-2.03043">
        <ele>2.6</ele>
        <time>2020-06-04T14:36:29Z</time>
      </trkpt>
      <trkpt lat="46.98964" lon="-2.03044">
        <ele>2.6</ele>
        <time>2020-06-04T14:36:30Z</time>
      </trkpt>
      <trkpt lat="46.98967" lon="-2.03044">
        <ele>2.6</ele>
        <time>2020-06-04T14:36:31Z</time>
      </trkpt>
      <trkpt lat="46.98971" lon="-2.03044">
        <ele>2.6</ele>
        <time>2020-06-04T14:36:32Z</time>
      </trkpt>
      <trkpt lat="46.98974" lon="-2.03044">
        <ele>2.6</ele>
        <time>2020-06-04T14:36:33Z</time>
      </trkpt>
      <trkpt lat="46.98977" lon="-2.03045">
        <ele>2.6</ele>
        <time>2020-06-04T14:36:34Z</time>
      </trkpt>
      <trkpt lat="46.9898" lon="-2.03045">
        <ele>2.7</ele>
        <time>2020-06-04T14:36:35Z</time>
      </trkpt>
      <trkpt lat="46.98985" lon="-2.03045">
        <ele>2.7</ele>
        <time>2020-06-04T14:36:36Z</time>
      </trkpt>
      <trkpt lat="46.98988" lon="-2.03044">
        <ele>2.7</ele>
        <time>2020-06-04T14:36:37Z</time>
      </trkpt>
      <trkpt lat="46.98991" lon="-2.03043">
        <ele>2.8</ele>
        <time>2020-06-04T14:36:38Z</time>
      </trkpt>
      <trkpt lat="46.98995" lon="-2.03043">
        <ele>2.8</ele>
        <time>2020-06-04T14:36:39Z</time>
      </trkpt>
      <trkpt lat="46.98999" lon="-2.03041">
        <ele>2.8</ele>
        <time>2020-06-04T14:36:40Z</time>
      </trkpt>
      <trkpt lat="46.99002" lon="-2.03037">
        <ele>2.8</ele>
        <time>2020-06-04T14:36:41Z</time>
      </trkpt>
      <trkpt lat="46.99004" lon="-2.03033">
        <ele>2.9</ele>
        <time>2020-06-04T14:36:42Z</time>
      </trkpt>
      <trkpt lat="46.99006" lon="-2.03029">
        <ele>2.9</ele>
        <time>2020-06-04T14:36:43Z</time>
      </trkpt>
      <trkpt lat="46.99008" lon="-2.03025">
        <ele>2.9</ele>
        <time>2020-06-04T14:36:44Z</time>
      </trkpt>
      <trkpt lat="46.9901" lon="-2.03021">
        <ele>2.9</ele>
        <time>2020-06-04T14:36:45Z</time>
      </trkpt>
      <trkpt lat="46.99012" lon="-2.03018">
        <ele>2.9</ele>
        <time>2020-06-04T14:36:46Z</time>
      </trkpt>
      <trkpt lat="46.99014" lon="-2.03013">
        <ele>2.9</ele>
        <time>2020-06-04T14:36:47Z</time>
      </trkpt>
      <trkpt lat="46.99015" lon="-2.03012">
        <ele>2.9</ele>
        <time>2020-06-04T14:36:48Z</time>
      </trkpt>
      <trkpt lat="46.99018" lon="-2.03008">
        <ele>2.9</ele>
        <time>2020-06-04T14:36:49Z</time>
      </trkpt>
      <trkpt lat="46.9902" lon="-2.03006">
        <ele>2.9</ele>
        <time>2020-06-04T14:36:50Z</time>
      </trkpt>
      <trkpt lat="46.99022" lon="-2.03004">
        <ele>2.9</ele>
        <time>2020-06-04T14:36:51Z</time>
      </trkpt>
      <trkpt lat="46.99026" lon="-2.03003">
        <ele>2.9</ele>
        <time>2020-06-04T14:36:52Z</time>
      </trkpt>
      <trkpt lat="46.99029" lon="-2.03">
        <ele>2.9</ele>
        <time>2020-06-04T14:36:53Z</time>
      </trkpt>
      <trkpt lat="46.99032" lon="-2.02999">
        <ele>2.9</ele>
        <time>2020-06-04T14:36:54Z</time>
      </trkpt>
      <trkpt lat="46.99034" lon="-2.02996">
        <ele>2.9</ele>
        <time>2020-06-04T14:36:55Z</time>
      </trkpt>
      <trkpt lat="46.99037" lon="-2.02994">
        <ele>2.8</ele>
        <time>2020-06-04T14:36:56Z</time>
      </trkpt>
      <trkpt lat="46.99039" lon="-2.02989">
        <ele>2.8</ele>
        <time>2020-06-04T14:36:57Z</time>
      </trkpt>
      <trkpt lat="46.99041" lon="-2.02986">
        <ele>2.8</ele>
        <time>2020-06-04T14:36:58Z</time>
      </trkpt>
      <trkpt lat="46.99043" lon="-2.02982">
        <ele>2.8</ele>
        <time>2020-06-04T14:36:59Z</time>
      </trkpt>
      <trkpt lat="46.99046" lon="-2.02979">
        <ele>2.8</ele>
        <time>2020-06-04T14:37:00Z</time>
      </trkpt>
      <trkpt lat="46.99049" lon="-2.02975">
        <ele>2.8</ele>
        <time>2020-06-04T14:37:01Z</time>
      </trkpt>
      <trkpt lat="46.9905" lon="-2.02974">
        <ele>2.8</ele>
        <time>2020-06-04T14:37:02Z</time>
      </trkpt>
      <trkpt lat="46.99053" lon="-2.02972">
        <ele>2.8</ele>
        <time>2020-06-04T14:37:03Z</time>
      </trkpt>
      <trkpt lat="46.99054" lon="-2.02971">
        <ele>2.8</ele>
        <time>2020-06-04T14:37:04Z</time>
      </trkpt>
      <trkpt lat="46.99057" lon="-2.02969">
        <ele>2.8</ele>
        <time>2020-06-04T14:37:05Z</time>
      </trkpt>
      <trkpt lat="46.99057" lon="-2.02969">
        <ele>2.8</ele>
        <time>2020-06-04T14:37:06Z</time>
      </trkpt>
      <trkpt lat="46.99059" lon="-2.02968">
        <ele>2.8</ele>
        <time>2020-06-04T14:37:07Z</time>
      </trkpt>
      <trkpt lat="46.99061" lon="-2.02967">
        <ele>2.8</ele>
        <time>2020-06-04T14:37:08Z</time>
      </trkpt>
      <trkpt lat="46.99063" lon="-2.02967">
        <ele>2.8</ele>
        <time>2020-06-04T14:37:09Z</time>
      </trkpt>
      <trkpt lat="46.99064" lon="-2.02966">
        <ele>2.8</ele>
        <time>2020-06-04T14:37:10Z</time>
      </trkpt>
      <trkpt lat="46.99067" lon="-2.02964">
        <ele>2.8</ele>
        <time>2020-06-04T14:37:11Z</time>
      </trkpt>
      <trkpt lat="46.99068" lon="-2.02964">
        <ele>2.8</ele>
        <time>2020-06-04T14:37:12Z</time>
      </trkpt>
      <trkpt lat="46.9907" lon="-2.02962">
        <ele>2.8</ele>
        <time>2020-06-04T14:37:13Z</time>
      </trkpt>
      <trkpt lat="46.99073" lon="-2.02961">
        <ele>2.8</ele>
        <time>2020-06-04T14:37:14Z</time>
      </trkpt>
      <trkpt lat="46.99076" lon="-2.02959">
        <ele>2.8</ele>
        <time>2020-06-04T14:37:15Z</time>
      </trkpt>
      <trkpt lat="46.9908" lon="-2.02958">
        <ele>2.8</ele>
        <time>2020-06-04T14:37:16Z</time>
      </trkpt>
      <trkpt lat="46.99082" lon="-2.02956">
        <ele>2.8</ele>
        <time>2020-06-04T14:37:17Z</time>
      </trkpt>
      <trkpt lat="46.99086" lon="-2.02953">
        <ele>2.8</ele>
        <time>2020-06-04T14:37:18Z</time>
      </trkpt>
      <trkpt lat="46.99089" lon="-2.02951">
        <ele>2.8</ele>
        <time>2020-06-04T14:37:19Z</time>
      </trkpt>
      <trkpt lat="46.99092" lon="-2.0295">
        <ele>2.8</ele>
        <time>2020-06-04T14:37:20Z</time>
      </trkpt>
      <trkpt lat="46.99095" lon="-2.02949">
        <ele>2.8</ele>
        <time>2020-06-04T14:37:21Z</time>
      </trkpt>
      <trkpt lat="46.99099" lon="-2.02947">
        <ele>2.8</ele>
        <time>2020-06-04T14:37:22Z</time>
      </trkpt>
      <trkpt lat="46.99103" lon="-2.02944">
        <ele>2.8</ele>
        <time>2020-06-04T14:37:23Z</time>
      </trkpt>
      <trkpt lat="46.99107" lon="-2.02942">
        <ele>2.8</ele>
        <time>2020-06-04T14:37:24Z</time>
      </trkpt>
      <trkpt lat="46.99111" lon="-2.0294">
        <ele>2.8</ele>
        <time>2020-06-04T14:37:25Z</time>
      </trkpt>
      <trkpt lat="46.99116" lon="-2.02937">
        <ele>2.8</ele>
        <time>2020-06-04T14:37:26Z</time>
      </trkpt>
      <trkpt lat="46.9912" lon="-2.02936">
        <ele>2.8</ele>
        <time>2020-06-04T14:37:27Z</time>
      </trkpt>
      <trkpt lat="46.99123" lon="-2.02935">
        <ele>2.8</ele>
        <time>2020-06-04T14:37:28Z</time>
      </trkpt>
      <trkpt lat="46.99128" lon="-2.02932">
        <ele>2.8</ele>
        <time>2020-06-04T14:37:29Z</time>
      </trkpt>
      <trkpt lat="46.99132" lon="-2.0293">
        <ele>2.8</ele>
        <time>2020-06-04T14:37:30Z</time>
      </trkpt>
      <trkpt lat="46.99136" lon="-2.02927">
        <ele>2.8</ele>
        <time>2020-06-04T14:37:31Z</time>
      </trkpt>
      <trkpt lat="46.9914" lon="-2.02926">
        <ele>2.8</ele>
        <time>2020-06-04T14:37:32Z</time>
      </trkpt>
      <trkpt lat="46.99144" lon="-2.02924">
        <ele>2.8</ele>
        <time>2020-06-04T14:37:33Z</time>
      </trkpt>
      <trkpt lat="46.99149" lon="-2.02922">
        <ele>2.9</ele>
        <time>2020-06-04T14:37:34Z</time>
      </trkpt>
      <trkpt lat="46.99152" lon="-2.02922">
        <ele>2.9</ele>
        <time>2020-06-04T14:37:35Z</time>
      </trkpt>
      <trkpt lat="46.99155" lon="-2.02921">
        <ele>2.9</ele>
        <time>2020-06-04T14:37:36Z</time>
      </trkpt>
      <trkpt lat="46.99161" lon="-2.02918">
        <ele>2.9</ele>
        <time>2020-06-04T14:37:37Z</time>
      </trkpt>
      <trkpt lat="46.99166" lon="-2.02915">
        <ele>2.9</ele>
        <time>2020-06-04T14:37:38Z</time>
      </trkpt>
      <trkpt lat="46.99171" lon="-2.02913">
        <ele>2.9</ele>
        <time>2020-06-04T14:37:39Z</time>
      </trkpt>
      <trkpt lat="46.99175" lon="-2.0291">
        <ele>2.9</ele>
        <time>2020-06-04T14:37:40Z</time>
      </trkpt>
      <trkpt lat="46.9918" lon="-2.02907">
        <ele>2.8</ele>
        <time>2020-06-04T14:37:41Z</time>
      </trkpt>
      <trkpt lat="46.99185" lon="-2.02905">
        <ele>2.8</ele>
        <time>2020-06-04T14:37:42Z</time>
      </trkpt>
      <trkpt lat="46.9919" lon="-2.02903">
        <ele>2.8</ele>
        <time>2020-06-04T14:37:43Z</time>
      </trkpt>
      <trkpt lat="46.99195" lon="-2.02899">
        <ele>2.7</ele>
        <time>2020-06-04T14:37:44Z</time>
      </trkpt>
      <trkpt lat="46.99199" lon="-2.02897">
        <ele>2.7</ele>
        <time>2020-06-04T14:37:45Z</time>
      </trkpt>
      <trkpt lat="46.99204" lon="-2.02895">
        <ele>2.6</ele>
        <time>2020-06-04T14:37:46Z</time>
      </trkpt>
      <trkpt lat="46.99209" lon="-2.02893">
        <ele>2.6</ele>
        <time>2020-06-04T14:37:47Z</time>
      </trkpt>
      <trkpt lat="46.99214" lon="-2.02891">
        <ele>2.6</ele>
        <time>2020-06-04T14:37:48Z</time>
      </trkpt>
      <trkpt lat="46.99219" lon="-2.02889">
        <ele>2.5</ele>
        <time>2020-06-04T14:37:49Z</time>
      </trkpt>
      <trkpt lat="46.99224" lon="-2.02886">
        <ele>2.5</ele>
        <time>2020-06-04T14:37:50Z</time>
      </trkpt>
      <trkpt lat="46.99228" lon="-2.02884">
        <ele>2.5</ele>
        <time>2020-06-04T14:37:51Z</time>
      </trkpt>
      <trkpt lat="46.99232" lon="-2.02881">
        <ele>2.4</ele>
        <time>2020-06-04T14:37:52Z</time>
      </trkpt>
      <trkpt lat="46.99237" lon="-2.02879">
        <ele>2.4</ele>
        <time>2020-06-04T14:37:53Z</time>
      </trkpt>
      <trkpt lat="46.99241" lon="-2.02877">
        <ele>2.4</ele>
        <time>2020-06-04T14:37:54Z</time>
      </trkpt>
      <trkpt lat="46.99245" lon="-2.02874">
        <ele>2.4</ele>
        <time>2020-06-04T14:37:55Z</time>
      </trkpt>
      <trkpt lat="46.99249" lon="-2.02871">
        <ele>2.3</ele>
        <time>2020-06-04T14:37:56Z</time>
      </trkpt>
      <trkpt lat="46.99254" lon="-2.02869">
        <ele>2.3</ele>
        <time>2020-06-04T14:37:57Z</time>
      </trkpt>
      <trkpt lat="46.99258" lon="-2.02866">
        <ele>2.3</ele>
        <time>2020-06-04T14:37:58Z</time>
      </trkpt>
      <trkpt lat="46.99262" lon="-2.02864">
        <ele>2.3</ele>
        <time>2020-06-04T14:37:59Z</time>
      </trkpt>
      <trkpt lat="46.99266" lon="-2.02862">
        <ele>2.2</ele>
        <time>2020-06-04T14:38:00Z</time>
      </trkpt>
      <trkpt lat="46.99271" lon="-2.02859">
        <ele>2.2</ele>
        <time>2020-06-04T14:38:01Z</time>
      </trkpt>
      <trkpt lat="46.99275" lon="-2.02857">
        <ele>2.2</ele>
        <time>2020-06-04T14:38:02Z</time>
      </trkpt>
      <trkpt lat="46.99279" lon="-2.02855">
        <ele>2.2</ele>
        <time>2020-06-04T14:38:03Z</time>
      </trkpt>
      <trkpt lat="46.99284" lon="-2.02853">
        <ele>2.1</ele>
        <time>2020-06-04T14:38:04Z</time>
      </trkpt>
      <trkpt lat="46.99289" lon="-2.02851">
        <ele>2.1</ele>
        <time>2020-06-04T14:38:05Z</time>
      </trkpt>
      <trkpt lat="46.99293" lon="-2.02848">
        <ele>2.1</ele>
        <time>2020-06-04T14:38:06Z</time>
      </trkpt>
      <trkpt lat="46.99297" lon="-2.02845">
        <ele>2.1</ele>
        <time>2020-06-04T14:38:07Z</time>
      </trkpt>
      <trkpt lat="46.99302" lon="-2.02843">
        <ele>2</ele>
        <time>2020-06-04T14:38:08Z</time>
      </trkpt>
      <trkpt lat="46.99307" lon="-2.0284">
        <ele>2</ele>
        <time>2020-06-04T14:38:09Z</time>
      </trkpt>
      <trkpt lat="46.99311" lon="-2.02837">
        <ele>2</ele>
        <time>2020-06-04T14:38:10Z</time>
      </trkpt>
      <trkpt lat="46.99317" lon="-2.02835">
        <ele>2</ele>
        <time>2020-06-04T14:38:11Z</time>
      </trkpt>
      <trkpt lat="46.99321" lon="-2.02833">
        <ele>2</ele>
        <time>2020-06-04T14:38:12Z</time>
      </trkpt>
      <trkpt lat="46.99326" lon="-2.0283">
        <ele>2</ele>
        <time>2020-06-04T14:38:13Z</time>
      </trkpt>
      <trkpt lat="46.99331" lon="-2.02827">
        <ele>2</ele>
        <time>2020-06-04T14:38:14Z</time>
      </trkpt>
      <trkpt lat="46.99335" lon="-2.02825">
        <ele>2</ele>
        <time>2020-06-04T14:38:15Z</time>
      </trkpt>
      <trkpt lat="46.99341" lon="-2.02822">
        <ele>2</ele>
        <time>2020-06-04T14:38:16Z</time>
      </trkpt>
      <trkpt lat="46.99346" lon="-2.02819">
        <ele>2</ele>
        <time>2020-06-04T14:38:17Z</time>
      </trkpt>
      <trkpt lat="46.9935" lon="-2.02817">
        <ele>2.1</ele>
        <time>2020-06-04T14:38:18Z</time>
      </trkpt>
      <trkpt lat="46.99355" lon="-2.02815">
        <ele>2.1</ele>
        <time>2020-06-04T14:38:19Z</time>
      </trkpt>
      <trkpt lat="46.9936" lon="-2.02813">
        <ele>2.1</ele>
        <time>2020-06-04T14:38:20Z</time>
      </trkpt>
      <trkpt lat="46.99365" lon="-2.02811">
        <ele>2.1</ele>
        <time>2020-06-04T14:38:21Z</time>
      </trkpt>
      <trkpt lat="46.9937" lon="-2.02809">
        <ele>2.1</ele>
        <time>2020-06-04T14:38:22Z</time>
      </trkpt>
      <trkpt lat="46.99374" lon="-2.02807">
        <ele>2.1</ele>
        <time>2020-06-04T14:38:23Z</time>
      </trkpt>
      <trkpt lat="46.9938" lon="-2.02805">
        <ele>2.2</ele>
        <time>2020-06-04T14:38:24Z</time>
      </trkpt>
      <trkpt lat="46.99385" lon="-2.02801">
        <ele>2.2</ele>
        <time>2020-06-04T14:38:25Z</time>
      </trkpt>
      <trkpt lat="46.99389" lon="-2.02799">
        <ele>2.2</ele>
        <time>2020-06-04T14:38:26Z</time>
      </trkpt>
      <trkpt lat="46.99393" lon="-2.02796">
        <ele>2.2</ele>
        <time>2020-06-04T14:38:27Z</time>
      </trkpt>
      <trkpt lat="46.99398" lon="-2.02793">
        <ele>2.2</ele>
        <time>2020-06-04T14:38:28Z</time>
      </trkpt>
      <trkpt lat="46.99402" lon="-2.02792">
        <ele>2.2</ele>
        <time>2020-06-04T14:38:29Z</time>
      </trkpt>
      <trkpt lat="46.99407" lon="-2.0279">
        <ele>2.3</ele>
        <time>2020-06-04T14:38:30Z</time>
      </trkpt>
      <trkpt lat="46.99412" lon="-2.02789">
        <ele>2.3</ele>
        <time>2020-06-04T14:38:31Z</time>
      </trkpt>
      <trkpt lat="46.99418" lon="-2.02787">
        <ele>2.3</ele>
        <time>2020-06-04T14:38:32Z</time>
      </trkpt>
      <trkpt lat="46.99423" lon="-2.02785">
        <ele>2.3</ele>
        <time>2020-06-04T14:38:33Z</time>
      </trkpt>
      <trkpt lat="46.99427" lon="-2.02781">
        <ele>2.3</ele>
        <time>2020-06-04T14:38:34Z</time>
      </trkpt>
      <trkpt lat="46.99432" lon="-2.02778">
        <ele>2.3</ele>
        <time>2020-06-04T14:38:35Z</time>
      </trkpt>
      <trkpt lat="46.99437" lon="-2.02775">
        <ele>2.3</ele>
        <time>2020-06-04T14:38:36Z</time>
      </trkpt>
      <trkpt lat="46.99442" lon="-2.02773">
        <ele>2.3</ele>
        <time>2020-06-04T14:38:37Z</time>
      </trkpt>
      <trkpt lat="46.99447" lon="-2.0277">
        <ele>2.3</ele>
        <time>2020-06-04T14:38:38Z</time>
      </trkpt>
      <trkpt lat="46.99452" lon="-2.02767">
        <ele>2.3</ele>
        <time>2020-06-04T14:38:39Z</time>
      </trkpt>
      <trkpt lat="46.99456" lon="-2.02765">
        <ele>2.3</ele>
        <time>2020-06-04T14:38:40Z</time>
      </trkpt>
      <trkpt lat="46.99461" lon="-2.02762">
        <ele>2.4</ele>
        <time>2020-06-04T14:38:41Z</time>
      </trkpt>
      <trkpt lat="46.99466" lon="-2.0276">
        <ele>2.4</ele>
        <time>2020-06-04T14:38:42Z</time>
      </trkpt>
      <trkpt lat="46.9947" lon="-2.02757">
        <ele>2.4</ele>
        <time>2020-06-04T14:38:43Z</time>
      </trkpt>
      <trkpt lat="46.99475" lon="-2.02755">
        <ele>2.4</ele>
        <time>2020-06-04T14:38:44Z</time>
      </trkpt>
      <trkpt lat="46.9948" lon="-2.02752">
        <ele>2.4</ele>
        <time>2020-06-04T14:38:45Z</time>
      </trkpt>
      <trkpt lat="46.99485" lon="-2.02749">
        <ele>2.4</ele>
        <time>2020-06-04T14:38:46Z</time>
      </trkpt>
      <trkpt lat="46.99489" lon="-2.02746">
        <ele>2.4</ele>
        <time>2020-06-04T14:38:47Z</time>
      </trkpt>
      <trkpt lat="46.99494" lon="-2.02743">
        <ele>2.5</ele>
        <time>2020-06-04T14:38:48Z</time>
      </trkpt>
      <trkpt lat="46.995" lon="-2.02741">
        <ele>2.5</ele>
        <time>2020-06-04T14:38:49Z</time>
      </trkpt>
      <trkpt lat="46.99505" lon="-2.02739">
        <ele>2.5</ele>
        <time>2020-06-04T14:38:50Z</time>
      </trkpt>
      <trkpt lat="46.99509" lon="-2.02736">
        <ele>2.5</ele>
        <time>2020-06-04T14:38:51Z</time>
      </trkpt>
      <trkpt lat="46.99514" lon="-2.02733">
        <ele>2.5</ele>
        <time>2020-06-04T14:38:52Z</time>
      </trkpt>
      <trkpt lat="46.9952" lon="-2.0273">
        <ele>2.5</ele>
        <time>2020-06-04T14:38:53Z</time>
      </trkpt>
      <trkpt lat="46.99525" lon="-2.02727">
        <ele>2.5</ele>
        <time>2020-06-04T14:38:54Z</time>
      </trkpt>
      <trkpt lat="46.9953" lon="-2.02725">
        <ele>2.5</ele>
        <time>2020-06-04T14:38:55Z</time>
      </trkpt>
      <trkpt lat="46.99535" lon="-2.02722">
        <ele>2.5</ele>
        <time>2020-06-04T14:38:56Z</time>
      </trkpt>
      <trkpt lat="46.99541" lon="-2.02719">
        <ele>2.5</ele>
        <time>2020-06-04T14:38:57Z</time>
      </trkpt>
      <trkpt lat="46.99546" lon="-2.02717">
        <ele>2.5</ele>
        <time>2020-06-04T14:38:58Z</time>
      </trkpt>
      <trkpt lat="46.9955" lon="-2.02715">
        <ele>2.5</ele>
        <time>2020-06-04T14:38:59Z</time>
      </trkpt>
      <trkpt lat="46.99556" lon="-2.02713">
        <ele>2.5</ele>
        <time>2020-06-04T14:39:00Z</time>
      </trkpt>
      <trkpt lat="46.9956" lon="-2.0271">
        <ele>2.5</ele>
        <time>2020-06-04T14:39:01Z</time>
      </trkpt>
      <trkpt lat="46.99564" lon="-2.02708">
        <ele>2.5</ele>
        <time>2020-06-04T14:39:02Z</time>
      </trkpt>
      <trkpt lat="46.99569" lon="-2.02706">
        <ele>2.5</ele>
        <time>2020-06-04T14:39:03Z</time>
      </trkpt>
      <trkpt lat="46.99573" lon="-2.02704">
        <ele>2.5</ele>
        <time>2020-06-04T14:39:04Z</time>
      </trkpt>
      <trkpt lat="46.99578" lon="-2.02702">
        <ele>2.5</ele>
        <time>2020-06-04T14:39:05Z</time>
      </trkpt>
      <trkpt lat="46.99583" lon="-2.02699">
        <ele>2.4</ele>
        <time>2020-06-04T14:39:06Z</time>
      </trkpt>
      <trkpt lat="46.99588" lon="-2.02697">
        <ele>2.4</ele>
        <time>2020-06-04T14:39:07Z</time>
      </trkpt>
      <trkpt lat="46.99593" lon="-2.02694">
        <ele>2.4</ele>
        <time>2020-06-04T14:39:08Z</time>
      </trkpt>
      <trkpt lat="46.99598" lon="-2.02692">
        <ele>2.4</ele>
        <time>2020-06-04T14:39:09Z</time>
      </trkpt>
      <trkpt lat="46.99603" lon="-2.02689">
        <ele>2.4</ele>
        <time>2020-06-04T14:39:10Z</time>
      </trkpt>
      <trkpt lat="46.99607" lon="-2.02688">
        <ele>2.4</ele>
        <time>2020-06-04T14:39:11Z</time>
      </trkpt>
      <trkpt lat="46.99611" lon="-2.02685">
        <ele>2.4</ele>
        <time>2020-06-04T14:39:12Z</time>
      </trkpt>
      <trkpt lat="46.99615" lon="-2.02683">
        <ele>2.4</ele>
        <time>2020-06-04T14:39:13Z</time>
      </trkpt>
      <trkpt lat="46.99619" lon="-2.0268">
        <ele>2.4</ele>
        <time>2020-06-04T14:39:14Z</time>
      </trkpt>
      <trkpt lat="46.99623" lon="-2.02678">
        <ele>2.4</ele>
        <time>2020-06-04T14:39:15Z</time>
      </trkpt>
      <trkpt lat="46.99628" lon="-2.02677">
        <ele>2.4</ele>
        <time>2020-06-04T14:39:16Z</time>
      </trkpt>
      <trkpt lat="46.99632" lon="-2.02677">
        <ele>2.4</ele>
        <time>2020-06-04T14:39:17Z</time>
      </trkpt>
      <trkpt lat="46.99637" lon="-2.02676">
        <ele>2.3</ele>
        <time>2020-06-04T14:39:18Z</time>
      </trkpt>
      <trkpt lat="46.99643" lon="-2.02675">
        <ele>2.3</ele>
        <time>2020-06-04T14:39:19Z</time>
      </trkpt>
      <trkpt lat="46.99648" lon="-2.02675">
        <ele>2.3</ele>
        <time>2020-06-04T14:39:20Z</time>
      </trkpt>
      <trkpt lat="46.99653" lon="-2.02676">
        <ele>2.2</ele>
        <time>2020-06-04T14:39:21Z</time>
      </trkpt>
      <trkpt lat="46.99657" lon="-2.02676">
        <ele>2.2</ele>
        <time>2020-06-04T14:39:22Z</time>
      </trkpt>
      <trkpt lat="46.99662" lon="-2.02676">
        <ele>2.2</ele>
        <time>2020-06-04T14:39:23Z</time>
      </trkpt>
      <trkpt lat="46.99667" lon="-2.02677">
        <ele>2.2</ele>
        <time>2020-06-04T14:39:24Z</time>
      </trkpt>
      <trkpt lat="46.99672" lon="-2.02676">
        <ele>2.2</ele>
        <time>2020-06-04T14:39:25Z</time>
      </trkpt>
      <trkpt lat="46.99677" lon="-2.02676">
        <ele>2.2</ele>
        <time>2020-06-04T14:39:26Z</time>
      </trkpt>
      <trkpt lat="46.99682" lon="-2.02675">
        <ele>2.2</ele>
        <time>2020-06-04T14:39:27Z</time>
      </trkpt>
      <trkpt lat="46.99688" lon="-2.02672">
        <ele>2.2</ele>
        <time>2020-06-04T14:39:28Z</time>
      </trkpt>
      <trkpt lat="46.99693" lon="-2.02671">
        <ele>2.2</ele>
        <time>2020-06-04T14:39:29Z</time>
      </trkpt>
      <trkpt lat="46.99699" lon="-2.02669">
        <ele>2.2</ele>
        <time>2020-06-04T14:39:30Z</time>
      </trkpt>
      <trkpt lat="46.99704" lon="-2.02669">
        <ele>2.2</ele>
        <time>2020-06-04T14:39:31Z</time>
      </trkpt>
      <trkpt lat="46.9971" lon="-2.02668">
        <ele>2.2</ele>
        <time>2020-06-04T14:39:32Z</time>
      </trkpt>
      <trkpt lat="46.99715" lon="-2.02667">
        <ele>2.2</ele>
        <time>2020-06-04T14:39:33Z</time>
      </trkpt>
      <trkpt lat="46.9972" lon="-2.02666">
        <ele>2.2</ele>
        <time>2020-06-04T14:39:34Z</time>
      </trkpt>
      <trkpt lat="46.99724" lon="-2.02665">
        <ele>2.2</ele>
        <time>2020-06-04T14:39:35Z</time>
      </trkpt>
      <trkpt lat="46.99728" lon="-2.02663">
        <ele>2.2</ele>
        <time>2020-06-04T14:39:36Z</time>
      </trkpt>
      <trkpt lat="46.99732" lon="-2.02661">
        <ele>2.2</ele>
        <time>2020-06-04T14:39:37Z</time>
      </trkpt>
      <trkpt lat="46.99735" lon="-2.02658">
        <ele>2.2</ele>
        <time>2020-06-04T14:39:38Z</time>
      </trkpt>
      <trkpt lat="46.99738" lon="-2.02657">
        <ele>2.2</ele>
        <time>2020-06-04T14:39:39Z</time>
      </trkpt>
      <trkpt lat="46.99742" lon="-2.02656">
        <ele>2.2</ele>
        <time>2020-06-04T14:39:40Z</time>
      </trkpt>
      <trkpt lat="46.99744" lon="-2.02655">
        <ele>2.2</ele>
        <time>2020-06-04T14:39:41Z</time>
      </trkpt>
      <trkpt lat="46.99746" lon="-2.0266">
        <ele>2.2</ele>
        <time>2020-06-04T14:39:42Z</time>
      </trkpt>
      <trkpt lat="46.99748" lon="-2.02665">
        <ele>2.2</ele>
        <time>2020-06-04T14:39:43Z</time>
      </trkpt>
      <trkpt lat="46.99748" lon="-2.02672">
        <ele>2.2</ele>
        <time>2020-06-04T14:39:44Z</time>
      </trkpt>
      <trkpt lat="46.9975" lon="-2.02678">
        <ele>2.2</ele>
        <time>2020-06-04T14:39:45Z</time>
      </trkpt>
      <trkpt lat="46.99751" lon="-2.02684">
        <ele>2.2</ele>
        <time>2020-06-04T14:39:46Z</time>
      </trkpt>
      <trkpt lat="46.99752" lon="-2.0269">
        <ele>2.2</ele>
        <time>2020-06-04T14:39:47Z</time>
      </trkpt>
      <trkpt lat="46.99753" lon="-2.02696">
        <ele>2.2</ele>
        <time>2020-06-04T14:39:48Z</time>
      </trkpt>
      <trkpt lat="46.99754" lon="-2.02702">
        <ele>2.2</ele>
        <time>2020-06-04T14:39:49Z</time>
      </trkpt>
      <trkpt lat="46.99755" lon="-2.02708">
        <ele>2.2</ele>
        <time>2020-06-04T14:39:50Z</time>
      </trkpt>
      <trkpt lat="46.99756" lon="-2.02714">
        <ele>2.2</ele>
        <time>2020-06-04T14:39:51Z</time>
      </trkpt>
      <trkpt lat="46.99758" lon="-2.02718">
        <ele>2.2</ele>
        <time>2020-06-04T14:39:52Z</time>
      </trkpt>
      <trkpt lat="46.99759" lon="-2.02722">
        <ele>2.2</ele>
        <time>2020-06-04T14:39:53Z</time>
      </trkpt>
      <trkpt lat="46.9976" lon="-2.02727">
        <ele>2.2</ele>
        <time>2020-06-04T14:39:54Z</time>
      </trkpt>
      <trkpt lat="46.9976" lon="-2.02728">
        <ele>2.2</ele>
        <time>2020-06-04T14:39:55Z</time>
      </trkpt>
      <trkpt lat="46.99759" lon="-2.02728">
        <ele>2.2</ele>
        <time>2020-06-04T14:39:56Z</time>
      </trkpt>
      <trkpt lat="46.99759" lon="-2.02726">
        <ele>2.2</ele>
        <time>2020-06-04T14:39:57Z</time>
      </trkpt>
      <trkpt lat="46.99759" lon="-2.02725">
        <ele>2.2</ele>
        <time>2020-06-04T14:39:58Z</time>
      </trkpt>
      <trkpt lat="46.99759" lon="-2.02724">
        <ele>2.2</ele>
        <time>2020-06-04T14:39:59Z</time>
      </trkpt>
      <trkpt lat="46.99758" lon="-2.02722">
        <ele>2.2</ele>
        <time>2020-06-04T14:40:00Z</time>
      </trkpt>
      <trkpt lat="46.99759" lon="-2.02718">
        <ele>2.2</ele>
        <time>2020-06-04T14:40:01Z</time>
      </trkpt>
      <trkpt lat="46.99759" lon="-2.02712">
        <ele>2.2</ele>
        <time>2020-06-04T14:40:02Z</time>
      </trkpt>
      <trkpt lat="46.99757" lon="-2.02705">
        <ele>2.2</ele>
        <time>2020-06-04T14:40:03Z</time>
      </trkpt>
      <trkpt lat="46.99754" lon="-2.02698">
        <ele>2.2</ele>
        <time>2020-06-04T14:40:04Z</time>
      </trkpt>
      <trkpt lat="46.99753" lon="-2.02692">
        <ele>2.2</ele>
        <time>2020-06-04T14:40:05Z</time>
      </trkpt>
      <trkpt lat="46.99751" lon="-2.02686">
        <ele>2.2</ele>
        <time>2020-06-04T14:40:06Z</time>
      </trkpt>
      <trkpt lat="46.99749" lon="-2.02678">
        <ele>2.2</ele>
        <time>2020-06-04T14:40:07Z</time>
      </trkpt>
      <trkpt lat="46.99746" lon="-2.02672">
        <ele>2.2</ele>
        <time>2020-06-04T14:40:08Z</time>
      </trkpt>
      <trkpt lat="46.99744" lon="-2.02668">
        <ele>2.2</ele>
        <time>2020-06-04T14:40:09Z</time>
      </trkpt>
      <trkpt lat="46.9974" lon="-2.02663">
        <ele>2.2</ele>
        <time>2020-06-04T14:40:10Z</time>
      </trkpt>
      <trkpt lat="46.99737" lon="-2.02663">
        <ele>2.2</ele>
        <time>2020-06-04T14:40:11Z</time>
      </trkpt>
      <trkpt lat="46.99733" lon="-2.02664">
        <ele>2.2</ele>
        <time>2020-06-04T14:40:12Z</time>
      </trkpt>
      <trkpt lat="46.99729" lon="-2.02666">
        <ele>2.2</ele>
        <time>2020-06-04T14:40:13Z</time>
      </trkpt>
      <trkpt lat="46.99725" lon="-2.02667">
        <ele>2.2</ele>
        <time>2020-06-04T14:40:14Z</time>
      </trkpt>
      <trkpt lat="46.9972" lon="-2.02668">
        <ele>2.2</ele>
        <time>2020-06-04T14:40:15Z</time>
      </trkpt>
      <trkpt lat="46.99716" lon="-2.0267">
        <ele>2.2</ele>
        <time>2020-06-04T14:40:16Z</time>
      </trkpt>
      <trkpt lat="46.99711" lon="-2.02671">
        <ele>2.2</ele>
        <time>2020-06-04T14:40:17Z</time>
      </trkpt>
      <trkpt lat="46.99705" lon="-2.02673">
        <ele>2.2</ele>
        <time>2020-06-04T14:40:18Z</time>
      </trkpt>
      <trkpt lat="46.997" lon="-2.02674">
        <ele>2.2</ele>
        <time>2020-06-04T14:40:19Z</time>
      </trkpt>
      <trkpt lat="46.99696" lon="-2.02676">
        <ele>2.2</ele>
        <time>2020-06-04T14:40:20Z</time>
      </trkpt>
      <trkpt lat="46.99691" lon="-2.02678">
        <ele>2.2</ele>
        <time>2020-06-04T14:40:21Z</time>
      </trkpt>
      <trkpt lat="46.99686" lon="-2.02679">
        <ele>2.2</ele>
        <time>2020-06-04T14:40:22Z</time>
      </trkpt>
      <trkpt lat="46.99681" lon="-2.0268">
        <ele>2.2</ele>
        <time>2020-06-04T14:40:23Z</time>
      </trkpt>
      <trkpt lat="46.99677" lon="-2.02681">
        <ele>2.2</ele>
        <time>2020-06-04T14:40:24Z</time>
      </trkpt>
      <trkpt lat="46.99673" lon="-2.02684">
        <ele>2.2</ele>
        <time>2020-06-04T14:40:25Z</time>
      </trkpt>
      <trkpt lat="46.9967" lon="-2.02686">
        <ele>2.2</ele>
        <time>2020-06-04T14:40:26Z</time>
      </trkpt>
      <trkpt lat="46.99668" lon="-2.02685">
        <ele>2.2</ele>
        <time>2020-06-04T14:40:27Z</time>
      </trkpt>
      <trkpt lat="46.99667" lon="-2.02686">
        <ele>2.2</ele>
        <time>2020-06-04T14:40:28Z</time>
      </trkpt>
      <trkpt lat="46.99668" lon="-2.02686">
        <ele>2.2</ele>
        <time>2020-06-04T14:40:29Z</time>
      </trkpt>
      <trkpt lat="46.99667" lon="-2.02687">
        <ele>2.2</ele>
        <time>2020-06-04T14:40:30Z</time>
      </trkpt>
      <trkpt lat="46.99666" lon="-2.02688">
        <ele>2.2</ele>
        <time>2020-06-04T14:40:31Z</time>
      </trkpt>
      <trkpt lat="46.99666" lon="-2.02687">
        <ele>2.2</ele>
        <time>2020-06-04T14:40:32Z</time>
      </trkpt>
      <trkpt lat="46.99666" lon="-2.02688">
        <ele>2.2</ele>
        <time>2020-06-04T14:40:33Z</time>
      </trkpt>
      <trkpt lat="46.99666" lon="-2.02687">
        <ele>2.2</ele>
        <time>2020-06-04T14:40:34Z</time>
      </trkpt>
      <trkpt lat="46.99667" lon="-2.02686">
        <ele>2.2</ele>
        <time>2020-06-04T14:40:35Z</time>
      </trkpt>
      <trkpt lat="46.99667" lon="-2.02685">
        <ele>2.2</ele>
        <time>2020-06-04T14:40:36Z</time>
      </trkpt>
      <trkpt lat="46.99668" lon="-2.02685">
        <ele>2.2</ele>
        <time>2020-06-04T14:40:37Z</time>
      </trkpt>
      <trkpt lat="46.99668" lon="-2.02685">
        <ele>2.2</ele>
        <time>2020-06-04T14:40:38Z</time>
      </trkpt>
      <trkpt lat="46.99668" lon="-2.02685">
        <ele>2.2</ele>
        <time>2020-06-04T14:40:39Z</time>
      </trkpt>
      <trkpt lat="46.99668" lon="-2.02685">
        <ele>2.2</ele>
        <time>2020-06-04T14:40:40Z</time>
      </trkpt>
      <trkpt lat="46.99668" lon="-2.02685">
        <ele>2.2</ele>
        <time>2020-06-04T14:40:41Z</time>
      </trkpt>
      <trkpt lat="46.99668" lon="-2.02685">
        <ele>2.2</ele>
        <time>2020-06-04T14:40:42Z</time>
      </trkpt>
      <trkpt lat="46.99669" lon="-2.0268">
        <ele>2.2</ele>
        <time>2020-06-04T14:51:31Z</time>
      </trkpt>
      <trkpt lat="46.9967" lon="-2.02679">
        <ele>2.2</ele>
        <time>2020-06-04T14:51:32Z</time>
      </trkpt>
      <trkpt lat="46.99673" lon="-2.02678">
        <ele>2.2</ele>
        <time>2020-06-04T14:51:33Z</time>
      </trkpt>
      <trkpt lat="46.99674" lon="-2.02677">
        <ele>2.2</ele>
        <time>2020-06-04T14:51:34Z</time>
      </trkpt>
      <trkpt lat="46.99676" lon="-2.02678">
        <ele>2.2</ele>
        <time>2020-06-04T14:51:35Z</time>
      </trkpt>
      <trkpt lat="46.99677" lon="-2.02678">
        <ele>2.2</ele>
        <time>2020-06-04T14:51:36Z</time>
      </trkpt>
      <trkpt lat="46.99677" lon="-2.02677">
        <ele>2.2</ele>
        <time>2020-06-04T14:51:37Z</time>
      </trkpt>
      <trkpt lat="46.99677" lon="-2.02677">
        <ele>2.2</ele>
        <time>2020-06-04T14:51:38Z</time>
      </trkpt>
      <trkpt lat="46.99677" lon="-2.02677">
        <ele>2.2</ele>
        <time>2020-06-04T14:51:39Z</time>
      </trkpt>
      <trkpt lat="46.99677" lon="-2.02677">
        <ele>2.2</ele>
        <time>2020-06-04T14:51:40Z</time>
      </trkpt>
      <trkpt lat="46.99677" lon="-2.02678">
        <ele>2.2</ele>
        <time>2020-06-04T14:51:41Z</time>
      </trkpt>
      <trkpt lat="46.99677" lon="-2.02678">
        <ele>2.2</ele>
        <time>2020-06-04T14:51:42Z</time>
      </trkpt>
      <trkpt lat="46.99676" lon="-2.02679">
        <ele>2.2</ele>
        <time>2020-06-04T14:51:43Z</time>
      </trkpt>
      <trkpt lat="46.99676" lon="-2.0268">
        <ele>2.2</ele>
        <time>2020-06-04T14:51:44Z</time>
      </trkpt>
      <trkpt lat="46.99674" lon="-2.02681">
        <ele>2.2</ele>
        <time>2020-06-04T14:51:45Z</time>
      </trkpt>
      <trkpt lat="46.99671" lon="-2.02682">
        <ele>2.2</ele>
        <time>2020-06-04T14:51:46Z</time>
      </trkpt>
      <trkpt lat="46.9967" lon="-2.02683">
        <ele>2.2</ele>
        <time>2020-06-04T14:51:47Z</time>
      </trkpt>
      <trkpt lat="46.99669" lon="-2.02684">
        <ele>2.2</ele>
        <time>2020-06-04T14:51:48Z</time>
      </trkpt>
      <trkpt lat="46.99668" lon="-2.02684">
        <ele>2.2</ele>
        <time>2020-06-04T14:51:49Z</time>
      </trkpt>
      <trkpt lat="46.99667" lon="-2.02684">
        <ele>2.2</ele>
        <time>2020-06-04T14:51:50Z</time>
      </trkpt>
      <trkpt lat="46.99666" lon="-2.02684">
        <ele>2.2</ele>
        <time>2020-06-04T14:51:51Z</time>
      </trkpt>
      <trkpt lat="46.99665" lon="-2.02685">
        <ele>2.2</ele>
        <time>2020-06-04T14:51:52Z</time>
      </trkpt>
      <trkpt lat="46.99663" lon="-2.02686">
        <ele>2.2</ele>
        <time>2020-06-04T14:51:53Z</time>
      </trkpt>
      <trkpt lat="46.99662" lon="-2.02686">
        <ele>2.2</ele>
        <time>2020-06-04T14:51:54Z</time>
      </trkpt>
      <trkpt lat="46.99661" lon="-2.02687">
        <ele>2.2</ele>
        <time>2020-06-04T14:51:55Z</time>
      </trkpt>
      <trkpt lat="46.9966" lon="-2.02688">
        <ele>2.2</ele>
        <time>2020-06-04T14:51:56Z</time>
      </trkpt>
      <trkpt lat="46.99659" lon="-2.02688">
        <ele>2.2</ele>
        <time>2020-06-04T14:51:57Z</time>
      </trkpt>
      <trkpt lat="46.99658" lon="-2.02689">
        <ele>2.2</ele>
        <time>2020-06-04T14:51:58Z</time>
      </trkpt>
      <trkpt lat="46.99656" lon="-2.02689">
        <ele>2.2</ele>
        <time>2020-06-04T14:51:59Z</time>
      </trkpt>
      <trkpt lat="46.99655" lon="-2.0269">
        <ele>2.2</ele>
        <time>2020-06-04T15:18:20Z</time>
      </trkpt>
      <trkpt lat="46.99654" lon="-2.02691">
        <ele>2.2</ele>
        <time>2020-06-04T15:18:21Z</time>
      </trkpt>
      <trkpt lat="46.99655" lon="-2.0269">
        <ele>2.2</ele>
        <time>2020-06-04T15:18:22Z</time>
      </trkpt>
      <trkpt lat="46.99655" lon="-2.02689">
        <ele>2.2</ele>
        <time>2020-06-04T15:18:23Z</time>
      </trkpt>
      <trkpt lat="46.99655" lon="-2.02687">
        <ele>2.2</ele>
        <time>2020-06-04T15:18:24Z</time>
      </trkpt>
      <trkpt lat="46.99656" lon="-2.02686">
        <ele>2.2</ele>
        <time>2020-06-04T15:18:25Z</time>
      </trkpt>
      <trkpt lat="46.99656" lon="-2.02686">
        <ele>2.2</ele>
        <time>2020-06-04T15:18:26Z</time>
      </trkpt>
      <trkpt lat="46.99656" lon="-2.02685">
        <ele>2.2</ele>
        <time>2020-06-04T15:18:27Z</time>
      </trkpt>
      <trkpt lat="46.99657" lon="-2.02685">
        <ele>2.2</ele>
        <time>2020-06-04T15:18:28Z</time>
      </trkpt>
      <trkpt lat="46.99657" lon="-2.02684">
        <ele>2.2</ele>
        <time>2020-06-04T15:18:29Z</time>
      </trkpt>
      <trkpt lat="46.99657" lon="-2.02683">
        <ele>2.2</ele>
        <time>2020-06-04T15:18:30Z</time>
      </trkpt>
      <trkpt lat="46.99657" lon="-2.02683">
        <ele>2.2</ele>
        <time>2020-06-04T15:18:31Z</time>
      </trkpt>
      <trkpt lat="46.99658" lon="-2.02681">
        <ele>2.2</ele>
        <time>2020-06-04T15:18:32Z</time>
      </trkpt>
      <trkpt lat="46.99659" lon="-2.02679">
        <ele>2.2</ele>
        <time>2020-06-04T15:18:33Z</time>
      </trkpt>
      <trkpt lat="46.9966" lon="-2.02677">
        <ele>2.2</ele>
        <time>2020-06-04T15:18:34Z</time>
      </trkpt>
      <trkpt lat="46.9966" lon="-2.02677">
        <ele>2.2</ele>
        <time>2020-06-04T15:18:35Z</time>
      </trkpt>
      <trkpt lat="46.9966" lon="-2.02677">
        <ele>2.2</ele>
        <time>2020-06-04T15:18:36Z</time>
      </trkpt>
      <trkpt lat="46.9966" lon="-2.02677">
        <ele>2.2</ele>
        <time>2020-06-04T15:18:37Z</time>
      </trkpt>
      <trkpt lat="46.9966" lon="-2.02676">
        <ele>2.2</ele>
        <time>2020-06-04T15:18:38Z</time>
      </trkpt>
      <trkpt lat="46.9966" lon="-2.02676">
        <ele>2.2</ele>
        <time>2020-06-04T15:18:39Z</time>
      </trkpt>
      <trkpt lat="46.99661" lon="-2.02675">
        <ele>2.2</ele>
        <time>2020-06-04T15:18:40Z</time>
      </trkpt>
      <trkpt lat="46.9966" lon="-2.02676">
        <ele>2.2</ele>
        <time>2020-06-04T15:18:41Z</time>
      </trkpt>
      <trkpt lat="46.99661" lon="-2.02676">
        <ele>2.2</ele>
        <time>2020-06-04T15:18:42Z</time>
      </trkpt>
      <trkpt lat="46.99662" lon="-2.02676">
        <ele>2.2</ele>
        <time>2020-06-04T15:18:43Z</time>
      </trkpt>
      <trkpt lat="46.99662" lon="-2.02676">
        <ele>2.2</ele>
        <time>2020-06-04T15:18:44Z</time>
      </trkpt>
      <trkpt lat="46.99662" lon="-2.02676">
        <ele>2.2</ele>
        <time>2020-06-04T15:18:45Z</time>
      </trkpt>
      <trkpt lat="46.99662" lon="-2.02676">
        <ele>2.2</ele>
        <time>2020-06-04T15:18:46Z</time>
      </trkpt>
      <trkpt lat="46.99662" lon="-2.02676">
        <ele>2.2</ele>
        <time>2020-06-04T15:18:47Z</time>
      </trkpt>
      <trkpt lat="46.99662" lon="-2.02676">
        <ele>2.2</ele>
        <time>2020-06-04T15:18:48Z</time>
      </trkpt>
      <trkpt lat="46.99662" lon="-2.02676">
        <ele>2.2</ele>
        <time>2020-06-04T15:18:49Z</time>
      </trkpt>
      <trkpt lat="46.99662" lon="-2.02676">
        <ele>2.2</ele>
        <time>2020-06-04T15:18:50Z</time>
      </trkpt>
      <trkpt lat="46.99669" lon="-2.02672">
        <ele>2.2</ele>
        <time>2020-06-04T15:19:07Z</time>
      </trkpt>
      <trkpt lat="46.99673" lon="-2.02671">
        <ele>2.2</ele>
        <time>2020-06-04T15:19:08Z</time>
      </trkpt>
      <trkpt lat="46.99676" lon="-2.0267">
        <ele>2.2</ele>
        <time>2020-06-04T15:19:09Z</time>
      </trkpt>
      <trkpt lat="46.99677" lon="-2.02671">
        <ele>2.2</ele>
        <time>2020-06-04T15:19:10Z</time>
      </trkpt>
      <trkpt lat="46.99679" lon="-2.02672">
        <ele>2.2</ele>
        <time>2020-06-04T15:19:11Z</time>
      </trkpt>
      <trkpt lat="46.99679" lon="-2.02672">
        <ele>2.2</ele>
        <time>2020-06-04T15:19:12Z</time>
      </trkpt>
      <trkpt lat="46.99679" lon="-2.02672">
        <ele>2.2</ele>
        <time>2020-06-04T15:19:13Z</time>
      </trkpt>
      <trkpt lat="46.99679" lon="-2.02671">
        <ele>2.2</ele>
        <time>2020-06-04T15:19:14Z</time>
      </trkpt>
      <trkpt lat="46.99679" lon="-2.02671">
        <ele>2.2</ele>
        <time>2020-06-04T15:19:15Z</time>
      </trkpt>
      <trkpt lat="46.99679" lon="-2.02671">
        <ele>2.2</ele>
        <time>2020-06-04T15:19:16Z</time>
      </trkpt>
      <trkpt lat="46.99679" lon="-2.02673">
        <ele>2.2</ele>
        <time>2020-06-04T15:19:17Z</time>
      </trkpt>
      <trkpt lat="46.9968" lon="-2.02673">
        <ele>2.2</ele>
        <time>2020-06-04T15:19:18Z</time>
      </trkpt>
      <trkpt lat="46.9968" lon="-2.02673">
        <ele>2.2</ele>
        <time>2020-06-04T15:19:19Z</time>
      </trkpt>
      <trkpt lat="46.99681" lon="-2.02674">
        <ele>2.2</ele>
        <time>2020-06-04T15:19:20Z</time>
      </trkpt>
      <trkpt lat="46.99682" lon="-2.02674">
        <ele>2.2</ele>
        <time>2020-06-04T15:19:21Z</time>
      </trkpt>
      <trkpt lat="46.99682" lon="-2.02673">
        <ele>2.2</ele>
        <time>2020-06-04T15:19:22Z</time>
      </trkpt>
      <trkpt lat="46.99683" lon="-2.02672">
        <ele>2.2</ele>
        <time>2020-06-04T15:19:23Z</time>
      </trkpt>
      <trkpt lat="46.99684" lon="-2.02671">
        <ele>2.2</ele>
        <time>2020-06-04T15:19:24Z</time>
      </trkpt>
      <trkpt lat="46.99685" lon="-2.02671">
        <ele>2.2</ele>
        <time>2020-06-04T15:19:25Z</time>
      </trkpt>
      <trkpt lat="46.99686" lon="-2.0267">
        <ele>2.2</ele>
        <time>2020-06-04T15:19:26Z</time>
      </trkpt>
      <trkpt lat="46.99686" lon="-2.0267">
        <ele>2.2</ele>
        <time>2020-06-04T15:19:27Z</time>
      </trkpt>
      <trkpt lat="46.99687" lon="-2.02669">
        <ele>2.2</ele>
        <time>2020-06-04T15:19:28Z</time>
      </trkpt>
      <trkpt lat="46.99687" lon="-2.02669">
        <ele>2.2</ele>
        <time>2020-06-04T15:19:29Z</time>
      </trkpt>
      <trkpt lat="46.99688" lon="-2.02669">
        <ele>2.2</ele>
        <time>2020-06-04T15:19:30Z</time>
      </trkpt>
      <trkpt lat="46.99688" lon="-2.02668">
        <ele>2.2</ele>
        <time>2020-06-04T15:19:31Z</time>
      </trkpt>
      <trkpt lat="46.99689" lon="-2.02668">
        <ele>2.2</ele>
        <time>2020-06-04T15:19:32Z</time>
      </trkpt>
      <trkpt lat="46.9969" lon="-2.02667">
        <ele>2.2</ele>
        <time>2020-06-04T15:19:33Z</time>
      </trkpt>
      <trkpt lat="46.9969" lon="-2.02667">
        <ele>2.2</ele>
        <time>2020-06-04T15:19:34Z</time>
      </trkpt>
      <trkpt lat="46.99691" lon="-2.02667">
        <ele>2.2</ele>
        <time>2020-06-04T15:20:00Z</time>
      </trkpt>
      <trkpt lat="46.99691" lon="-2.02666">
        <ele>2.2</ele>
        <time>2020-06-04T15:20:01Z</time>
      </trkpt>
      <trkpt lat="46.99692" lon="-2.02666">
        <ele>2.2</ele>
        <time>2020-06-04T15:20:02Z</time>
      </trkpt>
      <trkpt lat="46.99695" lon="-2.02665">
        <ele>2.2</ele>
        <time>2020-06-04T15:20:03Z</time>
      </trkpt>
      <trkpt lat="46.99696" lon="-2.02665">
        <ele>2.2</ele>
        <time>2020-06-04T15:20:04Z</time>
      </trkpt>
      <trkpt lat="46.99699" lon="-2.02664">
        <ele>2.2</ele>
        <time>2020-06-04T15:20:05Z</time>
      </trkpt>
      <trkpt lat="46.99702" lon="-2.02664">
        <ele>2.2</ele>
        <time>2020-06-04T15:20:06Z</time>
      </trkpt>
      <trkpt lat="46.99705" lon="-2.02663">
        <ele>2.2</ele>
        <time>2020-06-04T15:20:07Z</time>
      </trkpt>
      <trkpt lat="46.99709" lon="-2.02663">
        <ele>2.2</ele>
        <time>2020-06-04T15:20:08Z</time>
      </trkpt>
      <trkpt lat="46.99712" lon="-2.02662">
        <ele>2.2</ele>
        <time>2020-06-04T15:20:09Z</time>
      </trkpt>
      <trkpt lat="46.99716" lon="-2.02661">
        <ele>2.2</ele>
        <time>2020-06-04T15:20:10Z</time>
      </trkpt>
      <trkpt lat="46.99719" lon="-2.0266">
        <ele>2.2</ele>
        <time>2020-06-04T15:20:11Z</time>
      </trkpt>
      <trkpt lat="46.99721" lon="-2.02657">
        <ele>2.2</ele>
        <time>2020-06-04T15:20:12Z</time>
      </trkpt>
      <trkpt lat="46.99724" lon="-2.02656">
        <ele>2.2</ele>
        <time>2020-06-04T15:20:13Z</time>
      </trkpt>
      <trkpt lat="46.99728" lon="-2.02654">
        <ele>2.2</ele>
        <time>2020-06-04T15:20:14Z</time>
      </trkpt>
      <trkpt lat="46.99729" lon="-2.02654">
        <ele>2.2</ele>
        <time>2020-06-04T15:20:15Z</time>
      </trkpt>
      <trkpt lat="46.99732" lon="-2.02653">
        <ele>2.2</ele>
        <time>2020-06-04T15:20:16Z</time>
      </trkpt>
      <trkpt lat="46.99733" lon="-2.02652">
        <ele>2.2</ele>
        <time>2020-06-04T15:20:17Z</time>
      </trkpt>
      <trkpt lat="46.99735" lon="-2.02656">
        <ele>2.2</ele>
        <time>2020-06-04T15:20:18Z</time>
      </trkpt>
      <trkpt lat="46.99737" lon="-2.02661">
        <ele>2.2</ele>
        <time>2020-06-04T15:20:19Z</time>
      </trkpt>
      <trkpt lat="46.99738" lon="-2.02667">
        <ele>2.2</ele>
        <time>2020-06-04T15:20:20Z</time>
      </trkpt>
      <trkpt lat="46.99739" lon="-2.02672">
        <ele>2.2</ele>
        <time>2020-06-04T15:20:21Z</time>
      </trkpt>
      <trkpt lat="46.9974" lon="-2.02678">
        <ele>2.2</ele>
        <time>2020-06-04T15:20:22Z</time>
      </trkpt>
      <trkpt lat="46.99742" lon="-2.02682">
        <ele>2.2</ele>
        <time>2020-06-04T15:20:23Z</time>
      </trkpt>
      <trkpt lat="46.99744" lon="-2.02688">
        <ele>2.2</ele>
        <time>2020-06-04T15:20:24Z</time>
      </trkpt>
      <trkpt lat="46.99745" lon="-2.02695">
        <ele>2.2</ele>
        <time>2020-06-04T15:20:25Z</time>
      </trkpt>
      <trkpt lat="46.99746" lon="-2.02703">
        <ele>2.2</ele>
        <time>2020-06-04T15:20:26Z</time>
      </trkpt>
      <trkpt lat="46.99748" lon="-2.0271">
        <ele>2.2</ele>
        <time>2020-06-04T15:20:27Z</time>
      </trkpt>
      <trkpt lat="46.99751" lon="-2.02716">
        <ele>2.2</ele>
        <time>2020-06-04T15:20:28Z</time>
      </trkpt>
      <trkpt lat="46.99753" lon="-2.02723">
        <ele>2.2</ele>
        <time>2020-06-04T15:20:29Z</time>
      </trkpt>
      <trkpt lat="46.99755" lon="-2.0273">
        <ele>2.2</ele>
        <time>2020-06-04T15:20:30Z</time>
      </trkpt>
      <trkpt lat="46.99757" lon="-2.02737">
        <ele>2.2</ele>
        <time>2020-06-04T15:20:31Z</time>
      </trkpt>
      <trkpt lat="46.99759" lon="-2.02743">
        <ele>2.2</ele>
        <time>2020-06-04T15:20:32Z</time>
      </trkpt>
      <trkpt lat="46.9976" lon="-2.0275">
        <ele>2.2</ele>
        <time>2020-06-04T15:20:33Z</time>
      </trkpt>
      <trkpt lat="46.99761" lon="-2.02759">
        <ele>2.3</ele>
        <time>2020-06-04T15:20:34Z</time>
      </trkpt>
      <trkpt lat="46.99762" lon="-2.02766">
        <ele>2.3</ele>
        <time>2020-06-04T15:20:35Z</time>
      </trkpt>
      <trkpt lat="46.99765" lon="-2.02773">
        <ele>2.3</ele>
        <time>2020-06-04T15:20:36Z</time>
      </trkpt>
      <trkpt lat="46.99768" lon="-2.02779">
        <ele>2.3</ele>
        <time>2020-06-04T15:20:37Z</time>
      </trkpt>
      <trkpt lat="46.9977" lon="-2.02786">
        <ele>2.3</ele>
        <time>2020-06-04T15:20:38Z</time>
      </trkpt>
      <trkpt lat="46.99772" lon="-2.02794">
        <ele>2.3</ele>
        <time>2020-06-04T15:20:39Z</time>
      </trkpt>
      <trkpt lat="46.99774" lon="-2.02802">
        <ele>2.3</ele>
        <time>2020-06-04T15:20:40Z</time>
      </trkpt>
      <trkpt lat="46.99776" lon="-2.02809">
        <ele>2.3</ele>
        <time>2020-06-04T15:20:41Z</time>
      </trkpt>
      <trkpt lat="46.99777" lon="-2.02815">
        <ele>2.3</ele>
        <time>2020-06-04T15:20:42Z</time>
      </trkpt>
      <trkpt lat="46.99779" lon="-2.02823">
        <ele>2.3</ele>
        <time>2020-06-04T15:20:43Z</time>
      </trkpt>
      <trkpt lat="46.99782" lon="-2.0283">
        <ele>2.3</ele>
        <time>2020-06-04T15:20:44Z</time>
      </trkpt>
      <trkpt lat="46.99784" lon="-2.02837">
        <ele>2.3</ele>
        <time>2020-06-04T15:20:45Z</time>
      </trkpt>
      <trkpt lat="46.99788" lon="-2.02842">
        <ele>2.3</ele>
        <time>2020-06-04T15:20:46Z</time>
      </trkpt>
      <trkpt lat="46.9979" lon="-2.02849">
        <ele>2.3</ele>
        <time>2020-06-04T15:20:47Z</time>
      </trkpt>
      <trkpt lat="46.99791" lon="-2.02856">
        <ele>2.3</ele>
        <time>2020-06-04T15:20:48Z</time>
      </trkpt>
      <trkpt lat="46.99792" lon="-2.02863">
        <ele>2.3</ele>
        <time>2020-06-04T15:20:49Z</time>
      </trkpt>
      <trkpt lat="46.99793" lon="-2.02872">
        <ele>2.3</ele>
        <time>2020-06-04T15:20:50Z</time>
      </trkpt>
      <trkpt lat="46.99794" lon="-2.02881">
        <ele>2.4</ele>
        <time>2020-06-04T15:20:51Z</time>
      </trkpt>
      <trkpt lat="46.99795" lon="-2.02889">
        <ele>2.4</ele>
        <time>2020-06-04T15:20:52Z</time>
      </trkpt>
      <trkpt lat="46.99797" lon="-2.02897">
        <ele>2.4</ele>
        <time>2020-06-04T15:20:53Z</time>
      </trkpt>
      <trkpt lat="46.99799" lon="-2.02905">
        <ele>2.4</ele>
        <time>2020-06-04T15:20:54Z</time>
      </trkpt>
      <trkpt lat="46.99801" lon="-2.02914">
        <ele>2.4</ele>
        <time>2020-06-04T15:20:55Z</time>
      </trkpt>
      <trkpt lat="46.99803" lon="-2.02923">
        <ele>2.4</ele>
        <time>2020-06-04T15:20:56Z</time>
      </trkpt>
      <trkpt lat="46.99804" lon="-2.02929">
        <ele>2.4</ele>
        <time>2020-06-04T15:20:57Z</time>
      </trkpt>
      <trkpt lat="46.99806" lon="-2.02932">
        <ele>2.3</ele>
        <time>2020-06-04T15:20:58Z</time>
      </trkpt>
      <trkpt lat="46.99808" lon="-2.02934">
        <ele>2.3</ele>
        <time>2020-06-04T15:20:59Z</time>
      </trkpt>
      <trkpt lat="46.99809" lon="-2.02936">
        <ele>2.3</ele>
        <time>2020-06-04T15:21:00Z</time>
      </trkpt>
      <trkpt lat="46.99807" lon="-2.02936">
        <ele>2.3</ele>
        <time>2020-06-04T15:21:01Z</time>
      </trkpt>
      <trkpt lat="46.99806" lon="-2.02934">
        <ele>2.3</ele>
        <time>2020-06-04T15:21:02Z</time>
      </trkpt>
      <trkpt lat="46.99805" lon="-2.02932">
        <ele>2.3</ele>
        <time>2020-06-04T15:21:03Z</time>
      </trkpt>
      <trkpt lat="46.99805" lon="-2.02931">
        <ele>2.3</ele>
        <time>2020-06-04T15:21:04Z</time>
      </trkpt>
      <trkpt lat="46.99805" lon="-2.02927">
        <ele>2.3</ele>
        <time>2020-06-04T15:21:05Z</time>
      </trkpt>
      <trkpt lat="46.99806" lon="-2.02923">
        <ele>2.3</ele>
        <time>2020-06-04T15:21:06Z</time>
      </trkpt>
      <trkpt lat="46.99806" lon="-2.02917">
        <ele>2.2</ele>
        <time>2020-06-04T15:21:07Z</time>
      </trkpt>
      <trkpt lat="46.99809" lon="-2.02911">
        <ele>2.2</ele>
        <time>2020-06-04T15:21:08Z</time>
      </trkpt>
      <trkpt lat="46.99812" lon="-2.02906">
        <ele>2.2</ele>
        <time>2020-06-04T15:21:09Z</time>
      </trkpt>
      <trkpt lat="46.99816" lon="-2.02903">
        <ele>2.2</ele>
        <time>2020-06-04T15:21:10Z</time>
      </trkpt>
      <trkpt lat="46.99821" lon="-2.02901">
        <ele>2.2</ele>
        <time>2020-06-04T15:21:11Z</time>
      </trkpt>
      <trkpt lat="46.99825" lon="-2.02899">
        <ele>2.2</ele>
        <time>2020-06-04T15:21:12Z</time>
      </trkpt>
      <trkpt lat="46.9983" lon="-2.02898">
        <ele>2.1</ele>
        <time>2020-06-04T15:21:13Z</time>
      </trkpt>
      <trkpt lat="46.99835" lon="-2.02897">
        <ele>2.1</ele>
        <time>2020-06-04T15:21:14Z</time>
      </trkpt>
      <trkpt lat="46.9984" lon="-2.02896">
        <ele>2.1</ele>
        <time>2020-06-04T15:21:15Z</time>
      </trkpt>
      <trkpt lat="46.99845" lon="-2.02895">
        <ele>2.1</ele>
        <time>2020-06-04T15:21:16Z</time>
      </trkpt>
      <trkpt lat="46.9985" lon="-2.02893">
        <ele>2.1</ele>
        <time>2020-06-04T15:21:17Z</time>
      </trkpt>
      <trkpt lat="46.99856" lon="-2.02892">
        <ele>2.1</ele>
        <time>2020-06-04T15:21:18Z</time>
      </trkpt>
      <trkpt lat="46.99861" lon="-2.02889">
        <ele>2.1</ele>
        <time>2020-06-04T15:21:19Z</time>
      </trkpt>
      <trkpt lat="46.99867" lon="-2.02887">
        <ele>2.1</ele>
        <time>2020-06-04T15:21:20Z</time>
      </trkpt>
      <trkpt lat="46.99872" lon="-2.02884">
        <ele>2.1</ele>
        <time>2020-06-04T15:21:21Z</time>
      </trkpt>
      <trkpt lat="46.99876" lon="-2.02881">
        <ele>2.1</ele>
        <time>2020-06-04T15:21:22Z</time>
      </trkpt>
      <trkpt lat="46.99881" lon="-2.02875">
        <ele>2.1</ele>
        <time>2020-06-04T15:21:23Z</time>
      </trkpt>
      <trkpt lat="46.99886" lon="-2.02869">
        <ele>2.1</ele>
        <time>2020-06-04T15:21:24Z</time>
      </trkpt>
      <trkpt lat="46.99891" lon="-2.02862">
        <ele>2.1</ele>
        <time>2020-06-04T15:21:25Z</time>
      </trkpt>
      <trkpt lat="46.99895" lon="-2.02855">
        <ele>2.1</ele>
        <time>2020-06-04T15:21:26Z</time>
      </trkpt>
      <trkpt lat="46.99898" lon="-2.02848">
        <ele>2</ele>
        <time>2020-06-04T15:21:27Z</time>
      </trkpt>
      <trkpt lat="46.99901" lon="-2.02843">
        <ele>2</ele>
        <time>2020-06-04T15:21:28Z</time>
      </trkpt>
      <trkpt lat="46.99904" lon="-2.02837">
        <ele>2</ele>
        <time>2020-06-04T15:21:29Z</time>
      </trkpt>
      <trkpt lat="46.99908" lon="-2.02832">
        <ele>2</ele>
        <time>2020-06-04T15:21:30Z</time>
      </trkpt>
      <trkpt lat="46.99911" lon="-2.02827">
        <ele>2</ele>
        <time>2020-06-04T15:21:31Z</time>
      </trkpt>
      <trkpt lat="46.99916" lon="-2.02822">
        <ele>2</ele>
        <time>2020-06-04T15:21:32Z</time>
      </trkpt>
      <trkpt lat="46.9992" lon="-2.02819">
        <ele>2</ele>
        <time>2020-06-04T15:21:33Z</time>
      </trkpt>
      <trkpt lat="46.99924" lon="-2.02817">
        <ele>2</ele>
        <time>2020-06-04T15:21:34Z</time>
      </trkpt>
      <trkpt lat="46.99929" lon="-2.02816">
        <ele>2</ele>
        <time>2020-06-04T15:21:35Z</time>
      </trkpt>
      <trkpt lat="46.99933" lon="-2.02817">
        <ele>2</ele>
        <time>2020-06-04T15:21:36Z</time>
      </trkpt>
      <trkpt lat="46.99937" lon="-2.02817">
        <ele>2</ele>
        <time>2020-06-04T15:21:37Z</time>
      </trkpt>
      <trkpt lat="46.99942" lon="-2.02817">
        <ele>2</ele>
        <time>2020-06-04T15:21:38Z</time>
      </trkpt>
      <trkpt lat="46.99947" lon="-2.02817">
        <ele>2</ele>
        <time>2020-06-04T15:21:39Z</time>
      </trkpt>
      <trkpt lat="46.99952" lon="-2.02816">
        <ele>2</ele>
        <time>2020-06-04T15:21:40Z</time>
      </trkpt>
      <trkpt lat="46.99956" lon="-2.02817">
        <ele>1.9</ele>
        <time>2020-06-04T15:21:41Z</time>
      </trkpt>
      <trkpt lat="46.99961" lon="-2.02818">
        <ele>1.9</ele>
        <time>2020-06-04T15:21:42Z</time>
      </trkpt>
      <trkpt lat="46.99966" lon="-2.02819">
        <ele>1.9</ele>
        <time>2020-06-04T15:21:43Z</time>
      </trkpt>
      <trkpt lat="46.9997" lon="-2.0282">
        <ele>1.9</ele>
        <time>2020-06-04T15:21:44Z</time>
      </trkpt>
      <trkpt lat="46.99975" lon="-2.0282">
        <ele>1.9</ele>
        <time>2020-06-04T15:21:45Z</time>
      </trkpt>
      <trkpt lat="46.9998" lon="-2.02821">
        <ele>1.9</ele>
        <time>2020-06-04T15:21:46Z</time>
      </trkpt>
      <trkpt lat="46.99986" lon="-2.0282">
        <ele>1.9</ele>
        <time>2020-06-04T15:21:47Z</time>
      </trkpt>
      <trkpt lat="46.99991" lon="-2.02821">
        <ele>1.9</ele>
        <time>2020-06-04T15:21:48Z</time>
      </trkpt>
      <trkpt lat="46.99996" lon="-2.02821">
        <ele>1.9</ele>
        <time>2020-06-04T15:21:49Z</time>
      </trkpt>
      <trkpt lat="47" lon="-2.02822">
        <ele>1.9</ele>
        <time>2020-06-04T15:21:50Z</time>
      </trkpt>
      <trkpt lat="47.00005" lon="-2.02822">
        <ele>1.9</ele>
        <time>2020-06-04T15:21:51Z</time>
      </trkpt>
      <trkpt lat="47.0001" lon="-2.02821">
        <ele>1.9</ele>
        <time>2020-06-04T15:21:52Z</time>
      </trkpt>
      <trkpt lat="47.00015" lon="-2.02822">
        <ele>1.8</ele>
        <time>2020-06-04T15:21:53Z</time>
      </trkpt>
      <trkpt lat="47.0002" lon="-2.02822">
        <ele>1.8</ele>
        <time>2020-06-04T15:21:54Z</time>
      </trkpt>
      <trkpt lat="47.00025" lon="-2.02822">
        <ele>1.8</ele>
        <time>2020-06-04T15:21:55Z</time>
      </trkpt>
      <trkpt lat="47.0003" lon="-2.02822">
        <ele>1.8</ele>
        <time>2020-06-04T15:21:56Z</time>
      </trkpt>
      <trkpt lat="47.00034" lon="-2.02821">
        <ele>1.8</ele>
        <time>2020-06-04T15:21:57Z</time>
      </trkpt>
      <trkpt lat="47.00039" lon="-2.0282">
        <ele>1.8</ele>
        <time>2020-06-04T15:21:58Z</time>
      </trkpt>
      <trkpt lat="47.00044" lon="-2.02819">
        <ele>1.8</ele>
        <time>2020-06-04T15:21:59Z</time>
      </trkpt>
      <trkpt lat="47.00049" lon="-2.02819">
        <ele>1.7</ele>
        <time>2020-06-04T15:22:00Z</time>
      </trkpt>
      <trkpt lat="47.00053" lon="-2.02818">
        <ele>1.7</ele>
        <time>2020-06-04T15:22:01Z</time>
      </trkpt>
      <trkpt lat="47.00058" lon="-2.02816">
        <ele>1.7</ele>
        <time>2020-06-04T15:22:02Z</time>
      </trkpt>
      <trkpt lat="47.00063" lon="-2.02817">
        <ele>1.7</ele>
        <time>2020-06-04T15:22:03Z</time>
      </trkpt>
      <trkpt lat="47.00068" lon="-2.02816">
        <ele>1.7</ele>
        <time>2020-06-04T15:22:04Z</time>
      </trkpt>
      <trkpt lat="47.00073" lon="-2.02815">
        <ele>1.7</ele>
        <time>2020-06-04T15:22:05Z</time>
      </trkpt>
      <trkpt lat="47.00078" lon="-2.02815">
        <ele>1.7</ele>
        <time>2020-06-04T15:22:06Z</time>
      </trkpt>
      <trkpt lat="47.00082" lon="-2.02814">
        <ele>1.6</ele>
        <time>2020-06-04T15:22:07Z</time>
      </trkpt>
      <trkpt lat="47.00087" lon="-2.02813">
        <ele>1.6</ele>
        <time>2020-06-04T15:22:08Z</time>
      </trkpt>
      <trkpt lat="47.00091" lon="-2.02812">
        <ele>1.6</ele>
        <time>2020-06-04T15:22:09Z</time>
      </trkpt>
      <trkpt lat="47.00095" lon="-2.02811">
        <ele>1.6</ele>
        <time>2020-06-04T15:22:10Z</time>
      </trkpt>
      <trkpt lat="47.001" lon="-2.02811">
        <ele>1.6</ele>
        <time>2020-06-04T15:22:11Z</time>
      </trkpt>
      <trkpt lat="47.00106" lon="-2.0281">
        <ele>1.6</ele>
        <time>2020-06-04T15:22:12Z</time>
      </trkpt>
      <trkpt lat="47.00111" lon="-2.02809">
        <ele>1.6</ele>
        <time>2020-06-04T15:22:13Z</time>
      </trkpt>
      <trkpt lat="47.00115" lon="-2.0281">
        <ele>1.6</ele>
        <time>2020-06-04T15:22:14Z</time>
      </trkpt>
      <trkpt lat="47.0012" lon="-2.02809">
        <ele>1.5</ele>
        <time>2020-06-04T15:22:15Z</time>
      </trkpt>
      <trkpt lat="47.00125" lon="-2.02808">
        <ele>1.5</ele>
        <time>2020-06-04T15:22:16Z</time>
      </trkpt>
      <trkpt lat="47.00131" lon="-2.02807">
        <ele>1.5</ele>
        <time>2020-06-04T15:22:17Z</time>
      </trkpt>
      <trkpt lat="47.00136" lon="-2.02806">
        <ele>1.5</ele>
        <time>2020-06-04T15:22:18Z</time>
      </trkpt>
      <trkpt lat="47.00141" lon="-2.02805">
        <ele>1.5</ele>
        <time>2020-06-04T15:22:19Z</time>
      </trkpt>
      <trkpt lat="47.00147" lon="-2.02803">
        <ele>1.4</ele>
        <time>2020-06-04T15:22:20Z</time>
      </trkpt>
      <trkpt lat="47.00151" lon="-2.02803">
        <ele>1.4</ele>
        <time>2020-06-04T15:22:21Z</time>
      </trkpt>
      <trkpt lat="47.00156" lon="-2.02802">
        <ele>1.4</ele>
        <time>2020-06-04T15:22:22Z</time>
      </trkpt>
      <trkpt lat="47.0016" lon="-2.02801">
        <ele>1.4</ele>
        <time>2020-06-04T15:22:23Z</time>
      </trkpt>
      <trkpt lat="47.00165" lon="-2.02798">
        <ele>1.4</ele>
        <time>2020-06-04T15:22:24Z</time>
      </trkpt>
      <trkpt lat="47.0017" lon="-2.02796">
        <ele>1.4</ele>
        <time>2020-06-04T15:22:25Z</time>
      </trkpt>
      <trkpt lat="47.00176" lon="-2.02794">
        <ele>1.4</ele>
        <time>2020-06-04T15:22:26Z</time>
      </trkpt>
      <trkpt lat="47.0018" lon="-2.02791">
        <ele>1.4</ele>
        <time>2020-06-04T15:22:27Z</time>
      </trkpt>
      <trkpt lat="47.00185" lon="-2.02789">
        <ele>1.3</ele>
        <time>2020-06-04T15:22:28Z</time>
      </trkpt>
      <trkpt lat="47.0019" lon="-2.02786">
        <ele>1.3</ele>
        <time>2020-06-04T15:22:29Z</time>
      </trkpt>
      <trkpt lat="47.00194" lon="-2.02783">
        <ele>1.3</ele>
        <time>2020-06-04T15:22:30Z</time>
      </trkpt>
      <trkpt lat="47.002" lon="-2.02781">
        <ele>1.3</ele>
        <time>2020-06-04T15:22:31Z</time>
      </trkpt>
      <trkpt lat="47.00204" lon="-2.02778">
        <ele>1.3</ele>
        <time>2020-06-04T15:22:32Z</time>
      </trkpt>
      <trkpt lat="47.00208" lon="-2.02777">
        <ele>1.3</ele>
        <time>2020-06-04T15:22:33Z</time>
      </trkpt>
      <trkpt lat="47.00212" lon="-2.02775">
        <ele>1.3</ele>
        <time>2020-06-04T15:22:34Z</time>
      </trkpt>
      <trkpt lat="47.00216" lon="-2.02772">
        <ele>1.3</ele>
        <time>2020-06-04T15:22:35Z</time>
      </trkpt>
      <trkpt lat="47.00222" lon="-2.0277">
        <ele>1.3</ele>
        <time>2020-06-04T15:22:36Z</time>
      </trkpt>
      <trkpt lat="47.00226" lon="-2.02768">
        <ele>1.2</ele>
        <time>2020-06-04T15:22:37Z</time>
      </trkpt>
      <trkpt lat="47.0023" lon="-2.02766">
        <ele>1.2</ele>
        <time>2020-06-04T15:22:38Z</time>
      </trkpt>
      <trkpt lat="47.00234" lon="-2.02764">
        <ele>1.2</ele>
        <time>2020-06-04T15:22:39Z</time>
      </trkpt>
      <trkpt lat="47.00239" lon="-2.02763">
        <ele>1.2</ele>
        <time>2020-06-04T15:22:40Z</time>
      </trkpt>
      <trkpt lat="47.00243" lon="-2.0276">
        <ele>1.2</ele>
        <time>2020-06-04T15:22:41Z</time>
      </trkpt>
      <trkpt lat="47.00247" lon="-2.02759">
        <ele>1.2</ele>
        <time>2020-06-04T15:22:42Z</time>
      </trkpt>
      <trkpt lat="47.00252" lon="-2.02756">
        <ele>1.1</ele>
        <time>2020-06-04T15:22:43Z</time>
      </trkpt>
      <trkpt lat="47.00256" lon="-2.02754">
        <ele>1.1</ele>
        <time>2020-06-04T15:22:44Z</time>
      </trkpt>
      <trkpt lat="47.0026" lon="-2.02753">
        <ele>1.1</ele>
        <time>2020-06-04T15:22:45Z</time>
      </trkpt>
      <trkpt lat="47.00264" lon="-2.02751">
        <ele>1.1</ele>
        <time>2020-06-04T15:22:46Z</time>
      </trkpt>
      <trkpt lat="47.00269" lon="-2.02748">
        <ele>1.1</ele>
        <time>2020-06-04T15:22:47Z</time>
      </trkpt>
      <trkpt lat="47.00272" lon="-2.02746">
        <ele>1.1</ele>
        <time>2020-06-04T15:22:48Z</time>
      </trkpt>
      <trkpt lat="47.00276" lon="-2.02743">
        <ele>1.1</ele>
        <time>2020-06-04T15:22:49Z</time>
      </trkpt>
      <trkpt lat="47.0028" lon="-2.02741">
        <ele>1.1</ele>
        <time>2020-06-04T15:22:50Z</time>
      </trkpt>
      <trkpt lat="47.00284" lon="-2.02739">
        <ele>1.1</ele>
        <time>2020-06-04T15:22:51Z</time>
      </trkpt>
      <trkpt lat="47.00289" lon="-2.02737">
        <ele>1.1</ele>
        <time>2020-06-04T15:22:52Z</time>
      </trkpt>
      <trkpt lat="47.00294" lon="-2.02735">
        <ele>1.1</ele>
        <time>2020-06-04T15:22:53Z</time>
      </trkpt>
      <trkpt lat="47.00298" lon="-2.02733">
        <ele>1.1</ele>
        <time>2020-06-04T15:22:54Z</time>
      </trkpt>
      <trkpt lat="47.00303" lon="-2.02731">
        <ele>1.1</ele>
        <time>2020-06-04T15:22:55Z</time>
      </trkpt>
      <trkpt lat="47.00308" lon="-2.02729">
        <ele>1.1</ele>
        <time>2020-06-04T15:22:56Z</time>
      </trkpt>
      <trkpt lat="47.00313" lon="-2.02727">
        <ele>1.1</ele>
        <time>2020-06-04T15:22:57Z</time>
      </trkpt>
      <trkpt lat="47.00318" lon="-2.02724">
        <ele>1.1</ele>
        <time>2020-06-04T15:22:58Z</time>
      </trkpt>
      <trkpt lat="47.00323" lon="-2.02722">
        <ele>1.1</ele>
        <time>2020-06-04T15:22:59Z</time>
      </trkpt>
      <trkpt lat="47.00329" lon="-2.02719">
        <ele>1.1</ele>
        <time>2020-06-04T15:23:00Z</time>
      </trkpt>
      <trkpt lat="47.00333" lon="-2.02718">
        <ele>1.1</ele>
        <time>2020-06-04T15:23:01Z</time>
      </trkpt>
      <trkpt lat="47.00338" lon="-2.02715">
        <ele>1.1</ele>
        <time>2020-06-04T15:23:02Z</time>
      </trkpt>
      <trkpt lat="47.00343" lon="-2.02713">
        <ele>1.1</ele>
        <time>2020-06-04T15:23:03Z</time>
      </trkpt>
      <trkpt lat="47.00347" lon="-2.02711">
        <ele>1.1</ele>
        <time>2020-06-04T15:23:04Z</time>
      </trkpt>
      <trkpt lat="47.00352" lon="-2.02709">
        <ele>1.1</ele>
        <time>2020-06-04T15:23:05Z</time>
      </trkpt>
      <trkpt lat="47.00356" lon="-2.02708">
        <ele>1.1</ele>
        <time>2020-06-04T15:23:06Z</time>
      </trkpt>
      <trkpt lat="47.0036" lon="-2.02704">
        <ele>1.1</ele>
        <time>2020-06-04T15:23:07Z</time>
      </trkpt>
      <trkpt lat="47.00364" lon="-2.02701">
        <ele>1.1</ele>
        <time>2020-06-04T15:23:08Z</time>
      </trkpt>
      <trkpt lat="47.00368" lon="-2.02697">
        <ele>1.1</ele>
        <time>2020-06-04T15:23:09Z</time>
      </trkpt>
      <trkpt lat="47.00373" lon="-2.02694">
        <ele>1.1</ele>
        <time>2020-06-04T15:23:10Z</time>
      </trkpt>
      <trkpt lat="47.00378" lon="-2.02693">
        <ele>1.1</ele>
        <time>2020-06-04T15:23:11Z</time>
      </trkpt>
      <trkpt lat="47.00382" lon="-2.0269">
        <ele>1.1</ele>
        <time>2020-06-04T15:23:12Z</time>
      </trkpt>
      <trkpt lat="47.00386" lon="-2.02687">
        <ele>1.1</ele>
        <time>2020-06-04T15:23:13Z</time>
      </trkpt>
      <trkpt lat="47.00391" lon="-2.02684">
        <ele>1.1</ele>
        <time>2020-06-04T15:23:14Z</time>
      </trkpt>
      <trkpt lat="47.00396" lon="-2.02681">
        <ele>1.1</ele>
        <time>2020-06-04T15:23:15Z</time>
      </trkpt>
      <trkpt lat="47.004" lon="-2.02678">
        <ele>1.1</ele>
        <time>2020-06-04T15:23:16Z</time>
      </trkpt>
      <trkpt lat="47.00405" lon="-2.02676">
        <ele>1.1</ele>
        <time>2020-06-04T15:23:17Z</time>
      </trkpt>
      <trkpt lat="47.00409" lon="-2.02675">
        <ele>1.1</ele>
        <time>2020-06-04T15:23:18Z</time>
      </trkpt>
      <trkpt lat="47.00413" lon="-2.02673">
        <ele>1.1</ele>
        <time>2020-06-04T15:23:19Z</time>
      </trkpt>
      <trkpt lat="47.00418" lon="-2.0267">
        <ele>1.1</ele>
        <time>2020-06-04T15:23:20Z</time>
      </trkpt>
      <trkpt lat="47.00423" lon="-2.02668">
        <ele>1.1</ele>
        <time>2020-06-04T15:23:21Z</time>
      </trkpt>
      <trkpt lat="47.00428" lon="-2.02667">
        <ele>1</ele>
        <time>2020-06-04T15:23:22Z</time>
      </trkpt>
      <trkpt lat="47.00432" lon="-2.02666">
        <ele>1</ele>
        <time>2020-06-04T15:23:23Z</time>
      </trkpt>
      <trkpt lat="47.00437" lon="-2.02664">
        <ele>1</ele>
        <time>2020-06-04T15:23:24Z</time>
      </trkpt>
      <trkpt lat="47.00442" lon="-2.02662">
        <ele>1</ele>
        <time>2020-06-04T15:23:25Z</time>
      </trkpt>
      <trkpt lat="47.00446" lon="-2.02661">
        <ele>1</ele>
        <time>2020-06-04T15:23:26Z</time>
      </trkpt>
      <trkpt lat="47.00452" lon="-2.02658">
        <ele>0.9</ele>
        <time>2020-06-04T15:23:27Z</time>
      </trkpt>
      <trkpt lat="47.00457" lon="-2.02657">
        <ele>0.9</ele>
        <time>2020-06-04T15:23:28Z</time>
      </trkpt>
      <trkpt lat="47.00461" lon="-2.02655">
        <ele>0.9</ele>
        <time>2020-06-04T15:23:29Z</time>
      </trkpt>
      <trkpt lat="47.00466" lon="-2.02652">
        <ele>0.9</ele>
        <time>2020-06-04T15:23:30Z</time>
      </trkpt>
      <trkpt lat="47.00471" lon="-2.02649">
        <ele>0.8</ele>
        <time>2020-06-04T15:23:31Z</time>
      </trkpt>
      <trkpt lat="47.00475" lon="-2.02647">
        <ele>0.8</ele>
        <time>2020-06-04T15:23:32Z</time>
      </trkpt>
      <trkpt lat="47.00478" lon="-2.02645">
        <ele>0.8</ele>
        <time>2020-06-04T15:23:33Z</time>
      </trkpt>
      <trkpt lat="47.00482" lon="-2.02643">
        <ele>0.8</ele>
        <time>2020-06-04T15:23:34Z</time>
      </trkpt>
      <trkpt lat="47.00487" lon="-2.02641">
        <ele>0.8</ele>
        <time>2020-06-04T15:23:35Z</time>
      </trkpt>
      <trkpt lat="47.00491" lon="-2.0264">
        <ele>0.8</ele>
        <time>2020-06-04T15:23:36Z</time>
      </trkpt>
      <trkpt lat="47.00495" lon="-2.02639">
        <ele>0.7</ele>
        <time>2020-06-04T15:23:37Z</time>
      </trkpt>
      <trkpt lat="47.005" lon="-2.02637">
        <ele>0.7</ele>
        <time>2020-06-04T15:23:38Z</time>
      </trkpt>
      <trkpt lat="47.00504" lon="-2.02636">
        <ele>0.8</ele>
        <time>2020-06-04T15:23:39Z</time>
      </trkpt>
      <trkpt lat="47.00508" lon="-2.02633">
        <ele>0.8</ele>
        <time>2020-06-04T15:23:40Z</time>
      </trkpt>
      <trkpt lat="47.00513" lon="-2.02632">
        <ele>0.8</ele>
        <time>2020-06-04T15:23:41Z</time>
      </trkpt>
      <trkpt lat="47.00517" lon="-2.02631">
        <ele>0.8</ele>
        <time>2020-06-04T15:23:42Z</time>
      </trkpt>
      <trkpt lat="47.00521" lon="-2.0263">
        <ele>0.8</ele>
        <time>2020-06-04T15:23:43Z</time>
      </trkpt>
      <trkpt lat="47.00524" lon="-2.02627">
        <ele>0.8</ele>
        <time>2020-06-04T15:23:44Z</time>
      </trkpt>
      <trkpt lat="47.00529" lon="-2.02626">
        <ele>0.8</ele>
        <time>2020-06-04T15:23:45Z</time>
      </trkpt>
      <trkpt lat="47.00533" lon="-2.02624">
        <ele>0.8</ele>
        <time>2020-06-04T15:23:46Z</time>
      </trkpt>
      <trkpt lat="47.00537" lon="-2.02622">
        <ele>0.8</ele>
        <time>2020-06-04T15:23:47Z</time>
      </trkpt>
      <trkpt lat="47.00543" lon="-2.02619">
        <ele>0.9</ele>
        <time>2020-06-04T15:23:48Z</time>
      </trkpt>
      <trkpt lat="47.00547" lon="-2.02617">
        <ele>0.9</ele>
        <time>2020-06-04T15:23:49Z</time>
      </trkpt>
      <trkpt lat="47.00552" lon="-2.02615">
        <ele>0.9</ele>
        <time>2020-06-04T15:23:50Z</time>
      </trkpt>
      <trkpt lat="47.00558" lon="-2.02613">
        <ele>0.9</ele>
        <time>2020-06-04T15:23:51Z</time>
      </trkpt>
      <trkpt lat="47.00563" lon="-2.02611">
        <ele>0.9</ele>
        <time>2020-06-04T15:23:52Z</time>
      </trkpt>
      <trkpt lat="47.00568" lon="-2.0261">
        <ele>0.9</ele>
        <time>2020-06-04T15:23:53Z</time>
      </trkpt>
      <trkpt lat="47.00573" lon="-2.02609">
        <ele>0.9</ele>
        <time>2020-06-04T15:23:54Z</time>
      </trkpt>
      <trkpt lat="47.00577" lon="-2.02607">
        <ele>0.9</ele>
        <time>2020-06-04T15:23:55Z</time>
      </trkpt>
      <trkpt lat="47.00582" lon="-2.02604">
        <ele>0.9</ele>
        <time>2020-06-04T15:23:56Z</time>
      </trkpt>
      <trkpt lat="47.00586" lon="-2.02602">
        <ele>0.9</ele>
        <time>2020-06-04T15:23:57Z</time>
      </trkpt>
      <trkpt lat="47.00592" lon="-2.02601">
        <ele>0.9</ele>
        <time>2020-06-04T15:23:58Z</time>
      </trkpt>
      <trkpt lat="47.00596" lon="-2.026">
        <ele>1</ele>
        <time>2020-06-04T15:23:59Z</time>
      </trkpt>
      <trkpt lat="47.00601" lon="-2.026">
        <ele>1</ele>
        <time>2020-06-04T15:24:00Z</time>
      </trkpt>
      <trkpt lat="47.00605" lon="-2.02599">
        <ele>1</ele>
        <time>2020-06-04T15:24:01Z</time>
      </trkpt>
      <trkpt lat="47.0061" lon="-2.02599">
        <ele>1</ele>
        <time>2020-06-04T15:24:02Z</time>
      </trkpt>
      <trkpt lat="47.00616" lon="-2.02596">
        <ele>1</ele>
        <time>2020-06-04T15:24:03Z</time>
      </trkpt>
      <trkpt lat="47.0062" lon="-2.02596">
        <ele>1</ele>
        <time>2020-06-04T15:24:04Z</time>
      </trkpt>
      <trkpt lat="47.00625" lon="-2.02595">
        <ele>1</ele>
        <time>2020-06-04T15:24:05Z</time>
      </trkpt>
      <trkpt lat="47.0063" lon="-2.02594">
        <ele>1</ele>
        <time>2020-06-04T15:24:06Z</time>
      </trkpt>
      <trkpt lat="47.00634" lon="-2.02592">
        <ele>1</ele>
        <time>2020-06-04T15:24:07Z</time>
      </trkpt>
      <trkpt lat="47.0064" lon="-2.02589">
        <ele>1</ele>
        <time>2020-06-04T15:24:08Z</time>
      </trkpt>
      <trkpt lat="47.00645" lon="-2.02586">
        <ele>1</ele>
        <time>2020-06-04T15:24:09Z</time>
      </trkpt>
      <trkpt lat="47.00649" lon="-2.02583">
        <ele>1</ele>
        <time>2020-06-04T15:24:10Z</time>
      </trkpt>
      <trkpt lat="47.00653" lon="-2.02579">
        <ele>1</ele>
        <time>2020-06-04T15:24:11Z</time>
      </trkpt>
      <trkpt lat="47.00657" lon="-2.02576">
        <ele>1</ele>
        <time>2020-06-04T15:24:12Z</time>
      </trkpt>
      <trkpt lat="47.00661" lon="-2.02573">
        <ele>1</ele>
        <time>2020-06-04T15:24:13Z</time>
      </trkpt>
      <trkpt lat="47.00665" lon="-2.0257">
        <ele>1</ele>
        <time>2020-06-04T15:24:14Z</time>
      </trkpt>
      <trkpt lat="47.00669" lon="-2.02567">
        <ele>1</ele>
        <time>2020-06-04T15:24:15Z</time>
      </trkpt>
      <trkpt lat="47.00674" lon="-2.02567">
        <ele>1</ele>
        <time>2020-06-04T15:24:16Z</time>
      </trkpt>
      <trkpt lat="47.00679" lon="-2.02568">
        <ele>1</ele>
        <time>2020-06-04T15:24:17Z</time>
      </trkpt>
      <trkpt lat="47.00683" lon="-2.02572">
        <ele>1</ele>
        <time>2020-06-04T15:24:18Z</time>
      </trkpt>
      <trkpt lat="47.00688" lon="-2.02576">
        <ele>1</ele>
        <time>2020-06-04T15:24:19Z</time>
      </trkpt>
      <trkpt lat="47.00692" lon="-2.0258">
        <ele>1</ele>
        <time>2020-06-04T15:24:20Z</time>
      </trkpt>
      <trkpt lat="47.00695" lon="-2.02587">
        <ele>0.9</ele>
        <time>2020-06-04T15:24:21Z</time>
      </trkpt>
      <trkpt lat="47.00697" lon="-2.02594">
        <ele>0.9</ele>
        <time>2020-06-04T15:24:22Z</time>
      </trkpt>
      <trkpt lat="47.00698" lon="-2.02603">
        <ele>0.9</ele>
        <time>2020-06-04T15:24:23Z</time>
      </trkpt>
      <trkpt lat="47.007" lon="-2.0261">
        <ele>0.9</ele>
        <time>2020-06-04T15:24:24Z</time>
      </trkpt>
      <trkpt lat="47.00702" lon="-2.02617">
        <ele>0.9</ele>
        <time>2020-06-04T15:24:25Z</time>
      </trkpt>
      <trkpt lat="47.00703" lon="-2.02624">
        <ele>0.9</ele>
        <time>2020-06-04T15:24:26Z</time>
      </trkpt>
      <trkpt lat="47.00705" lon="-2.02631">
        <ele>0.9</ele>
        <time>2020-06-04T15:24:27Z</time>
      </trkpt>
      <trkpt lat="47.00707" lon="-2.02637">
        <ele>0.9</ele>
        <time>2020-06-04T15:24:28Z</time>
      </trkpt>
      <trkpt lat="47.00708" lon="-2.02644">
        <ele>0.9</ele>
        <time>2020-06-04T15:24:29Z</time>
      </trkpt>
      <trkpt lat="47.0071" lon="-2.0265">
        <ele>0.8</ele>
        <time>2020-06-04T15:24:30Z</time>
      </trkpt>
      <trkpt lat="47.00711" lon="-2.02657">
        <ele>0.8</ele>
        <time>2020-06-04T15:24:31Z</time>
      </trkpt>
      <trkpt lat="47.00712" lon="-2.02664">
        <ele>0.8</ele>
        <time>2020-06-04T15:24:32Z</time>
      </trkpt>
      <trkpt lat="47.00713" lon="-2.02672">
        <ele>0.8</ele>
        <time>2020-06-04T15:24:33Z</time>
      </trkpt>
      <trkpt lat="47.00714" lon="-2.0268">
        <ele>0.8</ele>
        <time>2020-06-04T15:24:34Z</time>
      </trkpt>
      <trkpt lat="47.00715" lon="-2.02688">
        <ele>0.8</ele>
        <time>2020-06-04T15:24:35Z</time>
      </trkpt>
      <trkpt lat="47.00716" lon="-2.02696">
        <ele>0.8</ele>
        <time>2020-06-04T15:24:36Z</time>
      </trkpt>
      <trkpt lat="47.00717" lon="-2.02703">
        <ele>0.8</ele>
        <time>2020-06-04T15:24:37Z</time>
      </trkpt>
      <trkpt lat="47.0072" lon="-2.02709">
        <ele>0.8</ele>
        <time>2020-06-04T15:24:38Z</time>
      </trkpt>
      <trkpt lat="47.00723" lon="-2.02715">
        <ele>0.8</ele>
        <time>2020-06-04T15:24:39Z</time>
      </trkpt>
      <trkpt lat="47.00727" lon="-2.0272">
        <ele>0.8</ele>
        <time>2020-06-04T15:24:40Z</time>
      </trkpt>
      <trkpt lat="47.00732" lon="-2.02723">
        <ele>0.8</ele>
        <time>2020-06-04T15:24:41Z</time>
      </trkpt>
      <trkpt lat="47.00738" lon="-2.02721">
        <ele>0.8</ele>
        <time>2020-06-04T15:24:42Z</time>
      </trkpt>
      <trkpt lat="47.00743" lon="-2.0272">
        <ele>0.8</ele>
        <time>2020-06-04T15:24:43Z</time>
      </trkpt>
      <trkpt lat="47.00749" lon="-2.02719">
        <ele>0.8</ele>
        <time>2020-06-04T15:24:44Z</time>
      </trkpt>
      <trkpt lat="47.00755" lon="-2.02718">
        <ele>0.8</ele>
        <time>2020-06-04T15:24:45Z</time>
      </trkpt>
      <trkpt lat="47.0076" lon="-2.02716">
        <ele>0.9</ele>
        <time>2020-06-04T15:24:46Z</time>
      </trkpt>
      <trkpt lat="47.00764" lon="-2.02716">
        <ele>0.9</ele>
        <time>2020-06-04T15:24:47Z</time>
      </trkpt>
      <trkpt lat="47.00769" lon="-2.02715">
        <ele>0.9</ele>
        <time>2020-06-04T15:24:48Z</time>
      </trkpt>
      <trkpt lat="47.00774" lon="-2.02715">
        <ele>0.9</ele>
        <time>2020-06-04T15:24:49Z</time>
      </trkpt>
      <trkpt lat="47.00779" lon="-2.02716">
        <ele>0.9</ele>
        <time>2020-06-04T15:24:50Z</time>
      </trkpt>
      <trkpt lat="47.00783" lon="-2.02717">
        <ele>0.9</ele>
        <time>2020-06-04T15:24:51Z</time>
      </trkpt>
      <trkpt lat="47.00788" lon="-2.02719">
        <ele>1</ele>
        <time>2020-06-04T15:24:52Z</time>
      </trkpt>
      <trkpt lat="47.00792" lon="-2.02721">
        <ele>1</ele>
        <time>2020-06-04T15:24:53Z</time>
      </trkpt>
      <trkpt lat="47.00796" lon="-2.02723">
        <ele>1</ele>
        <time>2020-06-04T15:24:54Z</time>
      </trkpt>
      <trkpt lat="47.008" lon="-2.02725">
        <ele>1</ele>
        <time>2020-06-04T15:24:55Z</time>
      </trkpt>
      <trkpt lat="47.00805" lon="-2.02727">
        <ele>1</ele>
        <time>2020-06-04T15:24:56Z</time>
      </trkpt>
      <trkpt lat="47.0081" lon="-2.02728">
        <ele>1</ele>
        <time>2020-06-04T15:24:57Z</time>
      </trkpt>
      <trkpt lat="47.00815" lon="-2.02731">
        <ele>1</ele>
        <time>2020-06-04T15:24:58Z</time>
      </trkpt>
      <trkpt lat="47.0082" lon="-2.02732">
        <ele>1.1</ele>
        <time>2020-06-04T15:24:59Z</time>
      </trkpt>
      <trkpt lat="47.00824" lon="-2.02734">
        <ele>1.1</ele>
        <time>2020-06-04T15:25:00Z</time>
      </trkpt>
      <trkpt lat="47.0083" lon="-2.02734">
        <ele>1.1</ele>
        <time>2020-06-04T15:25:01Z</time>
      </trkpt>
      <trkpt lat="47.00835" lon="-2.02734">
        <ele>1.1</ele>
        <time>2020-06-04T15:25:02Z</time>
      </trkpt>
      <trkpt lat="47.00839" lon="-2.02736">
        <ele>1.1</ele>
        <time>2020-06-04T15:25:03Z</time>
      </trkpt>
      <trkpt lat="47.00844" lon="-2.02737">
        <ele>1.1</ele>
        <time>2020-06-04T15:25:04Z</time>
      </trkpt>
      <trkpt lat="47.00849" lon="-2.02736">
        <ele>1.2</ele>
        <time>2020-06-04T15:25:05Z</time>
      </trkpt>
      <trkpt lat="47.00854" lon="-2.02736">
        <ele>1.2</ele>
        <time>2020-06-04T15:25:06Z</time>
      </trkpt>
      <trkpt lat="47.00858" lon="-2.02737">
        <ele>1.2</ele>
        <time>2020-06-04T15:25:07Z</time>
      </trkpt>
      <trkpt lat="47.00863" lon="-2.02737">
        <ele>1.2</ele>
        <time>2020-06-04T15:25:08Z</time>
      </trkpt>
      <trkpt lat="47.00868" lon="-2.02737">
        <ele>1.3</ele>
        <time>2020-06-04T15:25:09Z</time>
      </trkpt>
      <trkpt lat="47.00872" lon="-2.02738">
        <ele>1.3</ele>
        <time>2020-06-04T15:25:10Z</time>
      </trkpt>
      <trkpt lat="47.00878" lon="-2.02737">
        <ele>1.3</ele>
        <time>2020-06-04T15:25:11Z</time>
      </trkpt>
      <trkpt lat="47.00883" lon="-2.02738">
        <ele>1.4</ele>
        <time>2020-06-04T15:25:12Z</time>
      </trkpt>
      <trkpt lat="47.00888" lon="-2.02739">
        <ele>1.4</ele>
        <time>2020-06-04T15:25:13Z</time>
      </trkpt>
      <trkpt lat="47.00893" lon="-2.0274">
        <ele>1.4</ele>
        <time>2020-06-04T15:25:14Z</time>
      </trkpt>
      <trkpt lat="47.00897" lon="-2.0274">
        <ele>1.5</ele>
        <time>2020-06-04T15:25:15Z</time>
      </trkpt>
      <trkpt lat="47.00901" lon="-2.0274">
        <ele>1.5</ele>
        <time>2020-06-04T15:25:16Z</time>
      </trkpt>
      <trkpt lat="47.00905" lon="-2.0274">
        <ele>1.5</ele>
        <time>2020-06-04T15:25:17Z</time>
      </trkpt>
      <trkpt lat="47.00909" lon="-2.0274">
        <ele>1.6</ele>
        <time>2020-06-04T15:25:18Z</time>
      </trkpt>
      <trkpt lat="47.00913" lon="-2.02739">
        <ele>1.6</ele>
        <time>2020-06-04T15:25:19Z</time>
      </trkpt>
      <trkpt lat="47.00917" lon="-2.02736">
        <ele>1.6</ele>
        <time>2020-06-04T15:25:20Z</time>
      </trkpt>
      <trkpt lat="47.00918" lon="-2.02731">
        <ele>1.6</ele>
        <time>2020-06-04T15:25:21Z</time>
      </trkpt>
      <trkpt lat="47.00918" lon="-2.02722">
        <ele>1.6</ele>
        <time>2020-06-04T15:25:22Z</time>
      </trkpt>
      <trkpt lat="47.00917" lon="-2.02714">
        <ele>1.6</ele>
        <time>2020-06-04T15:25:23Z</time>
      </trkpt>
      <trkpt lat="47.00916" lon="-2.02706">
        <ele>1.6</ele>
        <time>2020-06-04T15:25:24Z</time>
      </trkpt>
      <trkpt lat="47.00915" lon="-2.02699">
        <ele>1.6</ele>
        <time>2020-06-04T15:25:25Z</time>
      </trkpt>
      <trkpt lat="47.00914" lon="-2.02691">
        <ele>1.6</ele>
        <time>2020-06-04T15:25:26Z</time>
      </trkpt>
      <trkpt lat="47.00913" lon="-2.02681">
        <ele>1.6</ele>
        <time>2020-06-04T15:25:27Z</time>
      </trkpt>
      <trkpt lat="47.00913" lon="-2.02672">
        <ele>1.6</ele>
        <time>2020-06-04T15:25:28Z</time>
      </trkpt>
      <trkpt lat="47.00912" lon="-2.02662">
        <ele>1.6</ele>
        <time>2020-06-04T15:25:29Z</time>
      </trkpt>
      <trkpt lat="47.00912" lon="-2.02653">
        <ele>1.6</ele>
        <time>2020-06-04T15:25:30Z</time>
      </trkpt>
      <trkpt lat="47.00913" lon="-2.02645">
        <ele>1.6</ele>
        <time>2020-06-04T15:25:31Z</time>
      </trkpt>
      <trkpt lat="47.00914" lon="-2.02637">
        <ele>1.6</ele>
        <time>2020-06-04T15:25:32Z</time>
      </trkpt>
      <trkpt lat="47.00915" lon="-2.02629">
        <ele>1.6</ele>
        <time>2020-06-04T15:25:33Z</time>
      </trkpt>
      <trkpt lat="47.00916" lon="-2.0262">
        <ele>1.6</ele>
        <time>2020-06-04T15:25:34Z</time>
      </trkpt>
      <trkpt lat="47.00917" lon="-2.02613">
        <ele>1.6</ele>
        <time>2020-06-04T15:25:35Z</time>
      </trkpt>
      <trkpt lat="47.00918" lon="-2.02606">
        <ele>1.6</ele>
        <time>2020-06-04T15:25:36Z</time>
      </trkpt>
      <trkpt lat="47.00919" lon="-2.02599">
        <ele>1.6</ele>
        <time>2020-06-04T15:25:37Z</time>
      </trkpt>
      <trkpt lat="47.00921" lon="-2.02591">
        <ele>1.6</ele>
        <time>2020-06-04T15:25:38Z</time>
      </trkpt>
      <trkpt lat="47.00922" lon="-2.02584">
        <ele>1.6</ele>
        <time>2020-06-04T15:25:39Z</time>
      </trkpt>
      <trkpt lat="47.00924" lon="-2.02576">
        <ele>1.6</ele>
        <time>2020-06-04T15:25:40Z</time>
      </trkpt>
      <trkpt lat="47.00926" lon="-2.02568">
        <ele>1.6</ele>
        <time>2020-06-04T15:25:41Z</time>
      </trkpt>
      <trkpt lat="47.00928" lon="-2.0256">
        <ele>1.6</ele>
        <time>2020-06-04T15:25:42Z</time>
      </trkpt>
      <trkpt lat="47.0093" lon="-2.02554">
        <ele>1.6</ele>
        <time>2020-06-04T15:25:43Z</time>
      </trkpt>
      <trkpt lat="47.00932" lon="-2.02547">
        <ele>1.6</ele>
        <time>2020-06-04T15:25:44Z</time>
      </trkpt>
      <trkpt lat="47.00934" lon="-2.0254">
        <ele>1.6</ele>
        <time>2020-06-04T15:25:45Z</time>
      </trkpt>
      <trkpt lat="47.00935" lon="-2.02533">
        <ele>1.6</ele>
        <time>2020-06-04T15:25:46Z</time>
      </trkpt>
      <trkpt lat="47.00937" lon="-2.02526">
        <ele>1.6</ele>
        <time>2020-06-04T15:25:47Z</time>
      </trkpt>
      <trkpt lat="47.00939" lon="-2.02519">
        <ele>1.6</ele>
        <time>2020-06-04T15:25:48Z</time>
      </trkpt>
      <trkpt lat="47.00942" lon="-2.02511">
        <ele>1.6</ele>
        <time>2020-06-04T15:25:49Z</time>
      </trkpt>
      <trkpt lat="47.00944" lon="-2.02503">
        <ele>1.6</ele>
        <time>2020-06-04T15:25:50Z</time>
      </trkpt>
      <trkpt lat="47.00946" lon="-2.02497">
        <ele>1.6</ele>
        <time>2020-06-04T15:25:51Z</time>
      </trkpt>
      <trkpt lat="47.00949" lon="-2.0249">
        <ele>1.6</ele>
        <time>2020-06-04T15:25:52Z</time>
      </trkpt>
      <trkpt lat="47.00952" lon="-2.02484">
        <ele>1.6</ele>
        <time>2020-06-04T15:25:53Z</time>
      </trkpt>
      <trkpt lat="47.00954" lon="-2.02477">
        <ele>1.6</ele>
        <time>2020-06-04T15:25:54Z</time>
      </trkpt>
      <trkpt lat="47.00957" lon="-2.02469">
        <ele>1.6</ele>
        <time>2020-06-04T15:25:55Z</time>
      </trkpt>
      <trkpt lat="47.0096" lon="-2.02462">
        <ele>1.6</ele>
        <time>2020-06-04T15:25:56Z</time>
      </trkpt>
      <trkpt lat="47.00962" lon="-2.02455">
        <ele>1.6</ele>
        <time>2020-06-04T15:25:57Z</time>
      </trkpt>
      <trkpt lat="47.00965" lon="-2.02448">
        <ele>1.6</ele>
        <time>2020-06-04T15:25:58Z</time>
      </trkpt>
      <trkpt lat="47.00967" lon="-2.02443">
        <ele>1.6</ele>
        <time>2020-06-04T15:25:59Z</time>
      </trkpt>
      <trkpt lat="47.00969" lon="-2.02437">
        <ele>1.6</ele>
        <time>2020-06-04T15:26:00Z</time>
      </trkpt>
      <trkpt lat="47.00971" lon="-2.02429">
        <ele>1.6</ele>
        <time>2020-06-04T15:26:01Z</time>
      </trkpt>
      <trkpt lat="47.00973" lon="-2.02423">
        <ele>1.6</ele>
        <time>2020-06-04T15:26:02Z</time>
      </trkpt>
      <trkpt lat="47.00975" lon="-2.02416">
        <ele>1.6</ele>
        <time>2020-06-04T15:26:03Z</time>
      </trkpt>
      <trkpt lat="47.00977" lon="-2.0241">
        <ele>1.6</ele>
        <time>2020-06-04T15:26:04Z</time>
      </trkpt>
      <trkpt lat="47.00979" lon="-2.02403">
        <ele>1.7</ele>
        <time>2020-06-04T15:26:05Z</time>
      </trkpt>
      <trkpt lat="47.00981" lon="-2.02396">
        <ele>1.7</ele>
        <time>2020-06-04T15:26:06Z</time>
      </trkpt>
      <trkpt lat="47.00983" lon="-2.02389">
        <ele>1.7</ele>
        <time>2020-06-04T15:26:07Z</time>
      </trkpt>
      <trkpt lat="47.00986" lon="-2.02382">
        <ele>1.7</ele>
        <time>2020-06-04T15:26:08Z</time>
      </trkpt>
      <trkpt lat="47.00988" lon="-2.02374">
        <ele>1.7</ele>
        <time>2020-06-04T15:26:09Z</time>
      </trkpt>
      <trkpt lat="47.0099" lon="-2.02367">
        <ele>1.7</ele>
        <time>2020-06-04T15:26:10Z</time>
      </trkpt>
      <trkpt lat="47.00992" lon="-2.0236">
        <ele>1.7</ele>
        <time>2020-06-04T15:26:11Z</time>
      </trkpt>
      <trkpt lat="47.00995" lon="-2.02356">
        <ele>1.7</ele>
        <time>2020-06-04T15:26:12Z</time>
      </trkpt>
      <trkpt lat="47.00997" lon="-2.02348">
        <ele>1.7</ele>
        <time>2020-06-04T15:26:13Z</time>
      </trkpt>
      <trkpt lat="47.01" lon="-2.02341">
        <ele>1.8</ele>
        <time>2020-06-04T15:26:14Z</time>
      </trkpt>
      <trkpt lat="47.01002" lon="-2.02335">
        <ele>1.8</ele>
        <time>2020-06-04T15:26:15Z</time>
      </trkpt>
      <trkpt lat="47.01004" lon="-2.02328">
        <ele>1.8</ele>
        <time>2020-06-04T15:26:16Z</time>
      </trkpt>
      <trkpt lat="47.01005" lon="-2.02321">
        <ele>1.8</ele>
        <time>2020-06-04T15:26:17Z</time>
      </trkpt>
      <trkpt lat="47.01008" lon="-2.02314">
        <ele>1.9</ele>
        <time>2020-06-04T15:26:18Z</time>
      </trkpt>
      <trkpt lat="47.01009" lon="-2.02307">
        <ele>1.9</ele>
        <time>2020-06-04T15:26:19Z</time>
      </trkpt>
      <trkpt lat="47.01012" lon="-2.023">
        <ele>1.9</ele>
        <time>2020-06-04T15:26:20Z</time>
      </trkpt>
      <trkpt lat="47.01014" lon="-2.02293">
        <ele>1.9</ele>
        <time>2020-06-04T15:26:21Z</time>
      </trkpt>
      <trkpt lat="47.01017" lon="-2.02285">
        <ele>1.9</ele>
        <time>2020-06-04T15:26:22Z</time>
      </trkpt>
      <trkpt lat="47.01019" lon="-2.02279">
        <ele>1.9</ele>
        <time>2020-06-04T15:26:23Z</time>
      </trkpt>
      <trkpt lat="47.01022" lon="-2.02271">
        <ele>1.9</ele>
        <time>2020-06-04T15:26:24Z</time>
      </trkpt>
      <trkpt lat="47.01024" lon="-2.02264">
        <ele>1.9</ele>
        <time>2020-06-04T15:26:25Z</time>
      </trkpt>
      <trkpt lat="47.01027" lon="-2.02257">
        <ele>1.9</ele>
        <time>2020-06-04T15:26:26Z</time>
      </trkpt>
      <trkpt lat="47.01029" lon="-2.02251">
        <ele>1.9</ele>
        <time>2020-06-04T15:26:27Z</time>
      </trkpt>
      <trkpt lat="47.01032" lon="-2.02244">
        <ele>1.9</ele>
        <time>2020-06-04T15:26:28Z</time>
      </trkpt>
      <trkpt lat="47.01034" lon="-2.02238">
        <ele>1.9</ele>
        <time>2020-06-04T15:26:29Z</time>
      </trkpt>
      <trkpt lat="47.01036" lon="-2.02232">
        <ele>1.9</ele>
        <time>2020-06-04T15:26:30Z</time>
      </trkpt>
      <trkpt lat="47.01039" lon="-2.02226">
        <ele>1.9</ele>
        <time>2020-06-04T15:26:31Z</time>
      </trkpt>
      <trkpt lat="47.01041" lon="-2.0222">
        <ele>1.9</ele>
        <time>2020-06-04T15:26:32Z</time>
      </trkpt>
      <trkpt lat="47.01044" lon="-2.02214">
        <ele>1.9</ele>
        <time>2020-06-04T15:26:33Z</time>
      </trkpt>
      <trkpt lat="47.01047" lon="-2.02207">
        <ele>1.9</ele>
        <time>2020-06-04T15:26:34Z</time>
      </trkpt>
      <trkpt lat="47.0105" lon="-2.02199">
        <ele>1.9</ele>
        <time>2020-06-04T15:26:35Z</time>
      </trkpt>
      <trkpt lat="47.01052" lon="-2.02193">
        <ele>1.9</ele>
        <time>2020-06-04T15:26:36Z</time>
      </trkpt>
      <trkpt lat="47.01055" lon="-2.02186">
        <ele>1.9</ele>
        <time>2020-06-04T15:26:37Z</time>
      </trkpt>
      <trkpt lat="47.01058" lon="-2.02178">
        <ele>1.9</ele>
        <time>2020-06-04T15:26:38Z</time>
      </trkpt>
      <trkpt lat="47.0106" lon="-2.02171">
        <ele>1.9</ele>
        <time>2020-06-04T15:26:39Z</time>
      </trkpt>
      <trkpt lat="47.01062" lon="-2.02163">
        <ele>1.8</ele>
        <time>2020-06-04T15:26:40Z</time>
      </trkpt>
      <trkpt lat="47.01064" lon="-2.02155">
        <ele>1.8</ele>
        <time>2020-06-04T15:26:41Z</time>
      </trkpt>
      <trkpt lat="47.01066" lon="-2.02147">
        <ele>1.8</ele>
        <time>2020-06-04T15:26:42Z</time>
      </trkpt>
      <trkpt lat="47.01068" lon="-2.0214">
        <ele>1.8</ele>
        <time>2020-06-04T15:26:43Z</time>
      </trkpt>
      <trkpt lat="47.01071" lon="-2.02132">
        <ele>1.7</ele>
        <time>2020-06-04T15:26:44Z</time>
      </trkpt>
      <trkpt lat="47.01074" lon="-2.02125">
        <ele>1.7</ele>
        <time>2020-06-04T15:26:45Z</time>
      </trkpt>
      <trkpt lat="47.01076" lon="-2.02117">
        <ele>1.7</ele>
        <time>2020-06-04T15:26:46Z</time>
      </trkpt>
      <trkpt lat="47.01078" lon="-2.0211">
        <ele>1.7</ele>
        <time>2020-06-04T15:26:47Z</time>
      </trkpt>
      <trkpt lat="47.01081" lon="-2.02104">
        <ele>1.7</ele>
        <time>2020-06-04T15:26:48Z</time>
      </trkpt>
      <trkpt lat="47.01083" lon="-2.02097">
        <ele>1.8</ele>
        <time>2020-06-04T15:26:49Z</time>
      </trkpt>
      <trkpt lat="47.01085" lon="-2.0209">
        <ele>1.8</ele>
        <time>2020-06-04T15:26:50Z</time>
      </trkpt>
      <trkpt lat="47.01087" lon="-2.02082">
        <ele>1.8</ele>
        <time>2020-06-04T15:26:51Z</time>
      </trkpt>
      <trkpt lat="47.0109" lon="-2.02074">
        <ele>1.8</ele>
        <time>2020-06-04T15:26:52Z</time>
      </trkpt>
      <trkpt lat="47.01093" lon="-2.02067">
        <ele>1.9</ele>
        <time>2020-06-04T15:26:53Z</time>
      </trkpt>
      <trkpt lat="47.01095" lon="-2.0206">
        <ele>1.9</ele>
        <time>2020-06-04T15:26:54Z</time>
      </trkpt>
      <trkpt lat="47.01098" lon="-2.02052">
        <ele>1.9</ele>
        <time>2020-06-04T15:26:55Z</time>
      </trkpt>
      <trkpt lat="47.01101" lon="-2.02045">
        <ele>2</ele>
        <time>2020-06-04T15:26:56Z</time>
      </trkpt>
      <trkpt lat="47.01103" lon="-2.02037">
        <ele>2</ele>
        <time>2020-06-04T15:26:57Z</time>
      </trkpt>
      <trkpt lat="47.01106" lon="-2.0203">
        <ele>2</ele>
        <time>2020-06-04T15:26:58Z</time>
      </trkpt>
      <trkpt lat="47.01109" lon="-2.02023">
        <ele>2.1</ele>
        <time>2020-06-04T15:26:59Z</time>
      </trkpt>
      <trkpt lat="47.01112" lon="-2.02015">
        <ele>2.1</ele>
        <time>2020-06-04T15:27:00Z</time>
      </trkpt>
      <trkpt lat="47.01115" lon="-2.02007">
        <ele>2.1</ele>
        <time>2020-06-04T15:27:01Z</time>
      </trkpt>
      <trkpt lat="47.01117" lon="-2.02">
        <ele>2.2</ele>
        <time>2020-06-04T15:27:02Z</time>
      </trkpt>
      <trkpt lat="47.01121" lon="-2.01994">
        <ele>2.2</ele>
        <time>2020-06-04T15:27:03Z</time>
      </trkpt>
      <trkpt lat="47.01126" lon="-2.01991">
        <ele>2.2</ele>
        <time>2020-06-04T15:27:04Z</time>
      </trkpt>
      <trkpt lat="47.0113" lon="-2.01989">
        <ele>2.2</ele>
        <time>2020-06-04T15:27:05Z</time>
      </trkpt>
      <trkpt lat="47.01134" lon="-2.01987">
        <ele>2.3</ele>
        <time>2020-06-04T15:27:06Z</time>
      </trkpt>
      <trkpt lat="47.01138" lon="-2.01985">
        <ele>2.3</ele>
        <time>2020-06-04T15:27:07Z</time>
      </trkpt>
      <trkpt lat="47.01143" lon="-2.01982">
        <ele>2.3</ele>
        <time>2020-06-04T15:27:08Z</time>
      </trkpt>
      <trkpt lat="47.01147" lon="-2.01979">
        <ele>2.3</ele>
        <time>2020-06-04T15:27:09Z</time>
      </trkpt>
      <trkpt lat="47.01151" lon="-2.01977">
        <ele>2.4</ele>
        <time>2020-06-04T15:27:10Z</time>
      </trkpt>
      <trkpt lat="47.01154" lon="-2.01973">
        <ele>2.4</ele>
        <time>2020-06-04T15:27:11Z</time>
      </trkpt>
      <trkpt lat="47.01159" lon="-2.01969">
        <ele>2.5</ele>
        <time>2020-06-04T15:27:12Z</time>
      </trkpt>
      <trkpt lat="47.01163" lon="-2.01965">
        <ele>2.5</ele>
        <time>2020-06-04T15:27:13Z</time>
      </trkpt>
      <trkpt lat="47.01166" lon="-2.01961">
        <ele>2.6</ele>
        <time>2020-06-04T15:27:14Z</time>
      </trkpt>
      <trkpt lat="47.01168" lon="-2.01956">
        <ele>2.6</ele>
        <time>2020-06-04T15:27:15Z</time>
      </trkpt>
      <trkpt lat="47.0117" lon="-2.0195">
        <ele>2.7</ele>
        <time>2020-06-04T15:27:16Z</time>
      </trkpt>
      <trkpt lat="47.01172" lon="-2.01945">
        <ele>2.7</ele>
        <time>2020-06-04T15:27:17Z</time>
      </trkpt>
      <trkpt lat="47.01174" lon="-2.01939">
        <ele>2.8</ele>
        <time>2020-06-04T15:27:18Z</time>
      </trkpt>
      <trkpt lat="47.01175" lon="-2.01934">
        <ele>2.9</ele>
        <time>2020-06-04T15:27:19Z</time>
      </trkpt>
      <trkpt lat="47.01177" lon="-2.01929">
        <ele>2.9</ele>
        <time>2020-06-04T15:27:20Z</time>
      </trkpt>
      <trkpt lat="47.01178" lon="-2.01924">
        <ele>3</ele>
        <time>2020-06-04T15:27:21Z</time>
      </trkpt>
      <trkpt lat="47.0118" lon="-2.0192">
        <ele>3</ele>
        <time>2020-06-04T15:27:22Z</time>
      </trkpt>
      <trkpt lat="47.01182" lon="-2.01915">
        <ele>3.1</ele>
        <time>2020-06-04T15:27:23Z</time>
      </trkpt>
      <trkpt lat="47.01183" lon="-2.0191">
        <ele>3.1</ele>
        <time>2020-06-04T15:27:24Z</time>
      </trkpt>
      <trkpt lat="47.01186" lon="-2.01904">
        <ele>3.2</ele>
        <time>2020-06-04T15:27:25Z</time>
      </trkpt>
      <trkpt lat="47.01187" lon="-2.01899">
        <ele>3.2</ele>
        <time>2020-06-04T15:27:26Z</time>
      </trkpt>
      <trkpt lat="47.01188" lon="-2.01895">
        <ele>3.2</ele>
        <time>2020-06-04T15:27:27Z</time>
      </trkpt>
      <trkpt lat="47.01189" lon="-2.01889">
        <ele>3.2</ele>
        <time>2020-06-04T15:27:28Z</time>
      </trkpt>
      <trkpt lat="47.01188" lon="-2.01883">
        <ele>3.3</ele>
        <time>2020-06-04T15:27:29Z</time>
      </trkpt>
      <trkpt lat="47.01188" lon="-2.01877">
        <ele>3.3</ele>
        <time>2020-06-04T15:27:30Z</time>
      </trkpt>
      <trkpt lat="47.01187" lon="-2.0187">
        <ele>3.2</ele>
        <time>2020-06-04T15:27:31Z</time>
      </trkpt>
      <trkpt lat="47.01187" lon="-2.01863">
        <ele>3.2</ele>
        <time>2020-06-04T15:27:32Z</time>
      </trkpt>
      <trkpt lat="47.01187" lon="-2.01856">
        <ele>3.2</ele>
        <time>2020-06-04T15:27:33Z</time>
      </trkpt>
      <trkpt lat="47.01187" lon="-2.01848">
        <ele>3.1</ele>
        <time>2020-06-04T15:27:34Z</time>
      </trkpt>
      <trkpt lat="47.01189" lon="-2.01841">
        <ele>3.1</ele>
        <time>2020-06-04T15:27:35Z</time>
      </trkpt>
      <trkpt lat="47.0119" lon="-2.01834">
        <ele>3.1</ele>
        <time>2020-06-04T15:27:36Z</time>
      </trkpt>
      <trkpt lat="47.0119" lon="-2.01826">
        <ele>3</ele>
        <time>2020-06-04T15:27:37Z</time>
      </trkpt>
      <trkpt lat="47.0119" lon="-2.01818">
        <ele>3</ele>
        <time>2020-06-04T15:27:38Z</time>
      </trkpt>
      <trkpt lat="47.0119" lon="-2.01809">
        <ele>2.9</ele>
        <time>2020-06-04T15:27:39Z</time>
      </trkpt>
      <trkpt lat="47.0119" lon="-2.018">
        <ele>2.9</ele>
        <time>2020-06-04T15:27:40Z</time>
      </trkpt>
      <trkpt lat="47.01189" lon="-2.01791">
        <ele>2.8</ele>
        <time>2020-06-04T15:27:41Z</time>
      </trkpt>
      <trkpt lat="47.01188" lon="-2.01781">
        <ele>2.7</ele>
        <time>2020-06-04T15:27:42Z</time>
      </trkpt>
      <trkpt lat="47.01188" lon="-2.01772">
        <ele>2.5</ele>
        <time>2020-06-04T15:27:43Z</time>
      </trkpt>
      <trkpt lat="47.01189" lon="-2.01763">
        <ele>2.4</ele>
        <time>2020-06-04T15:27:44Z</time>
      </trkpt>
      <trkpt lat="47.0119" lon="-2.01752">
        <ele>2.3</ele>
        <time>2020-06-04T15:27:45Z</time>
      </trkpt>
      <trkpt lat="47.0119" lon="-2.01743">
        <ele>2.2</ele>
        <time>2020-06-04T15:27:46Z</time>
      </trkpt>
      <trkpt lat="47.01191" lon="-2.01736">
        <ele>2.1</ele>
        <time>2020-06-04T15:27:47Z</time>
      </trkpt>
      <trkpt lat="47.01192" lon="-2.01729">
        <ele>2.1</ele>
        <time>2020-06-04T15:27:48Z</time>
      </trkpt>
      <trkpt lat="47.01192" lon="-2.01723">
        <ele>2</ele>
        <time>2020-06-04T15:27:49Z</time>
      </trkpt>
      <trkpt lat="47.01193" lon="-2.01718">
        <ele>2</ele>
        <time>2020-06-04T15:27:50Z</time>
      </trkpt>
      <trkpt lat="47.01195" lon="-2.01713">
        <ele>2</ele>
        <time>2020-06-04T15:27:51Z</time>
      </trkpt>
      <trkpt lat="47.01197" lon="-2.01711">
        <ele>2</ele>
        <time>2020-06-04T15:27:52Z</time>
      </trkpt>
      <trkpt lat="47.01201" lon="-2.01711">
        <ele>1.9</ele>
        <time>2020-06-04T15:27:53Z</time>
      </trkpt>
      <trkpt lat="47.01205" lon="-2.01713">
        <ele>1.9</ele>
        <time>2020-06-04T15:27:54Z</time>
      </trkpt>
      <trkpt lat="47.01209" lon="-2.01711">
        <ele>1.9</ele>
        <time>2020-06-04T15:27:55Z</time>
      </trkpt>
      <trkpt lat="47.01212" lon="-2.01709">
        <ele>1.9</ele>
        <time>2020-06-04T15:27:56Z</time>
      </trkpt>
      <trkpt lat="47.01218" lon="-2.01705">
        <ele>1.9</ele>
        <time>2020-06-04T15:27:57Z</time>
      </trkpt>
      <trkpt lat="47.01221" lon="-2.017">
        <ele>1.9</ele>
        <time>2020-06-04T15:27:58Z</time>
      </trkpt>
      <trkpt lat="47.01223" lon="-2.01694">
        <ele>1.9</ele>
        <time>2020-06-04T15:27:59Z</time>
      </trkpt>
      <trkpt lat="47.01226" lon="-2.01687">
        <ele>1.9</ele>
        <time>2020-06-04T15:28:00Z</time>
      </trkpt>
      <trkpt lat="47.01228" lon="-2.01681">
        <ele>1.9</ele>
        <time>2020-06-04T15:28:01Z</time>
      </trkpt>
      <trkpt lat="47.01231" lon="-2.01675">
        <ele>1.9</ele>
        <time>2020-06-04T15:28:02Z</time>
      </trkpt>
      <trkpt lat="47.01233" lon="-2.01669">
        <ele>1.9</ele>
        <time>2020-06-04T15:28:03Z</time>
      </trkpt>
      <trkpt lat="47.01236" lon="-2.01662">
        <ele>1.8</ele>
        <time>2020-06-04T15:28:04Z</time>
      </trkpt>
      <trkpt lat="47.0124" lon="-2.01655">
        <ele>1.8</ele>
        <time>2020-06-04T15:28:05Z</time>
      </trkpt>
      <trkpt lat="47.01242" lon="-2.01649">
        <ele>1.8</ele>
        <time>2020-06-04T15:28:06Z</time>
      </trkpt>
      <trkpt lat="47.01243" lon="-2.01642">
        <ele>1.8</ele>
        <time>2020-06-04T15:28:07Z</time>
      </trkpt>
      <trkpt lat="47.01246" lon="-2.01635">
        <ele>1.8</ele>
        <time>2020-06-04T15:28:08Z</time>
      </trkpt>
      <trkpt lat="47.01248" lon="-2.01629">
        <ele>1.8</ele>
        <time>2020-06-04T15:28:09Z</time>
      </trkpt>
      <trkpt lat="47.01251" lon="-2.01622">
        <ele>1.8</ele>
        <time>2020-06-04T15:28:10Z</time>
      </trkpt>
      <trkpt lat="47.01253" lon="-2.01615">
        <ele>1.8</ele>
        <time>2020-06-04T15:28:11Z</time>
      </trkpt>
      <trkpt lat="47.01255" lon="-2.01608">
        <ele>1.8</ele>
        <time>2020-06-04T15:28:12Z</time>
      </trkpt>
      <trkpt lat="47.01258" lon="-2.01601">
        <ele>1.9</ele>
        <time>2020-06-04T15:28:13Z</time>
      </trkpt>
      <trkpt lat="47.01262" lon="-2.01596">
        <ele>1.9</ele>
        <time>2020-06-04T15:28:14Z</time>
      </trkpt>
      <trkpt lat="47.01265" lon="-2.0159">
        <ele>1.9</ele>
        <time>2020-06-04T15:28:15Z</time>
      </trkpt>
      <trkpt lat="47.01267" lon="-2.01584">
        <ele>1.9</ele>
        <time>2020-06-04T15:28:16Z</time>
      </trkpt>
      <trkpt lat="47.01269" lon="-2.01579">
        <ele>1.9</ele>
        <time>2020-06-04T15:28:17Z</time>
      </trkpt>
      <trkpt lat="47.01272" lon="-2.01573">
        <ele>1.9</ele>
        <time>2020-06-04T15:28:18Z</time>
      </trkpt>
      <trkpt lat="47.01275" lon="-2.01568">
        <ele>1.8</ele>
        <time>2020-06-04T15:28:19Z</time>
      </trkpt>
      <trkpt lat="47.01279" lon="-2.01562">
        <ele>1.8</ele>
        <time>2020-06-04T15:28:20Z</time>
      </trkpt>
      <trkpt lat="47.01283" lon="-2.01556">
        <ele>1.8</ele>
        <time>2020-06-04T15:28:21Z</time>
      </trkpt>
      <trkpt lat="47.01285" lon="-2.01551">
        <ele>1.8</ele>
        <time>2020-06-04T15:28:22Z</time>
      </trkpt>
      <trkpt lat="47.01289" lon="-2.01548">
        <ele>1.8</ele>
        <time>2020-06-04T15:28:23Z</time>
      </trkpt>
      <trkpt lat="47.01291" lon="-2.01543">
        <ele>1.7</ele>
        <time>2020-06-04T15:28:24Z</time>
      </trkpt>
      <trkpt lat="47.01294" lon="-2.01538">
        <ele>1.7</ele>
        <time>2020-06-04T15:28:25Z</time>
      </trkpt>
      <trkpt lat="47.01297" lon="-2.01533">
        <ele>1.7</ele>
        <time>2020-06-04T15:28:26Z</time>
      </trkpt>
      <trkpt lat="47.01301" lon="-2.01528">
        <ele>1.7</ele>
        <time>2020-06-04T15:28:27Z</time>
      </trkpt>
      <trkpt lat="47.01303" lon="-2.01523">
        <ele>1.7</ele>
        <time>2020-06-04T15:28:28Z</time>
      </trkpt>
      <trkpt lat="47.01306" lon="-2.01517">
        <ele>1.7</ele>
        <time>2020-06-04T15:28:29Z</time>
      </trkpt>
      <trkpt lat="47.01308" lon="-2.01512">
        <ele>1.7</ele>
        <time>2020-06-04T15:28:30Z</time>
      </trkpt>
      <trkpt lat="47.01312" lon="-2.01507">
        <ele>1.8</ele>
        <time>2020-06-04T15:28:31Z</time>
      </trkpt>
      <trkpt lat="47.01314" lon="-2.01503">
        <ele>1.8</ele>
        <time>2020-06-04T15:28:32Z</time>
      </trkpt>
      <trkpt lat="47.01315" lon="-2.01499">
        <ele>1.8</ele>
        <time>2020-06-04T15:28:33Z</time>
      </trkpt>
      <trkpt lat="47.01317" lon="-2.01493">
        <ele>1.8</ele>
        <time>2020-06-04T15:28:34Z</time>
      </trkpt>
      <trkpt lat="47.01318" lon="-2.01487">
        <ele>1.8</ele>
        <time>2020-06-04T15:28:35Z</time>
      </trkpt>
      <trkpt lat="47.0132" lon="-2.01481">
        <ele>1.8</ele>
        <time>2020-06-04T15:28:36Z</time>
      </trkpt>
      <trkpt lat="47.01322" lon="-2.01474">
        <ele>1.8</ele>
        <time>2020-06-04T15:28:37Z</time>
      </trkpt>
      <trkpt lat="47.01324" lon="-2.01467">
        <ele>1.8</ele>
        <time>2020-06-04T15:28:38Z</time>
      </trkpt>
      <trkpt lat="47.01326" lon="-2.01461">
        <ele>1.8</ele>
        <time>2020-06-04T15:28:39Z</time>
      </trkpt>
      <trkpt lat="47.01327" lon="-2.01458">
        <ele>1.8</ele>
        <time>2020-06-04T15:28:40Z</time>
      </trkpt>
      <trkpt lat="47.0133" lon="-2.01453">
        <ele>1.7</ele>
        <time>2020-06-04T15:28:41Z</time>
      </trkpt>
      <trkpt lat="47.01332" lon="-2.01447">
        <ele>1.7</ele>
        <time>2020-06-04T15:28:42Z</time>
      </trkpt>
      <trkpt lat="47.01335" lon="-2.01441">
        <ele>1.7</ele>
        <time>2020-06-04T15:28:43Z</time>
      </trkpt>
      <trkpt lat="47.01337" lon="-2.01437">
        <ele>1.7</ele>
        <time>2020-06-04T15:28:44Z</time>
      </trkpt>
      <trkpt lat="47.0134" lon="-2.01431">
        <ele>1.7</ele>
        <time>2020-06-04T15:28:45Z</time>
      </trkpt>
      <trkpt lat="47.01341" lon="-2.01425">
        <ele>1.7</ele>
        <time>2020-06-04T15:28:46Z</time>
      </trkpt>
      <trkpt lat="47.01344" lon="-2.0142">
        <ele>1.7</ele>
        <time>2020-06-04T15:28:47Z</time>
      </trkpt>
      <trkpt lat="47.01346" lon="-2.01416">
        <ele>1.7</ele>
        <time>2020-06-04T15:28:48Z</time>
      </trkpt>
      <trkpt lat="47.0135" lon="-2.0141">
        <ele>1.7</ele>
        <time>2020-06-04T15:28:49Z</time>
      </trkpt>
      <trkpt lat="47.01354" lon="-2.01405">
        <ele>1.7</ele>
        <time>2020-06-04T15:28:50Z</time>
      </trkpt>
      <trkpt lat="47.01357" lon="-2.01399">
        <ele>1.7</ele>
        <time>2020-06-04T15:28:51Z</time>
      </trkpt>
      <trkpt lat="47.01361" lon="-2.01393">
        <ele>1.7</ele>
        <time>2020-06-04T15:28:52Z</time>
      </trkpt>
      <trkpt lat="47.01364" lon="-2.01388">
        <ele>1.7</ele>
        <time>2020-06-04T15:28:53Z</time>
      </trkpt>
      <trkpt lat="47.01368" lon="-2.01382">
        <ele>1.7</ele>
        <time>2020-06-04T15:28:54Z</time>
      </trkpt>
      <trkpt lat="47.01371" lon="-2.01376">
        <ele>1.7</ele>
        <time>2020-06-04T15:28:55Z</time>
      </trkpt>
      <trkpt lat="47.01375" lon="-2.01371">
        <ele>1.7</ele>
        <time>2020-06-04T15:28:56Z</time>
      </trkpt>
      <trkpt lat="47.01378" lon="-2.01366">
        <ele>1.7</ele>
        <time>2020-06-04T15:28:57Z</time>
      </trkpt>
      <trkpt lat="47.0138" lon="-2.0136">
        <ele>1.8</ele>
        <time>2020-06-04T15:28:58Z</time>
      </trkpt>
      <trkpt lat="47.01383" lon="-2.01355">
        <ele>1.8</ele>
        <time>2020-06-04T15:28:59Z</time>
      </trkpt>
      <trkpt lat="47.01386" lon="-2.01349">
        <ele>1.8</ele>
        <time>2020-06-04T15:29:00Z</time>
      </trkpt>
      <trkpt lat="47.01388" lon="-2.01344">
        <ele>1.8</ele>
        <time>2020-06-04T15:29:01Z</time>
      </trkpt>
      <trkpt lat="47.01392" lon="-2.01338">
        <ele>1.9</ele>
        <time>2020-06-04T15:29:02Z</time>
      </trkpt>
      <trkpt lat="47.01395" lon="-2.01333">
        <ele>1.9</ele>
        <time>2020-06-04T15:29:03Z</time>
      </trkpt>
      <trkpt lat="47.01399" lon="-2.01327">
        <ele>2</ele>
        <time>2020-06-04T15:29:04Z</time>
      </trkpt>
      <trkpt lat="47.01404" lon="-2.01322">
        <ele>2.1</ele>
        <time>2020-06-04T15:29:05Z</time>
      </trkpt>
      <trkpt lat="47.01408" lon="-2.01317">
        <ele>2.1</ele>
        <time>2020-06-04T15:29:06Z</time>
      </trkpt>
      <trkpt lat="47.01411" lon="-2.01311">
        <ele>2.2</ele>
        <time>2020-06-04T15:29:07Z</time>
      </trkpt>
      <trkpt lat="47.01415" lon="-2.01308">
        <ele>2.2</ele>
        <time>2020-06-04T15:29:08Z</time>
      </trkpt>
      <trkpt lat="47.01418" lon="-2.01304">
        <ele>2.3</ele>
        <time>2020-06-04T15:29:09Z</time>
      </trkpt>
      <trkpt lat="47.01421" lon="-2.01301">
        <ele>2.3</ele>
        <time>2020-06-04T15:29:10Z</time>
      </trkpt>
      <trkpt lat="47.01424" lon="-2.01298">
        <ele>2.3</ele>
        <time>2020-06-04T15:29:11Z</time>
      </trkpt>
      <trkpt lat="47.01427" lon="-2.01295">
        <ele>2.3</ele>
        <time>2020-06-04T15:29:12Z</time>
      </trkpt>
      <trkpt lat="47.01431" lon="-2.01297">
        <ele>2.2</ele>
        <time>2020-06-04T15:29:13Z</time>
      </trkpt>
      <trkpt lat="47.01432" lon="-2.01297">
        <ele>2.2</ele>
        <time>2020-06-04T15:29:14Z</time>
      </trkpt>
      <trkpt lat="47.01436" lon="-2.01297">
        <ele>2.2</ele>
        <time>2020-06-04T15:29:15Z</time>
      </trkpt>
      <trkpt lat="47.0144" lon="-2.01298">
        <ele>2.1</ele>
        <time>2020-06-04T15:29:16Z</time>
      </trkpt>
      <trkpt lat="47.01444" lon="-2.01298">
        <ele>2.1</ele>
        <time>2020-06-04T15:29:17Z</time>
      </trkpt>
      <trkpt lat="47.01448" lon="-2.01299">
        <ele>2</ele>
        <time>2020-06-04T15:29:18Z</time>
      </trkpt>
      <trkpt lat="47.01451" lon="-2.01299">
        <ele>1.9</ele>
        <time>2020-06-04T15:29:19Z</time>
      </trkpt>
      <trkpt lat="47.01455" lon="-2.01298">
        <ele>1.8</ele>
        <time>2020-06-04T15:29:20Z</time>
      </trkpt>
      <trkpt lat="47.01459" lon="-2.01297">
        <ele>1.7</ele>
        <time>2020-06-04T15:29:21Z</time>
      </trkpt>
      <trkpt lat="47.01463" lon="-2.01296">
        <ele>1.6</ele>
        <time>2020-06-04T15:29:22Z</time>
      </trkpt>
      <trkpt lat="47.01468" lon="-2.01293">
        <ele>1.5</ele>
        <time>2020-06-04T15:29:23Z</time>
      </trkpt>
      <trkpt lat="47.01471" lon="-2.01291">
        <ele>1.5</ele>
        <time>2020-06-04T15:29:24Z</time>
      </trkpt>
      <trkpt lat="47.01475" lon="-2.01286">
        <ele>1.4</ele>
        <time>2020-06-04T15:29:25Z</time>
      </trkpt>
      <trkpt lat="47.01479" lon="-2.0128">
        <ele>1.3</ele>
        <time>2020-06-04T15:29:26Z</time>
      </trkpt>
      <trkpt lat="47.01483" lon="-2.01275">
        <ele>1.3</ele>
        <time>2020-06-04T15:29:27Z</time>
      </trkpt>
      <trkpt lat="47.01486" lon="-2.01269">
        <ele>1.2</ele>
        <time>2020-06-04T15:29:28Z</time>
      </trkpt>
      <trkpt lat="47.01489" lon="-2.01264">
        <ele>1.2</ele>
        <time>2020-06-04T15:29:29Z</time>
      </trkpt>
      <trkpt lat="47.01493" lon="-2.01258">
        <ele>1.2</ele>
        <time>2020-06-04T15:29:30Z</time>
      </trkpt>
      <trkpt lat="47.01497" lon="-2.01254">
        <ele>1.2</ele>
        <time>2020-06-04T15:29:31Z</time>
      </trkpt>
      <trkpt lat="47.01501" lon="-2.01249">
        <ele>1.2</ele>
        <time>2020-06-04T15:29:32Z</time>
      </trkpt>
      <trkpt lat="47.01504" lon="-2.01243">
        <ele>1.2</ele>
        <time>2020-06-04T15:29:33Z</time>
      </trkpt>
      <trkpt lat="47.01508" lon="-2.01236">
        <ele>1.2</ele>
        <time>2020-06-04T15:29:34Z</time>
      </trkpt>
      <trkpt lat="47.01512" lon="-2.0123">
        <ele>1.2</ele>
        <time>2020-06-04T15:29:35Z</time>
      </trkpt>
      <trkpt lat="47.01515" lon="-2.01225">
        <ele>1.2</ele>
        <time>2020-06-04T15:29:36Z</time>
      </trkpt>
      <trkpt lat="47.01518" lon="-2.0122">
        <ele>1.2</ele>
        <time>2020-06-04T15:29:37Z</time>
      </trkpt>
      <trkpt lat="47.01523" lon="-2.01215">
        <ele>1.2</ele>
        <time>2020-06-04T15:29:38Z</time>
      </trkpt>
      <trkpt lat="47.01525" lon="-2.01211">
        <ele>1.2</ele>
        <time>2020-06-04T15:29:39Z</time>
      </trkpt>
      <trkpt lat="47.01528" lon="-2.01204">
        <ele>1.2</ele>
        <time>2020-06-04T15:29:40Z</time>
      </trkpt>
      <trkpt lat="47.01532" lon="-2.01198">
        <ele>1.2</ele>
        <time>2020-06-04T15:29:41Z</time>
      </trkpt>
      <trkpt lat="47.01535" lon="-2.01192">
        <ele>1.2</ele>
        <time>2020-06-04T15:29:42Z</time>
      </trkpt>
      <trkpt lat="47.01538" lon="-2.01187">
        <ele>1.2</ele>
        <time>2020-06-04T15:29:43Z</time>
      </trkpt>
      <trkpt lat="47.01542" lon="-2.01183">
        <ele>1.2</ele>
        <time>2020-06-04T15:29:44Z</time>
      </trkpt>
      <trkpt lat="47.01545" lon="-2.01179">
        <ele>1.2</ele>
        <time>2020-06-04T15:29:45Z</time>
      </trkpt>
      <trkpt lat="47.01549" lon="-2.01174">
        <ele>1.2</ele>
        <time>2020-06-04T15:29:46Z</time>
      </trkpt>
      <trkpt lat="47.01553" lon="-2.01171">
        <ele>1.2</ele>
        <time>2020-06-04T15:29:47Z</time>
      </trkpt>
      <trkpt lat="47.01556" lon="-2.01168">
        <ele>1.2</ele>
        <time>2020-06-04T15:29:48Z</time>
      </trkpt>
      <trkpt lat="47.01561" lon="-2.01163">
        <ele>1.2</ele>
        <time>2020-06-04T15:29:49Z</time>
      </trkpt>
      <trkpt lat="47.01565" lon="-2.01159">
        <ele>1.1</ele>
        <time>2020-06-04T15:29:50Z</time>
      </trkpt>
      <trkpt lat="47.0157" lon="-2.01157">
        <ele>1.1</ele>
        <time>2020-06-04T15:29:51Z</time>
      </trkpt>
      <trkpt lat="47.01574" lon="-2.01154">
        <ele>1.1</ele>
        <time>2020-06-04T15:29:52Z</time>
      </trkpt>
      <trkpt lat="47.01579" lon="-2.01152">
        <ele>1.1</ele>
        <time>2020-06-04T15:29:53Z</time>
      </trkpt>
      <trkpt lat="47.01584" lon="-2.01147">
        <ele>1.1</ele>
        <time>2020-06-04T15:29:54Z</time>
      </trkpt>
      <trkpt lat="47.01588" lon="-2.01145">
        <ele>1.1</ele>
        <time>2020-06-04T15:29:55Z</time>
      </trkpt>
      <trkpt lat="47.01591" lon="-2.01143">
        <ele>1.1</ele>
        <time>2020-06-04T15:29:56Z</time>
      </trkpt>
      <trkpt lat="47.01595" lon="-2.0114">
        <ele>1.1</ele>
        <time>2020-06-04T15:29:57Z</time>
      </trkpt>
      <trkpt lat="47.016" lon="-2.01136">
        <ele>1.1</ele>
        <time>2020-06-04T15:29:58Z</time>
      </trkpt>
      <trkpt lat="47.01604" lon="-2.01133">
        <ele>1.1</ele>
        <time>2020-06-04T15:29:59Z</time>
      </trkpt>
      <trkpt lat="47.01608" lon="-2.0113">
        <ele>1.2</ele>
        <time>2020-06-04T15:30:00Z</time>
      </trkpt>
      <trkpt lat="47.01612" lon="-2.01125">
        <ele>1.2</ele>
        <time>2020-06-04T15:30:01Z</time>
      </trkpt>
      <trkpt lat="47.01613" lon="-2.01117">
        <ele>1.2</ele>
        <time>2020-06-04T15:30:02Z</time>
      </trkpt>
      <trkpt lat="47.01613" lon="-2.01109">
        <ele>1.3</ele>
        <time>2020-06-04T15:30:03Z</time>
      </trkpt>
      <trkpt lat="47.01613" lon="-2.01101">
        <ele>1.4</ele>
        <time>2020-06-04T15:30:04Z</time>
      </trkpt>
      <trkpt lat="47.01613" lon="-2.01094">
        <ele>1.5</ele>
        <time>2020-06-04T15:30:05Z</time>
      </trkpt>
      <trkpt lat="47.01612" lon="-2.01088">
        <ele>1.5</ele>
        <time>2020-06-04T15:30:06Z</time>
      </trkpt>
      <trkpt lat="47.01612" lon="-2.01082">
        <ele>1.6</ele>
        <time>2020-06-04T15:30:07Z</time>
      </trkpt>
      <trkpt lat="47.01613" lon="-2.01076">
        <ele>1.7</ele>
        <time>2020-06-04T15:30:08Z</time>
      </trkpt>
      <trkpt lat="47.01614" lon="-2.0107">
        <ele>1.7</ele>
        <time>2020-06-04T15:30:09Z</time>
      </trkpt>
      <trkpt lat="47.01618" lon="-2.01064">
        <ele>1.7</ele>
        <time>2020-06-04T15:30:10Z</time>
      </trkpt>
      <trkpt lat="47.01623" lon="-2.0106">
        <ele>1.7</ele>
        <time>2020-06-04T15:30:11Z</time>
      </trkpt>
      <trkpt lat="47.01626" lon="-2.01055">
        <ele>1.7</ele>
        <time>2020-06-04T15:30:12Z</time>
      </trkpt>
      <trkpt lat="47.0163" lon="-2.01051">
        <ele>1.7</ele>
        <time>2020-06-04T15:30:13Z</time>
      </trkpt>
      <trkpt lat="47.01633" lon="-2.01047">
        <ele>1.7</ele>
        <time>2020-06-04T15:30:14Z</time>
      </trkpt>
      <trkpt lat="47.01637" lon="-2.01044">
        <ele>1.8</ele>
        <time>2020-06-04T15:30:15Z</time>
      </trkpt>
      <trkpt lat="47.0164" lon="-2.0104">
        <ele>1.8</ele>
        <time>2020-06-04T15:30:16Z</time>
      </trkpt>
      <trkpt lat="47.01644" lon="-2.01036">
        <ele>1.8</ele>
        <time>2020-06-04T15:30:17Z</time>
      </trkpt>
      <trkpt lat="47.01648" lon="-2.01031">
        <ele>1.8</ele>
        <time>2020-06-04T15:30:18Z</time>
      </trkpt>
      <trkpt lat="47.01651" lon="-2.01025">
        <ele>1.8</ele>
        <time>2020-06-04T15:30:19Z</time>
      </trkpt>
      <trkpt lat="47.01653" lon="-2.0102">
        <ele>1.8</ele>
        <time>2020-06-04T15:30:20Z</time>
      </trkpt>
      <trkpt lat="47.01657" lon="-2.01013">
        <ele>1.7</ele>
        <time>2020-06-04T15:30:21Z</time>
      </trkpt>
      <trkpt lat="47.0166" lon="-2.01005">
        <ele>1.7</ele>
        <time>2020-06-04T15:30:22Z</time>
      </trkpt>
      <trkpt lat="47.01663" lon="-2.00999">
        <ele>1.7</ele>
        <time>2020-06-04T15:30:23Z</time>
      </trkpt>
      <trkpt lat="47.01666" lon="-2.00992">
        <ele>1.7</ele>
        <time>2020-06-04T15:30:24Z</time>
      </trkpt>
      <trkpt lat="47.01668" lon="-2.00985">
        <ele>1.7</ele>
        <time>2020-06-04T15:30:25Z</time>
      </trkpt>
      <trkpt lat="47.01667" lon="-2.00978">
        <ele>1.7</ele>
        <time>2020-06-04T15:30:26Z</time>
      </trkpt>
      <trkpt lat="47.01664" lon="-2.0097">
        <ele>1.7</ele>
        <time>2020-06-04T15:30:27Z</time>
      </trkpt>
      <trkpt lat="47.01659" lon="-2.00963">
        <ele>1.7</ele>
        <time>2020-06-04T15:30:28Z</time>
      </trkpt>
      <trkpt lat="47.01652" lon="-2.00957">
        <ele>1.6</ele>
        <time>2020-06-04T15:30:29Z</time>
      </trkpt>
      <trkpt lat="47.01645" lon="-2.00952">
        <ele>1.6</ele>
        <time>2020-06-04T15:30:30Z</time>
      </trkpt>
      <trkpt lat="47.01639" lon="-2.00947">
        <ele>1.5</ele>
        <time>2020-06-04T15:30:31Z</time>
      </trkpt>
      <trkpt lat="47.01633" lon="-2.00943">
        <ele>1.5</ele>
        <time>2020-06-04T15:30:32Z</time>
      </trkpt>
      <trkpt lat="47.01627" lon="-2.00938">
        <ele>1.5</ele>
        <time>2020-06-04T15:30:33Z</time>
      </trkpt>
      <trkpt lat="47.01623" lon="-2.00935">
        <ele>1.5</ele>
        <time>2020-06-04T15:30:34Z</time>
      </trkpt>
      <trkpt lat="47.01617" lon="-2.00931">
        <ele>1.5</ele>
        <time>2020-06-04T15:30:35Z</time>
      </trkpt>
      <trkpt lat="47.01612" lon="-2.00927">
        <ele>1.5</ele>
        <time>2020-06-04T15:30:36Z</time>
      </trkpt>
      <trkpt lat="47.01606" lon="-2.00923">
        <ele>1.5</ele>
        <time>2020-06-04T15:30:37Z</time>
      </trkpt>
      <trkpt lat="47.01602" lon="-2.0092">
        <ele>1.4</ele>
        <time>2020-06-04T15:30:38Z</time>
      </trkpt>
      <trkpt lat="47.01597" lon="-2.00917">
        <ele>1.4</ele>
        <time>2020-06-04T15:30:39Z</time>
      </trkpt>
      <trkpt lat="47.01592" lon="-2.00911">
        <ele>1.4</ele>
        <time>2020-06-04T15:30:40Z</time>
      </trkpt>
      <trkpt lat="47.01589" lon="-2.00904">
        <ele>1.4</ele>
        <time>2020-06-04T15:30:41Z</time>
      </trkpt>
      <trkpt lat="47.01589" lon="-2.00893">
        <ele>1.3</ele>
        <time>2020-06-04T15:30:42Z</time>
      </trkpt>
      <trkpt lat="47.01588" lon="-2.00885">
        <ele>1.3</ele>
        <time>2020-06-04T15:30:43Z</time>
      </trkpt>
      <trkpt lat="47.01587" lon="-2.00877">
        <ele>1.2</ele>
        <time>2020-06-04T15:30:44Z</time>
      </trkpt>
      <trkpt lat="47.01586" lon="-2.0087">
        <ele>1.2</ele>
        <time>2020-06-04T15:30:45Z</time>
      </trkpt>
      <trkpt lat="47.01585" lon="-2.00863">
        <ele>1.2</ele>
        <time>2020-06-04T15:30:46Z</time>
      </trkpt>
      <trkpt lat="47.01584" lon="-2.00855">
        <ele>1.2</ele>
        <time>2020-06-04T15:30:47Z</time>
      </trkpt>
      <trkpt lat="47.01584" lon="-2.00846">
        <ele>1.2</ele>
        <time>2020-06-04T15:30:48Z</time>
      </trkpt>
      <trkpt lat="47.01582" lon="-2.00839">
        <ele>1.1</ele>
        <time>2020-06-04T15:30:49Z</time>
      </trkpt>
      <trkpt lat="47.01582" lon="-2.0083">
        <ele>1.1</ele>
        <time>2020-06-04T15:30:50Z</time>
      </trkpt>
      <trkpt lat="47.01581" lon="-2.00822">
        <ele>1</ele>
        <time>2020-06-04T15:30:51Z</time>
      </trkpt>
      <trkpt lat="47.01581" lon="-2.00812">
        <ele>0.9</ele>
        <time>2020-06-04T15:30:52Z</time>
      </trkpt>
      <trkpt lat="47.0158" lon="-2.00804">
        <ele>0.9</ele>
        <time>2020-06-04T15:30:53Z</time>
      </trkpt>
      <trkpt lat="47.01578" lon="-2.00795">
        <ele>0.8</ele>
        <time>2020-06-04T15:30:54Z</time>
      </trkpt>
      <trkpt lat="47.01578" lon="-2.00788">
        <ele>0.7</ele>
        <time>2020-06-04T15:30:55Z</time>
      </trkpt>
      <trkpt lat="47.01577" lon="-2.0078">
        <ele>0.7</ele>
        <time>2020-06-04T15:30:56Z</time>
      </trkpt>
      <trkpt lat="47.01577" lon="-2.00771">
        <ele>0.7</ele>
        <time>2020-06-04T15:30:57Z</time>
      </trkpt>
      <trkpt lat="47.01577" lon="-2.00765">
        <ele>0.7</ele>
        <time>2020-06-04T15:30:58Z</time>
      </trkpt>
      <trkpt lat="47.01574" lon="-2.00755">
        <ele>0.7</ele>
        <time>2020-06-04T15:30:59Z</time>
      </trkpt>
      <trkpt lat="47.01573" lon="-2.00749">
        <ele>0.7</ele>
        <time>2020-06-04T15:31:00Z</time>
      </trkpt>
      <trkpt lat="47.01572" lon="-2.00743">
        <ele>0.7</ele>
        <time>2020-06-04T15:31:01Z</time>
      </trkpt>
      <trkpt lat="47.01568" lon="-2.00735">
        <ele>0.7</ele>
        <time>2020-06-04T15:31:02Z</time>
      </trkpt>
      <trkpt lat="47.01563" lon="-2.00728">
        <ele>0.7</ele>
        <time>2020-06-04T15:31:03Z</time>
      </trkpt>
      <trkpt lat="47.01558" lon="-2.00721">
        <ele>0.7</ele>
        <time>2020-06-04T15:31:04Z</time>
      </trkpt>
      <trkpt lat="47.01554" lon="-2.00716">
        <ele>0.7</ele>
        <time>2020-06-04T15:31:05Z</time>
      </trkpt>
      <trkpt lat="47.0155" lon="-2.0071">
        <ele>0.7</ele>
        <time>2020-06-04T15:31:06Z</time>
      </trkpt>
      <trkpt lat="47.01545" lon="-2.00705">
        <ele>0.7</ele>
        <time>2020-06-04T15:31:07Z</time>
      </trkpt>
      <trkpt lat="47.01541" lon="-2.00701">
        <ele>0.7</ele>
        <time>2020-06-04T15:31:08Z</time>
      </trkpt>
      <trkpt lat="47.01536" lon="-2.00697">
        <ele>0.7</ele>
        <time>2020-06-04T15:31:09Z</time>
      </trkpt>
      <trkpt lat="47.01531" lon="-2.00694">
        <ele>0.7</ele>
        <time>2020-06-04T15:31:10Z</time>
      </trkpt>
      <trkpt lat="47.01525" lon="-2.00689">
        <ele>0.7</ele>
        <time>2020-06-04T15:31:11Z</time>
      </trkpt>
      <trkpt lat="47.0152" lon="-2.00682">
        <ele>0.7</ele>
        <time>2020-06-04T15:31:12Z</time>
      </trkpt>
      <trkpt lat="47.01515" lon="-2.00675">
        <ele>0.7</ele>
        <time>2020-06-04T15:31:13Z</time>
      </trkpt>
      <trkpt lat="47.01511" lon="-2.00667">
        <ele>0.7</ele>
        <time>2020-06-04T15:31:14Z</time>
      </trkpt>
      <trkpt lat="47.01507" lon="-2.00659">
        <ele>0.7</ele>
        <time>2020-06-04T15:31:15Z</time>
      </trkpt>
      <trkpt lat="47.01504" lon="-2.00651">
        <ele>0.7</ele>
        <time>2020-06-04T15:31:16Z</time>
      </trkpt>
      <trkpt lat="47.01502" lon="-2.00642">
        <ele>0.8</ele>
        <time>2020-06-04T15:31:17Z</time>
      </trkpt>
      <trkpt lat="47.01499" lon="-2.00634">
        <ele>0.8</ele>
        <time>2020-06-04T15:31:18Z</time>
      </trkpt>
      <trkpt lat="47.01497" lon="-2.00627">
        <ele>0.8</ele>
        <time>2020-06-04T15:31:19Z</time>
      </trkpt>
      <trkpt lat="47.01494" lon="-2.00618">
        <ele>0.9</ele>
        <time>2020-06-04T15:31:20Z</time>
      </trkpt>
      <trkpt lat="47.01491" lon="-2.00611">
        <ele>0.9</ele>
        <time>2020-06-04T15:31:21Z</time>
      </trkpt>
      <trkpt lat="47.01489" lon="-2.00603">
        <ele>0.9</ele>
        <time>2020-06-04T15:31:22Z</time>
      </trkpt>
      <trkpt lat="47.01487" lon="-2.00594">
        <ele>0.8</ele>
        <time>2020-06-04T15:31:23Z</time>
      </trkpt>
      <trkpt lat="47.01487" lon="-2.00584">
        <ele>0.8</ele>
        <time>2020-06-04T15:31:24Z</time>
      </trkpt>
      <trkpt lat="47.01485" lon="-2.00575">
        <ele>0.8</ele>
        <time>2020-06-04T15:31:25Z</time>
      </trkpt>
      <trkpt lat="47.01483" lon="-2.00568">
        <ele>0.8</ele>
        <time>2020-06-04T15:31:26Z</time>
      </trkpt>
      <trkpt lat="47.01479" lon="-2.00561">
        <ele>0.8</ele>
        <time>2020-06-04T15:31:27Z</time>
      </trkpt>
      <trkpt lat="47.01475" lon="-2.00556">
        <ele>0.8</ele>
        <time>2020-06-04T15:31:28Z</time>
      </trkpt>
      <trkpt lat="47.0147" lon="-2.00551">
        <ele>0.8</ele>
        <time>2020-06-04T15:31:29Z</time>
      </trkpt>
      <trkpt lat="47.01465" lon="-2.00545">
        <ele>0.8</ele>
        <time>2020-06-04T15:31:30Z</time>
      </trkpt>
      <trkpt lat="47.01461" lon="-2.00538">
        <ele>0.8</ele>
        <time>2020-06-04T15:31:31Z</time>
      </trkpt>
      <trkpt lat="47.01458" lon="-2.00532">
        <ele>0.8</ele>
        <time>2020-06-04T15:31:32Z</time>
      </trkpt>
      <trkpt lat="47.01457" lon="-2.00524">
        <ele>0.8</ele>
        <time>2020-06-04T15:31:33Z</time>
      </trkpt>
      <trkpt lat="47.01456" lon="-2.00516">
        <ele>0.8</ele>
        <time>2020-06-04T15:31:34Z</time>
      </trkpt>
      <trkpt lat="47.01454" lon="-2.00506">
        <ele>0.7</ele>
        <time>2020-06-04T15:31:35Z</time>
      </trkpt>
      <trkpt lat="47.01453" lon="-2.00496">
        <ele>0.7</ele>
        <time>2020-06-04T15:31:36Z</time>
      </trkpt>
      <trkpt lat="47.01451" lon="-2.00487">
        <ele>0.7</ele>
        <time>2020-06-04T15:31:37Z</time>
      </trkpt>
      <trkpt lat="47.01449" lon="-2.00478">
        <ele>0.7</ele>
        <time>2020-06-04T15:31:38Z</time>
      </trkpt>
      <trkpt lat="47.01448" lon="-2.0047">
        <ele>0.7</ele>
        <time>2020-06-04T15:31:39Z</time>
      </trkpt>
      <trkpt lat="47.01447" lon="-2.00461">
        <ele>0.6</ele>
        <time>2020-06-04T15:31:40Z</time>
      </trkpt>
      <trkpt lat="47.01446" lon="-2.00452">
        <ele>0.6</ele>
        <time>2020-06-04T15:31:41Z</time>
      </trkpt>
      <trkpt lat="47.01444" lon="-2.00444">
        <ele>0.6</ele>
        <time>2020-06-04T15:31:42Z</time>
      </trkpt>
      <trkpt lat="47.01443" lon="-2.00436">
        <ele>0.6</ele>
        <time>2020-06-04T15:31:43Z</time>
      </trkpt>
      <trkpt lat="47.01441" lon="-2.00428">
        <ele>0.5</ele>
        <time>2020-06-04T15:31:44Z</time>
      </trkpt>
      <trkpt lat="47.01439" lon="-2.0042">
        <ele>0.5</ele>
        <time>2020-06-04T15:31:45Z</time>
      </trkpt>
      <trkpt lat="47.01436" lon="-2.00412">
        <ele>0.5</ele>
        <time>2020-06-04T15:31:46Z</time>
      </trkpt>
      <trkpt lat="47.01433" lon="-2.00405">
        <ele>0.5</ele>
        <time>2020-06-04T15:31:47Z</time>
      </trkpt>
      <trkpt lat="47.01429" lon="-2.00397">
        <ele>0.5</ele>
        <time>2020-06-04T15:31:48Z</time>
      </trkpt>
      <trkpt lat="47.01426" lon="-2.00391">
        <ele>0.5</ele>
        <time>2020-06-04T15:31:49Z</time>
      </trkpt>
      <trkpt lat="47.01424" lon="-2.00384">
        <ele>0.5</ele>
        <time>2020-06-04T15:31:50Z</time>
      </trkpt>
      <trkpt lat="47.01421" lon="-2.00376">
        <ele>0.5</ele>
        <time>2020-06-04T15:31:51Z</time>
      </trkpt>
      <trkpt lat="47.01417" lon="-2.00367">
        <ele>0.5</ele>
        <time>2020-06-04T15:31:52Z</time>
      </trkpt>
      <trkpt lat="47.01414" lon="-2.0036">
        <ele>0.5</ele>
        <time>2020-06-04T15:31:53Z</time>
      </trkpt>
      <trkpt lat="47.01411" lon="-2.00353">
        <ele>0.4</ele>
        <time>2020-06-04T15:31:54Z</time>
      </trkpt>
      <trkpt lat="47.01407" lon="-2.00346">
        <ele>0.4</ele>
        <time>2020-06-04T15:31:55Z</time>
      </trkpt>
      <trkpt lat="47.01404" lon="-2.00339">
        <ele>0.5</ele>
        <time>2020-06-04T15:31:56Z</time>
      </trkpt>
      <trkpt lat="47.01402" lon="-2.00333">
        <ele>0.5</ele>
        <time>2020-06-04T15:31:57Z</time>
      </trkpt>
      <trkpt lat="47.014" lon="-2.00326">
        <ele>0.5</ele>
        <time>2020-06-04T15:31:58Z</time>
      </trkpt>
      <trkpt lat="47.01397" lon="-2.00318">
        <ele>0.6</ele>
        <time>2020-06-04T15:31:59Z</time>
      </trkpt>
      <trkpt lat="47.01394" lon="-2.00311">
        <ele>0.6</ele>
        <time>2020-06-04T15:32:00Z</time>
      </trkpt>
      <trkpt lat="47.01392" lon="-2.00302">
        <ele>0.7</ele>
        <time>2020-06-04T15:32:01Z</time>
      </trkpt>
      <trkpt lat="47.0139" lon="-2.00296">
        <ele>0.7</ele>
        <time>2020-06-04T15:32:02Z</time>
      </trkpt>
      <trkpt lat="47.01389" lon="-2.00289">
        <ele>0.8</ele>
        <time>2020-06-04T15:32:03Z</time>
      </trkpt>
      <trkpt lat="47.01389" lon="-2.00284">
        <ele>0.8</ele>
        <time>2020-06-04T15:32:04Z</time>
      </trkpt>
      <trkpt lat="47.01392" lon="-2.00277">
        <ele>0.8</ele>
        <time>2020-06-04T15:32:05Z</time>
      </trkpt>
      <trkpt lat="47.01394" lon="-2.00271">
        <ele>0.8</ele>
        <time>2020-06-04T15:32:06Z</time>
      </trkpt>
      <trkpt lat="47.01396" lon="-2.00266">
        <ele>0.8</ele>
        <time>2020-06-04T15:32:07Z</time>
      </trkpt>
      <trkpt lat="47.01397" lon="-2.00261">
        <ele>0.8</ele>
        <time>2020-06-04T15:32:08Z</time>
      </trkpt>
      <trkpt lat="47.01399" lon="-2.00255">
        <ele>0.8</ele>
        <time>2020-06-04T15:32:09Z</time>
      </trkpt>
      <trkpt lat="47.01401" lon="-2.0025">
        <ele>0.8</ele>
        <time>2020-06-04T15:32:10Z</time>
      </trkpt>
      <trkpt lat="47.01403" lon="-2.00244">
        <ele>0.8</ele>
        <time>2020-06-04T15:32:11Z</time>
      </trkpt>
      <trkpt lat="47.01404" lon="-2.00238">
        <ele>0.8</ele>
        <time>2020-06-04T15:32:12Z</time>
      </trkpt>
      <trkpt lat="47.01405" lon="-2.00233">
        <ele>0.8</ele>
        <time>2020-06-04T15:32:13Z</time>
      </trkpt>
      <trkpt lat="47.01408" lon="-2.00226">
        <ele>0.8</ele>
        <time>2020-06-04T15:32:14Z</time>
      </trkpt>
      <trkpt lat="47.01409" lon="-2.0022">
        <ele>0.8</ele>
        <time>2020-06-04T15:32:15Z</time>
      </trkpt>
      <trkpt lat="47.01411" lon="-2.00213">
        <ele>0.8</ele>
        <time>2020-06-04T15:32:16Z</time>
      </trkpt>
      <trkpt lat="47.01413" lon="-2.00206">
        <ele>0.8</ele>
        <time>2020-06-04T15:32:17Z</time>
      </trkpt>
      <trkpt lat="47.01415" lon="-2.00201">
        <ele>0.8</ele>
        <time>2020-06-04T15:32:18Z</time>
      </trkpt>
      <trkpt lat="47.01416" lon="-2.00195">
        <ele>0.8</ele>
        <time>2020-06-04T15:32:19Z</time>
      </trkpt>
      <trkpt lat="47.01418" lon="-2.00187">
        <ele>0.9</ele>
        <time>2020-06-04T15:32:20Z</time>
      </trkpt>
      <trkpt lat="47.0142" lon="-2.0018">
        <ele>0.9</ele>
        <time>2020-06-04T15:32:21Z</time>
      </trkpt>
      <trkpt lat="47.01422" lon="-2.00173">
        <ele>0.9</ele>
        <time>2020-06-04T15:32:22Z</time>
      </trkpt>
      <trkpt lat="47.01425" lon="-2.00166">
        <ele>0.9</ele>
        <time>2020-06-04T15:32:23Z</time>
      </trkpt>
      <trkpt lat="47.01426" lon="-2.00161">
        <ele>0.9</ele>
        <time>2020-06-04T15:32:24Z</time>
      </trkpt>
      <trkpt lat="47.01428" lon="-2.00155">
        <ele>0.9</ele>
        <time>2020-06-04T15:32:25Z</time>
      </trkpt>
      <trkpt lat="47.01429" lon="-2.00151">
        <ele>0.9</ele>
        <time>2020-06-04T15:32:26Z</time>
      </trkpt>
      <trkpt lat="47.01429" lon="-2.00146">
        <ele>0.9</ele>
        <time>2020-06-04T15:32:27Z</time>
      </trkpt>
      <trkpt lat="47.0143" lon="-2.00143">
        <ele>0.9</ele>
        <time>2020-06-04T15:32:28Z</time>
      </trkpt>
      <trkpt lat="47.0143" lon="-2.00143">
        <ele>0.9</ele>
        <time>2020-06-04T15:32:29Z</time>
      </trkpt>
      <trkpt lat="47.0143" lon="-2.00143">
        <ele>0.9</ele>
        <time>2020-06-04T15:32:30Z</time>
      </trkpt>
      <trkpt lat="47.0143" lon="-2.00143">
        <ele>0.9</ele>
        <time>2020-06-04T15:32:31Z</time>
      </trkpt>
      <trkpt lat="47.0143" lon="-2.00144">
        <ele>0.9</ele>
        <time>2020-06-04T15:32:32Z</time>
      </trkpt>
      <trkpt lat="47.01429" lon="-2.00144">
        <ele>0.9</ele>
        <time>2020-06-04T15:32:33Z</time>
      </trkpt>
      <trkpt lat="47.01429" lon="-2.00143">
        <ele>0.9</ele>
        <time>2020-06-04T15:32:34Z</time>
      </trkpt>
      <trkpt lat="47.0143" lon="-2.00143">
        <ele>0.9</ele>
        <time>2020-06-04T15:32:35Z</time>
      </trkpt>
      <trkpt lat="47.0143" lon="-2.00143">
        <ele>0.9</ele>
        <time>2020-06-04T15:32:36Z</time>
      </trkpt>
      <trkpt lat="47.01431" lon="-2.00141">
        <ele>0.9</ele>
        <time>2020-06-04T15:32:37Z</time>
      </trkpt>
      <trkpt lat="47.01432" lon="-2.00139">
        <ele>0.9</ele>
        <time>2020-06-04T15:32:38Z</time>
      </trkpt>
      <trkpt lat="47.01433" lon="-2.00137">
        <ele>0.9</ele>
        <time>2020-06-04T15:32:39Z</time>
      </trkpt>
      <trkpt lat="47.01434" lon="-2.00135">
        <ele>0.9</ele>
        <time>2020-06-04T15:33:57Z</time>
      </trkpt>
      <trkpt lat="47.01435" lon="-2.00133">
        <ele>0.9</ele>
        <time>2020-06-04T15:33:58Z</time>
      </trkpt>
      <trkpt lat="47.01436" lon="-2.00127">
        <ele>0.8</ele>
        <time>2020-06-04T15:33:59Z</time>
      </trkpt>
      <trkpt lat="47.01438" lon="-2.00122">
        <ele>0.8</ele>
        <time>2020-06-04T15:34:00Z</time>
      </trkpt>
      <trkpt lat="47.01439" lon="-2.00116">
        <ele>0.8</ele>
        <time>2020-06-04T15:34:01Z</time>
      </trkpt>
      <trkpt lat="47.0144" lon="-2.0011">
        <ele>0.8</ele>
        <time>2020-06-04T15:34:02Z</time>
      </trkpt>
      <trkpt lat="47.01442" lon="-2.00104">
        <ele>0.8</ele>
        <time>2020-06-04T15:34:03Z</time>
      </trkpt>
      <trkpt lat="47.01443" lon="-2.00098">
        <ele>0.8</ele>
        <time>2020-06-04T15:34:04Z</time>
      </trkpt>
      <trkpt lat="47.01444" lon="-2.00092">
        <ele>0.8</ele>
        <time>2020-06-04T15:34:05Z</time>
      </trkpt>
      <trkpt lat="47.01445" lon="-2.00083">
        <ele>0.7</ele>
        <time>2020-06-04T15:34:06Z</time>
      </trkpt>
      <trkpt lat="47.01444" lon="-2.00077">
        <ele>0.7</ele>
        <time>2020-06-04T15:34:07Z</time>
      </trkpt>
      <trkpt lat="47.01442" lon="-2.00069">
        <ele>0.7</ele>
        <time>2020-06-04T15:34:08Z</time>
      </trkpt>
      <trkpt lat="47.0144" lon="-2.00062">
        <ele>0.8</ele>
        <time>2020-06-04T15:34:09Z</time>
      </trkpt>
      <trkpt lat="47.01438" lon="-2.00055">
        <ele>0.8</ele>
        <time>2020-06-04T15:34:10Z</time>
      </trkpt>
      <trkpt lat="47.01438" lon="-2.00049">
        <ele>0.8</ele>
        <time>2020-06-04T15:34:11Z</time>
      </trkpt>
      <trkpt lat="47.01437" lon="-2.00043">
        <ele>0.8</ele>
        <time>2020-06-04T15:34:12Z</time>
      </trkpt>
      <trkpt lat="47.01436" lon="-2.00036">
        <ele>0.8</ele>
        <time>2020-06-04T15:34:13Z</time>
      </trkpt>
      <trkpt lat="47.01435" lon="-2.00029">
        <ele>0.8</ele>
        <time>2020-06-04T15:34:14Z</time>
      </trkpt>
      <trkpt lat="47.01434" lon="-2.00022">
        <ele>0.8</ele>
        <time>2020-06-04T15:34:15Z</time>
      </trkpt>
      <trkpt lat="47.01433" lon="-2.00014">
        <ele>0.8</ele>
        <time>2020-06-04T15:34:16Z</time>
      </trkpt>
      <trkpt lat="47.01432" lon="-2.00005">
        <ele>0.8</ele>
        <time>2020-06-04T15:34:17Z</time>
      </trkpt>
      <trkpt lat="47.0143" lon="-1.99997">
        <ele>0.8</ele>
        <time>2020-06-04T15:34:18Z</time>
      </trkpt>
      <trkpt lat="47.01429" lon="-1.99989">
        <ele>0.8</ele>
        <time>2020-06-04T15:34:19Z</time>
      </trkpt>
      <trkpt lat="47.01427" lon="-1.99981">
        <ele>0.8</ele>
        <time>2020-06-04T15:34:20Z</time>
      </trkpt>
      <trkpt lat="47.01426" lon="-1.99973">
        <ele>0.8</ele>
        <time>2020-06-04T15:34:21Z</time>
      </trkpt>
      <trkpt lat="47.01425" lon="-1.99965">
        <ele>0.8</ele>
        <time>2020-06-04T15:34:22Z</time>
      </trkpt>
      <trkpt lat="47.01423" lon="-1.99957">
        <ele>0.8</ele>
        <time>2020-06-04T15:34:23Z</time>
      </trkpt>
      <trkpt lat="47.01422" lon="-1.99948">
        <ele>0.9</ele>
        <time>2020-06-04T15:34:24Z</time>
      </trkpt>
      <trkpt lat="47.01421" lon="-1.9994">
        <ele>0.9</ele>
        <time>2020-06-04T15:34:25Z</time>
      </trkpt>
      <trkpt lat="47.01419" lon="-1.99932">
        <ele>1</ele>
        <time>2020-06-04T15:34:26Z</time>
      </trkpt>
      <trkpt lat="47.01418" lon="-1.99923">
        <ele>1</ele>
        <time>2020-06-04T15:34:27Z</time>
      </trkpt>
      <trkpt lat="47.01417" lon="-1.99914">
        <ele>1</ele>
        <time>2020-06-04T15:34:28Z</time>
      </trkpt>
      <trkpt lat="47.01415" lon="-1.99906">
        <ele>1.1</ele>
        <time>2020-06-04T15:34:29Z</time>
      </trkpt>
      <trkpt lat="47.01414" lon="-1.99896">
        <ele>1.1</ele>
        <time>2020-06-04T15:34:30Z</time>
      </trkpt>
      <trkpt lat="47.01413" lon="-1.99888">
        <ele>1.1</ele>
        <time>2020-06-04T15:34:31Z</time>
      </trkpt>
      <trkpt lat="47.01412" lon="-1.99879">
        <ele>1.1</ele>
        <time>2020-06-04T15:34:32Z</time>
      </trkpt>
      <trkpt lat="47.01411" lon="-1.99871">
        <ele>1.1</ele>
        <time>2020-06-04T15:34:33Z</time>
      </trkpt>
      <trkpt lat="47.0141" lon="-1.99862">
        <ele>1.2</ele>
        <time>2020-06-04T15:34:34Z</time>
      </trkpt>
      <trkpt lat="47.01409" lon="-1.99855">
        <ele>1.2</ele>
        <time>2020-06-04T15:34:35Z</time>
      </trkpt>
      <trkpt lat="47.01407" lon="-1.99847">
        <ele>1.2</ele>
        <time>2020-06-04T15:34:36Z</time>
      </trkpt>
      <trkpt lat="47.01406" lon="-1.99839">
        <ele>1.2</ele>
        <time>2020-06-04T15:34:37Z</time>
      </trkpt>
      <trkpt lat="47.01405" lon="-1.99831">
        <ele>1.2</ele>
        <time>2020-06-04T15:34:38Z</time>
      </trkpt>
      <trkpt lat="47.01405" lon="-1.99823">
        <ele>1.2</ele>
        <time>2020-06-04T15:34:39Z</time>
      </trkpt>
      <trkpt lat="47.01404" lon="-1.99815">
        <ele>1.2</ele>
        <time>2020-06-04T15:34:40Z</time>
      </trkpt>
      <trkpt lat="47.01403" lon="-1.99808">
        <ele>1.2</ele>
        <time>2020-06-04T15:34:41Z</time>
      </trkpt>
      <trkpt lat="47.01403" lon="-1.99801">
        <ele>1.2</ele>
        <time>2020-06-04T15:34:42Z</time>
      </trkpt>
      <trkpt lat="47.01401" lon="-1.99794">
        <ele>1.2</ele>
        <time>2020-06-04T15:34:43Z</time>
      </trkpt>
      <trkpt lat="47.014" lon="-1.99785">
        <ele>1.2</ele>
        <time>2020-06-04T15:34:44Z</time>
      </trkpt>
      <trkpt lat="47.01398" lon="-1.99776">
        <ele>1.3</ele>
        <time>2020-06-04T15:34:45Z</time>
      </trkpt>
      <trkpt lat="47.01397" lon="-1.99769">
        <ele>1.3</ele>
        <time>2020-06-04T15:34:46Z</time>
      </trkpt>
      <trkpt lat="47.01396" lon="-1.99761">
        <ele>1.3</ele>
        <time>2020-06-04T15:34:47Z</time>
      </trkpt>
      <trkpt lat="47.01394" lon="-1.99753">
        <ele>1.3</ele>
        <time>2020-06-04T15:34:48Z</time>
      </trkpt>
      <trkpt lat="47.01393" lon="-1.99746">
        <ele>1.3</ele>
        <time>2020-06-04T15:34:49Z</time>
      </trkpt>
      <trkpt lat="47.01392" lon="-1.99738">
        <ele>1.3</ele>
        <time>2020-06-04T15:34:50Z</time>
      </trkpt>
      <trkpt lat="47.01391" lon="-1.9973">
        <ele>1.3</ele>
        <time>2020-06-04T15:34:51Z</time>
      </trkpt>
      <trkpt lat="47.0139" lon="-1.99723">
        <ele>1.3</ele>
        <time>2020-06-04T15:34:52Z</time>
      </trkpt>
      <trkpt lat="47.01389" lon="-1.99716">
        <ele>1.4</ele>
        <time>2020-06-04T15:34:53Z</time>
      </trkpt>
      <trkpt lat="47.01386" lon="-1.9971">
        <ele>1.4</ele>
        <time>2020-06-04T15:34:54Z</time>
      </trkpt>
      <trkpt lat="47.01385" lon="-1.99702">
        <ele>1.4</ele>
        <time>2020-06-04T15:34:55Z</time>
      </trkpt>
      <trkpt lat="47.01385" lon="-1.99694">
        <ele>1.4</ele>
        <time>2020-06-04T15:34:56Z</time>
      </trkpt>
      <trkpt lat="47.01384" lon="-1.99685">
        <ele>1.4</ele>
        <time>2020-06-04T15:34:57Z</time>
      </trkpt>
      <trkpt lat="47.01384" lon="-1.99677">
        <ele>1.5</ele>
        <time>2020-06-04T15:34:58Z</time>
      </trkpt>
      <trkpt lat="47.01383" lon="-1.9967">
        <ele>1.5</ele>
        <time>2020-06-04T15:34:59Z</time>
      </trkpt>
      <trkpt lat="47.01382" lon="-1.99662">
        <ele>1.5</ele>
        <time>2020-06-04T15:35:00Z</time>
      </trkpt>
      <trkpt lat="47.01382" lon="-1.99654">
        <ele>1.5</ele>
        <time>2020-06-04T15:35:01Z</time>
      </trkpt>
      <trkpt lat="47.01382" lon="-1.99645">
        <ele>1.5</ele>
        <time>2020-06-04T15:35:02Z</time>
      </trkpt>
      <trkpt lat="47.01382" lon="-1.99637">
        <ele>1.5</ele>
        <time>2020-06-04T15:35:03Z</time>
      </trkpt>
      <trkpt lat="47.01381" lon="-1.99629">
        <ele>1.5</ele>
        <time>2020-06-04T15:35:04Z</time>
      </trkpt>
      <trkpt lat="47.01381" lon="-1.99621">
        <ele>1.5</ele>
        <time>2020-06-04T15:35:05Z</time>
      </trkpt>
      <trkpt lat="47.01381" lon="-1.99613">
        <ele>1.5</ele>
        <time>2020-06-04T15:35:06Z</time>
      </trkpt>
      <trkpt lat="47.0138" lon="-1.99605">
        <ele>1.5</ele>
        <time>2020-06-04T15:35:07Z</time>
      </trkpt>
      <trkpt lat="47.0138" lon="-1.99596">
        <ele>1.5</ele>
        <time>2020-06-04T15:35:08Z</time>
      </trkpt>
      <trkpt lat="47.0138" lon="-1.99587">
        <ele>1.5</ele>
        <time>2020-06-04T15:35:09Z</time>
      </trkpt>
      <trkpt lat="47.0138" lon="-1.99577">
        <ele>1.6</ele>
        <time>2020-06-04T15:35:10Z</time>
      </trkpt>
      <trkpt lat="47.0138" lon="-1.99569">
        <ele>1.6</ele>
        <time>2020-06-04T15:35:11Z</time>
      </trkpt>
      <trkpt lat="47.01379" lon="-1.99561">
        <ele>1.6</ele>
        <time>2020-06-04T15:35:12Z</time>
      </trkpt>
      <trkpt lat="47.01379" lon="-1.99553">
        <ele>1.6</ele>
        <time>2020-06-04T15:35:13Z</time>
      </trkpt>
      <trkpt lat="47.01378" lon="-1.99545">
        <ele>1.6</ele>
        <time>2020-06-04T15:35:14Z</time>
      </trkpt>
      <trkpt lat="47.01378" lon="-1.99536">
        <ele>1.6</ele>
        <time>2020-06-04T15:35:15Z</time>
      </trkpt>
      <trkpt lat="47.01377" lon="-1.99528">
        <ele>1.5</ele>
        <time>2020-06-04T15:35:16Z</time>
      </trkpt>
      <trkpt lat="47.01377" lon="-1.99519">
        <ele>1.5</ele>
        <time>2020-06-04T15:35:17Z</time>
      </trkpt>
      <trkpt lat="47.01377" lon="-1.99511">
        <ele>1.5</ele>
        <time>2020-06-04T15:35:18Z</time>
      </trkpt>
      <trkpt lat="47.01376" lon="-1.99502">
        <ele>1.5</ele>
        <time>2020-06-04T15:35:19Z</time>
      </trkpt>
      <trkpt lat="47.01376" lon="-1.99492">
        <ele>1.5</ele>
        <time>2020-06-04T15:35:20Z</time>
      </trkpt>
      <trkpt lat="47.01376" lon="-1.99483">
        <ele>1.5</ele>
        <time>2020-06-04T15:35:21Z</time>
      </trkpt>
      <trkpt lat="47.01376" lon="-1.99475">
        <ele>1.5</ele>
        <time>2020-06-04T15:35:22Z</time>
      </trkpt>
      <trkpt lat="47.01376" lon="-1.99466">
        <ele>1.6</ele>
        <time>2020-06-04T15:35:23Z</time>
      </trkpt>
      <trkpt lat="47.01376" lon="-1.99457">
        <ele>1.6</ele>
        <time>2020-06-04T15:35:24Z</time>
      </trkpt>
      <trkpt lat="47.01376" lon="-1.99449">
        <ele>1.6</ele>
        <time>2020-06-04T15:35:25Z</time>
      </trkpt>
      <trkpt lat="47.01376" lon="-1.9944">
        <ele>1.6</ele>
        <time>2020-06-04T15:35:26Z</time>
      </trkpt>
      <trkpt lat="47.01376" lon="-1.99432">
        <ele>1.6</ele>
        <time>2020-06-04T15:35:27Z</time>
      </trkpt>
      <trkpt lat="47.01375" lon="-1.99423">
        <ele>1.7</ele>
        <time>2020-06-04T15:35:28Z</time>
      </trkpt>
      <trkpt lat="47.01375" lon="-1.99415">
        <ele>1.7</ele>
        <time>2020-06-04T15:35:29Z</time>
      </trkpt>
      <trkpt lat="47.01375" lon="-1.99406">
        <ele>1.7</ele>
        <time>2020-06-04T15:35:30Z</time>
      </trkpt>
      <trkpt lat="47.01375" lon="-1.99398">
        <ele>1.7</ele>
        <time>2020-06-04T15:35:31Z</time>
      </trkpt>
      <trkpt lat="47.01374" lon="-1.9939">
        <ele>1.7</ele>
        <time>2020-06-04T15:35:32Z</time>
      </trkpt>
      <trkpt lat="47.01373" lon="-1.99383">
        <ele>1.7</ele>
        <time>2020-06-04T15:35:33Z</time>
      </trkpt>
      <trkpt lat="47.01373" lon="-1.99375">
        <ele>1.7</ele>
        <time>2020-06-04T15:35:34Z</time>
      </trkpt>
      <trkpt lat="47.01373" lon="-1.99367">
        <ele>1.7</ele>
        <time>2020-06-04T15:35:35Z</time>
      </trkpt>
      <trkpt lat="47.01372" lon="-1.99359">
        <ele>1.7</ele>
        <time>2020-06-04T15:35:36Z</time>
      </trkpt>
      <trkpt lat="47.01372" lon="-1.9935">
        <ele>1.7</ele>
        <time>2020-06-04T15:35:37Z</time>
      </trkpt>
      <trkpt lat="47.01371" lon="-1.99342">
        <ele>1.7</ele>
        <time>2020-06-04T15:35:38Z</time>
      </trkpt>
      <trkpt lat="47.01371" lon="-1.99333">
        <ele>1.7</ele>
        <time>2020-06-04T15:35:39Z</time>
      </trkpt>
      <trkpt lat="47.01371" lon="-1.99324">
        <ele>1.7</ele>
        <time>2020-06-04T15:35:40Z</time>
      </trkpt>
      <trkpt lat="47.0137" lon="-1.99316">
        <ele>1.7</ele>
        <time>2020-06-04T15:35:41Z</time>
      </trkpt>
      <trkpt lat="47.0137" lon="-1.99308">
        <ele>1.8</ele>
        <time>2020-06-04T15:35:42Z</time>
      </trkpt>
      <trkpt lat="47.0137" lon="-1.99299">
        <ele>1.8</ele>
        <time>2020-06-04T15:35:43Z</time>
      </trkpt>
      <trkpt lat="47.0137" lon="-1.99291">
        <ele>1.8</ele>
        <time>2020-06-04T15:35:44Z</time>
      </trkpt>
      <trkpt lat="47.01369" lon="-1.99283">
        <ele>1.8</ele>
        <time>2020-06-04T15:35:45Z</time>
      </trkpt>
      <trkpt lat="47.01369" lon="-1.99275">
        <ele>1.8</ele>
        <time>2020-06-04T15:35:46Z</time>
      </trkpt>
      <trkpt lat="47.01369" lon="-1.99267">
        <ele>1.7</ele>
        <time>2020-06-04T15:35:47Z</time>
      </trkpt>
      <trkpt lat="47.01369" lon="-1.99258">
        <ele>1.7</ele>
        <time>2020-06-04T15:35:48Z</time>
      </trkpt>
      <trkpt lat="47.01368" lon="-1.99249">
        <ele>1.7</ele>
        <time>2020-06-04T15:35:49Z</time>
      </trkpt>
      <trkpt lat="47.01367" lon="-1.9924">
        <ele>1.7</ele>
        <time>2020-06-04T15:35:50Z</time>
      </trkpt>
      <trkpt lat="47.01366" lon="-1.99231">
        <ele>1.7</ele>
        <time>2020-06-04T15:35:51Z</time>
      </trkpt>
      <trkpt lat="47.01366" lon="-1.99223">
        <ele>1.7</ele>
        <time>2020-06-04T15:35:52Z</time>
      </trkpt>
      <trkpt lat="47.01366" lon="-1.99214">
        <ele>1.7</ele>
        <time>2020-06-04T15:35:53Z</time>
      </trkpt>
      <trkpt lat="47.01365" lon="-1.99205">
        <ele>1.7</ele>
        <time>2020-06-04T15:35:54Z</time>
      </trkpt>
      <trkpt lat="47.01365" lon="-1.99196">
        <ele>1.6</ele>
        <time>2020-06-04T15:35:55Z</time>
      </trkpt>
      <trkpt lat="47.01365" lon="-1.99187">
        <ele>1.6</ele>
        <time>2020-06-04T15:35:56Z</time>
      </trkpt>
      <trkpt lat="47.01364" lon="-1.99178">
        <ele>1.6</ele>
        <time>2020-06-04T15:35:57Z</time>
      </trkpt>
      <trkpt lat="47.01363" lon="-1.9917">
        <ele>1.6</ele>
        <time>2020-06-04T15:35:58Z</time>
      </trkpt>
      <trkpt lat="47.01362" lon="-1.99161">
        <ele>1.6</ele>
        <time>2020-06-04T15:35:59Z</time>
      </trkpt>
      <trkpt lat="47.01361" lon="-1.99152">
        <ele>1.6</ele>
        <time>2020-06-04T15:36:00Z</time>
      </trkpt>
      <trkpt lat="47.01361" lon="-1.99144">
        <ele>1.6</ele>
        <time>2020-06-04T15:36:01Z</time>
      </trkpt>
      <trkpt lat="47.01361" lon="-1.99134">
        <ele>1.6</ele>
        <time>2020-06-04T15:36:02Z</time>
      </trkpt>
      <trkpt lat="47.01361" lon="-1.99125">
        <ele>1.5</ele>
        <time>2020-06-04T15:36:03Z</time>
      </trkpt>
      <trkpt lat="47.01361" lon="-1.99117">
        <ele>1.5</ele>
        <time>2020-06-04T15:36:04Z</time>
      </trkpt>
      <trkpt lat="47.01361" lon="-1.99109">
        <ele>1.5</ele>
        <time>2020-06-04T15:36:05Z</time>
      </trkpt>
      <trkpt lat="47.01361" lon="-1.99101">
        <ele>1.5</ele>
        <time>2020-06-04T15:36:06Z</time>
      </trkpt>
      <trkpt lat="47.01361" lon="-1.99093">
        <ele>1.5</ele>
        <time>2020-06-04T15:36:07Z</time>
      </trkpt>
      <trkpt lat="47.01361" lon="-1.99084">
        <ele>1.5</ele>
        <time>2020-06-04T15:36:08Z</time>
      </trkpt>
      <trkpt lat="47.0136" lon="-1.99075">
        <ele>1.5</ele>
        <time>2020-06-04T15:36:09Z</time>
      </trkpt>
      <trkpt lat="47.0136" lon="-1.99066">
        <ele>1.4</ele>
        <time>2020-06-04T15:36:10Z</time>
      </trkpt>
      <trkpt lat="47.01359" lon="-1.99057">
        <ele>1.4</ele>
        <time>2020-06-04T15:36:11Z</time>
      </trkpt>
      <trkpt lat="47.01359" lon="-1.99048">
        <ele>1.4</ele>
        <time>2020-06-04T15:36:12Z</time>
      </trkpt>
      <trkpt lat="47.01359" lon="-1.99038">
        <ele>1.4</ele>
        <time>2020-06-04T15:36:13Z</time>
      </trkpt>
      <trkpt lat="47.01358" lon="-1.99029">
        <ele>1.4</ele>
        <time>2020-06-04T15:36:14Z</time>
      </trkpt>
      <trkpt lat="47.01358" lon="-1.99019">
        <ele>1.4</ele>
        <time>2020-06-04T15:36:15Z</time>
      </trkpt>
      <trkpt lat="47.01357" lon="-1.9901">
        <ele>1.4</ele>
        <time>2020-06-04T15:36:16Z</time>
      </trkpt>
      <trkpt lat="47.01357" lon="-1.99">
        <ele>1.4</ele>
        <time>2020-06-04T15:36:17Z</time>
      </trkpt>
      <trkpt lat="47.01356" lon="-1.98991">
        <ele>1.4</ele>
        <time>2020-06-04T15:36:18Z</time>
      </trkpt>
      <trkpt lat="47.01356" lon="-1.98983">
        <ele>1.4</ele>
        <time>2020-06-04T15:36:19Z</time>
      </trkpt>
      <trkpt lat="47.01355" lon="-1.98974">
        <ele>1.4</ele>
        <time>2020-06-04T15:36:20Z</time>
      </trkpt>
      <trkpt lat="47.01355" lon="-1.98966">
        <ele>1.4</ele>
        <time>2020-06-04T15:36:21Z</time>
      </trkpt>
      <trkpt lat="47.01355" lon="-1.98957">
        <ele>1.4</ele>
        <time>2020-06-04T15:36:22Z</time>
      </trkpt>
      <trkpt lat="47.01354" lon="-1.98948">
        <ele>1.4</ele>
        <time>2020-06-04T15:36:23Z</time>
      </trkpt>
      <trkpt lat="47.01354" lon="-1.98939">
        <ele>1.4</ele>
        <time>2020-06-04T15:36:24Z</time>
      </trkpt>
      <trkpt lat="47.01354" lon="-1.98929">
        <ele>1.5</ele>
        <time>2020-06-04T15:36:25Z</time>
      </trkpt>
      <trkpt lat="47.01354" lon="-1.9892">
        <ele>1.5</ele>
        <time>2020-06-04T15:36:26Z</time>
      </trkpt>
      <trkpt lat="47.01354" lon="-1.98911">
        <ele>1.4</ele>
        <time>2020-06-04T15:36:27Z</time>
      </trkpt>
      <trkpt lat="47.01353" lon="-1.98903">
        <ele>1.4</ele>
        <time>2020-06-04T15:36:28Z</time>
      </trkpt>
      <trkpt lat="47.01353" lon="-1.98894">
        <ele>1.4</ele>
        <time>2020-06-04T15:36:29Z</time>
      </trkpt>
      <trkpt lat="47.01353" lon="-1.98884">
        <ele>1.4</ele>
        <time>2020-06-04T15:36:30Z</time>
      </trkpt>
      <trkpt lat="47.01354" lon="-1.98876">
        <ele>1.4</ele>
        <time>2020-06-04T15:36:31Z</time>
      </trkpt>
      <trkpt lat="47.01353" lon="-1.98867">
        <ele>1.4</ele>
        <time>2020-06-04T15:36:32Z</time>
      </trkpt>
      <trkpt lat="47.01353" lon="-1.98859">
        <ele>1.4</ele>
        <time>2020-06-04T15:36:33Z</time>
      </trkpt>
      <trkpt lat="47.01352" lon="-1.98851">
        <ele>1.4</ele>
        <time>2020-06-04T15:36:34Z</time>
      </trkpt>
      <trkpt lat="47.01352" lon="-1.98843">
        <ele>1.3</ele>
        <time>2020-06-04T15:36:35Z</time>
      </trkpt>
      <trkpt lat="47.01352" lon="-1.98836">
        <ele>1.3</ele>
        <time>2020-06-04T15:36:36Z</time>
      </trkpt>
      <trkpt lat="47.01352" lon="-1.98827">
        <ele>1.3</ele>
        <time>2020-06-04T15:36:37Z</time>
      </trkpt>
      <trkpt lat="47.01352" lon="-1.98818">
        <ele>1.3</ele>
        <time>2020-06-04T15:36:38Z</time>
      </trkpt>
      <trkpt lat="47.01352" lon="-1.98811">
        <ele>1.3</ele>
        <time>2020-06-04T15:36:39Z</time>
      </trkpt>
      <trkpt lat="47.01351" lon="-1.98803">
        <ele>1.3</ele>
        <time>2020-06-04T15:36:40Z</time>
      </trkpt>
      <trkpt lat="47.0135" lon="-1.98795">
        <ele>1.3</ele>
        <time>2020-06-04T15:36:41Z</time>
      </trkpt>
      <trkpt lat="47.01349" lon="-1.98787">
        <ele>1.3</ele>
        <time>2020-06-04T15:36:42Z</time>
      </trkpt>
      <trkpt lat="47.01349" lon="-1.98778">
        <ele>1.3</ele>
        <time>2020-06-04T15:36:43Z</time>
      </trkpt>
      <trkpt lat="47.01348" lon="-1.98769">
        <ele>1.3</ele>
        <time>2020-06-04T15:36:44Z</time>
      </trkpt>
      <trkpt lat="47.01348" lon="-1.98761">
        <ele>1.3</ele>
        <time>2020-06-04T15:36:45Z</time>
      </trkpt>
      <trkpt lat="47.01348" lon="-1.98753">
        <ele>1.3</ele>
        <time>2020-06-04T15:36:46Z</time>
      </trkpt>
      <trkpt lat="47.01347" lon="-1.98746">
        <ele>1.3</ele>
        <time>2020-06-04T15:36:47Z</time>
      </trkpt>
      <trkpt lat="47.01347" lon="-1.9874">
        <ele>1.3</ele>
        <time>2020-06-04T15:36:48Z</time>
      </trkpt>
      <trkpt lat="47.01347" lon="-1.98733">
        <ele>1.3</ele>
        <time>2020-06-04T15:36:49Z</time>
      </trkpt>
      <trkpt lat="47.01346" lon="-1.98727">
        <ele>1.4</ele>
        <time>2020-06-04T15:36:50Z</time>
      </trkpt>
      <trkpt lat="47.01346" lon="-1.9872">
        <ele>1.4</ele>
        <time>2020-06-04T15:36:51Z</time>
      </trkpt>
      <trkpt lat="47.01346" lon="-1.98714">
        <ele>1.4</ele>
        <time>2020-06-04T15:36:52Z</time>
      </trkpt>
      <trkpt lat="47.01347" lon="-1.98707">
        <ele>1.4</ele>
        <time>2020-06-04T15:36:53Z</time>
      </trkpt>
      <trkpt lat="47.01347" lon="-1.98702">
        <ele>1.4</ele>
        <time>2020-06-04T15:36:54Z</time>
      </trkpt>
      <trkpt lat="47.01347" lon="-1.98698">
        <ele>1.4</ele>
        <time>2020-06-04T15:36:55Z</time>
      </trkpt>
      <trkpt lat="47.01349" lon="-1.98694">
        <ele>1.4</ele>
        <time>2020-06-04T15:36:56Z</time>
      </trkpt>
      <trkpt lat="47.01354" lon="-1.98693">
        <ele>1.4</ele>
        <time>2020-06-04T15:36:57Z</time>
      </trkpt>
      <trkpt lat="47.01359" lon="-1.98693">
        <ele>1.3</ele>
        <time>2020-06-04T15:36:58Z</time>
      </trkpt>
      <trkpt lat="47.01363" lon="-1.98692">
        <ele>1.3</ele>
        <time>2020-06-04T15:36:59Z</time>
      </trkpt>
      <trkpt lat="47.01367" lon="-1.98694">
        <ele>1.3</ele>
        <time>2020-06-04T15:37:00Z</time>
      </trkpt>
      <trkpt lat="47.01373" lon="-1.98694">
        <ele>1.3</ele>
        <time>2020-06-04T15:37:01Z</time>
      </trkpt>
      <trkpt lat="47.01378" lon="-1.98693">
        <ele>1.3</ele>
        <time>2020-06-04T15:37:02Z</time>
      </trkpt>
      <trkpt lat="47.01382" lon="-1.98694">
        <ele>1.3</ele>
        <time>2020-06-04T15:37:03Z</time>
      </trkpt>
      <trkpt lat="47.01388" lon="-1.98693">
        <ele>1.3</ele>
        <time>2020-06-04T15:37:04Z</time>
      </trkpt>
      <trkpt lat="47.01394" lon="-1.98693">
        <ele>1.2</ele>
        <time>2020-06-04T15:37:05Z</time>
      </trkpt>
      <trkpt lat="47.01399" lon="-1.98694">
        <ele>1.2</ele>
        <time>2020-06-04T15:37:06Z</time>
      </trkpt>
      <trkpt lat="47.01405" lon="-1.98694">
        <ele>1.2</ele>
        <time>2020-06-04T15:37:07Z</time>
      </trkpt>
      <trkpt lat="47.01411" lon="-1.98693">
        <ele>1.1</ele>
        <time>2020-06-04T15:37:08Z</time>
      </trkpt>
      <trkpt lat="47.01416" lon="-1.98692">
        <ele>1.1</ele>
        <time>2020-06-04T15:37:09Z</time>
      </trkpt>
      <trkpt lat="47.01421" lon="-1.98694">
        <ele>1</ele>
        <time>2020-06-04T15:37:10Z</time>
      </trkpt>
      <trkpt lat="47.01427" lon="-1.98695">
        <ele>1</ele>
        <time>2020-06-04T15:37:11Z</time>
      </trkpt>
      <trkpt lat="47.01433" lon="-1.98696">
        <ele>0.9</ele>
        <time>2020-06-04T15:37:12Z</time>
      </trkpt>
      <trkpt lat="47.01439" lon="-1.98694">
        <ele>0.8</ele>
        <time>2020-06-04T15:37:13Z</time>
      </trkpt>
      <trkpt lat="47.01444" lon="-1.98695">
        <ele>0.7</ele>
        <time>2020-06-04T15:37:14Z</time>
      </trkpt>
      <trkpt lat="47.0145" lon="-1.98694">
        <ele>0.7</ele>
        <time>2020-06-04T15:37:15Z</time>
      </trkpt>
      <trkpt lat="47.01456" lon="-1.98694">
        <ele>0.7</ele>
        <time>2020-06-04T15:37:16Z</time>
      </trkpt>
      <trkpt lat="47.01461" lon="-1.98694">
        <ele>0.6</ele>
        <time>2020-06-04T15:37:17Z</time>
      </trkpt>
      <trkpt lat="47.01467" lon="-1.98694">
        <ele>0.6</ele>
        <time>2020-06-04T15:37:18Z</time>
      </trkpt>
      <trkpt lat="47.01473" lon="-1.98694">
        <ele>0.6</ele>
        <time>2020-06-04T15:37:19Z</time>
      </trkpt>
      <trkpt lat="47.0148" lon="-1.98693">
        <ele>0.6</ele>
        <time>2020-06-04T15:37:20Z</time>
      </trkpt>
      <trkpt lat="47.01486" lon="-1.98693">
        <ele>0.5</ele>
        <time>2020-06-04T15:37:21Z</time>
      </trkpt>
      <trkpt lat="47.01493" lon="-1.98693">
        <ele>0.5</ele>
        <time>2020-06-04T15:37:22Z</time>
      </trkpt>
      <trkpt lat="47.01499" lon="-1.98694">
        <ele>0.5</ele>
        <time>2020-06-04T15:37:23Z</time>
      </trkpt>
      <trkpt lat="47.01506" lon="-1.98693">
        <ele>0.4</ele>
        <time>2020-06-04T15:37:24Z</time>
      </trkpt>
      <trkpt lat="47.01511" lon="-1.98693">
        <ele>0.4</ele>
        <time>2020-06-04T15:37:25Z</time>
      </trkpt>
      <trkpt lat="47.01517" lon="-1.98693">
        <ele>0.4</ele>
        <time>2020-06-04T15:37:26Z</time>
      </trkpt>
      <trkpt lat="47.01523" lon="-1.98693">
        <ele>0.3</ele>
        <time>2020-06-04T15:37:27Z</time>
      </trkpt>
      <trkpt lat="47.0153" lon="-1.98694">
        <ele>0.3</ele>
        <time>2020-06-04T15:37:28Z</time>
      </trkpt>
      <trkpt lat="47.01536" lon="-1.98694">
        <ele>0.3</ele>
        <time>2020-06-04T15:37:29Z</time>
      </trkpt>
      <trkpt lat="47.01542" lon="-1.98694">
        <ele>0.2</ele>
        <time>2020-06-04T15:37:30Z</time>
      </trkpt>
      <trkpt lat="47.01548" lon="-1.98694">
        <ele>0.2</ele>
        <time>2020-06-04T15:37:31Z</time>
      </trkpt>
      <trkpt lat="47.01554" lon="-1.98695">
        <ele>0.2</ele>
        <time>2020-06-04T15:37:32Z</time>
      </trkpt>
      <trkpt lat="47.0156" lon="-1.98695">
        <ele>0.2</ele>
        <time>2020-06-04T15:37:33Z</time>
      </trkpt>
      <trkpt lat="47.01567" lon="-1.98695">
        <ele>0.1</ele>
        <time>2020-06-04T15:37:34Z</time>
      </trkpt>
      <trkpt lat="47.01573" lon="-1.98695">
        <ele>0.1</ele>
        <time>2020-06-04T15:37:35Z</time>
      </trkpt>
      <trkpt lat="47.01579" lon="-1.98693">
        <ele>0.1</ele>
        <time>2020-06-04T15:37:36Z</time>
      </trkpt>
      <trkpt lat="47.01585" lon="-1.98693">
        <ele>0.1</ele>
        <time>2020-06-04T15:37:37Z</time>
      </trkpt>
      <trkpt lat="47.01591" lon="-1.9869">
        <ele>0.1</ele>
        <time>2020-06-04T15:37:38Z</time>
      </trkpt>
      <trkpt lat="47.01596" lon="-1.98689">
        <ele>0.1</ele>
        <time>2020-06-04T15:37:39Z</time>
      </trkpt>
      <trkpt lat="47.01603" lon="-1.98685">
        <ele>0.1</ele>
        <time>2020-06-04T15:37:40Z</time>
      </trkpt>
      <trkpt lat="47.01609" lon="-1.98679">
        <ele>0.1</ele>
        <time>2020-06-04T15:37:41Z</time>
      </trkpt>
      <trkpt lat="47.01613" lon="-1.98671">
        <ele>0.1</ele>
        <time>2020-06-04T15:37:42Z</time>
      </trkpt>
      <trkpt lat="47.01618" lon="-1.98663">
        <ele>0.1</ele>
        <time>2020-06-04T15:37:43Z</time>
      </trkpt>
      <trkpt lat="47.01622" lon="-1.98656">
        <ele>0.1</ele>
        <time>2020-06-04T15:37:44Z</time>
      </trkpt>
      <trkpt lat="47.01626" lon="-1.98647">
        <ele>0.1</ele>
        <time>2020-06-04T15:37:45Z</time>
      </trkpt>
      <trkpt lat="47.01629" lon="-1.9864">
        <ele>0.1</ele>
        <time>2020-06-04T15:37:46Z</time>
      </trkpt>
      <trkpt lat="47.01633" lon="-1.98633">
        <ele>0.1</ele>
        <time>2020-06-04T15:37:47Z</time>
      </trkpt>
      <trkpt lat="47.01636" lon="-1.98627">
        <ele>0.1</ele>
        <time>2020-06-04T15:37:48Z</time>
      </trkpt>
      <trkpt lat="47.0164" lon="-1.98618">
        <ele>0.1</ele>
        <time>2020-06-04T15:37:49Z</time>
      </trkpt>
      <trkpt lat="47.01643" lon="-1.98612">
        <ele>0.1</ele>
        <time>2020-06-04T15:37:50Z</time>
      </trkpt>
      <trkpt lat="47.01647" lon="-1.98605">
        <ele>0.1</ele>
        <time>2020-06-04T15:37:51Z</time>
      </trkpt>
      <trkpt lat="47.0165" lon="-1.98597">
        <ele>0.1</ele>
        <time>2020-06-04T15:37:52Z</time>
      </trkpt>
      <trkpt lat="47.01654" lon="-1.9859">
        <ele>0.1</ele>
        <time>2020-06-04T15:37:53Z</time>
      </trkpt>
      <trkpt lat="47.01658" lon="-1.98582">
        <ele>0.1</ele>
        <time>2020-06-04T15:37:54Z</time>
      </trkpt>
      <trkpt lat="47.01661" lon="-1.98575">
        <ele>0.1</ele>
        <time>2020-06-04T15:37:55Z</time>
      </trkpt>
      <trkpt lat="47.01664" lon="-1.98567">
        <ele>0.1</ele>
        <time>2020-06-04T15:37:56Z</time>
      </trkpt>
      <trkpt lat="47.01667" lon="-1.9856">
        <ele>0.1</ele>
        <time>2020-06-04T15:37:57Z</time>
      </trkpt>
      <trkpt lat="47.01671" lon="-1.98554">
        <ele>0.1</ele>
        <time>2020-06-04T15:37:58Z</time>
      </trkpt>
      <trkpt lat="47.01674" lon="-1.98547">
        <ele>0.1</ele>
        <time>2020-06-04T15:37:59Z</time>
      </trkpt>
      <trkpt lat="47.01677" lon="-1.98539">
        <ele>0.1</ele>
        <time>2020-06-04T15:38:00Z</time>
      </trkpt>
      <trkpt lat="47.01681" lon="-1.98532">
        <ele>0.2</ele>
        <time>2020-06-04T15:38:01Z</time>
      </trkpt>
      <trkpt lat="47.01684" lon="-1.98524">
        <ele>0.2</ele>
        <time>2020-06-04T15:38:02Z</time>
      </trkpt>
      <trkpt lat="47.01688" lon="-1.98517">
        <ele>0.2</ele>
        <time>2020-06-04T15:38:03Z</time>
      </trkpt>
      <trkpt lat="47.01691" lon="-1.98511">
        <ele>0.2</ele>
        <time>2020-06-04T15:38:04Z</time>
      </trkpt>
      <trkpt lat="47.01695" lon="-1.98505">
        <ele>0.2</ele>
        <time>2020-06-04T15:38:05Z</time>
      </trkpt>
      <trkpt lat="47.01699" lon="-1.98498">
        <ele>0.2</ele>
        <time>2020-06-04T15:38:06Z</time>
      </trkpt>
      <trkpt lat="47.01704" lon="-1.98489">
        <ele>0.2</ele>
        <time>2020-06-04T15:38:07Z</time>
      </trkpt>
      <trkpt lat="47.01708" lon="-1.98481">
        <ele>0.2</ele>
        <time>2020-06-04T15:38:08Z</time>
      </trkpt>
      <trkpt lat="47.01713" lon="-1.98474">
        <ele>0.2</ele>
        <time>2020-06-04T15:38:09Z</time>
      </trkpt>
      <trkpt lat="47.01716" lon="-1.98467">
        <ele>0.2</ele>
        <time>2020-06-04T15:38:10Z</time>
      </trkpt>
      <trkpt lat="47.01719" lon="-1.9846">
        <ele>0.2</ele>
        <time>2020-06-04T15:38:11Z</time>
      </trkpt>
      <trkpt lat="47.01724" lon="-1.98452">
        <ele>0.2</ele>
        <time>2020-06-04T15:38:12Z</time>
      </trkpt>
      <trkpt lat="47.01728" lon="-1.98445">
        <ele>0.2</ele>
        <time>2020-06-04T15:38:13Z</time>
      </trkpt>
      <trkpt lat="47.01732" lon="-1.98438">
        <ele>0.2</ele>
        <time>2020-06-04T15:38:14Z</time>
      </trkpt>
      <trkpt lat="47.01736" lon="-1.98431">
        <ele>0.1</ele>
        <time>2020-06-04T15:38:15Z</time>
      </trkpt>
      <trkpt lat="47.0174" lon="-1.98423">
        <ele>0.1</ele>
        <time>2020-06-04T15:38:16Z</time>
      </trkpt>
      <trkpt lat="47.01744" lon="-1.98416">
        <ele>0.1</ele>
        <time>2020-06-04T15:38:17Z</time>
      </trkpt>
      <trkpt lat="47.01748" lon="-1.98408">
        <ele>0.1</ele>
        <time>2020-06-04T15:38:18Z</time>
      </trkpt>
      <trkpt lat="47.01752" lon="-1.98401">
        <ele>0.1</ele>
        <time>2020-06-04T15:38:19Z</time>
      </trkpt>
      <trkpt lat="47.01756" lon="-1.98393">
        <ele>0.1</ele>
        <time>2020-06-04T15:38:20Z</time>
      </trkpt>
      <trkpt lat="47.0176" lon="-1.98385">
        <ele>0.1</ele>
        <time>2020-06-04T15:38:21Z</time>
      </trkpt>
      <trkpt lat="47.01764" lon="-1.98378">
        <ele>0.1</ele>
        <time>2020-06-04T15:38:22Z</time>
      </trkpt>
      <trkpt lat="47.01768" lon="-1.9837">
        <ele>0.1</ele>
        <time>2020-06-04T15:38:23Z</time>
      </trkpt>
      <trkpt lat="47.01772" lon="-1.98363">
        <ele>0.1</ele>
        <time>2020-06-04T15:38:24Z</time>
      </trkpt>
      <trkpt lat="47.01776" lon="-1.98355">
        <ele>0.1</ele>
        <time>2020-06-04T15:38:25Z</time>
      </trkpt>
      <trkpt lat="47.0178" lon="-1.98347">
        <ele>0.1</ele>
        <time>2020-06-04T15:38:26Z</time>
      </trkpt>
      <trkpt lat="47.01784" lon="-1.98339">
        <ele>0.1</ele>
        <time>2020-06-04T15:38:27Z</time>
      </trkpt>
      <trkpt lat="47.01788" lon="-1.98331">
        <ele>0.1</ele>
        <time>2020-06-04T15:38:28Z</time>
      </trkpt>
      <trkpt lat="47.01793" lon="-1.98323">
        <ele>0.1</ele>
        <time>2020-06-04T15:38:29Z</time>
      </trkpt>
      <trkpt lat="47.01797" lon="-1.98316">
        <ele>0.1</ele>
        <time>2020-06-04T15:38:30Z</time>
      </trkpt>
      <trkpt lat="47.018" lon="-1.98308">
        <ele>0.1</ele>
        <time>2020-06-04T15:38:31Z</time>
      </trkpt>
      <trkpt lat="47.01804" lon="-1.983">
        <ele>0.1</ele>
        <time>2020-06-04T15:38:32Z</time>
      </trkpt>
      <trkpt lat="47.01808" lon="-1.98292">
        <ele>0.1</ele>
        <time>2020-06-04T15:38:33Z</time>
      </trkpt>
      <trkpt lat="47.01812" lon="-1.98284">
        <ele>0.1</ele>
        <time>2020-06-04T15:38:34Z</time>
      </trkpt>
      <trkpt lat="47.01816" lon="-1.98276">
        <ele>0.1</ele>
        <time>2020-06-04T15:38:35Z</time>
      </trkpt>
      <trkpt lat="47.0182" lon="-1.98269">
        <ele>0.1</ele>
        <time>2020-06-04T15:38:36Z</time>
      </trkpt>
      <trkpt lat="47.01824" lon="-1.98261">
        <ele>0.1</ele>
        <time>2020-06-04T15:38:37Z</time>
      </trkpt>
      <trkpt lat="47.01828" lon="-1.98254">
        <ele>0.2</ele>
        <time>2020-06-04T15:38:38Z</time>
      </trkpt>
      <trkpt lat="47.01832" lon="-1.98247">
        <ele>0.2</ele>
        <time>2020-06-04T15:38:39Z</time>
      </trkpt>
      <trkpt lat="47.01836" lon="-1.98239">
        <ele>0.2</ele>
        <time>2020-06-04T15:38:40Z</time>
      </trkpt>
      <trkpt lat="47.0184" lon="-1.98232">
        <ele>0.2</ele>
        <time>2020-06-04T15:38:41Z</time>
      </trkpt>
      <trkpt lat="47.01844" lon="-1.98224">
        <ele>0.1</ele>
        <time>2020-06-04T15:38:42Z</time>
      </trkpt>
      <trkpt lat="47.01847" lon="-1.98217">
        <ele>0.1</ele>
        <time>2020-06-04T15:38:43Z</time>
      </trkpt>
      <trkpt lat="47.01852" lon="-1.9821">
        <ele>0.1</ele>
        <time>2020-06-04T15:38:44Z</time>
      </trkpt>
      <trkpt lat="47.01855" lon="-1.98202">
        <ele>0.1</ele>
        <time>2020-06-04T15:38:45Z</time>
      </trkpt>
      <trkpt lat="47.01859" lon="-1.98194">
        <ele>0.1</ele>
        <time>2020-06-04T15:38:46Z</time>
      </trkpt>
      <trkpt lat="47.01863" lon="-1.98187">
        <ele>0.1</ele>
        <time>2020-06-04T15:38:47Z</time>
      </trkpt>
      <trkpt lat="47.01867" lon="-1.98179">
        <ele>0.1</ele>
        <time>2020-06-04T15:38:48Z</time>
      </trkpt>
      <trkpt lat="47.01871" lon="-1.98172">
        <ele>0.1</ele>
        <time>2020-06-04T15:38:49Z</time>
      </trkpt>
      <trkpt lat="47.01875" lon="-1.98164">
        <ele>0.1</ele>
        <time>2020-06-04T15:38:50Z</time>
      </trkpt>
      <trkpt lat="47.01879" lon="-1.98157">
        <ele>0.1</ele>
        <time>2020-06-04T15:38:51Z</time>
      </trkpt>
      <trkpt lat="47.01883" lon="-1.98151">
        <ele>0.2</ele>
        <time>2020-06-04T15:38:52Z</time>
      </trkpt>
      <trkpt lat="47.01887" lon="-1.98143">
        <ele>0.2</ele>
        <time>2020-06-04T15:38:53Z</time>
      </trkpt>
      <trkpt lat="47.01891" lon="-1.98136">
        <ele>0.2</ele>
        <time>2020-06-04T15:38:54Z</time>
      </trkpt>
      <trkpt lat="47.01894" lon="-1.98128">
        <ele>0.2</ele>
        <time>2020-06-04T15:38:55Z</time>
      </trkpt>
      <trkpt lat="47.01899" lon="-1.98121">
        <ele>0.3</ele>
        <time>2020-06-04T15:38:56Z</time>
      </trkpt>
      <trkpt lat="47.01902" lon="-1.98114">
        <ele>0.3</ele>
        <time>2020-06-04T15:38:57Z</time>
      </trkpt>
      <trkpt lat="47.01906" lon="-1.98106">
        <ele>0.3</ele>
        <time>2020-06-04T15:38:58Z</time>
      </trkpt>
      <trkpt lat="47.0191" lon="-1.98099">
        <ele>0.3</ele>
        <time>2020-06-04T15:38:59Z</time>
      </trkpt>
      <trkpt lat="47.01914" lon="-1.98092">
        <ele>0.3</ele>
        <time>2020-06-04T15:39:00Z</time>
      </trkpt>
      <trkpt lat="47.01918" lon="-1.98085">
        <ele>0.3</ele>
        <time>2020-06-04T15:39:01Z</time>
      </trkpt>
      <trkpt lat="47.01922" lon="-1.98078">
        <ele>0.3</ele>
        <time>2020-06-04T15:39:02Z</time>
      </trkpt>
      <trkpt lat="47.01926" lon="-1.9807">
        <ele>0.3</ele>
        <time>2020-06-04T15:39:03Z</time>
      </trkpt>
      <trkpt lat="47.01929" lon="-1.98062">
        <ele>0.3</ele>
        <time>2020-06-04T15:39:04Z</time>
      </trkpt>
      <trkpt lat="47.01933" lon="-1.98055">
        <ele>0.3</ele>
        <time>2020-06-04T15:39:05Z</time>
      </trkpt>
      <trkpt lat="47.01937" lon="-1.98048">
        <ele>0.3</ele>
        <time>2020-06-04T15:39:06Z</time>
      </trkpt>
      <trkpt lat="47.0194" lon="-1.9804">
        <ele>0.4</ele>
        <time>2020-06-04T15:39:07Z</time>
      </trkpt>
      <trkpt lat="47.01944" lon="-1.98033">
        <ele>0.4</ele>
        <time>2020-06-04T15:39:08Z</time>
      </trkpt>
      <trkpt lat="47.01948" lon="-1.98026">
        <ele>0.4</ele>
        <time>2020-06-04T15:39:09Z</time>
      </trkpt>
      <trkpt lat="47.01952" lon="-1.98018">
        <ele>0.4</ele>
        <time>2020-06-04T15:39:10Z</time>
      </trkpt>
      <trkpt lat="47.01956" lon="-1.98011">
        <ele>0.4</ele>
        <time>2020-06-04T15:39:11Z</time>
      </trkpt>
      <trkpt lat="47.0196" lon="-1.98004">
        <ele>0.4</ele>
        <time>2020-06-04T15:39:12Z</time>
      </trkpt>
      <trkpt lat="47.01964" lon="-1.97997">
        <ele>0.4</ele>
        <time>2020-06-04T15:39:13Z</time>
      </trkpt>
      <trkpt lat="47.01967" lon="-1.97989">
        <ele>0.4</ele>
        <time>2020-06-04T15:39:14Z</time>
      </trkpt>
      <trkpt lat="47.01971" lon="-1.97982">
        <ele>0.4</ele>
        <time>2020-06-04T15:39:15Z</time>
      </trkpt>
      <trkpt lat="47.01975" lon="-1.97975">
        <ele>0.4</ele>
        <time>2020-06-04T15:39:16Z</time>
      </trkpt>
      <trkpt lat="47.01978" lon="-1.97968">
        <ele>0.4</ele>
        <time>2020-06-04T15:39:17Z</time>
      </trkpt>
      <trkpt lat="47.01982" lon="-1.97961">
        <ele>0.4</ele>
        <time>2020-06-04T15:39:18Z</time>
      </trkpt>
      <trkpt lat="47.01985" lon="-1.97955">
        <ele>0.4</ele>
        <time>2020-06-04T15:39:19Z</time>
      </trkpt>
      <trkpt lat="47.01989" lon="-1.97946">
        <ele>0.4</ele>
        <time>2020-06-04T15:39:20Z</time>
      </trkpt>
      <trkpt lat="47.01994" lon="-1.97939">
        <ele>0.4</ele>
        <time>2020-06-04T15:39:21Z</time>
      </trkpt>
      <trkpt lat="47.01996" lon="-1.97932">
        <ele>0.4</ele>
        <time>2020-06-04T15:39:22Z</time>
      </trkpt>
      <trkpt lat="47.02" lon="-1.97926">
        <ele>0.4</ele>
        <time>2020-06-04T15:39:23Z</time>
      </trkpt>
      <trkpt lat="47.02003" lon="-1.9792">
        <ele>0.4</ele>
        <time>2020-06-04T15:39:24Z</time>
      </trkpt>
      <trkpt lat="47.02007" lon="-1.97914">
        <ele>0.5</ele>
        <time>2020-06-04T15:39:25Z</time>
      </trkpt>
      <trkpt lat="47.02012" lon="-1.97907">
        <ele>0.5</ele>
        <time>2020-06-04T15:39:26Z</time>
      </trkpt>
      <trkpt lat="47.02015" lon="-1.97899">
        <ele>0.5</ele>
        <time>2020-06-04T15:39:27Z</time>
      </trkpt>
      <trkpt lat="47.02019" lon="-1.97893">
        <ele>0.4</ele>
        <time>2020-06-04T15:39:28Z</time>
      </trkpt>
      <trkpt lat="47.02023" lon="-1.97886">
        <ele>0.4</ele>
        <time>2020-06-04T15:39:29Z</time>
      </trkpt>
      <trkpt lat="47.02026" lon="-1.97879">
        <ele>0.4</ele>
        <time>2020-06-04T15:39:30Z</time>
      </trkpt>
      <trkpt lat="47.0203" lon="-1.97872">
        <ele>0.4</ele>
        <time>2020-06-04T15:39:31Z</time>
      </trkpt>
      <trkpt lat="47.02034" lon="-1.97865">
        <ele>0.4</ele>
        <time>2020-06-04T15:39:32Z</time>
      </trkpt>
      <trkpt lat="47.02037" lon="-1.97857">
        <ele>0.4</ele>
        <time>2020-06-04T15:39:33Z</time>
      </trkpt>
      <trkpt lat="47.02041" lon="-1.9785">
        <ele>0.4</ele>
        <time>2020-06-04T15:39:34Z</time>
      </trkpt>
      <trkpt lat="47.02044" lon="-1.97844">
        <ele>0.4</ele>
        <time>2020-06-04T15:39:35Z</time>
      </trkpt>
      <trkpt lat="47.02048" lon="-1.97837">
        <ele>0.5</ele>
        <time>2020-06-04T15:39:36Z</time>
      </trkpt>
      <trkpt lat="47.02051" lon="-1.9783">
        <ele>0.5</ele>
        <time>2020-06-04T15:39:37Z</time>
      </trkpt>
      <trkpt lat="47.02055" lon="-1.97824">
        <ele>0.5</ele>
        <time>2020-06-04T15:39:38Z</time>
      </trkpt>
      <trkpt lat="47.02058" lon="-1.97817">
        <ele>0.5</ele>
        <time>2020-06-04T15:39:39Z</time>
      </trkpt>
      <trkpt lat="47.02062" lon="-1.97811">
        <ele>0.6</ele>
        <time>2020-06-04T15:39:40Z</time>
      </trkpt>
      <trkpt lat="47.02065" lon="-1.97805">
        <ele>0.6</ele>
        <time>2020-06-04T15:39:41Z</time>
      </trkpt>
      <trkpt lat="47.02069" lon="-1.97799">
        <ele>0.6</ele>
        <time>2020-06-04T15:39:42Z</time>
      </trkpt>
      <trkpt lat="47.02073" lon="-1.97791">
        <ele>0.6</ele>
        <time>2020-06-04T15:39:43Z</time>
      </trkpt>
      <trkpt lat="47.02078" lon="-1.97782">
        <ele>0.6</ele>
        <time>2020-06-04T15:39:44Z</time>
      </trkpt>
      <trkpt lat="47.02082" lon="-1.97775">
        <ele>0.6</ele>
        <time>2020-06-04T15:39:45Z</time>
      </trkpt>
      <trkpt lat="47.02085" lon="-1.97767">
        <ele>0.6</ele>
        <time>2020-06-04T15:39:46Z</time>
      </trkpt>
      <trkpt lat="47.02089" lon="-1.9776">
        <ele>0.6</ele>
        <time>2020-06-04T15:39:47Z</time>
      </trkpt>
      <trkpt lat="47.02093" lon="-1.97752">
        <ele>0.6</ele>
        <time>2020-06-04T15:39:48Z</time>
      </trkpt>
      <trkpt lat="47.02096" lon="-1.97745">
        <ele>0.6</ele>
        <time>2020-06-04T15:39:49Z</time>
      </trkpt>
      <trkpt lat="47.021" lon="-1.97738">
        <ele>0.6</ele>
        <time>2020-06-04T15:39:50Z</time>
      </trkpt>
      <trkpt lat="47.02103" lon="-1.97732">
        <ele>0.6</ele>
        <time>2020-06-04T15:39:51Z</time>
      </trkpt>
      <trkpt lat="47.02107" lon="-1.97725">
        <ele>0.6</ele>
        <time>2020-06-04T15:39:52Z</time>
      </trkpt>
      <trkpt lat="47.02111" lon="-1.97719">
        <ele>0.6</ele>
        <time>2020-06-04T15:39:53Z</time>
      </trkpt>
      <trkpt lat="47.02115" lon="-1.97712">
        <ele>0.6</ele>
        <time>2020-06-04T15:39:54Z</time>
      </trkpt>
      <trkpt lat="47.02118" lon="-1.97705">
        <ele>0.6</ele>
        <time>2020-06-04T15:39:55Z</time>
      </trkpt>
      <trkpt lat="47.02122" lon="-1.97698">
        <ele>0.6</ele>
        <time>2020-06-04T15:39:56Z</time>
      </trkpt>
      <trkpt lat="47.02126" lon="-1.97691">
        <ele>0.6</ele>
        <time>2020-06-04T15:39:57Z</time>
      </trkpt>
      <trkpt lat="47.02129" lon="-1.97684">
        <ele>0.6</ele>
        <time>2020-06-04T15:39:58Z</time>
      </trkpt>
      <trkpt lat="47.02132" lon="-1.97677">
        <ele>0.6</ele>
        <time>2020-06-04T15:39:59Z</time>
      </trkpt>
      <trkpt lat="47.02136" lon="-1.9767">
        <ele>0.6</ele>
        <time>2020-06-04T15:40:00Z</time>
      </trkpt>
      <trkpt lat="47.02139" lon="-1.97663">
        <ele>0.6</ele>
        <time>2020-06-04T15:40:01Z</time>
      </trkpt>
      <trkpt lat="47.02143" lon="-1.97655">
        <ele>0.6</ele>
        <time>2020-06-04T15:40:02Z</time>
      </trkpt>
      <trkpt lat="47.02145" lon="-1.97648">
        <ele>0.6</ele>
        <time>2020-06-04T15:40:03Z</time>
      </trkpt>
      <trkpt lat="47.02149" lon="-1.97643">
        <ele>0.6</ele>
        <time>2020-06-04T15:40:04Z</time>
      </trkpt>
      <trkpt lat="47.02152" lon="-1.97637">
        <ele>0.6</ele>
        <time>2020-06-04T15:40:05Z</time>
      </trkpt>
      <trkpt lat="47.02155" lon="-1.9763">
        <ele>0.6</ele>
        <time>2020-06-04T15:40:06Z</time>
      </trkpt>
      <trkpt lat="47.02158" lon="-1.97624">
        <ele>0.6</ele>
        <time>2020-06-04T15:40:07Z</time>
      </trkpt>
      <trkpt lat="47.02162" lon="-1.97618">
        <ele>0.6</ele>
        <time>2020-06-04T15:40:08Z</time>
      </trkpt>
      <trkpt lat="47.02167" lon="-1.97613">
        <ele>0.6</ele>
        <time>2020-06-04T15:40:09Z</time>
      </trkpt>
      <trkpt lat="47.02171" lon="-1.97609">
        <ele>0.6</ele>
        <time>2020-06-04T15:40:10Z</time>
      </trkpt>
      <trkpt lat="47.02175" lon="-1.97606">
        <ele>0.6</ele>
        <time>2020-06-04T15:40:11Z</time>
      </trkpt>
      <trkpt lat="47.0218" lon="-1.97603">
        <ele>0.6</ele>
        <time>2020-06-04T15:40:12Z</time>
      </trkpt>
      <trkpt lat="47.02184" lon="-1.97602">
        <ele>0.6</ele>
        <time>2020-06-04T15:40:13Z</time>
      </trkpt>
      <trkpt lat="47.02189" lon="-1.97601">
        <ele>0.6</ele>
        <time>2020-06-04T15:40:14Z</time>
      </trkpt>
      <trkpt lat="47.02194" lon="-1.976">
        <ele>0.6</ele>
        <time>2020-06-04T15:40:15Z</time>
      </trkpt>
      <trkpt lat="47.02198" lon="-1.976">
        <ele>0.6</ele>
        <time>2020-06-04T15:40:16Z</time>
      </trkpt>
      <trkpt lat="47.02202" lon="-1.976">
        <ele>0.6</ele>
        <time>2020-06-04T15:40:17Z</time>
      </trkpt>
      <trkpt lat="47.02207" lon="-1.97598">
        <ele>0.6</ele>
        <time>2020-06-04T15:40:18Z</time>
      </trkpt>
      <trkpt lat="47.02212" lon="-1.97598">
        <ele>0.6</ele>
        <time>2020-06-04T15:40:19Z</time>
      </trkpt>
      <trkpt lat="47.02217" lon="-1.97598">
        <ele>0.6</ele>
        <time>2020-06-04T15:40:20Z</time>
      </trkpt>
      <trkpt lat="47.02222" lon="-1.97598">
        <ele>0.6</ele>
        <time>2020-06-04T15:40:21Z</time>
      </trkpt>
      <trkpt lat="47.02227" lon="-1.97598">
        <ele>0.6</ele>
        <time>2020-06-04T15:40:22Z</time>
      </trkpt>
      <trkpt lat="47.02231" lon="-1.97598">
        <ele>0.6</ele>
        <time>2020-06-04T15:40:23Z</time>
      </trkpt>
      <trkpt lat="47.02238" lon="-1.97597">
        <ele>0.6</ele>
        <time>2020-06-04T15:40:24Z</time>
      </trkpt>
      <trkpt lat="47.02244" lon="-1.97598">
        <ele>0.6</ele>
        <time>2020-06-04T15:40:25Z</time>
      </trkpt>
      <trkpt lat="47.0225" lon="-1.97599">
        <ele>0.6</ele>
        <time>2020-06-04T15:40:26Z</time>
      </trkpt>
      <trkpt lat="47.02256" lon="-1.97599">
        <ele>0.6</ele>
        <time>2020-06-04T15:40:27Z</time>
      </trkpt>
      <trkpt lat="47.02262" lon="-1.976">
        <ele>0.6</ele>
        <time>2020-06-04T15:40:28Z</time>
      </trkpt>
      <trkpt lat="47.02267" lon="-1.97599">
        <ele>0.6</ele>
        <time>2020-06-04T15:40:29Z</time>
      </trkpt>
      <trkpt lat="47.02272" lon="-1.97599">
        <ele>0.6</ele>
        <time>2020-06-04T15:40:30Z</time>
      </trkpt>
      <trkpt lat="47.02278" lon="-1.97598">
        <ele>0.6</ele>
        <time>2020-06-04T15:40:31Z</time>
      </trkpt>
      <trkpt lat="47.02283" lon="-1.97598">
        <ele>0.6</ele>
        <time>2020-06-04T15:40:32Z</time>
      </trkpt>
      <trkpt lat="47.02288" lon="-1.97598">
        <ele>0.6</ele>
        <time>2020-06-04T15:40:33Z</time>
      </trkpt>
      <trkpt lat="47.02293" lon="-1.97597">
        <ele>0.6</ele>
        <time>2020-06-04T15:40:34Z</time>
      </trkpt>
      <trkpt lat="47.02299" lon="-1.97596">
        <ele>0.6</ele>
        <time>2020-06-04T15:40:35Z</time>
      </trkpt>
      <trkpt lat="47.02305" lon="-1.97596">
        <ele>0.6</ele>
        <time>2020-06-04T15:40:36Z</time>
      </trkpt>
      <trkpt lat="47.0231" lon="-1.97596">
        <ele>0.6</ele>
        <time>2020-06-04T15:40:37Z</time>
      </trkpt>
      <trkpt lat="47.02314" lon="-1.97596">
        <ele>0.6</ele>
        <time>2020-06-04T15:40:38Z</time>
      </trkpt>
      <trkpt lat="47.02319" lon="-1.97596">
        <ele>0.6</ele>
        <time>2020-06-04T15:40:39Z</time>
      </trkpt>
      <trkpt lat="47.02324" lon="-1.97595">
        <ele>0.6</ele>
        <time>2020-06-04T15:40:40Z</time>
      </trkpt>
      <trkpt lat="47.02328" lon="-1.97595">
        <ele>0.6</ele>
        <time>2020-06-04T15:40:41Z</time>
      </trkpt>
      <trkpt lat="47.02332" lon="-1.97594">
        <ele>0.6</ele>
        <time>2020-06-04T15:40:42Z</time>
      </trkpt>
      <trkpt lat="47.02339" lon="-1.97592">
        <ele>0.6</ele>
        <time>2020-06-04T15:40:43Z</time>
      </trkpt>
      <trkpt lat="47.02343" lon="-1.97592">
        <ele>0.6</ele>
        <time>2020-06-04T15:40:44Z</time>
      </trkpt>
      <trkpt lat="47.02348" lon="-1.97592">
        <ele>0.6</ele>
        <time>2020-06-04T15:40:45Z</time>
      </trkpt>
      <trkpt lat="47.02352" lon="-1.9759">
        <ele>0.6</ele>
        <time>2020-06-04T15:40:46Z</time>
      </trkpt>
      <trkpt lat="47.02358" lon="-1.9759">
        <ele>0.6</ele>
        <time>2020-06-04T15:40:47Z</time>
      </trkpt>
      <trkpt lat="47.02363" lon="-1.9759">
        <ele>0.6</ele>
        <time>2020-06-04T15:40:48Z</time>
      </trkpt>
      <trkpt lat="47.02371" lon="-1.97588">
        <ele>0.6</ele>
        <time>2020-06-04T15:40:49Z</time>
      </trkpt>
      <trkpt lat="47.02378" lon="-1.97589">
        <ele>0.6</ele>
        <time>2020-06-04T15:40:50Z</time>
      </trkpt>
      <trkpt lat="47.02384" lon="-1.97589">
        <ele>0.6</ele>
        <time>2020-06-04T15:40:51Z</time>
      </trkpt>
      <trkpt lat="47.02388" lon="-1.97588">
        <ele>0.6</ele>
        <time>2020-06-04T15:40:52Z</time>
      </trkpt>
      <trkpt lat="47.02394" lon="-1.97588">
        <ele>0.6</ele>
        <time>2020-06-04T15:40:53Z</time>
      </trkpt>
      <trkpt lat="47.02399" lon="-1.97588">
        <ele>0.6</ele>
        <time>2020-06-04T15:40:54Z</time>
      </trkpt>
      <trkpt lat="47.02404" lon="-1.97588">
        <ele>0.6</ele>
        <time>2020-06-04T15:40:55Z</time>
      </trkpt>
      <trkpt lat="47.02409" lon="-1.97588">
        <ele>0.6</ele>
        <time>2020-06-04T15:40:56Z</time>
      </trkpt>
      <trkpt lat="47.02414" lon="-1.97587">
        <ele>0.6</ele>
        <time>2020-06-04T15:40:57Z</time>
      </trkpt>
      <trkpt lat="47.0242" lon="-1.97586">
        <ele>0.6</ele>
        <time>2020-06-04T15:40:58Z</time>
      </trkpt>
      <trkpt lat="47.02425" lon="-1.97586">
        <ele>0.6</ele>
        <time>2020-06-04T15:40:59Z</time>
      </trkpt>
      <trkpt lat="47.0243" lon="-1.97586">
        <ele>0.5</ele>
        <time>2020-06-04T15:41:00Z</time>
      </trkpt>
      <trkpt lat="47.02435" lon="-1.97586">
        <ele>0.5</ele>
        <time>2020-06-04T15:41:01Z</time>
      </trkpt>
      <trkpt lat="47.02441" lon="-1.97586">
        <ele>0.5</ele>
        <time>2020-06-04T15:41:02Z</time>
      </trkpt>
      <trkpt lat="47.02447" lon="-1.97585">
        <ele>0.5</ele>
        <time>2020-06-04T15:41:03Z</time>
      </trkpt>
      <trkpt lat="47.02452" lon="-1.97585">
        <ele>0.5</ele>
        <time>2020-06-04T15:41:04Z</time>
      </trkpt>
      <trkpt lat="47.02457" lon="-1.97584">
        <ele>0.5</ele>
        <time>2020-06-04T15:41:05Z</time>
      </trkpt>
      <trkpt lat="47.02463" lon="-1.97584">
        <ele>0.5</ele>
        <time>2020-06-04T15:41:06Z</time>
      </trkpt>
      <trkpt lat="47.02468" lon="-1.97584">
        <ele>0.5</ele>
        <time>2020-06-04T15:41:07Z</time>
      </trkpt>
      <trkpt lat="47.02473" lon="-1.97584">
        <ele>0.5</ele>
        <time>2020-06-04T15:41:08Z</time>
      </trkpt>
      <trkpt lat="47.02479" lon="-1.97583">
        <ele>0.5</ele>
        <time>2020-06-04T15:41:09Z</time>
      </trkpt>
      <trkpt lat="47.02485" lon="-1.97582">
        <ele>0.5</ele>
        <time>2020-06-04T15:41:10Z</time>
      </trkpt>
      <trkpt lat="47.02491" lon="-1.97582">
        <ele>0.5</ele>
        <time>2020-06-04T15:41:11Z</time>
      </trkpt>
      <trkpt lat="47.02496" lon="-1.97581">
        <ele>0.5</ele>
        <time>2020-06-04T15:41:12Z</time>
      </trkpt>
      <trkpt lat="47.02502" lon="-1.97581">
        <ele>0.5</ele>
        <time>2020-06-04T15:41:13Z</time>
      </trkpt>
      <trkpt lat="47.02507" lon="-1.9758">
        <ele>0.5</ele>
        <time>2020-06-04T15:41:14Z</time>
      </trkpt>
      <trkpt lat="47.02513" lon="-1.9758">
        <ele>0.5</ele>
        <time>2020-06-04T15:41:15Z</time>
      </trkpt>
      <trkpt lat="47.02518" lon="-1.97579">
        <ele>0.5</ele>
        <time>2020-06-04T15:41:16Z</time>
      </trkpt>
      <trkpt lat="47.02523" lon="-1.97579">
        <ele>0.5</ele>
        <time>2020-06-04T15:41:17Z</time>
      </trkpt>
      <trkpt lat="47.02529" lon="-1.97578">
        <ele>0.5</ele>
        <time>2020-06-04T15:41:18Z</time>
      </trkpt>
      <trkpt lat="47.02535" lon="-1.97576">
        <ele>0.5</ele>
        <time>2020-06-04T15:41:19Z</time>
      </trkpt>
      <trkpt lat="47.0254" lon="-1.97576">
        <ele>0.5</ele>
        <time>2020-06-04T15:41:20Z</time>
      </trkpt>
      <trkpt lat="47.02546" lon="-1.97575">
        <ele>0.5</ele>
        <time>2020-06-04T15:41:21Z</time>
      </trkpt>
      <trkpt lat="47.02552" lon="-1.97576">
        <ele>0.5</ele>
        <time>2020-06-04T15:41:22Z</time>
      </trkpt>
      <trkpt lat="47.02558" lon="-1.97576">
        <ele>0.5</ele>
        <time>2020-06-04T15:41:23Z</time>
      </trkpt>
      <trkpt lat="47.02563" lon="-1.97576">
        <ele>0.5</ele>
        <time>2020-06-04T15:41:24Z</time>
      </trkpt>
      <trkpt lat="47.02568" lon="-1.97577">
        <ele>0.5</ele>
        <time>2020-06-04T15:41:25Z</time>
      </trkpt>
      <trkpt lat="47.02573" lon="-1.97576">
        <ele>0.5</ele>
        <time>2020-06-04T15:41:26Z</time>
      </trkpt>
      <trkpt lat="47.02579" lon="-1.97575">
        <ele>0.6</ele>
        <time>2020-06-04T15:41:27Z</time>
      </trkpt>
      <trkpt lat="47.02585" lon="-1.97575">
        <ele>0.6</ele>
        <time>2020-06-04T15:41:28Z</time>
      </trkpt>
      <trkpt lat="47.0259" lon="-1.97574">
        <ele>0.6</ele>
        <time>2020-06-04T15:41:29Z</time>
      </trkpt>
      <trkpt lat="47.02596" lon="-1.97574">
        <ele>0.6</ele>
        <time>2020-06-04T15:41:30Z</time>
      </trkpt>
      <trkpt lat="47.02602" lon="-1.97573">
        <ele>0.7</ele>
        <time>2020-06-04T15:41:31Z</time>
      </trkpt>
      <trkpt lat="47.02607" lon="-1.97573">
        <ele>0.7</ele>
        <time>2020-06-04T15:41:32Z</time>
      </trkpt>
      <trkpt lat="47.02613" lon="-1.97574">
        <ele>0.7</ele>
        <time>2020-06-04T15:41:33Z</time>
      </trkpt>
      <trkpt lat="47.02618" lon="-1.97573">
        <ele>0.8</ele>
        <time>2020-06-04T15:41:34Z</time>
      </trkpt>
      <trkpt lat="47.02623" lon="-1.97573">
        <ele>0.8</ele>
        <time>2020-06-04T15:41:35Z</time>
      </trkpt>
      <trkpt lat="47.02628" lon="-1.97573">
        <ele>0.9</ele>
        <time>2020-06-04T15:41:36Z</time>
      </trkpt>
      <trkpt lat="47.02635" lon="-1.97572">
        <ele>0.9</ele>
        <time>2020-06-04T15:41:37Z</time>
      </trkpt>
      <trkpt lat="47.02641" lon="-1.97572">
        <ele>1.1</ele>
        <time>2020-06-04T15:41:38Z</time>
      </trkpt>
      <trkpt lat="47.02646" lon="-1.97571">
        <ele>1.2</ele>
        <time>2020-06-04T15:41:39Z</time>
      </trkpt>
      <trkpt lat="47.0265" lon="-1.97571">
        <ele>1.3</ele>
        <time>2020-06-04T15:41:40Z</time>
      </trkpt>
      <trkpt lat="47.02655" lon="-1.9757">
        <ele>1.4</ele>
        <time>2020-06-04T15:41:41Z</time>
      </trkpt>
      <trkpt lat="47.0266" lon="-1.97569">
        <ele>1.4</ele>
        <time>2020-06-04T15:41:42Z</time>
      </trkpt>
      <trkpt lat="47.02665" lon="-1.97569">
        <ele>1.5</ele>
        <time>2020-06-04T15:41:43Z</time>
      </trkpt>
      <trkpt lat="47.0267" lon="-1.97568">
        <ele>1.5</ele>
        <time>2020-06-04T15:41:44Z</time>
      </trkpt>
      <trkpt lat="47.02675" lon="-1.97567">
        <ele>1.6</ele>
        <time>2020-06-04T15:41:45Z</time>
      </trkpt>
      <trkpt lat="47.02679" lon="-1.97567">
        <ele>1.6</ele>
        <time>2020-06-04T15:41:46Z</time>
      </trkpt>
      <trkpt lat="47.02685" lon="-1.97566">
        <ele>1.6</ele>
        <time>2020-06-04T15:41:47Z</time>
      </trkpt>
      <trkpt lat="47.0269" lon="-1.97562">
        <ele>1.6</ele>
        <time>2020-06-04T15:41:48Z</time>
      </trkpt>
      <trkpt lat="47.02694" lon="-1.97557">
        <ele>1.7</ele>
        <time>2020-06-04T15:41:49Z</time>
      </trkpt>
      <trkpt lat="47.02698" lon="-1.97548">
        <ele>1.7</ele>
        <time>2020-06-04T15:41:50Z</time>
      </trkpt>
      <trkpt lat="47.02701" lon="-1.9754">
        <ele>1.7</ele>
        <time>2020-06-04T15:41:51Z</time>
      </trkpt>
      <trkpt lat="47.02704" lon="-1.97533">
        <ele>1.7</ele>
        <time>2020-06-04T15:41:52Z</time>
      </trkpt>
      <trkpt lat="47.02706" lon="-1.97525">
        <ele>1.7</ele>
        <time>2020-06-04T15:41:53Z</time>
      </trkpt>
      <trkpt lat="47.02709" lon="-1.97517">
        <ele>1.7</ele>
        <time>2020-06-04T15:41:54Z</time>
      </trkpt>
      <trkpt lat="47.02711" lon="-1.97508">
        <ele>1.6</ele>
        <time>2020-06-04T15:41:55Z</time>
      </trkpt>
      <trkpt lat="47.02713" lon="-1.975">
        <ele>1.6</ele>
        <time>2020-06-04T15:41:56Z</time>
      </trkpt>
      <trkpt lat="47.02712" lon="-1.97492">
        <ele>1.6</ele>
        <time>2020-06-04T15:41:57Z</time>
      </trkpt>
      <trkpt lat="47.02713" lon="-1.97484">
        <ele>1.6</ele>
        <time>2020-06-04T15:41:58Z</time>
      </trkpt>
      <trkpt lat="47.02712" lon="-1.97476">
        <ele>1.6</ele>
        <time>2020-06-04T15:41:59Z</time>
      </trkpt>
      <trkpt lat="47.02712" lon="-1.97469">
        <ele>1.6</ele>
        <time>2020-06-04T15:42:00Z</time>
      </trkpt>
      <trkpt lat="47.02712" lon="-1.97462">
        <ele>1.6</ele>
        <time>2020-06-04T15:42:01Z</time>
      </trkpt>
      <trkpt lat="47.02713" lon="-1.97454">
        <ele>1.7</ele>
        <time>2020-06-04T15:42:02Z</time>
      </trkpt>
      <trkpt lat="47.02713" lon="-1.97447">
        <ele>1.7</ele>
        <time>2020-06-04T15:42:03Z</time>
      </trkpt>
      <trkpt lat="47.02713" lon="-1.97439">
        <ele>1.8</ele>
        <time>2020-06-04T15:42:04Z</time>
      </trkpt>
      <trkpt lat="47.02714" lon="-1.97433">
        <ele>1.8</ele>
        <time>2020-06-04T15:42:05Z</time>
      </trkpt>
      <trkpt lat="47.02714" lon="-1.97425">
        <ele>1.9</ele>
        <time>2020-06-04T15:42:06Z</time>
      </trkpt>
      <trkpt lat="47.02714" lon="-1.97418">
        <ele>2</ele>
        <time>2020-06-04T15:42:07Z</time>
      </trkpt>
      <trkpt lat="47.02714" lon="-1.97408">
        <ele>2.1</ele>
        <time>2020-06-04T15:42:08Z</time>
      </trkpt>
      <trkpt lat="47.02714" lon="-1.97398">
        <ele>2.2</ele>
        <time>2020-06-04T15:42:09Z</time>
      </trkpt>
      <trkpt lat="47.02714" lon="-1.97391">
        <ele>2.2</ele>
        <time>2020-06-04T15:42:10Z</time>
      </trkpt>
      <trkpt lat="47.02714" lon="-1.97384">
        <ele>2.3</ele>
        <time>2020-06-04T15:42:11Z</time>
      </trkpt>
      <trkpt lat="47.02715" lon="-1.97375">
        <ele>2.3</ele>
        <time>2020-06-04T15:42:12Z</time>
      </trkpt>
      <trkpt lat="47.02715" lon="-1.97366">
        <ele>2.3</ele>
        <time>2020-06-04T15:42:13Z</time>
      </trkpt>
      <trkpt lat="47.02716" lon="-1.97358">
        <ele>2.3</ele>
        <time>2020-06-04T15:42:14Z</time>
      </trkpt>
      <trkpt lat="47.02716" lon="-1.9735">
        <ele>2.3</ele>
        <time>2020-06-04T15:42:15Z</time>
      </trkpt>
      <trkpt lat="47.02717" lon="-1.97342">
        <ele>2.3</ele>
        <time>2020-06-04T15:42:16Z</time>
      </trkpt>
      <trkpt lat="47.02718" lon="-1.97333">
        <ele>2.3</ele>
        <time>2020-06-04T15:42:17Z</time>
      </trkpt>
      <trkpt lat="47.02718" lon="-1.97325">
        <ele>2.3</ele>
        <time>2020-06-04T15:42:18Z</time>
      </trkpt>
      <trkpt lat="47.02718" lon="-1.97316">
        <ele>2.3</ele>
        <time>2020-06-04T15:42:19Z</time>
      </trkpt>
      <trkpt lat="47.02719" lon="-1.97307">
        <ele>2.2</ele>
        <time>2020-06-04T15:42:20Z</time>
      </trkpt>
      <trkpt lat="47.02719" lon="-1.97299">
        <ele>2.2</ele>
        <time>2020-06-04T15:42:21Z</time>
      </trkpt>
      <trkpt lat="47.02719" lon="-1.9729">
        <ele>2.2</ele>
        <time>2020-06-04T15:42:22Z</time>
      </trkpt>
      <trkpt lat="47.0272" lon="-1.97281">
        <ele>2.2</ele>
        <time>2020-06-04T15:42:23Z</time>
      </trkpt>
      <trkpt lat="47.02722" lon="-1.97273">
        <ele>2.2</ele>
        <time>2020-06-04T15:42:24Z</time>
      </trkpt>
      <trkpt lat="47.02723" lon="-1.97265">
        <ele>2.2</ele>
        <time>2020-06-04T15:42:25Z</time>
      </trkpt>
      <trkpt lat="47.02724" lon="-1.97256">
        <ele>2.2</ele>
        <time>2020-06-04T15:42:26Z</time>
      </trkpt>
      <trkpt lat="47.02726" lon="-1.9725">
        <ele>2.2</ele>
        <time>2020-06-04T15:42:27Z</time>
      </trkpt>
      <trkpt lat="47.02728" lon="-1.97243">
        <ele>2.2</ele>
        <time>2020-06-04T15:42:28Z</time>
      </trkpt>
      <trkpt lat="47.0273" lon="-1.97236">
        <ele>2.2</ele>
        <time>2020-06-04T15:42:29Z</time>
      </trkpt>
      <trkpt lat="47.02732" lon="-1.97229">
        <ele>2.2</ele>
        <time>2020-06-04T15:42:30Z</time>
      </trkpt>
      <trkpt lat="47.02736" lon="-1.97222">
        <ele>2.3</ele>
        <time>2020-06-04T15:42:31Z</time>
      </trkpt>
      <trkpt lat="47.02739" lon="-1.97214">
        <ele>2.3</ele>
        <time>2020-06-04T15:42:32Z</time>
      </trkpt>
      <trkpt lat="47.02742" lon="-1.97207">
        <ele>2.3</ele>
        <time>2020-06-04T15:42:33Z</time>
      </trkpt>
      <trkpt lat="47.02745" lon="-1.97197">
        <ele>2.3</ele>
        <time>2020-06-04T15:42:34Z</time>
      </trkpt>
      <trkpt lat="47.02748" lon="-1.97191">
        <ele>2.3</ele>
        <time>2020-06-04T15:42:35Z</time>
      </trkpt>
      <trkpt lat="47.02751" lon="-1.97184">
        <ele>2.3</ele>
        <time>2020-06-04T15:42:36Z</time>
      </trkpt>
      <trkpt lat="47.02754" lon="-1.97178">
        <ele>2.3</ele>
        <time>2020-06-04T15:42:37Z</time>
      </trkpt>
      <trkpt lat="47.02758" lon="-1.97171">
        <ele>2.3</ele>
        <time>2020-06-04T15:42:38Z</time>
      </trkpt>
      <trkpt lat="47.02761" lon="-1.97165">
        <ele>2.3</ele>
        <time>2020-06-04T15:42:39Z</time>
      </trkpt>
      <trkpt lat="47.02764" lon="-1.97159">
        <ele>2.3</ele>
        <time>2020-06-04T15:42:40Z</time>
      </trkpt>
      <trkpt lat="47.02767" lon="-1.97155">
        <ele>2.3</ele>
        <time>2020-06-04T15:42:41Z</time>
      </trkpt>
      <trkpt lat="47.02771" lon="-1.97148">
        <ele>2.3</ele>
        <time>2020-06-04T15:42:42Z</time>
      </trkpt>
      <trkpt lat="47.02775" lon="-1.97143">
        <ele>2.3</ele>
        <time>2020-06-04T15:42:43Z</time>
      </trkpt>
      <trkpt lat="47.02779" lon="-1.97138">
        <ele>2.3</ele>
        <time>2020-06-04T15:42:44Z</time>
      </trkpt>
      <trkpt lat="47.02783" lon="-1.97133">
        <ele>2.4</ele>
        <time>2020-06-04T15:42:45Z</time>
      </trkpt>
      <trkpt lat="47.02788" lon="-1.97129">
        <ele>2.4</ele>
        <time>2020-06-04T15:42:46Z</time>
      </trkpt>
      <trkpt lat="47.02793" lon="-1.97124">
        <ele>2.5</ele>
        <time>2020-06-04T15:42:47Z</time>
      </trkpt>
      <trkpt lat="47.02798" lon="-1.97119">
        <ele>2.6</ele>
        <time>2020-06-04T15:42:48Z</time>
      </trkpt>
      <trkpt lat="47.02803" lon="-1.97115">
        <ele>2.6</ele>
        <time>2020-06-04T15:42:49Z</time>
      </trkpt>
      <trkpt lat="47.02808" lon="-1.97111">
        <ele>2.7</ele>
        <time>2020-06-04T15:42:50Z</time>
      </trkpt>
      <trkpt lat="47.02813" lon="-1.97107">
        <ele>2.8</ele>
        <time>2020-06-04T15:42:51Z</time>
      </trkpt>
      <trkpt lat="47.02818" lon="-1.97104">
        <ele>2.8</ele>
        <time>2020-06-04T15:42:52Z</time>
      </trkpt>
      <trkpt lat="47.02824" lon="-1.971">
        <ele>2.9</ele>
        <time>2020-06-04T15:42:53Z</time>
      </trkpt>
      <trkpt lat="47.02829" lon="-1.97097">
        <ele>2.9</ele>
        <time>2020-06-04T15:42:54Z</time>
      </trkpt>
      <trkpt lat="47.02835" lon="-1.97094">
        <ele>2.9</ele>
        <time>2020-06-04T15:42:55Z</time>
      </trkpt>
      <trkpt lat="47.0284" lon="-1.97092">
        <ele>2.9</ele>
        <time>2020-06-04T15:42:56Z</time>
      </trkpt>
      <trkpt lat="47.02845" lon="-1.97089">
        <ele>2.9</ele>
        <time>2020-06-04T15:42:57Z</time>
      </trkpt>
      <trkpt lat="47.02849" lon="-1.97088">
        <ele>2.9</ele>
        <time>2020-06-04T15:42:58Z</time>
      </trkpt>
      <trkpt lat="47.02854" lon="-1.97086">
        <ele>2.9</ele>
        <time>2020-06-04T15:42:59Z</time>
      </trkpt>
      <trkpt lat="47.02858" lon="-1.97085">
        <ele>2.9</ele>
        <time>2020-06-04T15:43:00Z</time>
      </trkpt>
      <trkpt lat="47.02862" lon="-1.97083">
        <ele>2.9</ele>
        <time>2020-06-04T15:43:01Z</time>
      </trkpt>
      <trkpt lat="47.02865" lon="-1.97081">
        <ele>2.9</ele>
        <time>2020-06-04T15:43:02Z</time>
      </trkpt>
      <trkpt lat="47.02869" lon="-1.97079">
        <ele>2.9</ele>
        <time>2020-06-04T15:43:03Z</time>
      </trkpt>
      <trkpt lat="47.02873" lon="-1.97077">
        <ele>3</ele>
        <time>2020-06-04T15:43:04Z</time>
      </trkpt>
      <trkpt lat="47.02877" lon="-1.97075">
        <ele>3</ele>
        <time>2020-06-04T15:43:05Z</time>
      </trkpt>
      <trkpt lat="47.0288" lon="-1.97073">
        <ele>3</ele>
        <time>2020-06-04T15:43:06Z</time>
      </trkpt>
      <trkpt lat="47.02883" lon="-1.97071">
        <ele>3</ele>
        <time>2020-06-04T15:43:07Z</time>
      </trkpt>
      <trkpt lat="47.02888" lon="-1.97069">
        <ele>3</ele>
        <time>2020-06-04T15:43:08Z</time>
      </trkpt>
      <trkpt lat="47.02893" lon="-1.97068">
        <ele>2.9</ele>
        <time>2020-06-04T15:43:09Z</time>
      </trkpt>
      <trkpt lat="47.029" lon="-1.97066">
        <ele>2.9</ele>
        <time>2020-06-04T15:43:10Z</time>
      </trkpt>
      <trkpt lat="47.02905" lon="-1.97065">
        <ele>2.9</ele>
        <time>2020-06-04T15:43:11Z</time>
      </trkpt>
      <trkpt lat="47.02911" lon="-1.97065">
        <ele>2.8</ele>
        <time>2020-06-04T15:43:12Z</time>
      </trkpt>
      <trkpt lat="47.02916" lon="-1.97066">
        <ele>2.7</ele>
        <time>2020-06-04T15:43:13Z</time>
      </trkpt>
      <trkpt lat="47.02922" lon="-1.97067">
        <ele>2.6</ele>
        <time>2020-06-04T15:43:14Z</time>
      </trkpt>
      <trkpt lat="47.02928" lon="-1.97069">
        <ele>2.5</ele>
        <time>2020-06-04T15:43:15Z</time>
      </trkpt>
      <trkpt lat="47.02935" lon="-1.9707">
        <ele>2.4</ele>
        <time>2020-06-04T15:43:16Z</time>
      </trkpt>
      <trkpt lat="47.0294" lon="-1.97072">
        <ele>2.4</ele>
        <time>2020-06-04T15:43:17Z</time>
      </trkpt>
      <trkpt lat="47.02945" lon="-1.97073">
        <ele>2.3</ele>
        <time>2020-06-04T15:43:18Z</time>
      </trkpt>
      <trkpt lat="47.02951" lon="-1.97074">
        <ele>2.3</ele>
        <time>2020-06-04T15:43:19Z</time>
      </trkpt>
      <trkpt lat="47.02956" lon="-1.97076">
        <ele>2.3</ele>
        <time>2020-06-04T15:43:20Z</time>
      </trkpt>
      <trkpt lat="47.02962" lon="-1.97077">
        <ele>2.3</ele>
        <time>2020-06-04T15:43:21Z</time>
      </trkpt>
      <trkpt lat="47.02967" lon="-1.97079">
        <ele>2.3</ele>
        <time>2020-06-04T15:43:22Z</time>
      </trkpt>
      <trkpt lat="47.02972" lon="-1.97081">
        <ele>2.3</ele>
        <time>2020-06-04T15:43:23Z</time>
      </trkpt>
      <trkpt lat="47.02977" lon="-1.97083">
        <ele>2.3</ele>
        <time>2020-06-04T15:43:24Z</time>
      </trkpt>
      <trkpt lat="47.02984" lon="-1.97085">
        <ele>2.3</ele>
        <time>2020-06-04T15:43:25Z</time>
      </trkpt>
      <trkpt lat="47.0299" lon="-1.97087">
        <ele>2.3</ele>
        <time>2020-06-04T15:43:26Z</time>
      </trkpt>
      <trkpt lat="47.02997" lon="-1.97088">
        <ele>2.3</ele>
        <time>2020-06-04T15:43:27Z</time>
      </trkpt>
      <trkpt lat="47.03002" lon="-1.97089">
        <ele>2.2</ele>
        <time>2020-06-04T15:43:28Z</time>
      </trkpt>
      <trkpt lat="47.03007" lon="-1.97092">
        <ele>2.2</ele>
        <time>2020-06-04T15:43:29Z</time>
      </trkpt>
      <trkpt lat="47.03012" lon="-1.97094">
        <ele>2.2</ele>
        <time>2020-06-04T15:43:30Z</time>
      </trkpt>
      <trkpt lat="47.03018" lon="-1.97097">
        <ele>2.2</ele>
        <time>2020-06-04T15:43:31Z</time>
      </trkpt>
      <trkpt lat="47.03024" lon="-1.97099">
        <ele>2.2</ele>
        <time>2020-06-04T15:43:32Z</time>
      </trkpt>
      <trkpt lat="47.0303" lon="-1.97101">
        <ele>2.2</ele>
        <time>2020-06-04T15:43:33Z</time>
      </trkpt>
      <trkpt lat="47.03036" lon="-1.97104">
        <ele>2.3</ele>
        <time>2020-06-04T15:43:34Z</time>
      </trkpt>
      <trkpt lat="47.03041" lon="-1.97106">
        <ele>2.3</ele>
        <time>2020-06-04T15:43:35Z</time>
      </trkpt>
      <trkpt lat="47.03046" lon="-1.97107">
        <ele>2.4</ele>
        <time>2020-06-04T15:43:36Z</time>
      </trkpt>
      <trkpt lat="47.03052" lon="-1.97109">
        <ele>2.5</ele>
        <time>2020-06-04T15:43:37Z</time>
      </trkpt>
      <trkpt lat="47.03058" lon="-1.97112">
        <ele>2.5</ele>
        <time>2020-06-04T15:43:38Z</time>
      </trkpt>
      <trkpt lat="47.03064" lon="-1.97113">
        <ele>2.6</ele>
        <time>2020-06-04T15:43:39Z</time>
      </trkpt>
      <trkpt lat="47.03069" lon="-1.97115">
        <ele>2.6</ele>
        <time>2020-06-04T15:43:40Z</time>
      </trkpt>
      <trkpt lat="47.03075" lon="-1.97116">
        <ele>2.7</ele>
        <time>2020-06-04T15:43:41Z</time>
      </trkpt>
      <trkpt lat="47.03081" lon="-1.97117">
        <ele>2.7</ele>
        <time>2020-06-04T15:43:42Z</time>
      </trkpt>
      <trkpt lat="47.03086" lon="-1.97118">
        <ele>2.7</ele>
        <time>2020-06-04T15:43:43Z</time>
      </trkpt>
      <trkpt lat="47.03091" lon="-1.97118">
        <ele>2.7</ele>
        <time>2020-06-04T15:43:44Z</time>
      </trkpt>
      <trkpt lat="47.03097" lon="-1.97119">
        <ele>2.7</ele>
        <time>2020-06-04T15:43:45Z</time>
      </trkpt>
      <trkpt lat="47.03103" lon="-1.9712">
        <ele>2.7</ele>
        <time>2020-06-04T15:43:46Z</time>
      </trkpt>
      <trkpt lat="47.03108" lon="-1.9712">
        <ele>2.7</ele>
        <time>2020-06-04T15:43:47Z</time>
      </trkpt>
      <trkpt lat="47.03115" lon="-1.9712">
        <ele>2.7</ele>
        <time>2020-06-04T15:43:48Z</time>
      </trkpt>
      <trkpt lat="47.0312" lon="-1.97119">
        <ele>2.8</ele>
        <time>2020-06-04T15:43:49Z</time>
      </trkpt>
      <trkpt lat="47.03124" lon="-1.97119">
        <ele>2.8</ele>
        <time>2020-06-04T15:43:50Z</time>
      </trkpt>
      <trkpt lat="47.03129" lon="-1.97119">
        <ele>2.8</ele>
        <time>2020-06-04T15:43:51Z</time>
      </trkpt>
      <trkpt lat="47.03135" lon="-1.9712">
        <ele>2.8</ele>
        <time>2020-06-04T15:43:52Z</time>
      </trkpt>
      <trkpt lat="47.0314" lon="-1.97118">
        <ele>2.8</ele>
        <time>2020-06-04T15:43:53Z</time>
      </trkpt>
      <trkpt lat="47.03146" lon="-1.97116">
        <ele>2.8</ele>
        <time>2020-06-04T15:43:54Z</time>
      </trkpt>
      <trkpt lat="47.03151" lon="-1.97114">
        <ele>2.8</ele>
        <time>2020-06-04T15:43:55Z</time>
      </trkpt>
      <trkpt lat="47.03157" lon="-1.97113">
        <ele>2.8</ele>
        <time>2020-06-04T15:43:56Z</time>
      </trkpt>
      <trkpt lat="47.03162" lon="-1.97111">
        <ele>2.8</ele>
        <time>2020-06-04T15:43:57Z</time>
      </trkpt>
      <trkpt lat="47.03167" lon="-1.9711">
        <ele>2.8</ele>
        <time>2020-06-04T15:43:58Z</time>
      </trkpt>
      <trkpt lat="47.03173" lon="-1.97108">
        <ele>2.8</ele>
        <time>2020-06-04T15:43:59Z</time>
      </trkpt>
      <trkpt lat="47.03179" lon="-1.97106">
        <ele>2.8</ele>
        <time>2020-06-04T15:44:00Z</time>
      </trkpt>
      <trkpt lat="47.03185" lon="-1.97103">
        <ele>2.9</ele>
        <time>2020-06-04T15:44:01Z</time>
      </trkpt>
      <trkpt lat="47.0319" lon="-1.97102">
        <ele>2.9</ele>
        <time>2020-06-04T15:44:02Z</time>
      </trkpt>
      <trkpt lat="47.03194" lon="-1.971">
        <ele>2.9</ele>
        <time>2020-06-04T15:44:03Z</time>
      </trkpt>
      <trkpt lat="47.03199" lon="-1.97098">
        <ele>2.9</ele>
        <time>2020-06-04T15:44:04Z</time>
      </trkpt>
      <trkpt lat="47.03205" lon="-1.97096">
        <ele>2.9</ele>
        <time>2020-06-04T15:44:05Z</time>
      </trkpt>
      <trkpt lat="47.03212" lon="-1.97093">
        <ele>2.9</ele>
        <time>2020-06-04T15:44:06Z</time>
      </trkpt>
      <trkpt lat="47.03217" lon="-1.97092">
        <ele>2.9</ele>
        <time>2020-06-04T15:44:07Z</time>
      </trkpt>
      <trkpt lat="47.03222" lon="-1.9709">
        <ele>3</ele>
        <time>2020-06-04T15:44:08Z</time>
      </trkpt>
      <trkpt lat="47.03227" lon="-1.97087">
        <ele>3</ele>
        <time>2020-06-04T15:44:09Z</time>
      </trkpt>
      <trkpt lat="47.03233" lon="-1.97085">
        <ele>3</ele>
        <time>2020-06-04T15:44:10Z</time>
      </trkpt>
      <trkpt lat="47.03239" lon="-1.97083">
        <ele>3</ele>
        <time>2020-06-04T15:44:11Z</time>
      </trkpt>
      <trkpt lat="47.03245" lon="-1.97082">
        <ele>3</ele>
        <time>2020-06-04T15:44:12Z</time>
      </trkpt>
      <trkpt lat="47.03251" lon="-1.9708">
        <ele>3.1</ele>
        <time>2020-06-04T15:44:13Z</time>
      </trkpt>
      <trkpt lat="47.03257" lon="-1.97079">
        <ele>3.1</ele>
        <time>2020-06-04T15:44:14Z</time>
      </trkpt>
      <trkpt lat="47.03263" lon="-1.97078">
        <ele>3.1</ele>
        <time>2020-06-04T15:44:15Z</time>
      </trkpt>
      <trkpt lat="47.03269" lon="-1.97076">
        <ele>3.1</ele>
        <time>2020-06-04T15:44:16Z</time>
      </trkpt>
      <trkpt lat="47.03275" lon="-1.97075">
        <ele>3.1</ele>
        <time>2020-06-04T15:44:17Z</time>
      </trkpt>
      <trkpt lat="47.0328" lon="-1.97074">
        <ele>3.1</ele>
        <time>2020-06-04T15:44:18Z</time>
      </trkpt>
      <trkpt lat="47.03286" lon="-1.97074">
        <ele>3.1</ele>
        <time>2020-06-04T15:44:19Z</time>
      </trkpt>
      <trkpt lat="47.03291" lon="-1.97073">
        <ele>3.2</ele>
        <time>2020-06-04T15:44:20Z</time>
      </trkpt>
      <trkpt lat="47.03297" lon="-1.97074">
        <ele>3.2</ele>
        <time>2020-06-04T15:44:21Z</time>
      </trkpt>
      <trkpt lat="47.03304" lon="-1.97073">
        <ele>3.2</ele>
        <time>2020-06-04T15:44:22Z</time>
      </trkpt>
      <trkpt lat="47.03308" lon="-1.97073">
        <ele>3.2</ele>
        <time>2020-06-04T15:44:23Z</time>
      </trkpt>
      <trkpt lat="47.03313" lon="-1.97073">
        <ele>3.2</ele>
        <time>2020-06-04T15:44:24Z</time>
      </trkpt>
      <trkpt lat="47.03319" lon="-1.97072">
        <ele>3.2</ele>
        <time>2020-06-04T15:44:25Z</time>
      </trkpt>
      <trkpt lat="47.03325" lon="-1.97072">
        <ele>3.2</ele>
        <time>2020-06-04T15:44:26Z</time>
      </trkpt>
      <trkpt lat="47.0333" lon="-1.97073">
        <ele>3.2</ele>
        <time>2020-06-04T15:44:27Z</time>
      </trkpt>
      <trkpt lat="47.03336" lon="-1.97073">
        <ele>3.2</ele>
        <time>2020-06-04T15:44:28Z</time>
      </trkpt>
      <trkpt lat="47.03341" lon="-1.97073">
        <ele>3.2</ele>
        <time>2020-06-04T15:44:29Z</time>
      </trkpt>
      <trkpt lat="47.03347" lon="-1.97072">
        <ele>3.2</ele>
        <time>2020-06-04T15:44:30Z</time>
      </trkpt>
      <trkpt lat="47.03353" lon="-1.97071">
        <ele>3.2</ele>
        <time>2020-06-04T15:44:31Z</time>
      </trkpt>
      <trkpt lat="47.03358" lon="-1.97069">
        <ele>3.3</ele>
        <time>2020-06-04T15:44:32Z</time>
      </trkpt>
      <trkpt lat="47.03363" lon="-1.97067">
        <ele>3.3</ele>
        <time>2020-06-04T15:44:33Z</time>
      </trkpt>
      <trkpt lat="47.03369" lon="-1.97065">
        <ele>3.3</ele>
        <time>2020-06-04T15:44:34Z</time>
      </trkpt>
      <trkpt lat="47.03374" lon="-1.97062">
        <ele>3.3</ele>
        <time>2020-06-04T15:44:35Z</time>
      </trkpt>
      <trkpt lat="47.03379" lon="-1.97059">
        <ele>3.4</ele>
        <time>2020-06-04T15:44:36Z</time>
      </trkpt>
      <trkpt lat="47.03384" lon="-1.97056">
        <ele>3.4</ele>
        <time>2020-06-04T15:44:37Z</time>
      </trkpt>
      <trkpt lat="47.0339" lon="-1.97053">
        <ele>3.4</ele>
        <time>2020-06-04T15:44:38Z</time>
      </trkpt>
      <trkpt lat="47.03395" lon="-1.9705">
        <ele>3.4</ele>
        <time>2020-06-04T15:44:39Z</time>
      </trkpt>
      <trkpt lat="47.03399" lon="-1.97047">
        <ele>3.4</ele>
        <time>2020-06-04T15:44:40Z</time>
      </trkpt>
      <trkpt lat="47.03403" lon="-1.97043">
        <ele>3.4</ele>
        <time>2020-06-04T15:44:41Z</time>
      </trkpt>
      <trkpt lat="47.03406" lon="-1.9704">
        <ele>3.4</ele>
        <time>2020-06-04T15:44:42Z</time>
      </trkpt>
      <trkpt lat="47.03411" lon="-1.97036">
        <ele>3.4</ele>
        <time>2020-06-04T15:44:43Z</time>
      </trkpt>
      <trkpt lat="47.03416" lon="-1.97034">
        <ele>3.4</ele>
        <time>2020-06-04T15:44:44Z</time>
      </trkpt>
      <trkpt lat="47.03422" lon="-1.97039">
        <ele>3.4</ele>
        <time>2020-06-04T15:44:45Z</time>
      </trkpt>
      <trkpt lat="47.03425" lon="-1.97046">
        <ele>3.5</ele>
        <time>2020-06-04T15:44:46Z</time>
      </trkpt>
      <trkpt lat="47.03426" lon="-1.97052">
        <ele>3.5</ele>
        <time>2020-06-04T15:44:47Z</time>
      </trkpt>
      <trkpt lat="47.03427" lon="-1.97059">
        <ele>3.5</ele>
        <time>2020-06-04T15:44:48Z</time>
      </trkpt>
      <trkpt lat="47.03427" lon="-1.97066">
        <ele>3.5</ele>
        <time>2020-06-04T15:44:49Z</time>
      </trkpt>
      <trkpt lat="47.03428" lon="-1.97073">
        <ele>3.5</ele>
        <time>2020-06-04T15:44:50Z</time>
      </trkpt>
      <trkpt lat="47.03428" lon="-1.97079">
        <ele>3.5</ele>
        <time>2020-06-04T15:44:51Z</time>
      </trkpt>
      <trkpt lat="47.03428" lon="-1.97085">
        <ele>3.5</ele>
        <time>2020-06-04T15:44:52Z</time>
      </trkpt>
      <trkpt lat="47.03429" lon="-1.97091">
        <ele>3.5</ele>
        <time>2020-06-04T15:44:53Z</time>
      </trkpt>
      <trkpt lat="47.03429" lon="-1.97098">
        <ele>3.5</ele>
        <time>2020-06-04T15:44:54Z</time>
      </trkpt>
      <trkpt lat="47.0343" lon="-1.97104">
        <ele>3.6</ele>
        <time>2020-06-04T15:44:55Z</time>
      </trkpt>
      <trkpt lat="47.03429" lon="-1.9711">
        <ele>3.6</ele>
        <time>2020-06-04T15:44:56Z</time>
      </trkpt>
      <trkpt lat="47.03429" lon="-1.97115">
        <ele>3.6</ele>
        <time>2020-06-04T15:44:57Z</time>
      </trkpt>
      <trkpt lat="47.03429" lon="-1.9712">
        <ele>3.6</ele>
        <time>2020-06-04T15:44:58Z</time>
      </trkpt>
      <trkpt lat="47.03425" lon="-1.97125">
        <ele>3.6</ele>
        <time>2020-06-04T15:44:59Z</time>
      </trkpt>
      <trkpt lat="47.03421" lon="-1.97127">
        <ele>3.6</ele>
        <time>2020-06-04T15:45:00Z</time>
      </trkpt>
      <trkpt lat="47.03417" lon="-1.97129">
        <ele>3.6</ele>
        <time>2020-06-04T15:45:01Z</time>
      </trkpt>
      <trkpt lat="47.03413" lon="-1.97132">
        <ele>3.6</ele>
        <time>2020-06-04T15:45:02Z</time>
      </trkpt>
      <trkpt lat="47.0341" lon="-1.97133">
        <ele>3.6</ele>
        <time>2020-06-04T15:45:03Z</time>
      </trkpt>
      <trkpt lat="47.03406" lon="-1.97135">
        <ele>3.6</ele>
        <time>2020-06-04T15:45:04Z</time>
      </trkpt>
      <trkpt lat="47.03403" lon="-1.97137">
        <ele>3.5</ele>
        <time>2020-06-04T15:45:05Z</time>
      </trkpt>
      <trkpt lat="47.03399" lon="-1.97139">
        <ele>3.5</ele>
        <time>2020-06-04T15:45:06Z</time>
      </trkpt>
      <trkpt lat="47.03394" lon="-1.9714">
        <ele>3.5</ele>
        <time>2020-06-04T15:45:07Z</time>
      </trkpt>
      <trkpt lat="47.03391" lon="-1.9714">
        <ele>3.5</ele>
        <time>2020-06-04T15:45:08Z</time>
      </trkpt>
      <trkpt lat="47.03387" lon="-1.97142">
        <ele>3.5</ele>
        <time>2020-06-04T15:45:09Z</time>
      </trkpt>
      <trkpt lat="47.03382" lon="-1.97142">
        <ele>3.5</ele>
        <time>2020-06-04T15:45:10Z</time>
      </trkpt>
      <trkpt lat="47.03378" lon="-1.97143">
        <ele>3.5</ele>
        <time>2020-06-04T15:45:11Z</time>
      </trkpt>
      <trkpt lat="47.03375" lon="-1.97144">
        <ele>3.4</ele>
        <time>2020-06-04T15:45:12Z</time>
      </trkpt>
      <trkpt lat="47.03371" lon="-1.97145">
        <ele>3.4</ele>
        <time>2020-06-04T15:45:13Z</time>
      </trkpt>
      <trkpt lat="47.03366" lon="-1.97146">
        <ele>3.4</ele>
        <time>2020-06-04T15:45:14Z</time>
      </trkpt>
      <trkpt lat="47.03362" lon="-1.97146">
        <ele>3.4</ele>
        <time>2020-06-04T15:45:15Z</time>
      </trkpt>
      <trkpt lat="47.03357" lon="-1.97147">
        <ele>3.4</ele>
        <time>2020-06-04T15:45:16Z</time>
      </trkpt>
      <trkpt lat="47.03353" lon="-1.97147">
        <ele>3.4</ele>
        <time>2020-06-04T15:45:17Z</time>
      </trkpt>
      <trkpt lat="47.03346" lon="-1.97149">
        <ele>3.3</ele>
        <time>2020-06-04T15:45:18Z</time>
      </trkpt>
      <trkpt lat="47.03341" lon="-1.9715">
        <ele>3.3</ele>
        <time>2020-06-04T15:45:19Z</time>
      </trkpt>
      <trkpt lat="47.03337" lon="-1.97151">
        <ele>3.3</ele>
        <time>2020-06-04T15:45:20Z</time>
      </trkpt>
      <trkpt lat="47.03332" lon="-1.97151">
        <ele>3.3</ele>
        <time>2020-06-04T15:45:21Z</time>
      </trkpt>
      <trkpt lat="47.03327" lon="-1.97152">
        <ele>3.2</ele>
        <time>2020-06-04T15:45:22Z</time>
      </trkpt>
      <trkpt lat="47.03323" lon="-1.97153">
        <ele>3.2</ele>
        <time>2020-06-04T15:45:23Z</time>
      </trkpt>
      <trkpt lat="47.03317" lon="-1.97154">
        <ele>3.2</ele>
        <time>2020-06-04T15:45:24Z</time>
      </trkpt>
      <trkpt lat="47.03311" lon="-1.97154">
        <ele>3.2</ele>
        <time>2020-06-04T15:45:25Z</time>
      </trkpt>
      <trkpt lat="47.03305" lon="-1.97155">
        <ele>3.2</ele>
        <time>2020-06-04T15:45:26Z</time>
      </trkpt>
      <trkpt lat="47.033" lon="-1.97154">
        <ele>3.2</ele>
        <time>2020-06-04T15:45:27Z</time>
      </trkpt>
      <trkpt lat="47.03295" lon="-1.97154">
        <ele>3.2</ele>
        <time>2020-06-04T15:45:28Z</time>
      </trkpt>
      <trkpt lat="47.03289" lon="-1.97154">
        <ele>3.2</ele>
        <time>2020-06-04T15:45:29Z</time>
      </trkpt>
      <trkpt lat="47.03283" lon="-1.97154">
        <ele>3.2</ele>
        <time>2020-06-04T15:45:30Z</time>
      </trkpt>
      <trkpt lat="47.03278" lon="-1.97154">
        <ele>3.2</ele>
        <time>2020-06-04T15:45:31Z</time>
      </trkpt>
      <trkpt lat="47.03272" lon="-1.97155">
        <ele>3.2</ele>
        <time>2020-06-04T15:45:32Z</time>
      </trkpt>
      <trkpt lat="47.03266" lon="-1.97156">
        <ele>3.2</ele>
        <time>2020-06-04T15:45:33Z</time>
      </trkpt>
      <trkpt lat="47.0326" lon="-1.97157">
        <ele>3.2</ele>
        <time>2020-06-04T15:45:34Z</time>
      </trkpt>
      <trkpt lat="47.03255" lon="-1.97158">
        <ele>3.2</ele>
        <time>2020-06-04T15:45:35Z</time>
      </trkpt>
      <trkpt lat="47.0325" lon="-1.97159">
        <ele>3.2</ele>
        <time>2020-06-04T15:45:36Z</time>
      </trkpt>
      <trkpt lat="47.03245" lon="-1.9716">
        <ele>3.2</ele>
        <time>2020-06-04T15:45:37Z</time>
      </trkpt>
      <trkpt lat="47.03239" lon="-1.97162">
        <ele>3.2</ele>
        <time>2020-06-04T15:45:38Z</time>
      </trkpt>
      <trkpt lat="47.03233" lon="-1.97164">
        <ele>3.2</ele>
        <time>2020-06-04T15:45:39Z</time>
      </trkpt>
      <trkpt lat="47.03227" lon="-1.97167">
        <ele>3.2</ele>
        <time>2020-06-04T15:45:40Z</time>
      </trkpt>
      <trkpt lat="47.03221" lon="-1.97168">
        <ele>3.2</ele>
        <time>2020-06-04T15:45:41Z</time>
      </trkpt>
      <trkpt lat="47.03216" lon="-1.9717">
        <ele>3.2</ele>
        <time>2020-06-04T15:45:42Z</time>
      </trkpt>
      <trkpt lat="47.03211" lon="-1.97172">
        <ele>3.2</ele>
        <time>2020-06-04T15:45:43Z</time>
      </trkpt>
      <trkpt lat="47.03205" lon="-1.97174">
        <ele>3.2</ele>
        <time>2020-06-04T15:45:44Z</time>
      </trkpt>
      <trkpt lat="47.032" lon="-1.97176">
        <ele>3.2</ele>
        <time>2020-06-04T15:45:45Z</time>
      </trkpt>
      <trkpt lat="47.03194" lon="-1.97178">
        <ele>3.1</ele>
        <time>2020-06-04T15:45:46Z</time>
      </trkpt>
      <trkpt lat="47.03188" lon="-1.9718">
        <ele>3.1</ele>
        <time>2020-06-04T15:45:47Z</time>
      </trkpt>
      <trkpt lat="47.03182" lon="-1.97183">
        <ele>3.1</ele>
        <time>2020-06-04T15:45:48Z</time>
      </trkpt>
      <trkpt lat="47.03177" lon="-1.97185">
        <ele>3</ele>
        <time>2020-06-04T15:45:49Z</time>
      </trkpt>
      <trkpt lat="47.03171" lon="-1.97187">
        <ele>3</ele>
        <time>2020-06-04T15:45:50Z</time>
      </trkpt>
      <trkpt lat="47.03166" lon="-1.97189">
        <ele>3.1</ele>
        <time>2020-06-04T15:45:51Z</time>
      </trkpt>
      <trkpt lat="47.03161" lon="-1.97192">
        <ele>3.1</ele>
        <time>2020-06-04T15:45:52Z</time>
      </trkpt>
      <trkpt lat="47.03155" lon="-1.97194">
        <ele>3.1</ele>
        <time>2020-06-04T15:45:53Z</time>
      </trkpt>
      <trkpt lat="47.0315" lon="-1.97196">
        <ele>3.1</ele>
        <time>2020-06-04T15:45:54Z</time>
      </trkpt>
      <trkpt lat="47.03144" lon="-1.97198">
        <ele>3.1</ele>
        <time>2020-06-04T15:45:55Z</time>
      </trkpt>
      <trkpt lat="47.03138" lon="-1.97199">
        <ele>3.1</ele>
        <time>2020-06-04T15:45:56Z</time>
      </trkpt>
      <trkpt lat="47.03132" lon="-1.97199">
        <ele>3.1</ele>
        <time>2020-06-04T15:45:57Z</time>
      </trkpt>
      <trkpt lat="47.03127" lon="-1.972">
        <ele>3.1</ele>
        <time>2020-06-04T15:45:58Z</time>
      </trkpt>
      <trkpt lat="47.03121" lon="-1.97201">
        <ele>3.1</ele>
        <time>2020-06-04T15:45:59Z</time>
      </trkpt>
      <trkpt lat="47.03115" lon="-1.97201">
        <ele>3.1</ele>
        <time>2020-06-04T15:46:00Z</time>
      </trkpt>
      <trkpt lat="47.0311" lon="-1.97202">
        <ele>3.2</ele>
        <time>2020-06-04T15:46:01Z</time>
      </trkpt>
      <trkpt lat="47.03104" lon="-1.97203">
        <ele>3.2</ele>
        <time>2020-06-04T15:46:02Z</time>
      </trkpt>
      <trkpt lat="47.03098" lon="-1.97203">
        <ele>3.2</ele>
        <time>2020-06-04T15:46:03Z</time>
      </trkpt>
      <trkpt lat="47.03093" lon="-1.97205">
        <ele>3.2</ele>
        <time>2020-06-04T15:46:04Z</time>
      </trkpt>
      <trkpt lat="47.03088" lon="-1.97206">
        <ele>3.2</ele>
        <time>2020-06-04T15:46:05Z</time>
      </trkpt>
      <trkpt lat="47.03083" lon="-1.97208">
        <ele>3.2</ele>
        <time>2020-06-04T15:46:06Z</time>
      </trkpt>
      <trkpt lat="47.03078" lon="-1.97209">
        <ele>3.2</ele>
        <time>2020-06-04T15:46:07Z</time>
      </trkpt>
      <trkpt lat="47.03073" lon="-1.97212">
        <ele>3.2</ele>
        <time>2020-06-04T15:46:08Z</time>
      </trkpt>
      <trkpt lat="47.03069" lon="-1.97213">
        <ele>3.2</ele>
        <time>2020-06-04T15:46:09Z</time>
      </trkpt>
      <trkpt lat="47.03064" lon="-1.97214">
        <ele>3.2</ele>
        <time>2020-06-04T15:46:10Z</time>
      </trkpt>
      <trkpt lat="47.03059" lon="-1.97216">
        <ele>3.2</ele>
        <time>2020-06-04T15:46:11Z</time>
      </trkpt>
      <trkpt lat="47.03054" lon="-1.97218">
        <ele>3.2</ele>
        <time>2020-06-04T15:46:12Z</time>
      </trkpt>
      <trkpt lat="47.03048" lon="-1.97219">
        <ele>3.2</ele>
        <time>2020-06-04T15:46:13Z</time>
      </trkpt>
      <trkpt lat="47.03042" lon="-1.97221">
        <ele>3.2</ele>
        <time>2020-06-04T15:46:14Z</time>
      </trkpt>
      <trkpt lat="47.03035" lon="-1.97223">
        <ele>3.2</ele>
        <time>2020-06-04T15:46:15Z</time>
      </trkpt>
      <trkpt lat="47.03029" lon="-1.97225">
        <ele>3.2</ele>
        <time>2020-06-04T15:46:16Z</time>
      </trkpt>
      <trkpt lat="47.03022" lon="-1.97226">
        <ele>3.2</ele>
        <time>2020-06-04T15:46:17Z</time>
      </trkpt>
      <trkpt lat="47.03016" lon="-1.97228">
        <ele>3.2</ele>
        <time>2020-06-04T15:46:18Z</time>
      </trkpt>
      <trkpt lat="47.0301" lon="-1.9723">
        <ele>3.2</ele>
        <time>2020-06-04T15:46:19Z</time>
      </trkpt>
      <trkpt lat="47.03004" lon="-1.97231">
        <ele>3.2</ele>
        <time>2020-06-04T15:46:20Z</time>
      </trkpt>
      <trkpt lat="47.02998" lon="-1.97233">
        <ele>3.2</ele>
        <time>2020-06-04T15:46:21Z</time>
      </trkpt>
      <trkpt lat="47.02991" lon="-1.97235">
        <ele>3.2</ele>
        <time>2020-06-04T15:46:22Z</time>
      </trkpt>
      <trkpt lat="47.02985" lon="-1.97237">
        <ele>3.2</ele>
        <time>2020-06-04T15:46:23Z</time>
      </trkpt>
      <trkpt lat="47.02979" lon="-1.97239">
        <ele>3.2</ele>
        <time>2020-06-04T15:46:24Z</time>
      </trkpt>
      <trkpt lat="47.02974" lon="-1.97241">
        <ele>3.2</ele>
        <time>2020-06-04T15:46:25Z</time>
      </trkpt>
      <trkpt lat="47.02968" lon="-1.97243">
        <ele>3.2</ele>
        <time>2020-06-04T15:46:26Z</time>
      </trkpt>
      <trkpt lat="47.02963" lon="-1.97245">
        <ele>3.2</ele>
        <time>2020-06-04T15:46:27Z</time>
      </trkpt>
      <trkpt lat="47.02958" lon="-1.97246">
        <ele>3.2</ele>
        <time>2020-06-04T15:46:28Z</time>
      </trkpt>
      <trkpt lat="47.02952" lon="-1.9725">
        <ele>3.2</ele>
        <time>2020-06-04T15:46:29Z</time>
      </trkpt>
      <trkpt lat="47.02946" lon="-1.97252">
        <ele>3.2</ele>
        <time>2020-06-04T15:46:30Z</time>
      </trkpt>
      <trkpt lat="47.02941" lon="-1.97255">
        <ele>3.2</ele>
        <time>2020-06-04T15:46:31Z</time>
      </trkpt>
      <trkpt lat="47.02936" lon="-1.97259">
        <ele>3.2</ele>
        <time>2020-06-04T15:46:32Z</time>
      </trkpt>
      <trkpt lat="47.02931" lon="-1.97263">
        <ele>3.2</ele>
        <time>2020-06-04T15:46:33Z</time>
      </trkpt>
      <trkpt lat="47.02927" lon="-1.97269">
        <ele>3.2</ele>
        <time>2020-06-04T15:46:34Z</time>
      </trkpt>
      <trkpt lat="47.02922" lon="-1.97277">
        <ele>3.2</ele>
        <time>2020-06-04T15:46:35Z</time>
      </trkpt>
      <trkpt lat="47.02918" lon="-1.97285">
        <ele>3.2</ele>
        <time>2020-06-04T15:46:36Z</time>
      </trkpt>
      <trkpt lat="47.02915" lon="-1.97292">
        <ele>3.2</ele>
        <time>2020-06-04T15:46:37Z</time>
      </trkpt>
      <trkpt lat="47.02913" lon="-1.97301">
        <ele>3.2</ele>
        <time>2020-06-04T15:46:38Z</time>
      </trkpt>
      <trkpt lat="47.02911" lon="-1.97308">
        <ele>3.2</ele>
        <time>2020-06-04T15:46:39Z</time>
      </trkpt>
      <trkpt lat="47.02909" lon="-1.97316">
        <ele>3.2</ele>
        <time>2020-06-04T15:46:40Z</time>
      </trkpt>
      <trkpt lat="47.02907" lon="-1.97325">
        <ele>3.2</ele>
        <time>2020-06-04T15:46:41Z</time>
      </trkpt>
      <trkpt lat="47.02905" lon="-1.97334">
        <ele>3.2</ele>
        <time>2020-06-04T15:46:42Z</time>
      </trkpt>
      <trkpt lat="47.02904" lon="-1.97343">
        <ele>3.2</ele>
        <time>2020-06-04T15:46:43Z</time>
      </trkpt>
      <trkpt lat="47.02902" lon="-1.97353">
        <ele>3.2</ele>
        <time>2020-06-04T15:46:44Z</time>
      </trkpt>
      <trkpt lat="47.02903" lon="-1.97359">
        <ele>3.2</ele>
        <time>2020-06-04T15:46:45Z</time>
      </trkpt>
      <trkpt lat="47.02904" lon="-1.97366">
        <ele>3.2</ele>
        <time>2020-06-04T15:46:46Z</time>
      </trkpt>
      <trkpt lat="47.02904" lon="-1.97373">
        <ele>3.2</ele>
        <time>2020-06-04T15:46:47Z</time>
      </trkpt>
      <trkpt lat="47.02905" lon="-1.97379">
        <ele>3.2</ele>
        <time>2020-06-04T15:46:48Z</time>
      </trkpt>
      <trkpt lat="47.02906" lon="-1.97387">
        <ele>3.2</ele>
        <time>2020-06-04T15:46:49Z</time>
      </trkpt>
      <trkpt lat="47.02906" lon="-1.97394">
        <ele>3.2</ele>
        <time>2020-06-04T15:46:50Z</time>
      </trkpt>
      <trkpt lat="47.02906" lon="-1.97401">
        <ele>3.2</ele>
        <time>2020-06-04T15:46:51Z</time>
      </trkpt>
      <trkpt lat="47.02907" lon="-1.97407">
        <ele>3.2</ele>
        <time>2020-06-04T15:46:52Z</time>
      </trkpt>
      <trkpt lat="47.02907" lon="-1.97414">
        <ele>3.2</ele>
        <time>2020-06-04T15:46:53Z</time>
      </trkpt>
      <trkpt lat="47.02907" lon="-1.97421">
        <ele>3.2</ele>
        <time>2020-06-04T15:46:54Z</time>
      </trkpt>
      <trkpt lat="47.02907" lon="-1.97428">
        <ele>3.2</ele>
        <time>2020-06-04T15:46:55Z</time>
      </trkpt>
      <trkpt lat="47.02907" lon="-1.97435">
        <ele>3.2</ele>
        <time>2020-06-04T15:46:56Z</time>
      </trkpt>
      <trkpt lat="47.02908" lon="-1.97441">
        <ele>3.3</ele>
        <time>2020-06-04T15:46:57Z</time>
      </trkpt>
      <trkpt lat="47.02908" lon="-1.97449">
        <ele>3.3</ele>
        <time>2020-06-04T15:46:58Z</time>
      </trkpt>
      <trkpt lat="47.02909" lon="-1.97456">
        <ele>3.3</ele>
        <time>2020-06-04T15:46:59Z</time>
      </trkpt>
      <trkpt lat="47.02909" lon="-1.97464">
        <ele>3.3</ele>
        <time>2020-06-04T15:47:00Z</time>
      </trkpt>
      <trkpt lat="47.02909" lon="-1.97472">
        <ele>3.3</ele>
        <time>2020-06-04T15:47:01Z</time>
      </trkpt>
      <trkpt lat="47.02909" lon="-1.97479">
        <ele>3.3</ele>
        <time>2020-06-04T15:47:02Z</time>
      </trkpt>
      <trkpt lat="47.0291" lon="-1.97485">
        <ele>3.3</ele>
        <time>2020-06-04T15:47:03Z</time>
      </trkpt>
      <trkpt lat="47.0291" lon="-1.97491">
        <ele>3.3</ele>
        <time>2020-06-04T15:47:04Z</time>
      </trkpt>
      <trkpt lat="47.0291" lon="-1.97499">
        <ele>3.3</ele>
        <time>2020-06-04T15:47:05Z</time>
      </trkpt>
      <trkpt lat="47.0291" lon="-1.97507">
        <ele>3.3</ele>
        <time>2020-06-04T15:47:06Z</time>
      </trkpt>
      <trkpt lat="47.0291" lon="-1.97516">
        <ele>3.3</ele>
        <time>2020-06-04T15:47:07Z</time>
      </trkpt>
      <trkpt lat="47.02911" lon="-1.9752">
        <ele>3.4</ele>
        <time>2020-06-04T15:47:08Z</time>
      </trkpt>
      <trkpt lat="47.02911" lon="-1.97527">
        <ele>3.4</ele>
        <time>2020-06-04T15:47:09Z</time>
      </trkpt>
      <trkpt lat="47.02911" lon="-1.97536">
        <ele>3.4</ele>
        <time>2020-06-04T15:47:10Z</time>
      </trkpt>
      <trkpt lat="47.02911" lon="-1.97544">
        <ele>3.4</ele>
        <time>2020-06-04T15:47:11Z</time>
      </trkpt>
      <trkpt lat="47.02911" lon="-1.97551">
        <ele>3.4</ele>
        <time>2020-06-04T15:47:12Z</time>
      </trkpt>
      <trkpt lat="47.02912" lon="-1.97557">
        <ele>3.4</ele>
        <time>2020-06-04T15:47:13Z</time>
      </trkpt>
      <trkpt lat="47.02912" lon="-1.97564">
        <ele>3.4</ele>
        <time>2020-06-04T15:47:14Z</time>
      </trkpt>
      <trkpt lat="47.02912" lon="-1.9757">
        <ele>3.4</ele>
        <time>2020-06-04T15:47:15Z</time>
      </trkpt>
      <trkpt lat="47.02913" lon="-1.97574">
        <ele>3.4</ele>
        <time>2020-06-04T15:47:16Z</time>
      </trkpt>
      <trkpt lat="47.02913" lon="-1.9758">
        <ele>3.4</ele>
        <time>2020-06-04T15:47:17Z</time>
      </trkpt>
      <trkpt lat="47.02914" lon="-1.97583">
        <ele>3.4</ele>
        <time>2020-06-04T15:47:18Z</time>
      </trkpt>
      <trkpt lat="47.02914" lon="-1.97588">
        <ele>3.4</ele>
        <time>2020-06-04T15:47:19Z</time>
      </trkpt>
      <trkpt lat="47.02914" lon="-1.97595">
        <ele>3.4</ele>
        <time>2020-06-04T15:47:20Z</time>
      </trkpt>
      <trkpt lat="47.02915" lon="-1.97601">
        <ele>3.4</ele>
        <time>2020-06-04T15:47:21Z</time>
      </trkpt>
      <trkpt lat="47.02915" lon="-1.97608">
        <ele>3.4</ele>
        <time>2020-06-04T15:47:22Z</time>
      </trkpt>
      <trkpt lat="47.02916" lon="-1.97615">
        <ele>3.4</ele>
        <time>2020-06-04T15:47:23Z</time>
      </trkpt>
      <trkpt lat="47.02916" lon="-1.97621">
        <ele>3.4</ele>
        <time>2020-06-04T15:47:24Z</time>
      </trkpt>
      <trkpt lat="47.02917" lon="-1.97628">
        <ele>3.4</ele>
        <time>2020-06-04T15:47:25Z</time>
      </trkpt>
      <trkpt lat="47.02917" lon="-1.97637">
        <ele>3.4</ele>
        <time>2020-06-04T15:47:26Z</time>
      </trkpt>
      <trkpt lat="47.02917" lon="-1.97645">
        <ele>3.4</ele>
        <time>2020-06-04T15:47:27Z</time>
      </trkpt>
      <trkpt lat="47.02918" lon="-1.97653">
        <ele>3.3</ele>
        <time>2020-06-04T15:47:28Z</time>
      </trkpt>
      <trkpt lat="47.02918" lon="-1.9766">
        <ele>3.3</ele>
        <time>2020-06-04T15:47:29Z</time>
      </trkpt>
      <trkpt lat="47.02918" lon="-1.97667">
        <ele>3.3</ele>
        <time>2020-06-04T15:47:30Z</time>
      </trkpt>
      <trkpt lat="47.02918" lon="-1.97674">
        <ele>3.3</ele>
        <time>2020-06-04T15:47:31Z</time>
      </trkpt>
      <trkpt lat="47.02918" lon="-1.97682">
        <ele>3.3</ele>
        <time>2020-06-04T15:47:32Z</time>
      </trkpt>
      <trkpt lat="47.02919" lon="-1.97692">
        <ele>3.3</ele>
        <time>2020-06-04T15:47:33Z</time>
      </trkpt>
      <trkpt lat="47.0292" lon="-1.977">
        <ele>3.3</ele>
        <time>2020-06-04T15:47:34Z</time>
      </trkpt>
      <trkpt lat="47.0292" lon="-1.9771">
        <ele>3.3</ele>
        <time>2020-06-04T15:47:35Z</time>
      </trkpt>
      <trkpt lat="47.0292" lon="-1.97718">
        <ele>3.3</ele>
        <time>2020-06-04T15:47:36Z</time>
      </trkpt>
      <trkpt lat="47.02921" lon="-1.97726">
        <ele>3.2</ele>
        <time>2020-06-04T15:47:37Z</time>
      </trkpt>
      <trkpt lat="47.02921" lon="-1.97735">
        <ele>3.2</ele>
        <time>2020-06-04T15:47:38Z</time>
      </trkpt>
      <trkpt lat="47.02922" lon="-1.97744">
        <ele>3.2</ele>
        <time>2020-06-04T15:47:39Z</time>
      </trkpt>
      <trkpt lat="47.02923" lon="-1.97754">
        <ele>3.2</ele>
        <time>2020-06-04T15:47:40Z</time>
      </trkpt>
      <trkpt lat="47.02924" lon="-1.9776">
        <ele>3.2</ele>
        <time>2020-06-04T15:47:41Z</time>
      </trkpt>
      <trkpt lat="47.02925" lon="-1.97769">
        <ele>3.2</ele>
        <time>2020-06-04T15:47:42Z</time>
      </trkpt>
      <trkpt lat="47.02927" lon="-1.97776">
        <ele>3.2</ele>
        <time>2020-06-04T15:47:43Z</time>
      </trkpt>
      <trkpt lat="47.02928" lon="-1.97784">
        <ele>3.2</ele>
        <time>2020-06-04T15:47:44Z</time>
      </trkpt>
      <trkpt lat="47.02929" lon="-1.97791">
        <ele>3.2</ele>
        <time>2020-06-04T15:47:45Z</time>
      </trkpt>
      <trkpt lat="47.02931" lon="-1.97796">
        <ele>3.2</ele>
        <time>2020-06-04T15:47:46Z</time>
      </trkpt>
      <trkpt lat="47.02933" lon="-1.97805">
        <ele>3.2</ele>
        <time>2020-06-04T15:47:47Z</time>
      </trkpt>
      <trkpt lat="47.02934" lon="-1.9781">
        <ele>3.2</ele>
        <time>2020-06-04T15:47:48Z</time>
      </trkpt>
      <trkpt lat="47.02936" lon="-1.97817">
        <ele>3.2</ele>
        <time>2020-06-04T15:47:49Z</time>
      </trkpt>
      <trkpt lat="47.02937" lon="-1.97824">
        <ele>3.2</ele>
        <time>2020-06-04T15:47:50Z</time>
      </trkpt>
      <trkpt lat="47.02939" lon="-1.9783">
        <ele>3.2</ele>
        <time>2020-06-04T15:47:51Z</time>
      </trkpt>
      <trkpt lat="47.0294" lon="-1.97837">
        <ele>3.2</ele>
        <time>2020-06-04T15:47:52Z</time>
      </trkpt>
      <trkpt lat="47.02943" lon="-1.97844">
        <ele>3.2</ele>
        <time>2020-06-04T15:47:53Z</time>
      </trkpt>
      <trkpt lat="47.02945" lon="-1.97852">
        <ele>3.2</ele>
        <time>2020-06-04T15:47:54Z</time>
      </trkpt>
      <trkpt lat="47.02947" lon="-1.97859">
        <ele>3.2</ele>
        <time>2020-06-04T15:47:55Z</time>
      </trkpt>
      <trkpt lat="47.0295" lon="-1.97866">
        <ele>3.2</ele>
        <time>2020-06-04T15:47:56Z</time>
      </trkpt>
      <trkpt lat="47.02952" lon="-1.97874">
        <ele>3.2</ele>
        <time>2020-06-04T15:47:57Z</time>
      </trkpt>
      <trkpt lat="47.02955" lon="-1.97882">
        <ele>3.2</ele>
        <time>2020-06-04T15:47:58Z</time>
      </trkpt>
      <trkpt lat="47.02958" lon="-1.97888">
        <ele>3.2</ele>
        <time>2020-06-04T15:47:59Z</time>
      </trkpt>
      <trkpt lat="47.02961" lon="-1.97894">
        <ele>3.2</ele>
        <time>2020-06-04T15:48:00Z</time>
      </trkpt>
      <trkpt lat="47.02964" lon="-1.97898">
        <ele>3.2</ele>
        <time>2020-06-04T15:48:01Z</time>
      </trkpt>
      <trkpt lat="47.02969" lon="-1.97902">
        <ele>3.2</ele>
        <time>2020-06-04T15:48:02Z</time>
      </trkpt>
      <trkpt lat="47.02975" lon="-1.97904">
        <ele>3.2</ele>
        <time>2020-06-04T15:48:03Z</time>
      </trkpt>
      <trkpt lat="47.02981" lon="-1.97907">
        <ele>3.3</ele>
        <time>2020-06-04T15:48:04Z</time>
      </trkpt>
      <trkpt lat="47.02986" lon="-1.9791">
        <ele>3.3</ele>
        <time>2020-06-04T15:48:05Z</time>
      </trkpt>
      <trkpt lat="47.02992" lon="-1.97914">
        <ele>3.3</ele>
        <time>2020-06-04T15:48:06Z</time>
      </trkpt>
      <trkpt lat="47.02997" lon="-1.97917">
        <ele>3.3</ele>
        <time>2020-06-04T15:48:07Z</time>
      </trkpt>
      <trkpt lat="47.03002" lon="-1.9792">
        <ele>3.3</ele>
        <time>2020-06-04T15:48:08Z</time>
      </trkpt>
      <trkpt lat="47.03007" lon="-1.97923">
        <ele>3.3</ele>
        <time>2020-06-04T15:48:09Z</time>
      </trkpt>
      <trkpt lat="47.03013" lon="-1.97928">
        <ele>3.3</ele>
        <time>2020-06-04T15:48:10Z</time>
      </trkpt>
      <trkpt lat="47.03018" lon="-1.97931">
        <ele>3.3</ele>
        <time>2020-06-04T15:48:11Z</time>
      </trkpt>
      <trkpt lat="47.03022" lon="-1.97936">
        <ele>3.3</ele>
        <time>2020-06-04T15:48:12Z</time>
      </trkpt>
      <trkpt lat="47.03026" lon="-1.97939">
        <ele>3.3</ele>
        <time>2020-06-04T15:48:13Z</time>
      </trkpt>
      <trkpt lat="47.03031" lon="-1.97943">
        <ele>3.3</ele>
        <time>2020-06-04T15:48:14Z</time>
      </trkpt>
      <trkpt lat="47.03037" lon="-1.97947">
        <ele>3.3</ele>
        <time>2020-06-04T15:48:15Z</time>
      </trkpt>
      <trkpt lat="47.03042" lon="-1.97951">
        <ele>3.3</ele>
        <time>2020-06-04T15:48:16Z</time>
      </trkpt>
      <trkpt lat="47.03047" lon="-1.97955">
        <ele>3.3</ele>
        <time>2020-06-04T15:48:17Z</time>
      </trkpt>
      <trkpt lat="47.03053" lon="-1.9796">
        <ele>3.3</ele>
        <time>2020-06-04T15:48:18Z</time>
      </trkpt>
      <trkpt lat="47.03058" lon="-1.97964">
        <ele>3.3</ele>
        <time>2020-06-04T15:48:19Z</time>
      </trkpt>
      <trkpt lat="47.03063" lon="-1.9797">
        <ele>3.3</ele>
        <time>2020-06-04T15:48:20Z</time>
      </trkpt>
      <trkpt lat="47.03068" lon="-1.97975">
        <ele>3.3</ele>
        <time>2020-06-04T15:48:21Z</time>
      </trkpt>
      <trkpt lat="47.03073" lon="-1.97979">
        <ele>3.3</ele>
        <time>2020-06-04T15:48:22Z</time>
      </trkpt>
      <trkpt lat="47.03077" lon="-1.97982">
        <ele>3.3</ele>
        <time>2020-06-04T15:48:23Z</time>
      </trkpt>
      <trkpt lat="47.03082" lon="-1.97987">
        <ele>3.3</ele>
        <time>2020-06-04T15:48:24Z</time>
      </trkpt>
      <trkpt lat="47.03087" lon="-1.97992">
        <ele>3.3</ele>
        <time>2020-06-04T15:48:25Z</time>
      </trkpt>
      <trkpt lat="47.03091" lon="-1.97997">
        <ele>3.3</ele>
        <time>2020-06-04T15:48:26Z</time>
      </trkpt>
      <trkpt lat="47.03097" lon="-1.98002">
        <ele>3.3</ele>
        <time>2020-06-04T15:48:27Z</time>
      </trkpt>
      <trkpt lat="47.03102" lon="-1.98008">
        <ele>3.4</ele>
        <time>2020-06-04T15:48:28Z</time>
      </trkpt>
      <trkpt lat="47.03106" lon="-1.98013">
        <ele>3.4</ele>
        <time>2020-06-04T15:48:29Z</time>
      </trkpt>
      <trkpt lat="47.03112" lon="-1.98018">
        <ele>3.4</ele>
        <time>2020-06-04T15:48:30Z</time>
      </trkpt>
      <trkpt lat="47.03117" lon="-1.98023">
        <ele>3.4</ele>
        <time>2020-06-04T15:48:31Z</time>
      </trkpt>
      <trkpt lat="47.03122" lon="-1.9803">
        <ele>3.5</ele>
        <time>2020-06-04T15:48:32Z</time>
      </trkpt>
      <trkpt lat="47.03127" lon="-1.98036">
        <ele>3.5</ele>
        <time>2020-06-04T15:48:33Z</time>
      </trkpt>
      <trkpt lat="47.03132" lon="-1.98041">
        <ele>3.6</ele>
        <time>2020-06-04T15:48:34Z</time>
      </trkpt>
      <trkpt lat="47.03135" lon="-1.98048">
        <ele>3.6</ele>
        <time>2020-06-04T15:48:35Z</time>
      </trkpt>
      <trkpt lat="47.03139" lon="-1.98055">
        <ele>3.7</ele>
        <time>2020-06-04T15:48:36Z</time>
      </trkpt>
      <trkpt lat="47.03143" lon="-1.98062">
        <ele>3.8</ele>
        <time>2020-06-04T15:48:37Z</time>
      </trkpt>
      <trkpt lat="47.03147" lon="-1.98069">
        <ele>3.9</ele>
        <time>2020-06-04T15:48:38Z</time>
      </trkpt>
      <trkpt lat="47.03151" lon="-1.98076">
        <ele>3.9</ele>
        <time>2020-06-04T15:48:39Z</time>
      </trkpt>
      <trkpt lat="47.03155" lon="-1.98083">
        <ele>4</ele>
        <time>2020-06-04T15:48:40Z</time>
      </trkpt>
      <trkpt lat="47.03159" lon="-1.9809">
        <ele>4.1</ele>
        <time>2020-06-04T15:48:41Z</time>
      </trkpt>
      <trkpt lat="47.03163" lon="-1.98097">
        <ele>4.2</ele>
        <time>2020-06-04T15:48:42Z</time>
      </trkpt>
      <trkpt lat="47.03167" lon="-1.98102">
        <ele>4.3</ele>
        <time>2020-06-04T15:48:43Z</time>
      </trkpt>
      <trkpt lat="47.03171" lon="-1.9811">
        <ele>4.4</ele>
        <time>2020-06-04T15:48:44Z</time>
      </trkpt>
      <trkpt lat="47.03174" lon="-1.98116">
        <ele>4.6</ele>
        <time>2020-06-04T15:48:45Z</time>
      </trkpt>
      <trkpt lat="47.03178" lon="-1.98122">
        <ele>4.6</ele>
        <time>2020-06-04T15:48:46Z</time>
      </trkpt>
      <trkpt lat="47.03182" lon="-1.98129">
        <ele>4.7</ele>
        <time>2020-06-04T15:48:47Z</time>
      </trkpt>
      <trkpt lat="47.03185" lon="-1.98135">
        <ele>4.8</ele>
        <time>2020-06-04T15:48:48Z</time>
      </trkpt>
      <trkpt lat="47.03189" lon="-1.98141">
        <ele>4.9</ele>
        <time>2020-06-04T15:48:49Z</time>
      </trkpt>
      <trkpt lat="47.03192" lon="-1.98147">
        <ele>4.9</ele>
        <time>2020-06-04T15:48:50Z</time>
      </trkpt>
      <trkpt lat="47.03196" lon="-1.98152">
        <ele>5</ele>
        <time>2020-06-04T15:48:51Z</time>
      </trkpt>
      <trkpt lat="47.032" lon="-1.98158">
        <ele>5</ele>
        <time>2020-06-04T15:48:52Z</time>
      </trkpt>
      <trkpt lat="47.03204" lon="-1.98163">
        <ele>5.1</ele>
        <time>2020-06-04T15:48:53Z</time>
      </trkpt>
      <trkpt lat="47.0321" lon="-1.98168">
        <ele>5.1</ele>
        <time>2020-06-04T15:48:54Z</time>
      </trkpt>
      <trkpt lat="47.03215" lon="-1.9817">
        <ele>5.2</ele>
        <time>2020-06-04T15:48:55Z</time>
      </trkpt>
      <trkpt lat="47.03221" lon="-1.98172">
        <ele>5.3</ele>
        <time>2020-06-04T15:48:56Z</time>
      </trkpt>
      <trkpt lat="47.03227" lon="-1.98175">
        <ele>5.4</ele>
        <time>2020-06-04T15:48:57Z</time>
      </trkpt>
      <trkpt lat="47.03233" lon="-1.98177">
        <ele>5.5</ele>
        <time>2020-06-04T15:48:58Z</time>
      </trkpt>
      <trkpt lat="47.03238" lon="-1.98181">
        <ele>5.5</ele>
        <time>2020-06-04T15:48:59Z</time>
      </trkpt>
      <trkpt lat="47.03244" lon="-1.98184">
        <ele>5.6</ele>
        <time>2020-06-04T15:49:00Z</time>
      </trkpt>
      <trkpt lat="47.0325" lon="-1.98187">
        <ele>5.7</ele>
        <time>2020-06-04T15:49:01Z</time>
      </trkpt>
      <trkpt lat="47.03255" lon="-1.9819">
        <ele>5.7</ele>
        <time>2020-06-04T15:49:02Z</time>
      </trkpt>
      <trkpt lat="47.03261" lon="-1.98194">
        <ele>5.8</ele>
        <time>2020-06-04T15:49:03Z</time>
      </trkpt>
      <trkpt lat="47.03266" lon="-1.98198">
        <ele>5.9</ele>
        <time>2020-06-04T15:49:04Z</time>
      </trkpt>
      <trkpt lat="47.03272" lon="-1.98203">
        <ele>5.9</ele>
        <time>2020-06-04T15:49:05Z</time>
      </trkpt>
      <trkpt lat="47.03276" lon="-1.98206">
        <ele>5.9</ele>
        <time>2020-06-04T15:49:06Z</time>
      </trkpt>
      <trkpt lat="47.03281" lon="-1.98211">
        <ele>6</ele>
        <time>2020-06-04T15:49:07Z</time>
      </trkpt>
      <trkpt lat="47.03286" lon="-1.98216">
        <ele>6</ele>
        <time>2020-06-04T15:49:08Z</time>
      </trkpt>
      <trkpt lat="47.0329" lon="-1.98219">
        <ele>6</ele>
        <time>2020-06-04T15:49:09Z</time>
      </trkpt>
      <trkpt lat="47.03295" lon="-1.98225">
        <ele>6.1</ele>
        <time>2020-06-04T15:49:10Z</time>
      </trkpt>
      <trkpt lat="47.033" lon="-1.9823">
        <ele>6.1</ele>
        <time>2020-06-04T15:49:11Z</time>
      </trkpt>
      <trkpt lat="47.03305" lon="-1.98236">
        <ele>6.2</ele>
        <time>2020-06-04T15:49:12Z</time>
      </trkpt>
      <trkpt lat="47.03309" lon="-1.98241">
        <ele>6.2</ele>
        <time>2020-06-04T15:49:13Z</time>
      </trkpt>
      <trkpt lat="47.03313" lon="-1.98246">
        <ele>6.2</ele>
        <time>2020-06-04T15:49:14Z</time>
      </trkpt>
      <trkpt lat="47.03318" lon="-1.98251">
        <ele>6.2</ele>
        <time>2020-06-04T15:49:15Z</time>
      </trkpt>
      <trkpt lat="47.03321" lon="-1.98255">
        <ele>6.2</ele>
        <time>2020-06-04T15:49:16Z</time>
      </trkpt>
      <trkpt lat="47.03325" lon="-1.98259">
        <ele>6.2</ele>
        <time>2020-06-04T15:49:17Z</time>
      </trkpt>
      <trkpt lat="47.03329" lon="-1.98264">
        <ele>6.2</ele>
        <time>2020-06-04T15:49:18Z</time>
      </trkpt>
      <trkpt lat="47.03334" lon="-1.98269">
        <ele>6.2</ele>
        <time>2020-06-04T15:49:19Z</time>
      </trkpt>
      <trkpt lat="47.03338" lon="-1.98273">
        <ele>6.3</ele>
        <time>2020-06-04T15:49:20Z</time>
      </trkpt>
      <trkpt lat="47.03342" lon="-1.98278">
        <ele>6.3</ele>
        <time>2020-06-04T15:49:21Z</time>
      </trkpt>
      <trkpt lat="47.03347" lon="-1.98281">
        <ele>6.3</ele>
        <time>2020-06-04T15:49:22Z</time>
      </trkpt>
      <trkpt lat="47.0335" lon="-1.98287">
        <ele>6.3</ele>
        <time>2020-06-04T15:49:23Z</time>
      </trkpt>
      <trkpt lat="47.03355" lon="-1.98292">
        <ele>6.4</ele>
        <time>2020-06-04T15:49:24Z</time>
      </trkpt>
      <trkpt lat="47.0336" lon="-1.98297">
        <ele>6.4</ele>
        <time>2020-06-04T15:49:25Z</time>
      </trkpt>
      <trkpt lat="47.03364" lon="-1.983">
        <ele>6.4</ele>
        <time>2020-06-04T15:49:26Z</time>
      </trkpt>
      <trkpt lat="47.03368" lon="-1.98305">
        <ele>6.4</ele>
        <time>2020-06-04T15:49:27Z</time>
      </trkpt>
      <trkpt lat="47.03372" lon="-1.9831">
        <ele>6.4</ele>
        <time>2020-06-04T15:49:28Z</time>
      </trkpt>
      <trkpt lat="47.03376" lon="-1.98313">
        <ele>6.4</ele>
        <time>2020-06-04T15:49:29Z</time>
      </trkpt>
      <trkpt lat="47.03381" lon="-1.98317">
        <ele>6.4</ele>
        <time>2020-06-04T15:49:30Z</time>
      </trkpt>
      <trkpt lat="47.03387" lon="-1.98322">
        <ele>6.4</ele>
        <time>2020-06-04T15:49:31Z</time>
      </trkpt>
      <trkpt lat="47.03392" lon="-1.98327">
        <ele>6.4</ele>
        <time>2020-06-04T15:49:32Z</time>
      </trkpt>
      <trkpt lat="47.03397" lon="-1.98331">
        <ele>6.4</ele>
        <time>2020-06-04T15:49:33Z</time>
      </trkpt>
      <trkpt lat="47.03401" lon="-1.98335">
        <ele>6.4</ele>
        <time>2020-06-04T15:49:34Z</time>
      </trkpt>
      <trkpt lat="47.03406" lon="-1.98339">
        <ele>6.4</ele>
        <time>2020-06-04T15:49:35Z</time>
      </trkpt>
      <trkpt lat="47.03411" lon="-1.98344">
        <ele>6.4</ele>
        <time>2020-06-04T15:49:36Z</time>
      </trkpt>
      <trkpt lat="47.03416" lon="-1.98348">
        <ele>6.4</ele>
        <time>2020-06-04T15:49:37Z</time>
      </trkpt>
      <trkpt lat="47.03422" lon="-1.98353">
        <ele>6.4</ele>
        <time>2020-06-04T15:49:38Z</time>
      </trkpt>
      <trkpt lat="47.03427" lon="-1.98358">
        <ele>6.4</ele>
        <time>2020-06-04T15:49:39Z</time>
      </trkpt>
      <trkpt lat="47.03431" lon="-1.98362">
        <ele>6.4</ele>
        <time>2020-06-04T15:49:40Z</time>
      </trkpt>
      <trkpt lat="47.03435" lon="-1.98365">
        <ele>6.4</ele>
        <time>2020-06-04T15:49:41Z</time>
      </trkpt>
      <trkpt lat="47.03441" lon="-1.98369">
        <ele>6.4</ele>
        <time>2020-06-04T15:49:42Z</time>
      </trkpt>
      <trkpt lat="47.03446" lon="-1.98374">
        <ele>6.5</ele>
        <time>2020-06-04T15:49:43Z</time>
      </trkpt>
      <trkpt lat="47.03451" lon="-1.98378">
        <ele>6.5</ele>
        <time>2020-06-04T15:49:44Z</time>
      </trkpt>
      <trkpt lat="47.03457" lon="-1.9838">
        <ele>6.5</ele>
        <time>2020-06-04T15:49:45Z</time>
      </trkpt>
      <trkpt lat="47.03461" lon="-1.98384">
        <ele>6.5</ele>
        <time>2020-06-04T15:49:46Z</time>
      </trkpt>
      <trkpt lat="47.03465" lon="-1.9839">
        <ele>6.5</ele>
        <time>2020-06-04T15:49:47Z</time>
      </trkpt>
      <trkpt lat="47.03471" lon="-1.98395">
        <ele>6.5</ele>
        <time>2020-06-04T15:49:48Z</time>
      </trkpt>
      <trkpt lat="47.03475" lon="-1.98399">
        <ele>6.5</ele>
        <time>2020-06-04T15:49:49Z</time>
      </trkpt>
      <trkpt lat="47.03479" lon="-1.98402">
        <ele>6.4</ele>
        <time>2020-06-04T15:49:50Z</time>
      </trkpt>
      <trkpt lat="47.03484" lon="-1.98407">
        <ele>6.4</ele>
        <time>2020-06-04T15:49:51Z</time>
      </trkpt>
      <trkpt lat="47.03489" lon="-1.98411">
        <ele>6.4</ele>
        <time>2020-06-04T15:49:52Z</time>
      </trkpt>
      <trkpt lat="47.03494" lon="-1.98416">
        <ele>6.3</ele>
        <time>2020-06-04T15:49:53Z</time>
      </trkpt>
      <trkpt lat="47.03499" lon="-1.9842">
        <ele>6.3</ele>
        <time>2020-06-04T15:49:54Z</time>
      </trkpt>
      <trkpt lat="47.03504" lon="-1.98423">
        <ele>6.3</ele>
        <time>2020-06-04T15:49:55Z</time>
      </trkpt>
      <trkpt lat="47.03509" lon="-1.98428">
        <ele>6.3</ele>
        <time>2020-06-04T15:49:56Z</time>
      </trkpt>
      <trkpt lat="47.03514" lon="-1.98431">
        <ele>6.2</ele>
        <time>2020-06-04T15:49:57Z</time>
      </trkpt>
      <trkpt lat="47.03517" lon="-1.98435">
        <ele>6.2</ele>
        <time>2020-06-04T15:49:58Z</time>
      </trkpt>
      <trkpt lat="47.03521" lon="-1.98438">
        <ele>6.2</ele>
        <time>2020-06-04T15:49:59Z</time>
      </trkpt>
      <trkpt lat="47.03525" lon="-1.98441">
        <ele>6.1</ele>
        <time>2020-06-04T15:50:00Z</time>
      </trkpt>
      <trkpt lat="47.03528" lon="-1.98445">
        <ele>6.1</ele>
        <time>2020-06-04T15:50:01Z</time>
      </trkpt>
      <trkpt lat="47.03532" lon="-1.98449">
        <ele>6</ele>
        <time>2020-06-04T15:50:02Z</time>
      </trkpt>
      <trkpt lat="47.03535" lon="-1.98452">
        <ele>6</ele>
        <time>2020-06-04T15:50:03Z</time>
      </trkpt>
      <trkpt lat="47.03539" lon="-1.98455">
        <ele>6</ele>
        <time>2020-06-04T15:50:04Z</time>
      </trkpt>
      <trkpt lat="47.03543" lon="-1.98458">
        <ele>5.9</ele>
        <time>2020-06-04T15:50:05Z</time>
      </trkpt>
      <trkpt lat="47.03546" lon="-1.98461">
        <ele>5.9</ele>
        <time>2020-06-04T15:50:06Z</time>
      </trkpt>
      <trkpt lat="47.03549" lon="-1.98464">
        <ele>5.9</ele>
        <time>2020-06-04T15:50:07Z</time>
      </trkpt>
      <trkpt lat="47.03552" lon="-1.98467">
        <ele>5.9</ele>
        <time>2020-06-04T15:50:08Z</time>
      </trkpt>
      <trkpt lat="47.03555" lon="-1.98469">
        <ele>5.9</ele>
        <time>2020-06-04T15:50:09Z</time>
      </trkpt>
      <trkpt lat="47.03558" lon="-1.98471">
        <ele>5.9</ele>
        <time>2020-06-04T15:50:10Z</time>
      </trkpt>
      <trkpt lat="47.03562" lon="-1.98474">
        <ele>5.9</ele>
        <time>2020-06-04T15:50:11Z</time>
      </trkpt>
      <trkpt lat="47.03565" lon="-1.98476">
        <ele>5.8</ele>
        <time>2020-06-04T15:50:12Z</time>
      </trkpt>
      <trkpt lat="47.03567" lon="-1.98479">
        <ele>5.8</ele>
        <time>2020-06-04T15:50:13Z</time>
      </trkpt>
      <trkpt lat="47.0357" lon="-1.98481">
        <ele>5.8</ele>
        <time>2020-06-04T15:50:14Z</time>
      </trkpt>
      <trkpt lat="47.03571" lon="-1.98482">
        <ele>5.8</ele>
        <time>2020-06-04T15:50:15Z</time>
      </trkpt>
      <trkpt lat="47.03575" lon="-1.98485">
        <ele>5.8</ele>
        <time>2020-06-04T15:50:16Z</time>
      </trkpt>
      <trkpt lat="47.03576" lon="-1.98485">
        <ele>5.8</ele>
        <time>2020-06-04T15:50:17Z</time>
      </trkpt>
      <trkpt lat="47.03579" lon="-1.98487">
        <ele>5.8</ele>
        <time>2020-06-04T15:50:18Z</time>
      </trkpt>
      <trkpt lat="47.03582" lon="-1.98488">
        <ele>5.7</ele>
        <time>2020-06-04T15:50:19Z</time>
      </trkpt>
      <trkpt lat="47.03585" lon="-1.9849">
        <ele>5.7</ele>
        <time>2020-06-04T15:50:20Z</time>
      </trkpt>
      <trkpt lat="47.03586" lon="-1.98492">
        <ele>5.7</ele>
        <time>2020-06-04T15:50:21Z</time>
      </trkpt>
      <trkpt lat="47.03589" lon="-1.98495">
        <ele>5.7</ele>
        <time>2020-06-04T15:50:22Z</time>
      </trkpt>
      <trkpt lat="47.03591" lon="-1.98497">
        <ele>5.7</ele>
        <time>2020-06-04T15:50:23Z</time>
      </trkpt>
      <trkpt lat="47.03593" lon="-1.985">
        <ele>5.7</ele>
        <time>2020-06-04T15:50:24Z</time>
      </trkpt>
      <trkpt lat="47.03596" lon="-1.98502">
        <ele>5.6</ele>
        <time>2020-06-04T15:50:25Z</time>
      </trkpt>
      <trkpt lat="47.03597" lon="-1.98503">
        <ele>5.6</ele>
        <time>2020-06-04T15:50:26Z</time>
      </trkpt>
      <trkpt lat="47.03601" lon="-1.98505">
        <ele>5.6</ele>
        <time>2020-06-04T15:50:27Z</time>
      </trkpt>
      <trkpt lat="47.03602" lon="-1.98506">
        <ele>5.6</ele>
        <time>2020-06-04T15:50:28Z</time>
      </trkpt>
      <trkpt lat="47.03604" lon="-1.98508">
        <ele>5.6</ele>
        <time>2020-06-04T15:50:29Z</time>
      </trkpt>
      <trkpt lat="47.03605" lon="-1.98509">
        <ele>5.6</ele>
        <time>2020-06-04T15:50:30Z</time>
      </trkpt>
      <trkpt lat="47.03606" lon="-1.9851">
        <ele>5.5</ele>
        <time>2020-06-04T15:50:31Z</time>
      </trkpt>
      <trkpt lat="47.03609" lon="-1.98513">
        <ele>5.5</ele>
        <time>2020-06-04T15:50:32Z</time>
      </trkpt>
      <trkpt lat="47.03613" lon="-1.98516">
        <ele>5.5</ele>
        <time>2020-06-04T15:50:33Z</time>
      </trkpt>
      <trkpt lat="47.03615" lon="-1.98517">
        <ele>5.4</ele>
        <time>2020-06-04T15:50:34Z</time>
      </trkpt>
      <trkpt lat="47.03618" lon="-1.98519">
        <ele>5.4</ele>
        <time>2020-06-04T15:50:35Z</time>
      </trkpt>
      <trkpt lat="47.0362" lon="-1.98522">
        <ele>5.4</ele>
        <time>2020-06-04T15:50:36Z</time>
      </trkpt>
      <trkpt lat="47.03622" lon="-1.98524">
        <ele>5.3</ele>
        <time>2020-06-04T15:50:37Z</time>
      </trkpt>
      <trkpt lat="47.03625" lon="-1.98526">
        <ele>5.3</ele>
        <time>2020-06-04T15:50:38Z</time>
      </trkpt>
      <trkpt lat="47.03628" lon="-1.98528">
        <ele>5.3</ele>
        <time>2020-06-04T15:50:39Z</time>
      </trkpt>
      <trkpt lat="47.03632" lon="-1.98529">
        <ele>5.2</ele>
        <time>2020-06-04T15:50:40Z</time>
      </trkpt>
      <trkpt lat="47.03635" lon="-1.98531">
        <ele>5.2</ele>
        <time>2020-06-04T15:50:41Z</time>
      </trkpt>
      <trkpt lat="47.03638" lon="-1.98532">
        <ele>5.2</ele>
        <time>2020-06-04T15:50:42Z</time>
      </trkpt>
      <trkpt lat="47.03641" lon="-1.98533">
        <ele>5.1</ele>
        <time>2020-06-04T15:50:43Z</time>
      </trkpt>
      <trkpt lat="47.03645" lon="-1.98534">
        <ele>5.1</ele>
        <time>2020-06-04T15:50:44Z</time>
      </trkpt>
      <trkpt lat="47.03648" lon="-1.98536">
        <ele>5</ele>
        <time>2020-06-04T15:50:45Z</time>
      </trkpt>
      <trkpt lat="47.03652" lon="-1.98537">
        <ele>5</ele>
        <time>2020-06-04T15:50:46Z</time>
      </trkpt>
      <trkpt lat="47.03655" lon="-1.98537">
        <ele>4.9</ele>
        <time>2020-06-04T15:50:47Z</time>
      </trkpt>
      <trkpt lat="47.03661" lon="-1.98536">
        <ele>4.8</ele>
        <time>2020-06-04T15:50:48Z</time>
      </trkpt>
      <trkpt lat="47.03665" lon="-1.98538">
        <ele>4.7</ele>
        <time>2020-06-04T15:50:49Z</time>
      </trkpt>
      <trkpt lat="47.0367" lon="-1.98536">
        <ele>4.6</ele>
        <time>2020-06-04T15:50:50Z</time>
      </trkpt>
      <trkpt lat="47.03674" lon="-1.98538">
        <ele>4.5</ele>
        <time>2020-06-04T15:50:51Z</time>
      </trkpt>
      <trkpt lat="47.03678" lon="-1.98538">
        <ele>4.4</ele>
        <time>2020-06-04T15:50:52Z</time>
      </trkpt>
      <trkpt lat="47.03683" lon="-1.98537">
        <ele>4.3</ele>
        <time>2020-06-04T15:50:53Z</time>
      </trkpt>
      <trkpt lat="47.03687" lon="-1.98536">
        <ele>4.2</ele>
        <time>2020-06-04T15:50:54Z</time>
      </trkpt>
      <trkpt lat="47.03692" lon="-1.98534">
        <ele>4.1</ele>
        <time>2020-06-04T15:50:55Z</time>
      </trkpt>
      <trkpt lat="47.03696" lon="-1.98533">
        <ele>4</ele>
        <time>2020-06-04T15:50:56Z</time>
      </trkpt>
      <trkpt lat="47.03699" lon="-1.98533">
        <ele>3.9</ele>
        <time>2020-06-04T15:50:57Z</time>
      </trkpt>
      <trkpt lat="47.03703" lon="-1.98533">
        <ele>3.9</ele>
        <time>2020-06-04T15:50:58Z</time>
      </trkpt>
      <trkpt lat="47.03706" lon="-1.98531">
        <ele>3.8</ele>
        <time>2020-06-04T15:50:59Z</time>
      </trkpt>
      <trkpt lat="47.03708" lon="-1.98531">
        <ele>3.8</ele>
        <time>2020-06-04T15:51:00Z</time>
      </trkpt>
      <trkpt lat="47.03711" lon="-1.98531">
        <ele>3.7</ele>
        <time>2020-06-04T15:51:01Z</time>
      </trkpt>
      <trkpt lat="47.03714" lon="-1.98531">
        <ele>3.6</ele>
        <time>2020-06-04T15:51:02Z</time>
      </trkpt>
      <trkpt lat="47.03717" lon="-1.9853">
        <ele>3.5</ele>
        <time>2020-06-04T15:51:03Z</time>
      </trkpt>
      <trkpt lat="47.03721" lon="-1.98529">
        <ele>3.4</ele>
        <time>2020-06-04T15:51:04Z</time>
      </trkpt>
      <trkpt lat="47.03725" lon="-1.98528">
        <ele>3.3</ele>
        <time>2020-06-04T15:51:05Z</time>
      </trkpt>
      <trkpt lat="47.03729" lon="-1.98527">
        <ele>3.2</ele>
        <time>2020-06-04T15:51:06Z</time>
      </trkpt>
      <trkpt lat="47.03733" lon="-1.98527">
        <ele>3.1</ele>
        <time>2020-06-04T15:51:07Z</time>
      </trkpt>
      <trkpt lat="47.03737" lon="-1.98526">
        <ele>3.1</ele>
        <time>2020-06-04T15:51:08Z</time>
      </trkpt>
      <trkpt lat="47.03741" lon="-1.98525">
        <ele>3</ele>
        <time>2020-06-04T15:51:09Z</time>
      </trkpt>
      <trkpt lat="47.03746" lon="-1.98523">
        <ele>2.9</ele>
        <time>2020-06-04T15:51:10Z</time>
      </trkpt>
      <trkpt lat="47.0375" lon="-1.98522">
        <ele>2.9</ele>
        <time>2020-06-04T15:51:11Z</time>
      </trkpt>
      <trkpt lat="47.03755" lon="-1.98521">
        <ele>2.8</ele>
        <time>2020-06-04T15:51:12Z</time>
      </trkpt>
      <trkpt lat="47.0376" lon="-1.98521">
        <ele>2.8</ele>
        <time>2020-06-04T15:51:13Z</time>
      </trkpt>
      <trkpt lat="47.03764" lon="-1.98521">
        <ele>2.7</ele>
        <time>2020-06-04T15:51:14Z</time>
      </trkpt>
      <trkpt lat="47.03769" lon="-1.98521">
        <ele>2.7</ele>
        <time>2020-06-04T15:51:15Z</time>
      </trkpt>
      <trkpt lat="47.03773" lon="-1.9852">
        <ele>2.7</ele>
        <time>2020-06-04T15:51:16Z</time>
      </trkpt>
      <trkpt lat="47.03778" lon="-1.98518">
        <ele>2.6</ele>
        <time>2020-06-04T15:51:17Z</time>
      </trkpt>
      <trkpt lat="47.03782" lon="-1.98518">
        <ele>2.6</ele>
        <time>2020-06-04T15:51:18Z</time>
      </trkpt>
      <trkpt lat="47.03786" lon="-1.98517">
        <ele>2.6</ele>
        <time>2020-06-04T15:51:19Z</time>
      </trkpt>
      <trkpt lat="47.0379" lon="-1.98516">
        <ele>2.6</ele>
        <time>2020-06-04T15:51:20Z</time>
      </trkpt>
      <trkpt lat="47.03795" lon="-1.98516">
        <ele>2.6</ele>
        <time>2020-06-04T15:51:21Z</time>
      </trkpt>
      <trkpt lat="47.03799" lon="-1.98516">
        <ele>2.6</ele>
        <time>2020-06-04T15:51:22Z</time>
      </trkpt>
      <trkpt lat="47.03803" lon="-1.98515">
        <ele>2.6</ele>
        <time>2020-06-04T15:51:23Z</time>
      </trkpt>
      <trkpt lat="47.03807" lon="-1.98514">
        <ele>2.5</ele>
        <time>2020-06-04T15:51:24Z</time>
      </trkpt>
      <trkpt lat="47.03811" lon="-1.98513">
        <ele>2.5</ele>
        <time>2020-06-04T15:51:25Z</time>
      </trkpt>
      <trkpt lat="47.03814" lon="-1.98511">
        <ele>2.5</ele>
        <time>2020-06-04T15:51:26Z</time>
      </trkpt>
      <trkpt lat="47.03817" lon="-1.98511">
        <ele>2.4</ele>
        <time>2020-06-04T15:51:27Z</time>
      </trkpt>
      <trkpt lat="47.0382" lon="-1.9851">
        <ele>2.4</ele>
        <time>2020-06-04T15:51:28Z</time>
      </trkpt>
      <trkpt lat="47.03824" lon="-1.98509">
        <ele>2.4</ele>
        <time>2020-06-04T15:51:29Z</time>
      </trkpt>
      <trkpt lat="47.03828" lon="-1.9851">
        <ele>2.4</ele>
        <time>2020-06-04T15:51:30Z</time>
      </trkpt>
      <trkpt lat="47.03831" lon="-1.9851">
        <ele>2.4</ele>
        <time>2020-06-04T15:51:31Z</time>
      </trkpt>
      <trkpt lat="47.03836" lon="-1.98512">
        <ele>2.4</ele>
        <time>2020-06-04T15:51:32Z</time>
      </trkpt>
      <trkpt lat="47.03841" lon="-1.98515">
        <ele>2.5</ele>
        <time>2020-06-04T15:51:33Z</time>
      </trkpt>
      <trkpt lat="47.03846" lon="-1.98515">
        <ele>2.5</ele>
        <time>2020-06-04T15:51:34Z</time>
      </trkpt>
      <trkpt lat="47.0385" lon="-1.98516">
        <ele>2.5</ele>
        <time>2020-06-04T15:51:35Z</time>
      </trkpt>
      <trkpt lat="47.03854" lon="-1.98517">
        <ele>2.5</ele>
        <time>2020-06-04T15:51:36Z</time>
      </trkpt>
      <trkpt lat="47.03858" lon="-1.98519">
        <ele>2.5</ele>
        <time>2020-06-04T15:51:37Z</time>
      </trkpt>
      <trkpt lat="47.03862" lon="-1.98521">
        <ele>2.5</ele>
        <time>2020-06-04T15:51:38Z</time>
      </trkpt>
      <trkpt lat="47.03867" lon="-1.98525">
        <ele>2.5</ele>
        <time>2020-06-04T15:51:39Z</time>
      </trkpt>
      <trkpt lat="47.03871" lon="-1.98528">
        <ele>2.5</ele>
        <time>2020-06-04T15:51:40Z</time>
      </trkpt>
      <trkpt lat="47.03875" lon="-1.98531">
        <ele>2.5</ele>
        <time>2020-06-04T15:51:41Z</time>
      </trkpt>
      <trkpt lat="47.03879" lon="-1.98535">
        <ele>2.5</ele>
        <time>2020-06-04T15:51:42Z</time>
      </trkpt>
      <trkpt lat="47.03883" lon="-1.98539">
        <ele>2.5</ele>
        <time>2020-06-04T15:51:43Z</time>
      </trkpt>
      <trkpt lat="47.03886" lon="-1.98543">
        <ele>2.5</ele>
        <time>2020-06-04T15:51:44Z</time>
      </trkpt>
      <trkpt lat="47.0389" lon="-1.98547">
        <ele>2.5</ele>
        <time>2020-06-04T15:51:45Z</time>
      </trkpt>
      <trkpt lat="47.03893" lon="-1.98552">
        <ele>2.5</ele>
        <time>2020-06-04T15:51:46Z</time>
      </trkpt>
      <trkpt lat="47.03897" lon="-1.98556">
        <ele>2.5</ele>
        <time>2020-06-04T15:51:47Z</time>
      </trkpt>
      <trkpt lat="47.03902" lon="-1.98562">
        <ele>2.5</ele>
        <time>2020-06-04T15:51:48Z</time>
      </trkpt>
      <trkpt lat="47.03906" lon="-1.98566">
        <ele>2.5</ele>
        <time>2020-06-04T15:51:49Z</time>
      </trkpt>
      <trkpt lat="47.0391" lon="-1.9857">
        <ele>2.5</ele>
        <time>2020-06-04T15:51:50Z</time>
      </trkpt>
      <trkpt lat="47.03913" lon="-1.98575">
        <ele>2.4</ele>
        <time>2020-06-04T15:51:51Z</time>
      </trkpt>
      <trkpt lat="47.03918" lon="-1.98579">
        <ele>2.4</ele>
        <time>2020-06-04T15:51:52Z</time>
      </trkpt>
      <trkpt lat="47.03921" lon="-1.98585">
        <ele>2.4</ele>
        <time>2020-06-04T15:51:53Z</time>
      </trkpt>
      <trkpt lat="47.03926" lon="-1.98591">
        <ele>2.4</ele>
        <time>2020-06-04T15:51:54Z</time>
      </trkpt>
      <trkpt lat="47.0393" lon="-1.98595">
        <ele>2.4</ele>
        <time>2020-06-04T15:51:55Z</time>
      </trkpt>
      <trkpt lat="47.03934" lon="-1.98599">
        <ele>2.4</ele>
        <time>2020-06-04T15:51:56Z</time>
      </trkpt>
      <trkpt lat="47.03937" lon="-1.98604">
        <ele>2.4</ele>
        <time>2020-06-04T15:51:57Z</time>
      </trkpt>
      <trkpt lat="47.03941" lon="-1.98608">
        <ele>2.5</ele>
        <time>2020-06-04T15:51:58Z</time>
      </trkpt>
      <trkpt lat="47.03945" lon="-1.98614">
        <ele>2.5</ele>
        <time>2020-06-04T15:51:59Z</time>
      </trkpt>
      <trkpt lat="47.03949" lon="-1.9862">
        <ele>2.5</ele>
        <time>2020-06-04T15:52:00Z</time>
      </trkpt>
      <trkpt lat="47.03952" lon="-1.98626">
        <ele>2.5</ele>
        <time>2020-06-04T15:52:01Z</time>
      </trkpt>
      <trkpt lat="47.03955" lon="-1.9863">
        <ele>2.5</ele>
        <time>2020-06-04T15:52:02Z</time>
      </trkpt>
      <trkpt lat="47.03959" lon="-1.98637">
        <ele>2.6</ele>
        <time>2020-06-04T15:52:03Z</time>
      </trkpt>
      <trkpt lat="47.03962" lon="-1.98644">
        <ele>2.6</ele>
        <time>2020-06-04T15:52:04Z</time>
      </trkpt>
      <trkpt lat="47.03965" lon="-1.9865">
        <ele>2.6</ele>
        <time>2020-06-04T15:52:05Z</time>
      </trkpt>
      <trkpt lat="47.03969" lon="-1.98657">
        <ele>2.6</ele>
        <time>2020-06-04T15:52:06Z</time>
      </trkpt>
      <trkpt lat="47.03972" lon="-1.98663">
        <ele>2.7</ele>
        <time>2020-06-04T15:52:07Z</time>
      </trkpt>
      <trkpt lat="47.03976" lon="-1.98668">
        <ele>2.7</ele>
        <time>2020-06-04T15:52:08Z</time>
      </trkpt>
      <trkpt lat="47.03979" lon="-1.98674">
        <ele>2.7</ele>
        <time>2020-06-04T15:52:09Z</time>
      </trkpt>
      <trkpt lat="47.03983" lon="-1.9868">
        <ele>2.7</ele>
        <time>2020-06-04T15:52:10Z</time>
      </trkpt>
      <trkpt lat="47.03986" lon="-1.98686">
        <ele>2.7</ele>
        <time>2020-06-04T15:52:11Z</time>
      </trkpt>
      <trkpt lat="47.03989" lon="-1.98693">
        <ele>2.7</ele>
        <time>2020-06-04T15:52:12Z</time>
      </trkpt>
      <trkpt lat="47.03993" lon="-1.98699">
        <ele>2.7</ele>
        <time>2020-06-04T15:52:13Z</time>
      </trkpt>
      <trkpt lat="47.03997" lon="-1.98705">
        <ele>2.7</ele>
        <time>2020-06-04T15:52:14Z</time>
      </trkpt>
      <trkpt lat="47.04" lon="-1.98711">
        <ele>2.7</ele>
        <time>2020-06-04T15:52:15Z</time>
      </trkpt>
      <trkpt lat="47.04004" lon="-1.98719">
        <ele>2.7</ele>
        <time>2020-06-04T15:52:16Z</time>
      </trkpt>
      <trkpt lat="47.04007" lon="-1.98725">
        <ele>2.8</ele>
        <time>2020-06-04T15:52:17Z</time>
      </trkpt>
      <trkpt lat="47.04009" lon="-1.98732">
        <ele>2.9</ele>
        <time>2020-06-04T15:52:18Z</time>
      </trkpt>
      <trkpt lat="47.04014" lon="-1.98737">
        <ele>3</ele>
        <time>2020-06-04T15:52:19Z</time>
      </trkpt>
      <trkpt lat="47.04017" lon="-1.98744">
        <ele>3.1</ele>
        <time>2020-06-04T15:52:20Z</time>
      </trkpt>
      <trkpt lat="47.04021" lon="-1.9875">
        <ele>3.2</ele>
        <time>2020-06-04T15:52:21Z</time>
      </trkpt>
      <trkpt lat="47.04024" lon="-1.98756">
        <ele>3.3</ele>
        <time>2020-06-04T15:52:22Z</time>
      </trkpt>
      <trkpt lat="47.04028" lon="-1.98763">
        <ele>3.4</ele>
        <time>2020-06-04T15:52:23Z</time>
      </trkpt>
      <trkpt lat="47.04032" lon="-1.9877">
        <ele>3.5</ele>
        <time>2020-06-04T15:52:24Z</time>
      </trkpt>
      <trkpt lat="47.04036" lon="-1.98775">
        <ele>3.5</ele>
        <time>2020-06-04T15:52:25Z</time>
      </trkpt>
      <trkpt lat="47.04038" lon="-1.98781">
        <ele>3.6</ele>
        <time>2020-06-04T15:52:26Z</time>
      </trkpt>
      <trkpt lat="47.04042" lon="-1.98786">
        <ele>3.6</ele>
        <time>2020-06-04T15:52:27Z</time>
      </trkpt>
      <trkpt lat="47.04045" lon="-1.98793">
        <ele>3.6</ele>
        <time>2020-06-04T15:52:28Z</time>
      </trkpt>
      <trkpt lat="47.04049" lon="-1.988">
        <ele>3.6</ele>
        <time>2020-06-04T15:52:29Z</time>
      </trkpt>
      <trkpt lat="47.04054" lon="-1.98805">
        <ele>3.7</ele>
        <time>2020-06-04T15:52:30Z</time>
      </trkpt>
      <trkpt lat="47.04058" lon="-1.98811">
        <ele>3.7</ele>
        <time>2020-06-04T15:52:31Z</time>
      </trkpt>
      <trkpt lat="47.04062" lon="-1.98817">
        <ele>3.7</ele>
        <time>2020-06-04T15:52:32Z</time>
      </trkpt>
      <trkpt lat="47.04065" lon="-1.98821">
        <ele>3.7</ele>
        <time>2020-06-04T15:52:33Z</time>
      </trkpt>
      <trkpt lat="47.0407" lon="-1.98827">
        <ele>3.7</ele>
        <time>2020-06-04T15:52:34Z</time>
      </trkpt>
      <trkpt lat="47.04073" lon="-1.98833">
        <ele>3.7</ele>
        <time>2020-06-04T15:52:35Z</time>
      </trkpt>
      <trkpt lat="47.04078" lon="-1.98838">
        <ele>3.7</ele>
        <time>2020-06-04T15:52:36Z</time>
      </trkpt>
      <trkpt lat="47.04082" lon="-1.98843">
        <ele>3.7</ele>
        <time>2020-06-04T15:52:37Z</time>
      </trkpt>
      <trkpt lat="47.04087" lon="-1.98847">
        <ele>3.7</ele>
        <time>2020-06-04T15:52:38Z</time>
      </trkpt>
      <trkpt lat="47.04091" lon="-1.98851">
        <ele>3.7</ele>
        <time>2020-06-04T15:52:39Z</time>
      </trkpt>
      <trkpt lat="47.04096" lon="-1.98855">
        <ele>3.7</ele>
        <time>2020-06-04T15:52:40Z</time>
      </trkpt>
      <trkpt lat="47.04101" lon="-1.98858">
        <ele>3.7</ele>
        <time>2020-06-04T15:52:41Z</time>
      </trkpt>
      <trkpt lat="47.04106" lon="-1.98861">
        <ele>3.7</ele>
        <time>2020-06-04T15:52:42Z</time>
      </trkpt>
      <trkpt lat="47.0411" lon="-1.98865">
        <ele>3.7</ele>
        <time>2020-06-04T15:52:43Z</time>
      </trkpt>
      <trkpt lat="47.04115" lon="-1.98868">
        <ele>3.7</ele>
        <time>2020-06-04T15:52:44Z</time>
      </trkpt>
      <trkpt lat="47.0412" lon="-1.9887">
        <ele>3.7</ele>
        <time>2020-06-04T15:52:45Z</time>
      </trkpt>
      <trkpt lat="47.04125" lon="-1.98875">
        <ele>3.7</ele>
        <time>2020-06-04T15:52:46Z</time>
      </trkpt>
      <trkpt lat="47.04131" lon="-1.98878">
        <ele>3.7</ele>
        <time>2020-06-04T15:52:47Z</time>
      </trkpt>
      <trkpt lat="47.04135" lon="-1.98882">
        <ele>3.8</ele>
        <time>2020-06-04T15:52:48Z</time>
      </trkpt>
      <trkpt lat="47.0414" lon="-1.98886">
        <ele>3.8</ele>
        <time>2020-06-04T15:52:49Z</time>
      </trkpt>
      <trkpt lat="47.04145" lon="-1.9889">
        <ele>3.8</ele>
        <time>2020-06-04T15:52:50Z</time>
      </trkpt>
      <trkpt lat="47.04149" lon="-1.98893">
        <ele>3.8</ele>
        <time>2020-06-04T15:52:51Z</time>
      </trkpt>
      <trkpt lat="47.04153" lon="-1.98896">
        <ele>3.8</ele>
        <time>2020-06-04T15:52:52Z</time>
      </trkpt>
      <trkpt lat="47.04157" lon="-1.989">
        <ele>3.7</ele>
        <time>2020-06-04T15:52:53Z</time>
      </trkpt>
      <trkpt lat="47.04161" lon="-1.98903">
        <ele>3.7</ele>
        <time>2020-06-04T15:52:54Z</time>
      </trkpt>
      <trkpt lat="47.04166" lon="-1.98907">
        <ele>3.7</ele>
        <time>2020-06-04T15:52:55Z</time>
      </trkpt>
      <trkpt lat="47.0417" lon="-1.98911">
        <ele>3.7</ele>
        <time>2020-06-04T15:52:56Z</time>
      </trkpt>
      <trkpt lat="47.04175" lon="-1.98915">
        <ele>3.8</ele>
        <time>2020-06-04T15:52:57Z</time>
      </trkpt>
      <trkpt lat="47.04181" lon="-1.98918">
        <ele>3.8</ele>
        <time>2020-06-04T15:52:58Z</time>
      </trkpt>
      <trkpt lat="47.04187" lon="-1.98922">
        <ele>3.8</ele>
        <time>2020-06-04T15:52:59Z</time>
      </trkpt>
      <trkpt lat="47.0419" lon="-1.98926">
        <ele>3.8</ele>
        <time>2020-06-04T15:53:00Z</time>
      </trkpt>
      <trkpt lat="47.04195" lon="-1.9893">
        <ele>3.8</ele>
        <time>2020-06-04T15:53:01Z</time>
      </trkpt>
      <trkpt lat="47.04199" lon="-1.98934">
        <ele>3.8</ele>
        <time>2020-06-04T15:53:02Z</time>
      </trkpt>
      <trkpt lat="47.04204" lon="-1.98938">
        <ele>3.8</ele>
        <time>2020-06-04T15:53:03Z</time>
      </trkpt>
      <trkpt lat="47.04209" lon="-1.98943">
        <ele>3.8</ele>
        <time>2020-06-04T15:53:04Z</time>
      </trkpt>
      <trkpt lat="47.04213" lon="-1.98948">
        <ele>3.8</ele>
        <time>2020-06-04T15:53:05Z</time>
      </trkpt>
      <trkpt lat="47.04219" lon="-1.98952">
        <ele>3.8</ele>
        <time>2020-06-04T15:53:06Z</time>
      </trkpt>
      <trkpt lat="47.04224" lon="-1.98955">
        <ele>3.8</ele>
        <time>2020-06-04T15:53:07Z</time>
      </trkpt>
      <trkpt lat="47.04228" lon="-1.9896">
        <ele>3.8</ele>
        <time>2020-06-04T15:53:08Z</time>
      </trkpt>
      <trkpt lat="47.04233" lon="-1.98964">
        <ele>3.8</ele>
        <time>2020-06-04T15:53:09Z</time>
      </trkpt>
      <trkpt lat="47.04238" lon="-1.98969">
        <ele>3.9</ele>
        <time>2020-06-04T15:53:10Z</time>
      </trkpt>
      <trkpt lat="47.04243" lon="-1.98973">
        <ele>3.9</ele>
        <time>2020-06-04T15:53:11Z</time>
      </trkpt>
      <trkpt lat="47.04249" lon="-1.98975">
        <ele>3.9</ele>
        <time>2020-06-04T15:53:12Z</time>
      </trkpt>
      <trkpt lat="47.04254" lon="-1.98979">
        <ele>3.9</ele>
        <time>2020-06-04T15:53:13Z</time>
      </trkpt>
      <trkpt lat="47.04259" lon="-1.98983">
        <ele>3.9</ele>
        <time>2020-06-04T15:53:14Z</time>
      </trkpt>
      <trkpt lat="47.04264" lon="-1.98986">
        <ele>3.9</ele>
        <time>2020-06-04T15:53:15Z</time>
      </trkpt>
      <trkpt lat="47.04269" lon="-1.9899">
        <ele>3.9</ele>
        <time>2020-06-04T15:53:16Z</time>
      </trkpt>
      <trkpt lat="47.04273" lon="-1.98994">
        <ele>3.9</ele>
        <time>2020-06-04T15:53:17Z</time>
      </trkpt>
      <trkpt lat="47.04278" lon="-1.98999">
        <ele>3.9</ele>
        <time>2020-06-04T15:53:18Z</time>
      </trkpt>
      <trkpt lat="47.04283" lon="-1.99003">
        <ele>3.9</ele>
        <time>2020-06-04T15:53:19Z</time>
      </trkpt>
      <trkpt lat="47.04287" lon="-1.99007">
        <ele>3.9</ele>
        <time>2020-06-04T15:53:20Z</time>
      </trkpt>
      <trkpt lat="47.04293" lon="-1.99011">
        <ele>4</ele>
        <time>2020-06-04T15:53:21Z</time>
      </trkpt>
      <trkpt lat="47.04298" lon="-1.99016">
        <ele>4</ele>
        <time>2020-06-04T15:53:22Z</time>
      </trkpt>
      <trkpt lat="47.04303" lon="-1.99021">
        <ele>4</ele>
        <time>2020-06-04T15:53:23Z</time>
      </trkpt>
      <trkpt lat="47.04308" lon="-1.99026">
        <ele>4.1</ele>
        <time>2020-06-04T15:53:24Z</time>
      </trkpt>
      <trkpt lat="47.04314" lon="-1.99029">
        <ele>4.1</ele>
        <time>2020-06-04T15:53:25Z</time>
      </trkpt>
      <trkpt lat="47.04319" lon="-1.99036">
        <ele>4.1</ele>
        <time>2020-06-04T15:53:26Z</time>
      </trkpt>
      <trkpt lat="47.04324" lon="-1.99041">
        <ele>4.1</ele>
        <time>2020-06-04T15:53:27Z</time>
      </trkpt>
      <trkpt lat="47.0433" lon="-1.99045">
        <ele>4.1</ele>
        <time>2020-06-04T15:53:28Z</time>
      </trkpt>
      <trkpt lat="47.04336" lon="-1.99047">
        <ele>4.1</ele>
        <time>2020-06-04T15:53:29Z</time>
      </trkpt>
      <trkpt lat="47.04342" lon="-1.9905">
        <ele>4.2</ele>
        <time>2020-06-04T15:53:30Z</time>
      </trkpt>
      <trkpt lat="47.04348" lon="-1.99053">
        <ele>4.2</ele>
        <time>2020-06-04T15:53:31Z</time>
      </trkpt>
      <trkpt lat="47.04353" lon="-1.99056">
        <ele>4.2</ele>
        <time>2020-06-04T15:53:32Z</time>
      </trkpt>
      <trkpt lat="47.04358" lon="-1.99058">
        <ele>4.2</ele>
        <time>2020-06-04T15:53:33Z</time>
      </trkpt>
      <trkpt lat="47.04364" lon="-1.99059">
        <ele>4.2</ele>
        <time>2020-06-04T15:53:34Z</time>
      </trkpt>
      <trkpt lat="47.0437" lon="-1.9906">
        <ele>4.3</ele>
        <time>2020-06-04T15:53:35Z</time>
      </trkpt>
      <trkpt lat="47.04376" lon="-1.9906">
        <ele>4.3</ele>
        <time>2020-06-04T15:53:36Z</time>
      </trkpt>
      <trkpt lat="47.04381" lon="-1.99061">
        <ele>4.3</ele>
        <time>2020-06-04T15:53:37Z</time>
      </trkpt>
      <trkpt lat="47.04386" lon="-1.99061">
        <ele>4.3</ele>
        <time>2020-06-04T15:53:38Z</time>
      </trkpt>
      <trkpt lat="47.04392" lon="-1.99061">
        <ele>4.3</ele>
        <time>2020-06-04T15:53:39Z</time>
      </trkpt>
      <trkpt lat="47.04397" lon="-1.99062">
        <ele>4.4</ele>
        <time>2020-06-04T15:53:40Z</time>
      </trkpt>
      <trkpt lat="47.04403" lon="-1.99064">
        <ele>4.4</ele>
        <time>2020-06-04T15:53:41Z</time>
      </trkpt>
      <trkpt lat="47.04408" lon="-1.99066">
        <ele>4.3</ele>
        <time>2020-06-04T15:53:42Z</time>
      </trkpt>
      <trkpt lat="47.04413" lon="-1.99068">
        <ele>4.3</ele>
        <time>2020-06-04T15:53:43Z</time>
      </trkpt>
      <trkpt lat="47.04418" lon="-1.99072">
        <ele>4.3</ele>
        <time>2020-06-04T15:53:44Z</time>
      </trkpt>
      <trkpt lat="47.04423" lon="-1.99075">
        <ele>4.3</ele>
        <time>2020-06-04T15:53:45Z</time>
      </trkpt>
      <trkpt lat="47.04428" lon="-1.9908">
        <ele>4.3</ele>
        <time>2020-06-04T15:53:46Z</time>
      </trkpt>
      <trkpt lat="47.04434" lon="-1.99084">
        <ele>4.3</ele>
        <time>2020-06-04T15:53:47Z</time>
      </trkpt>
      <trkpt lat="47.04439" lon="-1.99089">
        <ele>4.3</ele>
        <time>2020-06-04T15:53:48Z</time>
      </trkpt>
      <trkpt lat="47.04444" lon="-1.99093">
        <ele>4.3</ele>
        <time>2020-06-04T15:53:49Z</time>
      </trkpt>
      <trkpt lat="47.0445" lon="-1.99097">
        <ele>4.2</ele>
        <time>2020-06-04T15:53:50Z</time>
      </trkpt>
      <trkpt lat="47.04456" lon="-1.991">
        <ele>4.2</ele>
        <time>2020-06-04T15:53:51Z</time>
      </trkpt>
      <trkpt lat="47.04461" lon="-1.99104">
        <ele>4.2</ele>
        <time>2020-06-04T15:53:52Z</time>
      </trkpt>
      <trkpt lat="47.04467" lon="-1.99108">
        <ele>4.1</ele>
        <time>2020-06-04T15:53:53Z</time>
      </trkpt>
      <trkpt lat="47.04473" lon="-1.99112">
        <ele>4.1</ele>
        <time>2020-06-04T15:53:54Z</time>
      </trkpt>
      <trkpt lat="47.04479" lon="-1.99116">
        <ele>4.1</ele>
        <time>2020-06-04T15:53:55Z</time>
      </trkpt>
      <trkpt lat="47.04484" lon="-1.99118">
        <ele>4.2</ele>
        <time>2020-06-04T15:53:56Z</time>
      </trkpt>
      <trkpt lat="47.0449" lon="-1.9912">
        <ele>4.2</ele>
        <time>2020-06-04T15:53:57Z</time>
      </trkpt>
      <trkpt lat="47.04497" lon="-1.99121">
        <ele>4.2</ele>
        <time>2020-06-04T15:53:58Z</time>
      </trkpt>
      <trkpt lat="47.04503" lon="-1.99123">
        <ele>4.2</ele>
        <time>2020-06-04T15:53:59Z</time>
      </trkpt>
      <trkpt lat="47.04509" lon="-1.99124">
        <ele>4.1</ele>
        <time>2020-06-04T15:54:00Z</time>
      </trkpt>
      <trkpt lat="47.04515" lon="-1.99124">
        <ele>4.1</ele>
        <time>2020-06-04T15:54:01Z</time>
      </trkpt>
      <trkpt lat="47.04521" lon="-1.99125">
        <ele>4.1</ele>
        <time>2020-06-04T15:54:02Z</time>
      </trkpt>
      <trkpt lat="47.04528" lon="-1.99127">
        <ele>4.1</ele>
        <time>2020-06-04T15:54:03Z</time>
      </trkpt>
      <trkpt lat="47.04535" lon="-1.99128">
        <ele>4</ele>
        <time>2020-06-04T15:54:04Z</time>
      </trkpt>
      <trkpt lat="47.04541" lon="-1.99129">
        <ele>4</ele>
        <time>2020-06-04T15:54:05Z</time>
      </trkpt>
      <trkpt lat="47.04547" lon="-1.99131">
        <ele>3.9</ele>
        <time>2020-06-04T15:54:06Z</time>
      </trkpt>
      <trkpt lat="47.04553" lon="-1.99133">
        <ele>3.8</ele>
        <time>2020-06-04T15:54:07Z</time>
      </trkpt>
      <trkpt lat="47.04559" lon="-1.99135">
        <ele>3.6</ele>
        <time>2020-06-04T15:54:08Z</time>
      </trkpt>
      <trkpt lat="47.04565" lon="-1.99135">
        <ele>3.6</ele>
        <time>2020-06-04T15:54:09Z</time>
      </trkpt>
      <trkpt lat="47.04571" lon="-1.99136">
        <ele>3.5</ele>
        <time>2020-06-04T15:54:10Z</time>
      </trkpt>
      <trkpt lat="47.04577" lon="-1.99137">
        <ele>3.4</ele>
        <time>2020-06-04T15:54:11Z</time>
      </trkpt>
      <trkpt lat="47.04583" lon="-1.99139">
        <ele>3.4</ele>
        <time>2020-06-04T15:54:12Z</time>
      </trkpt>
      <trkpt lat="47.0459" lon="-1.99141">
        <ele>3.3</ele>
        <time>2020-06-04T15:54:13Z</time>
      </trkpt>
      <trkpt lat="47.04597" lon="-1.99142">
        <ele>3.2</ele>
        <time>2020-06-04T15:54:14Z</time>
      </trkpt>
      <trkpt lat="47.04603" lon="-1.99144">
        <ele>3.1</ele>
        <time>2020-06-04T15:54:15Z</time>
      </trkpt>
      <trkpt lat="47.04608" lon="-1.99145">
        <ele>3</ele>
        <time>2020-06-04T15:54:16Z</time>
      </trkpt>
      <trkpt lat="47.04614" lon="-1.99147">
        <ele>2.9</ele>
        <time>2020-06-04T15:54:17Z</time>
      </trkpt>
      <trkpt lat="47.0462" lon="-1.99148">
        <ele>2.8</ele>
        <time>2020-06-04T15:54:18Z</time>
      </trkpt>
      <trkpt lat="47.04626" lon="-1.99149">
        <ele>2.7</ele>
        <time>2020-06-04T15:54:19Z</time>
      </trkpt>
      <trkpt lat="47.04632" lon="-1.99149">
        <ele>2.5</ele>
        <time>2020-06-04T15:54:20Z</time>
      </trkpt>
      <trkpt lat="47.04638" lon="-1.99147">
        <ele>2.4</ele>
        <time>2020-06-04T15:54:21Z</time>
      </trkpt>
      <trkpt lat="47.04645" lon="-1.99146">
        <ele>2.3</ele>
        <time>2020-06-04T15:54:22Z</time>
      </trkpt>
      <trkpt lat="47.04652" lon="-1.99145">
        <ele>2.3</ele>
        <time>2020-06-04T15:54:23Z</time>
      </trkpt>
      <trkpt lat="47.04657" lon="-1.99143">
        <ele>2.3</ele>
        <time>2020-06-04T15:54:24Z</time>
      </trkpt>
      <trkpt lat="47.04663" lon="-1.99142">
        <ele>2.2</ele>
        <time>2020-06-04T15:54:25Z</time>
      </trkpt>
      <trkpt lat="47.04669" lon="-1.99141">
        <ele>2.2</ele>
        <time>2020-06-04T15:54:26Z</time>
      </trkpt>
      <trkpt lat="47.04675" lon="-1.99139">
        <ele>2.2</ele>
        <time>2020-06-04T15:54:27Z</time>
      </trkpt>
      <trkpt lat="47.04683" lon="-1.99136">
        <ele>2.2</ele>
        <time>2020-06-04T15:54:28Z</time>
      </trkpt>
      <trkpt lat="47.04689" lon="-1.99134">
        <ele>2.2</ele>
        <time>2020-06-04T15:54:29Z</time>
      </trkpt>
      <trkpt lat="47.04694" lon="-1.99133">
        <ele>2.2</ele>
        <time>2020-06-04T15:54:30Z</time>
      </trkpt>
      <trkpt lat="47.04699" lon="-1.99132">
        <ele>2.2</ele>
        <time>2020-06-04T15:54:31Z</time>
      </trkpt>
      <trkpt lat="47.04706" lon="-1.9913">
        <ele>2.2</ele>
        <time>2020-06-04T15:54:32Z</time>
      </trkpt>
      <trkpt lat="47.04711" lon="-1.99129">
        <ele>2.2</ele>
        <time>2020-06-04T15:54:33Z</time>
      </trkpt>
      <trkpt lat="47.04717" lon="-1.99129">
        <ele>2.2</ele>
        <time>2020-06-04T15:54:34Z</time>
      </trkpt>
      <trkpt lat="47.0472" lon="-1.9913">
        <ele>2.2</ele>
        <time>2020-06-04T15:54:35Z</time>
      </trkpt>
      <trkpt lat="47.04726" lon="-1.9913">
        <ele>2.2</ele>
        <time>2020-06-04T15:54:36Z</time>
      </trkpt>
      <trkpt lat="47.04731" lon="-1.99129">
        <ele>2.2</ele>
        <time>2020-06-04T15:54:37Z</time>
      </trkpt>
      <trkpt lat="47.04737" lon="-1.99129">
        <ele>2.2</ele>
        <time>2020-06-04T15:54:38Z</time>
      </trkpt>
      <trkpt lat="47.04744" lon="-1.99129">
        <ele>2.2</ele>
        <time>2020-06-04T15:54:39Z</time>
      </trkpt>
      <trkpt lat="47.0475" lon="-1.9913">
        <ele>2.2</ele>
        <time>2020-06-04T15:54:40Z</time>
      </trkpt>
      <trkpt lat="47.04756" lon="-1.9913">
        <ele>2.2</ele>
        <time>2020-06-04T15:54:41Z</time>
      </trkpt>
      <trkpt lat="47.04761" lon="-1.99129">
        <ele>2.2</ele>
        <time>2020-06-04T15:54:42Z</time>
      </trkpt>
      <trkpt lat="47.04768" lon="-1.99129">
        <ele>2.2</ele>
        <time>2020-06-04T15:54:43Z</time>
      </trkpt>
      <trkpt lat="47.04775" lon="-1.99128">
        <ele>2.2</ele>
        <time>2020-06-04T15:54:44Z</time>
      </trkpt>
      <trkpt lat="47.0478" lon="-1.99128">
        <ele>2.2</ele>
        <time>2020-06-04T15:54:45Z</time>
      </trkpt>
      <trkpt lat="47.04786" lon="-1.99127">
        <ele>2.2</ele>
        <time>2020-06-04T15:54:46Z</time>
      </trkpt>
      <trkpt lat="47.04793" lon="-1.99125">
        <ele>2.2</ele>
        <time>2020-06-04T15:54:47Z</time>
      </trkpt>
      <trkpt lat="47.04799" lon="-1.99123">
        <ele>2.2</ele>
        <time>2020-06-04T15:54:48Z</time>
      </trkpt>
      <trkpt lat="47.04803" lon="-1.99122">
        <ele>2.2</ele>
        <time>2020-06-04T15:54:49Z</time>
      </trkpt>
      <trkpt lat="47.04808" lon="-1.9912">
        <ele>2.2</ele>
        <time>2020-06-04T15:54:50Z</time>
      </trkpt>
      <trkpt lat="47.04812" lon="-1.99118">
        <ele>2.2</ele>
        <time>2020-06-04T15:54:51Z</time>
      </trkpt>
      <trkpt lat="47.04818" lon="-1.99117">
        <ele>2.2</ele>
        <time>2020-06-04T15:54:52Z</time>
      </trkpt>
      <trkpt lat="47.04824" lon="-1.99114">
        <ele>2.2</ele>
        <time>2020-06-04T15:54:53Z</time>
      </trkpt>
      <trkpt lat="47.0483" lon="-1.99111">
        <ele>2.2</ele>
        <time>2020-06-04T15:54:54Z</time>
      </trkpt>
      <trkpt lat="47.04836" lon="-1.99109">
        <ele>2.2</ele>
        <time>2020-06-04T15:54:55Z</time>
      </trkpt>
      <trkpt lat="47.04841" lon="-1.99107">
        <ele>2.2</ele>
        <time>2020-06-04T15:54:56Z</time>
      </trkpt>
      <trkpt lat="47.04846" lon="-1.99105">
        <ele>2.2</ele>
        <time>2020-06-04T15:54:57Z</time>
      </trkpt>
      <trkpt lat="47.04851" lon="-1.99103">
        <ele>2.2</ele>
        <time>2020-06-04T15:54:58Z</time>
      </trkpt>
      <trkpt lat="47.04857" lon="-1.99099">
        <ele>2.2</ele>
        <time>2020-06-04T15:54:59Z</time>
      </trkpt>
      <trkpt lat="47.04861" lon="-1.99095">
        <ele>2.2</ele>
        <time>2020-06-04T15:55:00Z</time>
      </trkpt>
      <trkpt lat="47.04865" lon="-1.9909">
        <ele>2.2</ele>
        <time>2020-06-04T15:55:01Z</time>
      </trkpt>
      <trkpt lat="47.04871" lon="-1.99086">
        <ele>2.2</ele>
        <time>2020-06-04T15:55:02Z</time>
      </trkpt>
      <trkpt lat="47.04876" lon="-1.99082">
        <ele>2.2</ele>
        <time>2020-06-04T15:55:03Z</time>
      </trkpt>
      <trkpt lat="47.04881" lon="-1.99079">
        <ele>2.2</ele>
        <time>2020-06-04T15:55:04Z</time>
      </trkpt>
      <trkpt lat="47.04886" lon="-1.99075">
        <ele>2.2</ele>
        <time>2020-06-04T15:55:05Z</time>
      </trkpt>
      <trkpt lat="47.0489" lon="-1.99071">
        <ele>2.2</ele>
        <time>2020-06-04T15:55:06Z</time>
      </trkpt>
      <trkpt lat="47.04895" lon="-1.99067">
        <ele>2.2</ele>
        <time>2020-06-04T15:55:07Z</time>
      </trkpt>
      <trkpt lat="47.04899" lon="-1.99064">
        <ele>2.2</ele>
        <time>2020-06-04T15:55:08Z</time>
      </trkpt>
      <trkpt lat="47.04903" lon="-1.99061">
        <ele>2.2</ele>
        <time>2020-06-04T15:55:09Z</time>
      </trkpt>
      <trkpt lat="47.04909" lon="-1.99058">
        <ele>2.2</ele>
        <time>2020-06-04T15:55:10Z</time>
      </trkpt>
      <trkpt lat="47.04915" lon="-1.99055">
        <ele>2.2</ele>
        <time>2020-06-04T15:55:11Z</time>
      </trkpt>
      <trkpt lat="47.0492" lon="-1.99052">
        <ele>2.2</ele>
        <time>2020-06-04T15:55:12Z</time>
      </trkpt>
      <trkpt lat="47.04925" lon="-1.99051">
        <ele>2.2</ele>
        <time>2020-06-04T15:55:13Z</time>
      </trkpt>
      <trkpt lat="47.0493" lon="-1.99049">
        <ele>2.3</ele>
        <time>2020-06-04T15:55:14Z</time>
      </trkpt>
      <trkpt lat="47.04934" lon="-1.99048">
        <ele>2.3</ele>
        <time>2020-06-04T15:55:15Z</time>
      </trkpt>
      <trkpt lat="47.0494" lon="-1.99049">
        <ele>2.3</ele>
        <time>2020-06-04T15:55:16Z</time>
      </trkpt>
      <trkpt lat="47.04945" lon="-1.9905">
        <ele>2.3</ele>
        <time>2020-06-04T15:55:17Z</time>
      </trkpt>
      <trkpt lat="47.0495" lon="-1.99052">
        <ele>2.3</ele>
        <time>2020-06-04T15:55:18Z</time>
      </trkpt>
      <trkpt lat="47.04954" lon="-1.99051">
        <ele>2.3</ele>
        <time>2020-06-04T15:55:19Z</time>
      </trkpt>
      <trkpt lat="47.04959" lon="-1.99051">
        <ele>2.3</ele>
        <time>2020-06-04T15:55:20Z</time>
      </trkpt>
      <trkpt lat="47.04964" lon="-1.99052">
        <ele>2.4</ele>
        <time>2020-06-04T15:55:21Z</time>
      </trkpt>
      <trkpt lat="47.04969" lon="-1.99053">
        <ele>2.4</ele>
        <time>2020-06-04T15:55:22Z</time>
      </trkpt>
      <trkpt lat="47.04974" lon="-1.99053">
        <ele>2.4</ele>
        <time>2020-06-04T15:55:23Z</time>
      </trkpt>
      <trkpt lat="47.04981" lon="-1.99053">
        <ele>2.4</ele>
        <time>2020-06-04T15:55:24Z</time>
      </trkpt>
      <trkpt lat="47.04986" lon="-1.99053">
        <ele>2.4</ele>
        <time>2020-06-04T15:55:25Z</time>
      </trkpt>
      <trkpt lat="47.04992" lon="-1.99052">
        <ele>2.4</ele>
        <time>2020-06-04T15:55:26Z</time>
      </trkpt>
      <trkpt lat="47.04998" lon="-1.99051">
        <ele>2.4</ele>
        <time>2020-06-04T15:55:27Z</time>
      </trkpt>
      <trkpt lat="47.05003" lon="-1.9905">
        <ele>2.4</ele>
        <time>2020-06-04T15:55:28Z</time>
      </trkpt>
      <trkpt lat="47.05009" lon="-1.99049">
        <ele>2.4</ele>
        <time>2020-06-04T15:55:29Z</time>
      </trkpt>
      <trkpt lat="47.05015" lon="-1.99047">
        <ele>2.4</ele>
        <time>2020-06-04T15:55:30Z</time>
      </trkpt>
      <trkpt lat="47.0502" lon="-1.99046">
        <ele>2.4</ele>
        <time>2020-06-04T15:55:31Z</time>
      </trkpt>
      <trkpt lat="47.05025" lon="-1.99045">
        <ele>2.4</ele>
        <time>2020-06-04T15:55:32Z</time>
      </trkpt>
      <trkpt lat="47.05031" lon="-1.99044">
        <ele>2.4</ele>
        <time>2020-06-04T15:55:33Z</time>
      </trkpt>
      <trkpt lat="47.05036" lon="-1.99044">
        <ele>2.4</ele>
        <time>2020-06-04T15:55:34Z</time>
      </trkpt>
      <trkpt lat="47.05041" lon="-1.99043">
        <ele>2.4</ele>
        <time>2020-06-04T15:55:35Z</time>
      </trkpt>
      <trkpt lat="47.05047" lon="-1.99043">
        <ele>2.4</ele>
        <time>2020-06-04T15:55:36Z</time>
      </trkpt>
      <trkpt lat="47.05051" lon="-1.99043">
        <ele>2.4</ele>
        <time>2020-06-04T15:55:37Z</time>
      </trkpt>
      <trkpt lat="47.05055" lon="-1.99043">
        <ele>2.4</ele>
        <time>2020-06-04T15:55:38Z</time>
      </trkpt>
      <trkpt lat="47.0506" lon="-1.99044">
        <ele>2.4</ele>
        <time>2020-06-04T15:55:39Z</time>
      </trkpt>
      <trkpt lat="47.05065" lon="-1.99046">
        <ele>2.4</ele>
        <time>2020-06-04T15:55:40Z</time>
      </trkpt>
      <trkpt lat="47.05069" lon="-1.99048">
        <ele>2.4</ele>
        <time>2020-06-04T15:55:41Z</time>
      </trkpt>
      <trkpt lat="47.05074" lon="-1.99049">
        <ele>2.4</ele>
        <time>2020-06-04T15:55:42Z</time>
      </trkpt>
      <trkpt lat="47.05079" lon="-1.99049">
        <ele>2.4</ele>
        <time>2020-06-04T15:55:43Z</time>
      </trkpt>
      <trkpt lat="47.05084" lon="-1.99047">
        <ele>2.4</ele>
        <time>2020-06-04T15:55:44Z</time>
      </trkpt>
      <trkpt lat="47.05089" lon="-1.99041">
        <ele>2.4</ele>
        <time>2020-06-04T15:55:45Z</time>
      </trkpt>
      <trkpt lat="47.05094" lon="-1.99036">
        <ele>2.4</ele>
        <time>2020-06-04T15:55:46Z</time>
      </trkpt>
      <trkpt lat="47.05098" lon="-1.99031">
        <ele>2.4</ele>
        <time>2020-06-04T15:55:47Z</time>
      </trkpt>
      <trkpt lat="47.05103" lon="-1.99025">
        <ele>2.4</ele>
        <time>2020-06-04T15:55:48Z</time>
      </trkpt>
      <trkpt lat="47.05107" lon="-1.99019">
        <ele>2.4</ele>
        <time>2020-06-04T15:55:49Z</time>
      </trkpt>
      <trkpt lat="47.05112" lon="-1.99016">
        <ele>2.4</ele>
        <time>2020-06-04T15:55:50Z</time>
      </trkpt>
      <trkpt lat="47.05117" lon="-1.99011">
        <ele>2.4</ele>
        <time>2020-06-04T15:55:51Z</time>
      </trkpt>
      <trkpt lat="47.05123" lon="-1.99009">
        <ele>2.4</ele>
        <time>2020-06-04T15:55:52Z</time>
      </trkpt>
      <trkpt lat="47.05128" lon="-1.99009">
        <ele>2.4</ele>
        <time>2020-06-04T15:55:53Z</time>
      </trkpt>
      <trkpt lat="47.05134" lon="-1.9901">
        <ele>2.4</ele>
        <time>2020-06-04T15:55:54Z</time>
      </trkpt>
      <trkpt lat="47.0514" lon="-1.99012">
        <ele>2.3</ele>
        <time>2020-06-04T15:55:55Z</time>
      </trkpt>
      <trkpt lat="47.05146" lon="-1.99013">
        <ele>2.3</ele>
        <time>2020-06-04T15:55:56Z</time>
      </trkpt>
      <trkpt lat="47.05152" lon="-1.99013">
        <ele>2.3</ele>
        <time>2020-06-04T15:55:57Z</time>
      </trkpt>
      <trkpt lat="47.05157" lon="-1.99013">
        <ele>2.3</ele>
        <time>2020-06-04T15:55:58Z</time>
      </trkpt>
      <trkpt lat="47.05163" lon="-1.99011">
        <ele>2.3</ele>
        <time>2020-06-04T15:55:59Z</time>
      </trkpt>
      <trkpt lat="47.05168" lon="-1.99008">
        <ele>2.3</ele>
        <time>2020-06-04T15:56:00Z</time>
      </trkpt>
      <trkpt lat="47.05173" lon="-1.99002">
        <ele>2.3</ele>
        <time>2020-06-04T15:56:01Z</time>
      </trkpt>
      <trkpt lat="47.05178" lon="-1.98996">
        <ele>2.3</ele>
        <time>2020-06-04T15:56:02Z</time>
      </trkpt>
      <trkpt lat="47.05183" lon="-1.9899">
        <ele>2.3</ele>
        <time>2020-06-04T15:56:03Z</time>
      </trkpt>
      <trkpt lat="47.05187" lon="-1.98985">
        <ele>2.3</ele>
        <time>2020-06-04T15:56:04Z</time>
      </trkpt>
      <trkpt lat="47.05192" lon="-1.98978">
        <ele>2.3</ele>
        <time>2020-06-04T15:56:05Z</time>
      </trkpt>
      <trkpt lat="47.05197" lon="-1.98974">
        <ele>2.3</ele>
        <time>2020-06-04T15:56:06Z</time>
      </trkpt>
      <trkpt lat="47.05202" lon="-1.9897">
        <ele>2.3</ele>
        <time>2020-06-04T15:56:07Z</time>
      </trkpt>
      <trkpt lat="47.05206" lon="-1.98967">
        <ele>2.3</ele>
        <time>2020-06-04T15:56:08Z</time>
      </trkpt>
      <trkpt lat="47.0521" lon="-1.98966">
        <ele>2.3</ele>
        <time>2020-06-04T15:56:09Z</time>
      </trkpt>
      <trkpt lat="47.05214" lon="-1.98964">
        <ele>2.3</ele>
        <time>2020-06-04T15:56:10Z</time>
      </trkpt>
      <trkpt lat="47.05218" lon="-1.98963">
        <ele>2.3</ele>
        <time>2020-06-04T15:56:11Z</time>
      </trkpt>
      <trkpt lat="47.05224" lon="-1.98961">
        <ele>2.3</ele>
        <time>2020-06-04T15:56:12Z</time>
      </trkpt>
      <trkpt lat="47.05228" lon="-1.9896">
        <ele>2.3</ele>
        <time>2020-06-04T15:56:13Z</time>
      </trkpt>
      <trkpt lat="47.05231" lon="-1.9896">
        <ele>2.3</ele>
        <time>2020-06-04T15:56:14Z</time>
      </trkpt>
      <trkpt lat="47.05236" lon="-1.9896">
        <ele>2.3</ele>
        <time>2020-06-04T15:56:15Z</time>
      </trkpt>
      <trkpt lat="47.05242" lon="-1.98958">
        <ele>2.3</ele>
        <time>2020-06-04T15:56:16Z</time>
      </trkpt>
      <trkpt lat="47.05248" lon="-1.98957">
        <ele>2.4</ele>
        <time>2020-06-04T15:56:17Z</time>
      </trkpt>
      <trkpt lat="47.05252" lon="-1.98955">
        <ele>2.4</ele>
        <time>2020-06-04T15:56:18Z</time>
      </trkpt>
      <trkpt lat="47.05257" lon="-1.98953">
        <ele>2.4</ele>
        <time>2020-06-04T15:56:19Z</time>
      </trkpt>
      <trkpt lat="47.05262" lon="-1.98951">
        <ele>2.4</ele>
        <time>2020-06-04T15:56:20Z</time>
      </trkpt>
      <trkpt lat="47.05265" lon="-1.98946">
        <ele>2.4</ele>
        <time>2020-06-04T15:56:21Z</time>
      </trkpt>
      <trkpt lat="47.05269" lon="-1.98943">
        <ele>2.4</ele>
        <time>2020-06-04T15:56:22Z</time>
      </trkpt>
      <trkpt lat="47.05273" lon="-1.9894">
        <ele>2.5</ele>
        <time>2020-06-04T15:56:23Z</time>
      </trkpt>
      <trkpt lat="47.05277" lon="-1.98937">
        <ele>2.5</ele>
        <time>2020-06-04T15:56:24Z</time>
      </trkpt>
      <trkpt lat="47.05282" lon="-1.98934">
        <ele>2.5</ele>
        <time>2020-06-04T15:56:25Z</time>
      </trkpt>
      <trkpt lat="47.05287" lon="-1.9893">
        <ele>2.5</ele>
        <time>2020-06-04T15:56:26Z</time>
      </trkpt>
      <trkpt lat="47.05292" lon="-1.98927">
        <ele>2.5</ele>
        <time>2020-06-04T15:56:27Z</time>
      </trkpt>
      <trkpt lat="47.05296" lon="-1.98924">
        <ele>2.5</ele>
        <time>2020-06-04T15:56:28Z</time>
      </trkpt>
      <trkpt lat="47.053" lon="-1.98922">
        <ele>2.5</ele>
        <time>2020-06-04T15:56:29Z</time>
      </trkpt>
      <trkpt lat="47.05304" lon="-1.9892">
        <ele>2.5</ele>
        <time>2020-06-04T15:56:30Z</time>
      </trkpt>
      <trkpt lat="47.05309" lon="-1.98919">
        <ele>2.5</ele>
        <time>2020-06-04T15:56:31Z</time>
      </trkpt>
      <trkpt lat="47.05316" lon="-1.98915">
        <ele>2.5</ele>
        <time>2020-06-04T15:56:32Z</time>
      </trkpt>
      <trkpt lat="47.05321" lon="-1.98913">
        <ele>2.5</ele>
        <time>2020-06-04T15:56:33Z</time>
      </trkpt>
      <trkpt lat="47.05326" lon="-1.98911">
        <ele>2.5</ele>
        <time>2020-06-04T15:56:34Z</time>
      </trkpt>
      <trkpt lat="47.05332" lon="-1.98909">
        <ele>2.5</ele>
        <time>2020-06-04T15:56:35Z</time>
      </trkpt>
      <trkpt lat="47.05338" lon="-1.98906">
        <ele>2.5</ele>
        <time>2020-06-04T15:56:36Z</time>
      </trkpt>
      <trkpt lat="47.05343" lon="-1.98904">
        <ele>2.5</ele>
        <time>2020-06-04T15:56:37Z</time>
      </trkpt>
      <trkpt lat="47.05347" lon="-1.98903">
        <ele>2.5</ele>
        <time>2020-06-04T15:56:38Z</time>
      </trkpt>
      <trkpt lat="47.05352" lon="-1.989">
        <ele>2.5</ele>
        <time>2020-06-04T15:56:39Z</time>
      </trkpt>
      <trkpt lat="47.05358" lon="-1.98897">
        <ele>2.5</ele>
        <time>2020-06-04T15:56:40Z</time>
      </trkpt>
      <trkpt lat="47.05363" lon="-1.98894">
        <ele>2.5</ele>
        <time>2020-06-04T15:56:41Z</time>
      </trkpt>
      <trkpt lat="47.05368" lon="-1.98891">
        <ele>2.5</ele>
        <time>2020-06-04T15:56:42Z</time>
      </trkpt>
      <trkpt lat="47.05373" lon="-1.98888">
        <ele>2.5</ele>
        <time>2020-06-04T15:56:43Z</time>
      </trkpt>
      <trkpt lat="47.05377" lon="-1.98886">
        <ele>2.5</ele>
        <time>2020-06-04T15:56:44Z</time>
      </trkpt>
      <trkpt lat="47.05384" lon="-1.98882">
        <ele>2.5</ele>
        <time>2020-06-04T15:56:45Z</time>
      </trkpt>
      <trkpt lat="47.05389" lon="-1.98879">
        <ele>2.5</ele>
        <time>2020-06-04T15:56:46Z</time>
      </trkpt>
      <trkpt lat="47.05392" lon="-1.98878">
        <ele>2.5</ele>
        <time>2020-06-04T15:56:47Z</time>
      </trkpt>
      <trkpt lat="47.05398" lon="-1.98875">
        <ele>2.5</ele>
        <time>2020-06-04T15:56:48Z</time>
      </trkpt>
      <trkpt lat="47.05402" lon="-1.98873">
        <ele>2.5</ele>
        <time>2020-06-04T15:56:49Z</time>
      </trkpt>
      <trkpt lat="47.05407" lon="-1.98872">
        <ele>2.5</ele>
        <time>2020-06-04T15:56:50Z</time>
      </trkpt>
      <trkpt lat="47.05413" lon="-1.9887">
        <ele>2.6</ele>
        <time>2020-06-04T15:56:51Z</time>
      </trkpt>
      <trkpt lat="47.05418" lon="-1.98868">
        <ele>2.6</ele>
        <time>2020-06-04T15:56:52Z</time>
      </trkpt>
      <trkpt lat="47.05425" lon="-1.98869">
        <ele>2.6</ele>
        <time>2020-06-04T15:56:53Z</time>
      </trkpt>
      <trkpt lat="47.05431" lon="-1.98872">
        <ele>2.6</ele>
        <time>2020-06-04T15:56:54Z</time>
      </trkpt>
      <trkpt lat="47.05436" lon="-1.98874">
        <ele>2.6</ele>
        <time>2020-06-04T15:56:55Z</time>
      </trkpt>
      <trkpt lat="47.05441" lon="-1.98878">
        <ele>2.6</ele>
        <time>2020-06-04T15:56:56Z</time>
      </trkpt>
      <trkpt lat="47.05445" lon="-1.98882">
        <ele>2.6</ele>
        <time>2020-06-04T15:56:57Z</time>
      </trkpt>
      <trkpt lat="47.05449" lon="-1.98886">
        <ele>2.6</ele>
        <time>2020-06-04T15:56:58Z</time>
      </trkpt>
      <trkpt lat="47.05454" lon="-1.9889">
        <ele>2.7</ele>
        <time>2020-06-04T15:56:59Z</time>
      </trkpt>
      <trkpt lat="47.05459" lon="-1.98893">
        <ele>2.7</ele>
        <time>2020-06-04T15:57:00Z</time>
      </trkpt>
      <trkpt lat="47.05464" lon="-1.98896">
        <ele>2.8</ele>
        <time>2020-06-04T15:57:01Z</time>
      </trkpt>
      <trkpt lat="47.05467" lon="-1.98899">
        <ele>2.9</ele>
        <time>2020-06-04T15:57:02Z</time>
      </trkpt>
      <trkpt lat="47.05473" lon="-1.989">
        <ele>2.9</ele>
        <time>2020-06-04T15:57:03Z</time>
      </trkpt>
      <trkpt lat="47.05479" lon="-1.98901">
        <ele>3</ele>
        <time>2020-06-04T15:57:04Z</time>
      </trkpt>
      <trkpt lat="47.05485" lon="-1.98902">
        <ele>3.1</ele>
        <time>2020-06-04T15:57:05Z</time>
      </trkpt>
      <trkpt lat="47.05489" lon="-1.98902">
        <ele>3.1</ele>
        <time>2020-06-04T15:57:06Z</time>
      </trkpt>
      <trkpt lat="47.05494" lon="-1.98903">
        <ele>3.2</ele>
        <time>2020-06-04T15:57:07Z</time>
      </trkpt>
      <trkpt lat="47.05498" lon="-1.98903">
        <ele>3.2</ele>
        <time>2020-06-04T15:57:08Z</time>
      </trkpt>
      <trkpt lat="47.05504" lon="-1.98902">
        <ele>3.3</ele>
        <time>2020-06-04T15:57:09Z</time>
      </trkpt>
      <trkpt lat="47.05509" lon="-1.98902">
        <ele>3.3</ele>
        <time>2020-06-04T15:57:10Z</time>
      </trkpt>
      <trkpt lat="47.05513" lon="-1.98902">
        <ele>3.3</ele>
        <time>2020-06-04T15:57:11Z</time>
      </trkpt>
      <trkpt lat="47.05518" lon="-1.98903">
        <ele>3.4</ele>
        <time>2020-06-04T15:57:12Z</time>
      </trkpt>
      <trkpt lat="47.05522" lon="-1.98904">
        <ele>3.4</ele>
        <time>2020-06-04T15:57:13Z</time>
      </trkpt>
      <trkpt lat="47.05527" lon="-1.98904">
        <ele>3.4</ele>
        <time>2020-06-04T15:57:14Z</time>
      </trkpt>
      <trkpt lat="47.05531" lon="-1.98903">
        <ele>3.5</ele>
        <time>2020-06-04T15:57:15Z</time>
      </trkpt>
      <trkpt lat="47.05535" lon="-1.98903">
        <ele>3.5</ele>
        <time>2020-06-04T15:57:16Z</time>
      </trkpt>
      <trkpt lat="47.05539" lon="-1.98904">
        <ele>3.5</ele>
        <time>2020-06-04T15:57:17Z</time>
      </trkpt>
      <trkpt lat="47.05542" lon="-1.98904">
        <ele>3.5</ele>
        <time>2020-06-04T15:57:18Z</time>
      </trkpt>
      <trkpt lat="47.05543" lon="-1.98904">
        <ele>3.5</ele>
        <time>2020-06-04T15:57:19Z</time>
      </trkpt>
      <trkpt lat="47.05546" lon="-1.98903">
        <ele>3.5</ele>
        <time>2020-06-04T15:57:20Z</time>
      </trkpt>
      <trkpt lat="47.0555" lon="-1.98904">
        <ele>3.5</ele>
        <time>2020-06-04T15:57:21Z</time>
      </trkpt>
      <trkpt lat="47.05552" lon="-1.98905">
        <ele>3.5</ele>
        <time>2020-06-04T15:57:22Z</time>
      </trkpt>
      <trkpt lat="47.05555" lon="-1.98905">
        <ele>3.5</ele>
        <time>2020-06-04T15:57:23Z</time>
      </trkpt>
      <trkpt lat="47.05558" lon="-1.98905">
        <ele>3.6</ele>
        <time>2020-06-04T15:57:24Z</time>
      </trkpt>
      <trkpt lat="47.05561" lon="-1.98906">
        <ele>3.6</ele>
        <time>2020-06-04T15:57:25Z</time>
      </trkpt>
      <trkpt lat="47.05565" lon="-1.98906">
        <ele>3.6</ele>
        <time>2020-06-04T15:57:26Z</time>
      </trkpt>
      <trkpt lat="47.0557" lon="-1.98905">
        <ele>3.6</ele>
        <time>2020-06-04T15:57:27Z</time>
      </trkpt>
      <trkpt lat="47.05574" lon="-1.98905">
        <ele>3.7</ele>
        <time>2020-06-04T15:57:28Z</time>
      </trkpt>
      <trkpt lat="47.05579" lon="-1.98904">
        <ele>3.7</ele>
        <time>2020-06-04T15:57:29Z</time>
      </trkpt>
      <trkpt lat="47.05582" lon="-1.98904">
        <ele>3.7</ele>
        <time>2020-06-04T15:57:30Z</time>
      </trkpt>
      <trkpt lat="47.05587" lon="-1.98904">
        <ele>3.7</ele>
        <time>2020-06-04T15:57:31Z</time>
      </trkpt>
      <trkpt lat="47.05591" lon="-1.98903">
        <ele>3.7</ele>
        <time>2020-06-04T15:57:32Z</time>
      </trkpt>
      <trkpt lat="47.05595" lon="-1.98903">
        <ele>3.7</ele>
        <time>2020-06-04T15:57:33Z</time>
      </trkpt>
      <trkpt lat="47.05598" lon="-1.98903">
        <ele>3.7</ele>
        <time>2020-06-04T15:57:34Z</time>
      </trkpt>
      <trkpt lat="47.05604" lon="-1.98901">
        <ele>3.7</ele>
        <time>2020-06-04T15:57:35Z</time>
      </trkpt>
      <trkpt lat="47.05608" lon="-1.98901">
        <ele>3.7</ele>
        <time>2020-06-04T15:57:36Z</time>
      </trkpt>
      <trkpt lat="47.05611" lon="-1.98902">
        <ele>3.7</ele>
        <time>2020-06-04T15:57:37Z</time>
      </trkpt>
      <trkpt lat="47.05615" lon="-1.98902">
        <ele>3.7</ele>
        <time>2020-06-04T15:57:38Z</time>
      </trkpt>
      <trkpt lat="47.0562" lon="-1.98902">
        <ele>3.7</ele>
        <time>2020-06-04T15:57:39Z</time>
      </trkpt>
      <trkpt lat="47.05625" lon="-1.98902">
        <ele>3.7</ele>
        <time>2020-06-04T15:57:40Z</time>
      </trkpt>
      <trkpt lat="47.05631" lon="-1.98902">
        <ele>3.6</ele>
        <time>2020-06-04T15:57:41Z</time>
      </trkpt>
      <trkpt lat="47.05636" lon="-1.98901">
        <ele>3.6</ele>
        <time>2020-06-04T15:57:42Z</time>
      </trkpt>
      <trkpt lat="47.0564" lon="-1.98901">
        <ele>3.6</ele>
        <time>2020-06-04T15:57:43Z</time>
      </trkpt>
      <trkpt lat="47.05645" lon="-1.98901">
        <ele>3.6</ele>
        <time>2020-06-04T15:57:44Z</time>
      </trkpt>
      <trkpt lat="47.05649" lon="-1.98901">
        <ele>3.6</ele>
        <time>2020-06-04T15:57:45Z</time>
      </trkpt>
      <trkpt lat="47.05653" lon="-1.98902">
        <ele>3.6</ele>
        <time>2020-06-04T15:57:46Z</time>
      </trkpt>
      <trkpt lat="47.05657" lon="-1.98903">
        <ele>3.6</ele>
        <time>2020-06-04T15:57:47Z</time>
      </trkpt>
      <trkpt lat="47.05662" lon="-1.98903">
        <ele>3.6</ele>
        <time>2020-06-04T15:57:48Z</time>
      </trkpt>
      <trkpt lat="47.05667" lon="-1.98904">
        <ele>3.5</ele>
        <time>2020-06-04T15:57:49Z</time>
      </trkpt>
      <trkpt lat="47.05672" lon="-1.98904">
        <ele>3.5</ele>
        <time>2020-06-04T15:57:50Z</time>
      </trkpt>
      <trkpt lat="47.05678" lon="-1.98904">
        <ele>3.5</ele>
        <time>2020-06-04T15:57:51Z</time>
      </trkpt>
      <trkpt lat="47.05682" lon="-1.98904">
        <ele>3.5</ele>
        <time>2020-06-04T15:57:52Z</time>
      </trkpt>
      <trkpt lat="47.05687" lon="-1.98904">
        <ele>3.5</ele>
        <time>2020-06-04T15:57:53Z</time>
      </trkpt>
      <trkpt lat="47.05692" lon="-1.98904">
        <ele>3.5</ele>
        <time>2020-06-04T15:57:54Z</time>
      </trkpt>
      <trkpt lat="47.05697" lon="-1.98904">
        <ele>3.5</ele>
        <time>2020-06-04T15:57:55Z</time>
      </trkpt>
      <trkpt lat="47.05701" lon="-1.98904">
        <ele>3.5</ele>
        <time>2020-06-04T15:57:56Z</time>
      </trkpt>
      <trkpt lat="47.05706" lon="-1.98904">
        <ele>3.5</ele>
        <time>2020-06-04T15:57:57Z</time>
      </trkpt>
      <trkpt lat="47.05711" lon="-1.98904">
        <ele>3.5</ele>
        <time>2020-06-04T15:57:58Z</time>
      </trkpt>
      <trkpt lat="47.05716" lon="-1.98905">
        <ele>3.5</ele>
        <time>2020-06-04T15:57:59Z</time>
      </trkpt>
      <trkpt lat="47.05721" lon="-1.98906">
        <ele>3.5</ele>
        <time>2020-06-04T15:58:00Z</time>
      </trkpt>
      <trkpt lat="47.05726" lon="-1.98906">
        <ele>3.4</ele>
        <time>2020-06-04T15:58:01Z</time>
      </trkpt>
      <trkpt lat="47.05732" lon="-1.98908">
        <ele>3.4</ele>
        <time>2020-06-04T15:58:02Z</time>
      </trkpt>
      <trkpt lat="47.05735" lon="-1.98908">
        <ele>3.4</ele>
        <time>2020-06-04T15:58:03Z</time>
      </trkpt>
      <trkpt lat="47.05739" lon="-1.98907">
        <ele>3.4</ele>
        <time>2020-06-04T15:58:04Z</time>
      </trkpt>
      <trkpt lat="47.05745" lon="-1.98906">
        <ele>3.4</ele>
        <time>2020-06-04T15:58:05Z</time>
      </trkpt>
      <trkpt lat="47.0575" lon="-1.98906">
        <ele>3.4</ele>
        <time>2020-06-04T15:58:06Z</time>
      </trkpt>
      <trkpt lat="47.05754" lon="-1.98905">
        <ele>3.4</ele>
        <time>2020-06-04T15:58:07Z</time>
      </trkpt>
      <trkpt lat="47.05758" lon="-1.98904">
        <ele>3.4</ele>
        <time>2020-06-04T15:58:08Z</time>
      </trkpt>
      <trkpt lat="47.05762" lon="-1.98904">
        <ele>3.4</ele>
        <time>2020-06-04T15:58:09Z</time>
      </trkpt>
      <trkpt lat="47.05767" lon="-1.98904">
        <ele>3.3</ele>
        <time>2020-06-04T15:58:10Z</time>
      </trkpt>
      <trkpt lat="47.05772" lon="-1.98904">
        <ele>3.3</ele>
        <time>2020-06-04T15:58:11Z</time>
      </trkpt>
      <trkpt lat="47.05776" lon="-1.98904">
        <ele>3.3</ele>
        <time>2020-06-04T15:58:12Z</time>
      </trkpt>
      <trkpt lat="47.05781" lon="-1.98904">
        <ele>3.3</ele>
        <time>2020-06-04T15:58:13Z</time>
      </trkpt>
      <trkpt lat="47.05785" lon="-1.98905">
        <ele>3.3</ele>
        <time>2020-06-04T15:58:14Z</time>
      </trkpt>
      <trkpt lat="47.05788" lon="-1.98906">
        <ele>3.3</ele>
        <time>2020-06-04T15:58:15Z</time>
      </trkpt>
      <trkpt lat="47.05795" lon="-1.98905">
        <ele>3.3</ele>
        <time>2020-06-04T15:58:16Z</time>
      </trkpt>
      <trkpt lat="47.05801" lon="-1.98906">
        <ele>3.3</ele>
        <time>2020-06-04T15:58:17Z</time>
      </trkpt>
      <trkpt lat="47.05806" lon="-1.98906">
        <ele>3.3</ele>
        <time>2020-06-04T15:58:18Z</time>
      </trkpt>
      <trkpt lat="47.05811" lon="-1.98906">
        <ele>3.2</ele>
        <time>2020-06-04T15:58:19Z</time>
      </trkpt>
      <trkpt lat="47.05815" lon="-1.98905">
        <ele>3.2</ele>
        <time>2020-06-04T15:58:20Z</time>
      </trkpt>
      <trkpt lat="47.05819" lon="-1.98905">
        <ele>3.2</ele>
        <time>2020-06-04T15:58:21Z</time>
      </trkpt>
      <trkpt lat="47.05824" lon="-1.98905">
        <ele>3.2</ele>
        <time>2020-06-04T15:58:22Z</time>
      </trkpt>
      <trkpt lat="47.05829" lon="-1.98904">
        <ele>3.2</ele>
        <time>2020-06-04T15:58:23Z</time>
      </trkpt>
      <trkpt lat="47.05835" lon="-1.98902">
        <ele>3.2</ele>
        <time>2020-06-04T15:58:24Z</time>
      </trkpt>
      <trkpt lat="47.05841" lon="-1.989">
        <ele>3.2</ele>
        <time>2020-06-04T15:58:25Z</time>
      </trkpt>
      <trkpt lat="47.05845" lon="-1.98898">
        <ele>3.2</ele>
        <time>2020-06-04T15:58:26Z</time>
      </trkpt>
      <trkpt lat="47.05851" lon="-1.98895">
        <ele>3.1</ele>
        <time>2020-06-04T15:58:27Z</time>
      </trkpt>
      <trkpt lat="47.05855" lon="-1.98893">
        <ele>3.1</ele>
        <time>2020-06-04T15:58:28Z</time>
      </trkpt>
      <trkpt lat="47.05861" lon="-1.98891">
        <ele>3.1</ele>
        <time>2020-06-04T15:58:29Z</time>
      </trkpt>
      <trkpt lat="47.05865" lon="-1.98888">
        <ele>3.1</ele>
        <time>2020-06-04T15:58:30Z</time>
      </trkpt>
      <trkpt lat="47.0587" lon="-1.98884">
        <ele>3.1</ele>
        <time>2020-06-04T15:58:31Z</time>
      </trkpt>
      <trkpt lat="47.05874" lon="-1.98881">
        <ele>3.1</ele>
        <time>2020-06-04T15:58:32Z</time>
      </trkpt>
      <trkpt lat="47.05878" lon="-1.9888">
        <ele>3.1</ele>
        <time>2020-06-04T15:58:33Z</time>
      </trkpt>
      <trkpt lat="47.05882" lon="-1.98878">
        <ele>3</ele>
        <time>2020-06-04T15:58:34Z</time>
      </trkpt>
      <trkpt lat="47.05886" lon="-1.98876">
        <ele>3</ele>
        <time>2020-06-04T15:58:35Z</time>
      </trkpt>
      <trkpt lat="47.05891" lon="-1.98873">
        <ele>3</ele>
        <time>2020-06-04T15:58:36Z</time>
      </trkpt>
      <trkpt lat="47.05896" lon="-1.9887">
        <ele>3</ele>
        <time>2020-06-04T15:58:37Z</time>
      </trkpt>
      <trkpt lat="47.05899" lon="-1.98868">
        <ele>3</ele>
        <time>2020-06-04T15:58:38Z</time>
      </trkpt>
      <trkpt lat="47.05902" lon="-1.98865">
        <ele>2.9</ele>
        <time>2020-06-04T15:58:39Z</time>
      </trkpt>
      <trkpt lat="47.05905" lon="-1.98862">
        <ele>2.9</ele>
        <time>2020-06-04T15:58:40Z</time>
      </trkpt>
      <trkpt lat="47.05908" lon="-1.98859">
        <ele>2.9</ele>
        <time>2020-06-04T15:58:41Z</time>
      </trkpt>
      <trkpt lat="47.05912" lon="-1.98857">
        <ele>2.9</ele>
        <time>2020-06-04T15:58:42Z</time>
      </trkpt>
      <trkpt lat="47.05916" lon="-1.98855">
        <ele>2.9</ele>
        <time>2020-06-04T15:58:43Z</time>
      </trkpt>
      <trkpt lat="47.0592" lon="-1.98851">
        <ele>2.9</ele>
        <time>2020-06-04T15:58:44Z</time>
      </trkpt>
      <trkpt lat="47.05924" lon="-1.98845">
        <ele>2.9</ele>
        <time>2020-06-04T15:58:45Z</time>
      </trkpt>
      <trkpt lat="47.05928" lon="-1.98839">
        <ele>2.9</ele>
        <time>2020-06-04T15:58:46Z</time>
      </trkpt>
      <trkpt lat="47.05932" lon="-1.9883">
        <ele>2.9</ele>
        <time>2020-06-04T15:58:47Z</time>
      </trkpt>
      <trkpt lat="47.05934" lon="-1.98826">
        <ele>2.9</ele>
        <time>2020-06-04T15:58:48Z</time>
      </trkpt>
      <trkpt lat="47.05935" lon="-1.98819">
        <ele>2.9</ele>
        <time>2020-06-04T15:58:49Z</time>
      </trkpt>
      <trkpt lat="47.05937" lon="-1.98811">
        <ele>2.9</ele>
        <time>2020-06-04T15:58:50Z</time>
      </trkpt>
      <trkpt lat="47.05938" lon="-1.98804">
        <ele>2.9</ele>
        <time>2020-06-04T15:58:51Z</time>
      </trkpt>
      <trkpt lat="47.05939" lon="-1.98797">
        <ele>2.9</ele>
        <time>2020-06-04T15:58:52Z</time>
      </trkpt>
      <trkpt lat="47.0594" lon="-1.9879">
        <ele>2.9</ele>
        <time>2020-06-04T15:58:53Z</time>
      </trkpt>
      <trkpt lat="47.0594" lon="-1.98782">
        <ele>2.9</ele>
        <time>2020-06-04T15:58:54Z</time>
      </trkpt>
      <trkpt lat="47.05941" lon="-1.98775">
        <ele>3</ele>
        <time>2020-06-04T15:58:55Z</time>
      </trkpt>
      <trkpt lat="47.05942" lon="-1.9877">
        <ele>3</ele>
        <time>2020-06-04T15:58:56Z</time>
      </trkpt>
      <trkpt lat="47.05943" lon="-1.98765">
        <ele>3</ele>
        <time>2020-06-04T15:58:57Z</time>
      </trkpt>
      <trkpt lat="47.05946" lon="-1.98757">
        <ele>3</ele>
        <time>2020-06-04T15:58:58Z</time>
      </trkpt>
      <trkpt lat="47.05948" lon="-1.98752">
        <ele>3</ele>
        <time>2020-06-04T15:58:59Z</time>
      </trkpt>
      <trkpt lat="47.05952" lon="-1.98748">
        <ele>3</ele>
        <time>2020-06-04T15:59:00Z</time>
      </trkpt>
      <trkpt lat="47.05956" lon="-1.98744">
        <ele>3.1</ele>
        <time>2020-06-04T15:59:01Z</time>
      </trkpt>
      <trkpt lat="47.0596" lon="-1.98741">
        <ele>3.1</ele>
        <time>2020-06-04T15:59:02Z</time>
      </trkpt>
      <trkpt lat="47.05964" lon="-1.98738">
        <ele>3.1</ele>
        <time>2020-06-04T15:59:03Z</time>
      </trkpt>
      <trkpt lat="47.05968" lon="-1.98734">
        <ele>3.1</ele>
        <time>2020-06-04T15:59:04Z</time>
      </trkpt>
      <trkpt lat="47.05972" lon="-1.98732">
        <ele>3.2</ele>
        <time>2020-06-04T15:59:05Z</time>
      </trkpt>
      <trkpt lat="47.05977" lon="-1.98728">
        <ele>3.2</ele>
        <time>2020-06-04T15:59:06Z</time>
      </trkpt>
      <trkpt lat="47.05982" lon="-1.98725">
        <ele>3.2</ele>
        <time>2020-06-04T15:59:07Z</time>
      </trkpt>
      <trkpt lat="47.05985" lon="-1.98723">
        <ele>3.3</ele>
        <time>2020-06-04T15:59:08Z</time>
      </trkpt>
      <trkpt lat="47.05989" lon="-1.98722">
        <ele>3.3</ele>
        <time>2020-06-04T15:59:09Z</time>
      </trkpt>
      <trkpt lat="47.05992" lon="-1.98723">
        <ele>3.3</ele>
        <time>2020-06-04T15:59:10Z</time>
      </trkpt>
      <trkpt lat="47.05996" lon="-1.98728">
        <ele>3.3</ele>
        <time>2020-06-04T15:59:11Z</time>
      </trkpt>
      <trkpt lat="47.05998" lon="-1.98734">
        <ele>3.3</ele>
        <time>2020-06-04T15:59:12Z</time>
      </trkpt>
      <trkpt lat="47.06" lon="-1.98739">
        <ele>3.3</ele>
        <time>2020-06-04T15:59:13Z</time>
      </trkpt>
      <trkpt lat="47.06002" lon="-1.98744">
        <ele>3.2</ele>
        <time>2020-06-04T15:59:14Z</time>
      </trkpt>
      <trkpt lat="47.06005" lon="-1.9875">
        <ele>3.2</ele>
        <time>2020-06-04T15:59:15Z</time>
      </trkpt>
      <trkpt lat="47.06008" lon="-1.98755">
        <ele>3.2</ele>
        <time>2020-06-04T15:59:16Z</time>
      </trkpt>
      <trkpt lat="47.0601" lon="-1.98761">
        <ele>3.2</ele>
        <time>2020-06-04T15:59:17Z</time>
      </trkpt>
      <trkpt lat="47.06013" lon="-1.98767">
        <ele>3.2</ele>
        <time>2020-06-04T15:59:18Z</time>
      </trkpt>
      <trkpt lat="47.06015" lon="-1.98773">
        <ele>3.2</ele>
        <time>2020-06-04T15:59:19Z</time>
      </trkpt>
      <trkpt lat="47.06018" lon="-1.98778">
        <ele>3.2</ele>
        <time>2020-06-04T15:59:20Z</time>
      </trkpt>
      <trkpt lat="47.0602" lon="-1.98783">
        <ele>3.2</ele>
        <time>2020-06-04T15:59:21Z</time>
      </trkpt>
      <trkpt lat="47.06023" lon="-1.98787">
        <ele>3.2</ele>
        <time>2020-06-04T15:59:22Z</time>
      </trkpt>
      <trkpt lat="47.06025" lon="-1.98791">
        <ele>3.2</ele>
        <time>2020-06-04T15:59:23Z</time>
      </trkpt>
      <trkpt lat="47.06027" lon="-1.98796">
        <ele>3.2</ele>
        <time>2020-06-04T15:59:24Z</time>
      </trkpt>
      <trkpt lat="47.06029" lon="-1.988">
        <ele>3.2</ele>
        <time>2020-06-04T15:59:25Z</time>
      </trkpt>
      <trkpt lat="47.06031" lon="-1.98805">
        <ele>3.2</ele>
        <time>2020-06-04T15:59:26Z</time>
      </trkpt>
      <trkpt lat="47.06033" lon="-1.9881">
        <ele>3.2</ele>
        <time>2020-06-04T15:59:27Z</time>
      </trkpt>
      <trkpt lat="47.06035" lon="-1.98814">
        <ele>3.2</ele>
        <time>2020-06-04T15:59:28Z</time>
      </trkpt>
      <trkpt lat="47.06036" lon="-1.98819">
        <ele>3.2</ele>
        <time>2020-06-04T15:59:29Z</time>
      </trkpt>
      <trkpt lat="47.06038" lon="-1.98824">
        <ele>3.2</ele>
        <time>2020-06-04T15:59:30Z</time>
      </trkpt>
      <trkpt lat="47.0604" lon="-1.98829">
        <ele>3.2</ele>
        <time>2020-06-04T15:59:31Z</time>
      </trkpt>
      <trkpt lat="47.06042" lon="-1.98834">
        <ele>3.1</ele>
        <time>2020-06-04T15:59:32Z</time>
      </trkpt>
      <trkpt lat="47.06044" lon="-1.98839">
        <ele>3.1</ele>
        <time>2020-06-04T15:59:33Z</time>
      </trkpt>
      <trkpt lat="47.06046" lon="-1.98844">
        <ele>3.1</ele>
        <time>2020-06-04T15:59:34Z</time>
      </trkpt>
      <trkpt lat="47.06048" lon="-1.98851">
        <ele>3.1</ele>
        <time>2020-06-04T15:59:35Z</time>
      </trkpt>
      <trkpt lat="47.0605" lon="-1.98856">
        <ele>3.1</ele>
        <time>2020-06-04T15:59:36Z</time>
      </trkpt>
      <trkpt lat="47.06052" lon="-1.98862">
        <ele>3.1</ele>
        <time>2020-06-04T15:59:37Z</time>
      </trkpt>
      <trkpt lat="47.06054" lon="-1.98868">
        <ele>3.1</ele>
        <time>2020-06-04T15:59:38Z</time>
      </trkpt>
      <trkpt lat="47.06057" lon="-1.98874">
        <ele>3.1</ele>
        <time>2020-06-04T15:59:39Z</time>
      </trkpt>
      <trkpt lat="47.06059" lon="-1.98881">
        <ele>3.1</ele>
        <time>2020-06-04T15:59:40Z</time>
      </trkpt>
      <trkpt lat="47.06061" lon="-1.98887">
        <ele>3.1</ele>
        <time>2020-06-04T15:59:41Z</time>
      </trkpt>
      <trkpt lat="47.06063" lon="-1.98893">
        <ele>3.1</ele>
        <time>2020-06-04T15:59:42Z</time>
      </trkpt>
      <trkpt lat="47.06065" lon="-1.989">
        <ele>3</ele>
        <time>2020-06-04T15:59:43Z</time>
      </trkpt>
      <trkpt lat="47.06067" lon="-1.98906">
        <ele>3</ele>
        <time>2020-06-04T15:59:44Z</time>
      </trkpt>
      <trkpt lat="47.06069" lon="-1.98912">
        <ele>3</ele>
        <time>2020-06-04T15:59:45Z</time>
      </trkpt>
      <trkpt lat="47.06072" lon="-1.98918">
        <ele>3</ele>
        <time>2020-06-04T15:59:46Z</time>
      </trkpt>
      <trkpt lat="47.06073" lon="-1.98924">
        <ele>3</ele>
        <time>2020-06-04T15:59:47Z</time>
      </trkpt>
      <trkpt lat="47.06075" lon="-1.98932">
        <ele>3</ele>
        <time>2020-06-04T15:59:48Z</time>
      </trkpt>
      <trkpt lat="47.06077" lon="-1.98937">
        <ele>2.9</ele>
        <time>2020-06-04T15:59:49Z</time>
      </trkpt>
      <trkpt lat="47.06079" lon="-1.98943">
        <ele>2.9</ele>
        <time>2020-06-04T15:59:50Z</time>
      </trkpt>
      <trkpt lat="47.06081" lon="-1.9895">
        <ele>2.9</ele>
        <time>2020-06-04T15:59:51Z</time>
      </trkpt>
      <trkpt lat="47.06083" lon="-1.98957">
        <ele>2.8</ele>
        <time>2020-06-04T15:59:52Z</time>
      </trkpt>
      <trkpt lat="47.06084" lon="-1.98964">
        <ele>2.8</ele>
        <time>2020-06-04T15:59:53Z</time>
      </trkpt>
      <trkpt lat="47.06086" lon="-1.98972">
        <ele>2.8</ele>
        <time>2020-06-04T15:59:54Z</time>
      </trkpt>
      <trkpt lat="47.06087" lon="-1.98979">
        <ele>2.8</ele>
        <time>2020-06-04T15:59:55Z</time>
      </trkpt>
      <trkpt lat="47.06089" lon="-1.98987">
        <ele>2.8</ele>
        <time>2020-06-04T15:59:56Z</time>
      </trkpt>
      <trkpt lat="47.06091" lon="-1.98994">
        <ele>2.8</ele>
        <time>2020-06-04T15:59:57Z</time>
      </trkpt>
      <trkpt lat="47.06093" lon="-1.99001">
        <ele>2.8</ele>
        <time>2020-06-04T15:59:58Z</time>
      </trkpt>
      <trkpt lat="47.06095" lon="-1.99009">
        <ele>2.7</ele>
        <time>2020-06-04T15:59:59Z</time>
      </trkpt>
      <trkpt lat="47.06096" lon="-1.99016">
        <ele>2.7</ele>
        <time>2020-06-04T16:00:00Z</time>
      </trkpt>
      <trkpt lat="47.06098" lon="-1.99023">
        <ele>2.7</ele>
        <time>2020-06-04T16:00:01Z</time>
      </trkpt>
      <trkpt lat="47.06099" lon="-1.99031">
        <ele>2.7</ele>
        <time>2020-06-04T16:00:02Z</time>
      </trkpt>
      <trkpt lat="47.06101" lon="-1.99038">
        <ele>2.7</ele>
        <time>2020-06-04T16:00:03Z</time>
      </trkpt>
      <trkpt lat="47.06103" lon="-1.99046">
        <ele>2.7</ele>
        <time>2020-06-04T16:00:04Z</time>
      </trkpt>
      <trkpt lat="47.06104" lon="-1.99053">
        <ele>2.6</ele>
        <time>2020-06-04T16:00:05Z</time>
      </trkpt>
      <trkpt lat="47.06106" lon="-1.99061">
        <ele>2.6</ele>
        <time>2020-06-04T16:00:06Z</time>
      </trkpt>
      <trkpt lat="47.06108" lon="-1.99069">
        <ele>2.6</ele>
        <time>2020-06-04T16:00:07Z</time>
      </trkpt>
      <trkpt lat="47.06109" lon="-1.99076">
        <ele>2.6</ele>
        <time>2020-06-04T16:00:08Z</time>
      </trkpt>
      <trkpt lat="47.06111" lon="-1.99083">
        <ele>2.6</ele>
        <time>2020-06-04T16:00:09Z</time>
      </trkpt>
      <trkpt lat="47.06113" lon="-1.99091">
        <ele>2.6</ele>
        <time>2020-06-04T16:00:10Z</time>
      </trkpt>
      <trkpt lat="47.06115" lon="-1.99098">
        <ele>2.6</ele>
        <time>2020-06-04T16:00:11Z</time>
      </trkpt>
      <trkpt lat="47.06117" lon="-1.99106">
        <ele>2.6</ele>
        <time>2020-06-04T16:00:12Z</time>
      </trkpt>
      <trkpt lat="47.06119" lon="-1.99113">
        <ele>2.6</ele>
        <time>2020-06-04T16:00:13Z</time>
      </trkpt>
      <trkpt lat="47.0612" lon="-1.9912">
        <ele>2.6</ele>
        <time>2020-06-04T16:00:14Z</time>
      </trkpt>
      <trkpt lat="47.06122" lon="-1.99127">
        <ele>2.6</ele>
        <time>2020-06-04T16:00:15Z</time>
      </trkpt>
      <trkpt lat="47.06124" lon="-1.99135">
        <ele>2.6</ele>
        <time>2020-06-04T16:00:16Z</time>
      </trkpt>
      <trkpt lat="47.06125" lon="-1.99143">
        <ele>2.6</ele>
        <time>2020-06-04T16:00:17Z</time>
      </trkpt>
      <trkpt lat="47.06126" lon="-1.99151">
        <ele>2.6</ele>
        <time>2020-06-04T16:00:18Z</time>
      </trkpt>
      <trkpt lat="47.06128" lon="-1.99158">
        <ele>2.6</ele>
        <time>2020-06-04T16:00:19Z</time>
      </trkpt>
      <trkpt lat="47.0613" lon="-1.99165">
        <ele>2.6</ele>
        <time>2020-06-04T16:00:20Z</time>
      </trkpt>
      <trkpt lat="47.06131" lon="-1.99172">
        <ele>2.6</ele>
        <time>2020-06-04T16:00:21Z</time>
      </trkpt>
      <trkpt lat="47.06132" lon="-1.99179">
        <ele>2.6</ele>
        <time>2020-06-04T16:00:22Z</time>
      </trkpt>
      <trkpt lat="47.06133" lon="-1.99187">
        <ele>2.6</ele>
        <time>2020-06-04T16:00:23Z</time>
      </trkpt>
      <trkpt lat="47.06134" lon="-1.99194">
        <ele>2.6</ele>
        <time>2020-06-04T16:00:24Z</time>
      </trkpt>
      <trkpt lat="47.06134" lon="-1.99202">
        <ele>2.6</ele>
        <time>2020-06-04T16:00:25Z</time>
      </trkpt>
      <trkpt lat="47.06135" lon="-1.9921">
        <ele>2.6</ele>
        <time>2020-06-04T16:00:26Z</time>
      </trkpt>
      <trkpt lat="47.06137" lon="-1.99218">
        <ele>2.6</ele>
        <time>2020-06-04T16:00:27Z</time>
      </trkpt>
      <trkpt lat="47.06138" lon="-1.99226">
        <ele>2.6</ele>
        <time>2020-06-04T16:00:28Z</time>
      </trkpt>
      <trkpt lat="47.06139" lon="-1.99233">
        <ele>2.6</ele>
        <time>2020-06-04T16:00:29Z</time>
      </trkpt>
      <trkpt lat="47.0614" lon="-1.99242">
        <ele>2.6</ele>
        <time>2020-06-04T16:00:30Z</time>
      </trkpt>
      <trkpt lat="47.06141" lon="-1.99249">
        <ele>2.6</ele>
        <time>2020-06-04T16:00:31Z</time>
      </trkpt>
      <trkpt lat="47.06142" lon="-1.99257">
        <ele>2.6</ele>
        <time>2020-06-04T16:00:32Z</time>
      </trkpt>
      <trkpt lat="47.06143" lon="-1.99265">
        <ele>2.6</ele>
        <time>2020-06-04T16:00:33Z</time>
      </trkpt>
      <trkpt lat="47.06144" lon="-1.99273">
        <ele>2.6</ele>
        <time>2020-06-04T16:00:34Z</time>
      </trkpt>
      <trkpt lat="47.06145" lon="-1.99281">
        <ele>2.6</ele>
        <time>2020-06-04T16:00:35Z</time>
      </trkpt>
      <trkpt lat="47.06145" lon="-1.99288">
        <ele>2.6</ele>
        <time>2020-06-04T16:00:36Z</time>
      </trkpt>
      <trkpt lat="47.06145" lon="-1.99297">
        <ele>2.6</ele>
        <time>2020-06-04T16:00:37Z</time>
      </trkpt>
      <trkpt lat="47.06145" lon="-1.99305">
        <ele>2.6</ele>
        <time>2020-06-04T16:00:38Z</time>
      </trkpt>
      <trkpt lat="47.06145" lon="-1.99315">
        <ele>2.6</ele>
        <time>2020-06-04T16:00:39Z</time>
      </trkpt>
      <trkpt lat="47.06146" lon="-1.99324">
        <ele>2.5</ele>
        <time>2020-06-04T16:00:40Z</time>
      </trkpt>
      <trkpt lat="47.06146" lon="-1.99332">
        <ele>2.5</ele>
        <time>2020-06-04T16:00:41Z</time>
      </trkpt>
      <trkpt lat="47.06147" lon="-1.99341">
        <ele>2.5</ele>
        <time>2020-06-04T16:00:42Z</time>
      </trkpt>
      <trkpt lat="47.06147" lon="-1.9935">
        <ele>2.5</ele>
        <time>2020-06-04T16:00:43Z</time>
      </trkpt>
      <trkpt lat="47.06147" lon="-1.99358">
        <ele>2.5</ele>
        <time>2020-06-04T16:00:44Z</time>
      </trkpt>
      <trkpt lat="47.06147" lon="-1.99366">
        <ele>2.5</ele>
        <time>2020-06-04T16:00:45Z</time>
      </trkpt>
      <trkpt lat="47.06148" lon="-1.99374">
        <ele>2.5</ele>
        <time>2020-06-04T16:00:46Z</time>
      </trkpt>
      <trkpt lat="47.06148" lon="-1.99381">
        <ele>2.4</ele>
        <time>2020-06-04T16:00:47Z</time>
      </trkpt>
      <trkpt lat="47.06148" lon="-1.99388">
        <ele>2.4</ele>
        <time>2020-06-04T16:00:48Z</time>
      </trkpt>
      <trkpt lat="47.06148" lon="-1.99395">
        <ele>2.4</ele>
        <time>2020-06-04T16:00:49Z</time>
      </trkpt>
      <trkpt lat="47.06148" lon="-1.99403">
        <ele>2.4</ele>
        <time>2020-06-04T16:00:50Z</time>
      </trkpt>
      <trkpt lat="47.06148" lon="-1.99412">
        <ele>2.4</ele>
        <time>2020-06-04T16:00:51Z</time>
      </trkpt>
      <trkpt lat="47.06149" lon="-1.9942">
        <ele>2.4</ele>
        <time>2020-06-04T16:00:52Z</time>
      </trkpt>
      <trkpt lat="47.06149" lon="-1.99429">
        <ele>2.3</ele>
        <time>2020-06-04T16:00:53Z</time>
      </trkpt>
      <trkpt lat="47.0615" lon="-1.99437">
        <ele>2.3</ele>
        <time>2020-06-04T16:00:54Z</time>
      </trkpt>
      <trkpt lat="47.06149" lon="-1.99446">
        <ele>2.3</ele>
        <time>2020-06-04T16:00:55Z</time>
      </trkpt>
      <trkpt lat="47.06148" lon="-1.99455">
        <ele>2.3</ele>
        <time>2020-06-04T16:00:56Z</time>
      </trkpt>
      <trkpt lat="47.06148" lon="-1.99464">
        <ele>2.2</ele>
        <time>2020-06-04T16:00:57Z</time>
      </trkpt>
      <trkpt lat="47.06147" lon="-1.99472">
        <ele>2.2</ele>
        <time>2020-06-04T16:00:58Z</time>
      </trkpt>
      <trkpt lat="47.06147" lon="-1.99481">
        <ele>2.1</ele>
        <time>2020-06-04T16:00:59Z</time>
      </trkpt>
      <trkpt lat="47.06146" lon="-1.99489">
        <ele>2.1</ele>
        <time>2020-06-04T16:01:00Z</time>
      </trkpt>
      <trkpt lat="47.06146" lon="-1.99498">
        <ele>2</ele>
        <time>2020-06-04T16:01:01Z</time>
      </trkpt>
      <trkpt lat="47.06146" lon="-1.99507">
        <ele>2</ele>
        <time>2020-06-04T16:01:02Z</time>
      </trkpt>
      <trkpt lat="47.06146" lon="-1.99515">
        <ele>2</ele>
        <time>2020-06-04T16:01:03Z</time>
      </trkpt>
      <trkpt lat="47.06145" lon="-1.99523">
        <ele>2</ele>
        <time>2020-06-04T16:01:04Z</time>
      </trkpt>
      <trkpt lat="47.06145" lon="-1.99532">
        <ele>2</ele>
        <time>2020-06-04T16:01:05Z</time>
      </trkpt>
      <trkpt lat="47.06145" lon="-1.9954">
        <ele>2</ele>
        <time>2020-06-04T16:01:06Z</time>
      </trkpt>
      <trkpt lat="47.06145" lon="-1.99548">
        <ele>2</ele>
        <time>2020-06-04T16:01:07Z</time>
      </trkpt>
      <trkpt lat="47.06145" lon="-1.99556">
        <ele>2</ele>
        <time>2020-06-04T16:01:08Z</time>
      </trkpt>
      <trkpt lat="47.06146" lon="-1.99565">
        <ele>2</ele>
        <time>2020-06-04T16:01:09Z</time>
      </trkpt>
      <trkpt lat="47.06146" lon="-1.99572">
        <ele>2</ele>
        <time>2020-06-04T16:01:10Z</time>
      </trkpt>
      <trkpt lat="47.06147" lon="-1.9958">
        <ele>2</ele>
        <time>2020-06-04T16:01:11Z</time>
      </trkpt>
      <trkpt lat="47.06146" lon="-1.99588">
        <ele>2</ele>
        <time>2020-06-04T16:01:12Z</time>
      </trkpt>
      <trkpt lat="47.06147" lon="-1.99596">
        <ele>1.9</ele>
        <time>2020-06-04T16:01:13Z</time>
      </trkpt>
      <trkpt lat="47.06147" lon="-1.99604">
        <ele>1.9</ele>
        <time>2020-06-04T16:01:14Z</time>
      </trkpt>
      <trkpt lat="47.06148" lon="-1.99612">
        <ele>1.9</ele>
        <time>2020-06-04T16:01:15Z</time>
      </trkpt>
      <trkpt lat="47.06148" lon="-1.99621">
        <ele>1.8</ele>
        <time>2020-06-04T16:01:16Z</time>
      </trkpt>
      <trkpt lat="47.06149" lon="-1.99629">
        <ele>1.8</ele>
        <time>2020-06-04T16:01:17Z</time>
      </trkpt>
      <trkpt lat="47.06149" lon="-1.99637">
        <ele>1.8</ele>
        <time>2020-06-04T16:01:18Z</time>
      </trkpt>
      <trkpt lat="47.0615" lon="-1.99645">
        <ele>1.8</ele>
        <time>2020-06-04T16:01:19Z</time>
      </trkpt>
      <trkpt lat="47.0615" lon="-1.99653">
        <ele>1.9</ele>
        <time>2020-06-04T16:01:20Z</time>
      </trkpt>
      <trkpt lat="47.0615" lon="-1.99661">
        <ele>1.9</ele>
        <time>2020-06-04T16:01:21Z</time>
      </trkpt>
      <trkpt lat="47.06149" lon="-1.99669">
        <ele>1.9</ele>
        <time>2020-06-04T16:01:22Z</time>
      </trkpt>
      <trkpt lat="47.06149" lon="-1.99677">
        <ele>1.9</ele>
        <time>2020-06-04T16:01:23Z</time>
      </trkpt>
      <trkpt lat="47.06148" lon="-1.99685">
        <ele>2</ele>
        <time>2020-06-04T16:01:24Z</time>
      </trkpt>
      <trkpt lat="47.06149" lon="-1.99693">
        <ele>2</ele>
        <time>2020-06-04T16:01:25Z</time>
      </trkpt>
      <trkpt lat="47.0615" lon="-1.997">
        <ele>2</ele>
        <time>2020-06-04T16:01:26Z</time>
      </trkpt>
      <trkpt lat="47.0615" lon="-1.99708">
        <ele>2</ele>
        <time>2020-06-04T16:01:27Z</time>
      </trkpt>
      <trkpt lat="47.0615" lon="-1.99716">
        <ele>2</ele>
        <time>2020-06-04T16:01:28Z</time>
      </trkpt>
      <trkpt lat="47.0615" lon="-1.99724">
        <ele>2</ele>
        <time>2020-06-04T16:01:29Z</time>
      </trkpt>
      <trkpt lat="47.06149" lon="-1.99733">
        <ele>2</ele>
        <time>2020-06-04T16:01:30Z</time>
      </trkpt>
      <trkpt lat="47.06149" lon="-1.99742">
        <ele>2</ele>
        <time>2020-06-04T16:01:31Z</time>
      </trkpt>
      <trkpt lat="47.06149" lon="-1.99751">
        <ele>2</ele>
        <time>2020-06-04T16:01:32Z</time>
      </trkpt>
      <trkpt lat="47.06148" lon="-1.9976">
        <ele>2</ele>
        <time>2020-06-04T16:01:33Z</time>
      </trkpt>
      <trkpt lat="47.06148" lon="-1.99769">
        <ele>2</ele>
        <time>2020-06-04T16:01:34Z</time>
      </trkpt>
      <trkpt lat="47.06148" lon="-1.99778">
        <ele>2</ele>
        <time>2020-06-04T16:01:35Z</time>
      </trkpt>
      <trkpt lat="47.06147" lon="-1.99786">
        <ele>2</ele>
        <time>2020-06-04T16:01:36Z</time>
      </trkpt>
      <trkpt lat="47.06147" lon="-1.99794">
        <ele>2</ele>
        <time>2020-06-04T16:01:37Z</time>
      </trkpt>
      <trkpt lat="47.06148" lon="-1.99802">
        <ele>2</ele>
        <time>2020-06-04T16:01:38Z</time>
      </trkpt>
      <trkpt lat="47.06148" lon="-1.9981">
        <ele>2</ele>
        <time>2020-06-04T16:01:39Z</time>
      </trkpt>
      <trkpt lat="47.06149" lon="-1.99818">
        <ele>2</ele>
        <time>2020-06-04T16:01:40Z</time>
      </trkpt>
      <trkpt lat="47.06149" lon="-1.99826">
        <ele>2.1</ele>
        <time>2020-06-04T16:01:41Z</time>
      </trkpt>
      <trkpt lat="47.06149" lon="-1.99834">
        <ele>2.1</ele>
        <time>2020-06-04T16:01:42Z</time>
      </trkpt>
      <trkpt lat="47.06151" lon="-1.99842">
        <ele>2</ele>
        <time>2020-06-04T16:01:43Z</time>
      </trkpt>
      <trkpt lat="47.06151" lon="-1.99851">
        <ele>2</ele>
        <time>2020-06-04T16:01:44Z</time>
      </trkpt>
      <trkpt lat="47.06151" lon="-1.99859">
        <ele>2</ele>
        <time>2020-06-04T16:01:45Z</time>
      </trkpt>
      <trkpt lat="47.06152" lon="-1.99865">
        <ele>2</ele>
        <time>2020-06-04T16:01:46Z</time>
      </trkpt>
      <trkpt lat="47.06152" lon="-1.99873">
        <ele>2</ele>
        <time>2020-06-04T16:01:47Z</time>
      </trkpt>
      <trkpt lat="47.06152" lon="-1.99881">
        <ele>2</ele>
        <time>2020-06-04T16:01:48Z</time>
      </trkpt>
      <trkpt lat="47.06153" lon="-1.99888">
        <ele>2</ele>
        <time>2020-06-04T16:01:49Z</time>
      </trkpt>
      <trkpt lat="47.06152" lon="-1.99897">
        <ele>2</ele>
        <time>2020-06-04T16:01:50Z</time>
      </trkpt>
      <trkpt lat="47.06153" lon="-1.99904">
        <ele>2</ele>
        <time>2020-06-04T16:01:51Z</time>
      </trkpt>
      <trkpt lat="47.06153" lon="-1.99911">
        <ele>2.1</ele>
        <time>2020-06-04T16:01:52Z</time>
      </trkpt>
      <trkpt lat="47.06154" lon="-1.99919">
        <ele>2.1</ele>
        <time>2020-06-04T16:01:53Z</time>
      </trkpt>
      <trkpt lat="47.06155" lon="-1.99928">
        <ele>2.1</ele>
        <time>2020-06-04T16:01:54Z</time>
      </trkpt>
      <trkpt lat="47.06156" lon="-1.99935">
        <ele>2.1</ele>
        <time>2020-06-04T16:01:55Z</time>
      </trkpt>
      <trkpt lat="47.06157" lon="-1.99943">
        <ele>2.1</ele>
        <time>2020-06-04T16:01:56Z</time>
      </trkpt>
      <trkpt lat="47.06158" lon="-1.99951">
        <ele>2.2</ele>
        <time>2020-06-04T16:01:57Z</time>
      </trkpt>
      <trkpt lat="47.06159" lon="-1.9996">
        <ele>2.2</ele>
        <time>2020-06-04T16:01:58Z</time>
      </trkpt>
      <trkpt lat="47.0616" lon="-1.99968">
        <ele>2.2</ele>
        <time>2020-06-04T16:01:59Z</time>
      </trkpt>
      <trkpt lat="47.06161" lon="-1.99976">
        <ele>2.2</ele>
        <time>2020-06-04T16:02:00Z</time>
      </trkpt>
      <trkpt lat="47.06161" lon="-1.99985">
        <ele>2.2</ele>
        <time>2020-06-04T16:02:01Z</time>
      </trkpt>
      <trkpt lat="47.06161" lon="-1.99993">
        <ele>2.3</ele>
        <time>2020-06-04T16:02:02Z</time>
      </trkpt>
      <trkpt lat="47.06159" lon="-1.99998">
        <ele>2.3</ele>
        <time>2020-06-04T16:02:03Z</time>
      </trkpt>
      <trkpt lat="47.06157" lon="-2.00002">
        <ele>2.3</ele>
        <time>2020-06-04T16:02:04Z</time>
      </trkpt>
      <trkpt lat="47.06154" lon="-2.00007">
        <ele>2.3</ele>
        <time>2020-06-04T16:02:05Z</time>
      </trkpt>
      <trkpt lat="47.06152" lon="-2.00013">
        <ele>2.3</ele>
        <time>2020-06-04T16:02:06Z</time>
      </trkpt>
      <trkpt lat="47.06151" lon="-2.0002">
        <ele>2.3</ele>
        <time>2020-06-04T16:02:07Z</time>
      </trkpt>
      <trkpt lat="47.06151" lon="-2.00026">
        <ele>2.3</ele>
        <time>2020-06-04T16:02:08Z</time>
      </trkpt>
      <trkpt lat="47.06151" lon="-2.00031">
        <ele>2.3</ele>
        <time>2020-06-04T16:02:09Z</time>
      </trkpt>
      <trkpt lat="47.06151" lon="-2.00037">
        <ele>2.3</ele>
        <time>2020-06-04T16:02:10Z</time>
      </trkpt>
      <trkpt lat="47.06152" lon="-2.00043">
        <ele>2.3</ele>
        <time>2020-06-04T16:02:11Z</time>
      </trkpt>
      <trkpt lat="47.06153" lon="-2.0005">
        <ele>2.3</ele>
        <time>2020-06-04T16:02:12Z</time>
      </trkpt>
      <trkpt lat="47.06155" lon="-2.00057">
        <ele>2.3</ele>
        <time>2020-06-04T16:02:13Z</time>
      </trkpt>
      <trkpt lat="47.06157" lon="-2.00063">
        <ele>2.3</ele>
        <time>2020-06-04T16:02:14Z</time>
      </trkpt>
      <trkpt lat="47.06158" lon="-2.0007">
        <ele>2.3</ele>
        <time>2020-06-04T16:02:15Z</time>
      </trkpt>
      <trkpt lat="47.06159" lon="-2.00077">
        <ele>2.2</ele>
        <time>2020-06-04T16:02:16Z</time>
      </trkpt>
      <trkpt lat="47.0616" lon="-2.00083">
        <ele>2.2</ele>
        <time>2020-06-04T16:02:17Z</time>
      </trkpt>
      <trkpt lat="47.06162" lon="-2.00089">
        <ele>2.2</ele>
        <time>2020-06-04T16:02:18Z</time>
      </trkpt>
      <trkpt lat="47.06163" lon="-2.00095">
        <ele>2.2</ele>
        <time>2020-06-04T16:02:19Z</time>
      </trkpt>
      <trkpt lat="47.06164" lon="-2.00101">
        <ele>2.2</ele>
        <time>2020-06-04T16:02:20Z</time>
      </trkpt>
      <trkpt lat="47.06165" lon="-2.00107">
        <ele>2.2</ele>
        <time>2020-06-04T16:02:21Z</time>
      </trkpt>
      <trkpt lat="47.06168" lon="-2.00111">
        <ele>2.2</ele>
        <time>2020-06-04T16:02:22Z</time>
      </trkpt>
      <trkpt lat="47.06169" lon="-2.00118">
        <ele>2.3</ele>
        <time>2020-06-04T16:02:23Z</time>
      </trkpt>
      <trkpt lat="47.06171" lon="-2.00125">
        <ele>2.3</ele>
        <time>2020-06-04T16:02:24Z</time>
      </trkpt>
      <trkpt lat="47.06172" lon="-2.00132">
        <ele>2.3</ele>
        <time>2020-06-04T16:02:25Z</time>
      </trkpt>
      <trkpt lat="47.06173" lon="-2.00139">
        <ele>2.4</ele>
        <time>2020-06-04T16:02:26Z</time>
      </trkpt>
      <trkpt lat="47.06174" lon="-2.00146">
        <ele>2.4</ele>
        <time>2020-06-04T16:02:27Z</time>
      </trkpt>
      <trkpt lat="47.06175" lon="-2.00152">
        <ele>2.5</ele>
        <time>2020-06-04T16:02:28Z</time>
      </trkpt>
      <trkpt lat="47.06177" lon="-2.00159">
        <ele>2.6</ele>
        <time>2020-06-04T16:02:29Z</time>
      </trkpt>
      <trkpt lat="47.06179" lon="-2.00165">
        <ele>2.6</ele>
        <time>2020-06-04T16:02:30Z</time>
      </trkpt>
      <trkpt lat="47.0618" lon="-2.0017">
        <ele>2.7</ele>
        <time>2020-06-04T16:02:31Z</time>
      </trkpt>
      <trkpt lat="47.06182" lon="-2.00175">
        <ele>2.8</ele>
        <time>2020-06-04T16:02:32Z</time>
      </trkpt>
      <trkpt lat="47.06183" lon="-2.00179">
        <ele>2.8</ele>
        <time>2020-06-04T16:02:33Z</time>
      </trkpt>
      <trkpt lat="47.06184" lon="-2.00184">
        <ele>2.9</ele>
        <time>2020-06-04T16:02:34Z</time>
      </trkpt>
      <trkpt lat="47.06184" lon="-2.00185">
        <ele>2.9</ele>
        <time>2020-06-04T16:02:35Z</time>
      </trkpt>
      <trkpt lat="47.06188" lon="-2.00187">
        <ele>3.1</ele>
        <time>2020-06-04T16:02:36Z</time>
      </trkpt>
      <trkpt lat="47.06188" lon="-2.00188">
        <ele>3.1</ele>
        <time>2020-06-04T16:02:37Z</time>
      </trkpt>
      <trkpt lat="47.06191" lon="-2.00191">
        <ele>3.1</ele>
        <time>2020-06-04T16:02:38Z</time>
      </trkpt>
      <trkpt lat="47.06192" lon="-2.00192">
        <ele>3.2</ele>
        <time>2020-06-04T16:02:39Z</time>
      </trkpt>
      <trkpt lat="47.06196" lon="-2.00191">
        <ele>3.2</ele>
        <time>2020-06-04T16:02:40Z</time>
      </trkpt>
      <trkpt lat="47.06198" lon="-2.00191">
        <ele>3.2</ele>
        <time>2020-06-04T16:02:41Z</time>
      </trkpt>
      <trkpt lat="47.06201" lon="-2.0019">
        <ele>3.3</ele>
        <time>2020-06-04T16:02:42Z</time>
      </trkpt>
      <trkpt lat="47.06204" lon="-2.00189">
        <ele>3.3</ele>
        <time>2020-06-04T16:02:43Z</time>
      </trkpt>
      <trkpt lat="47.06208" lon="-2.00188">
        <ele>3.4</ele>
        <time>2020-06-04T16:02:44Z</time>
      </trkpt>
      <trkpt lat="47.06209" lon="-2.00187">
        <ele>3.4</ele>
        <time>2020-06-04T16:02:45Z</time>
      </trkpt>
      <trkpt lat="47.06211" lon="-2.00186">
        <ele>3.4</ele>
        <time>2020-06-04T16:02:46Z</time>
      </trkpt>
      <trkpt lat="47.06212" lon="-2.00186">
        <ele>3.4</ele>
        <time>2020-06-04T16:02:47Z</time>
      </trkpt>
      <trkpt lat="47.06215" lon="-2.00185">
        <ele>3.5</ele>
        <time>2020-06-04T16:02:48Z</time>
      </trkpt>
      <trkpt lat="47.06216" lon="-2.00184">
        <ele>3.6</ele>
        <time>2020-06-04T16:02:49Z</time>
      </trkpt>
      <trkpt lat="47.06219" lon="-2.00182">
        <ele>3.6</ele>
        <time>2020-06-04T16:02:50Z</time>
      </trkpt>
      <trkpt lat="47.06222" lon="-2.0018">
        <ele>3.7</ele>
        <time>2020-06-04T16:02:51Z</time>
      </trkpt>
      <trkpt lat="47.06224" lon="-2.00176">
        <ele>3.7</ele>
        <time>2020-06-04T16:02:52Z</time>
      </trkpt>
      <trkpt lat="47.06227" lon="-2.00174">
        <ele>3.8</ele>
        <time>2020-06-04T16:02:53Z</time>
      </trkpt>
      <trkpt lat="47.06229" lon="-2.00171">
        <ele>3.8</ele>
        <time>2020-06-04T16:02:54Z</time>
      </trkpt>
      <trkpt lat="47.0623" lon="-2.00169">
        <ele>3.9</ele>
        <time>2020-06-04T16:02:55Z</time>
      </trkpt>
      <trkpt lat="47.06232" lon="-2.00168">
        <ele>3.9</ele>
        <time>2020-06-04T16:02:56Z</time>
      </trkpt>
      <trkpt lat="47.06233" lon="-2.00166">
        <ele>3.9</ele>
        <time>2020-06-04T16:02:57Z</time>
      </trkpt>
      <trkpt lat="47.06234" lon="-2.00164">
        <ele>3.9</ele>
        <time>2020-06-04T16:02:58Z</time>
      </trkpt>
      <trkpt lat="47.06234" lon="-2.00161">
        <ele>4</ele>
        <time>2020-06-04T16:02:59Z</time>
      </trkpt>
      <trkpt lat="47.06233" lon="-2.00157">
        <ele>4</ele>
        <time>2020-06-04T16:03:00Z</time>
      </trkpt>
      <trkpt lat="47.06232" lon="-2.00151">
        <ele>4.1</ele>
        <time>2020-06-04T16:03:01Z</time>
      </trkpt>
      <trkpt lat="47.06232" lon="-2.00145">
        <ele>4.1</ele>
        <time>2020-06-04T16:03:02Z</time>
      </trkpt>
      <trkpt lat="47.06232" lon="-2.00139">
        <ele>4.2</ele>
        <time>2020-06-04T16:03:03Z</time>
      </trkpt>
      <trkpt lat="47.06231" lon="-2.00133">
        <ele>4.2</ele>
        <time>2020-06-04T16:03:04Z</time>
      </trkpt>
      <trkpt lat="47.06233" lon="-2.00129">
        <ele>4.3</ele>
        <time>2020-06-04T16:03:05Z</time>
      </trkpt>
      <trkpt lat="47.06237" lon="-2.00127">
        <ele>4.4</ele>
        <time>2020-06-04T16:03:06Z</time>
      </trkpt>
      <trkpt lat="47.06239" lon="-2.00126">
        <ele>4.4</ele>
        <time>2020-06-04T16:03:07Z</time>
      </trkpt>
      <trkpt lat="47.06242" lon="-2.00125">
        <ele>4.5</ele>
        <time>2020-06-04T16:03:08Z</time>
      </trkpt>
      <trkpt lat="47.06245" lon="-2.00125">
        <ele>4.5</ele>
        <time>2020-06-04T16:03:09Z</time>
      </trkpt>
      <trkpt lat="47.06248" lon="-2.00124">
        <ele>4.6</ele>
        <time>2020-06-04T16:03:10Z</time>
      </trkpt>
      <trkpt lat="47.06251" lon="-2.00123">
        <ele>4.6</ele>
        <time>2020-06-04T16:03:11Z</time>
      </trkpt>
      <trkpt lat="47.06255" lon="-2.00121">
        <ele>4.6</ele>
        <time>2020-06-04T16:03:12Z</time>
      </trkpt>
      <trkpt lat="47.06257" lon="-2.0012">
        <ele>4.7</ele>
        <time>2020-06-04T16:03:13Z</time>
      </trkpt>
      <trkpt lat="47.0626" lon="-2.0012">
        <ele>4.7</ele>
        <time>2020-06-04T16:03:14Z</time>
      </trkpt>
      <trkpt lat="47.06261" lon="-2.00119">
        <ele>4.7</ele>
        <time>2020-06-04T16:03:15Z</time>
      </trkpt>
      <trkpt lat="47.06264" lon="-2.00118">
        <ele>4.7</ele>
        <time>2020-06-04T16:03:16Z</time>
      </trkpt>
      <trkpt lat="47.06267" lon="-2.00117">
        <ele>4.8</ele>
        <time>2020-06-04T16:03:17Z</time>
      </trkpt>
      <trkpt lat="47.0627" lon="-2.00116">
        <ele>4.8</ele>
        <time>2020-06-04T16:03:18Z</time>
      </trkpt>
      <trkpt lat="47.06273" lon="-2.00113">
        <ele>4.9</ele>
        <time>2020-06-04T16:03:19Z</time>
      </trkpt>
      <trkpt lat="47.06277" lon="-2.00112">
        <ele>4.9</ele>
        <time>2020-06-04T16:03:20Z</time>
      </trkpt>
      <trkpt lat="47.0628" lon="-2.00109">
        <ele>4.9</ele>
        <time>2020-06-04T16:03:21Z</time>
      </trkpt>
      <trkpt lat="47.06284" lon="-2.00107">
        <ele>5</ele>
        <time>2020-06-04T16:03:22Z</time>
      </trkpt>
      <trkpt lat="47.06287" lon="-2.00106">
        <ele>5</ele>
        <time>2020-06-04T16:03:23Z</time>
      </trkpt>
      <trkpt lat="47.06289" lon="-2.00106">
        <ele>5</ele>
        <time>2020-06-04T16:03:24Z</time>
      </trkpt>
      <trkpt lat="47.06292" lon="-2.00105">
        <ele>5</ele>
        <time>2020-06-04T16:03:25Z</time>
      </trkpt>
      <trkpt lat="47.06296" lon="-2.00104">
        <ele>5.1</ele>
        <time>2020-06-04T16:03:26Z</time>
      </trkpt>
      <trkpt lat="47.06299" lon="-2.00102">
        <ele>5.1</ele>
        <time>2020-06-04T16:03:27Z</time>
      </trkpt>
      <trkpt lat="47.06303" lon="-2.001">
        <ele>5.1</ele>
        <time>2020-06-04T16:03:28Z</time>
      </trkpt>
      <trkpt lat="47.06305" lon="-2.00098">
        <ele>5.1</ele>
        <time>2020-06-04T16:03:29Z</time>
      </trkpt>
      <trkpt lat="47.06308" lon="-2.00097">
        <ele>5.2</ele>
        <time>2020-06-04T16:03:30Z</time>
      </trkpt>
      <trkpt lat="47.06311" lon="-2.00096">
        <ele>5.2</ele>
        <time>2020-06-04T16:03:31Z</time>
      </trkpt>
      <trkpt lat="47.06312" lon="-2.00096">
        <ele>5.2</ele>
        <time>2020-06-04T16:03:32Z</time>
      </trkpt>
      <trkpt lat="47.06315" lon="-2.00094">
        <ele>5.2</ele>
        <time>2020-06-04T16:03:33Z</time>
      </trkpt>
      <trkpt lat="47.06318" lon="-2.00093">
        <ele>5.2</ele>
        <time>2020-06-04T16:03:34Z</time>
      </trkpt>
      <trkpt lat="47.0632" lon="-2.00091">
        <ele>5.2</ele>
        <time>2020-06-04T16:03:35Z</time>
      </trkpt>
      <trkpt lat="47.06323" lon="-2.00088">
        <ele>5.2</ele>
        <time>2020-06-04T16:03:36Z</time>
      </trkpt>
      <trkpt lat="47.06327" lon="-2.00087">
        <ele>5.2</ele>
        <time>2020-06-04T16:03:37Z</time>
      </trkpt>
      <trkpt lat="47.06328" lon="-2.00087">
        <ele>5.2</ele>
        <time>2020-06-04T16:03:38Z</time>
      </trkpt>
      <trkpt lat="47.06331" lon="-2.00085">
        <ele>5.2</ele>
        <time>2020-06-04T16:03:39Z</time>
      </trkpt>
      <trkpt lat="47.06333" lon="-2.00083">
        <ele>5.2</ele>
        <time>2020-06-04T16:03:40Z</time>
      </trkpt>
      <trkpt lat="47.06336" lon="-2.00082">
        <ele>5.2</ele>
        <time>2020-06-04T16:03:41Z</time>
      </trkpt>
      <trkpt lat="47.06339" lon="-2.00081">
        <ele>5.2</ele>
        <time>2020-06-04T16:03:42Z</time>
      </trkpt>
      <trkpt lat="47.06342" lon="-2.0008">
        <ele>5.2</ele>
        <time>2020-06-04T16:03:43Z</time>
      </trkpt>
      <trkpt lat="47.06346" lon="-2.00078">
        <ele>5.2</ele>
        <time>2020-06-04T16:03:44Z</time>
      </trkpt>
      <trkpt lat="47.06348" lon="-2.00075">
        <ele>5.2</ele>
        <time>2020-06-04T16:03:45Z</time>
      </trkpt>
      <trkpt lat="47.0635" lon="-2.00075">
        <ele>5.2</ele>
        <time>2020-06-04T16:03:46Z</time>
      </trkpt>
      <trkpt lat="47.0635" lon="-2.00074">
        <ele>5.2</ele>
        <time>2020-06-04T16:03:47Z</time>
      </trkpt>
      <trkpt lat="47.06351" lon="-2.00074">
        <ele>5.2</ele>
        <time>2020-06-04T16:03:48Z</time>
      </trkpt>
      <trkpt lat="47.06351" lon="-2.00074">
        <ele>5.2</ele>
        <time>2020-06-04T16:03:49Z</time>
      </trkpt>
      <trkpt lat="47.06351" lon="-2.00074">
        <ele>5.2</ele>
        <time>2020-06-04T16:03:50Z</time>
      </trkpt>
      <trkpt lat="47.06351" lon="-2.00074">
        <ele>5.2</ele>
        <time>2020-06-04T16:03:51Z</time>
      </trkpt>
      <trkpt lat="47.06351" lon="-2.00075">
        <ele>5.1</ele>
        <time>2020-06-04T16:03:52Z</time>
      </trkpt>
      <trkpt lat="47.06351" lon="-2.00075">
        <ele>5.1</ele>
        <time>2020-06-04T16:03:53Z</time>
      </trkpt>
      <trkpt lat="47.06352" lon="-2.00075">
        <ele>5.1</ele>
        <time>2020-06-04T16:03:54Z</time>
      </trkpt>
      <trkpt lat="47.06353" lon="-2.00075">
        <ele>5.1</ele>
        <time>2020-06-04T16:03:55Z</time>
      </trkpt>
      <trkpt lat="47.06353" lon="-2.00075">
        <ele>5.1</ele>
        <time>2020-06-04T16:03:56Z</time>
      </trkpt>
      <trkpt lat="47.06353" lon="-2.00075">
        <ele>5.1</ele>
        <time>2020-06-04T16:03:57Z</time>
      </trkpt>
      <trkpt lat="47.06355" lon="-2.00086">
        <ele>5.1</ele>
        <time>2020-06-04T16:04:09Z</time>
      </trkpt>
      <trkpt lat="47.06356" lon="-2.0009">
        <ele>5.1</ele>
        <time>2020-06-04T16:04:10Z</time>
      </trkpt>
      <trkpt lat="47.06357" lon="-2.00094">
        <ele>5.1</ele>
        <time>2020-06-04T16:04:11Z</time>
      </trkpt>
      <trkpt lat="47.06357" lon="-2.00099">
        <ele>5.1</ele>
        <time>2020-06-04T16:04:12Z</time>
      </trkpt>
      <trkpt lat="47.06356" lon="-2.00101">
        <ele>5.1</ele>
        <time>2020-06-04T16:04:13Z</time>
      </trkpt>
      <trkpt lat="47.06357" lon="-2.00106">
        <ele>5.1</ele>
        <time>2020-06-04T16:04:14Z</time>
      </trkpt>
      <trkpt lat="47.06356" lon="-2.00107">
        <ele>5.1</ele>
        <time>2020-06-04T16:04:15Z</time>
      </trkpt>
      <trkpt lat="47.06357" lon="-2.00112">
        <ele>5.1</ele>
        <time>2020-06-04T16:04:16Z</time>
      </trkpt>
      <trkpt lat="47.06357" lon="-2.00117">
        <ele>5.1</ele>
        <time>2020-06-04T16:04:17Z</time>
      </trkpt>
      <trkpt lat="47.06357" lon="-2.00119">
        <ele>5.1</ele>
        <time>2020-06-04T16:04:18Z</time>
      </trkpt>
      <trkpt lat="47.06359" lon="-2.00123">
        <ele>5.1</ele>
        <time>2020-06-04T16:04:19Z</time>
      </trkpt>
      <trkpt lat="47.0636" lon="-2.00127">
        <ele>5.1</ele>
        <time>2020-06-04T16:04:20Z</time>
      </trkpt>
      <trkpt lat="47.06361" lon="-2.00131">
        <ele>5.1</ele>
        <time>2020-06-04T16:04:21Z</time>
      </trkpt>
      <trkpt lat="47.06363" lon="-2.00135">
        <ele>5.1</ele>
        <time>2020-06-04T16:04:22Z</time>
      </trkpt>
      <trkpt lat="47.06364" lon="-2.00139">
        <ele>5</ele>
        <time>2020-06-04T16:04:23Z</time>
      </trkpt>
      <trkpt lat="47.06366" lon="-2.00144">
        <ele>5</ele>
        <time>2020-06-04T16:04:24Z</time>
      </trkpt>
      <trkpt lat="47.06366" lon="-2.00149">
        <ele>5</ele>
        <time>2020-06-04T16:04:25Z</time>
      </trkpt>
      <trkpt lat="47.06368" lon="-2.00155">
        <ele>5</ele>
        <time>2020-06-04T16:04:26Z</time>
      </trkpt>
      <trkpt lat="47.0637" lon="-2.0016">
        <ele>5</ele>
        <time>2020-06-04T16:04:27Z</time>
      </trkpt>
      <trkpt lat="47.06372" lon="-2.00166">
        <ele>4.9</ele>
        <time>2020-06-04T16:04:28Z</time>
      </trkpt>
      <trkpt lat="47.06374" lon="-2.00172">
        <ele>4.9</ele>
        <time>2020-06-04T16:04:29Z</time>
      </trkpt>
      <trkpt lat="47.06377" lon="-2.00178">
        <ele>4.9</ele>
        <time>2020-06-04T16:04:30Z</time>
      </trkpt>
      <trkpt lat="47.06379" lon="-2.00184">
        <ele>4.9</ele>
        <time>2020-06-04T16:04:31Z</time>
      </trkpt>
      <trkpt lat="47.06381" lon="-2.0019">
        <ele>4.9</ele>
        <time>2020-06-04T16:04:32Z</time>
      </trkpt>
      <trkpt lat="47.06383" lon="-2.00196">
        <ele>4.8</ele>
        <time>2020-06-04T16:04:33Z</time>
      </trkpt>
      <trkpt lat="47.06384" lon="-2.00201">
        <ele>4.8</ele>
        <time>2020-06-04T16:04:34Z</time>
      </trkpt>
      <trkpt lat="47.06386" lon="-2.00208">
        <ele>4.8</ele>
        <time>2020-06-04T16:04:35Z</time>
      </trkpt>
      <trkpt lat="47.06388" lon="-2.00213">
        <ele>4.8</ele>
        <time>2020-06-04T16:04:36Z</time>
      </trkpt>
      <trkpt lat="47.06389" lon="-2.00219">
        <ele>4.8</ele>
        <time>2020-06-04T16:04:37Z</time>
      </trkpt>
      <trkpt lat="47.06391" lon="-2.00226">
        <ele>4.8</ele>
        <time>2020-06-04T16:04:38Z</time>
      </trkpt>
      <trkpt lat="47.06393" lon="-2.00232">
        <ele>4.8</ele>
        <time>2020-06-04T16:04:39Z</time>
      </trkpt>
      <trkpt lat="47.06395" lon="-2.00236">
        <ele>4.8</ele>
        <time>2020-06-04T16:04:40Z</time>
      </trkpt>
      <trkpt lat="47.06398" lon="-2.00241">
        <ele>4.8</ele>
        <time>2020-06-04T16:04:41Z</time>
      </trkpt>
      <trkpt lat="47.064" lon="-2.00247">
        <ele>4.8</ele>
        <time>2020-06-04T16:04:42Z</time>
      </trkpt>
      <trkpt lat="47.06402" lon="-2.00253">
        <ele>4.9</ele>
        <time>2020-06-04T16:04:43Z</time>
      </trkpt>
      <trkpt lat="47.06405" lon="-2.00259">
        <ele>5</ele>
        <time>2020-06-04T16:04:44Z</time>
      </trkpt>
      <trkpt lat="47.06407" lon="-2.00265">
        <ele>5</ele>
        <time>2020-06-04T16:04:45Z</time>
      </trkpt>
      <trkpt lat="47.0641" lon="-2.00271">
        <ele>5.1</ele>
        <time>2020-06-04T16:04:46Z</time>
      </trkpt>
      <trkpt lat="47.06412" lon="-2.00276">
        <ele>5.2</ele>
        <time>2020-06-04T16:04:47Z</time>
      </trkpt>
      <trkpt lat="47.06416" lon="-2.00282">
        <ele>5.3</ele>
        <time>2020-06-04T16:04:48Z</time>
      </trkpt>
      <trkpt lat="47.06419" lon="-2.00287">
        <ele>5.3</ele>
        <time>2020-06-04T16:04:49Z</time>
      </trkpt>
      <trkpt lat="47.06422" lon="-2.00292">
        <ele>5.4</ele>
        <time>2020-06-04T16:04:50Z</time>
      </trkpt>
      <trkpt lat="47.06425" lon="-2.00297">
        <ele>5.5</ele>
        <time>2020-06-04T16:04:51Z</time>
      </trkpt>
      <trkpt lat="47.06428" lon="-2.00303">
        <ele>5.7</ele>
        <time>2020-06-04T16:04:52Z</time>
      </trkpt>
      <trkpt lat="47.06431" lon="-2.00308">
        <ele>5.8</ele>
        <time>2020-06-04T16:04:53Z</time>
      </trkpt>
      <trkpt lat="47.06433" lon="-2.00313">
        <ele>5.9</ele>
        <time>2020-06-04T16:04:54Z</time>
      </trkpt>
      <trkpt lat="47.06436" lon="-2.00318">
        <ele>6</ele>
        <time>2020-06-04T16:04:55Z</time>
      </trkpt>
      <trkpt lat="47.06439" lon="-2.00322">
        <ele>6.1</ele>
        <time>2020-06-04T16:04:56Z</time>
      </trkpt>
      <trkpt lat="47.06442" lon="-2.00326">
        <ele>6.2</ele>
        <time>2020-06-04T16:04:57Z</time>
      </trkpt>
      <trkpt lat="47.06444" lon="-2.00331">
        <ele>6.3</ele>
        <time>2020-06-04T16:04:58Z</time>
      </trkpt>
      <trkpt lat="47.06446" lon="-2.00335">
        <ele>6.3</ele>
        <time>2020-06-04T16:04:59Z</time>
      </trkpt>
      <trkpt lat="47.06448" lon="-2.00339">
        <ele>6.4</ele>
        <time>2020-06-04T16:05:00Z</time>
      </trkpt>
      <trkpt lat="47.0645" lon="-2.00345">
        <ele>6.4</ele>
        <time>2020-06-04T16:05:01Z</time>
      </trkpt>
      <trkpt lat="47.06451" lon="-2.0035">
        <ele>6.5</ele>
        <time>2020-06-04T16:05:02Z</time>
      </trkpt>
      <trkpt lat="47.06454" lon="-2.00354">
        <ele>6.6</ele>
        <time>2020-06-04T16:05:03Z</time>
      </trkpt>
      <trkpt lat="47.06456" lon="-2.00358">
        <ele>6.7</ele>
        <time>2020-06-04T16:05:04Z</time>
      </trkpt>
      <trkpt lat="47.06459" lon="-2.00363">
        <ele>6.9</ele>
        <time>2020-06-04T16:05:05Z</time>
      </trkpt>
      <trkpt lat="47.06461" lon="-2.00368">
        <ele>7</ele>
        <time>2020-06-04T16:05:06Z</time>
      </trkpt>
      <trkpt lat="47.06463" lon="-2.00374">
        <ele>7.1</ele>
        <time>2020-06-04T16:05:07Z</time>
      </trkpt>
      <trkpt lat="47.06466" lon="-2.00379">
        <ele>7.3</ele>
        <time>2020-06-04T16:05:08Z</time>
      </trkpt>
      <trkpt lat="47.06469" lon="-2.00384">
        <ele>7.4</ele>
        <time>2020-06-04T16:05:09Z</time>
      </trkpt>
      <trkpt lat="47.06471" lon="-2.00389">
        <ele>7.5</ele>
        <time>2020-06-04T16:05:10Z</time>
      </trkpt>
      <trkpt lat="47.06473" lon="-2.00394">
        <ele>7.6</ele>
        <time>2020-06-04T16:05:11Z</time>
      </trkpt>
      <trkpt lat="47.06475" lon="-2.00399">
        <ele>7.7</ele>
        <time>2020-06-04T16:05:12Z</time>
      </trkpt>
      <trkpt lat="47.06479" lon="-2.00403">
        <ele>7.8</ele>
        <time>2020-06-04T16:05:13Z</time>
      </trkpt>
      <trkpt lat="47.06482" lon="-2.00406">
        <ele>7.8</ele>
        <time>2020-06-04T16:05:14Z</time>
      </trkpt>
      <trkpt lat="47.06485" lon="-2.0041">
        <ele>7.9</ele>
        <time>2020-06-04T16:05:15Z</time>
      </trkpt>
      <trkpt lat="47.06488" lon="-2.00415">
        <ele>7.9</ele>
        <time>2020-06-04T16:05:16Z</time>
      </trkpt>
      <trkpt lat="47.06489" lon="-2.0042">
        <ele>7.9</ele>
        <time>2020-06-04T16:05:17Z</time>
      </trkpt>
      <trkpt lat="47.06492" lon="-2.00425">
        <ele>8</ele>
        <time>2020-06-04T16:05:18Z</time>
      </trkpt>
      <trkpt lat="47.06493" lon="-2.0043">
        <ele>8</ele>
        <time>2020-06-04T16:05:19Z</time>
      </trkpt>
      <trkpt lat="47.06495" lon="-2.00435">
        <ele>8</ele>
        <time>2020-06-04T16:05:20Z</time>
      </trkpt>
      <trkpt lat="47.06497" lon="-2.0044">
        <ele>8</ele>
        <time>2020-06-04T16:05:21Z</time>
      </trkpt>
      <trkpt lat="47.06498" lon="-2.00446">
        <ele>8.1</ele>
        <time>2020-06-04T16:05:22Z</time>
      </trkpt>
      <trkpt lat="47.065" lon="-2.00451">
        <ele>8.1</ele>
        <time>2020-06-04T16:05:23Z</time>
      </trkpt>
      <trkpt lat="47.06502" lon="-2.00455">
        <ele>8.1</ele>
        <time>2020-06-04T16:05:24Z</time>
      </trkpt>
      <trkpt lat="47.06504" lon="-2.0046">
        <ele>8.2</ele>
        <time>2020-06-04T16:05:25Z</time>
      </trkpt>
      <trkpt lat="47.06506" lon="-2.00464">
        <ele>8.2</ele>
        <time>2020-06-04T16:05:26Z</time>
      </trkpt>
      <trkpt lat="47.06508" lon="-2.00468">
        <ele>8.2</ele>
        <time>2020-06-04T16:05:27Z</time>
      </trkpt>
      <trkpt lat="47.0651" lon="-2.00474">
        <ele>8.2</ele>
        <time>2020-06-04T16:05:28Z</time>
      </trkpt>
      <trkpt lat="47.06512" lon="-2.00477">
        <ele>8.2</ele>
        <time>2020-06-04T16:05:29Z</time>
      </trkpt>
      <trkpt lat="47.06514" lon="-2.00481">
        <ele>8.2</ele>
        <time>2020-06-04T16:05:30Z</time>
      </trkpt>
      <trkpt lat="47.06516" lon="-2.00484">
        <ele>8.2</ele>
        <time>2020-06-04T16:05:31Z</time>
      </trkpt>
      <trkpt lat="47.06518" lon="-2.00487">
        <ele>8.2</ele>
        <time>2020-06-04T16:05:32Z</time>
      </trkpt>
      <trkpt lat="47.06519" lon="-2.00489">
        <ele>8.2</ele>
        <time>2020-06-04T16:05:33Z</time>
      </trkpt>
      <trkpt lat="47.06521" lon="-2.00493">
        <ele>8.2</ele>
        <time>2020-06-04T16:05:34Z</time>
      </trkpt>
      <trkpt lat="47.06521" lon="-2.00494">
        <ele>8.2</ele>
        <time>2020-06-04T16:05:35Z</time>
      </trkpt>
      <trkpt lat="47.06523" lon="-2.00497">
        <ele>8.2</ele>
        <time>2020-06-04T16:05:36Z</time>
      </trkpt>
      <trkpt lat="47.06525" lon="-2.00501">
        <ele>8.2</ele>
        <time>2020-06-04T16:05:37Z</time>
      </trkpt>
      <trkpt lat="47.06527" lon="-2.00506">
        <ele>8.2</ele>
        <time>2020-06-04T16:05:38Z</time>
      </trkpt>
      <trkpt lat="47.06529" lon="-2.0051">
        <ele>8.2</ele>
        <time>2020-06-04T16:05:39Z</time>
      </trkpt>
      <trkpt lat="47.0653" lon="-2.00513">
        <ele>8.3</ele>
        <time>2020-06-04T16:05:40Z</time>
      </trkpt>
      <trkpt lat="47.06532" lon="-2.00518">
        <ele>8.3</ele>
        <time>2020-06-04T16:05:41Z</time>
      </trkpt>
      <trkpt lat="47.06533" lon="-2.00519">
        <ele>8.3</ele>
        <time>2020-06-04T16:05:42Z</time>
      </trkpt>
      <trkpt lat="47.06534" lon="-2.00523">
        <ele>8.3</ele>
        <time>2020-06-04T16:05:43Z</time>
      </trkpt>
      <trkpt lat="47.06536" lon="-2.00526">
        <ele>8.3</ele>
        <time>2020-06-04T16:05:44Z</time>
      </trkpt>
      <trkpt lat="47.06537" lon="-2.0053">
        <ele>8.3</ele>
        <time>2020-06-04T16:05:45Z</time>
      </trkpt>
      <trkpt lat="47.06539" lon="-2.00533">
        <ele>8.3</ele>
        <time>2020-06-04T16:05:46Z</time>
      </trkpt>
      <trkpt lat="47.06541" lon="-2.00538">
        <ele>8.3</ele>
        <time>2020-06-04T16:05:47Z</time>
      </trkpt>
      <trkpt lat="47.06542" lon="-2.0054">
        <ele>8.3</ele>
        <time>2020-06-04T16:05:48Z</time>
      </trkpt>
      <trkpt lat="47.06543" lon="-2.00545">
        <ele>8.3</ele>
        <time>2020-06-04T16:05:49Z</time>
      </trkpt>
      <trkpt lat="47.06543" lon="-2.00547">
        <ele>8.3</ele>
        <time>2020-06-04T16:05:50Z</time>
      </trkpt>
      <trkpt lat="47.06546" lon="-2.00552">
        <ele>8.3</ele>
        <time>2020-06-04T16:05:51Z</time>
      </trkpt>
      <trkpt lat="47.06547" lon="-2.00553">
        <ele>8.2</ele>
        <time>2020-06-04T16:05:52Z</time>
      </trkpt>
      <trkpt lat="47.06549" lon="-2.00557">
        <ele>8.2</ele>
        <time>2020-06-04T16:05:53Z</time>
      </trkpt>
      <trkpt lat="47.0655" lon="-2.00558">
        <ele>8.2</ele>
        <time>2020-06-04T16:05:54Z</time>
      </trkpt>
      <trkpt lat="47.06552" lon="-2.00561">
        <ele>8.2</ele>
        <time>2020-06-04T16:05:55Z</time>
      </trkpt>
      <trkpt lat="47.06552" lon="-2.00563">
        <ele>8.2</ele>
        <time>2020-06-04T16:05:56Z</time>
      </trkpt>
      <trkpt lat="47.06554" lon="-2.00567">
        <ele>8.1</ele>
        <time>2020-06-04T16:05:57Z</time>
      </trkpt>
      <trkpt lat="47.06555" lon="-2.00568">
        <ele>8.1</ele>
        <time>2020-06-04T16:05:58Z</time>
      </trkpt>
      <trkpt lat="47.06556" lon="-2.00573">
        <ele>8.1</ele>
        <time>2020-06-04T16:05:59Z</time>
      </trkpt>
      <trkpt lat="47.06557" lon="-2.00574">
        <ele>8.1</ele>
        <time>2020-06-04T16:06:00Z</time>
      </trkpt>
      <trkpt lat="47.06559" lon="-2.00578">
        <ele>8</ele>
        <time>2020-06-04T16:06:01Z</time>
      </trkpt>
      <trkpt lat="47.06559" lon="-2.00579">
        <ele>8</ele>
        <time>2020-06-04T16:06:02Z</time>
      </trkpt>
      <trkpt lat="47.06561" lon="-2.00584">
        <ele>7.9</ele>
        <time>2020-06-04T16:06:03Z</time>
      </trkpt>
      <trkpt lat="47.06562" lon="-2.00586">
        <ele>7.9</ele>
        <time>2020-06-04T16:06:04Z</time>
      </trkpt>
      <trkpt lat="47.06564" lon="-2.0059">
        <ele>7.8</ele>
        <time>2020-06-04T16:06:05Z</time>
      </trkpt>
      <trkpt lat="47.06565" lon="-2.00591">
        <ele>7.8</ele>
        <time>2020-06-04T16:06:06Z</time>
      </trkpt>
      <trkpt lat="47.06566" lon="-2.00594">
        <ele>7.8</ele>
        <time>2020-06-04T16:06:07Z</time>
      </trkpt>
      <trkpt lat="47.06568" lon="-2.00597">
        <ele>7.7</ele>
        <time>2020-06-04T16:06:08Z</time>
      </trkpt>
      <trkpt lat="47.0657" lon="-2.00602">
        <ele>7.6</ele>
        <time>2020-06-04T16:06:09Z</time>
      </trkpt>
      <trkpt lat="47.06571" lon="-2.00604">
        <ele>7.6</ele>
        <time>2020-06-04T16:06:10Z</time>
      </trkpt>
      <trkpt lat="47.06572" lon="-2.00608">
        <ele>7.6</ele>
        <time>2020-06-04T16:06:11Z</time>
      </trkpt>
      <trkpt lat="47.06573" lon="-2.00609">
        <ele>7.6</ele>
        <time>2020-06-04T16:06:12Z</time>
      </trkpt>
      <trkpt lat="47.06575" lon="-2.00614">
        <ele>7.5</ele>
        <time>2020-06-04T16:06:13Z</time>
      </trkpt>
      <trkpt lat="47.06576" lon="-2.00616">
        <ele>7.5</ele>
        <time>2020-06-04T16:06:14Z</time>
      </trkpt>
      <trkpt lat="47.06578" lon="-2.00619">
        <ele>7.5</ele>
        <time>2020-06-04T16:06:15Z</time>
      </trkpt>
      <trkpt lat="47.0658" lon="-2.00623">
        <ele>7.4</ele>
        <time>2020-06-04T16:06:16Z</time>
      </trkpt>
      <trkpt lat="47.06582" lon="-2.00627">
        <ele>7.4</ele>
        <time>2020-06-04T16:06:17Z</time>
      </trkpt>
      <trkpt lat="47.06584" lon="-2.00631">
        <ele>7.3</ele>
        <time>2020-06-04T16:06:18Z</time>
      </trkpt>
      <trkpt lat="47.06586" lon="-2.00636">
        <ele>7.3</ele>
        <time>2020-06-04T16:06:19Z</time>
      </trkpt>
      <trkpt lat="47.06588" lon="-2.00641">
        <ele>7.2</ele>
        <time>2020-06-04T16:06:20Z</time>
      </trkpt>
      <trkpt lat="47.0659" lon="-2.00645">
        <ele>7.2</ele>
        <time>2020-06-04T16:06:21Z</time>
      </trkpt>
      <trkpt lat="47.06592" lon="-2.0065">
        <ele>7.2</ele>
        <time>2020-06-04T16:06:22Z</time>
      </trkpt>
      <trkpt lat="47.06594" lon="-2.00653">
        <ele>7.1</ele>
        <time>2020-06-04T16:06:23Z</time>
      </trkpt>
      <trkpt lat="47.06596" lon="-2.00655">
        <ele>7.1</ele>
        <time>2020-06-04T16:06:24Z</time>
      </trkpt>
      <trkpt lat="47.06598" lon="-2.00659">
        <ele>7.1</ele>
        <time>2020-06-04T16:06:25Z</time>
      </trkpt>
      <trkpt lat="47.066" lon="-2.00663">
        <ele>7</ele>
        <time>2020-06-04T16:06:26Z</time>
      </trkpt>
      <trkpt lat="47.06601" lon="-2.00667">
        <ele>7</ele>
        <time>2020-06-04T16:06:27Z</time>
      </trkpt>
      <trkpt lat="47.06602" lon="-2.00671">
        <ele>7</ele>
        <time>2020-06-04T16:06:28Z</time>
      </trkpt>
      <trkpt lat="47.06603" lon="-2.00676">
        <ele>6.9</ele>
        <time>2020-06-04T16:06:29Z</time>
      </trkpt>
      <trkpt lat="47.06605" lon="-2.0068">
        <ele>6.9</ele>
        <time>2020-06-04T16:06:30Z</time>
      </trkpt>
      <trkpt lat="47.06606" lon="-2.00684">
        <ele>6.9</ele>
        <time>2020-06-04T16:06:31Z</time>
      </trkpt>
      <trkpt lat="47.06608" lon="-2.00689">
        <ele>6.8</ele>
        <time>2020-06-04T16:06:32Z</time>
      </trkpt>
      <trkpt lat="47.0661" lon="-2.00693">
        <ele>6.8</ele>
        <time>2020-06-04T16:06:33Z</time>
      </trkpt>
      <trkpt lat="47.06612" lon="-2.00697">
        <ele>6.8</ele>
        <time>2020-06-04T16:06:34Z</time>
      </trkpt>
      <trkpt lat="47.06614" lon="-2.00703">
        <ele>6.9</ele>
        <time>2020-06-04T16:06:35Z</time>
      </trkpt>
      <trkpt lat="47.06615" lon="-2.00705">
        <ele>6.9</ele>
        <time>2020-06-04T16:06:36Z</time>
      </trkpt>
      <trkpt lat="47.06618" lon="-2.00709">
        <ele>6.9</ele>
        <time>2020-06-04T16:06:37Z</time>
      </trkpt>
      <trkpt lat="47.06619" lon="-2.00714">
        <ele>6.9</ele>
        <time>2020-06-04T16:06:38Z</time>
      </trkpt>
      <trkpt lat="47.06621" lon="-2.00717">
        <ele>6.9</ele>
        <time>2020-06-04T16:06:39Z</time>
      </trkpt>
      <trkpt lat="47.06623" lon="-2.00721">
        <ele>6.9</ele>
        <time>2020-06-04T16:06:40Z</time>
      </trkpt>
      <trkpt lat="47.06626" lon="-2.00725">
        <ele>6.9</ele>
        <time>2020-06-04T16:06:41Z</time>
      </trkpt>
      <trkpt lat="47.06628" lon="-2.00729">
        <ele>6.8</ele>
        <time>2020-06-04T16:06:42Z</time>
      </trkpt>
      <trkpt lat="47.06631" lon="-2.00734">
        <ele>6.8</ele>
        <time>2020-06-04T16:06:43Z</time>
      </trkpt>
      <trkpt lat="47.06634" lon="-2.00738">
        <ele>6.8</ele>
        <time>2020-06-04T16:06:44Z</time>
      </trkpt>
      <trkpt lat="47.06636" lon="-2.00744">
        <ele>6.8</ele>
        <time>2020-06-04T16:06:45Z</time>
      </trkpt>
      <trkpt lat="47.06639" lon="-2.00748">
        <ele>6.8</ele>
        <time>2020-06-04T16:06:46Z</time>
      </trkpt>
      <trkpt lat="47.06641" lon="-2.00754">
        <ele>6.8</ele>
        <time>2020-06-04T16:06:47Z</time>
      </trkpt>
      <trkpt lat="47.06644" lon="-2.00759">
        <ele>6.8</ele>
        <time>2020-06-04T16:06:48Z</time>
      </trkpt>
      <trkpt lat="47.06646" lon="-2.00764">
        <ele>6.8</ele>
        <time>2020-06-04T16:06:49Z</time>
      </trkpt>
      <trkpt lat="47.06649" lon="-2.00768">
        <ele>6.8</ele>
        <time>2020-06-04T16:06:50Z</time>
      </trkpt>
      <trkpt lat="47.06651" lon="-2.00773">
        <ele>6.7</ele>
        <time>2020-06-04T16:06:51Z</time>
      </trkpt>
      <trkpt lat="47.06653" lon="-2.00778">
        <ele>6.7</ele>
        <time>2020-06-04T16:06:52Z</time>
      </trkpt>
      <trkpt lat="47.06656" lon="-2.00784">
        <ele>6.7</ele>
        <time>2020-06-04T16:06:53Z</time>
      </trkpt>
      <trkpt lat="47.06658" lon="-2.00789">
        <ele>6.7</ele>
        <time>2020-06-04T16:06:54Z</time>
      </trkpt>
      <trkpt lat="47.0666" lon="-2.00794">
        <ele>6.7</ele>
        <time>2020-06-04T16:06:55Z</time>
      </trkpt>
      <trkpt lat="47.06662" lon="-2.008">
        <ele>6.7</ele>
        <time>2020-06-04T16:06:56Z</time>
      </trkpt>
      <trkpt lat="47.06665" lon="-2.00805">
        <ele>6.7</ele>
        <time>2020-06-04T16:06:57Z</time>
      </trkpt>
      <trkpt lat="47.06668" lon="-2.00809">
        <ele>6.7</ele>
        <time>2020-06-04T16:06:58Z</time>
      </trkpt>
      <trkpt lat="47.0667" lon="-2.00814">
        <ele>6.7</ele>
        <time>2020-06-04T16:06:59Z</time>
      </trkpt>
      <trkpt lat="47.06672" lon="-2.00819">
        <ele>6.7</ele>
        <time>2020-06-04T16:07:00Z</time>
      </trkpt>
      <trkpt lat="47.06674" lon="-2.00825">
        <ele>6.7</ele>
        <time>2020-06-04T16:07:01Z</time>
      </trkpt>
      <trkpt lat="47.06677" lon="-2.00831">
        <ele>6.7</ele>
        <time>2020-06-04T16:07:02Z</time>
      </trkpt>
      <trkpt lat="47.0668" lon="-2.00837">
        <ele>6.7</ele>
        <time>2020-06-04T16:07:03Z</time>
      </trkpt>
      <trkpt lat="47.06683" lon="-2.00842">
        <ele>6.7</ele>
        <time>2020-06-04T16:07:04Z</time>
      </trkpt>
      <trkpt lat="47.06686" lon="-2.00848">
        <ele>6.7</ele>
        <time>2020-06-04T16:07:05Z</time>
      </trkpt>
      <trkpt lat="47.06689" lon="-2.00855">
        <ele>6.7</ele>
        <time>2020-06-04T16:07:06Z</time>
      </trkpt>
      <trkpt lat="47.06692" lon="-2.0086">
        <ele>6.7</ele>
        <time>2020-06-04T16:07:07Z</time>
      </trkpt>
      <trkpt lat="47.06694" lon="-2.00866">
        <ele>6.7</ele>
        <time>2020-06-04T16:07:08Z</time>
      </trkpt>
      <trkpt lat="47.06696" lon="-2.00872">
        <ele>6.7</ele>
        <time>2020-06-04T16:07:09Z</time>
      </trkpt>
      <trkpt lat="47.06699" lon="-2.00877">
        <ele>6.7</ele>
        <time>2020-06-04T16:07:10Z</time>
      </trkpt>
      <trkpt lat="47.06702" lon="-2.00882">
        <ele>6.8</ele>
        <time>2020-06-04T16:07:11Z</time>
      </trkpt>
      <trkpt lat="47.06705" lon="-2.00887">
        <ele>6.8</ele>
        <time>2020-06-04T16:07:12Z</time>
      </trkpt>
      <trkpt lat="47.06708" lon="-2.00891">
        <ele>6.8</ele>
        <time>2020-06-04T16:07:13Z</time>
      </trkpt>
      <trkpt lat="47.0671" lon="-2.00895">
        <ele>6.8</ele>
        <time>2020-06-04T16:07:14Z</time>
      </trkpt>
      <trkpt lat="47.06713" lon="-2.00898">
        <ele>6.9</ele>
        <time>2020-06-04T16:07:15Z</time>
      </trkpt>
      <trkpt lat="47.06716" lon="-2.00903">
        <ele>6.9</ele>
        <time>2020-06-04T16:07:16Z</time>
      </trkpt>
      <trkpt lat="47.06719" lon="-2.00908">
        <ele>7</ele>
        <time>2020-06-04T16:07:17Z</time>
      </trkpt>
      <trkpt lat="47.06721" lon="-2.00915">
        <ele>7</ele>
        <time>2020-06-04T16:07:18Z</time>
      </trkpt>
      <trkpt lat="47.06723" lon="-2.00921">
        <ele>7.1</ele>
        <time>2020-06-04T16:07:19Z</time>
      </trkpt>
      <trkpt lat="47.06725" lon="-2.00928">
        <ele>7.2</ele>
        <time>2020-06-04T16:07:20Z</time>
      </trkpt>
      <trkpt lat="47.06729" lon="-2.00935">
        <ele>7.2</ele>
        <time>2020-06-04T16:07:21Z</time>
      </trkpt>
      <trkpt lat="47.06731" lon="-2.00941">
        <ele>7.3</ele>
        <time>2020-06-04T16:07:22Z</time>
      </trkpt>
      <trkpt lat="47.06734" lon="-2.00947">
        <ele>7.4</ele>
        <time>2020-06-04T16:07:23Z</time>
      </trkpt>
      <trkpt lat="47.06736" lon="-2.00954">
        <ele>7.5</ele>
        <time>2020-06-04T16:07:24Z</time>
      </trkpt>
      <trkpt lat="47.06739" lon="-2.00959">
        <ele>7.6</ele>
        <time>2020-06-04T16:07:25Z</time>
      </trkpt>
      <trkpt lat="47.06742" lon="-2.00966">
        <ele>7.7</ele>
        <time>2020-06-04T16:07:26Z</time>
      </trkpt>
      <trkpt lat="47.06744" lon="-2.00972">
        <ele>7.8</ele>
        <time>2020-06-04T16:07:27Z</time>
      </trkpt>
      <trkpt lat="47.06746" lon="-2.00977">
        <ele>7.9</ele>
        <time>2020-06-04T16:07:28Z</time>
      </trkpt>
      <trkpt lat="47.06748" lon="-2.00982">
        <ele>8</ele>
        <time>2020-06-04T16:07:29Z</time>
      </trkpt>
      <trkpt lat="47.0675" lon="-2.00988">
        <ele>8.1</ele>
        <time>2020-06-04T16:07:30Z</time>
      </trkpt>
      <trkpt lat="47.06752" lon="-2.00992">
        <ele>8.2</ele>
        <time>2020-06-04T16:07:31Z</time>
      </trkpt>
      <trkpt lat="47.06755" lon="-2.00997">
        <ele>8.2</ele>
        <time>2020-06-04T16:07:32Z</time>
      </trkpt>
      <trkpt lat="47.06757" lon="-2.01002">
        <ele>8.3</ele>
        <time>2020-06-04T16:07:33Z</time>
      </trkpt>
      <trkpt lat="47.06759" lon="-2.01007">
        <ele>8.4</ele>
        <time>2020-06-04T16:07:34Z</time>
      </trkpt>
      <trkpt lat="47.06762" lon="-2.01012">
        <ele>8.5</ele>
        <time>2020-06-04T16:07:35Z</time>
      </trkpt>
      <trkpt lat="47.06764" lon="-2.01016">
        <ele>8.6</ele>
        <time>2020-06-04T16:07:36Z</time>
      </trkpt>
      <trkpt lat="47.06766" lon="-2.01021">
        <ele>8.7</ele>
        <time>2020-06-04T16:07:37Z</time>
      </trkpt>
      <trkpt lat="47.06769" lon="-2.01026">
        <ele>8.9</ele>
        <time>2020-06-04T16:07:38Z</time>
      </trkpt>
      <trkpt lat="47.06771" lon="-2.01032">
        <ele>9</ele>
        <time>2020-06-04T16:07:39Z</time>
      </trkpt>
      <trkpt lat="47.06773" lon="-2.01037">
        <ele>9.1</ele>
        <time>2020-06-04T16:07:40Z</time>
      </trkpt>
      <trkpt lat="47.06775" lon="-2.01042">
        <ele>9.2</ele>
        <time>2020-06-04T16:07:41Z</time>
      </trkpt>
      <trkpt lat="47.06778" lon="-2.01046">
        <ele>9.3</ele>
        <time>2020-06-04T16:07:42Z</time>
      </trkpt>
      <trkpt lat="47.0678" lon="-2.01052">
        <ele>9.4</ele>
        <time>2020-06-04T16:07:43Z</time>
      </trkpt>
      <trkpt lat="47.06782" lon="-2.01057">
        <ele>9.5</ele>
        <time>2020-06-04T16:07:44Z</time>
      </trkpt>
      <trkpt lat="47.06784" lon="-2.01061">
        <ele>9.5</ele>
        <time>2020-06-04T16:07:45Z</time>
      </trkpt>
      <trkpt lat="47.06787" lon="-2.01065">
        <ele>9.6</ele>
        <time>2020-06-04T16:07:46Z</time>
      </trkpt>
      <trkpt lat="47.0679" lon="-2.01071">
        <ele>9.7</ele>
        <time>2020-06-04T16:07:47Z</time>
      </trkpt>
      <trkpt lat="47.06792" lon="-2.01075">
        <ele>9.8</ele>
        <time>2020-06-04T16:07:48Z</time>
      </trkpt>
      <trkpt lat="47.06795" lon="-2.0108">
        <ele>9.9</ele>
        <time>2020-06-04T16:07:49Z</time>
      </trkpt>
      <trkpt lat="47.06797" lon="-2.01084">
        <ele>10</ele>
        <time>2020-06-04T16:07:50Z</time>
      </trkpt>
      <trkpt lat="47.068" lon="-2.01089">
        <ele>10.1</ele>
        <time>2020-06-04T16:07:51Z</time>
      </trkpt>
      <trkpt lat="47.06802" lon="-2.01094">
        <ele>10.1</ele>
        <time>2020-06-04T16:07:52Z</time>
      </trkpt>
      <trkpt lat="47.06804" lon="-2.01099">
        <ele>10.2</ele>
        <time>2020-06-04T16:07:53Z</time>
      </trkpt>
      <trkpt lat="47.06806" lon="-2.01103">
        <ele>10.3</ele>
        <time>2020-06-04T16:07:54Z</time>
      </trkpt>
      <trkpt lat="47.06808" lon="-2.01109">
        <ele>10.4</ele>
        <time>2020-06-04T16:07:55Z</time>
      </trkpt>
      <trkpt lat="47.06809" lon="-2.01115">
        <ele>10.5</ele>
        <time>2020-06-04T16:07:56Z</time>
      </trkpt>
      <trkpt lat="47.06811" lon="-2.0112">
        <ele>10.6</ele>
        <time>2020-06-04T16:07:57Z</time>
      </trkpt>
      <trkpt lat="47.06813" lon="-2.01124">
        <ele>10.7</ele>
        <time>2020-06-04T16:07:58Z</time>
      </trkpt>
      <trkpt lat="47.06815" lon="-2.01129">
        <ele>10.8</ele>
        <time>2020-06-04T16:07:59Z</time>
      </trkpt>
      <trkpt lat="47.06818" lon="-2.01134">
        <ele>10.9</ele>
        <time>2020-06-04T16:08:00Z</time>
      </trkpt>
      <trkpt lat="47.0682" lon="-2.01139">
        <ele>11</ele>
        <time>2020-06-04T16:08:01Z</time>
      </trkpt>
      <trkpt lat="47.06822" lon="-2.01145">
        <ele>11.1</ele>
        <time>2020-06-04T16:08:02Z</time>
      </trkpt>
      <trkpt lat="47.06824" lon="-2.01149">
        <ele>11.1</ele>
        <time>2020-06-04T16:08:03Z</time>
      </trkpt>
      <trkpt lat="47.06826" lon="-2.01153">
        <ele>11.2</ele>
        <time>2020-06-04T16:08:04Z</time>
      </trkpt>
      <trkpt lat="47.06827" lon="-2.01158">
        <ele>11.3</ele>
        <time>2020-06-04T16:08:05Z</time>
      </trkpt>
      <trkpt lat="47.0683" lon="-2.01164">
        <ele>11.3</ele>
        <time>2020-06-04T16:08:06Z</time>
      </trkpt>
      <trkpt lat="47.06832" lon="-2.01169">
        <ele>11.4</ele>
        <time>2020-06-04T16:08:07Z</time>
      </trkpt>
      <trkpt lat="47.06834" lon="-2.01174">
        <ele>11.4</ele>
        <time>2020-06-04T16:08:08Z</time>
      </trkpt>
      <trkpt lat="47.06836" lon="-2.01178">
        <ele>11.5</ele>
        <time>2020-06-04T16:08:09Z</time>
      </trkpt>
      <trkpt lat="47.06837" lon="-2.01183">
        <ele>11.5</ele>
        <time>2020-06-04T16:08:10Z</time>
      </trkpt>
      <trkpt lat="47.06838" lon="-2.01187">
        <ele>11.5</ele>
        <time>2020-06-04T16:08:11Z</time>
      </trkpt>
      <trkpt lat="47.06839" lon="-2.01192">
        <ele>11.5</ele>
        <time>2020-06-04T16:08:12Z</time>
      </trkpt>
      <trkpt lat="47.06841" lon="-2.01193">
        <ele>11.6</ele>
        <time>2020-06-04T16:08:13Z</time>
      </trkpt>
      <trkpt lat="47.06843" lon="-2.01197">
        <ele>11.6</ele>
        <time>2020-06-04T16:08:14Z</time>
      </trkpt>
      <trkpt lat="47.06844" lon="-2.01202">
        <ele>11.7</ele>
        <time>2020-06-04T16:08:15Z</time>
      </trkpt>
      <trkpt lat="47.06846" lon="-2.01207">
        <ele>11.7</ele>
        <time>2020-06-04T16:08:16Z</time>
      </trkpt>
      <trkpt lat="47.06847" lon="-2.01211">
        <ele>11.7</ele>
        <time>2020-06-04T16:08:17Z</time>
      </trkpt>
      <trkpt lat="47.06849" lon="-2.01216">
        <ele>11.8</ele>
        <time>2020-06-04T16:08:18Z</time>
      </trkpt>
      <trkpt lat="47.06851" lon="-2.0122">
        <ele>11.8</ele>
        <time>2020-06-04T16:08:19Z</time>
      </trkpt>
      <trkpt lat="47.06854" lon="-2.01225">
        <ele>11.9</ele>
        <time>2020-06-04T16:08:20Z</time>
      </trkpt>
      <trkpt lat="47.06857" lon="-2.0123">
        <ele>11.9</ele>
        <time>2020-06-04T16:08:21Z</time>
      </trkpt>
      <trkpt lat="47.06859" lon="-2.01235">
        <ele>11.9</ele>
        <time>2020-06-04T16:08:22Z</time>
      </trkpt>
      <trkpt lat="47.06861" lon="-2.01239">
        <ele>11.9</ele>
        <time>2020-06-04T16:08:23Z</time>
      </trkpt>
      <trkpt lat="47.06864" lon="-2.01243">
        <ele>11.9</ele>
        <time>2020-06-04T16:08:24Z</time>
      </trkpt>
      <trkpt lat="47.06866" lon="-2.01248">
        <ele>11.9</ele>
        <time>2020-06-04T16:08:25Z</time>
      </trkpt>
      <trkpt lat="47.06869" lon="-2.01253">
        <ele>11.9</ele>
        <time>2020-06-04T16:08:26Z</time>
      </trkpt>
      <trkpt lat="47.06871" lon="-2.01256">
        <ele>12</ele>
        <time>2020-06-04T16:08:27Z</time>
      </trkpt>
      <trkpt lat="47.06873" lon="-2.01261">
        <ele>12</ele>
        <time>2020-06-04T16:08:28Z</time>
      </trkpt>
      <trkpt lat="47.06876" lon="-2.01265">
        <ele>12</ele>
        <time>2020-06-04T16:08:29Z</time>
      </trkpt>
      <trkpt lat="47.06878" lon="-2.0127">
        <ele>12.1</ele>
        <time>2020-06-04T16:08:30Z</time>
      </trkpt>
      <trkpt lat="47.06881" lon="-2.01276">
        <ele>12.2</ele>
        <time>2020-06-04T16:08:31Z</time>
      </trkpt>
      <trkpt lat="47.06883" lon="-2.01281">
        <ele>12.3</ele>
        <time>2020-06-04T16:08:32Z</time>
      </trkpt>
      <trkpt lat="47.06885" lon="-2.01286">
        <ele>12.4</ele>
        <time>2020-06-04T16:08:33Z</time>
      </trkpt>
      <trkpt lat="47.06887" lon="-2.01291">
        <ele>12.5</ele>
        <time>2020-06-04T16:08:34Z</time>
      </trkpt>
      <trkpt lat="47.06889" lon="-2.01295">
        <ele>12.6</ele>
        <time>2020-06-04T16:08:35Z</time>
      </trkpt>
      <trkpt lat="47.06891" lon="-2.013">
        <ele>12.7</ele>
        <time>2020-06-04T16:08:36Z</time>
      </trkpt>
      <trkpt lat="47.06893" lon="-2.01305">
        <ele>12.7</ele>
        <time>2020-06-04T16:08:37Z</time>
      </trkpt>
      <trkpt lat="47.06895" lon="-2.0131">
        <ele>12.8</ele>
        <time>2020-06-04T16:08:38Z</time>
      </trkpt>
      <trkpt lat="47.06898" lon="-2.01314">
        <ele>12.9</ele>
        <time>2020-06-04T16:08:39Z</time>
      </trkpt>
      <trkpt lat="47.069" lon="-2.01319">
        <ele>12.9</ele>
        <time>2020-06-04T16:08:40Z</time>
      </trkpt>
      <trkpt lat="47.06902" lon="-2.01323">
        <ele>13</ele>
        <time>2020-06-04T16:08:41Z</time>
      </trkpt>
      <trkpt lat="47.06904" lon="-2.01328">
        <ele>13</ele>
        <time>2020-06-04T16:08:42Z</time>
      </trkpt>
      <trkpt lat="47.06907" lon="-2.01333">
        <ele>13</ele>
        <time>2020-06-04T16:08:43Z</time>
      </trkpt>
      <trkpt lat="47.06909" lon="-2.01337">
        <ele>13</ele>
        <time>2020-06-04T16:08:44Z</time>
      </trkpt>
      <trkpt lat="47.06911" lon="-2.01341">
        <ele>13.1</ele>
        <time>2020-06-04T16:08:45Z</time>
      </trkpt>
      <trkpt lat="47.06914" lon="-2.01345">
        <ele>13.1</ele>
        <time>2020-06-04T16:08:46Z</time>
      </trkpt>
      <trkpt lat="47.06916" lon="-2.01349">
        <ele>13.1</ele>
        <time>2020-06-04T16:08:47Z</time>
      </trkpt>
      <trkpt lat="47.06918" lon="-2.01354">
        <ele>13.1</ele>
        <time>2020-06-04T16:08:48Z</time>
      </trkpt>
      <trkpt lat="47.0692" lon="-2.01358">
        <ele>13.1</ele>
        <time>2020-06-04T16:08:49Z</time>
      </trkpt>
      <trkpt lat="47.06922" lon="-2.01362">
        <ele>13.2</ele>
        <time>2020-06-04T16:08:50Z</time>
      </trkpt>
      <trkpt lat="47.06924" lon="-2.01367">
        <ele>13.2</ele>
        <time>2020-06-04T16:08:51Z</time>
      </trkpt>
      <trkpt lat="47.06926" lon="-2.01371">
        <ele>13.2</ele>
        <time>2020-06-04T16:08:52Z</time>
      </trkpt>
      <trkpt lat="47.06928" lon="-2.01376">
        <ele>13.3</ele>
        <time>2020-06-04T16:08:53Z</time>
      </trkpt>
      <trkpt lat="47.06929" lon="-2.01381">
        <ele>13.3</ele>
        <time>2020-06-04T16:08:54Z</time>
      </trkpt>
      <trkpt lat="47.06932" lon="-2.01386">
        <ele>13.3</ele>
        <time>2020-06-04T16:08:55Z</time>
      </trkpt>
      <trkpt lat="47.06934" lon="-2.01391">
        <ele>13.3</ele>
        <time>2020-06-04T16:08:56Z</time>
      </trkpt>
      <trkpt lat="47.06936" lon="-2.01395">
        <ele>13.4</ele>
        <time>2020-06-04T16:08:57Z</time>
      </trkpt>
      <trkpt lat="47.06939" lon="-2.01399">
        <ele>13.4</ele>
        <time>2020-06-04T16:08:58Z</time>
      </trkpt>
      <trkpt lat="47.06941" lon="-2.01405">
        <ele>13.4</ele>
        <time>2020-06-04T16:08:59Z</time>
      </trkpt>
      <trkpt lat="47.06943" lon="-2.0141">
        <ele>13.4</ele>
        <time>2020-06-04T16:09:00Z</time>
      </trkpt>
      <trkpt lat="47.06945" lon="-2.01415">
        <ele>13.4</ele>
        <time>2020-06-04T16:09:01Z</time>
      </trkpt>
      <trkpt lat="47.06947" lon="-2.0142">
        <ele>13.4</ele>
        <time>2020-06-04T16:09:02Z</time>
      </trkpt>
      <trkpt lat="47.06949" lon="-2.01426">
        <ele>13.4</ele>
        <time>2020-06-04T16:09:03Z</time>
      </trkpt>
      <trkpt lat="47.06951" lon="-2.0143">
        <ele>13.4</ele>
        <time>2020-06-04T16:09:04Z</time>
      </trkpt>
      <trkpt lat="47.06954" lon="-2.01435">
        <ele>13.4</ele>
        <time>2020-06-04T16:09:05Z</time>
      </trkpt>
      <trkpt lat="47.06956" lon="-2.01441">
        <ele>13.4</ele>
        <time>2020-06-04T16:09:06Z</time>
      </trkpt>
      <trkpt lat="47.06959" lon="-2.01446">
        <ele>13.4</ele>
        <time>2020-06-04T16:09:07Z</time>
      </trkpt>
      <trkpt lat="47.06961" lon="-2.01452">
        <ele>13.4</ele>
        <time>2020-06-04T16:09:08Z</time>
      </trkpt>
      <trkpt lat="47.06963" lon="-2.01458">
        <ele>13.4</ele>
        <time>2020-06-04T16:09:09Z</time>
      </trkpt>
      <trkpt lat="47.06965" lon="-2.01463">
        <ele>13.4</ele>
        <time>2020-06-04T16:09:10Z</time>
      </trkpt>
      <trkpt lat="47.06967" lon="-2.01468">
        <ele>13.4</ele>
        <time>2020-06-04T16:09:11Z</time>
      </trkpt>
      <trkpt lat="47.06969" lon="-2.01472">
        <ele>13.4</ele>
        <time>2020-06-04T16:09:12Z</time>
      </trkpt>
      <trkpt lat="47.06972" lon="-2.01477">
        <ele>13.4</ele>
        <time>2020-06-04T16:09:13Z</time>
      </trkpt>
      <trkpt lat="47.06974" lon="-2.01482">
        <ele>13.3</ele>
        <time>2020-06-04T16:09:14Z</time>
      </trkpt>
      <trkpt lat="47.06977" lon="-2.01488">
        <ele>13.3</ele>
        <time>2020-06-04T16:09:15Z</time>
      </trkpt>
      <trkpt lat="47.06979" lon="-2.01494">
        <ele>13.3</ele>
        <time>2020-06-04T16:09:16Z</time>
      </trkpt>
      <trkpt lat="47.06982" lon="-2.015">
        <ele>13.2</ele>
        <time>2020-06-04T16:09:17Z</time>
      </trkpt>
      <trkpt lat="47.06985" lon="-2.01506">
        <ele>13.2</ele>
        <time>2020-06-04T16:09:18Z</time>
      </trkpt>
      <trkpt lat="47.06989" lon="-2.01512">
        <ele>13.2</ele>
        <time>2020-06-04T16:09:19Z</time>
      </trkpt>
      <trkpt lat="47.06992" lon="-2.01518">
        <ele>13.1</ele>
        <time>2020-06-04T16:09:20Z</time>
      </trkpt>
      <trkpt lat="47.06995" lon="-2.01525">
        <ele>13.1</ele>
        <time>2020-06-04T16:09:21Z</time>
      </trkpt>
      <trkpt lat="47.06998" lon="-2.01531">
        <ele>13</ele>
        <time>2020-06-04T16:09:22Z</time>
      </trkpt>
      <trkpt lat="47.07001" lon="-2.01537">
        <ele>13</ele>
        <time>2020-06-04T16:09:23Z</time>
      </trkpt>
      <trkpt lat="47.07003" lon="-2.01543">
        <ele>12.9</ele>
        <time>2020-06-04T16:09:24Z</time>
      </trkpt>
      <trkpt lat="47.07006" lon="-2.01549">
        <ele>12.9</ele>
        <time>2020-06-04T16:09:25Z</time>
      </trkpt>
      <trkpt lat="47.07009" lon="-2.01554">
        <ele>12.8</ele>
        <time>2020-06-04T16:09:26Z</time>
      </trkpt>
      <trkpt lat="47.07011" lon="-2.01559">
        <ele>12.8</ele>
        <time>2020-06-04T16:09:27Z</time>
      </trkpt>
      <trkpt lat="47.07014" lon="-2.01565">
        <ele>12.8</ele>
        <time>2020-06-04T16:09:28Z</time>
      </trkpt>
      <trkpt lat="47.07016" lon="-2.01571">
        <ele>12.7</ele>
        <time>2020-06-04T16:09:29Z</time>
      </trkpt>
      <trkpt lat="47.07019" lon="-2.01577">
        <ele>12.7</ele>
        <time>2020-06-04T16:09:30Z</time>
      </trkpt>
      <trkpt lat="47.07022" lon="-2.01584">
        <ele>12.6</ele>
        <time>2020-06-04T16:09:31Z</time>
      </trkpt>
      <trkpt lat="47.07024" lon="-2.0159">
        <ele>12.6</ele>
        <time>2020-06-04T16:09:32Z</time>
      </trkpt>
      <trkpt lat="47.07027" lon="-2.01596">
        <ele>12.6</ele>
        <time>2020-06-04T16:09:33Z</time>
      </trkpt>
      <trkpt lat="47.0703" lon="-2.01603">
        <ele>12.6</ele>
        <time>2020-06-04T16:09:34Z</time>
      </trkpt>
      <trkpt lat="47.07033" lon="-2.01609">
        <ele>12.7</ele>
        <time>2020-06-04T16:09:35Z</time>
      </trkpt>
      <trkpt lat="47.07036" lon="-2.01615">
        <ele>12.7</ele>
        <time>2020-06-04T16:09:36Z</time>
      </trkpt>
      <trkpt lat="47.07039" lon="-2.01622">
        <ele>12.6</ele>
        <time>2020-06-04T16:09:37Z</time>
      </trkpt>
      <trkpt lat="47.07042" lon="-2.0163">
        <ele>12.6</ele>
        <time>2020-06-04T16:09:38Z</time>
      </trkpt>
      <trkpt lat="47.07045" lon="-2.01636">
        <ele>12.6</ele>
        <time>2020-06-04T16:09:39Z</time>
      </trkpt>
      <trkpt lat="47.07048" lon="-2.01642">
        <ele>12.5</ele>
        <time>2020-06-04T16:09:40Z</time>
      </trkpt>
      <trkpt lat="47.07051" lon="-2.01649">
        <ele>12.4</ele>
        <time>2020-06-04T16:09:41Z</time>
      </trkpt>
      <trkpt lat="47.07053" lon="-2.01655">
        <ele>12.2</ele>
        <time>2020-06-04T16:09:42Z</time>
      </trkpt>
      <trkpt lat="47.07057" lon="-2.01661">
        <ele>12.1</ele>
        <time>2020-06-04T16:09:43Z</time>
      </trkpt>
      <trkpt lat="47.0706" lon="-2.01668">
        <ele>12</ele>
        <time>2020-06-04T16:09:44Z</time>
      </trkpt>
      <trkpt lat="47.07063" lon="-2.01675">
        <ele>12</ele>
        <time>2020-06-04T16:09:45Z</time>
      </trkpt>
      <trkpt lat="47.07066" lon="-2.01682">
        <ele>11.9</ele>
        <time>2020-06-04T16:09:46Z</time>
      </trkpt>
      <trkpt lat="47.07069" lon="-2.01688">
        <ele>11.9</ele>
        <time>2020-06-04T16:09:47Z</time>
      </trkpt>
      <trkpt lat="47.07073" lon="-2.01694">
        <ele>11.9</ele>
        <time>2020-06-04T16:09:48Z</time>
      </trkpt>
      <trkpt lat="47.07076" lon="-2.01701">
        <ele>11.8</ele>
        <time>2020-06-04T16:09:49Z</time>
      </trkpt>
      <trkpt lat="47.07079" lon="-2.01708">
        <ele>11.8</ele>
        <time>2020-06-04T16:09:50Z</time>
      </trkpt>
      <trkpt lat="47.07081" lon="-2.01714">
        <ele>11.8</ele>
        <time>2020-06-04T16:09:51Z</time>
      </trkpt>
      <trkpt lat="47.07084" lon="-2.0172">
        <ele>11.8</ele>
        <time>2020-06-04T16:09:52Z</time>
      </trkpt>
      <trkpt lat="47.07088" lon="-2.01728">
        <ele>11.7</ele>
        <time>2020-06-04T16:09:53Z</time>
      </trkpt>
      <trkpt lat="47.07091" lon="-2.01734">
        <ele>11.7</ele>
        <time>2020-06-04T16:09:54Z</time>
      </trkpt>
      <trkpt lat="47.07095" lon="-2.01741">
        <ele>11.6</ele>
        <time>2020-06-04T16:09:55Z</time>
      </trkpt>
      <trkpt lat="47.07098" lon="-2.01749">
        <ele>11.6</ele>
        <time>2020-06-04T16:09:56Z</time>
      </trkpt>
      <trkpt lat="47.07102" lon="-2.01756">
        <ele>11.5</ele>
        <time>2020-06-04T16:09:57Z</time>
      </trkpt>
      <trkpt lat="47.07106" lon="-2.01764">
        <ele>11.5</ele>
        <time>2020-06-04T16:09:58Z</time>
      </trkpt>
      <trkpt lat="47.07109" lon="-2.01771">
        <ele>11.5</ele>
        <time>2020-06-04T16:09:59Z</time>
      </trkpt>
      <trkpt lat="47.07112" lon="-2.01779">
        <ele>11.4</ele>
        <time>2020-06-04T16:10:00Z</time>
      </trkpt>
      <trkpt lat="47.07116" lon="-2.01786">
        <ele>11.4</ele>
        <time>2020-06-04T16:10:01Z</time>
      </trkpt>
      <trkpt lat="47.0712" lon="-2.01794">
        <ele>11.4</ele>
        <time>2020-06-04T16:10:02Z</time>
      </trkpt>
      <trkpt lat="47.07122" lon="-2.018">
        <ele>11.4</ele>
        <time>2020-06-04T16:10:03Z</time>
      </trkpt>
      <trkpt lat="47.07126" lon="-2.01808">
        <ele>11.4</ele>
        <time>2020-06-04T16:10:04Z</time>
      </trkpt>
      <trkpt lat="47.07129" lon="-2.01815">
        <ele>11.4</ele>
        <time>2020-06-04T16:10:05Z</time>
      </trkpt>
      <trkpt lat="47.07131" lon="-2.01821">
        <ele>11.4</ele>
        <time>2020-06-04T16:10:06Z</time>
      </trkpt>
      <trkpt lat="47.07135" lon="-2.0183">
        <ele>11.4</ele>
        <time>2020-06-04T16:10:07Z</time>
      </trkpt>
      <trkpt lat="47.07138" lon="-2.01836">
        <ele>11.5</ele>
        <time>2020-06-04T16:10:08Z</time>
      </trkpt>
      <trkpt lat="47.07141" lon="-2.01843">
        <ele>11.5</ele>
        <time>2020-06-04T16:10:09Z</time>
      </trkpt>
      <trkpt lat="47.07144" lon="-2.01849">
        <ele>11.5</ele>
        <time>2020-06-04T16:10:10Z</time>
      </trkpt>
      <trkpt lat="47.07147" lon="-2.01857">
        <ele>11.5</ele>
        <time>2020-06-04T16:10:11Z</time>
      </trkpt>
      <trkpt lat="47.0715" lon="-2.01863">
        <ele>11.5</ele>
        <time>2020-06-04T16:10:12Z</time>
      </trkpt>
      <trkpt lat="47.07152" lon="-2.01869">
        <ele>11.6</ele>
        <time>2020-06-04T16:10:13Z</time>
      </trkpt>
      <trkpt lat="47.07155" lon="-2.01877">
        <ele>11.6</ele>
        <time>2020-06-04T16:10:14Z</time>
      </trkpt>
      <trkpt lat="47.07159" lon="-2.01884">
        <ele>11.6</ele>
        <time>2020-06-04T16:10:15Z</time>
      </trkpt>
      <trkpt lat="47.07162" lon="-2.01891">
        <ele>11.6</ele>
        <time>2020-06-04T16:10:16Z</time>
      </trkpt>
      <trkpt lat="47.07165" lon="-2.01897">
        <ele>11.6</ele>
        <time>2020-06-04T16:10:17Z</time>
      </trkpt>
      <trkpt lat="47.07168" lon="-2.01904">
        <ele>11.7</ele>
        <time>2020-06-04T16:10:18Z</time>
      </trkpt>
      <trkpt lat="47.07171" lon="-2.01912">
        <ele>11.7</ele>
        <time>2020-06-04T16:10:19Z</time>
      </trkpt>
      <trkpt lat="47.07175" lon="-2.01919">
        <ele>11.7</ele>
        <time>2020-06-04T16:10:20Z</time>
      </trkpt>
      <trkpt lat="47.07178" lon="-2.01926">
        <ele>11.7</ele>
        <time>2020-06-04T16:10:21Z</time>
      </trkpt>
      <trkpt lat="47.07181" lon="-2.01933">
        <ele>11.8</ele>
        <time>2020-06-04T16:10:22Z</time>
      </trkpt>
      <trkpt lat="47.07185" lon="-2.01941">
        <ele>11.8</ele>
        <time>2020-06-04T16:10:23Z</time>
      </trkpt>
      <trkpt lat="47.07188" lon="-2.01947">
        <ele>11.8</ele>
        <time>2020-06-04T16:10:24Z</time>
      </trkpt>
      <trkpt lat="47.07191" lon="-2.01954">
        <ele>11.8</ele>
        <time>2020-06-04T16:10:25Z</time>
      </trkpt>
      <trkpt lat="47.07194" lon="-2.01961">
        <ele>11.8</ele>
        <time>2020-06-04T16:10:26Z</time>
      </trkpt>
      <trkpt lat="47.07197" lon="-2.01968">
        <ele>11.8</ele>
        <time>2020-06-04T16:10:27Z</time>
      </trkpt>
      <trkpt lat="47.072" lon="-2.01976">
        <ele>11.9</ele>
        <time>2020-06-04T16:10:28Z</time>
      </trkpt>
      <trkpt lat="47.07203" lon="-2.01983">
        <ele>11.9</ele>
        <time>2020-06-04T16:10:29Z</time>
      </trkpt>
      <trkpt lat="47.07205" lon="-2.01989">
        <ele>11.9</ele>
        <time>2020-06-04T16:10:30Z</time>
      </trkpt>
      <trkpt lat="47.07208" lon="-2.01996">
        <ele>11.9</ele>
        <time>2020-06-04T16:10:31Z</time>
      </trkpt>
      <trkpt lat="47.07211" lon="-2.02003">
        <ele>11.9</ele>
        <time>2020-06-04T16:10:32Z</time>
      </trkpt>
      <trkpt lat="47.07214" lon="-2.02009">
        <ele>11.9</ele>
        <time>2020-06-04T16:10:33Z</time>
      </trkpt>
      <trkpt lat="47.07217" lon="-2.02016">
        <ele>11.9</ele>
        <time>2020-06-04T16:10:34Z</time>
      </trkpt>
      <trkpt lat="47.0722" lon="-2.02023">
        <ele>11.9</ele>
        <time>2020-06-04T16:10:35Z</time>
      </trkpt>
      <trkpt lat="47.07223" lon="-2.0203">
        <ele>11.9</ele>
        <time>2020-06-04T16:10:36Z</time>
      </trkpt>
      <trkpt lat="47.07226" lon="-2.02036">
        <ele>11.9</ele>
        <time>2020-06-04T16:10:37Z</time>
      </trkpt>
      <trkpt lat="47.07229" lon="-2.02043">
        <ele>11.9</ele>
        <time>2020-06-04T16:10:38Z</time>
      </trkpt>
      <trkpt lat="47.07232" lon="-2.0205">
        <ele>11.8</ele>
        <time>2020-06-04T16:10:39Z</time>
      </trkpt>
      <trkpt lat="47.07235" lon="-2.02056">
        <ele>11.8</ele>
        <time>2020-06-04T16:10:40Z</time>
      </trkpt>
      <trkpt lat="47.07238" lon="-2.02063">
        <ele>11.8</ele>
        <time>2020-06-04T16:10:41Z</time>
      </trkpt>
      <trkpt lat="47.07242" lon="-2.0207">
        <ele>11.8</ele>
        <time>2020-06-04T16:10:42Z</time>
      </trkpt>
      <trkpt lat="47.07245" lon="-2.02079">
        <ele>11.8</ele>
        <time>2020-06-04T16:10:43Z</time>
      </trkpt>
      <trkpt lat="47.07249" lon="-2.02086">
        <ele>11.7</ele>
        <time>2020-06-04T16:10:44Z</time>
      </trkpt>
      <trkpt lat="47.07252" lon="-2.02091">
        <ele>11.7</ele>
        <time>2020-06-04T16:10:45Z</time>
      </trkpt>
      <trkpt lat="47.07255" lon="-2.02099">
        <ele>11.6</ele>
        <time>2020-06-04T16:10:46Z</time>
      </trkpt>
      <trkpt lat="47.07258" lon="-2.02106">
        <ele>11.6</ele>
        <time>2020-06-04T16:10:47Z</time>
      </trkpt>
      <trkpt lat="47.07261" lon="-2.02113">
        <ele>11.5</ele>
        <time>2020-06-04T16:10:48Z</time>
      </trkpt>
      <trkpt lat="47.07265" lon="-2.0212">
        <ele>11.5</ele>
        <time>2020-06-04T16:10:49Z</time>
      </trkpt>
      <trkpt lat="47.07268" lon="-2.02126">
        <ele>11.4</ele>
        <time>2020-06-04T16:10:50Z</time>
      </trkpt>
      <trkpt lat="47.07271" lon="-2.02132">
        <ele>11.4</ele>
        <time>2020-06-04T16:10:51Z</time>
      </trkpt>
      <trkpt lat="47.07275" lon="-2.02139">
        <ele>11.4</ele>
        <time>2020-06-04T16:10:52Z</time>
      </trkpt>
      <trkpt lat="47.07278" lon="-2.02145">
        <ele>11.3</ele>
        <time>2020-06-04T16:10:53Z</time>
      </trkpt>
      <trkpt lat="47.0728" lon="-2.02151">
        <ele>11.3</ele>
        <time>2020-06-04T16:10:54Z</time>
      </trkpt>
      <trkpt lat="47.07283" lon="-2.02157">
        <ele>11.3</ele>
        <time>2020-06-04T16:10:55Z</time>
      </trkpt>
      <trkpt lat="47.07286" lon="-2.02162">
        <ele>11.3</ele>
        <time>2020-06-04T16:10:56Z</time>
      </trkpt>
      <trkpt lat="47.07288" lon="-2.02167">
        <ele>11.2</ele>
        <time>2020-06-04T16:10:57Z</time>
      </trkpt>
      <trkpt lat="47.07291" lon="-2.02173">
        <ele>11.2</ele>
        <time>2020-06-04T16:10:58Z</time>
      </trkpt>
      <trkpt lat="47.07294" lon="-2.0218">
        <ele>11.2</ele>
        <time>2020-06-04T16:10:59Z</time>
      </trkpt>
      <trkpt lat="47.07297" lon="-2.02186">
        <ele>11.2</ele>
        <time>2020-06-04T16:11:00Z</time>
      </trkpt>
      <trkpt lat="47.073" lon="-2.02192">
        <ele>11.1</ele>
        <time>2020-06-04T16:11:01Z</time>
      </trkpt>
      <trkpt lat="47.07303" lon="-2.02198">
        <ele>11.1</ele>
        <time>2020-06-04T16:11:02Z</time>
      </trkpt>
      <trkpt lat="47.07306" lon="-2.02205">
        <ele>11.1</ele>
        <time>2020-06-04T16:11:03Z</time>
      </trkpt>
      <trkpt lat="47.07309" lon="-2.02212">
        <ele>11</ele>
        <time>2020-06-04T16:11:04Z</time>
      </trkpt>
      <trkpt lat="47.07312" lon="-2.02221">
        <ele>11</ele>
        <time>2020-06-04T16:11:05Z</time>
      </trkpt>
      <trkpt lat="47.07315" lon="-2.02228">
        <ele>11</ele>
        <time>2020-06-04T16:11:06Z</time>
      </trkpt>
      <trkpt lat="47.07317" lon="-2.02235">
        <ele>11</ele>
        <time>2020-06-04T16:11:07Z</time>
      </trkpt>
      <trkpt lat="47.07321" lon="-2.02242">
        <ele>10.9</ele>
        <time>2020-06-04T16:11:08Z</time>
      </trkpt>
      <trkpt lat="47.07324" lon="-2.02248">
        <ele>10.9</ele>
        <time>2020-06-04T16:11:09Z</time>
      </trkpt>
      <trkpt lat="47.07328" lon="-2.02256">
        <ele>10.8</ele>
        <time>2020-06-04T16:11:10Z</time>
      </trkpt>
      <trkpt lat="47.07331" lon="-2.02266">
        <ele>10.8</ele>
        <time>2020-06-04T16:11:11Z</time>
      </trkpt>
      <trkpt lat="47.07334" lon="-2.02273">
        <ele>10.7</ele>
        <time>2020-06-04T16:11:12Z</time>
      </trkpt>
      <trkpt lat="47.07337" lon="-2.02281">
        <ele>10.6</ele>
        <time>2020-06-04T16:11:13Z</time>
      </trkpt>
      <trkpt lat="47.0734" lon="-2.02288">
        <ele>10.5</ele>
        <time>2020-06-04T16:11:14Z</time>
      </trkpt>
      <trkpt lat="47.07343" lon="-2.02296">
        <ele>10.5</ele>
        <time>2020-06-04T16:11:15Z</time>
      </trkpt>
      <trkpt lat="47.07346" lon="-2.02303">
        <ele>10.4</ele>
        <time>2020-06-04T16:11:16Z</time>
      </trkpt>
      <trkpt lat="47.07349" lon="-2.02311">
        <ele>10.3</ele>
        <time>2020-06-04T16:11:17Z</time>
      </trkpt>
      <trkpt lat="47.07352" lon="-2.02318">
        <ele>10.2</ele>
        <time>2020-06-04T16:11:18Z</time>
      </trkpt>
      <trkpt lat="47.07355" lon="-2.02325">
        <ele>10.2</ele>
        <time>2020-06-04T16:11:19Z</time>
      </trkpt>
      <trkpt lat="47.07359" lon="-2.02335">
        <ele>10.2</ele>
        <time>2020-06-04T16:11:20Z</time>
      </trkpt>
      <trkpt lat="47.07362" lon="-2.02344">
        <ele>10.2</ele>
        <time>2020-06-04T16:11:21Z</time>
      </trkpt>
      <trkpt lat="47.07365" lon="-2.02351">
        <ele>10.2</ele>
        <time>2020-06-04T16:11:22Z</time>
      </trkpt>
      <trkpt lat="47.07368" lon="-2.02359">
        <ele>10.2</ele>
        <time>2020-06-04T16:11:23Z</time>
      </trkpt>
      <trkpt lat="47.07372" lon="-2.02366">
        <ele>10.2</ele>
        <time>2020-06-04T16:11:24Z</time>
      </trkpt>
      <trkpt lat="47.07374" lon="-2.02372">
        <ele>10.1</ele>
        <time>2020-06-04T16:11:25Z</time>
      </trkpt>
      <trkpt lat="47.07377" lon="-2.0238">
        <ele>10.1</ele>
        <time>2020-06-04T16:11:26Z</time>
      </trkpt>
      <trkpt lat="47.0738" lon="-2.02386">
        <ele>10.1</ele>
        <time>2020-06-04T16:11:27Z</time>
      </trkpt>
      <trkpt lat="47.07383" lon="-2.02395">
        <ele>10.1</ele>
        <time>2020-06-04T16:11:28Z</time>
      </trkpt>
      <trkpt lat="47.07386" lon="-2.02403">
        <ele>10.1</ele>
        <time>2020-06-04T16:11:29Z</time>
      </trkpt>
      <trkpt lat="47.07389" lon="-2.02409">
        <ele>10</ele>
        <time>2020-06-04T16:11:30Z</time>
      </trkpt>
      <trkpt lat="47.07392" lon="-2.02416">
        <ele>10</ele>
        <time>2020-06-04T16:11:31Z</time>
      </trkpt>
      <trkpt lat="47.07394" lon="-2.02423">
        <ele>10</ele>
        <time>2020-06-04T16:11:32Z</time>
      </trkpt>
      <trkpt lat="47.07397" lon="-2.0243">
        <ele>10</ele>
        <time>2020-06-04T16:11:33Z</time>
      </trkpt>
      <trkpt lat="47.07401" lon="-2.0244">
        <ele>10</ele>
        <time>2020-06-04T16:11:34Z</time>
      </trkpt>
      <trkpt lat="47.07404" lon="-2.02448">
        <ele>10</ele>
        <time>2020-06-04T16:11:35Z</time>
      </trkpt>
      <trkpt lat="47.07408" lon="-2.02454">
        <ele>9.9</ele>
        <time>2020-06-04T16:11:36Z</time>
      </trkpt>
      <trkpt lat="47.07411" lon="-2.02461">
        <ele>9.8</ele>
        <time>2020-06-04T16:11:37Z</time>
      </trkpt>
      <trkpt lat="47.07414" lon="-2.02468">
        <ele>9.8</ele>
        <time>2020-06-04T16:11:38Z</time>
      </trkpt>
      <trkpt lat="47.07417" lon="-2.02476">
        <ele>9.7</ele>
        <time>2020-06-04T16:11:39Z</time>
      </trkpt>
      <trkpt lat="47.0742" lon="-2.02484">
        <ele>9.6</ele>
        <time>2020-06-04T16:11:40Z</time>
      </trkpt>
      <trkpt lat="47.07424" lon="-2.02492">
        <ele>9.5</ele>
        <time>2020-06-04T16:11:41Z</time>
      </trkpt>
      <trkpt lat="47.07428" lon="-2.02499">
        <ele>9.4</ele>
        <time>2020-06-04T16:11:42Z</time>
      </trkpt>
      <trkpt lat="47.07431" lon="-2.02506">
        <ele>9.2</ele>
        <time>2020-06-04T16:11:43Z</time>
      </trkpt>
      <trkpt lat="47.07434" lon="-2.02513">
        <ele>9.1</ele>
        <time>2020-06-04T16:11:44Z</time>
      </trkpt>
      <trkpt lat="47.07437" lon="-2.02521">
        <ele>9</ele>
        <time>2020-06-04T16:11:45Z</time>
      </trkpt>
      <trkpt lat="47.0744" lon="-2.02529">
        <ele>8.8</ele>
        <time>2020-06-04T16:11:46Z</time>
      </trkpt>
      <trkpt lat="47.07443" lon="-2.02536">
        <ele>8.7</ele>
        <time>2020-06-04T16:11:47Z</time>
      </trkpt>
      <trkpt lat="47.07446" lon="-2.02543">
        <ele>8.6</ele>
        <time>2020-06-04T16:11:48Z</time>
      </trkpt>
      <trkpt lat="47.07449" lon="-2.02549">
        <ele>8.6</ele>
        <time>2020-06-04T16:11:49Z</time>
      </trkpt>
      <trkpt lat="47.07453" lon="-2.02557">
        <ele>8.5</ele>
        <time>2020-06-04T16:11:50Z</time>
      </trkpt>
      <trkpt lat="47.07457" lon="-2.02565">
        <ele>8.4</ele>
        <time>2020-06-04T16:11:51Z</time>
      </trkpt>
      <trkpt lat="47.07459" lon="-2.02575">
        <ele>8.4</ele>
        <time>2020-06-04T16:11:52Z</time>
      </trkpt>
      <trkpt lat="47.07461" lon="-2.02582">
        <ele>8.3</ele>
        <time>2020-06-04T16:11:53Z</time>
      </trkpt>
      <trkpt lat="47.07464" lon="-2.0259">
        <ele>8.3</ele>
        <time>2020-06-04T16:11:54Z</time>
      </trkpt>
      <trkpt lat="47.07466" lon="-2.02596">
        <ele>8.3</ele>
        <time>2020-06-04T16:11:55Z</time>
      </trkpt>
      <trkpt lat="47.07469" lon="-2.02604">
        <ele>8.3</ele>
        <time>2020-06-04T16:11:56Z</time>
      </trkpt>
      <trkpt lat="47.07472" lon="-2.02612">
        <ele>8.2</ele>
        <time>2020-06-04T16:11:57Z</time>
      </trkpt>
      <trkpt lat="47.07475" lon="-2.0262">
        <ele>8.2</ele>
        <time>2020-06-04T16:11:58Z</time>
      </trkpt>
      <trkpt lat="47.07478" lon="-2.02627">
        <ele>8.1</ele>
        <time>2020-06-04T16:11:59Z</time>
      </trkpt>
      <trkpt lat="47.07481" lon="-2.02635">
        <ele>8.1</ele>
        <time>2020-06-04T16:12:00Z</time>
      </trkpt>
      <trkpt lat="47.07484" lon="-2.02641">
        <ele>8</ele>
        <time>2020-06-04T16:12:01Z</time>
      </trkpt>
      <trkpt lat="47.07487" lon="-2.02648">
        <ele>8</ele>
        <time>2020-06-04T16:12:02Z</time>
      </trkpt>
      <trkpt lat="47.0749" lon="-2.02657">
        <ele>8</ele>
        <time>2020-06-04T16:12:03Z</time>
      </trkpt>
      <trkpt lat="47.07494" lon="-2.02665">
        <ele>7.9</ele>
        <time>2020-06-04T16:12:04Z</time>
      </trkpt>
      <trkpt lat="47.07497" lon="-2.02673">
        <ele>7.9</ele>
        <time>2020-06-04T16:12:05Z</time>
      </trkpt>
      <trkpt lat="47.075" lon="-2.02681">
        <ele>7.9</ele>
        <time>2020-06-04T16:12:06Z</time>
      </trkpt>
      <trkpt lat="47.07503" lon="-2.02688">
        <ele>7.8</ele>
        <time>2020-06-04T16:12:07Z</time>
      </trkpt>
      <trkpt lat="47.07506" lon="-2.02695">
        <ele>7.8</ele>
        <time>2020-06-04T16:12:08Z</time>
      </trkpt>
      <trkpt lat="47.07509" lon="-2.02701">
        <ele>7.8</ele>
        <time>2020-06-04T16:12:09Z</time>
      </trkpt>
      <trkpt lat="47.07512" lon="-2.02709">
        <ele>7.8</ele>
        <time>2020-06-04T16:12:10Z</time>
      </trkpt>
      <trkpt lat="47.07515" lon="-2.02715">
        <ele>7.8</ele>
        <time>2020-06-04T16:12:11Z</time>
      </trkpt>
      <trkpt lat="47.07519" lon="-2.02723">
        <ele>7.8</ele>
        <time>2020-06-04T16:12:12Z</time>
      </trkpt>
      <trkpt lat="47.07521" lon="-2.0273">
        <ele>7.8</ele>
        <time>2020-06-04T16:12:13Z</time>
      </trkpt>
      <trkpt lat="47.07525" lon="-2.02738">
        <ele>7.8</ele>
        <time>2020-06-04T16:12:14Z</time>
      </trkpt>
      <trkpt lat="47.07527" lon="-2.02746">
        <ele>7.8</ele>
        <time>2020-06-04T16:12:15Z</time>
      </trkpt>
      <trkpt lat="47.07529" lon="-2.02753">
        <ele>7.8</ele>
        <time>2020-06-04T16:12:16Z</time>
      </trkpt>
      <trkpt lat="47.07532" lon="-2.0276">
        <ele>7.8</ele>
        <time>2020-06-04T16:12:17Z</time>
      </trkpt>
      <trkpt lat="47.07536" lon="-2.02767">
        <ele>7.8</ele>
        <time>2020-06-04T16:12:18Z</time>
      </trkpt>
      <trkpt lat="47.07538" lon="-2.02774">
        <ele>7.8</ele>
        <time>2020-06-04T16:12:19Z</time>
      </trkpt>
      <trkpt lat="47.07542" lon="-2.02782">
        <ele>7.8</ele>
        <time>2020-06-04T16:12:20Z</time>
      </trkpt>
      <trkpt lat="47.07546" lon="-2.0279">
        <ele>7.9</ele>
        <time>2020-06-04T16:12:21Z</time>
      </trkpt>
      <trkpt lat="47.07549" lon="-2.02798">
        <ele>7.9</ele>
        <time>2020-06-04T16:12:22Z</time>
      </trkpt>
      <trkpt lat="47.07553" lon="-2.02805">
        <ele>8</ele>
        <time>2020-06-04T16:12:23Z</time>
      </trkpt>
      <trkpt lat="47.07555" lon="-2.02812">
        <ele>8.1</ele>
        <time>2020-06-04T16:12:24Z</time>
      </trkpt>
      <trkpt lat="47.07558" lon="-2.02819">
        <ele>8.2</ele>
        <time>2020-06-04T16:12:25Z</time>
      </trkpt>
      <trkpt lat="47.07561" lon="-2.02826">
        <ele>8.2</ele>
        <time>2020-06-04T16:12:26Z</time>
      </trkpt>
      <trkpt lat="47.07564" lon="-2.02833">
        <ele>8.3</ele>
        <time>2020-06-04T16:12:27Z</time>
      </trkpt>
      <trkpt lat="47.07567" lon="-2.02839">
        <ele>8.3</ele>
        <time>2020-06-04T16:12:28Z</time>
      </trkpt>
      <trkpt lat="47.0757" lon="-2.02848">
        <ele>8.4</ele>
        <time>2020-06-04T16:12:29Z</time>
      </trkpt>
      <trkpt lat="47.07572" lon="-2.02854">
        <ele>8.4</ele>
        <time>2020-06-04T16:12:30Z</time>
      </trkpt>
      <trkpt lat="47.07574" lon="-2.02862">
        <ele>8.5</ele>
        <time>2020-06-04T16:12:31Z</time>
      </trkpt>
      <trkpt lat="47.07578" lon="-2.0287">
        <ele>8.5</ele>
        <time>2020-06-04T16:12:32Z</time>
      </trkpt>
      <trkpt lat="47.07581" lon="-2.02877">
        <ele>8.5</ele>
        <time>2020-06-04T16:12:33Z</time>
      </trkpt>
      <trkpt lat="47.07584" lon="-2.02884">
        <ele>8.5</ele>
        <time>2020-06-04T16:12:34Z</time>
      </trkpt>
      <trkpt lat="47.07586" lon="-2.02889">
        <ele>8.6</ele>
        <time>2020-06-04T16:12:35Z</time>
      </trkpt>
      <trkpt lat="47.07588" lon="-2.02895">
        <ele>8.6</ele>
        <time>2020-06-04T16:12:36Z</time>
      </trkpt>
      <trkpt lat="47.0759" lon="-2.02902">
        <ele>8.6</ele>
        <time>2020-06-04T16:12:37Z</time>
      </trkpt>
      <trkpt lat="47.07594" lon="-2.02909">
        <ele>8.7</ele>
        <time>2020-06-04T16:12:38Z</time>
      </trkpt>
      <trkpt lat="47.07597" lon="-2.02915">
        <ele>8.7</ele>
        <time>2020-06-04T16:12:39Z</time>
      </trkpt>
      <trkpt lat="47.076" lon="-2.02921">
        <ele>8.7</ele>
        <time>2020-06-04T16:12:40Z</time>
      </trkpt>
      <trkpt lat="47.07603" lon="-2.02928">
        <ele>8.7</ele>
        <time>2020-06-04T16:12:41Z</time>
      </trkpt>
      <trkpt lat="47.07606" lon="-2.02935">
        <ele>8.7</ele>
        <time>2020-06-04T16:12:42Z</time>
      </trkpt>
      <trkpt lat="47.0761" lon="-2.02942">
        <ele>8.7</ele>
        <time>2020-06-04T16:12:43Z</time>
      </trkpt>
      <trkpt lat="47.07613" lon="-2.0295">
        <ele>8.7</ele>
        <time>2020-06-04T16:12:44Z</time>
      </trkpt>
      <trkpt lat="47.07615" lon="-2.02957">
        <ele>8.7</ele>
        <time>2020-06-04T16:12:45Z</time>
      </trkpt>
      <trkpt lat="47.07618" lon="-2.02964">
        <ele>8.7</ele>
        <time>2020-06-04T16:12:46Z</time>
      </trkpt>
      <trkpt lat="47.0762" lon="-2.02971">
        <ele>8.7</ele>
        <time>2020-06-04T16:12:47Z</time>
      </trkpt>
      <trkpt lat="47.07623" lon="-2.02979">
        <ele>8.7</ele>
        <time>2020-06-04T16:12:48Z</time>
      </trkpt>
      <trkpt lat="47.07626" lon="-2.02987">
        <ele>8.7</ele>
        <time>2020-06-04T16:12:49Z</time>
      </trkpt>
      <trkpt lat="47.07629" lon="-2.02994">
        <ele>8.7</ele>
        <time>2020-06-04T16:12:50Z</time>
      </trkpt>
      <trkpt lat="47.07632" lon="-2.03002">
        <ele>8.7</ele>
        <time>2020-06-04T16:12:51Z</time>
      </trkpt>
      <trkpt lat="47.07635" lon="-2.03009">
        <ele>8.7</ele>
        <time>2020-06-04T16:12:52Z</time>
      </trkpt>
      <trkpt lat="47.07638" lon="-2.03018">
        <ele>8.7</ele>
        <time>2020-06-04T16:12:53Z</time>
      </trkpt>
      <trkpt lat="47.07641" lon="-2.03025">
        <ele>8.7</ele>
        <time>2020-06-04T16:12:54Z</time>
      </trkpt>
      <trkpt lat="47.07644" lon="-2.03033">
        <ele>8.7</ele>
        <time>2020-06-04T16:12:55Z</time>
      </trkpt>
      <trkpt lat="47.07648" lon="-2.03041">
        <ele>8.7</ele>
        <time>2020-06-04T16:12:56Z</time>
      </trkpt>
      <trkpt lat="47.0765" lon="-2.03048">
        <ele>8.7</ele>
        <time>2020-06-04T16:12:57Z</time>
      </trkpt>
      <trkpt lat="47.07653" lon="-2.03054">
        <ele>8.7</ele>
        <time>2020-06-04T16:12:58Z</time>
      </trkpt>
      <trkpt lat="47.07656" lon="-2.03059">
        <ele>8.6</ele>
        <time>2020-06-04T16:12:59Z</time>
      </trkpt>
      <trkpt lat="47.07658" lon="-2.03065">
        <ele>8.5</ele>
        <time>2020-06-04T16:13:00Z</time>
      </trkpt>
      <trkpt lat="47.07661" lon="-2.03071">
        <ele>8.4</ele>
        <time>2020-06-04T16:13:01Z</time>
      </trkpt>
      <trkpt lat="47.07663" lon="-2.03077">
        <ele>8.4</ele>
        <time>2020-06-04T16:13:02Z</time>
      </trkpt>
      <trkpt lat="47.07666" lon="-2.03083">
        <ele>8.3</ele>
        <time>2020-06-04T16:13:03Z</time>
      </trkpt>
      <trkpt lat="47.07669" lon="-2.03089">
        <ele>8.2</ele>
        <time>2020-06-04T16:13:04Z</time>
      </trkpt>
      <trkpt lat="47.07671" lon="-2.03095">
        <ele>8.1</ele>
        <time>2020-06-04T16:13:05Z</time>
      </trkpt>
      <trkpt lat="47.07674" lon="-2.03101">
        <ele>8</ele>
        <time>2020-06-04T16:13:06Z</time>
      </trkpt>
      <trkpt lat="47.07677" lon="-2.03106">
        <ele>7.9</ele>
        <time>2020-06-04T16:13:07Z</time>
      </trkpt>
      <trkpt lat="47.0768" lon="-2.03112">
        <ele>7.9</ele>
        <time>2020-06-04T16:13:08Z</time>
      </trkpt>
      <trkpt lat="47.07683" lon="-2.03118">
        <ele>7.8</ele>
        <time>2020-06-04T16:13:09Z</time>
      </trkpt>
      <trkpt lat="47.07686" lon="-2.03124">
        <ele>7.7</ele>
        <time>2020-06-04T16:13:10Z</time>
      </trkpt>
      <trkpt lat="47.07689" lon="-2.0313">
        <ele>7.7</ele>
        <time>2020-06-04T16:13:11Z</time>
      </trkpt>
      <trkpt lat="47.0769" lon="-2.03137">
        <ele>7.6</ele>
        <time>2020-06-04T16:13:12Z</time>
      </trkpt>
      <trkpt lat="47.07691" lon="-2.03144">
        <ele>7.6</ele>
        <time>2020-06-04T16:13:13Z</time>
      </trkpt>
      <trkpt lat="47.07692" lon="-2.03148">
        <ele>7.6</ele>
        <time>2020-06-04T16:13:14Z</time>
      </trkpt>
      <trkpt lat="47.07688" lon="-2.03152">
        <ele>7.6</ele>
        <time>2020-06-04T16:13:15Z</time>
      </trkpt>
      <trkpt lat="47.07683" lon="-2.03157">
        <ele>7.5</ele>
        <time>2020-06-04T16:13:16Z</time>
      </trkpt>
      <trkpt lat="47.07678" lon="-2.03161">
        <ele>7.5</ele>
        <time>2020-06-04T16:13:17Z</time>
      </trkpt>
      <trkpt lat="47.07673" lon="-2.03165">
        <ele>7.5</ele>
        <time>2020-06-04T16:13:18Z</time>
      </trkpt>
      <trkpt lat="47.07669" lon="-2.0317">
        <ele>7.5</ele>
        <time>2020-06-04T16:13:19Z</time>
      </trkpt>
      <trkpt lat="47.07664" lon="-2.03174">
        <ele>7.5</ele>
        <time>2020-06-04T16:13:20Z</time>
      </trkpt>
      <trkpt lat="47.07659" lon="-2.03178">
        <ele>7.5</ele>
        <time>2020-06-04T16:13:21Z</time>
      </trkpt>
      <trkpt lat="47.07654" lon="-2.03182">
        <ele>7.5</ele>
        <time>2020-06-04T16:13:22Z</time>
      </trkpt>
      <trkpt lat="47.07648" lon="-2.03186">
        <ele>7.4</ele>
        <time>2020-06-04T16:13:23Z</time>
      </trkpt>
      <trkpt lat="47.07643" lon="-2.0319">
        <ele>7.4</ele>
        <time>2020-06-04T16:13:24Z</time>
      </trkpt>
      <trkpt lat="47.07638" lon="-2.03195">
        <ele>7.4</ele>
        <time>2020-06-04T16:13:25Z</time>
      </trkpt>
      <trkpt lat="47.07633" lon="-2.03199">
        <ele>7.4</ele>
        <time>2020-06-04T16:13:26Z</time>
      </trkpt>
      <trkpt lat="47.07628" lon="-2.03203">
        <ele>7.4</ele>
        <time>2020-06-04T16:13:27Z</time>
      </trkpt>
      <trkpt lat="47.07624" lon="-2.03207">
        <ele>7.4</ele>
        <time>2020-06-04T16:13:28Z</time>
      </trkpt>
      <trkpt lat="47.0762" lon="-2.0321">
        <ele>7.4</ele>
        <time>2020-06-04T16:13:29Z</time>
      </trkpt>
      <trkpt lat="47.07616" lon="-2.03212">
        <ele>7.4</ele>
        <time>2020-06-04T16:13:30Z</time>
      </trkpt>
      <trkpt lat="47.07611" lon="-2.03216">
        <ele>7.4</ele>
        <time>2020-06-04T16:13:31Z</time>
      </trkpt>
      <trkpt lat="47.07607" lon="-2.0322">
        <ele>7.4</ele>
        <time>2020-06-04T16:13:32Z</time>
      </trkpt>
      <trkpt lat="47.07602" lon="-2.03224">
        <ele>7.3</ele>
        <time>2020-06-04T16:13:33Z</time>
      </trkpt>
      <trkpt lat="47.07598" lon="-2.03229">
        <ele>7.3</ele>
        <time>2020-06-04T16:13:34Z</time>
      </trkpt>
      <trkpt lat="47.07594" lon="-2.03232">
        <ele>7.2</ele>
        <time>2020-06-04T16:13:35Z</time>
      </trkpt>
      <trkpt lat="47.07591" lon="-2.03235">
        <ele>7.2</ele>
        <time>2020-06-04T16:13:36Z</time>
      </trkpt>
      <trkpt lat="47.07589" lon="-2.03238">
        <ele>7.2</ele>
        <time>2020-06-04T16:13:37Z</time>
      </trkpt>
      <trkpt lat="47.07589" lon="-2.0324">
        <ele>7.2</ele>
        <time>2020-06-04T16:13:38Z</time>
      </trkpt>
      <trkpt lat="47.07588" lon="-2.0324">
        <ele>7.2</ele>
        <time>2020-06-04T16:13:39Z</time>
      </trkpt>
      <trkpt lat="47.07587" lon="-2.03242">
        <ele>7.2</ele>
        <time>2020-06-04T16:13:40Z</time>
      </trkpt>
      <trkpt lat="47.07586" lon="-2.03241">
        <ele>7.2</ele>
        <time>2020-06-04T16:13:41Z</time>
      </trkpt>
      <trkpt lat="47.07585" lon="-2.03239">
        <ele>7.2</ele>
        <time>2020-06-04T16:13:42Z</time>
      </trkpt>
      <trkpt lat="47.07584" lon="-2.03234">
        <ele>7.2</ele>
        <time>2020-06-04T16:13:43Z</time>
      </trkpt>
      <trkpt lat="47.07583" lon="-2.0323">
        <ele>7.2</ele>
        <time>2020-06-04T16:13:44Z</time>
      </trkpt>
      <trkpt lat="47.07582" lon="-2.03229">
        <ele>7.2</ele>
        <time>2020-06-04T16:13:45Z</time>
      </trkpt>
      <trkpt lat="47.0758" lon="-2.03224">
        <ele>7.2</ele>
        <time>2020-06-04T16:13:46Z</time>
      </trkpt>
      <trkpt lat="47.07578" lon="-2.03219">
        <ele>7.3</ele>
        <time>2020-06-04T16:13:47Z</time>
      </trkpt>
      <trkpt lat="47.07576" lon="-2.03215">
        <ele>7.3</ele>
        <time>2020-06-04T16:13:48Z</time>
      </trkpt>
      <trkpt lat="47.07575" lon="-2.03211">
        <ele>7.3</ele>
        <time>2020-06-04T16:13:49Z</time>
      </trkpt>
      <trkpt lat="47.07573" lon="-2.03207">
        <ele>7.3</ele>
        <time>2020-06-04T16:13:50Z</time>
      </trkpt>
      <trkpt lat="47.07572" lon="-2.03203">
        <ele>7.3</ele>
        <time>2020-06-04T16:13:51Z</time>
      </trkpt>
      <trkpt lat="47.07571" lon="-2.03199">
        <ele>7.3</ele>
        <time>2020-06-04T16:13:52Z</time>
      </trkpt>
      <trkpt lat="47.0757" lon="-2.03195">
        <ele>7.3</ele>
        <time>2020-06-04T16:13:53Z</time>
      </trkpt>
      <trkpt lat="47.07569" lon="-2.03191">
        <ele>7.4</ele>
        <time>2020-06-04T16:13:54Z</time>
      </trkpt>
      <trkpt lat="47.07567" lon="-2.03187">
        <ele>7.4</ele>
        <time>2020-06-04T16:13:55Z</time>
      </trkpt>
      <trkpt lat="47.07565" lon="-2.03183">
        <ele>7.4</ele>
        <time>2020-06-04T16:13:56Z</time>
      </trkpt>
      <trkpt lat="47.07562" lon="-2.0318">
        <ele>7.4</ele>
        <time>2020-06-04T16:13:57Z</time>
      </trkpt>
      <trkpt lat="47.07559" lon="-2.03181">
        <ele>7.4</ele>
        <time>2020-06-04T16:13:58Z</time>
      </trkpt>
      <trkpt lat="47.07556" lon="-2.03184">
        <ele>7.4</ele>
        <time>2020-06-04T16:13:59Z</time>
      </trkpt>
      <trkpt lat="47.07553" lon="-2.03186">
        <ele>7.4</ele>
        <time>2020-06-04T16:14:00Z</time>
      </trkpt>
      <trkpt lat="47.0755" lon="-2.03189">
        <ele>7.3</ele>
        <time>2020-06-04T16:14:01Z</time>
      </trkpt>
      <trkpt lat="47.07547" lon="-2.03192">
        <ele>7.3</ele>
        <time>2020-06-04T16:14:02Z</time>
      </trkpt>
      <trkpt lat="47.07544" lon="-2.03197">
        <ele>7.2</ele>
        <time>2020-06-04T16:14:03Z</time>
      </trkpt>
      <trkpt lat="47.07542" lon="-2.03201">
        <ele>7.1</ele>
        <time>2020-06-04T16:14:04Z</time>
      </trkpt>
      <trkpt lat="47.07538" lon="-2.03205">
        <ele>7</ele>
        <time>2020-06-04T16:14:05Z</time>
      </trkpt>
      <trkpt lat="47.07535" lon="-2.0321">
        <ele>6.9</ele>
        <time>2020-06-04T16:14:06Z</time>
      </trkpt>
      <trkpt lat="47.07531" lon="-2.03214">
        <ele>6.8</ele>
        <time>2020-06-04T16:14:07Z</time>
      </trkpt>
      <trkpt lat="47.07528" lon="-2.03219">
        <ele>6.6</ele>
        <time>2020-06-04T16:14:08Z</time>
      </trkpt>
      <trkpt lat="47.07525" lon="-2.03225">
        <ele>6.5</ele>
        <time>2020-06-04T16:14:09Z</time>
      </trkpt>
      <trkpt lat="47.07521" lon="-2.03229">
        <ele>6.3</ele>
        <time>2020-06-04T16:14:10Z</time>
      </trkpt>
      <trkpt lat="47.07517" lon="-2.03235">
        <ele>6.2</ele>
        <time>2020-06-04T16:14:11Z</time>
      </trkpt>
      <trkpt lat="47.07515" lon="-2.0324">
        <ele>6</ele>
        <time>2020-06-04T16:14:12Z</time>
      </trkpt>
      <trkpt lat="47.07512" lon="-2.03244">
        <ele>5.9</ele>
        <time>2020-06-04T16:14:13Z</time>
      </trkpt>
      <trkpt lat="47.07509" lon="-2.03249">
        <ele>5.7</ele>
        <time>2020-06-04T16:14:14Z</time>
      </trkpt>
      <trkpt lat="47.07504" lon="-2.03253">
        <ele>5.6</ele>
        <time>2020-06-04T16:14:15Z</time>
      </trkpt>
      <trkpt lat="47.07502" lon="-2.03256">
        <ele>5.5</ele>
        <time>2020-06-04T16:14:16Z</time>
      </trkpt>
      <trkpt lat="47.075" lon="-2.0326">
        <ele>5.3</ele>
        <time>2020-06-04T16:14:17Z</time>
      </trkpt>
      <trkpt lat="47.07497" lon="-2.03262">
        <ele>5.2</ele>
        <time>2020-06-04T16:14:18Z</time>
      </trkpt>
      <trkpt lat="47.07493" lon="-2.03267">
        <ele>5.1</ele>
        <time>2020-06-04T16:14:19Z</time>
      </trkpt>
      <trkpt lat="47.0749" lon="-2.03272">
        <ele>4.9</ele>
        <time>2020-06-04T16:14:20Z</time>
      </trkpt>
      <trkpt lat="47.07487" lon="-2.03277">
        <ele>4.8</ele>
        <time>2020-06-04T16:14:21Z</time>
      </trkpt>
      <trkpt lat="47.07484" lon="-2.03281">
        <ele>4.6</ele>
        <time>2020-06-04T16:14:22Z</time>
      </trkpt>
      <trkpt lat="47.0748" lon="-2.03285">
        <ele>4.4</ele>
        <time>2020-06-04T16:14:23Z</time>
      </trkpt>
      <trkpt lat="47.07476" lon="-2.03288">
        <ele>4.3</ele>
        <time>2020-06-04T16:14:24Z</time>
      </trkpt>
      <trkpt lat="47.07473" lon="-2.03292">
        <ele>4.1</ele>
        <time>2020-06-04T16:14:25Z</time>
      </trkpt>
      <trkpt lat="47.0747" lon="-2.03294">
        <ele>4</ele>
        <time>2020-06-04T16:14:26Z</time>
      </trkpt>
      <trkpt lat="47.07467" lon="-2.03298">
        <ele>3.8</ele>
        <time>2020-06-04T16:14:27Z</time>
      </trkpt>
      <trkpt lat="47.07464" lon="-2.03301">
        <ele>3.7</ele>
        <time>2020-06-04T16:14:28Z</time>
      </trkpt>
      <trkpt lat="47.07462" lon="-2.03305">
        <ele>3.6</ele>
        <time>2020-06-04T16:14:29Z</time>
      </trkpt>
      <trkpt lat="47.07459" lon="-2.03308">
        <ele>3.4</ele>
        <time>2020-06-04T16:14:30Z</time>
      </trkpt>
      <trkpt lat="47.07458" lon="-2.03309">
        <ele>3.4</ele>
        <time>2020-06-04T16:14:31Z</time>
      </trkpt>
      <trkpt lat="47.07457" lon="-2.03313">
        <ele>3.2</ele>
        <time>2020-06-04T16:14:32Z</time>
      </trkpt>
      <trkpt lat="47.07456" lon="-2.03314">
        <ele>3.2</ele>
        <time>2020-06-04T16:14:33Z</time>
      </trkpt>
      <trkpt lat="47.07453" lon="-2.03315">
        <ele>3.1</ele>
        <time>2020-06-04T16:14:34Z</time>
      </trkpt>
      <trkpt lat="47.07452" lon="-2.03315">
        <ele>3</ele>
        <time>2020-06-04T16:14:35Z</time>
      </trkpt>
      <trkpt lat="47.07451" lon="-2.03315">
        <ele>3</ele>
        <time>2020-06-04T16:14:36Z</time>
      </trkpt>
      <trkpt lat="47.07451" lon="-2.03314">
        <ele>3</ele>
        <time>2020-06-04T16:14:37Z</time>
      </trkpt>
      <trkpt lat="47.07451" lon="-2.03312">
        <ele>2.9</ele>
        <time>2020-06-04T16:14:38Z</time>
      </trkpt>
      <trkpt lat="47.07451" lon="-2.03311">
        <ele>2.9</ele>
        <time>2020-06-04T16:14:39Z</time>
      </trkpt>
      <trkpt lat="47.07452" lon="-2.03309">
        <ele>2.9</ele>
        <time>2020-06-04T16:14:40Z</time>
      </trkpt>
      <trkpt lat="47.07453" lon="-2.03307">
        <ele>2.8</ele>
        <time>2020-06-04T16:14:41Z</time>
      </trkpt>
      <trkpt lat="47.07456" lon="-2.03305">
        <ele>2.9</ele>
        <time>2020-06-04T16:14:42Z</time>
      </trkpt>
      <trkpt lat="47.07459" lon="-2.03302">
        <ele>3</ele>
        <time>2020-06-04T16:14:43Z</time>
      </trkpt>
      <trkpt lat="47.0746" lon="-2.03301">
        <ele>3.1</ele>
        <time>2020-06-04T16:14:44Z</time>
      </trkpt>
      <trkpt lat="47.07462" lon="-2.03298">
        <ele>3.2</ele>
        <time>2020-06-04T16:14:45Z</time>
      </trkpt>
      <trkpt lat="47.07466" lon="-2.03294">
        <ele>3.4</ele>
        <time>2020-06-04T16:14:46Z</time>
      </trkpt>
      <trkpt lat="47.07468" lon="-2.03291">
        <ele>3.5</ele>
        <time>2020-06-04T16:14:47Z</time>
      </trkpt>
      <trkpt lat="47.07471" lon="-2.03286">
        <ele>3.7</ele>
        <time>2020-06-04T16:14:48Z</time>
      </trkpt>
      <trkpt lat="47.07474" lon="-2.03283">
        <ele>3.9</ele>
        <time>2020-06-04T16:14:49Z</time>
      </trkpt>
      <trkpt lat="47.07476" lon="-2.03278">
        <ele>4</ele>
        <time>2020-06-04T16:14:50Z</time>
      </trkpt>
      <trkpt lat="47.07479" lon="-2.03274">
        <ele>4.2</ele>
        <time>2020-06-04T16:14:51Z</time>
      </trkpt>
      <trkpt lat="47.07482" lon="-2.0327">
        <ele>4.4</ele>
        <time>2020-06-04T16:14:52Z</time>
      </trkpt>
      <trkpt lat="47.07486" lon="-2.03266">
        <ele>4.5</ele>
        <time>2020-06-04T16:14:53Z</time>
      </trkpt>
      <trkpt lat="47.07489" lon="-2.03263">
        <ele>4.7</ele>
        <time>2020-06-04T16:14:54Z</time>
      </trkpt>
      <trkpt lat="47.07491" lon="-2.03259">
        <ele>4.8</ele>
        <time>2020-06-04T16:14:55Z</time>
      </trkpt>
      <trkpt lat="47.07494" lon="-2.03256">
        <ele>4.9</ele>
        <time>2020-06-04T16:14:56Z</time>
      </trkpt>
      <trkpt lat="47.07497" lon="-2.03252">
        <ele>5.1</ele>
        <time>2020-06-04T16:14:57Z</time>
      </trkpt>
      <trkpt lat="47.075" lon="-2.03247">
        <ele>5.2</ele>
        <time>2020-06-04T16:14:58Z</time>
      </trkpt>
      <trkpt lat="47.07504" lon="-2.03245">
        <ele>5.4</ele>
        <time>2020-06-04T16:14:59Z</time>
      </trkpt>
      <trkpt lat="47.07507" lon="-2.03241">
        <ele>5.5</ele>
        <time>2020-06-04T16:15:00Z</time>
      </trkpt>
      <trkpt lat="47.07511" lon="-2.03237">
        <ele>5.7</ele>
        <time>2020-06-04T16:15:01Z</time>
      </trkpt>
      <trkpt lat="47.07515" lon="-2.03234">
        <ele>5.8</ele>
        <time>2020-06-04T16:15:02Z</time>
      </trkpt>
      <trkpt lat="47.07518" lon="-2.03229">
        <ele>6</ele>
        <time>2020-06-04T16:15:03Z</time>
      </trkpt>
      <trkpt lat="47.07522" lon="-2.03224">
        <ele>6.1</ele>
        <time>2020-06-04T16:15:04Z</time>
      </trkpt>
      <trkpt lat="47.07526" lon="-2.0322">
        <ele>6.3</ele>
        <time>2020-06-04T16:15:05Z</time>
      </trkpt>
      <trkpt lat="47.07529" lon="-2.03215">
        <ele>6.5</ele>
        <time>2020-06-04T16:15:06Z</time>
      </trkpt>
      <trkpt lat="47.07533" lon="-2.03211">
        <ele>6.6</ele>
        <time>2020-06-04T16:15:07Z</time>
      </trkpt>
      <trkpt lat="47.07535" lon="-2.03206">
        <ele>6.7</ele>
        <time>2020-06-04T16:15:08Z</time>
      </trkpt>
      <trkpt lat="47.07538" lon="-2.03202">
        <ele>6.8</ele>
        <time>2020-06-04T16:15:09Z</time>
      </trkpt>
      <trkpt lat="47.0754" lon="-2.03199">
        <ele>6.9</ele>
        <time>2020-06-04T16:15:10Z</time>
      </trkpt>
      <trkpt lat="47.07543" lon="-2.03195">
        <ele>7</ele>
        <time>2020-06-04T16:15:11Z</time>
      </trkpt>
      <trkpt lat="47.07545" lon="-2.0319">
        <ele>7.1</ele>
        <time>2020-06-04T16:15:12Z</time>
      </trkpt>
      <trkpt lat="47.07547" lon="-2.03187">
        <ele>7.2</ele>
        <time>2020-06-04T16:15:13Z</time>
      </trkpt>
      <trkpt lat="47.07549" lon="-2.03183">
        <ele>7.3</ele>
        <time>2020-06-04T16:15:14Z</time>
      </trkpt>
      <trkpt lat="47.07551" lon="-2.03181">
        <ele>7.3</ele>
        <time>2020-06-04T16:15:15Z</time>
      </trkpt>
      <trkpt lat="47.07554" lon="-2.0318">
        <ele>7.4</ele>
        <time>2020-06-04T16:15:16Z</time>
      </trkpt>
      <trkpt lat="47.07558" lon="-2.0318">
        <ele>7.5</ele>
        <time>2020-06-04T16:15:17Z</time>
      </trkpt>
      <trkpt lat="47.07562" lon="-2.03181">
        <ele>7.4</ele>
        <time>2020-06-04T16:15:18Z</time>
      </trkpt>
      <trkpt lat="47.07563" lon="-2.03181">
        <ele>7.4</ele>
        <time>2020-06-04T16:15:19Z</time>
      </trkpt>
      <trkpt lat="47.07566" lon="-2.03183">
        <ele>7.4</ele>
        <time>2020-06-04T16:15:20Z</time>
      </trkpt>
      <trkpt lat="47.07567" lon="-2.03183">
        <ele>7.4</ele>
        <time>2020-06-04T16:15:21Z</time>
      </trkpt>
      <trkpt lat="47.07569" lon="-2.03184">
        <ele>7.4</ele>
        <time>2020-06-04T16:15:22Z</time>
      </trkpt>
      <trkpt lat="47.0757" lon="-2.03185">
        <ele>7.4</ele>
        <time>2020-06-04T16:15:23Z</time>
      </trkpt>
      <trkpt lat="47.07572" lon="-2.03187">
        <ele>7.3</ele>
        <time>2020-06-04T16:15:24Z</time>
      </trkpt>
      <trkpt lat="47.07573" lon="-2.03188">
        <ele>7.3</ele>
        <time>2020-06-04T16:15:25Z</time>
      </trkpt>
      <trkpt lat="47.07574" lon="-2.03188">
        <ele>7.3</ele>
        <time>2020-06-04T16:15:26Z</time>
      </trkpt>
      <trkpt lat="47.07575" lon="-2.03189">
        <ele>7.3</ele>
        <time>2020-06-04T16:15:27Z</time>
      </trkpt>
      <trkpt lat="47.07576" lon="-2.03189">
        <ele>7.3</ele>
        <time>2020-06-04T16:15:28Z</time>
      </trkpt>
      <trkpt lat="47.07576" lon="-2.0319">
        <ele>7.3</ele>
        <time>2020-06-04T16:15:29Z</time>
      </trkpt>
      <trkpt lat="47.07577" lon="-2.0319">
        <ele>7.3</ele>
        <time>2020-06-04T16:15:30Z</time>
      </trkpt>
      <trkpt lat="47.07577" lon="-2.03192">
        <ele>7.3</ele>
        <time>2020-06-04T16:15:31Z</time>
      </trkpt>
      <trkpt lat="47.07578" lon="-2.03193">
        <ele>7.3</ele>
        <time>2020-06-04T16:15:32Z</time>
      </trkpt>
      <trkpt lat="47.07578" lon="-2.03193">
        <ele>7.3</ele>
        <time>2020-06-04T16:15:33Z</time>
      </trkpt>
      <trkpt lat="47.07578" lon="-2.03195">
        <ele>7.3</ele>
        <time>2020-06-04T16:15:34Z</time>
      </trkpt>
      <trkpt lat="47.07578" lon="-2.03195">
        <ele>7.3</ele>
        <time>2020-06-04T16:15:35Z</time>
      </trkpt>
      <trkpt lat="47.07578" lon="-2.03195">
        <ele>7.3</ele>
        <time>2020-06-04T16:15:36Z</time>
      </trkpt>
      <trkpt lat="47.07578" lon="-2.03195">
        <ele>7.3</ele>
        <time>2020-06-04T16:15:37Z</time>
      </trkpt>
      <trkpt lat="47.07578" lon="-2.03195">
        <ele>7.3</ele>
        <time>2020-06-04T16:15:38Z</time>
      </trkpt>
      <trkpt lat="47.07578" lon="-2.03195">
        <ele>7.3</ele>
        <time>2020-06-04T16:15:39Z</time>
      </trkpt>
      <trkpt lat="47.07578" lon="-2.03195">
        <ele>7.3</ele>
        <time>2020-06-04T16:15:40Z</time>
      </trkpt>
      <trkpt lat="47.07578" lon="-2.03195">
        <ele>7.3</ele>
        <time>2020-06-04T16:15:41Z</time>
      </trkpt>
      <trkpt lat="47.07578" lon="-2.03196">
        <ele>7.3</ele>
        <time>2020-06-04T16:15:42Z</time>
      </trkpt>
      <trkpt lat="47.07578" lon="-2.03196">
        <ele>7.3</ele>
        <time>2020-06-04T16:15:43Z</time>
      </trkpt>
      <trkpt lat="47.07581" lon="-2.03209">
        <ele>7.2</ele>
        <time>2020-06-04T16:21:07Z</time>
      </trkpt>
      <trkpt lat="47.07583" lon="-2.03214">
        <ele>7.2</ele>
        <time>2020-06-04T16:21:08Z</time>
      </trkpt>
      <trkpt lat="47.07584" lon="-2.03219">
        <ele>7.2</ele>
        <time>2020-06-04T16:21:09Z</time>
      </trkpt>
      <trkpt lat="47.07587" lon="-2.03223">
        <ele>7.2</ele>
        <time>2020-06-04T16:21:10Z</time>
      </trkpt>
      <trkpt lat="47.07588" lon="-2.03227">
        <ele>7.2</ele>
        <time>2020-06-04T16:21:11Z</time>
      </trkpt>
      <trkpt lat="47.0759" lon="-2.03232">
        <ele>7.2</ele>
        <time>2020-06-04T16:21:12Z</time>
      </trkpt>
      <trkpt lat="47.07592" lon="-2.03236">
        <ele>7.1</ele>
        <time>2020-06-04T16:21:13Z</time>
      </trkpt>
      <trkpt lat="47.07593" lon="-2.03241">
        <ele>7.1</ele>
        <time>2020-06-04T16:21:14Z</time>
      </trkpt>
      <trkpt lat="47.07595" lon="-2.03247">
        <ele>7.1</ele>
        <time>2020-06-04T16:21:15Z</time>
      </trkpt>
      <trkpt lat="47.07597" lon="-2.03252">
        <ele>7</ele>
        <time>2020-06-04T16:21:16Z</time>
      </trkpt>
      <trkpt lat="47.07598" lon="-2.03258">
        <ele>7</ele>
        <time>2020-06-04T16:21:17Z</time>
      </trkpt>
      <trkpt lat="47.07601" lon="-2.03263">
        <ele>7</ele>
        <time>2020-06-04T16:21:18Z</time>
      </trkpt>
      <trkpt lat="47.07603" lon="-2.03268">
        <ele>6.9</ele>
        <time>2020-06-04T16:21:19Z</time>
      </trkpt>
      <trkpt lat="47.07605" lon="-2.03274">
        <ele>6.9</ele>
        <time>2020-06-04T16:21:20Z</time>
      </trkpt>
      <trkpt lat="47.07606" lon="-2.0328">
        <ele>6.8</ele>
        <time>2020-06-04T16:21:21Z</time>
      </trkpt>
      <trkpt lat="47.07608" lon="-2.03285">
        <ele>6.8</ele>
        <time>2020-06-04T16:21:22Z</time>
      </trkpt>
      <trkpt lat="47.07609" lon="-2.03291">
        <ele>6.7</ele>
        <time>2020-06-04T16:21:23Z</time>
      </trkpt>
      <trkpt lat="47.07611" lon="-2.03298">
        <ele>6.7</ele>
        <time>2020-06-04T16:21:24Z</time>
      </trkpt>
      <trkpt lat="47.07614" lon="-2.03304">
        <ele>6.6</ele>
        <time>2020-06-04T16:21:25Z</time>
      </trkpt>
      <trkpt lat="47.07617" lon="-2.03308">
        <ele>6.6</ele>
        <time>2020-06-04T16:21:26Z</time>
      </trkpt>
      <trkpt lat="47.07619" lon="-2.03313">
        <ele>6.5</ele>
        <time>2020-06-04T16:21:27Z</time>
      </trkpt>
      <trkpt lat="47.07621" lon="-2.03318">
        <ele>6.5</ele>
        <time>2020-06-04T16:21:28Z</time>
      </trkpt>
      <trkpt lat="47.07623" lon="-2.03323">
        <ele>6.5</ele>
        <time>2020-06-04T16:21:29Z</time>
      </trkpt>
      <trkpt lat="47.07625" lon="-2.03328">
        <ele>6.4</ele>
        <time>2020-06-04T16:21:30Z</time>
      </trkpt>
      <trkpt lat="47.07628" lon="-2.03333">
        <ele>6.4</ele>
        <time>2020-06-04T16:21:31Z</time>
      </trkpt>
      <trkpt lat="47.0763" lon="-2.03339">
        <ele>6.4</ele>
        <time>2020-06-04T16:21:32Z</time>
      </trkpt>
      <trkpt lat="47.07632" lon="-2.03346">
        <ele>6.4</ele>
        <time>2020-06-04T16:21:33Z</time>
      </trkpt>
      <trkpt lat="47.07635" lon="-2.03352">
        <ele>6.3</ele>
        <time>2020-06-04T16:21:34Z</time>
      </trkpt>
      <trkpt lat="47.07637" lon="-2.03358">
        <ele>6.3</ele>
        <time>2020-06-04T16:21:35Z</time>
      </trkpt>
      <trkpt lat="47.07639" lon="-2.03365">
        <ele>6.3</ele>
        <time>2020-06-04T16:21:36Z</time>
      </trkpt>
      <trkpt lat="47.07641" lon="-2.0337">
        <ele>6.2</ele>
        <time>2020-06-04T16:21:37Z</time>
      </trkpt>
      <trkpt lat="47.07643" lon="-2.03377">
        <ele>6.2</ele>
        <time>2020-06-04T16:21:38Z</time>
      </trkpt>
      <trkpt lat="47.07645" lon="-2.03384">
        <ele>6.2</ele>
        <time>2020-06-04T16:21:39Z</time>
      </trkpt>
      <trkpt lat="47.07647" lon="-2.03391">
        <ele>6.1</ele>
        <time>2020-06-04T16:21:40Z</time>
      </trkpt>
      <trkpt lat="47.0765" lon="-2.03397">
        <ele>6.1</ele>
        <time>2020-06-04T16:21:41Z</time>
      </trkpt>
      <trkpt lat="47.07652" lon="-2.03404">
        <ele>6.1</ele>
        <time>2020-06-04T16:21:42Z</time>
      </trkpt>
      <trkpt lat="47.07655" lon="-2.03411">
        <ele>6.1</ele>
        <time>2020-06-04T16:21:43Z</time>
      </trkpt>
      <trkpt lat="47.07658" lon="-2.03418">
        <ele>6.1</ele>
        <time>2020-06-04T16:21:44Z</time>
      </trkpt>
      <trkpt lat="47.0766" lon="-2.03424">
        <ele>6.1</ele>
        <time>2020-06-04T16:21:45Z</time>
      </trkpt>
      <trkpt lat="47.07663" lon="-2.03429">
        <ele>6.1</ele>
        <time>2020-06-04T16:21:46Z</time>
      </trkpt>
      <trkpt lat="47.07665" lon="-2.03434">
        <ele>6.1</ele>
        <time>2020-06-04T16:21:47Z</time>
      </trkpt>
      <trkpt lat="47.07668" lon="-2.03439">
        <ele>6</ele>
        <time>2020-06-04T16:21:48Z</time>
      </trkpt>
      <trkpt lat="47.07671" lon="-2.03445">
        <ele>6</ele>
        <time>2020-06-04T16:21:49Z</time>
      </trkpt>
      <trkpt lat="47.07673" lon="-2.0345">
        <ele>6</ele>
        <time>2020-06-04T16:21:50Z</time>
      </trkpt>
      <trkpt lat="47.07676" lon="-2.03455">
        <ele>5.9</ele>
        <time>2020-06-04T16:21:51Z</time>
      </trkpt>
      <trkpt lat="47.07679" lon="-2.03459">
        <ele>5.9</ele>
        <time>2020-06-04T16:21:52Z</time>
      </trkpt>
      <trkpt lat="47.07682" lon="-2.03463">
        <ele>5.9</ele>
        <time>2020-06-04T16:21:53Z</time>
      </trkpt>
      <trkpt lat="47.07686" lon="-2.03468">
        <ele>5.9</ele>
        <time>2020-06-04T16:21:54Z</time>
      </trkpt>
      <trkpt lat="47.07689" lon="-2.03472">
        <ele>5.8</ele>
        <time>2020-06-04T16:21:55Z</time>
      </trkpt>
      <trkpt lat="47.07693" lon="-2.03477">
        <ele>5.8</ele>
        <time>2020-06-04T16:21:56Z</time>
      </trkpt>
      <trkpt lat="47.07699" lon="-2.03478">
        <ele>5.8</ele>
        <time>2020-06-04T16:21:57Z</time>
      </trkpt>
      <trkpt lat="47.07703" lon="-2.03481">
        <ele>5.8</ele>
        <time>2020-06-04T16:21:58Z</time>
      </trkpt>
      <trkpt lat="47.07707" lon="-2.03483">
        <ele>5.7</ele>
        <time>2020-06-04T16:21:59Z</time>
      </trkpt>
      <trkpt lat="47.0771" lon="-2.03486">
        <ele>5.7</ele>
        <time>2020-06-04T16:22:00Z</time>
      </trkpt>
      <trkpt lat="47.07714" lon="-2.0349">
        <ele>5.7</ele>
        <time>2020-06-04T16:22:01Z</time>
      </trkpt>
      <trkpt lat="47.07717" lon="-2.03493">
        <ele>5.7</ele>
        <time>2020-06-04T16:22:02Z</time>
      </trkpt>
      <trkpt lat="47.0772" lon="-2.03496">
        <ele>5.7</ele>
        <time>2020-06-04T16:22:03Z</time>
      </trkpt>
      <trkpt lat="47.07723" lon="-2.03499">
        <ele>5.6</ele>
        <time>2020-06-04T16:22:04Z</time>
      </trkpt>
      <trkpt lat="47.07727" lon="-2.03505">
        <ele>5.6</ele>
        <time>2020-06-04T16:22:05Z</time>
      </trkpt>
      <trkpt lat="47.07731" lon="-2.03509">
        <ele>5.6</ele>
        <time>2020-06-04T16:22:06Z</time>
      </trkpt>
      <trkpt lat="47.07736" lon="-2.03514">
        <ele>5.6</ele>
        <time>2020-06-04T16:22:07Z</time>
      </trkpt>
      <trkpt lat="47.07739" lon="-2.03518">
        <ele>5.6</ele>
        <time>2020-06-04T16:22:08Z</time>
      </trkpt>
      <trkpt lat="47.07742" lon="-2.03522">
        <ele>5.7</ele>
        <time>2020-06-04T16:22:09Z</time>
      </trkpt>
      <trkpt lat="47.07746" lon="-2.03524">
        <ele>5.7</ele>
        <time>2020-06-04T16:22:10Z</time>
      </trkpt>
      <trkpt lat="47.07749" lon="-2.03528">
        <ele>5.8</ele>
        <time>2020-06-04T16:22:11Z</time>
      </trkpt>
      <trkpt lat="47.07753" lon="-2.03532">
        <ele>5.8</ele>
        <time>2020-06-04T16:22:12Z</time>
      </trkpt>
      <trkpt lat="47.07756" lon="-2.03535">
        <ele>5.9</ele>
        <time>2020-06-04T16:22:13Z</time>
      </trkpt>
      <trkpt lat="47.07758" lon="-2.03537">
        <ele>5.9</ele>
        <time>2020-06-04T16:22:14Z</time>
      </trkpt>
      <trkpt lat="47.07761" lon="-2.03541">
        <ele>5.9</ele>
        <time>2020-06-04T16:22:15Z</time>
      </trkpt>
      <trkpt lat="47.07765" lon="-2.03545">
        <ele>6</ele>
        <time>2020-06-04T16:22:16Z</time>
      </trkpt>
      <trkpt lat="47.07768" lon="-2.03549">
        <ele>6</ele>
        <time>2020-06-04T16:22:17Z</time>
      </trkpt>
      <trkpt lat="47.07772" lon="-2.03554">
        <ele>6.1</ele>
        <time>2020-06-04T16:22:18Z</time>
      </trkpt>
      <trkpt lat="47.07776" lon="-2.03557">
        <ele>6.2</ele>
        <time>2020-06-04T16:22:19Z</time>
      </trkpt>
      <trkpt lat="47.0778" lon="-2.0356">
        <ele>6.2</ele>
        <time>2020-06-04T16:22:20Z</time>
      </trkpt>
      <trkpt lat="47.07783" lon="-2.03563">
        <ele>6.2</ele>
        <time>2020-06-04T16:22:21Z</time>
      </trkpt>
      <trkpt lat="47.07787" lon="-2.03568">
        <ele>6.2</ele>
        <time>2020-06-04T16:22:22Z</time>
      </trkpt>
      <trkpt lat="47.07791" lon="-2.03571">
        <ele>6.2</ele>
        <time>2020-06-04T16:22:23Z</time>
      </trkpt>
      <trkpt lat="47.07795" lon="-2.03574">
        <ele>6.2</ele>
        <time>2020-06-04T16:22:24Z</time>
      </trkpt>
      <trkpt lat="47.07798" lon="-2.03576">
        <ele>6.1</ele>
        <time>2020-06-04T16:22:25Z</time>
      </trkpt>
      <trkpt lat="47.07801" lon="-2.03578">
        <ele>6.1</ele>
        <time>2020-06-04T16:22:26Z</time>
      </trkpt>
      <trkpt lat="47.07804" lon="-2.03579">
        <ele>6.1</ele>
        <time>2020-06-04T16:22:27Z</time>
      </trkpt>
      <trkpt lat="47.07806" lon="-2.03581">
        <ele>6.1</ele>
        <time>2020-06-04T16:22:28Z</time>
      </trkpt>
      <trkpt lat="47.07807" lon="-2.03587">
        <ele>6.1</ele>
        <time>2020-06-04T16:22:29Z</time>
      </trkpt>
      <trkpt lat="47.07806" lon="-2.03589">
        <ele>6.1</ele>
        <time>2020-06-04T16:22:30Z</time>
      </trkpt>
      <trkpt lat="47.07804" lon="-2.03595">
        <ele>6</ele>
        <time>2020-06-04T16:22:31Z</time>
      </trkpt>
      <trkpt lat="47.07804" lon="-2.03596">
        <ele>6</ele>
        <time>2020-06-04T16:22:32Z</time>
      </trkpt>
      <trkpt lat="47.07802" lon="-2.036">
        <ele>6</ele>
        <time>2020-06-04T16:22:33Z</time>
      </trkpt>
      <trkpt lat="47.078" lon="-2.03604">
        <ele>5.9</ele>
        <time>2020-06-04T16:22:34Z</time>
      </trkpt>
      <trkpt lat="47.07798" lon="-2.03609">
        <ele>5.8</ele>
        <time>2020-06-04T16:22:35Z</time>
      </trkpt>
      <trkpt lat="47.07796" lon="-2.03615">
        <ele>5.8</ele>
        <time>2020-06-04T16:22:36Z</time>
      </trkpt>
      <trkpt lat="47.07793" lon="-2.0362">
        <ele>5.7</ele>
        <time>2020-06-04T16:22:37Z</time>
      </trkpt>
      <trkpt lat="47.0779" lon="-2.03624">
        <ele>5.6</ele>
        <time>2020-06-04T16:22:38Z</time>
      </trkpt>
      <trkpt lat="47.07788" lon="-2.03628">
        <ele>5.5</ele>
        <time>2020-06-04T16:22:39Z</time>
      </trkpt>
      <trkpt lat="47.07785" lon="-2.03632">
        <ele>5.5</ele>
        <time>2020-06-04T16:22:40Z</time>
      </trkpt>
      <trkpt lat="47.07782" lon="-2.03637">
        <ele>5.4</ele>
        <time>2020-06-04T16:22:41Z</time>
      </trkpt>
      <trkpt lat="47.07779" lon="-2.03642">
        <ele>5.3</ele>
        <time>2020-06-04T16:22:42Z</time>
      </trkpt>
      <trkpt lat="47.07776" lon="-2.03647">
        <ele>5.2</ele>
        <time>2020-06-04T16:22:43Z</time>
      </trkpt>
      <trkpt lat="47.07774" lon="-2.03651">
        <ele>5.1</ele>
        <time>2020-06-04T16:22:44Z</time>
      </trkpt>
      <trkpt lat="47.07772" lon="-2.03657">
        <ele>5</ele>
        <time>2020-06-04T16:22:45Z</time>
      </trkpt>
      <trkpt lat="47.07769" lon="-2.03661">
        <ele>4.9</ele>
        <time>2020-06-04T16:22:46Z</time>
      </trkpt>
      <trkpt lat="47.07767" lon="-2.03666">
        <ele>4.8</ele>
        <time>2020-06-04T16:22:47Z</time>
      </trkpt>
      <trkpt lat="47.07765" lon="-2.03671">
        <ele>4.7</ele>
        <time>2020-06-04T16:22:48Z</time>
      </trkpt>
      <trkpt lat="47.07765" lon="-2.03673">
        <ele>4.7</ele>
        <time>2020-06-04T16:22:49Z</time>
      </trkpt>
      <trkpt lat="47.07766" lon="-2.03675">
        <ele>4.7</ele>
        <time>2020-06-04T16:22:50Z</time>
      </trkpt>
      <trkpt lat="47.0777" lon="-2.03676">
        <ele>4.7</ele>
        <time>2020-06-04T16:22:51Z</time>
      </trkpt>
      <trkpt lat="47.07772" lon="-2.03676">
        <ele>4.7</ele>
        <time>2020-06-04T16:22:52Z</time>
      </trkpt>
      <trkpt lat="47.07773" lon="-2.0368">
        <ele>4.7</ele>
        <time>2020-06-04T16:22:53Z</time>
      </trkpt>
      <trkpt lat="47.07777" lon="-2.03684">
        <ele>4.8</ele>
        <time>2020-06-04T16:22:54Z</time>
      </trkpt>
      <trkpt lat="47.07778" lon="-2.03685">
        <ele>4.8</ele>
        <time>2020-06-04T16:22:55Z</time>
      </trkpt>
      <trkpt lat="47.07781" lon="-2.03688">
        <ele>4.8</ele>
        <time>2020-06-04T16:22:56Z</time>
      </trkpt>
      <trkpt lat="47.07784" lon="-2.03692">
        <ele>4.8</ele>
        <time>2020-06-04T16:22:57Z</time>
      </trkpt>
      <trkpt lat="47.07787" lon="-2.03695">
        <ele>4.8</ele>
        <time>2020-06-04T16:22:58Z</time>
      </trkpt>
      <trkpt lat="47.0779" lon="-2.03698">
        <ele>4.8</ele>
        <time>2020-06-04T16:22:59Z</time>
      </trkpt>
      <trkpt lat="47.07794" lon="-2.03702">
        <ele>4.8</ele>
        <time>2020-06-04T16:23:00Z</time>
      </trkpt>
      <trkpt lat="47.07797" lon="-2.03705">
        <ele>4.8</ele>
        <time>2020-06-04T16:23:01Z</time>
      </trkpt>
      <trkpt lat="47.07801" lon="-2.03709">
        <ele>4.8</ele>
        <time>2020-06-04T16:23:02Z</time>
      </trkpt>
      <trkpt lat="47.07805" lon="-2.03711">
        <ele>4.8</ele>
        <time>2020-06-04T16:23:03Z</time>
      </trkpt>
      <trkpt lat="47.07808" lon="-2.03715">
        <ele>4.9</ele>
        <time>2020-06-04T16:23:04Z</time>
      </trkpt>
      <trkpt lat="47.07811" lon="-2.03718">
        <ele>4.9</ele>
        <time>2020-06-04T16:23:05Z</time>
      </trkpt>
      <trkpt lat="47.07814" lon="-2.03722">
        <ele>5</ele>
        <time>2020-06-04T16:23:06Z</time>
      </trkpt>
      <trkpt lat="47.07818" lon="-2.03726">
        <ele>5</ele>
        <time>2020-06-04T16:23:07Z</time>
      </trkpt>
      <trkpt lat="47.07821" lon="-2.0373">
        <ele>5.1</ele>
        <time>2020-06-04T16:23:08Z</time>
      </trkpt>
      <trkpt lat="47.07824" lon="-2.03734">
        <ele>5.1</ele>
        <time>2020-06-04T16:23:09Z</time>
      </trkpt>
      <trkpt lat="47.07827" lon="-2.03738">
        <ele>5.2</ele>
        <time>2020-06-04T16:23:10Z</time>
      </trkpt>
      <trkpt lat="47.07831" lon="-2.03742">
        <ele>5.2</ele>
        <time>2020-06-04T16:23:11Z</time>
      </trkpt>
      <trkpt lat="47.07835" lon="-2.03745">
        <ele>5.3</ele>
        <time>2020-06-04T16:23:12Z</time>
      </trkpt>
      <trkpt lat="47.07839" lon="-2.03748">
        <ele>5.3</ele>
        <time>2020-06-04T16:23:13Z</time>
      </trkpt>
      <trkpt lat="47.07843" lon="-2.03752">
        <ele>5.4</ele>
        <time>2020-06-04T16:23:14Z</time>
      </trkpt>
      <trkpt lat="47.07847" lon="-2.03755">
        <ele>5.4</ele>
        <time>2020-06-04T16:23:15Z</time>
      </trkpt>
      <trkpt lat="47.07851" lon="-2.03759">
        <ele>5.5</ele>
        <time>2020-06-04T16:23:16Z</time>
      </trkpt>
      <trkpt lat="47.07854" lon="-2.03762">
        <ele>5.5</ele>
        <time>2020-06-04T16:23:17Z</time>
      </trkpt>
      <trkpt lat="47.07857" lon="-2.03766">
        <ele>5.5</ele>
        <time>2020-06-04T16:23:18Z</time>
      </trkpt>
      <trkpt lat="47.0786" lon="-2.0377">
        <ele>5.6</ele>
        <time>2020-06-04T16:23:19Z</time>
      </trkpt>
      <trkpt lat="47.07863" lon="-2.03775">
        <ele>5.6</ele>
        <time>2020-06-04T16:23:20Z</time>
      </trkpt>
      <trkpt lat="47.07866" lon="-2.03781">
        <ele>5.7</ele>
        <time>2020-06-04T16:23:21Z</time>
      </trkpt>
      <trkpt lat="47.07868" lon="-2.03786">
        <ele>5.7</ele>
        <time>2020-06-04T16:23:22Z</time>
      </trkpt>
      <trkpt lat="47.0787" lon="-2.03792">
        <ele>5.7</ele>
        <time>2020-06-04T16:23:23Z</time>
      </trkpt>
      <trkpt lat="47.07872" lon="-2.03797">
        <ele>5.7</ele>
        <time>2020-06-04T16:23:24Z</time>
      </trkpt>
      <trkpt lat="47.07874" lon="-2.03802">
        <ele>5.7</ele>
        <time>2020-06-04T16:23:25Z</time>
      </trkpt>
      <trkpt lat="47.07875" lon="-2.03807">
        <ele>5.7</ele>
        <time>2020-06-04T16:23:26Z</time>
      </trkpt>
      <trkpt lat="47.07877" lon="-2.03812">
        <ele>5.7</ele>
        <time>2020-06-04T16:23:27Z</time>
      </trkpt>
      <trkpt lat="47.07879" lon="-2.03816">
        <ele>5.7</ele>
        <time>2020-06-04T16:23:28Z</time>
      </trkpt>
      <trkpt lat="47.07882" lon="-2.0382">
        <ele>5.7</ele>
        <time>2020-06-04T16:23:29Z</time>
      </trkpt>
      <trkpt lat="47.07883" lon="-2.03822">
        <ele>5.7</ele>
        <time>2020-06-04T16:23:30Z</time>
      </trkpt>
      <trkpt lat="47.07885" lon="-2.03825">
        <ele>5.7</ele>
        <time>2020-06-04T16:23:31Z</time>
      </trkpt>
      <trkpt lat="47.07887" lon="-2.03828">
        <ele>5.7</ele>
        <time>2020-06-04T16:23:32Z</time>
      </trkpt>
      <trkpt lat="47.07887" lon="-2.0383">
        <ele>5.7</ele>
        <time>2020-06-04T16:23:33Z</time>
      </trkpt>
      <trkpt lat="47.07889" lon="-2.03834">
        <ele>5.6</ele>
        <time>2020-06-04T16:23:34Z</time>
      </trkpt>
      <trkpt lat="47.0789" lon="-2.03836">
        <ele>5.6</ele>
        <time>2020-06-04T16:23:35Z</time>
      </trkpt>
      <trkpt lat="47.07891" lon="-2.0384">
        <ele>5.6</ele>
        <time>2020-06-04T16:23:36Z</time>
      </trkpt>
      <trkpt lat="47.07894" lon="-2.03846">
        <ele>5.6</ele>
        <time>2020-06-04T16:23:37Z</time>
      </trkpt>
      <trkpt lat="47.07896" lon="-2.03852">
        <ele>5.6</ele>
        <time>2020-06-04T16:23:38Z</time>
      </trkpt>
      <trkpt lat="47.07898" lon="-2.03857">
        <ele>5.6</ele>
        <time>2020-06-04T16:23:39Z</time>
      </trkpt>
      <trkpt lat="47.079" lon="-2.03862">
        <ele>5.6</ele>
        <time>2020-06-04T16:23:40Z</time>
      </trkpt>
      <trkpt lat="47.07902" lon="-2.03866">
        <ele>5.6</ele>
        <time>2020-06-04T16:23:41Z</time>
      </trkpt>
      <trkpt lat="47.07904" lon="-2.0387">
        <ele>5.5</ele>
        <time>2020-06-04T16:23:42Z</time>
      </trkpt>
      <trkpt lat="47.07906" lon="-2.03875">
        <ele>5.5</ele>
        <time>2020-06-04T16:23:43Z</time>
      </trkpt>
      <trkpt lat="47.07908" lon="-2.03879">
        <ele>5.5</ele>
        <time>2020-06-04T16:23:44Z</time>
      </trkpt>
      <trkpt lat="47.0791" lon="-2.03886">
        <ele>5.5</ele>
        <time>2020-06-04T16:23:45Z</time>
      </trkpt>
      <trkpt lat="47.07911" lon="-2.03892">
        <ele>5.4</ele>
        <time>2020-06-04T16:23:46Z</time>
      </trkpt>
      <trkpt lat="47.07912" lon="-2.03898">
        <ele>5.4</ele>
        <time>2020-06-04T16:23:47Z</time>
      </trkpt>
      <trkpt lat="47.07912" lon="-2.03904">
        <ele>5.4</ele>
        <time>2020-06-04T16:23:48Z</time>
      </trkpt>
      <trkpt lat="47.07913" lon="-2.0391">
        <ele>5.4</ele>
        <time>2020-06-04T16:23:49Z</time>
      </trkpt>
      <trkpt lat="47.07914" lon="-2.03915">
        <ele>5.4</ele>
        <time>2020-06-04T16:23:50Z</time>
      </trkpt>
      <trkpt lat="47.07916" lon="-2.03919">
        <ele>5.3</ele>
        <time>2020-06-04T16:23:51Z</time>
      </trkpt>
      <trkpt lat="47.07918" lon="-2.03925">
        <ele>5.3</ele>
        <time>2020-06-04T16:23:52Z</time>
      </trkpt>
      <trkpt lat="47.0792" lon="-2.03929">
        <ele>5.3</ele>
        <time>2020-06-04T16:23:53Z</time>
      </trkpt>
      <trkpt lat="47.07922" lon="-2.03933">
        <ele>5.2</ele>
        <time>2020-06-04T16:23:54Z</time>
      </trkpt>
      <trkpt lat="47.07924" lon="-2.03936">
        <ele>5.1</ele>
        <time>2020-06-04T16:23:55Z</time>
      </trkpt>
      <trkpt lat="47.07926" lon="-2.0394">
        <ele>5.1</ele>
        <time>2020-06-04T16:23:56Z</time>
      </trkpt>
      <trkpt lat="47.07929" lon="-2.03943">
        <ele>5</ele>
        <time>2020-06-04T16:23:57Z</time>
      </trkpt>
      <trkpt lat="47.07932" lon="-2.03946">
        <ele>4.9</ele>
        <time>2020-06-04T16:23:58Z</time>
      </trkpt>
      <trkpt lat="47.07935" lon="-2.03947">
        <ele>4.8</ele>
        <time>2020-06-04T16:23:59Z</time>
      </trkpt>
      <trkpt lat="47.07936" lon="-2.03948">
        <ele>4.8</ele>
        <time>2020-06-04T16:24:00Z</time>
      </trkpt>
      <trkpt lat="47.07937" lon="-2.03949">
        <ele>4.8</ele>
        <time>2020-06-04T16:24:01Z</time>
      </trkpt>
      <trkpt lat="47.07937" lon="-2.03949">
        <ele>4.8</ele>
        <time>2020-06-04T16:24:02Z</time>
      </trkpt>
      <trkpt lat="47.07936" lon="-2.03949">
        <ele>4.7</ele>
        <time>2020-06-04T16:24:03Z</time>
      </trkpt>
      <trkpt lat="47.07936" lon="-2.03948">
        <ele>4.7</ele>
        <time>2020-06-04T16:24:04Z</time>
      </trkpt>
      <trkpt lat="47.07934" lon="-2.03947">
        <ele>4.7</ele>
        <time>2020-06-04T16:24:05Z</time>
      </trkpt>
      <trkpt lat="47.07934" lon="-2.03945">
        <ele>4.6</ele>
        <time>2020-06-04T16:24:06Z</time>
      </trkpt>
      <trkpt lat="47.07935" lon="-2.03944">
        <ele>4.6</ele>
        <time>2020-06-04T16:24:07Z</time>
      </trkpt>
      <trkpt lat="47.07935" lon="-2.03943">
        <ele>4.6</ele>
        <time>2020-06-04T16:24:08Z</time>
      </trkpt>
      <trkpt lat="47.07937" lon="-2.03943">
        <ele>4.5</ele>
        <time>2020-06-04T16:24:09Z</time>
      </trkpt>
      <trkpt lat="47.07938" lon="-2.03944">
        <ele>4.5</ele>
        <time>2020-06-04T16:24:10Z</time>
      </trkpt>
      <trkpt lat="47.07939" lon="-2.03945">
        <ele>4.5</ele>
        <time>2020-06-04T16:24:11Z</time>
      </trkpt>
      <trkpt lat="47.07942" lon="-2.03947">
        <ele>4.4</ele>
        <time>2020-06-04T16:24:12Z</time>
      </trkpt>
      <trkpt lat="47.07943" lon="-2.03948">
        <ele>4.4</ele>
        <time>2020-06-04T16:24:13Z</time>
      </trkpt>
      <trkpt lat="47.07946" lon="-2.0395">
        <ele>5.2</ele>
        <time>2020-06-04T16:24:14Z</time>
      </trkpt>
      <trkpt lat="47.07947" lon="-2.03951">
        <ele>5.2</ele>
        <time>2020-06-04T16:24:15Z</time>
      </trkpt>
      <trkpt lat="47.0795" lon="-2.03952">
        <ele>5.3</ele>
        <time>2020-06-04T16:24:16Z</time>
      </trkpt>
      <trkpt lat="47.0795" lon="-2.03953">
        <ele>5.3</ele>
        <time>2020-06-04T16:24:17Z</time>
      </trkpt>
      <trkpt lat="47.0795" lon="-2.03952">
        <ele>5.3</ele>
        <time>2020-06-04T16:24:18Z</time>
      </trkpt>
      <trkpt lat="47.07949" lon="-2.03952">
        <ele>5.3</ele>
        <time>2020-06-04T16:24:19Z</time>
      </trkpt>
      <trkpt lat="47.0795" lon="-2.03952">
        <ele>5.3</ele>
        <time>2020-06-04T16:24:20Z</time>
      </trkpt>
      <trkpt lat="47.0795" lon="-2.03952">
        <ele>5.3</ele>
        <time>2020-06-04T16:24:21Z</time>
      </trkpt>
      <trkpt lat="47.0795" lon="-2.03952">
        <ele>5.3</ele>
        <time>2020-06-04T16:24:22Z</time>
      </trkpt>
      <trkpt lat="47.0795" lon="-2.03952">
        <ele>5.3</ele>
        <time>2020-06-04T16:24:23Z</time>
      </trkpt>
      <trkpt lat="47.0795" lon="-2.03952">
        <ele>5.3</ele>
        <time>2020-06-04T16:24:24Z</time>
      </trkpt>
      <trkpt lat="47.07952" lon="-2.0395">
        <ele>5.4</ele>
        <time>2020-06-04T16:24:25Z</time>
      </trkpt>
      <trkpt lat="47.07952" lon="-2.03949">
        <ele>5.4</ele>
        <time>2020-06-04T16:24:26Z</time>
      </trkpt>
      <trkpt lat="47.07953" lon="-2.03948">
        <ele>5.4</ele>
        <time>2020-06-04T16:24:27Z</time>
      </trkpt>
      <trkpt lat="47.07954" lon="-2.03944">
        <ele>5.5</ele>
        <time>2020-06-04T16:24:28Z</time>
      </trkpt>
      <trkpt lat="47.07955" lon="-2.0394">
        <ele>5.5</ele>
        <time>2020-06-04T16:24:29Z</time>
      </trkpt>
      <trkpt lat="47.07955" lon="-2.03938">
        <ele>5.6</ele>
        <time>2020-06-04T16:24:30Z</time>
      </trkpt>
      <trkpt lat="47.07956" lon="-2.03933">
        <ele>5.6</ele>
        <time>2020-06-04T16:24:31Z</time>
      </trkpt>
      <trkpt lat="47.07956" lon="-2.03931">
        <ele>5.7</ele>
        <time>2020-06-04T16:24:32Z</time>
      </trkpt>
      <trkpt lat="47.07957" lon="-2.03926">
        <ele>5.7</ele>
        <time>2020-06-04T16:24:33Z</time>
      </trkpt>
      <trkpt lat="47.07957" lon="-2.03925">
        <ele>5.7</ele>
        <time>2020-06-04T16:24:34Z</time>
      </trkpt>
      <trkpt lat="47.07958" lon="-2.0392">
        <ele>5.8</ele>
        <time>2020-06-04T16:24:35Z</time>
      </trkpt>
      <trkpt lat="47.07959" lon="-2.03918">
        <ele>5.8</ele>
        <time>2020-06-04T16:24:36Z</time>
      </trkpt>
      <trkpt lat="47.07961" lon="-2.03913">
        <ele>5.9</ele>
        <time>2020-06-04T16:24:37Z</time>
      </trkpt>
      <trkpt lat="47.07961" lon="-2.03911">
        <ele>6</ele>
        <time>2020-06-04T16:24:38Z</time>
      </trkpt>
      <trkpt lat="47.07964" lon="-2.03908">
        <ele>6.1</ele>
        <time>2020-06-04T16:24:39Z</time>
      </trkpt>
      <trkpt lat="47.07964" lon="-2.03906">
        <ele>6.1</ele>
        <time>2020-06-04T16:24:40Z</time>
      </trkpt>
      <trkpt lat="47.07966" lon="-2.03902">
        <ele>6.3</ele>
        <time>2020-06-04T16:24:41Z</time>
      </trkpt>
      <trkpt lat="47.07967" lon="-2.039">
        <ele>6.3</ele>
        <time>2020-06-04T16:24:42Z</time>
      </trkpt>
      <trkpt lat="47.07969" lon="-2.03896">
        <ele>6.4</ele>
        <time>2020-06-04T16:24:43Z</time>
      </trkpt>
      <trkpt lat="47.0797" lon="-2.03892">
        <ele>6.5</ele>
        <time>2020-06-04T16:24:44Z</time>
      </trkpt>
      <trkpt lat="47.07971" lon="-2.03887">
        <ele>6.6</ele>
        <time>2020-06-04T16:24:45Z</time>
      </trkpt>
      <trkpt lat="47.07972" lon="-2.03886">
        <ele>6.7</ele>
        <time>2020-06-04T16:24:46Z</time>
      </trkpt>
      <trkpt lat="47.07973" lon="-2.03881">
        <ele>6.8</ele>
        <time>2020-06-04T16:24:47Z</time>
      </trkpt>
      <trkpt lat="47.07973" lon="-2.0388">
        <ele>6.8</ele>
        <time>2020-06-04T16:24:48Z</time>
      </trkpt>
      <trkpt lat="47.07975" lon="-2.03876">
        <ele>6.9</ele>
        <time>2020-06-04T16:24:49Z</time>
      </trkpt>
      <trkpt lat="47.07976" lon="-2.03872">
        <ele>7</ele>
        <time>2020-06-04T16:24:50Z</time>
      </trkpt>
      <trkpt lat="47.07977" lon="-2.03868">
        <ele>7</ele>
        <time>2020-06-04T16:24:51Z</time>
      </trkpt>
      <trkpt lat="47.07979" lon="-2.03864">
        <ele>7.1</ele>
        <time>2020-06-04T16:24:52Z</time>
      </trkpt>
      <trkpt lat="47.0798" lon="-2.0386">
        <ele>7.2</ele>
        <time>2020-06-04T16:24:53Z</time>
      </trkpt>
      <trkpt lat="47.07982" lon="-2.03855">
        <ele>7.3</ele>
        <time>2020-06-04T16:24:54Z</time>
      </trkpt>
      <trkpt lat="47.07982" lon="-2.03853">
        <ele>7.3</ele>
        <time>2020-06-04T16:24:55Z</time>
      </trkpt>
      <trkpt lat="47.07984" lon="-2.03849">
        <ele>7.4</ele>
        <time>2020-06-04T16:24:56Z</time>
      </trkpt>
      <trkpt lat="47.07984" lon="-2.03847">
        <ele>7.4</ele>
        <time>2020-06-04T16:24:57Z</time>
      </trkpt>
      <trkpt lat="47.07986" lon="-2.03842">
        <ele>7.5</ele>
        <time>2020-06-04T16:24:58Z</time>
      </trkpt>
      <trkpt lat="47.07987" lon="-2.03839">
        <ele>7.5</ele>
        <time>2020-06-04T16:24:59Z</time>
      </trkpt>
      <trkpt lat="47.07988" lon="-2.03834">
        <ele>7.6</ele>
        <time>2020-06-04T16:25:00Z</time>
      </trkpt>
      <trkpt lat="47.07988" lon="-2.03827">
        <ele>7.7</ele>
        <time>2020-06-04T16:25:01Z</time>
      </trkpt>
      <trkpt lat="47.0799" lon="-2.03823">
        <ele>7.8</ele>
        <time>2020-06-04T16:25:02Z</time>
      </trkpt>
      <trkpt lat="47.07993" lon="-2.03819">
        <ele>7.9</ele>
        <time>2020-06-04T16:25:03Z</time>
      </trkpt>
      <trkpt lat="47.07995" lon="-2.03813">
        <ele>8</ele>
        <time>2020-06-04T16:25:04Z</time>
      </trkpt>
      <trkpt lat="47.07996" lon="-2.03809">
        <ele>8</ele>
        <time>2020-06-04T16:25:05Z</time>
      </trkpt>
      <trkpt lat="47.07998" lon="-2.03804">
        <ele>8.1</ele>
        <time>2020-06-04T16:25:06Z</time>
      </trkpt>
      <trkpt lat="47.08" lon="-2.038">
        <ele>8.2</ele>
        <time>2020-06-04T16:25:07Z</time>
      </trkpt>
      <trkpt lat="47.08001" lon="-2.03795">
        <ele>8.3</ele>
        <time>2020-06-04T16:25:08Z</time>
      </trkpt>
      <trkpt lat="47.08003" lon="-2.03791">
        <ele>8.5</ele>
        <time>2020-06-04T16:25:09Z</time>
      </trkpt>
      <trkpt lat="47.08005" lon="-2.03786">
        <ele>8.6</ele>
        <time>2020-06-04T16:25:10Z</time>
      </trkpt>
      <trkpt lat="47.08007" lon="-2.03782">
        <ele>8.7</ele>
        <time>2020-06-04T16:25:11Z</time>
      </trkpt>
      <trkpt lat="47.0801" lon="-2.03778">
        <ele>8.8</ele>
        <time>2020-06-04T16:25:12Z</time>
      </trkpt>
      <trkpt lat="47.08011" lon="-2.03773">
        <ele>9</ele>
        <time>2020-06-04T16:25:13Z</time>
      </trkpt>
      <trkpt lat="47.08012" lon="-2.03769">
        <ele>9.1</ele>
        <time>2020-06-04T16:25:14Z</time>
      </trkpt>
      <trkpt lat="47.08015" lon="-2.03766">
        <ele>9.2</ele>
        <time>2020-06-04T16:25:15Z</time>
      </trkpt>
      <trkpt lat="47.08017" lon="-2.03762">
        <ele>9.3</ele>
        <time>2020-06-04T16:25:16Z</time>
      </trkpt>
      <trkpt lat="47.08019" lon="-2.03757">
        <ele>9.4</ele>
        <time>2020-06-04T16:25:17Z</time>
      </trkpt>
      <trkpt lat="47.08022" lon="-2.03753">
        <ele>9.5</ele>
        <time>2020-06-04T16:25:18Z</time>
      </trkpt>
      <trkpt lat="47.08022" lon="-2.03751">
        <ele>9.5</ele>
        <time>2020-06-04T16:25:19Z</time>
      </trkpt>
      <trkpt lat="47.08025" lon="-2.03746">
        <ele>9.6</ele>
        <time>2020-06-04T16:25:20Z</time>
      </trkpt>
      <trkpt lat="47.08026" lon="-2.03744">
        <ele>9.7</ele>
        <time>2020-06-04T16:25:21Z</time>
      </trkpt>
      <trkpt lat="47.08029" lon="-2.03742">
        <ele>9.7</ele>
        <time>2020-06-04T16:25:22Z</time>
      </trkpt>
      <trkpt lat="47.0803" lon="-2.03741">
        <ele>9.8</ele>
        <time>2020-06-04T16:25:23Z</time>
      </trkpt>
      <trkpt lat="47.08033" lon="-2.03743">
        <ele>9.9</ele>
        <time>2020-06-04T16:25:24Z</time>
      </trkpt>
      <trkpt lat="47.08034" lon="-2.03743">
        <ele>9.9</ele>
        <time>2020-06-04T16:25:25Z</time>
      </trkpt>
      <trkpt lat="47.08036" lon="-2.03745">
        <ele>9.9</ele>
        <time>2020-06-04T16:25:26Z</time>
      </trkpt>
      <trkpt lat="47.08037" lon="-2.03746">
        <ele>9.9</ele>
        <time>2020-06-04T16:25:27Z</time>
      </trkpt>
      <trkpt lat="47.0804" lon="-2.0375">
        <ele>9.9</ele>
        <time>2020-06-04T16:25:28Z</time>
      </trkpt>
      <trkpt lat="47.08042" lon="-2.03752">
        <ele>9.9</ele>
        <time>2020-06-04T16:25:29Z</time>
      </trkpt>
      <trkpt lat="47.08044" lon="-2.03755">
        <ele>9.9</ele>
        <time>2020-06-04T16:25:30Z</time>
      </trkpt>
      <trkpt lat="47.08046" lon="-2.03759">
        <ele>9.9</ele>
        <time>2020-06-04T16:25:31Z</time>
      </trkpt>
      <trkpt lat="47.08048" lon="-2.03761">
        <ele>9.9</ele>
        <time>2020-06-04T16:25:32Z</time>
      </trkpt>
      <trkpt lat="47.08051" lon="-2.03764">
        <ele>9.9</ele>
        <time>2020-06-04T16:25:33Z</time>
      </trkpt>
      <trkpt lat="47.08054" lon="-2.03767">
        <ele>9.9</ele>
        <time>2020-06-04T16:25:34Z</time>
      </trkpt>
      <trkpt lat="47.08058" lon="-2.0377">
        <ele>9.9</ele>
        <time>2020-06-04T16:25:35Z</time>
      </trkpt>
      <trkpt lat="47.08061" lon="-2.03774">
        <ele>9.9</ele>
        <time>2020-06-04T16:25:36Z</time>
      </trkpt>
      <trkpt lat="47.08064" lon="-2.03777">
        <ele>9.9</ele>
        <time>2020-06-04T16:25:37Z</time>
      </trkpt>
      <trkpt lat="47.08067" lon="-2.03781">
        <ele>9.9</ele>
        <time>2020-06-04T16:25:38Z</time>
      </trkpt>
      <trkpt lat="47.0807" lon="-2.03784">
        <ele>9.9</ele>
        <time>2020-06-04T16:25:39Z</time>
      </trkpt>
      <trkpt lat="47.08072" lon="-2.03787">
        <ele>9.9</ele>
        <time>2020-06-04T16:25:40Z</time>
      </trkpt>
      <trkpt lat="47.08074" lon="-2.0379">
        <ele>9.9</ele>
        <time>2020-06-04T16:25:41Z</time>
      </trkpt>
      <trkpt lat="47.08077" lon="-2.03794">
        <ele>9.9</ele>
        <time>2020-06-04T16:25:42Z</time>
      </trkpt>
      <trkpt lat="47.0808" lon="-2.03798">
        <ele>9.9</ele>
        <time>2020-06-04T16:25:43Z</time>
      </trkpt>
      <trkpt lat="47.08083" lon="-2.03802">
        <ele>9.9</ele>
        <time>2020-06-04T16:25:44Z</time>
      </trkpt>
      <trkpt lat="47.08086" lon="-2.03805">
        <ele>9.9</ele>
        <time>2020-06-04T16:25:45Z</time>
      </trkpt>
      <trkpt lat="47.08089" lon="-2.03809">
        <ele>9.9</ele>
        <time>2020-06-04T16:25:46Z</time>
      </trkpt>
      <trkpt lat="47.08092" lon="-2.03813">
        <ele>9.9</ele>
        <time>2020-06-04T16:25:47Z</time>
      </trkpt>
      <trkpt lat="47.08095" lon="-2.03815">
        <ele>10</ele>
        <time>2020-06-04T16:25:48Z</time>
      </trkpt>
      <trkpt lat="47.08098" lon="-2.03819">
        <ele>10</ele>
        <time>2020-06-04T16:25:49Z</time>
      </trkpt>
      <trkpt lat="47.08099" lon="-2.0382">
        <ele>10</ele>
        <time>2020-06-04T16:25:50Z</time>
      </trkpt>
      <trkpt lat="47.08102" lon="-2.03824">
        <ele>10</ele>
        <time>2020-06-04T16:25:51Z</time>
      </trkpt>
      <trkpt lat="47.08105" lon="-2.03827">
        <ele>10</ele>
        <time>2020-06-04T16:25:52Z</time>
      </trkpt>
      <trkpt lat="47.08108" lon="-2.03831">
        <ele>10.1</ele>
        <time>2020-06-04T16:25:53Z</time>
      </trkpt>
      <trkpt lat="47.0811" lon="-2.03834">
        <ele>10.1</ele>
        <time>2020-06-04T16:25:54Z</time>
      </trkpt>
      <trkpt lat="47.08114" lon="-2.03836">
        <ele>10.2</ele>
        <time>2020-06-04T16:25:55Z</time>
      </trkpt>
      <trkpt lat="47.08116" lon="-2.03839">
        <ele>10.2</ele>
        <time>2020-06-04T16:25:56Z</time>
      </trkpt>
      <trkpt lat="47.08119" lon="-2.03842">
        <ele>10.2</ele>
        <time>2020-06-04T16:25:57Z</time>
      </trkpt>
      <trkpt lat="47.08123" lon="-2.03846">
        <ele>10.3</ele>
        <time>2020-06-04T16:25:58Z</time>
      </trkpt>
      <trkpt lat="47.08126" lon="-2.03849">
        <ele>10.3</ele>
        <time>2020-06-04T16:25:59Z</time>
      </trkpt>
      <trkpt lat="47.08129" lon="-2.03853">
        <ele>10.3</ele>
        <time>2020-06-04T16:26:00Z</time>
      </trkpt>
      <trkpt lat="47.08132" lon="-2.03856">
        <ele>10.3</ele>
        <time>2020-06-04T16:26:01Z</time>
      </trkpt>
      <trkpt lat="47.08135" lon="-2.03859">
        <ele>10.4</ele>
        <time>2020-06-04T16:26:02Z</time>
      </trkpt>
      <trkpt lat="47.08139" lon="-2.03862">
        <ele>10.4</ele>
        <time>2020-06-04T16:26:03Z</time>
      </trkpt>
      <trkpt lat="47.08141" lon="-2.03865">
        <ele>10.5</ele>
        <time>2020-06-04T16:26:04Z</time>
      </trkpt>
      <trkpt lat="47.08144" lon="-2.03867">
        <ele>10.5</ele>
        <time>2020-06-04T16:26:05Z</time>
      </trkpt>
      <trkpt lat="47.08147" lon="-2.03871">
        <ele>10.5</ele>
        <time>2020-06-04T16:26:06Z</time>
      </trkpt>
      <trkpt lat="47.0815" lon="-2.03874">
        <ele>10.6</ele>
        <time>2020-06-04T16:26:07Z</time>
      </trkpt>
      <trkpt lat="47.08153" lon="-2.0388">
        <ele>10.7</ele>
        <time>2020-06-04T16:26:08Z</time>
      </trkpt>
      <trkpt lat="47.08156" lon="-2.0388">
        <ele>10.7</ele>
        <time>2020-06-04T16:26:09Z</time>
      </trkpt>
      <trkpt lat="47.08157" lon="-2.0388">
        <ele>10.7</ele>
        <time>2020-06-04T16:26:10Z</time>
      </trkpt>
      <trkpt lat="47.08161" lon="-2.03883">
        <ele>10.8</ele>
        <time>2020-06-04T16:26:11Z</time>
      </trkpt>
      <trkpt lat="47.08165" lon="-2.03886">
        <ele>10.8</ele>
        <time>2020-06-04T16:26:12Z</time>
      </trkpt>
      <trkpt lat="47.08169" lon="-2.03889">
        <ele>10.9</ele>
        <time>2020-06-04T16:26:13Z</time>
      </trkpt>
      <trkpt lat="47.08172" lon="-2.03892">
        <ele>10.9</ele>
        <time>2020-06-04T16:26:14Z</time>
      </trkpt>
      <trkpt lat="47.08176" lon="-2.03895">
        <ele>11</ele>
        <time>2020-06-04T16:26:15Z</time>
      </trkpt>
      <trkpt lat="47.08179" lon="-2.03899">
        <ele>11</ele>
        <time>2020-06-04T16:26:16Z</time>
      </trkpt>
      <trkpt lat="47.08182" lon="-2.03903">
        <ele>11.1</ele>
        <time>2020-06-04T16:26:17Z</time>
      </trkpt>
      <trkpt lat="47.08185" lon="-2.03908">
        <ele>11.1</ele>
        <time>2020-06-04T16:26:18Z</time>
      </trkpt>
      <trkpt lat="47.08188" lon="-2.03911">
        <ele>11.1</ele>
        <time>2020-06-04T16:26:19Z</time>
      </trkpt>
      <trkpt lat="47.08191" lon="-2.03914">
        <ele>11.2</ele>
        <time>2020-06-04T16:26:20Z</time>
      </trkpt>
      <trkpt lat="47.08194" lon="-2.03918">
        <ele>11.3</ele>
        <time>2020-06-04T16:26:21Z</time>
      </trkpt>
      <trkpt lat="47.08197" lon="-2.03921">
        <ele>11.3</ele>
        <time>2020-06-04T16:26:22Z</time>
      </trkpt>
      <trkpt lat="47.082" lon="-2.03924">
        <ele>11.4</ele>
        <time>2020-06-04T16:26:23Z</time>
      </trkpt>
      <trkpt lat="47.08204" lon="-2.03928">
        <ele>11.4</ele>
        <time>2020-06-04T16:26:24Z</time>
      </trkpt>
      <trkpt lat="47.08207" lon="-2.03932">
        <ele>11.5</ele>
        <time>2020-06-04T16:26:25Z</time>
      </trkpt>
      <trkpt lat="47.0821" lon="-2.03936">
        <ele>11.6</ele>
        <time>2020-06-04T16:26:26Z</time>
      </trkpt>
      <trkpt lat="47.08213" lon="-2.0394">
        <ele>11.6</ele>
        <time>2020-06-04T16:26:27Z</time>
      </trkpt>
      <trkpt lat="47.08217" lon="-2.03943">
        <ele>11.7</ele>
        <time>2020-06-04T16:26:28Z</time>
      </trkpt>
      <trkpt lat="47.0822" lon="-2.03946">
        <ele>11.7</ele>
        <time>2020-06-04T16:26:29Z</time>
      </trkpt>
      <trkpt lat="47.08224" lon="-2.03951">
        <ele>11.7</ele>
        <time>2020-06-04T16:26:30Z</time>
      </trkpt>
      <trkpt lat="47.08228" lon="-2.03955">
        <ele>11.8</ele>
        <time>2020-06-04T16:26:31Z</time>
      </trkpt>
      <trkpt lat="47.08231" lon="-2.03959">
        <ele>11.8</ele>
        <time>2020-06-04T16:26:32Z</time>
      </trkpt>
      <trkpt lat="47.08235" lon="-2.03963">
        <ele>11.9</ele>
        <time>2020-06-04T16:26:33Z</time>
      </trkpt>
      <trkpt lat="47.08239" lon="-2.03967">
        <ele>11.9</ele>
        <time>2020-06-04T16:26:34Z</time>
      </trkpt>
      <trkpt lat="47.08242" lon="-2.0397">
        <ele>12</ele>
        <time>2020-06-04T16:26:35Z</time>
      </trkpt>
      <trkpt lat="47.08246" lon="-2.03973">
        <ele>12.1</ele>
        <time>2020-06-04T16:26:36Z</time>
      </trkpt>
      <trkpt lat="47.0825" lon="-2.03977">
        <ele>12.2</ele>
        <time>2020-06-04T16:26:37Z</time>
      </trkpt>
      <trkpt lat="47.08253" lon="-2.0398">
        <ele>12.2</ele>
        <time>2020-06-04T16:26:38Z</time>
      </trkpt>
      <trkpt lat="47.08257" lon="-2.03984">
        <ele>12.4</ele>
        <time>2020-06-04T16:26:39Z</time>
      </trkpt>
      <trkpt lat="47.0826" lon="-2.03988">
        <ele>12.5</ele>
        <time>2020-06-04T16:26:40Z</time>
      </trkpt>
      <trkpt lat="47.08264" lon="-2.03991">
        <ele>12.6</ele>
        <time>2020-06-04T16:26:41Z</time>
      </trkpt>
      <trkpt lat="47.08269" lon="-2.03994">
        <ele>12.7</ele>
        <time>2020-06-04T16:26:42Z</time>
      </trkpt>
      <trkpt lat="47.08272" lon="-2.03999">
        <ele>12.8</ele>
        <time>2020-06-04T16:26:43Z</time>
      </trkpt>
      <trkpt lat="47.08275" lon="-2.04003">
        <ele>12.8</ele>
        <time>2020-06-04T16:26:44Z</time>
      </trkpt>
      <trkpt lat="47.08279" lon="-2.04006">
        <ele>12.9</ele>
        <time>2020-06-04T16:26:45Z</time>
      </trkpt>
      <trkpt lat="47.08282" lon="-2.04009">
        <ele>13</ele>
        <time>2020-06-04T16:26:46Z</time>
      </trkpt>
      <trkpt lat="47.08286" lon="-2.04013">
        <ele>13.1</ele>
        <time>2020-06-04T16:26:47Z</time>
      </trkpt>
      <trkpt lat="47.08289" lon="-2.04017">
        <ele>13.2</ele>
        <time>2020-06-04T16:26:48Z</time>
      </trkpt>
      <trkpt lat="47.08292" lon="-2.0402">
        <ele>13.2</ele>
        <time>2020-06-04T16:26:49Z</time>
      </trkpt>
      <trkpt lat="47.08296" lon="-2.04023">
        <ele>13.2</ele>
        <time>2020-06-04T16:26:50Z</time>
      </trkpt>
      <trkpt lat="47.08299" lon="-2.04027">
        <ele>13.3</ele>
        <time>2020-06-04T16:26:51Z</time>
      </trkpt>
      <trkpt lat="47.08303" lon="-2.04031">
        <ele>13.4</ele>
        <time>2020-06-04T16:26:52Z</time>
      </trkpt>
      <trkpt lat="47.08307" lon="-2.04036">
        <ele>13.4</ele>
        <time>2020-06-04T16:26:53Z</time>
      </trkpt>
      <trkpt lat="47.0831" lon="-2.0404">
        <ele>13.5</ele>
        <time>2020-06-04T16:26:54Z</time>
      </trkpt>
      <trkpt lat="47.08314" lon="-2.04044">
        <ele>13.6</ele>
        <time>2020-06-04T16:26:55Z</time>
      </trkpt>
      <trkpt lat="47.08318" lon="-2.04047">
        <ele>13.7</ele>
        <time>2020-06-04T16:26:56Z</time>
      </trkpt>
      <trkpt lat="47.08321" lon="-2.04051">
        <ele>13.8</ele>
        <time>2020-06-04T16:26:57Z</time>
      </trkpt>
      <trkpt lat="47.08325" lon="-2.04056">
        <ele>13.8</ele>
        <time>2020-06-04T16:26:58Z</time>
      </trkpt>
      <trkpt lat="47.08329" lon="-2.04061">
        <ele>13.9</ele>
        <time>2020-06-04T16:26:59Z</time>
      </trkpt>
      <trkpt lat="47.08332" lon="-2.04064">
        <ele>13.9</ele>
        <time>2020-06-04T16:27:00Z</time>
      </trkpt>
      <trkpt lat="47.08336" lon="-2.04067">
        <ele>13.9</ele>
        <time>2020-06-04T16:27:01Z</time>
      </trkpt>
      <trkpt lat="47.08339" lon="-2.0407">
        <ele>14</ele>
        <time>2020-06-04T16:27:02Z</time>
      </trkpt>
      <trkpt lat="47.08343" lon="-2.04074">
        <ele>14</ele>
        <time>2020-06-04T16:27:03Z</time>
      </trkpt>
      <trkpt lat="47.08346" lon="-2.04077">
        <ele>14</ele>
        <time>2020-06-04T16:27:04Z</time>
      </trkpt>
      <trkpt lat="47.0835" lon="-2.04081">
        <ele>14.1</ele>
        <time>2020-06-04T16:27:05Z</time>
      </trkpt>
      <trkpt lat="47.08354" lon="-2.04086">
        <ele>14.1</ele>
        <time>2020-06-04T16:27:06Z</time>
      </trkpt>
      <trkpt lat="47.08357" lon="-2.0409">
        <ele>14.2</ele>
        <time>2020-06-04T16:27:07Z</time>
      </trkpt>
      <trkpt lat="47.08361" lon="-2.04094">
        <ele>14.2</ele>
        <time>2020-06-04T16:27:08Z</time>
      </trkpt>
      <trkpt lat="47.08363" lon="-2.04097">
        <ele>14.3</ele>
        <time>2020-06-04T16:27:09Z</time>
      </trkpt>
      <trkpt lat="47.08366" lon="-2.04101">
        <ele>14.3</ele>
        <time>2020-06-04T16:27:10Z</time>
      </trkpt>
      <trkpt lat="47.0837" lon="-2.04105">
        <ele>14.3</ele>
        <time>2020-06-04T16:27:11Z</time>
      </trkpt>
      <trkpt lat="47.08374" lon="-2.04109">
        <ele>14.4</ele>
        <time>2020-06-04T16:27:12Z</time>
      </trkpt>
      <trkpt lat="47.08377" lon="-2.04114">
        <ele>14.4</ele>
        <time>2020-06-04T16:27:13Z</time>
      </trkpt>
      <trkpt lat="47.08381" lon="-2.04118">
        <ele>14.5</ele>
        <time>2020-06-04T16:27:14Z</time>
      </trkpt>
      <trkpt lat="47.08385" lon="-2.04123">
        <ele>14.5</ele>
        <time>2020-06-04T16:27:15Z</time>
      </trkpt>
      <trkpt lat="47.08388" lon="-2.04127">
        <ele>14.6</ele>
        <time>2020-06-04T16:27:16Z</time>
      </trkpt>
      <trkpt lat="47.08391" lon="-2.04131">
        <ele>14.7</ele>
        <time>2020-06-04T16:27:17Z</time>
      </trkpt>
      <trkpt lat="47.08395" lon="-2.04135">
        <ele>14.7</ele>
        <time>2020-06-04T16:27:18Z</time>
      </trkpt>
      <trkpt lat="47.08398" lon="-2.04137">
        <ele>14.8</ele>
        <time>2020-06-04T16:27:19Z</time>
      </trkpt>
      <trkpt lat="47.08402" lon="-2.04142">
        <ele>14.8</ele>
        <time>2020-06-04T16:27:20Z</time>
      </trkpt>
      <trkpt lat="47.08406" lon="-2.04145">
        <ele>14.8</ele>
        <time>2020-06-04T16:27:21Z</time>
      </trkpt>
      <trkpt lat="47.08409" lon="-2.04149">
        <ele>14.9</ele>
        <time>2020-06-04T16:27:22Z</time>
      </trkpt>
      <trkpt lat="47.08413" lon="-2.04153">
        <ele>14.9</ele>
        <time>2020-06-04T16:27:23Z</time>
      </trkpt>
      <trkpt lat="47.08416" lon="-2.04157">
        <ele>15</ele>
        <time>2020-06-04T16:27:24Z</time>
      </trkpt>
      <trkpt lat="47.08419" lon="-2.04162">
        <ele>15</ele>
        <time>2020-06-04T16:27:25Z</time>
      </trkpt>
      <trkpt lat="47.08422" lon="-2.04168">
        <ele>15.1</ele>
        <time>2020-06-04T16:27:26Z</time>
      </trkpt>
      <trkpt lat="47.08424" lon="-2.04173">
        <ele>15.2</ele>
        <time>2020-06-04T16:27:27Z</time>
      </trkpt>
      <trkpt lat="47.08426" lon="-2.04179">
        <ele>15.3</ele>
        <time>2020-06-04T16:27:28Z</time>
      </trkpt>
      <trkpt lat="47.08429" lon="-2.04185">
        <ele>15.4</ele>
        <time>2020-06-04T16:27:29Z</time>
      </trkpt>
      <trkpt lat="47.08432" lon="-2.0419">
        <ele>15.5</ele>
        <time>2020-06-04T16:27:30Z</time>
      </trkpt>
      <trkpt lat="47.08436" lon="-2.04196">
        <ele>15.7</ele>
        <time>2020-06-04T16:27:31Z</time>
      </trkpt>
      <trkpt lat="47.0844" lon="-2.042">
        <ele>15.8</ele>
        <time>2020-06-04T16:27:32Z</time>
      </trkpt>
      <trkpt lat="47.08443" lon="-2.04205">
        <ele>16</ele>
        <time>2020-06-04T16:27:33Z</time>
      </trkpt>
      <trkpt lat="47.08447" lon="-2.0421">
        <ele>16</ele>
        <time>2020-06-04T16:27:34Z</time>
      </trkpt>
      <trkpt lat="47.0845" lon="-2.04215">
        <ele>16.1</ele>
        <time>2020-06-04T16:27:35Z</time>
      </trkpt>
      <trkpt lat="47.08453" lon="-2.04221">
        <ele>16.1</ele>
        <time>2020-06-04T16:27:36Z</time>
      </trkpt>
      <trkpt lat="47.08455" lon="-2.04226">
        <ele>16.2</ele>
        <time>2020-06-04T16:27:37Z</time>
      </trkpt>
      <trkpt lat="47.08458" lon="-2.04231">
        <ele>16.2</ele>
        <time>2020-06-04T16:27:38Z</time>
      </trkpt>
      <trkpt lat="47.08462" lon="-2.04236">
        <ele>16.3</ele>
        <time>2020-06-04T16:27:39Z</time>
      </trkpt>
      <trkpt lat="47.08465" lon="-2.04242">
        <ele>16.4</ele>
        <time>2020-06-04T16:27:40Z</time>
      </trkpt>
      <trkpt lat="47.08468" lon="-2.04247">
        <ele>16.4</ele>
        <time>2020-06-04T16:27:41Z</time>
      </trkpt>
      <trkpt lat="47.0847" lon="-2.04252">
        <ele>16.5</ele>
        <time>2020-06-04T16:27:42Z</time>
      </trkpt>
      <trkpt lat="47.08473" lon="-2.04259">
        <ele>16.5</ele>
        <time>2020-06-04T16:27:43Z</time>
      </trkpt>
      <trkpt lat="47.08477" lon="-2.04264">
        <ele>16.6</ele>
        <time>2020-06-04T16:27:44Z</time>
      </trkpt>
      <trkpt lat="47.0848" lon="-2.04269">
        <ele>16.7</ele>
        <time>2020-06-04T16:27:45Z</time>
      </trkpt>
      <trkpt lat="47.08483" lon="-2.04274">
        <ele>16.7</ele>
        <time>2020-06-04T16:27:46Z</time>
      </trkpt>
      <trkpt lat="47.08486" lon="-2.04278">
        <ele>16.9</ele>
        <time>2020-06-04T16:27:47Z</time>
      </trkpt>
      <trkpt lat="47.08489" lon="-2.04284">
        <ele>17.1</ele>
        <time>2020-06-04T16:27:48Z</time>
      </trkpt>
      <trkpt lat="47.08492" lon="-2.04289">
        <ele>17.2</ele>
        <time>2020-06-04T16:27:49Z</time>
      </trkpt>
      <trkpt lat="47.08495" lon="-2.04294">
        <ele>17.4</ele>
        <time>2020-06-04T16:27:50Z</time>
      </trkpt>
      <trkpt lat="47.08497" lon="-2.04301">
        <ele>17.6</ele>
        <time>2020-06-04T16:27:51Z</time>
      </trkpt>
      <trkpt lat="47.085" lon="-2.04307">
        <ele>17.9</ele>
        <time>2020-06-04T16:27:52Z</time>
      </trkpt>
      <trkpt lat="47.08503" lon="-2.04312">
        <ele>18.1</ele>
        <time>2020-06-04T16:27:53Z</time>
      </trkpt>
      <trkpt lat="47.08505" lon="-2.04318">
        <ele>18.3</ele>
        <time>2020-06-04T16:27:54Z</time>
      </trkpt>
      <trkpt lat="47.08509" lon="-2.04323">
        <ele>18.3</ele>
        <time>2020-06-04T16:27:55Z</time>
      </trkpt>
      <trkpt lat="47.08512" lon="-2.04328">
        <ele>18.4</ele>
        <time>2020-06-04T16:27:56Z</time>
      </trkpt>
      <trkpt lat="47.08514" lon="-2.04334">
        <ele>18.5</ele>
        <time>2020-06-04T16:27:57Z</time>
      </trkpt>
      <trkpt lat="47.08517" lon="-2.04341">
        <ele>18.6</ele>
        <time>2020-06-04T16:27:58Z</time>
      </trkpt>
      <trkpt lat="47.08521" lon="-2.04347">
        <ele>18.7</ele>
        <time>2020-06-04T16:27:59Z</time>
      </trkpt>
      <trkpt lat="47.08524" lon="-2.04352">
        <ele>18.8</ele>
        <time>2020-06-04T16:28:00Z</time>
      </trkpt>
      <trkpt lat="47.08526" lon="-2.04356">
        <ele>18.9</ele>
        <time>2020-06-04T16:28:01Z</time>
      </trkpt>
      <trkpt lat="47.08529" lon="-2.04362">
        <ele>18.9</ele>
        <time>2020-06-04T16:28:02Z</time>
      </trkpt>
      <trkpt lat="47.08532" lon="-2.04368">
        <ele>19</ele>
        <time>2020-06-04T16:28:03Z</time>
      </trkpt>
      <trkpt lat="47.08534" lon="-2.04373">
        <ele>19.1</ele>
        <time>2020-06-04T16:28:04Z</time>
      </trkpt>
      <trkpt lat="47.08537" lon="-2.04379">
        <ele>19.1</ele>
        <time>2020-06-04T16:28:05Z</time>
      </trkpt>
      <trkpt lat="47.0854" lon="-2.04384">
        <ele>19.2</ele>
        <time>2020-06-04T16:28:06Z</time>
      </trkpt>
      <trkpt lat="47.08543" lon="-2.04389">
        <ele>19.2</ele>
        <time>2020-06-04T16:28:07Z</time>
      </trkpt>
      <trkpt lat="47.08546" lon="-2.04395">
        <ele>19.3</ele>
        <time>2020-06-04T16:28:08Z</time>
      </trkpt>
      <trkpt lat="47.08549" lon="-2.04401">
        <ele>19.3</ele>
        <time>2020-06-04T16:28:09Z</time>
      </trkpt>
      <trkpt lat="47.08552" lon="-2.04406">
        <ele>19.3</ele>
        <time>2020-06-04T16:28:10Z</time>
      </trkpt>
      <trkpt lat="47.08556" lon="-2.04411">
        <ele>19.3</ele>
        <time>2020-06-04T16:28:11Z</time>
      </trkpt>
      <trkpt lat="47.0856" lon="-2.04416">
        <ele>19.3</ele>
        <time>2020-06-04T16:28:12Z</time>
      </trkpt>
      <trkpt lat="47.08564" lon="-2.04421">
        <ele>19.2</ele>
        <time>2020-06-04T16:28:13Z</time>
      </trkpt>
      <trkpt lat="47.08567" lon="-2.04426">
        <ele>19.2</ele>
        <time>2020-06-04T16:28:14Z</time>
      </trkpt>
      <trkpt lat="47.08571" lon="-2.0443">
        <ele>19.1</ele>
        <time>2020-06-04T16:28:15Z</time>
      </trkpt>
      <trkpt lat="47.08574" lon="-2.04434">
        <ele>19.1</ele>
        <time>2020-06-04T16:28:16Z</time>
      </trkpt>
      <trkpt lat="47.08577" lon="-2.04439">
        <ele>19</ele>
        <time>2020-06-04T16:28:17Z</time>
      </trkpt>
      <trkpt lat="47.0858" lon="-2.04444">
        <ele>19</ele>
        <time>2020-06-04T16:28:18Z</time>
      </trkpt>
      <trkpt lat="47.08583" lon="-2.0445">
        <ele>18.9</ele>
        <time>2020-06-04T16:28:19Z</time>
      </trkpt>
      <trkpt lat="47.08587" lon="-2.04454">
        <ele>18.9</ele>
        <time>2020-06-04T16:28:20Z</time>
      </trkpt>
      <trkpt lat="47.08591" lon="-2.04459">
        <ele>18.8</ele>
        <time>2020-06-04T16:28:21Z</time>
      </trkpt>
      <trkpt lat="47.08595" lon="-2.04463">
        <ele>18.8</ele>
        <time>2020-06-04T16:28:22Z</time>
      </trkpt>
      <trkpt lat="47.08599" lon="-2.04467">
        <ele>18.7</ele>
        <time>2020-06-04T16:28:23Z</time>
      </trkpt>
      <trkpt lat="47.08603" lon="-2.04472">
        <ele>18.7</ele>
        <time>2020-06-04T16:28:24Z</time>
      </trkpt>
      <trkpt lat="47.08606" lon="-2.04476">
        <ele>18.7</ele>
        <time>2020-06-04T16:28:25Z</time>
      </trkpt>
      <trkpt lat="47.08611" lon="-2.0448">
        <ele>18.6</ele>
        <time>2020-06-04T16:28:26Z</time>
      </trkpt>
      <trkpt lat="47.08616" lon="-2.04484">
        <ele>18.6</ele>
        <time>2020-06-04T16:28:27Z</time>
      </trkpt>
      <trkpt lat="47.0862" lon="-2.04489">
        <ele>18.5</ele>
        <time>2020-06-04T16:28:28Z</time>
      </trkpt>
      <trkpt lat="47.08625" lon="-2.04493">
        <ele>18.3</ele>
        <time>2020-06-04T16:28:29Z</time>
      </trkpt>
      <trkpt lat="47.08629" lon="-2.04497">
        <ele>18.3</ele>
        <time>2020-06-04T16:28:30Z</time>
      </trkpt>
      <trkpt lat="47.08634" lon="-2.04501">
        <ele>18.3</ele>
        <time>2020-06-04T16:28:31Z</time>
      </trkpt>
      <trkpt lat="47.08639" lon="-2.04506">
        <ele>18.2</ele>
        <time>2020-06-04T16:28:32Z</time>
      </trkpt>
      <trkpt lat="47.08644" lon="-2.04511">
        <ele>18.2</ele>
        <time>2020-06-04T16:28:33Z</time>
      </trkpt>
      <trkpt lat="47.08649" lon="-2.04516">
        <ele>18.1</ele>
        <time>2020-06-04T16:28:34Z</time>
      </trkpt>
      <trkpt lat="47.08653" lon="-2.04521">
        <ele>18.1</ele>
        <time>2020-06-04T16:28:35Z</time>
      </trkpt>
      <trkpt lat="47.08657" lon="-2.04526">
        <ele>18.1</ele>
        <time>2020-06-04T16:28:36Z</time>
      </trkpt>
      <trkpt lat="47.08661" lon="-2.04531">
        <ele>18.1</ele>
        <time>2020-06-04T16:28:37Z</time>
      </trkpt>
      <trkpt lat="47.08666" lon="-2.04536">
        <ele>18.2</ele>
        <time>2020-06-04T16:28:38Z</time>
      </trkpt>
      <trkpt lat="47.0867" lon="-2.04541">
        <ele>18.2</ele>
        <time>2020-06-04T16:28:39Z</time>
      </trkpt>
      <trkpt lat="47.08674" lon="-2.04546">
        <ele>18.3</ele>
        <time>2020-06-04T16:28:40Z</time>
      </trkpt>
      <trkpt lat="47.08678" lon="-2.04551">
        <ele>18.4</ele>
        <time>2020-06-04T16:28:41Z</time>
      </trkpt>
      <trkpt lat="47.08682" lon="-2.04555">
        <ele>18.4</ele>
        <time>2020-06-04T16:28:42Z</time>
      </trkpt>
      <trkpt lat="47.08686" lon="-2.0456">
        <ele>18.5</ele>
        <time>2020-06-04T16:28:43Z</time>
      </trkpt>
      <trkpt lat="47.0869" lon="-2.04564">
        <ele>18.5</ele>
        <time>2020-06-04T16:28:44Z</time>
      </trkpt>
      <trkpt lat="47.08694" lon="-2.04568">
        <ele>18.7</ele>
        <time>2020-06-04T16:28:45Z</time>
      </trkpt>
      <trkpt lat="47.08698" lon="-2.04572">
        <ele>18.7</ele>
        <time>2020-06-04T16:28:46Z</time>
      </trkpt>
      <trkpt lat="47.08702" lon="-2.04576">
        <ele>18.8</ele>
        <time>2020-06-04T16:28:47Z</time>
      </trkpt>
      <trkpt lat="47.08706" lon="-2.04579">
        <ele>18.8</ele>
        <time>2020-06-04T16:28:48Z</time>
      </trkpt>
      <trkpt lat="47.08709" lon="-2.04582">
        <ele>18.8</ele>
        <time>2020-06-04T16:28:49Z</time>
      </trkpt>
      <trkpt lat="47.08712" lon="-2.04586">
        <ele>19</ele>
        <time>2020-06-04T16:28:50Z</time>
      </trkpt>
      <trkpt lat="47.08716" lon="-2.0459">
        <ele>19.1</ele>
        <time>2020-06-04T16:28:51Z</time>
      </trkpt>
      <trkpt lat="47.0872" lon="-2.04594">
        <ele>19.3</ele>
        <time>2020-06-04T16:28:52Z</time>
      </trkpt>
      <trkpt lat="47.08724" lon="-2.04597">
        <ele>19.4</ele>
        <time>2020-06-04T16:28:53Z</time>
      </trkpt>
      <trkpt lat="47.08729" lon="-2.04601">
        <ele>19.5</ele>
        <time>2020-06-04T16:28:54Z</time>
      </trkpt>
      <trkpt lat="47.08733" lon="-2.04605">
        <ele>19.7</ele>
        <time>2020-06-04T16:28:55Z</time>
      </trkpt>
      <trkpt lat="47.08737" lon="-2.04609">
        <ele>19.8</ele>
        <time>2020-06-04T16:28:56Z</time>
      </trkpt>
      <trkpt lat="47.08742" lon="-2.04612">
        <ele>20</ele>
        <time>2020-06-04T16:28:57Z</time>
      </trkpt>
      <trkpt lat="47.08747" lon="-2.04617">
        <ele>20.1</ele>
        <time>2020-06-04T16:28:58Z</time>
      </trkpt>
      <trkpt lat="47.08751" lon="-2.04622">
        <ele>20.3</ele>
        <time>2020-06-04T16:28:59Z</time>
      </trkpt>
      <trkpt lat="47.08755" lon="-2.04626">
        <ele>20.4</ele>
        <time>2020-06-04T16:29:00Z</time>
      </trkpt>
      <trkpt lat="47.08759" lon="-2.04631">
        <ele>20.5</ele>
        <time>2020-06-04T16:29:01Z</time>
      </trkpt>
      <trkpt lat="47.08763" lon="-2.04635">
        <ele>20.6</ele>
        <time>2020-06-04T16:29:02Z</time>
      </trkpt>
      <trkpt lat="47.08767" lon="-2.0464">
        <ele>20.8</ele>
        <time>2020-06-04T16:29:03Z</time>
      </trkpt>
      <trkpt lat="47.08771" lon="-2.04647">
        <ele>21</ele>
        <time>2020-06-04T16:29:04Z</time>
      </trkpt>
      <trkpt lat="47.08775" lon="-2.04652">
        <ele>21.1</ele>
        <time>2020-06-04T16:29:05Z</time>
      </trkpt>
      <trkpt lat="47.08779" lon="-2.04656">
        <ele>21.3</ele>
        <time>2020-06-04T16:29:06Z</time>
      </trkpt>
      <trkpt lat="47.08783" lon="-2.0466">
        <ele>21.4</ele>
        <time>2020-06-04T16:29:07Z</time>
      </trkpt>
      <trkpt lat="47.08788" lon="-2.04664">
        <ele>21.6</ele>
        <time>2020-06-04T16:29:08Z</time>
      </trkpt>
      <trkpt lat="47.08792" lon="-2.04668">
        <ele>21.8</ele>
        <time>2020-06-04T16:29:09Z</time>
      </trkpt>
      <trkpt lat="47.08796" lon="-2.04672">
        <ele>21.9</ele>
        <time>2020-06-04T16:29:10Z</time>
      </trkpt>
      <trkpt lat="47.088" lon="-2.04675">
        <ele>22</ele>
        <time>2020-06-04T16:29:11Z</time>
      </trkpt>
      <trkpt lat="47.08804" lon="-2.04679">
        <ele>22.1</ele>
        <time>2020-06-04T16:29:12Z</time>
      </trkpt>
      <trkpt lat="47.08807" lon="-2.04682">
        <ele>22.2</ele>
        <time>2020-06-04T16:29:13Z</time>
      </trkpt>
      <trkpt lat="47.08811" lon="-2.04686">
        <ele>22.3</ele>
        <time>2020-06-04T16:29:14Z</time>
      </trkpt>
      <trkpt lat="47.08815" lon="-2.0469">
        <ele>22.4</ele>
        <time>2020-06-04T16:29:15Z</time>
      </trkpt>
      <trkpt lat="47.08818" lon="-2.04693">
        <ele>22.5</ele>
        <time>2020-06-04T16:29:16Z</time>
      </trkpt>
      <trkpt lat="47.08822" lon="-2.04697">
        <ele>22.7</ele>
        <time>2020-06-04T16:29:17Z</time>
      </trkpt>
      <trkpt lat="47.08826" lon="-2.04701">
        <ele>22.8</ele>
        <time>2020-06-04T16:29:18Z</time>
      </trkpt>
      <trkpt lat="47.0883" lon="-2.04705">
        <ele>22.9</ele>
        <time>2020-06-04T16:29:19Z</time>
      </trkpt>
      <trkpt lat="47.08833" lon="-2.04709">
        <ele>23</ele>
        <time>2020-06-04T16:29:20Z</time>
      </trkpt>
      <trkpt lat="47.08837" lon="-2.04714">
        <ele>23.2</ele>
        <time>2020-06-04T16:29:21Z</time>
      </trkpt>
      <trkpt lat="47.08841" lon="-2.04718">
        <ele>23.4</ele>
        <time>2020-06-04T16:29:22Z</time>
      </trkpt>
      <trkpt lat="47.08844" lon="-2.04721">
        <ele>23.5</ele>
        <time>2020-06-04T16:29:23Z</time>
      </trkpt>
      <trkpt lat="47.08849" lon="-2.04725">
        <ele>23.7</ele>
        <time>2020-06-04T16:29:24Z</time>
      </trkpt>
      <trkpt lat="47.08852" lon="-2.04729">
        <ele>23.8</ele>
        <time>2020-06-04T16:29:25Z</time>
      </trkpt>
      <trkpt lat="47.08856" lon="-2.04734">
        <ele>23.9</ele>
        <time>2020-06-04T16:29:26Z</time>
      </trkpt>
      <trkpt lat="47.0886" lon="-2.04738">
        <ele>24</ele>
        <time>2020-06-04T16:29:27Z</time>
      </trkpt>
      <trkpt lat="47.08863" lon="-2.04742">
        <ele>24.1</ele>
        <time>2020-06-04T16:29:28Z</time>
      </trkpt>
      <trkpt lat="47.08867" lon="-2.04747">
        <ele>24.2</ele>
        <time>2020-06-04T16:29:29Z</time>
      </trkpt>
      <trkpt lat="47.0887" lon="-2.04751">
        <ele>24.3</ele>
        <time>2020-06-04T16:29:30Z</time>
      </trkpt>
      <trkpt lat="47.08874" lon="-2.04754">
        <ele>24.4</ele>
        <time>2020-06-04T16:29:31Z</time>
      </trkpt>
      <trkpt lat="47.08878" lon="-2.04759">
        <ele>24.5</ele>
        <time>2020-06-04T16:29:32Z</time>
      </trkpt>
      <trkpt lat="47.08883" lon="-2.04763">
        <ele>24.7</ele>
        <time>2020-06-04T16:29:33Z</time>
      </trkpt>
      <trkpt lat="47.08888" lon="-2.04767">
        <ele>24.9</ele>
        <time>2020-06-04T16:29:34Z</time>
      </trkpt>
      <trkpt lat="47.08892" lon="-2.04771">
        <ele>25</ele>
        <time>2020-06-04T16:29:35Z</time>
      </trkpt>
      <trkpt lat="47.08896" lon="-2.04775">
        <ele>25.2</ele>
        <time>2020-06-04T16:29:36Z</time>
      </trkpt>
      <trkpt lat="47.089" lon="-2.04779">
        <ele>25.3</ele>
        <time>2020-06-04T16:29:37Z</time>
      </trkpt>
      <trkpt lat="47.08904" lon="-2.04783">
        <ele>25.5</ele>
        <time>2020-06-04T16:29:38Z</time>
      </trkpt>
      <trkpt lat="47.08909" lon="-2.04786">
        <ele>25.6</ele>
        <time>2020-06-04T16:29:39Z</time>
      </trkpt>
      <trkpt lat="47.08913" lon="-2.0479">
        <ele>25.7</ele>
        <time>2020-06-04T16:29:40Z</time>
      </trkpt>
      <trkpt lat="47.08917" lon="-2.04794">
        <ele>25.8</ele>
        <time>2020-06-04T16:29:41Z</time>
      </trkpt>
      <trkpt lat="47.08921" lon="-2.04796">
        <ele>25.9</ele>
        <time>2020-06-04T16:29:42Z</time>
      </trkpt>
      <trkpt lat="47.08925" lon="-2.04798">
        <ele>26</ele>
        <time>2020-06-04T16:29:43Z</time>
      </trkpt>
      <trkpt lat="47.08929" lon="-2.048">
        <ele>26</ele>
        <time>2020-06-04T16:29:44Z</time>
      </trkpt>
      <trkpt lat="47.08933" lon="-2.04802">
        <ele>26.1</ele>
        <time>2020-06-04T16:29:45Z</time>
      </trkpt>
      <trkpt lat="47.08936" lon="-2.04808">
        <ele>26.2</ele>
        <time>2020-06-04T16:29:46Z</time>
      </trkpt>
      <trkpt lat="47.0894" lon="-2.04811">
        <ele>26.3</ele>
        <time>2020-06-04T16:29:47Z</time>
      </trkpt>
      <trkpt lat="47.08943" lon="-2.04813">
        <ele>26.4</ele>
        <time>2020-06-04T16:29:48Z</time>
      </trkpt>
      <trkpt lat="47.08947" lon="-2.04815">
        <ele>26.5</ele>
        <time>2020-06-04T16:29:49Z</time>
      </trkpt>
      <trkpt lat="47.08951" lon="-2.04816">
        <ele>26.6</ele>
        <time>2020-06-04T16:29:50Z</time>
      </trkpt>
      <trkpt lat="47.08954" lon="-2.04817">
        <ele>26.6</ele>
        <time>2020-06-04T16:29:51Z</time>
      </trkpt>
      <trkpt lat="47.08958" lon="-2.04817">
        <ele>26.7</ele>
        <time>2020-06-04T16:29:52Z</time>
      </trkpt>
      <trkpt lat="47.08962" lon="-2.04817">
        <ele>26.7</ele>
        <time>2020-06-04T16:29:53Z</time>
      </trkpt>
      <trkpt lat="47.08965" lon="-2.04818">
        <ele>26.7</ele>
        <time>2020-06-04T16:29:54Z</time>
      </trkpt>
      <trkpt lat="47.08969" lon="-2.04818">
        <ele>26.8</ele>
        <time>2020-06-04T16:29:55Z</time>
      </trkpt>
      <trkpt lat="47.08974" lon="-2.04818">
        <ele>26.8</ele>
        <time>2020-06-04T16:29:56Z</time>
      </trkpt>
      <trkpt lat="47.08977" lon="-2.0482">
        <ele>26.8</ele>
        <time>2020-06-04T16:29:57Z</time>
      </trkpt>
      <trkpt lat="47.08981" lon="-2.04821">
        <ele>26.9</ele>
        <time>2020-06-04T16:29:58Z</time>
      </trkpt>
      <trkpt lat="47.08984" lon="-2.04822">
        <ele>27</ele>
        <time>2020-06-04T16:29:59Z</time>
      </trkpt>
      <trkpt lat="47.08988" lon="-2.04823">
        <ele>27.1</ele>
        <time>2020-06-04T16:30:00Z</time>
      </trkpt>
      <trkpt lat="47.08993" lon="-2.04822">
        <ele>27.2</ele>
        <time>2020-06-04T16:30:01Z</time>
      </trkpt>
      <trkpt lat="47.08998" lon="-2.04823">
        <ele>27.3</ele>
        <time>2020-06-04T16:30:02Z</time>
      </trkpt>
      <trkpt lat="47.09003" lon="-2.04823">
        <ele>27.4</ele>
        <time>2020-06-04T16:30:03Z</time>
      </trkpt>
      <trkpt lat="47.09007" lon="-2.04824">
        <ele>27.6</ele>
        <time>2020-06-04T16:30:04Z</time>
      </trkpt>
      <trkpt lat="47.09012" lon="-2.04823">
        <ele>27.8</ele>
        <time>2020-06-04T16:30:05Z</time>
      </trkpt>
      <trkpt lat="47.09018" lon="-2.04823">
        <ele>28</ele>
        <time>2020-06-04T16:30:06Z</time>
      </trkpt>
      <trkpt lat="47.09023" lon="-2.04822">
        <ele>28.2</ele>
        <time>2020-06-04T16:30:07Z</time>
      </trkpt>
      <trkpt lat="47.09028" lon="-2.0482">
        <ele>28.4</ele>
        <time>2020-06-04T16:30:08Z</time>
      </trkpt>
      <trkpt lat="47.09033" lon="-2.04818">
        <ele>28.6</ele>
        <time>2020-06-04T16:30:09Z</time>
      </trkpt>
      <trkpt lat="47.09039" lon="-2.04816">
        <ele>28.7</ele>
        <time>2020-06-04T16:30:10Z</time>
      </trkpt>
      <trkpt lat="47.09044" lon="-2.04813">
        <ele>28.9</ele>
        <time>2020-06-04T16:30:11Z</time>
      </trkpt>
      <trkpt lat="47.0905" lon="-2.04811">
        <ele>29.1</ele>
        <time>2020-06-04T16:30:12Z</time>
      </trkpt>
      <trkpt lat="47.09056" lon="-2.04809">
        <ele>29.2</ele>
        <time>2020-06-04T16:30:13Z</time>
      </trkpt>
      <trkpt lat="47.09062" lon="-2.04806">
        <ele>29.4</ele>
        <time>2020-06-04T16:30:14Z</time>
      </trkpt>
      <trkpt lat="47.09067" lon="-2.04803">
        <ele>29.5</ele>
        <time>2020-06-04T16:30:15Z</time>
      </trkpt>
      <trkpt lat="47.09072" lon="-2.04802">
        <ele>29.7</ele>
        <time>2020-06-04T16:30:16Z</time>
      </trkpt>
      <trkpt lat="47.09078" lon="-2.04797">
        <ele>29.8</ele>
        <time>2020-06-04T16:30:17Z</time>
      </trkpt>
      <trkpt lat="47.09083" lon="-2.04795">
        <ele>29.9</ele>
        <time>2020-06-04T16:30:18Z</time>
      </trkpt>
      <trkpt lat="47.09088" lon="-2.04792">
        <ele>30</ele>
        <time>2020-06-04T16:30:19Z</time>
      </trkpt>
      <trkpt lat="47.09092" lon="-2.0479">
        <ele>30</ele>
        <time>2020-06-04T16:30:20Z</time>
      </trkpt>
      <trkpt lat="47.09095" lon="-2.04787">
        <ele>30</ele>
        <time>2020-06-04T16:30:21Z</time>
      </trkpt>
      <trkpt lat="47.09099" lon="-2.04784">
        <ele>30</ele>
        <time>2020-06-04T16:30:22Z</time>
      </trkpt>
      <trkpt lat="47.09102" lon="-2.04782">
        <ele>30.1</ele>
        <time>2020-06-04T16:30:23Z</time>
      </trkpt>
      <trkpt lat="47.09105" lon="-2.0478">
        <ele>30.1</ele>
        <time>2020-06-04T16:30:24Z</time>
      </trkpt>
      <trkpt lat="47.09107" lon="-2.04777">
        <ele>30.1</ele>
        <time>2020-06-04T16:30:25Z</time>
      </trkpt>
      <trkpt lat="47.0911" lon="-2.04775">
        <ele>30.1</ele>
        <time>2020-06-04T16:30:26Z</time>
      </trkpt>
      <trkpt lat="47.09113" lon="-2.04773">
        <ele>30.1</ele>
        <time>2020-06-04T16:30:27Z</time>
      </trkpt>
      <trkpt lat="47.09115" lon="-2.0477">
        <ele>30.1</ele>
        <time>2020-06-04T16:30:28Z</time>
      </trkpt>
      <trkpt lat="47.09115" lon="-2.04768">
        <ele>30.1</ele>
        <time>2020-06-04T16:30:29Z</time>
      </trkpt>
      <trkpt lat="47.09116" lon="-2.04766">
        <ele>30.1</ele>
        <time>2020-06-04T16:30:30Z</time>
      </trkpt>
      <trkpt lat="47.09117" lon="-2.04766">
        <ele>30.1</ele>
        <time>2020-06-04T16:30:31Z</time>
      </trkpt>
      <trkpt lat="47.09117" lon="-2.04766">
        <ele>30.1</ele>
        <time>2020-06-04T16:30:32Z</time>
      </trkpt>
      <trkpt lat="47.09117" lon="-2.04767">
        <ele>30.2</ele>
        <time>2020-06-04T16:30:33Z</time>
      </trkpt>
      <trkpt lat="47.09117" lon="-2.04768">
        <ele>30.2</ele>
        <time>2020-06-04T16:30:34Z</time>
      </trkpt>
      <trkpt lat="47.09116" lon="-2.04768">
        <ele>30.2</ele>
        <time>2020-06-04T16:30:35Z</time>
      </trkpt>
      <trkpt lat="47.09117" lon="-2.04768">
        <ele>30.2</ele>
        <time>2020-06-04T16:30:36Z</time>
      </trkpt>
      <trkpt lat="47.09117" lon="-2.04768">
        <ele>30.2</ele>
        <time>2020-06-04T16:30:37Z</time>
      </trkpt>
      <trkpt lat="47.09117" lon="-2.04768">
        <ele>30.2</ele>
        <time>2020-06-04T16:30:38Z</time>
      </trkpt>
      <trkpt lat="47.09117" lon="-2.04768">
        <ele>30.2</ele>
        <time>2020-06-04T16:30:39Z</time>
      </trkpt>
      <trkpt lat="47.09117" lon="-2.04768">
        <ele>30.2</ele>
        <time>2020-06-04T16:30:40Z</time>
      </trkpt>
      <trkpt lat="47.09117" lon="-2.04768">
        <ele>30.2</ele>
        <time>2020-06-04T16:30:41Z</time>
      </trkpt>
      <trkpt lat="47.09116" lon="-2.04768">
        <ele>30.2</ele>
        <time>2020-06-04T16:30:42Z</time>
      </trkpt>
      <trkpt lat="47.09116" lon="-2.04768">
        <ele>30.2</ele>
        <time>2020-06-04T16:30:43Z</time>
      </trkpt>
      <trkpt lat="47.09116" lon="-2.04768">
        <ele>30.2</ele>
        <time>2020-06-04T16:30:44Z</time>
      </trkpt>
      <trkpt lat="47.0912" lon="-2.04766">
        <ele>30.2</ele>
        <time>2020-06-04T16:31:01Z</time>
      </trkpt>
      <trkpt lat="47.09119" lon="-2.04765">
        <ele>30.2</ele>
        <time>2020-06-04T16:31:02Z</time>
      </trkpt>
      <trkpt lat="47.09119" lon="-2.04764">
        <ele>30.2</ele>
        <time>2020-06-04T16:31:03Z</time>
      </trkpt>
      <trkpt lat="47.09119" lon="-2.04764">
        <ele>30.2</ele>
        <time>2020-06-04T16:31:04Z</time>
      </trkpt>
      <trkpt lat="47.09119" lon="-2.04763">
        <ele>30.2</ele>
        <time>2020-06-04T16:31:05Z</time>
      </trkpt>
      <trkpt lat="47.09119" lon="-2.04763">
        <ele>30.2</ele>
        <time>2020-06-04T16:31:06Z</time>
      </trkpt>
      <trkpt lat="47.09119" lon="-2.04763">
        <ele>30.2</ele>
        <time>2020-06-04T16:31:07Z</time>
      </trkpt>
      <trkpt lat="47.09119" lon="-2.04763">
        <ele>30.2</ele>
        <time>2020-06-04T16:31:08Z</time>
      </trkpt>
      <trkpt lat="47.09119" lon="-2.04763">
        <ele>30.2</ele>
        <time>2020-06-04T16:31:09Z</time>
      </trkpt>
      <trkpt lat="47.0912" lon="-2.04763">
        <ele>30.2</ele>
        <time>2020-06-04T16:31:10Z</time>
      </trkpt>
      <trkpt lat="47.0912" lon="-2.04763">
        <ele>30.2</ele>
        <time>2020-06-04T16:31:11Z</time>
      </trkpt>
      <trkpt lat="47.09121" lon="-2.04763">
        <ele>30.2</ele>
        <time>2020-06-04T16:31:12Z</time>
      </trkpt>
      <trkpt lat="47.09124" lon="-2.04761">
        <ele>30.2</ele>
        <time>2020-06-04T16:31:13Z</time>
      </trkpt>
      <trkpt lat="47.09125" lon="-2.0476">
        <ele>30.2</ele>
        <time>2020-06-04T16:31:14Z</time>
      </trkpt>
      <trkpt lat="47.09128" lon="-2.04759">
        <ele>30.2</ele>
        <time>2020-06-04T16:31:15Z</time>
      </trkpt>
      <trkpt lat="47.09129" lon="-2.04759">
        <ele>30.2</ele>
        <time>2020-06-04T16:31:16Z</time>
      </trkpt>
      <trkpt lat="47.09132" lon="-2.04756">
        <ele>30.2</ele>
        <time>2020-06-04T16:31:17Z</time>
      </trkpt>
      <trkpt lat="47.09134" lon="-2.04753">
        <ele>30.2</ele>
        <time>2020-06-04T16:31:18Z</time>
      </trkpt>
      <trkpt lat="47.09137" lon="-2.04751">
        <ele>30.2</ele>
        <time>2020-06-04T16:31:19Z</time>
      </trkpt>
      <trkpt lat="47.09139" lon="-2.04748">
        <ele>30.2</ele>
        <time>2020-06-04T16:31:20Z</time>
      </trkpt>
      <trkpt lat="47.09143" lon="-2.04744">
        <ele>30.2</ele>
        <time>2020-06-04T16:31:21Z</time>
      </trkpt>
      <trkpt lat="47.09146" lon="-2.04741">
        <ele>30.2</ele>
        <time>2020-06-04T16:31:22Z</time>
      </trkpt>
      <trkpt lat="47.09149" lon="-2.04739">
        <ele>30.1</ele>
        <time>2020-06-04T16:31:23Z</time>
      </trkpt>
      <trkpt lat="47.09152" lon="-2.04736">
        <ele>30.1</ele>
        <time>2020-06-04T16:31:24Z</time>
      </trkpt>
      <trkpt lat="47.09156" lon="-2.04733">
        <ele>30.1</ele>
        <time>2020-06-04T16:31:25Z</time>
      </trkpt>
      <trkpt lat="47.0916" lon="-2.04731">
        <ele>30</ele>
        <time>2020-06-04T16:31:26Z</time>
      </trkpt>
      <trkpt lat="47.09163" lon="-2.04729">
        <ele>29.9</ele>
        <time>2020-06-04T16:31:27Z</time>
      </trkpt>
      <trkpt lat="47.09167" lon="-2.04726">
        <ele>29.9</ele>
        <time>2020-06-04T16:31:28Z</time>
      </trkpt>
      <trkpt lat="47.0917" lon="-2.04721">
        <ele>29.8</ele>
        <time>2020-06-04T16:31:29Z</time>
      </trkpt>
      <trkpt lat="47.09174" lon="-2.04718">
        <ele>29.7</ele>
        <time>2020-06-04T16:31:30Z</time>
      </trkpt>
      <trkpt lat="47.09178" lon="-2.04714">
        <ele>29.7</ele>
        <time>2020-06-04T16:31:31Z</time>
      </trkpt>
      <trkpt lat="47.09182" lon="-2.0471">
        <ele>29.6</ele>
        <time>2020-06-04T16:31:32Z</time>
      </trkpt>
      <trkpt lat="47.09186" lon="-2.04709">
        <ele>29.6</ele>
        <time>2020-06-04T16:31:33Z</time>
      </trkpt>
      <trkpt lat="47.0919" lon="-2.04706">
        <ele>29.5</ele>
        <time>2020-06-04T16:31:34Z</time>
      </trkpt>
      <trkpt lat="47.09194" lon="-2.04704">
        <ele>29.5</ele>
        <time>2020-06-04T16:31:35Z</time>
      </trkpt>
      <trkpt lat="47.09198" lon="-2.047">
        <ele>29.4</ele>
        <time>2020-06-04T16:31:36Z</time>
      </trkpt>
      <trkpt lat="47.09201" lon="-2.04697">
        <ele>29.3</ele>
        <time>2020-06-04T16:31:37Z</time>
      </trkpt>
      <trkpt lat="47.09205" lon="-2.04693">
        <ele>29.3</ele>
        <time>2020-06-04T16:31:38Z</time>
      </trkpt>
      <trkpt lat="47.09208" lon="-2.04691">
        <ele>29.2</ele>
        <time>2020-06-04T16:31:39Z</time>
      </trkpt>
      <trkpt lat="47.09212" lon="-2.04687">
        <ele>29.2</ele>
        <time>2020-06-04T16:31:40Z</time>
      </trkpt>
      <trkpt lat="47.09216" lon="-2.04683">
        <ele>29.1</ele>
        <time>2020-06-04T16:31:41Z</time>
      </trkpt>
      <trkpt lat="47.0922" lon="-2.0468">
        <ele>29.1</ele>
        <time>2020-06-04T16:31:42Z</time>
      </trkpt>
      <trkpt lat="47.09225" lon="-2.04675">
        <ele>29</ele>
        <time>2020-06-04T16:31:43Z</time>
      </trkpt>
      <trkpt lat="47.0923" lon="-2.04672">
        <ele>28.9</ele>
        <time>2020-06-04T16:31:44Z</time>
      </trkpt>
      <trkpt lat="47.09235" lon="-2.04668">
        <ele>28.9</ele>
        <time>2020-06-04T16:31:45Z</time>
      </trkpt>
      <trkpt lat="47.0924" lon="-2.04665">
        <ele>28.8</ele>
        <time>2020-06-04T16:31:46Z</time>
      </trkpt>
      <trkpt lat="47.09245" lon="-2.04661">
        <ele>28.7</ele>
        <time>2020-06-04T16:31:47Z</time>
      </trkpt>
      <trkpt lat="47.09249" lon="-2.04657">
        <ele>28.7</ele>
        <time>2020-06-04T16:31:48Z</time>
      </trkpt>
      <trkpt lat="47.09254" lon="-2.04654">
        <ele>28.6</ele>
        <time>2020-06-04T16:31:49Z</time>
      </trkpt>
      <trkpt lat="47.09259" lon="-2.04651">
        <ele>28.4</ele>
        <time>2020-06-04T16:31:50Z</time>
      </trkpt>
      <trkpt lat="47.09263" lon="-2.04646">
        <ele>28.4</ele>
        <time>2020-06-04T16:31:51Z</time>
      </trkpt>
      <trkpt lat="47.09267" lon="-2.04644">
        <ele>28.5</ele>
        <time>2020-06-04T16:31:52Z</time>
      </trkpt>
      <trkpt lat="47.09271" lon="-2.0464">
        <ele>28.5</ele>
        <time>2020-06-04T16:31:53Z</time>
      </trkpt>
      <trkpt lat="47.09275" lon="-2.04636">
        <ele>28.5</ele>
        <time>2020-06-04T16:31:54Z</time>
      </trkpt>
      <trkpt lat="47.09279" lon="-2.04633">
        <ele>28.5</ele>
        <time>2020-06-04T16:31:55Z</time>
      </trkpt>
      <trkpt lat="47.09283" lon="-2.0463">
        <ele>28.5</ele>
        <time>2020-06-04T16:31:56Z</time>
      </trkpt>
      <trkpt lat="47.09288" lon="-2.04624">
        <ele>28.5</ele>
        <time>2020-06-04T16:31:57Z</time>
      </trkpt>
      <trkpt lat="47.09294" lon="-2.04621">
        <ele>28.5</ele>
        <time>2020-06-04T16:31:58Z</time>
      </trkpt>
      <trkpt lat="47.09298" lon="-2.04617">
        <ele>28.5</ele>
        <time>2020-06-04T16:31:59Z</time>
      </trkpt>
      <trkpt lat="47.09301" lon="-2.04615">
        <ele>28.5</ele>
        <time>2020-06-04T16:32:00Z</time>
      </trkpt>
      <trkpt lat="47.09306" lon="-2.04611">
        <ele>28.5</ele>
        <time>2020-06-04T16:32:01Z</time>
      </trkpt>
      <trkpt lat="47.0931" lon="-2.04608">
        <ele>28.5</ele>
        <time>2020-06-04T16:32:02Z</time>
      </trkpt>
      <trkpt lat="47.09314" lon="-2.04603">
        <ele>28.5</ele>
        <time>2020-06-04T16:32:03Z</time>
      </trkpt>
      <trkpt lat="47.09318" lon="-2.04598">
        <ele>28.5</ele>
        <time>2020-06-04T16:32:04Z</time>
      </trkpt>
      <trkpt lat="47.09322" lon="-2.04595">
        <ele>28.5</ele>
        <time>2020-06-04T16:32:05Z</time>
      </trkpt>
      <trkpt lat="47.09326" lon="-2.0459">
        <ele>28.5</ele>
        <time>2020-06-04T16:32:06Z</time>
      </trkpt>
      <trkpt lat="47.09329" lon="-2.04586">
        <ele>28.6</ele>
        <time>2020-06-04T16:32:07Z</time>
      </trkpt>
      <trkpt lat="47.09332" lon="-2.04581">
        <ele>28.6</ele>
        <time>2020-06-04T16:32:08Z</time>
      </trkpt>
      <trkpt lat="47.09336" lon="-2.04576">
        <ele>28.7</ele>
        <time>2020-06-04T16:32:09Z</time>
      </trkpt>
      <trkpt lat="47.0934" lon="-2.04572">
        <ele>28.7</ele>
        <time>2020-06-04T16:32:10Z</time>
      </trkpt>
      <trkpt lat="47.09344" lon="-2.04567">
        <ele>28.8</ele>
        <time>2020-06-04T16:32:11Z</time>
      </trkpt>
      <trkpt lat="47.09349" lon="-2.04564">
        <ele>28.9</ele>
        <time>2020-06-04T16:32:12Z</time>
      </trkpt>
      <trkpt lat="47.09354" lon="-2.04561">
        <ele>29</ele>
        <time>2020-06-04T16:32:13Z</time>
      </trkpt>
      <trkpt lat="47.09358" lon="-2.04559">
        <ele>29</ele>
        <time>2020-06-04T16:32:14Z</time>
      </trkpt>
      <trkpt lat="47.09363" lon="-2.04559">
        <ele>29.1</ele>
        <time>2020-06-04T16:32:15Z</time>
      </trkpt>
      <trkpt lat="47.09366" lon="-2.04561">
        <ele>29.2</ele>
        <time>2020-06-04T16:32:16Z</time>
      </trkpt>
      <trkpt lat="47.0937" lon="-2.04563">
        <ele>29.2</ele>
        <time>2020-06-04T16:32:17Z</time>
      </trkpt>
      <trkpt lat="47.09374" lon="-2.04564">
        <ele>29.3</ele>
        <time>2020-06-04T16:32:18Z</time>
      </trkpt>
      <trkpt lat="47.09378" lon="-2.04565">
        <ele>29.3</ele>
        <time>2020-06-04T16:32:19Z</time>
      </trkpt>
      <trkpt lat="47.09383" lon="-2.04567">
        <ele>29.4</ele>
        <time>2020-06-04T16:32:20Z</time>
      </trkpt>
      <trkpt lat="47.09387" lon="-2.04567">
        <ele>29.4</ele>
        <time>2020-06-04T16:32:21Z</time>
      </trkpt>
      <trkpt lat="47.09392" lon="-2.04568">
        <ele>29.5</ele>
        <time>2020-06-04T16:32:22Z</time>
      </trkpt>
      <trkpt lat="47.09395" lon="-2.04565">
        <ele>29.6</ele>
        <time>2020-06-04T16:32:23Z</time>
      </trkpt>
      <trkpt lat="47.09399" lon="-2.04565">
        <ele>29.8</ele>
        <time>2020-06-04T16:32:24Z</time>
      </trkpt>
      <trkpt lat="47.09403" lon="-2.04565">
        <ele>29.9</ele>
        <time>2020-06-04T16:32:25Z</time>
      </trkpt>
      <trkpt lat="47.09407" lon="-2.04566">
        <ele>30</ele>
        <time>2020-06-04T16:32:26Z</time>
      </trkpt>
      <trkpt lat="47.09412" lon="-2.04567">
        <ele>30.2</ele>
        <time>2020-06-04T16:32:27Z</time>
      </trkpt>
      <trkpt lat="47.09416" lon="-2.04568">
        <ele>30.3</ele>
        <time>2020-06-04T16:32:28Z</time>
      </trkpt>
      <trkpt lat="47.09421" lon="-2.04569">
        <ele>30.4</ele>
        <time>2020-06-04T16:32:29Z</time>
      </trkpt>
      <trkpt lat="47.09426" lon="-2.0457">
        <ele>30.5</ele>
        <time>2020-06-04T16:32:30Z</time>
      </trkpt>
      <trkpt lat="47.09431" lon="-2.04571">
        <ele>30.6</ele>
        <time>2020-06-04T16:32:31Z</time>
      </trkpt>
      <trkpt lat="47.09436" lon="-2.04571">
        <ele>30.7</ele>
        <time>2020-06-04T16:32:32Z</time>
      </trkpt>
      <trkpt lat="47.09441" lon="-2.04573">
        <ele>30.7</ele>
        <time>2020-06-04T16:32:33Z</time>
      </trkpt>
      <trkpt lat="47.09445" lon="-2.04573">
        <ele>30.8</ele>
        <time>2020-06-04T16:32:34Z</time>
      </trkpt>
      <trkpt lat="47.0945" lon="-2.04574">
        <ele>30.9</ele>
        <time>2020-06-04T16:32:35Z</time>
      </trkpt>
      <trkpt lat="47.09454" lon="-2.04577">
        <ele>31</ele>
        <time>2020-06-04T16:32:36Z</time>
      </trkpt>
      <trkpt lat="47.09459" lon="-2.04579">
        <ele>31.1</ele>
        <time>2020-06-04T16:32:37Z</time>
      </trkpt>
      <trkpt lat="47.09464" lon="-2.04581">
        <ele>31.2</ele>
        <time>2020-06-04T16:32:38Z</time>
      </trkpt>
      <trkpt lat="47.09469" lon="-2.04583">
        <ele>31.4</ele>
        <time>2020-06-04T16:32:39Z</time>
      </trkpt>
      <trkpt lat="47.09474" lon="-2.04585">
        <ele>31.5</ele>
        <time>2020-06-04T16:32:40Z</time>
      </trkpt>
      <trkpt lat="47.09479" lon="-2.04586">
        <ele>31.7</ele>
        <time>2020-06-04T16:32:41Z</time>
      </trkpt>
      <trkpt lat="47.09484" lon="-2.04588">
        <ele>31.8</ele>
        <time>2020-06-04T16:32:42Z</time>
      </trkpt>
      <trkpt lat="47.09488" lon="-2.04589">
        <ele>31.9</ele>
        <time>2020-06-04T16:32:43Z</time>
      </trkpt>
      <trkpt lat="47.09493" lon="-2.04591">
        <ele>32</ele>
        <time>2020-06-04T16:32:44Z</time>
      </trkpt>
      <trkpt lat="47.09497" lon="-2.04592">
        <ele>32</ele>
        <time>2020-06-04T16:32:45Z</time>
      </trkpt>
      <trkpt lat="47.09501" lon="-2.04593">
        <ele>32.1</ele>
        <time>2020-06-04T16:32:46Z</time>
      </trkpt>
      <trkpt lat="47.09506" lon="-2.04594">
        <ele>32.2</ele>
        <time>2020-06-04T16:32:47Z</time>
      </trkpt>
      <trkpt lat="47.0951" lon="-2.04594">
        <ele>32.2</ele>
        <time>2020-06-04T16:32:48Z</time>
      </trkpt>
      <trkpt lat="47.09514" lon="-2.04595">
        <ele>32.3</ele>
        <time>2020-06-04T16:32:49Z</time>
      </trkpt>
      <trkpt lat="47.09518" lon="-2.04596">
        <ele>32.4</ele>
        <time>2020-06-04T16:32:50Z</time>
      </trkpt>
      <trkpt lat="47.09521" lon="-2.04598">
        <ele>32.5</ele>
        <time>2020-06-04T16:32:51Z</time>
      </trkpt>
      <trkpt lat="47.09524" lon="-2.04601">
        <ele>32.5</ele>
        <time>2020-06-04T16:32:52Z</time>
      </trkpt>
      <trkpt lat="47.09527" lon="-2.04603">
        <ele>32.6</ele>
        <time>2020-06-04T16:32:53Z</time>
      </trkpt>
      <trkpt lat="47.09529" lon="-2.04604">
        <ele>32.6</ele>
        <time>2020-06-04T16:32:54Z</time>
      </trkpt>
      <trkpt lat="47.09533" lon="-2.04606">
        <ele>32.7</ele>
        <time>2020-06-04T16:32:55Z</time>
      </trkpt>
      <trkpt lat="47.09536" lon="-2.04607">
        <ele>32.7</ele>
        <time>2020-06-04T16:32:56Z</time>
      </trkpt>
      <trkpt lat="47.09537" lon="-2.04607">
        <ele>32.7</ele>
        <time>2020-06-04T16:32:57Z</time>
      </trkpt>
      <trkpt lat="47.09541" lon="-2.04608">
        <ele>32.8</ele>
        <time>2020-06-04T16:32:58Z</time>
      </trkpt>
      <trkpt lat="47.09543" lon="-2.04609">
        <ele>32.8</ele>
        <time>2020-06-04T16:32:59Z</time>
      </trkpt>
      <trkpt lat="47.09546" lon="-2.04611">
        <ele>32.8</ele>
        <time>2020-06-04T16:33:00Z</time>
      </trkpt>
      <trkpt lat="47.09547" lon="-2.04612">
        <ele>32.8</ele>
        <time>2020-06-04T16:33:01Z</time>
      </trkpt>
      <trkpt lat="47.0955" lon="-2.04613">
        <ele>32.9</ele>
        <time>2020-06-04T16:33:02Z</time>
      </trkpt>
      <trkpt lat="47.09552" lon="-2.04613">
        <ele>32.9</ele>
        <time>2020-06-04T16:33:03Z</time>
      </trkpt>
      <trkpt lat="47.09555" lon="-2.04615">
        <ele>32.9</ele>
        <time>2020-06-04T16:33:04Z</time>
      </trkpt>
      <trkpt lat="47.09558" lon="-2.04615">
        <ele>32.9</ele>
        <time>2020-06-04T16:33:05Z</time>
      </trkpt>
      <trkpt lat="47.09561" lon="-2.04616">
        <ele>33</ele>
        <time>2020-06-04T16:33:06Z</time>
      </trkpt>
      <trkpt lat="47.09564" lon="-2.04617">
        <ele>33</ele>
        <time>2020-06-04T16:33:07Z</time>
      </trkpt>
      <trkpt lat="47.09568" lon="-2.04617">
        <ele>33</ele>
        <time>2020-06-04T16:33:08Z</time>
      </trkpt>
      <trkpt lat="47.09571" lon="-2.04615">
        <ele>33</ele>
        <time>2020-06-04T16:33:09Z</time>
      </trkpt>
      <trkpt lat="47.09574" lon="-2.04616">
        <ele>33</ele>
        <time>2020-06-04T16:33:10Z</time>
      </trkpt>
      <trkpt lat="47.09578" lon="-2.04617">
        <ele>33</ele>
        <time>2020-06-04T16:33:11Z</time>
      </trkpt>
      <trkpt lat="47.09582" lon="-2.04618">
        <ele>33</ele>
        <time>2020-06-04T16:33:12Z</time>
      </trkpt>
      <trkpt lat="47.09584" lon="-2.04618">
        <ele>33</ele>
        <time>2020-06-04T16:33:13Z</time>
      </trkpt>
      <trkpt lat="47.09587" lon="-2.0462">
        <ele>33</ele>
        <time>2020-06-04T16:33:14Z</time>
      </trkpt>
      <trkpt lat="47.0959" lon="-2.0462">
        <ele>33</ele>
        <time>2020-06-04T16:33:15Z</time>
      </trkpt>
      <trkpt lat="47.09594" lon="-2.0462">
        <ele>33</ele>
        <time>2020-06-04T16:33:16Z</time>
      </trkpt>
      <trkpt lat="47.09599" lon="-2.04621">
        <ele>33</ele>
        <time>2020-06-04T16:33:17Z</time>
      </trkpt>
      <trkpt lat="47.09602" lon="-2.04624">
        <ele>33</ele>
        <time>2020-06-04T16:33:18Z</time>
      </trkpt>
      <trkpt lat="47.09606" lon="-2.04626">
        <ele>33</ele>
        <time>2020-06-04T16:33:19Z</time>
      </trkpt>
      <trkpt lat="47.09611" lon="-2.04627">
        <ele>33</ele>
        <time>2020-06-04T16:33:20Z</time>
      </trkpt>
      <trkpt lat="47.09615" lon="-2.04628">
        <ele>33</ele>
        <time>2020-06-04T16:33:21Z</time>
      </trkpt>
      <trkpt lat="47.09619" lon="-2.0463">
        <ele>33</ele>
        <time>2020-06-04T16:33:22Z</time>
      </trkpt>
      <trkpt lat="47.09621" lon="-2.0463">
        <ele>33</ele>
        <time>2020-06-04T16:33:23Z</time>
      </trkpt>
      <trkpt lat="47.09624" lon="-2.04632">
        <ele>33</ele>
        <time>2020-06-04T16:33:24Z</time>
      </trkpt>
      <trkpt lat="47.09627" lon="-2.04633">
        <ele>33</ele>
        <time>2020-06-04T16:33:25Z</time>
      </trkpt>
      <trkpt lat="47.09631" lon="-2.04634">
        <ele>33</ele>
        <time>2020-06-04T16:33:26Z</time>
      </trkpt>
      <trkpt lat="47.09634" lon="-2.04635">
        <ele>33</ele>
        <time>2020-06-04T16:33:27Z</time>
      </trkpt>
      <trkpt lat="47.09637" lon="-2.04636">
        <ele>33</ele>
        <time>2020-06-04T16:33:28Z</time>
      </trkpt>
      <trkpt lat="47.0964" lon="-2.04637">
        <ele>32.9</ele>
        <time>2020-06-04T16:33:29Z</time>
      </trkpt>
      <trkpt lat="47.09643" lon="-2.04638">
        <ele>32.9</ele>
        <time>2020-06-04T16:33:30Z</time>
      </trkpt>
      <trkpt lat="47.09646" lon="-2.04639">
        <ele>32.8</ele>
        <time>2020-06-04T16:33:31Z</time>
      </trkpt>
      <trkpt lat="47.0965" lon="-2.04641">
        <ele>32.8</ele>
        <time>2020-06-04T16:33:32Z</time>
      </trkpt>
      <trkpt lat="47.09653" lon="-2.04643">
        <ele>32.7</ele>
        <time>2020-06-04T16:33:33Z</time>
      </trkpt>
      <trkpt lat="47.09657" lon="-2.04644">
        <ele>32.7</ele>
        <time>2020-06-04T16:33:34Z</time>
      </trkpt>
      <trkpt lat="47.0966" lon="-2.04644">
        <ele>32.7</ele>
        <time>2020-06-04T16:33:35Z</time>
      </trkpt>
      <trkpt lat="47.09661" lon="-2.04645">
        <ele>32.7</ele>
        <time>2020-06-04T16:33:36Z</time>
      </trkpt>
      <trkpt lat="47.09663" lon="-2.04645">
        <ele>32.6</ele>
        <time>2020-06-04T16:33:37Z</time>
      </trkpt>
      <trkpt lat="47.09664" lon="-2.04645">
        <ele>32.6</ele>
        <time>2020-06-04T16:33:38Z</time>
      </trkpt>
      <trkpt lat="47.09665" lon="-2.04645">
        <ele>32.6</ele>
        <time>2020-06-04T16:33:39Z</time>
      </trkpt>
      <trkpt lat="47.09665" lon="-2.04648">
        <ele>32.6</ele>
        <time>2020-06-04T16:33:40Z</time>
      </trkpt>
      <trkpt lat="47.09665" lon="-2.04648">
        <ele>32.6</ele>
        <time>2020-06-04T16:33:41Z</time>
      </trkpt>
      <trkpt lat="47.09665" lon="-2.04649">
        <ele>32.6</ele>
        <time>2020-06-04T16:33:42Z</time>
      </trkpt>
      <trkpt lat="47.09665" lon="-2.04649">
        <ele>32.6</ele>
        <time>2020-06-04T16:33:43Z</time>
      </trkpt>
      <trkpt lat="47.09665" lon="-2.04649">
        <ele>32.6</ele>
        <time>2020-06-04T16:33:44Z</time>
      </trkpt>
      <trkpt lat="47.09665" lon="-2.0465">
        <ele>32.6</ele>
        <time>2020-06-04T16:33:45Z</time>
      </trkpt>
      <trkpt lat="47.09664" lon="-2.04651">
        <ele>32.6</ele>
        <time>2020-06-04T16:33:46Z</time>
      </trkpt>
      <trkpt lat="47.09664" lon="-2.04652">
        <ele>32.6</ele>
        <time>2020-06-04T16:33:47Z</time>
      </trkpt>
      <trkpt lat="47.09664" lon="-2.04651">
        <ele>32.5</ele>
        <time>2020-06-04T16:33:48Z</time>
      </trkpt>
      <trkpt lat="47.09664" lon="-2.04651">
        <ele>32.5</ele>
        <time>2020-06-04T16:33:49Z</time>
      </trkpt>
      <trkpt lat="47.09663" lon="-2.04651">
        <ele>32.5</ele>
        <time>2020-06-04T16:33:50Z</time>
      </trkpt>
      <trkpt lat="47.09661" lon="-2.0465">
        <ele>32.5</ele>
        <time>2020-06-04T16:33:51Z</time>
      </trkpt>
      <trkpt lat="47.09659" lon="-2.04648">
        <ele>32.5</ele>
        <time>2020-06-04T16:35:40Z</time>
      </trkpt>
      <trkpt lat="47.09658" lon="-2.04647">
        <ele>32.4</ele>
        <time>2020-06-04T16:35:41Z</time>
      </trkpt>
      <trkpt lat="47.09657" lon="-2.04645">
        <ele>32.4</ele>
        <time>2020-06-04T16:35:42Z</time>
      </trkpt>
      <trkpt lat="47.0966" lon="-2.04645">
        <ele>32.4</ele>
        <time>2020-06-04T16:35:43Z</time>
      </trkpt>
      <trkpt lat="47.09661" lon="-2.04644">
        <ele>32.3</ele>
        <time>2020-06-04T16:35:44Z</time>
      </trkpt>
      <trkpt lat="47.09664" lon="-2.04644">
        <ele>32.3</ele>
        <time>2020-06-04T16:35:45Z</time>
      </trkpt>
      <trkpt lat="47.09665" lon="-2.04644">
        <ele>32.3</ele>
        <time>2020-06-04T16:35:46Z</time>
      </trkpt>
      <trkpt lat="47.09668" lon="-2.04646">
        <ele>32.3</ele>
        <time>2020-06-04T16:35:47Z</time>
      </trkpt>
      <trkpt lat="47.09669" lon="-2.04647">
        <ele>32.2</ele>
        <time>2020-06-04T16:35:48Z</time>
      </trkpt>
      <trkpt lat="47.09672" lon="-2.04648">
        <ele>32.2</ele>
        <time>2020-06-04T16:35:49Z</time>
      </trkpt>
      <trkpt lat="47.09673" lon="-2.04648">
        <ele>32.2</ele>
        <time>2020-06-04T16:35:50Z</time>
      </trkpt>
      <trkpt lat="47.09675" lon="-2.04649">
        <ele>32.1</ele>
        <time>2020-06-04T16:35:51Z</time>
      </trkpt>
      <trkpt lat="47.09677" lon="-2.04648">
        <ele>32.1</ele>
        <time>2020-06-04T16:35:52Z</time>
      </trkpt>
      <trkpt lat="47.0968" lon="-2.04649">
        <ele>32.1</ele>
        <time>2020-06-04T16:35:53Z</time>
      </trkpt>
      <trkpt lat="47.09681" lon="-2.04648">
        <ele>32.1</ele>
        <time>2020-06-04T16:35:54Z</time>
      </trkpt>
      <trkpt lat="47.09684" lon="-2.0465">
        <ele>32</ele>
        <time>2020-06-04T16:35:55Z</time>
      </trkpt>
      <trkpt lat="47.09686" lon="-2.04651">
        <ele>32</ele>
        <time>2020-06-04T16:35:56Z</time>
      </trkpt>
      <trkpt lat="47.09689" lon="-2.04652">
        <ele>32</ele>
        <time>2020-06-04T16:35:57Z</time>
      </trkpt>
      <trkpt lat="47.0969" lon="-2.04653">
        <ele>32</ele>
        <time>2020-06-04T16:35:58Z</time>
      </trkpt>
      <trkpt lat="47.09694" lon="-2.04654">
        <ele>31.9</ele>
        <time>2020-06-04T16:35:59Z</time>
      </trkpt>
      <trkpt lat="47.09695" lon="-2.04655">
        <ele>31.9</ele>
        <time>2020-06-04T16:36:00Z</time>
      </trkpt>
      <trkpt lat="47.09698" lon="-2.04657">
        <ele>31.9</ele>
        <time>2020-06-04T16:36:01Z</time>
      </trkpt>
      <trkpt lat="47.09699" lon="-2.04657">
        <ele>31.9</ele>
        <time>2020-06-04T16:36:02Z</time>
      </trkpt>
      <trkpt lat="47.09702" lon="-2.04658">
        <ele>31.9</ele>
        <time>2020-06-04T16:36:03Z</time>
      </trkpt>
      <trkpt lat="47.09705" lon="-2.04658">
        <ele>31.9</ele>
        <time>2020-06-04T16:36:04Z</time>
      </trkpt>
      <trkpt lat="47.09705" lon="-2.04658">
        <ele>31.9</ele>
        <time>2020-06-04T16:36:05Z</time>
      </trkpt>
      <trkpt lat="47.09707" lon="-2.04659">
        <ele>31.9</ele>
        <time>2020-06-04T16:36:06Z</time>
      </trkpt>
      <trkpt lat="47.09708" lon="-2.0466">
        <ele>32</ele>
        <time>2020-06-04T16:36:07Z</time>
      </trkpt>
      <trkpt lat="47.09709" lon="-2.0466">
        <ele>32</ele>
        <time>2020-06-04T16:36:08Z</time>
      </trkpt>
      <trkpt lat="47.0971" lon="-2.0466">
        <ele>32</ele>
        <time>2020-06-04T16:36:09Z</time>
      </trkpt>
      <trkpt lat="47.0971" lon="-2.0466">
        <ele>32</ele>
        <time>2020-06-04T16:36:10Z</time>
      </trkpt>
      <trkpt lat="47.09709" lon="-2.04659">
        <ele>32</ele>
        <time>2020-06-04T16:36:11Z</time>
      </trkpt>
      <trkpt lat="47.0971" lon="-2.04659">
        <ele>32</ele>
        <time>2020-06-04T16:36:12Z</time>
      </trkpt>
      <trkpt lat="47.0971" lon="-2.0466">
        <ele>32</ele>
        <time>2020-06-04T16:36:13Z</time>
      </trkpt>
      <trkpt lat="47.0971" lon="-2.0466">
        <ele>32</ele>
        <time>2020-06-04T16:36:14Z</time>
      </trkpt>
      <trkpt lat="47.0971" lon="-2.0466">
        <ele>32</ele>
        <time>2020-06-04T16:36:15Z</time>
      </trkpt>
      <trkpt lat="47.0971" lon="-2.0466">
        <ele>32</ele>
        <time>2020-06-04T16:36:16Z</time>
      </trkpt>
      <trkpt lat="47.0971" lon="-2.0466">
        <ele>32</ele>
        <time>2020-06-04T16:36:17Z</time>
      </trkpt>
      <trkpt lat="47.09709" lon="-2.0466">
        <ele>32</ele>
        <time>2020-06-04T16:36:18Z</time>
      </trkpt>
      <trkpt lat="47.09709" lon="-2.0466">
        <ele>32</ele>
        <time>2020-06-04T16:36:19Z</time>
      </trkpt>
      <trkpt lat="47.0971" lon="-2.0466">
        <ele>32</ele>
        <time>2020-06-04T16:36:20Z</time>
      </trkpt>
      <trkpt lat="47.0971" lon="-2.0466">
        <ele>32</ele>
        <time>2020-06-04T16:36:21Z</time>
      </trkpt>
      <trkpt lat="47.0971" lon="-2.0466">
        <ele>32</ele>
        <time>2020-06-04T16:36:22Z</time>
      </trkpt>
      <trkpt lat="47.09715" lon="-2.04657">
        <ele>32</ele>
        <time>2020-06-04T16:36:55Z</time>
      </trkpt>
      <trkpt lat="47.09718" lon="-2.04658">
        <ele>32</ele>
        <time>2020-06-04T16:36:56Z</time>
      </trkpt>
      <trkpt lat="47.09722" lon="-2.04659">
        <ele>32</ele>
        <time>2020-06-04T16:36:57Z</time>
      </trkpt>
      <trkpt lat="47.09726" lon="-2.0466">
        <ele>32.1</ele>
        <time>2020-06-04T16:36:58Z</time>
      </trkpt>
      <trkpt lat="47.09729" lon="-2.04662">
        <ele>32.1</ele>
        <time>2020-06-04T16:36:59Z</time>
      </trkpt>
      <trkpt lat="47.09734" lon="-2.04664">
        <ele>32.2</ele>
        <time>2020-06-04T16:37:00Z</time>
      </trkpt>
      <trkpt lat="47.09738" lon="-2.04664">
        <ele>32.2</ele>
        <time>2020-06-04T16:37:01Z</time>
      </trkpt>
      <trkpt lat="47.09742" lon="-2.04665">
        <ele>32.2</ele>
        <time>2020-06-04T16:37:02Z</time>
      </trkpt>
      <trkpt lat="47.09746" lon="-2.04666">
        <ele>32.3</ele>
        <time>2020-06-04T16:37:03Z</time>
      </trkpt>
      <trkpt lat="47.0975" lon="-2.04666">
        <ele>32.3</ele>
        <time>2020-06-04T16:37:04Z</time>
      </trkpt>
      <trkpt lat="47.09754" lon="-2.04667">
        <ele>32.3</ele>
        <time>2020-06-04T16:37:05Z</time>
      </trkpt>
      <trkpt lat="47.09759" lon="-2.04667">
        <ele>32.4</ele>
        <time>2020-06-04T16:37:06Z</time>
      </trkpt>
      <trkpt lat="47.09762" lon="-2.04669">
        <ele>32.4</ele>
        <time>2020-06-04T16:37:07Z</time>
      </trkpt>
      <trkpt lat="47.09767" lon="-2.04671">
        <ele>32.5</ele>
        <time>2020-06-04T16:37:08Z</time>
      </trkpt>
      <trkpt lat="47.09772" lon="-2.04671">
        <ele>32.5</ele>
        <time>2020-06-04T16:37:09Z</time>
      </trkpt>
      <trkpt lat="47.09777" lon="-2.04671">
        <ele>32.6</ele>
        <time>2020-06-04T16:37:10Z</time>
      </trkpt>
      <trkpt lat="47.09781" lon="-2.04671">
        <ele>32.6</ele>
        <time>2020-06-04T16:37:11Z</time>
      </trkpt>
      <trkpt lat="47.09786" lon="-2.04672">
        <ele>32.7</ele>
        <time>2020-06-04T16:37:12Z</time>
      </trkpt>
      <trkpt lat="47.0979" lon="-2.04674">
        <ele>32.7</ele>
        <time>2020-06-04T16:37:13Z</time>
      </trkpt>
      <trkpt lat="47.09793" lon="-2.04676">
        <ele>32.7</ele>
        <time>2020-06-04T16:37:14Z</time>
      </trkpt>
      <trkpt lat="47.09797" lon="-2.04679">
        <ele>32.8</ele>
        <time>2020-06-04T16:37:15Z</time>
      </trkpt>
      <trkpt lat="47.09801" lon="-2.04681">
        <ele>32.8</ele>
        <time>2020-06-04T16:37:16Z</time>
      </trkpt>
      <trkpt lat="47.09804" lon="-2.04683">
        <ele>32.9</ele>
        <time>2020-06-04T16:37:17Z</time>
      </trkpt>
      <trkpt lat="47.09807" lon="-2.04685">
        <ele>32.9</ele>
        <time>2020-06-04T16:37:18Z</time>
      </trkpt>
      <trkpt lat="47.09811" lon="-2.04685">
        <ele>33</ele>
        <time>2020-06-04T16:37:19Z</time>
      </trkpt>
      <trkpt lat="47.09814" lon="-2.04684">
        <ele>33.1</ele>
        <time>2020-06-04T16:37:20Z</time>
      </trkpt>
      <trkpt lat="47.09817" lon="-2.04683">
        <ele>33.1</ele>
        <time>2020-06-04T16:37:21Z</time>
      </trkpt>
      <trkpt lat="47.0982" lon="-2.0468">
        <ele>33.2</ele>
        <time>2020-06-04T16:37:22Z</time>
      </trkpt>
      <trkpt lat="47.09823" lon="-2.04678">
        <ele>33.2</ele>
        <time>2020-06-04T16:37:23Z</time>
      </trkpt>
      <trkpt lat="47.09826" lon="-2.04677">
        <ele>33.2</ele>
        <time>2020-06-04T16:37:24Z</time>
      </trkpt>
      <trkpt lat="47.0983" lon="-2.04677">
        <ele>33.3</ele>
        <time>2020-06-04T16:37:25Z</time>
      </trkpt>
      <trkpt lat="47.09834" lon="-2.04679">
        <ele>33.3</ele>
        <time>2020-06-04T16:37:26Z</time>
      </trkpt>
      <trkpt lat="47.09838" lon="-2.0468">
        <ele>33.3</ele>
        <time>2020-06-04T16:37:27Z</time>
      </trkpt>
      <trkpt lat="47.09841" lon="-2.04683">
        <ele>33.3</ele>
        <time>2020-06-04T16:37:28Z</time>
      </trkpt>
      <trkpt lat="47.09843" lon="-2.04688">
        <ele>33.4</ele>
        <time>2020-06-04T16:37:29Z</time>
      </trkpt>
      <trkpt lat="47.09846" lon="-2.04694">
        <ele>33.5</ele>
        <time>2020-06-04T16:37:30Z</time>
      </trkpt>
      <trkpt lat="47.09849" lon="-2.04698">
        <ele>33.6</ele>
        <time>2020-06-04T16:37:31Z</time>
      </trkpt>
      <trkpt lat="47.09853" lon="-2.04702">
        <ele>33.7</ele>
        <time>2020-06-04T16:37:32Z</time>
      </trkpt>
      <trkpt lat="47.09856" lon="-2.04705">
        <ele>33.7</ele>
        <time>2020-06-04T16:37:33Z</time>
      </trkpt>
      <trkpt lat="47.09861" lon="-2.04708">
        <ele>33.8</ele>
        <time>2020-06-04T16:37:34Z</time>
      </trkpt>
      <trkpt lat="47.09865" lon="-2.04711">
        <ele>33.9</ele>
        <time>2020-06-04T16:37:35Z</time>
      </trkpt>
      <trkpt lat="47.0987" lon="-2.04713">
        <ele>34</ele>
        <time>2020-06-04T16:37:36Z</time>
      </trkpt>
      <trkpt lat="47.09874" lon="-2.04715">
        <ele>34.2</ele>
        <time>2020-06-04T16:37:37Z</time>
      </trkpt>
      <trkpt lat="47.09877" lon="-2.04719">
        <ele>34.3</ele>
        <time>2020-06-04T16:37:38Z</time>
      </trkpt>
      <trkpt lat="47.09882" lon="-2.04722">
        <ele>34.5</ele>
        <time>2020-06-04T16:37:39Z</time>
      </trkpt>
      <trkpt lat="47.09886" lon="-2.04725">
        <ele>34.6</ele>
        <time>2020-06-04T16:37:40Z</time>
      </trkpt>
      <trkpt lat="47.0989" lon="-2.04727">
        <ele>34.8</ele>
        <time>2020-06-04T16:37:41Z</time>
      </trkpt>
      <trkpt lat="47.09895" lon="-2.0473">
        <ele>34.9</ele>
        <time>2020-06-04T16:37:42Z</time>
      </trkpt>
      <trkpt lat="47.099" lon="-2.04733">
        <ele>35.1</ele>
        <time>2020-06-04T16:37:43Z</time>
      </trkpt>
      <trkpt lat="47.09906" lon="-2.04735">
        <ele>35.2</ele>
        <time>2020-06-04T16:37:44Z</time>
      </trkpt>
      <trkpt lat="47.09911" lon="-2.04738">
        <ele>35.3</ele>
        <time>2020-06-04T16:37:45Z</time>
      </trkpt>
      <trkpt lat="47.09916" lon="-2.04741">
        <ele>35.4</ele>
        <time>2020-06-04T16:37:46Z</time>
      </trkpt>
      <trkpt lat="47.09921" lon="-2.04743">
        <ele>35.5</ele>
        <time>2020-06-04T16:37:47Z</time>
      </trkpt>
      <trkpt lat="47.09926" lon="-2.04746">
        <ele>35.6</ele>
        <time>2020-06-04T16:37:48Z</time>
      </trkpt>
      <trkpt lat="47.0993" lon="-2.04749">
        <ele>35.6</ele>
        <time>2020-06-04T16:37:49Z</time>
      </trkpt>
      <trkpt lat="47.09935" lon="-2.04751">
        <ele>35.7</ele>
        <time>2020-06-04T16:37:50Z</time>
      </trkpt>
      <trkpt lat="47.0994" lon="-2.04754">
        <ele>35.7</ele>
        <time>2020-06-04T16:37:51Z</time>
      </trkpt>
      <trkpt lat="47.09944" lon="-2.04757">
        <ele>35.7</ele>
        <time>2020-06-04T16:37:52Z</time>
      </trkpt>
      <trkpt lat="47.0995" lon="-2.0476">
        <ele>35.7</ele>
        <time>2020-06-04T16:37:53Z</time>
      </trkpt>
      <trkpt lat="47.09956" lon="-2.04763">
        <ele>35.8</ele>
        <time>2020-06-04T16:37:54Z</time>
      </trkpt>
      <trkpt lat="47.09962" lon="-2.04765">
        <ele>35.8</ele>
        <time>2020-06-04T16:37:55Z</time>
      </trkpt>
      <trkpt lat="47.09967" lon="-2.04768">
        <ele>35.8</ele>
        <time>2020-06-04T16:37:56Z</time>
      </trkpt>
      <trkpt lat="47.09972" lon="-2.04771">
        <ele>35.9</ele>
        <time>2020-06-04T16:37:57Z</time>
      </trkpt>
      <trkpt lat="47.09977" lon="-2.04774">
        <ele>35.9</ele>
        <time>2020-06-04T16:37:58Z</time>
      </trkpt>
      <trkpt lat="47.09983" lon="-2.04775">
        <ele>36</ele>
        <time>2020-06-04T16:37:59Z</time>
      </trkpt>
      <trkpt lat="47.09988" lon="-2.04777">
        <ele>36</ele>
        <time>2020-06-04T16:38:00Z</time>
      </trkpt>
      <trkpt lat="47.09993" lon="-2.04781">
        <ele>36</ele>
        <time>2020-06-04T16:38:01Z</time>
      </trkpt>
      <trkpt lat="47.09999" lon="-2.04784">
        <ele>36.1</ele>
        <time>2020-06-04T16:38:02Z</time>
      </trkpt>
      <trkpt lat="47.10004" lon="-2.04787">
        <ele>36.1</ele>
        <time>2020-06-04T16:38:03Z</time>
      </trkpt>
      <trkpt lat="47.10009" lon="-2.0479">
        <ele>36.1</ele>
        <time>2020-06-04T16:38:04Z</time>
      </trkpt>
      <trkpt lat="47.10016" lon="-2.04792">
        <ele>36</ele>
        <time>2020-06-04T16:38:05Z</time>
      </trkpt>
      <trkpt lat="47.10021" lon="-2.04794">
        <ele>36</ele>
        <time>2020-06-04T16:38:06Z</time>
      </trkpt>
      <trkpt lat="47.10026" lon="-2.04797">
        <ele>36</ele>
        <time>2020-06-04T16:38:07Z</time>
      </trkpt>
      <trkpt lat="47.10032" lon="-2.04801">
        <ele>35.9</ele>
        <time>2020-06-04T16:38:08Z</time>
      </trkpt>
      <trkpt lat="47.10037" lon="-2.04804">
        <ele>35.9</ele>
        <time>2020-06-04T16:38:09Z</time>
      </trkpt>
      <trkpt lat="47.10043" lon="-2.04807">
        <ele>35.9</ele>
        <time>2020-06-04T16:38:10Z</time>
      </trkpt>
      <trkpt lat="47.10048" lon="-2.0481">
        <ele>35.8</ele>
        <time>2020-06-04T16:38:11Z</time>
      </trkpt>
      <trkpt lat="47.10053" lon="-2.04813">
        <ele>35.8</ele>
        <time>2020-06-04T16:38:12Z</time>
      </trkpt>
      <trkpt lat="47.10059" lon="-2.04815">
        <ele>35.8</ele>
        <time>2020-06-04T16:38:13Z</time>
      </trkpt>
      <trkpt lat="47.10063" lon="-2.04819">
        <ele>35.8</ele>
        <time>2020-06-04T16:38:14Z</time>
      </trkpt>
      <trkpt lat="47.10069" lon="-2.04821">
        <ele>35.7</ele>
        <time>2020-06-04T16:38:15Z</time>
      </trkpt>
      <trkpt lat="47.10074" lon="-2.04824">
        <ele>35.7</ele>
        <time>2020-06-04T16:38:16Z</time>
      </trkpt>
      <trkpt lat="47.1008" lon="-2.04827">
        <ele>35.7</ele>
        <time>2020-06-04T16:38:17Z</time>
      </trkpt>
      <trkpt lat="47.10086" lon="-2.0483">
        <ele>35.6</ele>
        <time>2020-06-04T16:38:18Z</time>
      </trkpt>
      <trkpt lat="47.10091" lon="-2.04833">
        <ele>35.6</ele>
        <time>2020-06-04T16:38:19Z</time>
      </trkpt>
      <trkpt lat="47.10097" lon="-2.04835">
        <ele>35.5</ele>
        <time>2020-06-04T16:38:20Z</time>
      </trkpt>
      <trkpt lat="47.10103" lon="-2.04839">
        <ele>35.5</ele>
        <time>2020-06-04T16:38:21Z</time>
      </trkpt>
      <trkpt lat="47.10109" lon="-2.04842">
        <ele>35.4</ele>
        <time>2020-06-04T16:38:22Z</time>
      </trkpt>
      <trkpt lat="47.10114" lon="-2.04845">
        <ele>35.4</ele>
        <time>2020-06-04T16:38:23Z</time>
      </trkpt>
      <trkpt lat="47.10121" lon="-2.04849">
        <ele>35.3</ele>
        <time>2020-06-04T16:38:24Z</time>
      </trkpt>
      <trkpt lat="47.10128" lon="-2.0485">
        <ele>35.2</ele>
        <time>2020-06-04T16:38:25Z</time>
      </trkpt>
      <trkpt lat="47.10135" lon="-2.04854">
        <ele>35</ele>
        <time>2020-06-04T16:38:26Z</time>
      </trkpt>
      <trkpt lat="47.10142" lon="-2.04857">
        <ele>34.9</ele>
        <time>2020-06-04T16:38:27Z</time>
      </trkpt>
      <trkpt lat="47.10149" lon="-2.04861">
        <ele>34.8</ele>
        <time>2020-06-04T16:38:28Z</time>
      </trkpt>
      <trkpt lat="47.10155" lon="-2.04864">
        <ele>34.7</ele>
        <time>2020-06-04T16:38:29Z</time>
      </trkpt>
      <trkpt lat="47.10161" lon="-2.04867">
        <ele>34.6</ele>
        <time>2020-06-04T16:38:30Z</time>
      </trkpt>
      <trkpt lat="47.10167" lon="-2.04871">
        <ele>34.6</ele>
        <time>2020-06-04T16:38:31Z</time>
      </trkpt>
      <trkpt lat="47.1017" lon="-2.04873">
        <ele>34.6</ele>
        <time>2020-06-04T16:38:32Z</time>
      </trkpt>
      <trkpt lat="47.10176" lon="-2.04875">
        <ele>34.5</ele>
        <time>2020-06-04T16:38:33Z</time>
      </trkpt>
      <trkpt lat="47.10182" lon="-2.04877">
        <ele>34.4</ele>
        <time>2020-06-04T16:38:34Z</time>
      </trkpt>
      <trkpt lat="47.10189" lon="-2.0488">
        <ele>34.3</ele>
        <time>2020-06-04T16:38:35Z</time>
      </trkpt>
      <trkpt lat="47.10195" lon="-2.04883">
        <ele>34.2</ele>
        <time>2020-06-04T16:38:36Z</time>
      </trkpt>
      <trkpt lat="47.10201" lon="-2.04886">
        <ele>34.1</ele>
        <time>2020-06-04T16:38:37Z</time>
      </trkpt>
      <trkpt lat="47.10207" lon="-2.04889">
        <ele>34</ele>
        <time>2020-06-04T16:38:38Z</time>
      </trkpt>
      <trkpt lat="47.10214" lon="-2.04892">
        <ele>33.9</ele>
        <time>2020-06-04T16:38:39Z</time>
      </trkpt>
      <trkpt lat="47.1022" lon="-2.04896">
        <ele>33.8</ele>
        <time>2020-06-04T16:38:40Z</time>
      </trkpt>
      <trkpt lat="47.10225" lon="-2.04899">
        <ele>33.7</ele>
        <time>2020-06-04T16:38:41Z</time>
      </trkpt>
      <trkpt lat="47.10231" lon="-2.04902">
        <ele>33.6</ele>
        <time>2020-06-04T16:38:42Z</time>
      </trkpt>
      <trkpt lat="47.10237" lon="-2.04905">
        <ele>33.5</ele>
        <time>2020-06-04T16:38:43Z</time>
      </trkpt>
      <trkpt lat="47.10242" lon="-2.04909">
        <ele>33.5</ele>
        <time>2020-06-04T16:38:44Z</time>
      </trkpt>
      <trkpt lat="47.10249" lon="-2.04912">
        <ele>33.3</ele>
        <time>2020-06-04T16:38:45Z</time>
      </trkpt>
      <trkpt lat="47.10255" lon="-2.04915">
        <ele>33.3</ele>
        <time>2020-06-04T16:38:46Z</time>
      </trkpt>
      <trkpt lat="47.10262" lon="-2.04918">
        <ele>33.2</ele>
        <time>2020-06-04T16:38:47Z</time>
      </trkpt>
      <trkpt lat="47.10269" lon="-2.04921">
        <ele>33.1</ele>
        <time>2020-06-04T16:38:48Z</time>
      </trkpt>
      <trkpt lat="47.10274" lon="-2.04924">
        <ele>33.1</ele>
        <time>2020-06-04T16:38:49Z</time>
      </trkpt>
      <trkpt lat="47.1028" lon="-2.04927">
        <ele>32.9</ele>
        <time>2020-06-04T16:38:50Z</time>
      </trkpt>
      <trkpt lat="47.10286" lon="-2.0493">
        <ele>32.7</ele>
        <time>2020-06-04T16:38:51Z</time>
      </trkpt>
      <trkpt lat="47.10293" lon="-2.04933">
        <ele>32.5</ele>
        <time>2020-06-04T16:38:52Z</time>
      </trkpt>
      <trkpt lat="47.10299" lon="-2.04935">
        <ele>32.3</ele>
        <time>2020-06-04T16:38:53Z</time>
      </trkpt>
      <trkpt lat="47.10306" lon="-2.04938">
        <ele>32</ele>
        <time>2020-06-04T16:38:54Z</time>
      </trkpt>
      <trkpt lat="47.10311" lon="-2.0494">
        <ele>31.8</ele>
        <time>2020-06-04T16:38:55Z</time>
      </trkpt>
      <trkpt lat="47.10318" lon="-2.04943">
        <ele>31.5</ele>
        <time>2020-06-04T16:38:56Z</time>
      </trkpt>
      <trkpt lat="47.10325" lon="-2.04945">
        <ele>31.3</ele>
        <time>2020-06-04T16:38:57Z</time>
      </trkpt>
      <trkpt lat="47.10332" lon="-2.04948">
        <ele>31</ele>
        <time>2020-06-04T16:38:58Z</time>
      </trkpt>
      <trkpt lat="47.10339" lon="-2.04949">
        <ele>30.8</ele>
        <time>2020-06-04T16:38:59Z</time>
      </trkpt>
      <trkpt lat="47.10347" lon="-2.04951">
        <ele>30.7</ele>
        <time>2020-06-04T16:39:00Z</time>
      </trkpt>
      <trkpt lat="47.10354" lon="-2.04953">
        <ele>30.6</ele>
        <time>2020-06-04T16:39:01Z</time>
      </trkpt>
      <trkpt lat="47.10361" lon="-2.04954">
        <ele>30.5</ele>
        <time>2020-06-04T16:39:02Z</time>
      </trkpt>
      <trkpt lat="47.10368" lon="-2.04955">
        <ele>30.5</ele>
        <time>2020-06-04T16:39:03Z</time>
      </trkpt>
      <trkpt lat="47.10375" lon="-2.04957">
        <ele>30.4</ele>
        <time>2020-06-04T16:39:04Z</time>
      </trkpt>
      <trkpt lat="47.10382" lon="-2.04958">
        <ele>30.3</ele>
        <time>2020-06-04T16:39:05Z</time>
      </trkpt>
      <trkpt lat="47.10389" lon="-2.04959">
        <ele>30.2</ele>
        <time>2020-06-04T16:39:06Z</time>
      </trkpt>
      <trkpt lat="47.10396" lon="-2.0496">
        <ele>30.1</ele>
        <time>2020-06-04T16:39:07Z</time>
      </trkpt>
      <trkpt lat="47.10404" lon="-2.0496">
        <ele>30</ele>
        <time>2020-06-04T16:39:08Z</time>
      </trkpt>
      <trkpt lat="47.10411" lon="-2.04962">
        <ele>30</ele>
        <time>2020-06-04T16:39:09Z</time>
      </trkpt>
      <trkpt lat="47.10418" lon="-2.04963">
        <ele>29.9</ele>
        <time>2020-06-04T16:39:10Z</time>
      </trkpt>
      <trkpt lat="47.10425" lon="-2.04963">
        <ele>29.8</ele>
        <time>2020-06-04T16:39:11Z</time>
      </trkpt>
      <trkpt lat="47.10432" lon="-2.04964">
        <ele>29.8</ele>
        <time>2020-06-04T16:39:12Z</time>
      </trkpt>
      <trkpt lat="47.10439" lon="-2.04965">
        <ele>29.7</ele>
        <time>2020-06-04T16:39:13Z</time>
      </trkpt>
      <trkpt lat="47.10446" lon="-2.04966">
        <ele>29.7</ele>
        <time>2020-06-04T16:39:14Z</time>
      </trkpt>
      <trkpt lat="47.10452" lon="-2.04966">
        <ele>29.7</ele>
        <time>2020-06-04T16:39:15Z</time>
      </trkpt>
      <trkpt lat="47.10459" lon="-2.04965">
        <ele>29.7</ele>
        <time>2020-06-04T16:39:16Z</time>
      </trkpt>
      <trkpt lat="47.10466" lon="-2.04966">
        <ele>29.7</ele>
        <time>2020-06-04T16:39:17Z</time>
      </trkpt>
      <trkpt lat="47.10473" lon="-2.04967">
        <ele>29.6</ele>
        <time>2020-06-04T16:39:18Z</time>
      </trkpt>
      <trkpt lat="47.1048" lon="-2.04967">
        <ele>29.6</ele>
        <time>2020-06-04T16:39:19Z</time>
      </trkpt>
      <trkpt lat="47.10487" lon="-2.04965">
        <ele>29.5</ele>
        <time>2020-06-04T16:39:20Z</time>
      </trkpt>
      <trkpt lat="47.10494" lon="-2.04962">
        <ele>29.4</ele>
        <time>2020-06-04T16:39:21Z</time>
      </trkpt>
      <trkpt lat="47.10501" lon="-2.04962">
        <ele>29.4</ele>
        <time>2020-06-04T16:39:22Z</time>
      </trkpt>
      <trkpt lat="47.10508" lon="-2.04961">
        <ele>29.4</ele>
        <time>2020-06-04T16:39:23Z</time>
      </trkpt>
      <trkpt lat="47.10514" lon="-2.04959">
        <ele>29.3</ele>
        <time>2020-06-04T16:39:24Z</time>
      </trkpt>
      <trkpt lat="47.10521" lon="-2.04958">
        <ele>29.3</ele>
        <time>2020-06-04T16:39:25Z</time>
      </trkpt>
      <trkpt lat="47.10527" lon="-2.04956">
        <ele>29.3</ele>
        <time>2020-06-04T16:39:26Z</time>
      </trkpt>
      <trkpt lat="47.10534" lon="-2.04954">
        <ele>29.3</ele>
        <time>2020-06-04T16:39:27Z</time>
      </trkpt>
      <trkpt lat="47.1054" lon="-2.04951">
        <ele>29.2</ele>
        <time>2020-06-04T16:39:28Z</time>
      </trkpt>
      <trkpt lat="47.10546" lon="-2.04949">
        <ele>29.2</ele>
        <time>2020-06-04T16:39:29Z</time>
      </trkpt>
      <trkpt lat="47.10552" lon="-2.04947">
        <ele>29.2</ele>
        <time>2020-06-04T16:39:30Z</time>
      </trkpt>
      <trkpt lat="47.10557" lon="-2.04943">
        <ele>29.2</ele>
        <time>2020-06-04T16:39:31Z</time>
      </trkpt>
      <trkpt lat="47.10562" lon="-2.04941">
        <ele>29.1</ele>
        <time>2020-06-04T16:39:32Z</time>
      </trkpt>
      <trkpt lat="47.10567" lon="-2.04939">
        <ele>29.1</ele>
        <time>2020-06-04T16:39:33Z</time>
      </trkpt>
      <trkpt lat="47.10572" lon="-2.04938">
        <ele>29.1</ele>
        <time>2020-06-04T16:39:34Z</time>
      </trkpt>
      <trkpt lat="47.10576" lon="-2.04935">
        <ele>29.1</ele>
        <time>2020-06-04T16:39:35Z</time>
      </trkpt>
      <trkpt lat="47.1058" lon="-2.04934">
        <ele>28.8</ele>
        <time>2020-06-04T16:39:36Z</time>
      </trkpt>
      <trkpt lat="47.10583" lon="-2.04933">
        <ele>28.7</ele>
        <time>2020-06-04T16:39:37Z</time>
      </trkpt>
      <trkpt lat="47.10587" lon="-2.04933">
        <ele>28.6</ele>
        <time>2020-06-04T16:39:38Z</time>
      </trkpt>
      <trkpt lat="47.1059" lon="-2.04938">
        <ele>28.4</ele>
        <time>2020-06-04T16:39:39Z</time>
      </trkpt>
      <trkpt lat="47.10593" lon="-2.04944">
        <ele>28.3</ele>
        <time>2020-06-04T16:39:40Z</time>
      </trkpt>
      <trkpt lat="47.10596" lon="-2.04947">
        <ele>28.2</ele>
        <time>2020-06-04T16:39:41Z</time>
      </trkpt>
      <trkpt lat="47.10599" lon="-2.04952">
        <ele>28</ele>
        <time>2020-06-04T16:39:42Z</time>
      </trkpt>
      <trkpt lat="47.10602" lon="-2.04956">
        <ele>27.9</ele>
        <time>2020-06-04T16:39:43Z</time>
      </trkpt>
      <trkpt lat="47.10605" lon="-2.0496">
        <ele>27.8</ele>
        <time>2020-06-04T16:39:44Z</time>
      </trkpt>
      <trkpt lat="47.10608" lon="-2.04963">
        <ele>27.7</ele>
        <time>2020-06-04T16:39:45Z</time>
      </trkpt>
      <trkpt lat="47.10612" lon="-2.04967">
        <ele>27.6</ele>
        <time>2020-06-04T16:39:46Z</time>
      </trkpt>
      <trkpt lat="47.10615" lon="-2.0497">
        <ele>27.5</ele>
        <time>2020-06-04T16:39:47Z</time>
      </trkpt>
      <trkpt lat="47.10615" lon="-2.04975">
        <ele>27.4</ele>
        <time>2020-06-04T16:39:48Z</time>
      </trkpt>
      <trkpt lat="47.10613" lon="-2.04981">
        <ele>27.4</ele>
        <time>2020-06-04T16:39:49Z</time>
      </trkpt>
      <trkpt lat="47.10611" lon="-2.04989">
        <ele>27.4</ele>
        <time>2020-06-04T16:39:50Z</time>
      </trkpt>
      <trkpt lat="47.10609" lon="-2.04997">
        <ele>27.4</ele>
        <time>2020-06-04T16:39:51Z</time>
      </trkpt>
      <trkpt lat="47.10607" lon="-2.05004">
        <ele>27.4</ele>
        <time>2020-06-04T16:39:52Z</time>
      </trkpt>
      <trkpt lat="47.10606" lon="-2.05012">
        <ele>27.3</ele>
        <time>2020-06-04T16:39:53Z</time>
      </trkpt>
      <trkpt lat="47.10603" lon="-2.0502">
        <ele>27.3</ele>
        <time>2020-06-04T16:39:54Z</time>
      </trkpt>
      <trkpt lat="47.10602" lon="-2.05026">
        <ele>27.3</ele>
        <time>2020-06-04T16:39:55Z</time>
      </trkpt>
      <trkpt lat="47.106" lon="-2.05031">
        <ele>27.3</ele>
        <time>2020-06-04T16:39:56Z</time>
      </trkpt>
      <trkpt lat="47.10599" lon="-2.05035">
        <ele>27.3</ele>
        <time>2020-06-04T16:39:57Z</time>
      </trkpt>
      <trkpt lat="47.10598" lon="-2.05036">
        <ele>27.3</ele>
        <time>2020-06-04T16:39:58Z</time>
      </trkpt>
      <trkpt lat="47.10598" lon="-2.05038">
        <ele>27.3</ele>
        <time>2020-06-04T16:39:59Z</time>
      </trkpt>
      <trkpt lat="47.10598" lon="-2.05041">
        <ele>27.3</ele>
        <time>2020-06-04T16:40:00Z</time>
      </trkpt>
      <trkpt lat="47.10598" lon="-2.05042">
        <ele>27.2</ele>
        <time>2020-06-04T16:40:01Z</time>
      </trkpt>
      <trkpt lat="47.10597" lon="-2.05044">
        <ele>27.2</ele>
        <time>2020-06-04T16:40:02Z</time>
      </trkpt>
      <trkpt lat="47.10596" lon="-2.05046">
        <ele>27.2</ele>
        <time>2020-06-04T16:40:03Z</time>
      </trkpt>
      <trkpt lat="47.10595" lon="-2.05047">
        <ele>27.2</ele>
        <time>2020-06-04T16:40:04Z</time>
      </trkpt>
      <trkpt lat="47.10594" lon="-2.05049">
        <ele>27.2</ele>
        <time>2020-06-04T16:40:05Z</time>
      </trkpt>
      <trkpt lat="47.10593" lon="-2.05049">
        <ele>27.2</ele>
        <time>2020-06-04T16:40:06Z</time>
      </trkpt>
      <trkpt lat="47.10593" lon="-2.05047">
        <ele>27.2</ele>
        <time>2020-06-04T16:40:07Z</time>
      </trkpt>
      <trkpt lat="47.10593" lon="-2.05045">
        <ele>27.2</ele>
        <time>2020-06-04T16:40:08Z</time>
      </trkpt>
      <trkpt lat="47.10593" lon="-2.05043">
        <ele>27.2</ele>
        <time>2020-06-04T16:40:09Z</time>
      </trkpt>
      <trkpt lat="47.10595" lon="-2.05041">
        <ele>27.2</ele>
        <time>2020-06-04T16:40:10Z</time>
      </trkpt>
      <trkpt lat="47.10595" lon="-2.05038">
        <ele>27.2</ele>
        <time>2020-06-04T16:40:11Z</time>
      </trkpt>
      <trkpt lat="47.10596" lon="-2.05034">
        <ele>27.2</ele>
        <time>2020-06-04T16:40:12Z</time>
      </trkpt>
      <trkpt lat="47.10596" lon="-2.05033">
        <ele>27.2</ele>
        <time>2020-06-04T16:40:13Z</time>
      </trkpt>
      <trkpt lat="47.10597" lon="-2.05029">
        <ele>27.2</ele>
        <time>2020-06-04T16:40:14Z</time>
      </trkpt>
      <trkpt lat="47.10597" lon="-2.05027">
        <ele>27.2</ele>
        <time>2020-06-04T16:40:15Z</time>
      </trkpt>
      <trkpt lat="47.10597" lon="-2.05025">
        <ele>27.2</ele>
        <time>2020-06-04T16:40:16Z</time>
      </trkpt>
      <trkpt lat="47.10598" lon="-2.05022">
        <ele>27.2</ele>
        <time>2020-06-04T16:40:17Z</time>
      </trkpt>
      <trkpt lat="47.10598" lon="-2.0502">
        <ele>27.2</ele>
        <time>2020-06-04T16:40:18Z</time>
      </trkpt>
      <trkpt lat="47.10599" lon="-2.05018">
        <ele>27.2</ele>
        <time>2020-06-04T16:40:19Z</time>
      </trkpt>
      <trkpt lat="47.106" lon="-2.05016">
        <ele>27.2</ele>
        <time>2020-06-04T16:40:20Z</time>
      </trkpt>
      <trkpt lat="47.106" lon="-2.05013">
        <ele>27.3</ele>
        <time>2020-06-04T16:40:21Z</time>
      </trkpt>
      <trkpt lat="47.10601" lon="-2.05011">
        <ele>27.3</ele>
        <time>2020-06-04T16:40:22Z</time>
      </trkpt>
      <trkpt lat="47.106" lon="-2.05009">
        <ele>27.3</ele>
        <time>2020-06-04T16:40:23Z</time>
      </trkpt>
      <trkpt lat="47.106" lon="-2.05007">
        <ele>27.3</ele>
        <time>2020-06-04T16:40:24Z</time>
      </trkpt>
      <trkpt lat="47.106" lon="-2.05004">
        <ele>27.3</ele>
        <time>2020-06-04T16:40:25Z</time>
      </trkpt>
      <trkpt lat="47.106" lon="-2.05002">
        <ele>27.3</ele>
        <time>2020-06-04T16:40:26Z</time>
      </trkpt>
      <trkpt lat="47.106" lon="-2.05">
        <ele>27.3</ele>
        <time>2020-06-04T16:40:27Z</time>
      </trkpt>
      <trkpt lat="47.106" lon="-2.04998">
        <ele>27.3</ele>
        <time>2020-06-04T16:40:28Z</time>
      </trkpt>
      <trkpt lat="47.10601" lon="-2.04995">
        <ele>27.3</ele>
        <time>2020-06-04T16:40:29Z</time>
      </trkpt>
      <trkpt lat="47.10602" lon="-2.04991">
        <ele>27.4</ele>
        <time>2020-06-04T16:40:30Z</time>
      </trkpt>
      <trkpt lat="47.10602" lon="-2.0499">
        <ele>27.4</ele>
        <time>2020-06-04T16:40:31Z</time>
      </trkpt>
      <trkpt lat="47.10602" lon="-2.04987">
        <ele>27.4</ele>
        <time>2020-06-04T16:40:32Z</time>
      </trkpt>
      <trkpt lat="47.10602" lon="-2.04985">
        <ele>27.4</ele>
        <time>2020-06-04T16:40:33Z</time>
      </trkpt>
      <trkpt lat="47.10603" lon="-2.04982">
        <ele>27.4</ele>
        <time>2020-06-04T16:40:34Z</time>
      </trkpt>
      <trkpt lat="47.10604" lon="-2.0498">
        <ele>27.4</ele>
        <time>2020-06-04T16:40:35Z</time>
      </trkpt>
      <trkpt lat="47.10606" lon="-2.04979">
        <ele>27.4</ele>
        <time>2020-06-04T16:40:36Z</time>
      </trkpt>
      <trkpt lat="47.10607" lon="-2.04979">
        <ele>27.4</ele>
        <time>2020-06-04T16:40:37Z</time>
      </trkpt>
      <trkpt lat="47.10608" lon="-2.04979">
        <ele>27.4</ele>
        <time>2020-06-04T16:40:38Z</time>
      </trkpt>
      <trkpt lat="47.10611" lon="-2.04983">
        <ele>27.3</ele>
        <time>2020-06-04T16:40:39Z</time>
      </trkpt>
      <trkpt lat="47.10611" lon="-2.04984">
        <ele>27.3</ele>
        <time>2020-06-04T16:40:40Z</time>
      </trkpt>
      <trkpt lat="47.10613" lon="-2.0499">
        <ele>27.2</ele>
        <time>2020-06-04T16:40:41Z</time>
      </trkpt>
      <trkpt lat="47.10613" lon="-2.04991">
        <ele>27.2</ele>
        <time>2020-06-04T16:40:42Z</time>
      </trkpt>
      <trkpt lat="47.10614" lon="-2.04996">
        <ele>27.1</ele>
        <time>2020-06-04T16:40:43Z</time>
      </trkpt>
      <trkpt lat="47.10614" lon="-2.04998">
        <ele>27.1</ele>
        <time>2020-06-04T16:40:44Z</time>
      </trkpt>
      <trkpt lat="47.10615" lon="-2.05003">
        <ele>27</ele>
        <time>2020-06-04T16:40:45Z</time>
      </trkpt>
      <trkpt lat="47.10615" lon="-2.05005">
        <ele>27</ele>
        <time>2020-06-04T16:40:46Z</time>
      </trkpt>
      <trkpt lat="47.10616" lon="-2.05011">
        <ele>27</ele>
        <time>2020-06-04T16:40:47Z</time>
      </trkpt>
      <trkpt lat="47.10616" lon="-2.05012">
        <ele>26.9</ele>
        <time>2020-06-04T16:40:48Z</time>
      </trkpt>
      <trkpt lat="47.10617" lon="-2.05018">
        <ele>26.9</ele>
        <time>2020-06-04T16:40:49Z</time>
      </trkpt>
      <trkpt lat="47.10617" lon="-2.0502">
        <ele>26.8</ele>
        <time>2020-06-04T16:40:50Z</time>
      </trkpt>
      <trkpt lat="47.10617" lon="-2.05024">
        <ele>26.8</ele>
        <time>2020-06-04T16:40:51Z</time>
      </trkpt>
      <trkpt lat="47.10616" lon="-2.05028">
        <ele>26.7</ele>
        <time>2020-06-04T16:40:52Z</time>
      </trkpt>
      <trkpt lat="47.10616" lon="-2.05033">
        <ele>26.7</ele>
        <time>2020-06-04T16:40:53Z</time>
      </trkpt>
      <trkpt lat="47.10616" lon="-2.05035">
        <ele>26.7</ele>
        <time>2020-06-04T16:40:54Z</time>
      </trkpt>
      <trkpt lat="47.10616" lon="-2.05039">
        <ele>26.6</ele>
        <time>2020-06-04T16:40:55Z</time>
      </trkpt>
      <trkpt lat="47.10615" lon="-2.05043">
        <ele>26.6</ele>
        <time>2020-06-04T16:40:56Z</time>
      </trkpt>
      <trkpt lat="47.10613" lon="-2.05047">
        <ele>26.6</ele>
        <time>2020-06-04T16:40:57Z</time>
      </trkpt>
      <trkpt lat="47.10612" lon="-2.05052">
        <ele>26.5</ele>
        <time>2020-06-04T16:40:58Z</time>
      </trkpt>
      <trkpt lat="47.10612" lon="-2.05054">
        <ele>26.5</ele>
        <time>2020-06-04T16:40:59Z</time>
      </trkpt>
      <trkpt lat="47.10611" lon="-2.05058">
        <ele>26.5</ele>
        <time>2020-06-04T16:41:00Z</time>
      </trkpt>
      <trkpt lat="47.1061" lon="-2.05062">
        <ele>26.4</ele>
        <time>2020-06-04T16:41:01Z</time>
      </trkpt>
      <trkpt lat="47.10609" lon="-2.05066">
        <ele>26.4</ele>
        <time>2020-06-04T16:41:02Z</time>
      </trkpt>
      <trkpt lat="47.10608" lon="-2.05067">
        <ele>26.4</ele>
        <time>2020-06-04T16:41:03Z</time>
      </trkpt>
      <trkpt lat="47.10607" lon="-2.0507">
        <ele>26.4</ele>
        <time>2020-06-04T16:41:04Z</time>
      </trkpt>
      <trkpt lat="47.10606" lon="-2.05072">
        <ele>26.3</ele>
        <time>2020-06-04T16:41:05Z</time>
      </trkpt>
      <trkpt lat="47.10606" lon="-2.05074">
        <ele>26.3</ele>
        <time>2020-06-04T16:41:06Z</time>
      </trkpt>
      <trkpt lat="47.10605" lon="-2.05076">
        <ele>26.3</ele>
        <time>2020-06-04T16:41:07Z</time>
      </trkpt>
      <trkpt lat="47.10604" lon="-2.05077">
        <ele>26.2</ele>
        <time>2020-06-04T16:41:08Z</time>
      </trkpt>
      <trkpt lat="47.10603" lon="-2.05079">
        <ele>26.2</ele>
        <time>2020-06-04T16:41:09Z</time>
      </trkpt>
      <trkpt lat="47.10603" lon="-2.0508">
        <ele>26.2</ele>
        <time>2020-06-04T16:41:10Z</time>
      </trkpt>
      <trkpt lat="47.10602" lon="-2.05081">
        <ele>26.1</ele>
        <time>2020-06-04T16:41:11Z</time>
      </trkpt>
      <trkpt lat="47.10602" lon="-2.05082">
        <ele>26.1</ele>
        <time>2020-06-04T16:41:12Z</time>
      </trkpt>
      <trkpt lat="47.10602" lon="-2.05082">
        <ele>26.1</ele>
        <time>2020-06-04T16:41:13Z</time>
      </trkpt>
      <trkpt lat="47.10602" lon="-2.05083">
        <ele>26.1</ele>
        <time>2020-06-04T16:41:14Z</time>
      </trkpt>
      <trkpt lat="47.10602" lon="-2.05083">
        <ele>26.1</ele>
        <time>2020-06-04T16:41:15Z</time>
      </trkpt>
      <trkpt lat="47.10602" lon="-2.05083">
        <ele>26.1</ele>
        <time>2020-06-04T16:41:16Z</time>
      </trkpt>
      <trkpt lat="47.10602" lon="-2.05083">
        <ele>26.1</ele>
        <time>2020-06-04T16:41:17Z</time>
      </trkpt>
      <trkpt lat="47.10602" lon="-2.05083">
        <ele>26.1</ele>
        <time>2020-06-04T16:41:18Z</time>
      </trkpt>
      <trkpt lat="47.10601" lon="-2.05083">
        <ele>26.1</ele>
        <time>2020-06-04T16:41:19Z</time>
      </trkpt>
      <trkpt lat="47.10602" lon="-2.05083">
        <ele>26</ele>
        <time>2020-06-04T16:41:20Z</time>
      </trkpt>
      <trkpt lat="47.10602" lon="-2.05084">
        <ele>26</ele>
        <time>2020-06-04T16:41:21Z</time>
      </trkpt>
      <trkpt lat="47.10602" lon="-2.05083">
        <ele>26</ele>
        <time>2020-06-04T16:41:22Z</time>
      </trkpt>
      <trkpt lat="47.10601" lon="-2.05083">
        <ele>26</ele>
        <time>2020-06-04T16:41:23Z</time>
      </trkpt>
      <trkpt lat="47.10604" lon="-2.05089">
        <ele>25.9</ele>
        <time>2020-06-04T16:41:50Z</time>
      </trkpt>
      <trkpt lat="47.10606" lon="-2.05092">
        <ele>25.8</ele>
        <time>2020-06-04T16:41:51Z</time>
      </trkpt>
      <trkpt lat="47.10609" lon="-2.05097">
        <ele>25.6</ele>
        <time>2020-06-04T16:41:52Z</time>
      </trkpt>
      <trkpt lat="47.10611" lon="-2.05103">
        <ele>25.5</ele>
        <time>2020-06-04T16:41:53Z</time>
      </trkpt>
      <trkpt lat="47.10613" lon="-2.05109">
        <ele>25.4</ele>
        <time>2020-06-04T16:41:54Z</time>
      </trkpt>
      <trkpt lat="47.10615" lon="-2.05116">
        <ele>25.3</ele>
        <time>2020-06-04T16:41:55Z</time>
      </trkpt>
      <trkpt lat="47.10618" lon="-2.05123">
        <ele>25.1</ele>
        <time>2020-06-04T16:41:56Z</time>
      </trkpt>
      <trkpt lat="47.10619" lon="-2.05131">
        <ele>25</ele>
        <time>2020-06-04T16:41:57Z</time>
      </trkpt>
      <trkpt lat="47.10621" lon="-2.05139">
        <ele>24.9</ele>
        <time>2020-06-04T16:41:58Z</time>
      </trkpt>
      <trkpt lat="47.10622" lon="-2.05147">
        <ele>24.7</ele>
        <time>2020-06-04T16:41:59Z</time>
      </trkpt>
      <trkpt lat="47.10625" lon="-2.05154">
        <ele>24.6</ele>
        <time>2020-06-04T16:42:00Z</time>
      </trkpt>
      <trkpt lat="47.10627" lon="-2.05162">
        <ele>24.4</ele>
        <time>2020-06-04T16:42:01Z</time>
      </trkpt>
      <trkpt lat="47.10629" lon="-2.0517">
        <ele>24.3</ele>
        <time>2020-06-04T16:42:02Z</time>
      </trkpt>
      <trkpt lat="47.1063" lon="-2.05179">
        <ele>24.1</ele>
        <time>2020-06-04T16:42:03Z</time>
      </trkpt>
      <trkpt lat="47.10632" lon="-2.05187">
        <ele>23.9</ele>
        <time>2020-06-04T16:42:04Z</time>
      </trkpt>
      <trkpt lat="47.10633" lon="-2.05196">
        <ele>23.8</ele>
        <time>2020-06-04T16:42:05Z</time>
      </trkpt>
      <trkpt lat="47.10635" lon="-2.05204">
        <ele>23.6</ele>
        <time>2020-06-04T16:42:06Z</time>
      </trkpt>
      <trkpt lat="47.10637" lon="-2.05213">
        <ele>23.5</ele>
        <time>2020-06-04T16:42:07Z</time>
      </trkpt>
      <trkpt lat="47.10639" lon="-2.05222">
        <ele>23.4</ele>
        <time>2020-06-04T16:42:08Z</time>
      </trkpt>
      <trkpt lat="47.10641" lon="-2.0523">
        <ele>23.2</ele>
        <time>2020-06-04T16:42:09Z</time>
      </trkpt>
      <trkpt lat="47.10646" lon="-2.05235">
        <ele>23.1</ele>
        <time>2020-06-04T16:42:10Z</time>
      </trkpt>
      <trkpt lat="47.10652" lon="-2.05238">
        <ele>22.9</ele>
        <time>2020-06-04T16:42:11Z</time>
      </trkpt>
      <trkpt lat="47.10658" lon="-2.05239">
        <ele>22.8</ele>
        <time>2020-06-04T16:42:12Z</time>
      </trkpt>
      <trkpt lat="47.10665" lon="-2.05239">
        <ele>22.7</ele>
        <time>2020-06-04T16:42:13Z</time>
      </trkpt>
      <trkpt lat="47.10672" lon="-2.05239">
        <ele>22.6</ele>
        <time>2020-06-04T16:42:14Z</time>
      </trkpt>
      <trkpt lat="47.10679" lon="-2.05238">
        <ele>22.5</ele>
        <time>2020-06-04T16:42:15Z</time>
      </trkpt>
      <trkpt lat="47.10686" lon="-2.05237">
        <ele>22.5</ele>
        <time>2020-06-04T16:42:16Z</time>
      </trkpt>
      <trkpt lat="47.10693" lon="-2.05236">
        <ele>22.5</ele>
        <time>2020-06-04T16:42:17Z</time>
      </trkpt>
      <trkpt lat="47.10699" lon="-2.05236">
        <ele>22.5</ele>
        <time>2020-06-04T16:42:18Z</time>
      </trkpt>
      <trkpt lat="47.10706" lon="-2.05236">
        <ele>22.5</ele>
        <time>2020-06-04T16:42:19Z</time>
      </trkpt>
      <trkpt lat="47.10712" lon="-2.05235">
        <ele>22.4</ele>
        <time>2020-06-04T16:42:20Z</time>
      </trkpt>
      <trkpt lat="47.10718" lon="-2.05235">
        <ele>22.4</ele>
        <time>2020-06-04T16:42:21Z</time>
      </trkpt>
      <trkpt lat="47.10724" lon="-2.05234">
        <ele>22.4</ele>
        <time>2020-06-04T16:42:22Z</time>
      </trkpt>
      <trkpt lat="47.10731" lon="-2.05233">
        <ele>22.3</ele>
        <time>2020-06-04T16:42:23Z</time>
      </trkpt>
      <trkpt lat="47.10737" lon="-2.05233">
        <ele>22.3</ele>
        <time>2020-06-04T16:42:24Z</time>
      </trkpt>
      <trkpt lat="47.10743" lon="-2.05234">
        <ele>22.2</ele>
        <time>2020-06-04T16:42:25Z</time>
      </trkpt>
      <trkpt lat="47.10749" lon="-2.05234">
        <ele>22.2</ele>
        <time>2020-06-04T16:42:26Z</time>
      </trkpt>
      <trkpt lat="47.10755" lon="-2.05233">
        <ele>22.2</ele>
        <time>2020-06-04T16:42:27Z</time>
      </trkpt>
      <trkpt lat="47.10761" lon="-2.05232">
        <ele>22.2</ele>
        <time>2020-06-04T16:42:28Z</time>
      </trkpt>
      <trkpt lat="47.10767" lon="-2.05233">
        <ele>22.2</ele>
        <time>2020-06-04T16:42:29Z</time>
      </trkpt>
      <trkpt lat="47.10773" lon="-2.05234">
        <ele>22.2</ele>
        <time>2020-06-04T16:42:30Z</time>
      </trkpt>
      <trkpt lat="47.10779" lon="-2.05235">
        <ele>22.2</ele>
        <time>2020-06-04T16:42:31Z</time>
      </trkpt>
      <trkpt lat="47.10785" lon="-2.05236">
        <ele>22.2</ele>
        <time>2020-06-04T16:42:32Z</time>
      </trkpt>
      <trkpt lat="47.10791" lon="-2.05236">
        <ele>22.2</ele>
        <time>2020-06-04T16:42:33Z</time>
      </trkpt>
      <trkpt lat="47.10797" lon="-2.05236">
        <ele>22.2</ele>
        <time>2020-06-04T16:42:34Z</time>
      </trkpt>
      <trkpt lat="47.10803" lon="-2.05237">
        <ele>22.1</ele>
        <time>2020-06-04T16:42:35Z</time>
      </trkpt>
      <trkpt lat="47.10808" lon="-2.05237">
        <ele>22.1</ele>
        <time>2020-06-04T16:42:36Z</time>
      </trkpt>
      <trkpt lat="47.10814" lon="-2.05236">
        <ele>22.1</ele>
        <time>2020-06-04T16:42:37Z</time>
      </trkpt>
      <trkpt lat="47.1082" lon="-2.05236">
        <ele>22.1</ele>
        <time>2020-06-04T16:42:38Z</time>
      </trkpt>
      <trkpt lat="47.10826" lon="-2.05237">
        <ele>22.1</ele>
        <time>2020-06-04T16:42:39Z</time>
      </trkpt>
      <trkpt lat="47.10833" lon="-2.05238">
        <ele>22.2</ele>
        <time>2020-06-04T16:42:40Z</time>
      </trkpt>
      <trkpt lat="47.10839" lon="-2.05238">
        <ele>22.2</ele>
        <time>2020-06-04T16:42:41Z</time>
      </trkpt>
      <trkpt lat="47.10845" lon="-2.05237">
        <ele>22.2</ele>
        <time>2020-06-04T16:42:42Z</time>
      </trkpt>
      <trkpt lat="47.10851" lon="-2.05237">
        <ele>22.2</ele>
        <time>2020-06-04T16:42:43Z</time>
      </trkpt>
      <trkpt lat="47.10857" lon="-2.05236">
        <ele>22.2</ele>
        <time>2020-06-04T16:42:44Z</time>
      </trkpt>
      <trkpt lat="47.10863" lon="-2.05235">
        <ele>22.2</ele>
        <time>2020-06-04T16:42:45Z</time>
      </trkpt>
      <trkpt lat="47.10868" lon="-2.05235">
        <ele>22.2</ele>
        <time>2020-06-04T16:42:46Z</time>
      </trkpt>
      <trkpt lat="47.10873" lon="-2.05235">
        <ele>22.3</ele>
        <time>2020-06-04T16:42:47Z</time>
      </trkpt>
      <trkpt lat="47.10878" lon="-2.05236">
        <ele>22.3</ele>
        <time>2020-06-04T16:42:48Z</time>
      </trkpt>
      <trkpt lat="47.10883" lon="-2.05237">
        <ele>22.4</ele>
        <time>2020-06-04T16:42:49Z</time>
      </trkpt>
      <trkpt lat="47.10887" lon="-2.05241">
        <ele>22.5</ele>
        <time>2020-06-04T16:42:50Z</time>
      </trkpt>
      <trkpt lat="47.10891" lon="-2.05246">
        <ele>22.6</ele>
        <time>2020-06-04T16:42:51Z</time>
      </trkpt>
      <trkpt lat="47.10892" lon="-2.05254">
        <ele>22.7</ele>
        <time>2020-06-04T16:42:52Z</time>
      </trkpt>
      <trkpt lat="47.10893" lon="-2.05263">
        <ele>22.8</ele>
        <time>2020-06-04T16:42:53Z</time>
      </trkpt>
      <trkpt lat="47.10893" lon="-2.05272">
        <ele>22.9</ele>
        <time>2020-06-04T16:42:54Z</time>
      </trkpt>
      <trkpt lat="47.10893" lon="-2.0528">
        <ele>23.1</ele>
        <time>2020-06-04T16:42:55Z</time>
      </trkpt>
      <trkpt lat="47.10894" lon="-2.05288">
        <ele>23.2</ele>
        <time>2020-06-04T16:42:56Z</time>
      </trkpt>
      <trkpt lat="47.10895" lon="-2.05297">
        <ele>23.4</ele>
        <time>2020-06-04T16:42:57Z</time>
      </trkpt>
      <trkpt lat="47.10896" lon="-2.05306">
        <ele>23.6</ele>
        <time>2020-06-04T16:42:58Z</time>
      </trkpt>
      <trkpt lat="47.10897" lon="-2.05315">
        <ele>23.8</ele>
        <time>2020-06-04T16:42:59Z</time>
      </trkpt>
      <trkpt lat="47.10897" lon="-2.05323">
        <ele>24</ele>
        <time>2020-06-04T16:43:00Z</time>
      </trkpt>
      <trkpt lat="47.10897" lon="-2.05332">
        <ele>24.2</ele>
        <time>2020-06-04T16:43:01Z</time>
      </trkpt>
      <trkpt lat="47.10897" lon="-2.0534">
        <ele>24.4</ele>
        <time>2020-06-04T16:43:02Z</time>
      </trkpt>
      <trkpt lat="47.10897" lon="-2.05349">
        <ele>24.6</ele>
        <time>2020-06-04T16:43:03Z</time>
      </trkpt>
      <trkpt lat="47.10898" lon="-2.05357">
        <ele>24.7</ele>
        <time>2020-06-04T16:43:04Z</time>
      </trkpt>
      <trkpt lat="47.10898" lon="-2.05366">
        <ele>24.9</ele>
        <time>2020-06-04T16:43:05Z</time>
      </trkpt>
      <trkpt lat="47.10899" lon="-2.05374">
        <ele>25.1</ele>
        <time>2020-06-04T16:43:06Z</time>
      </trkpt>
      <trkpt lat="47.10899" lon="-2.05383">
        <ele>25.4</ele>
        <time>2020-06-04T16:43:07Z</time>
      </trkpt>
      <trkpt lat="47.10899" lon="-2.05392">
        <ele>25.6</ele>
        <time>2020-06-04T16:43:08Z</time>
      </trkpt>
      <trkpt lat="47.109" lon="-2.054">
        <ele>25.7</ele>
        <time>2020-06-04T16:43:09Z</time>
      </trkpt>
      <trkpt lat="47.10899" lon="-2.05408">
        <ele>25.9</ele>
        <time>2020-06-04T16:43:10Z</time>
      </trkpt>
      <trkpt lat="47.10899" lon="-2.05416">
        <ele>26</ele>
        <time>2020-06-04T16:43:11Z</time>
      </trkpt>
      <trkpt lat="47.109" lon="-2.05424">
        <ele>26.2</ele>
        <time>2020-06-04T16:43:12Z</time>
      </trkpt>
      <trkpt lat="47.109" lon="-2.05433">
        <ele>26.3</ele>
        <time>2020-06-04T16:43:13Z</time>
      </trkpt>
      <trkpt lat="47.10901" lon="-2.05441">
        <ele>26.4</ele>
        <time>2020-06-04T16:43:14Z</time>
      </trkpt>
      <trkpt lat="47.10901" lon="-2.05449">
        <ele>26.5</ele>
        <time>2020-06-04T16:43:15Z</time>
      </trkpt>
      <trkpt lat="47.10902" lon="-2.05457">
        <ele>26.6</ele>
        <time>2020-06-04T16:43:16Z</time>
      </trkpt>
      <trkpt lat="47.10903" lon="-2.05465">
        <ele>26.7</ele>
        <time>2020-06-04T16:43:17Z</time>
      </trkpt>
      <trkpt lat="47.10902" lon="-2.05473">
        <ele>26.8</ele>
        <time>2020-06-04T16:43:18Z</time>
      </trkpt>
      <trkpt lat="47.10902" lon="-2.0548">
        <ele>26.8</ele>
        <time>2020-06-04T16:43:19Z</time>
      </trkpt>
      <trkpt lat="47.10902" lon="-2.05488">
        <ele>26.9</ele>
        <time>2020-06-04T16:43:20Z</time>
      </trkpt>
      <trkpt lat="47.10902" lon="-2.05495">
        <ele>26.9</ele>
        <time>2020-06-04T16:43:21Z</time>
      </trkpt>
      <trkpt lat="47.10902" lon="-2.05503">
        <ele>26.9</ele>
        <time>2020-06-04T16:43:22Z</time>
      </trkpt>
      <trkpt lat="47.10902" lon="-2.05512">
        <ele>26.9</ele>
        <time>2020-06-04T16:43:23Z</time>
      </trkpt>
      <trkpt lat="47.10903" lon="-2.05521">
        <ele>26.9</ele>
        <time>2020-06-04T16:43:24Z</time>
      </trkpt>
      <trkpt lat="47.10904" lon="-2.0553">
        <ele>26.8</ele>
        <time>2020-06-04T16:43:25Z</time>
      </trkpt>
      <trkpt lat="47.10904" lon="-2.05537">
        <ele>26.8</ele>
        <time>2020-06-04T16:43:26Z</time>
      </trkpt>
      <trkpt lat="47.10905" lon="-2.05545">
        <ele>26.7</ele>
        <time>2020-06-04T16:43:27Z</time>
      </trkpt>
      <trkpt lat="47.10905" lon="-2.05553">
        <ele>26.7</ele>
        <time>2020-06-04T16:43:28Z</time>
      </trkpt>
      <trkpt lat="47.10906" lon="-2.05561">
        <ele>26.6</ele>
        <time>2020-06-04T16:43:29Z</time>
      </trkpt>
      <trkpt lat="47.10907" lon="-2.05569">
        <ele>26.5</ele>
        <time>2020-06-04T16:43:30Z</time>
      </trkpt>
      <trkpt lat="47.10908" lon="-2.05578">
        <ele>26.4</ele>
        <time>2020-06-04T16:43:31Z</time>
      </trkpt>
      <trkpt lat="47.10909" lon="-2.05586">
        <ele>26.3</ele>
        <time>2020-06-04T16:43:32Z</time>
      </trkpt>
      <trkpt lat="47.10909" lon="-2.05594">
        <ele>26.3</ele>
        <time>2020-06-04T16:43:33Z</time>
      </trkpt>
      <trkpt lat="47.1091" lon="-2.05602">
        <ele>26.2</ele>
        <time>2020-06-04T16:43:34Z</time>
      </trkpt>
      <trkpt lat="47.10911" lon="-2.05609">
        <ele>26.1</ele>
        <time>2020-06-04T16:43:35Z</time>
      </trkpt>
      <trkpt lat="47.10912" lon="-2.05617">
        <ele>26</ele>
        <time>2020-06-04T16:43:36Z</time>
      </trkpt>
      <trkpt lat="47.10912" lon="-2.05625">
        <ele>25.9</ele>
        <time>2020-06-04T16:43:37Z</time>
      </trkpt>
      <trkpt lat="47.10913" lon="-2.05634">
        <ele>25.7</ele>
        <time>2020-06-04T16:43:38Z</time>
      </trkpt>
      <trkpt lat="47.10914" lon="-2.05643">
        <ele>25.6</ele>
        <time>2020-06-04T16:43:39Z</time>
      </trkpt>
      <trkpt lat="47.10914" lon="-2.05653">
        <ele>25.5</ele>
        <time>2020-06-04T16:43:40Z</time>
      </trkpt>
      <trkpt lat="47.10914" lon="-2.05663">
        <ele>25.3</ele>
        <time>2020-06-04T16:43:41Z</time>
      </trkpt>
      <trkpt lat="47.10914" lon="-2.05673">
        <ele>25.2</ele>
        <time>2020-06-04T16:43:42Z</time>
      </trkpt>
      <trkpt lat="47.10914" lon="-2.05683">
        <ele>25</ele>
        <time>2020-06-04T16:43:43Z</time>
      </trkpt>
      <trkpt lat="47.10913" lon="-2.05693">
        <ele>24.9</ele>
        <time>2020-06-04T16:43:44Z</time>
      </trkpt>
      <trkpt lat="47.10913" lon="-2.05703">
        <ele>24.7</ele>
        <time>2020-06-04T16:43:45Z</time>
      </trkpt>
      <trkpt lat="47.10914" lon="-2.05713">
        <ele>24.6</ele>
        <time>2020-06-04T16:43:46Z</time>
      </trkpt>
      <trkpt lat="47.10913" lon="-2.05724">
        <ele>24.5</ele>
        <time>2020-06-04T16:43:47Z</time>
      </trkpt>
      <trkpt lat="47.10914" lon="-2.05735">
        <ele>24.3</ele>
        <time>2020-06-04T16:43:48Z</time>
      </trkpt>
      <trkpt lat="47.10916" lon="-2.05747">
        <ele>24.2</ele>
        <time>2020-06-04T16:43:49Z</time>
      </trkpt>
      <trkpt lat="47.10916" lon="-2.05758">
        <ele>24.2</ele>
        <time>2020-06-04T16:43:50Z</time>
      </trkpt>
      <trkpt lat="47.10917" lon="-2.05769">
        <ele>24.2</ele>
        <time>2020-06-04T16:43:51Z</time>
      </trkpt>
      <trkpt lat="47.10917" lon="-2.0578">
        <ele>24.2</ele>
        <time>2020-06-04T16:43:52Z</time>
      </trkpt>
      <trkpt lat="47.10917" lon="-2.05792">
        <ele>24.3</ele>
        <time>2020-06-04T16:43:53Z</time>
      </trkpt>
      <trkpt lat="47.10917" lon="-2.05805">
        <ele>24.4</ele>
        <time>2020-06-04T16:43:54Z</time>
      </trkpt>
      <trkpt lat="47.10909" lon="-2.05818">
        <ele>24.5</ele>
        <time>2020-06-04T16:43:55Z</time>
      </trkpt>
      <trkpt lat="47.10909" lon="-2.0583">
        <ele>24.6</ele>
        <time>2020-06-04T16:43:56Z</time>
      </trkpt>
      <trkpt lat="47.1091" lon="-2.05841">
        <ele>24.7</ele>
        <time>2020-06-04T16:43:57Z</time>
      </trkpt>
      <trkpt lat="47.1091" lon="-2.05852">
        <ele>24.8</ele>
        <time>2020-06-04T16:43:58Z</time>
      </trkpt>
      <trkpt lat="47.10909" lon="-2.05864">
        <ele>24.7</ele>
        <time>2020-06-04T16:43:59Z</time>
      </trkpt>
      <trkpt lat="47.1091" lon="-2.05874">
        <ele>24.8</ele>
        <time>2020-06-04T16:44:00Z</time>
      </trkpt>
      <trkpt lat="47.10912" lon="-2.05885">
        <ele>25</ele>
        <time>2020-06-04T16:44:01Z</time>
      </trkpt>
      <trkpt lat="47.10911" lon="-2.05894">
        <ele>25.1</ele>
        <time>2020-06-04T16:44:02Z</time>
      </trkpt>
      <trkpt lat="47.10912" lon="-2.05903">
        <ele>25.2</ele>
        <time>2020-06-04T16:44:03Z</time>
      </trkpt>
      <trkpt lat="47.10912" lon="-2.05913">
        <ele>25.4</ele>
        <time>2020-06-04T16:44:04Z</time>
      </trkpt>
      <trkpt lat="47.10913" lon="-2.05922">
        <ele>25.5</ele>
        <time>2020-06-04T16:44:05Z</time>
      </trkpt>
      <trkpt lat="47.10913" lon="-2.05931">
        <ele>25.6</ele>
        <time>2020-06-04T16:44:06Z</time>
      </trkpt>
      <trkpt lat="47.10913" lon="-2.05941">
        <ele>25.8</ele>
        <time>2020-06-04T16:44:07Z</time>
      </trkpt>
      <trkpt lat="47.10914" lon="-2.05951">
        <ele>25.9</ele>
        <time>2020-06-04T16:44:08Z</time>
      </trkpt>
      <trkpt lat="47.10914" lon="-2.05961">
        <ele>26</ele>
        <time>2020-06-04T16:44:09Z</time>
      </trkpt>
      <trkpt lat="47.10914" lon="-2.0597">
        <ele>26.1</ele>
        <time>2020-06-04T16:44:10Z</time>
      </trkpt>
      <trkpt lat="47.10915" lon="-2.0598">
        <ele>26.2</ele>
        <time>2020-06-04T16:44:11Z</time>
      </trkpt>
      <trkpt lat="47.10915" lon="-2.0599">
        <ele>26.3</ele>
        <time>2020-06-04T16:44:12Z</time>
      </trkpt>
      <trkpt lat="47.10916" lon="-2.06">
        <ele>26.4</ele>
        <time>2020-06-04T16:44:13Z</time>
      </trkpt>
      <trkpt lat="47.10916" lon="-2.0601">
        <ele>26.4</ele>
        <time>2020-06-04T16:44:14Z</time>
      </trkpt>
      <trkpt lat="47.10916" lon="-2.0602">
        <ele>26.5</ele>
        <time>2020-06-04T16:44:15Z</time>
      </trkpt>
      <trkpt lat="47.10917" lon="-2.0603">
        <ele>26.5</ele>
        <time>2020-06-04T16:44:16Z</time>
      </trkpt>
      <trkpt lat="47.10916" lon="-2.06039">
        <ele>26.6</ele>
        <time>2020-06-04T16:44:17Z</time>
      </trkpt>
      <trkpt lat="47.10918" lon="-2.06048">
        <ele>26.6</ele>
        <time>2020-06-04T16:44:18Z</time>
      </trkpt>
      <trkpt lat="47.10922" lon="-2.06057">
        <ele>26.6</ele>
        <time>2020-06-04T16:44:19Z</time>
      </trkpt>
      <trkpt lat="47.10924" lon="-2.06067">
        <ele>26.7</ele>
        <time>2020-06-04T16:44:20Z</time>
      </trkpt>
      <trkpt lat="47.10925" lon="-2.06075">
        <ele>26.7</ele>
        <time>2020-06-04T16:44:21Z</time>
      </trkpt>
      <trkpt lat="47.10928" lon="-2.06083">
        <ele>26.7</ele>
        <time>2020-06-04T16:44:22Z</time>
      </trkpt>
      <trkpt lat="47.10932" lon="-2.06091">
        <ele>26.7</ele>
        <time>2020-06-04T16:44:23Z</time>
      </trkpt>
      <trkpt lat="47.10937" lon="-2.06097">
        <ele>26.8</ele>
        <time>2020-06-04T16:44:24Z</time>
      </trkpt>
      <trkpt lat="47.10943" lon="-2.06099">
        <ele>26.6</ele>
        <time>2020-06-04T16:44:25Z</time>
      </trkpt>
      <trkpt lat="47.10949" lon="-2.06103">
        <ele>26.5</ele>
        <time>2020-06-04T16:44:26Z</time>
      </trkpt>
      <trkpt lat="47.10954" lon="-2.06107">
        <ele>26.4</ele>
        <time>2020-06-04T16:44:27Z</time>
      </trkpt>
      <trkpt lat="47.1096" lon="-2.06111">
        <ele>26.3</ele>
        <time>2020-06-04T16:44:28Z</time>
      </trkpt>
      <trkpt lat="47.10965" lon="-2.06114">
        <ele>26.2</ele>
        <time>2020-06-04T16:44:29Z</time>
      </trkpt>
      <trkpt lat="47.1097" lon="-2.06117">
        <ele>26.1</ele>
        <time>2020-06-04T16:44:30Z</time>
      </trkpt>
      <trkpt lat="47.10973" lon="-2.06122">
        <ele>26</ele>
        <time>2020-06-04T16:44:31Z</time>
      </trkpt>
      <trkpt lat="47.10976" lon="-2.06129">
        <ele>25.9</ele>
        <time>2020-06-04T16:44:32Z</time>
      </trkpt>
      <trkpt lat="47.10979" lon="-2.06137">
        <ele>25.8</ele>
        <time>2020-06-04T16:44:33Z</time>
      </trkpt>
      <trkpt lat="47.10981" lon="-2.06144">
        <ele>25.7</ele>
        <time>2020-06-04T16:44:34Z</time>
      </trkpt>
      <trkpt lat="47.10983" lon="-2.06152">
        <ele>25.6</ele>
        <time>2020-06-04T16:44:35Z</time>
      </trkpt>
      <trkpt lat="47.10986" lon="-2.0616">
        <ele>25.5</ele>
        <time>2020-06-04T16:44:36Z</time>
      </trkpt>
      <trkpt lat="47.10991" lon="-2.06167">
        <ele>25.4</ele>
        <time>2020-06-04T16:44:37Z</time>
      </trkpt>
      <trkpt lat="47.10997" lon="-2.06172">
        <ele>25.2</ele>
        <time>2020-06-04T16:44:38Z</time>
      </trkpt>
      <trkpt lat="47.11003" lon="-2.06178">
        <ele>25.1</ele>
        <time>2020-06-04T16:44:39Z</time>
      </trkpt>
      <trkpt lat="47.11009" lon="-2.06183">
        <ele>25.1</ele>
        <time>2020-06-04T16:44:40Z</time>
      </trkpt>
      <trkpt lat="47.11016" lon="-2.06188">
        <ele>25</ele>
        <time>2020-06-04T16:44:41Z</time>
      </trkpt>
      <trkpt lat="47.11022" lon="-2.06192">
        <ele>25</ele>
        <time>2020-06-04T16:44:42Z</time>
      </trkpt>
      <trkpt lat="47.11029" lon="-2.06194">
        <ele>25</ele>
        <time>2020-06-04T16:44:43Z</time>
      </trkpt>
      <trkpt lat="47.11035" lon="-2.06196">
        <ele>25</ele>
        <time>2020-06-04T16:44:44Z</time>
      </trkpt>
      <trkpt lat="47.11043" lon="-2.06197">
        <ele>25</ele>
        <time>2020-06-04T16:44:45Z</time>
      </trkpt>
      <trkpt lat="47.11049" lon="-2.062">
        <ele>25</ele>
        <time>2020-06-04T16:44:46Z</time>
      </trkpt>
      <trkpt lat="47.11056" lon="-2.06202">
        <ele>25.1</ele>
        <time>2020-06-04T16:44:47Z</time>
      </trkpt>
      <trkpt lat="47.11063" lon="-2.06203">
        <ele>25.1</ele>
        <time>2020-06-04T16:44:48Z</time>
      </trkpt>
      <trkpt lat="47.1107" lon="-2.06204">
        <ele>25.1</ele>
        <time>2020-06-04T16:44:49Z</time>
      </trkpt>
      <trkpt lat="47.11077" lon="-2.06204">
        <ele>25.1</ele>
        <time>2020-06-04T16:44:50Z</time>
      </trkpt>
      <trkpt lat="47.11084" lon="-2.06206">
        <ele>25.1</ele>
        <time>2020-06-04T16:44:51Z</time>
      </trkpt>
      <trkpt lat="47.11091" lon="-2.06207">
        <ele>25.1</ele>
        <time>2020-06-04T16:44:52Z</time>
      </trkpt>
      <trkpt lat="47.11099" lon="-2.0621">
        <ele>25</ele>
        <time>2020-06-04T16:44:53Z</time>
      </trkpt>
      <trkpt lat="47.11106" lon="-2.06212">
        <ele>25</ele>
        <time>2020-06-04T16:44:54Z</time>
      </trkpt>
      <trkpt lat="47.11114" lon="-2.06214">
        <ele>25</ele>
        <time>2020-06-04T16:44:55Z</time>
      </trkpt>
      <trkpt lat="47.11122" lon="-2.06216">
        <ele>24.9</ele>
        <time>2020-06-04T16:44:56Z</time>
      </trkpt>
      <trkpt lat="47.1113" lon="-2.06219">
        <ele>24.9</ele>
        <time>2020-06-04T16:44:57Z</time>
      </trkpt>
      <trkpt lat="47.11138" lon="-2.06221">
        <ele>24.9</ele>
        <time>2020-06-04T16:44:58Z</time>
      </trkpt>
      <trkpt lat="47.11145" lon="-2.06224">
        <ele>24.8</ele>
        <time>2020-06-04T16:44:59Z</time>
      </trkpt>
      <trkpt lat="47.11153" lon="-2.06226">
        <ele>24.8</ele>
        <time>2020-06-04T16:45:00Z</time>
      </trkpt>
      <trkpt lat="47.11161" lon="-2.06229">
        <ele>24.8</ele>
        <time>2020-06-04T16:45:01Z</time>
      </trkpt>
      <trkpt lat="47.11168" lon="-2.06231">
        <ele>24.7</ele>
        <time>2020-06-04T16:45:02Z</time>
      </trkpt>
      <trkpt lat="47.11175" lon="-2.06235">
        <ele>24.7</ele>
        <time>2020-06-04T16:45:03Z</time>
      </trkpt>
      <trkpt lat="47.11182" lon="-2.06239">
        <ele>24.7</ele>
        <time>2020-06-04T16:45:04Z</time>
      </trkpt>
      <trkpt lat="47.1119" lon="-2.06241">
        <ele>24.7</ele>
        <time>2020-06-04T16:45:05Z</time>
      </trkpt>
      <trkpt lat="47.11196" lon="-2.06246">
        <ele>24.7</ele>
        <time>2020-06-04T16:45:06Z</time>
      </trkpt>
      <trkpt lat="47.11203" lon="-2.06251">
        <ele>24.7</ele>
        <time>2020-06-04T16:45:07Z</time>
      </trkpt>
      <trkpt lat="47.11209" lon="-2.06255">
        <ele>24.7</ele>
        <time>2020-06-04T16:45:08Z</time>
      </trkpt>
      <trkpt lat="47.11215" lon="-2.06262">
        <ele>24.7</ele>
        <time>2020-06-04T16:45:09Z</time>
      </trkpt>
      <trkpt lat="47.11221" lon="-2.06268">
        <ele>24.7</ele>
        <time>2020-06-04T16:45:10Z</time>
      </trkpt>
      <trkpt lat="47.11225" lon="-2.06275">
        <ele>24.6</ele>
        <time>2020-06-04T16:45:11Z</time>
      </trkpt>
      <trkpt lat="47.1123" lon="-2.06283">
        <ele>24.6</ele>
        <time>2020-06-04T16:45:12Z</time>
      </trkpt>
      <trkpt lat="47.11233" lon="-2.06292">
        <ele>24.6</ele>
        <time>2020-06-04T16:45:13Z</time>
      </trkpt>
      <trkpt lat="47.11237" lon="-2.06301">
        <ele>24.6</ele>
        <time>2020-06-04T16:45:14Z</time>
      </trkpt>
      <trkpt lat="47.11239" lon="-2.0631">
        <ele>24.6</ele>
        <time>2020-06-04T16:45:15Z</time>
      </trkpt>
      <trkpt lat="47.11241" lon="-2.06319">
        <ele>24.6</ele>
        <time>2020-06-04T16:45:16Z</time>
      </trkpt>
      <trkpt lat="47.11242" lon="-2.06329">
        <ele>24.7</ele>
        <time>2020-06-04T16:45:17Z</time>
      </trkpt>
      <trkpt lat="47.11243" lon="-2.06339">
        <ele>24.7</ele>
        <time>2020-06-04T16:45:18Z</time>
      </trkpt>
      <trkpt lat="47.11243" lon="-2.06349">
        <ele>24.7</ele>
        <time>2020-06-04T16:45:19Z</time>
      </trkpt>
      <trkpt lat="47.11243" lon="-2.06359">
        <ele>24.8</ele>
        <time>2020-06-04T16:45:20Z</time>
      </trkpt>
      <trkpt lat="47.11243" lon="-2.06368">
        <ele>24.8</ele>
        <time>2020-06-04T16:45:21Z</time>
      </trkpt>
      <trkpt lat="47.11243" lon="-2.06378">
        <ele>24.9</ele>
        <time>2020-06-04T16:45:22Z</time>
      </trkpt>
      <trkpt lat="47.11243" lon="-2.06387">
        <ele>25</ele>
        <time>2020-06-04T16:45:23Z</time>
      </trkpt>
      <trkpt lat="47.11241" lon="-2.06396">
        <ele>25.1</ele>
        <time>2020-06-04T16:45:24Z</time>
      </trkpt>
      <trkpt lat="47.11239" lon="-2.06404">
        <ele>25.2</ele>
        <time>2020-06-04T16:45:25Z</time>
      </trkpt>
      <trkpt lat="47.11237" lon="-2.06412">
        <ele>25.4</ele>
        <time>2020-06-04T16:45:26Z</time>
      </trkpt>
      <trkpt lat="47.11235" lon="-2.0642">
        <ele>25.5</ele>
        <time>2020-06-04T16:45:27Z</time>
      </trkpt>
      <trkpt lat="47.11232" lon="-2.06428">
        <ele>25.6</ele>
        <time>2020-06-04T16:45:28Z</time>
      </trkpt>
      <trkpt lat="47.11231" lon="-2.06436">
        <ele>25.7</ele>
        <time>2020-06-04T16:45:29Z</time>
      </trkpt>
      <trkpt lat="47.11228" lon="-2.06443">
        <ele>25.9</ele>
        <time>2020-06-04T16:45:30Z</time>
      </trkpt>
      <trkpt lat="47.11226" lon="-2.0645">
        <ele>26</ele>
        <time>2020-06-04T16:45:31Z</time>
      </trkpt>
      <trkpt lat="47.11224" lon="-2.06457">
        <ele>26.1</ele>
        <time>2020-06-04T16:45:32Z</time>
      </trkpt>
      <trkpt lat="47.11221" lon="-2.06463">
        <ele>26.1</ele>
        <time>2020-06-04T16:45:33Z</time>
      </trkpt>
      <trkpt lat="47.1122" lon="-2.0647">
        <ele>26.2</ele>
        <time>2020-06-04T16:45:34Z</time>
      </trkpt>
      <trkpt lat="47.11218" lon="-2.06476">
        <ele>26.3</ele>
        <time>2020-06-04T16:45:35Z</time>
      </trkpt>
      <trkpt lat="47.11219" lon="-2.06483">
        <ele>26.3</ele>
        <time>2020-06-04T16:45:36Z</time>
      </trkpt>
      <trkpt lat="47.11221" lon="-2.06488">
        <ele>26.3</ele>
        <time>2020-06-04T16:45:37Z</time>
      </trkpt>
      <trkpt lat="47.11225" lon="-2.06491">
        <ele>26.4</ele>
        <time>2020-06-04T16:45:38Z</time>
      </trkpt>
      <trkpt lat="47.11229" lon="-2.06492">
        <ele>26.4</ele>
        <time>2020-06-04T16:45:39Z</time>
      </trkpt>
      <trkpt lat="47.11233" lon="-2.06491">
        <ele>26.4</ele>
        <time>2020-06-04T16:45:40Z</time>
      </trkpt>
      <trkpt lat="47.11237" lon="-2.06489">
        <ele>26.4</ele>
        <time>2020-06-04T16:45:41Z</time>
      </trkpt>
      <trkpt lat="47.11241" lon="-2.06486">
        <ele>26.4</ele>
        <time>2020-06-04T16:45:42Z</time>
      </trkpt>
      <trkpt lat="47.11244" lon="-2.06481">
        <ele>26.2</ele>
        <time>2020-06-04T16:45:43Z</time>
      </trkpt>
      <trkpt lat="47.11248" lon="-2.06479">
        <ele>26.2</ele>
        <time>2020-06-04T16:45:44Z</time>
      </trkpt>
      <trkpt lat="47.11253" lon="-2.06476">
        <ele>26.2</ele>
        <time>2020-06-04T16:45:45Z</time>
      </trkpt>
      <trkpt lat="47.11258" lon="-2.06475">
        <ele>26.2</ele>
        <time>2020-06-04T16:45:46Z</time>
      </trkpt>
      <trkpt lat="47.11263" lon="-2.06474">
        <ele>26.2</ele>
        <time>2020-06-04T16:45:47Z</time>
      </trkpt>
      <trkpt lat="47.11267" lon="-2.06476">
        <ele>26.2</ele>
        <time>2020-06-04T16:45:48Z</time>
      </trkpt>
      <trkpt lat="47.11272" lon="-2.06478">
        <ele>26.2</ele>
        <time>2020-06-04T16:45:49Z</time>
      </trkpt>
      <trkpt lat="47.11276" lon="-2.0648">
        <ele>26.2</ele>
        <time>2020-06-04T16:45:50Z</time>
      </trkpt>
      <trkpt lat="47.11281" lon="-2.06483">
        <ele>26.3</ele>
        <time>2020-06-04T16:45:51Z</time>
      </trkpt>
      <trkpt lat="47.11284" lon="-2.06486">
        <ele>26.3</ele>
        <time>2020-06-04T16:45:52Z</time>
      </trkpt>
      <trkpt lat="47.11287" lon="-2.06491">
        <ele>26.3</ele>
        <time>2020-06-04T16:45:53Z</time>
      </trkpt>
      <trkpt lat="47.1129" lon="-2.06497">
        <ele>26.3</ele>
        <time>2020-06-04T16:45:54Z</time>
      </trkpt>
      <trkpt lat="47.11291" lon="-2.06503">
        <ele>26.4</ele>
        <time>2020-06-04T16:45:55Z</time>
      </trkpt>
      <trkpt lat="47.11291" lon="-2.0651">
        <ele>26.4</ele>
        <time>2020-06-04T16:45:56Z</time>
      </trkpt>
      <trkpt lat="47.11292" lon="-2.06517">
        <ele>26.5</ele>
        <time>2020-06-04T16:45:57Z</time>
      </trkpt>
      <trkpt lat="47.11292" lon="-2.06523">
        <ele>26.5</ele>
        <time>2020-06-04T16:45:58Z</time>
      </trkpt>
      <trkpt lat="47.11292" lon="-2.06529">
        <ele>26.5</ele>
        <time>2020-06-04T16:45:59Z</time>
      </trkpt>
      <trkpt lat="47.1129" lon="-2.06534">
        <ele>26.6</ele>
        <time>2020-06-04T16:46:00Z</time>
      </trkpt>
      <trkpt lat="47.11287" lon="-2.06539">
        <ele>26.6</ele>
        <time>2020-06-04T16:46:01Z</time>
      </trkpt>
      <trkpt lat="47.11284" lon="-2.06544">
        <ele>26.7</ele>
        <time>2020-06-04T16:46:02Z</time>
      </trkpt>
      <trkpt lat="47.1128" lon="-2.06547">
        <ele>26.8</ele>
        <time>2020-06-04T16:46:03Z</time>
      </trkpt>
      <trkpt lat="47.11278" lon="-2.06552">
        <ele>26.8</ele>
        <time>2020-06-04T16:46:04Z</time>
      </trkpt>
      <trkpt lat="47.11275" lon="-2.06555">
        <ele>26.9</ele>
        <time>2020-06-04T16:46:05Z</time>
      </trkpt>
      <trkpt lat="47.11271" lon="-2.06557">
        <ele>27</ele>
        <time>2020-06-04T16:46:06Z</time>
      </trkpt>
      <trkpt lat="47.11268" lon="-2.06558">
        <ele>27</ele>
        <time>2020-06-04T16:46:07Z</time>
      </trkpt>
      <trkpt lat="47.11265" lon="-2.06559">
        <ele>27.1</ele>
        <time>2020-06-04T16:46:08Z</time>
      </trkpt>
      <trkpt lat="47.11262" lon="-2.06561">
        <ele>27.3</ele>
        <time>2020-06-04T16:46:09Z</time>
      </trkpt>
      <trkpt lat="47.11258" lon="-2.06562">
        <ele>27.4</ele>
        <time>2020-06-04T16:46:10Z</time>
      </trkpt>
      <trkpt lat="47.11254" lon="-2.06561">
        <ele>27.7</ele>
        <time>2020-06-04T16:46:11Z</time>
      </trkpt>
      <trkpt lat="47.11249" lon="-2.06558">
        <ele>27.7</ele>
        <time>2020-06-04T16:46:12Z</time>
      </trkpt>
      <trkpt lat="47.11245" lon="-2.06554">
        <ele>27.6</ele>
        <time>2020-06-04T16:46:13Z</time>
      </trkpt>
      <trkpt lat="47.11239" lon="-2.06552">
        <ele>27.6</ele>
        <time>2020-06-04T16:46:14Z</time>
      </trkpt>
      <trkpt lat="47.11231" lon="-2.06553">
        <ele>27.6</ele>
        <time>2020-06-04T16:46:15Z</time>
      </trkpt>
      <trkpt lat="47.11226" lon="-2.06555">
        <ele>27.6</ele>
        <time>2020-06-04T16:46:16Z</time>
      </trkpt>
      <trkpt lat="47.1122" lon="-2.06558">
        <ele>27.6</ele>
        <time>2020-06-04T16:46:17Z</time>
      </trkpt>
      <trkpt lat="47.11214" lon="-2.06562">
        <ele>27.6</ele>
        <time>2020-06-04T16:46:18Z</time>
      </trkpt>
      <trkpt lat="47.11208" lon="-2.06566">
        <ele>27.6</ele>
        <time>2020-06-04T16:46:19Z</time>
      </trkpt>
      <trkpt lat="47.11202" lon="-2.0657">
        <ele>27.6</ele>
        <time>2020-06-04T16:46:20Z</time>
      </trkpt>
      <trkpt lat="47.11195" lon="-2.06575">
        <ele>27.6</ele>
        <time>2020-06-04T16:46:21Z</time>
      </trkpt>
      <trkpt lat="47.1119" lon="-2.06578">
        <ele>27.6</ele>
        <time>2020-06-04T16:46:22Z</time>
      </trkpt>
      <trkpt lat="47.11184" lon="-2.06582">
        <ele>27.6</ele>
        <time>2020-06-04T16:46:23Z</time>
      </trkpt>
      <trkpt lat="47.11179" lon="-2.06586">
        <ele>27.7</ele>
        <time>2020-06-04T16:46:24Z</time>
      </trkpt>
      <trkpt lat="47.11173" lon="-2.06592">
        <ele>27.8</ele>
        <time>2020-06-04T16:46:25Z</time>
      </trkpt>
      <trkpt lat="47.11168" lon="-2.06599">
        <ele>27.8</ele>
        <time>2020-06-04T16:46:26Z</time>
      </trkpt>
      <trkpt lat="47.11165" lon="-2.06607">
        <ele>28.1</ele>
        <time>2020-06-04T16:46:27Z</time>
      </trkpt>
      <trkpt lat="47.11162" lon="-2.06615">
        <ele>28.3</ele>
        <time>2020-06-04T16:46:28Z</time>
      </trkpt>
      <trkpt lat="47.11159" lon="-2.06621">
        <ele>28.5</ele>
        <time>2020-06-04T16:46:29Z</time>
      </trkpt>
      <trkpt lat="47.11156" lon="-2.06628">
        <ele>28.6</ele>
        <time>2020-06-04T16:46:30Z</time>
      </trkpt>
      <trkpt lat="47.11153" lon="-2.06634">
        <ele>28.7</ele>
        <time>2020-06-04T16:46:31Z</time>
      </trkpt>
      <trkpt lat="47.11152" lon="-2.06641">
        <ele>28.8</ele>
        <time>2020-06-04T16:46:32Z</time>
      </trkpt>
      <trkpt lat="47.11153" lon="-2.06651">
        <ele>29</ele>
        <time>2020-06-04T16:46:33Z</time>
      </trkpt>
      <trkpt lat="47.11155" lon="-2.06662">
        <ele>29.2</ele>
        <time>2020-06-04T16:46:34Z</time>
      </trkpt>
      <trkpt lat="47.11155" lon="-2.06672">
        <ele>29.4</ele>
        <time>2020-06-04T16:46:35Z</time>
      </trkpt>
      <trkpt lat="47.11156" lon="-2.06682">
        <ele>29.5</ele>
        <time>2020-06-04T16:46:36Z</time>
      </trkpt>
      <trkpt lat="47.11157" lon="-2.06692">
        <ele>29.5</ele>
        <time>2020-06-04T16:46:37Z</time>
      </trkpt>
      <trkpt lat="47.11157" lon="-2.06702">
        <ele>29.5</ele>
        <time>2020-06-04T16:46:38Z</time>
      </trkpt>
      <trkpt lat="47.11157" lon="-2.06712">
        <ele>29.6</ele>
        <time>2020-06-04T16:46:39Z</time>
      </trkpt>
      <trkpt lat="47.11158" lon="-2.06721">
        <ele>29.6</ele>
        <time>2020-06-04T16:46:40Z</time>
      </trkpt>
      <trkpt lat="47.11158" lon="-2.06731">
        <ele>29.7</ele>
        <time>2020-06-04T16:46:41Z</time>
      </trkpt>
      <trkpt lat="47.11159" lon="-2.06741">
        <ele>29.8</ele>
        <time>2020-06-04T16:46:42Z</time>
      </trkpt>
      <trkpt lat="47.11159" lon="-2.0675">
        <ele>29.8</ele>
        <time>2020-06-04T16:46:43Z</time>
      </trkpt>
      <trkpt lat="47.1116" lon="-2.06759">
        <ele>29.9</ele>
        <time>2020-06-04T16:46:44Z</time>
      </trkpt>
      <trkpt lat="47.11162" lon="-2.06768">
        <ele>30</ele>
        <time>2020-06-04T16:46:45Z</time>
      </trkpt>
      <trkpt lat="47.11164" lon="-2.06777">
        <ele>30</ele>
        <time>2020-06-04T16:46:46Z</time>
      </trkpt>
      <trkpt lat="47.11166" lon="-2.06784">
        <ele>29.9</ele>
        <time>2020-06-04T16:46:47Z</time>
      </trkpt>
      <trkpt lat="47.11168" lon="-2.06792">
        <ele>29.9</ele>
        <time>2020-06-04T16:46:48Z</time>
      </trkpt>
      <trkpt lat="47.1117" lon="-2.068">
        <ele>29.8</ele>
        <time>2020-06-04T16:46:49Z</time>
      </trkpt>
      <trkpt lat="47.11172" lon="-2.06809">
        <ele>29.7</ele>
        <time>2020-06-04T16:46:50Z</time>
      </trkpt>
      <trkpt lat="47.11173" lon="-2.06818">
        <ele>29.7</ele>
        <time>2020-06-04T16:46:51Z</time>
      </trkpt>
      <trkpt lat="47.11174" lon="-2.06825">
        <ele>29.6</ele>
        <time>2020-06-04T16:46:52Z</time>
      </trkpt>
      <trkpt lat="47.11174" lon="-2.06834">
        <ele>29.6</ele>
        <time>2020-06-04T16:46:53Z</time>
      </trkpt>
      <trkpt lat="47.11174" lon="-2.06841">
        <ele>29.5</ele>
        <time>2020-06-04T16:46:54Z</time>
      </trkpt>
      <trkpt lat="47.11174" lon="-2.06847">
        <ele>29.5</ele>
        <time>2020-06-04T16:46:55Z</time>
      </trkpt>
      <trkpt lat="47.11174" lon="-2.06854">
        <ele>29.4</ele>
        <time>2020-06-04T16:46:56Z</time>
      </trkpt>
      <trkpt lat="47.11174" lon="-2.06861">
        <ele>29.4</ele>
        <time>2020-06-04T16:46:57Z</time>
      </trkpt>
      <trkpt lat="47.11174" lon="-2.06867">
        <ele>29.3</ele>
        <time>2020-06-04T16:46:58Z</time>
      </trkpt>
      <trkpt lat="47.11174" lon="-2.06873">
        <ele>29.2</ele>
        <time>2020-06-04T16:46:59Z</time>
      </trkpt>
      <trkpt lat="47.11174" lon="-2.06879">
        <ele>29.2</ele>
        <time>2020-06-04T16:47:00Z</time>
      </trkpt>
      <trkpt lat="47.11174" lon="-2.06885">
        <ele>29.1</ele>
        <time>2020-06-04T16:47:01Z</time>
      </trkpt>
      <trkpt lat="47.11174" lon="-2.06891">
        <ele>29.1</ele>
        <time>2020-06-04T16:47:02Z</time>
      </trkpt>
      <trkpt lat="47.11174" lon="-2.06897">
        <ele>29</ele>
        <time>2020-06-04T16:47:03Z</time>
      </trkpt>
      <trkpt lat="47.11173" lon="-2.06902">
        <ele>29</ele>
        <time>2020-06-04T16:47:04Z</time>
      </trkpt>
      <trkpt lat="47.11173" lon="-2.06908">
        <ele>29</ele>
        <time>2020-06-04T16:47:05Z</time>
      </trkpt>
      <trkpt lat="47.11173" lon="-2.0691">
        <ele>28.9</ele>
        <time>2020-06-04T16:47:06Z</time>
      </trkpt>
      <trkpt lat="47.11174" lon="-2.06915">
        <ele>28.9</ele>
        <time>2020-06-04T16:47:07Z</time>
      </trkpt>
      <trkpt lat="47.11174" lon="-2.06921">
        <ele>28.9</ele>
        <time>2020-06-04T16:47:08Z</time>
      </trkpt>
      <trkpt lat="47.11174" lon="-2.06926">
        <ele>28.9</ele>
        <time>2020-06-04T16:47:09Z</time>
      </trkpt>
      <trkpt lat="47.11174" lon="-2.06932">
        <ele>28.9</ele>
        <time>2020-06-04T16:47:10Z</time>
      </trkpt>
      <trkpt lat="47.11174" lon="-2.06936">
        <ele>28.9</ele>
        <time>2020-06-04T16:47:11Z</time>
      </trkpt>
      <trkpt lat="47.11175" lon="-2.0694">
        <ele>28.8</ele>
        <time>2020-06-04T16:47:12Z</time>
      </trkpt>
      <trkpt lat="47.11174" lon="-2.06946">
        <ele>28.8</ele>
        <time>2020-06-04T16:47:13Z</time>
      </trkpt>
      <trkpt lat="47.11175" lon="-2.06951">
        <ele>28.8</ele>
        <time>2020-06-04T16:47:14Z</time>
      </trkpt>
      <trkpt lat="47.11175" lon="-2.06955">
        <ele>28.8</ele>
        <time>2020-06-04T16:47:15Z</time>
      </trkpt>
      <trkpt lat="47.11174" lon="-2.06961">
        <ele>28.7</ele>
        <time>2020-06-04T16:47:16Z</time>
      </trkpt>
      <trkpt lat="47.11174" lon="-2.06966">
        <ele>28.7</ele>
        <time>2020-06-04T16:47:17Z</time>
      </trkpt>
      <trkpt lat="47.11174" lon="-2.06972">
        <ele>28.7</ele>
        <time>2020-06-04T16:47:18Z</time>
      </trkpt>
      <trkpt lat="47.11173" lon="-2.06978">
        <ele>28.6</ele>
        <time>2020-06-04T16:47:19Z</time>
      </trkpt>
      <trkpt lat="47.11172" lon="-2.06983">
        <ele>28.6</ele>
        <time>2020-06-04T16:47:20Z</time>
      </trkpt>
      <trkpt lat="47.1117" lon="-2.06988">
        <ele>28.5</ele>
        <time>2020-06-04T16:47:21Z</time>
      </trkpt>
      <trkpt lat="47.11166" lon="-2.06992">
        <ele>28.6</ele>
        <time>2020-06-04T16:47:22Z</time>
      </trkpt>
      <trkpt lat="47.11161" lon="-2.06994">
        <ele>28.6</ele>
        <time>2020-06-04T16:47:23Z</time>
      </trkpt>
      <trkpt lat="47.11157" lon="-2.06994">
        <ele>28.6</ele>
        <time>2020-06-04T16:47:24Z</time>
      </trkpt>
      <trkpt lat="47.11152" lon="-2.06994">
        <ele>28.7</ele>
        <time>2020-06-04T16:47:25Z</time>
      </trkpt>
      <trkpt lat="47.11147" lon="-2.06993">
        <ele>28.7</ele>
        <time>2020-06-04T16:47:26Z</time>
      </trkpt>
      <trkpt lat="47.11142" lon="-2.06993">
        <ele>28.8</ele>
        <time>2020-06-04T16:47:27Z</time>
      </trkpt>
      <trkpt lat="47.11138" lon="-2.06994">
        <ele>28.8</ele>
        <time>2020-06-04T16:47:28Z</time>
      </trkpt>
      <trkpt lat="47.11134" lon="-2.06996">
        <ele>28.9</ele>
        <time>2020-06-04T16:47:29Z</time>
      </trkpt>
      <trkpt lat="47.11131" lon="-2.06998">
        <ele>29</ele>
        <time>2020-06-04T16:47:30Z</time>
      </trkpt>
      <trkpt lat="47.11128" lon="-2.06999">
        <ele>29</ele>
        <time>2020-06-04T16:47:31Z</time>
      </trkpt>
      <trkpt lat="47.11124" lon="-2.07001">
        <ele>29.1</ele>
        <time>2020-06-04T16:47:32Z</time>
      </trkpt>
      <trkpt lat="47.11121" lon="-2.07002">
        <ele>29.2</ele>
        <time>2020-06-04T16:47:33Z</time>
      </trkpt>
      <trkpt lat="47.11118" lon="-2.07">
        <ele>29.2</ele>
        <time>2020-06-04T16:47:34Z</time>
      </trkpt>
      <trkpt lat="47.11117" lon="-2.06998">
        <ele>29.2</ele>
        <time>2020-06-04T16:47:35Z</time>
      </trkpt>
      <trkpt lat="47.11116" lon="-2.06994">
        <ele>29.2</ele>
        <time>2020-06-04T16:47:36Z</time>
      </trkpt>
      <trkpt lat="47.11114" lon="-2.06991">
        <ele>29.2</ele>
        <time>2020-06-04T16:47:37Z</time>
      </trkpt>
      <trkpt lat="47.11112" lon="-2.06988">
        <ele>29.2</ele>
        <time>2020-06-04T16:47:38Z</time>
      </trkpt>
      <trkpt lat="47.11109" lon="-2.06986">
        <ele>29.3</ele>
        <time>2020-06-04T16:47:39Z</time>
      </trkpt>
      <trkpt lat="47.11106" lon="-2.06984">
        <ele>29.3</ele>
        <time>2020-06-04T16:47:40Z</time>
      </trkpt>
      <trkpt lat="47.11103" lon="-2.06981">
        <ele>29.4</ele>
        <time>2020-06-04T16:47:41Z</time>
      </trkpt>
      <trkpt lat="47.111" lon="-2.06979">
        <ele>29.4</ele>
        <time>2020-06-04T16:47:42Z</time>
      </trkpt>
      <trkpt lat="47.11096" lon="-2.06977">
        <ele>29.4</ele>
        <time>2020-06-04T16:47:43Z</time>
      </trkpt>
      <trkpt lat="47.11095" lon="-2.06976">
        <ele>29.4</ele>
        <time>2020-06-04T16:47:44Z</time>
      </trkpt>
      <trkpt lat="47.11092" lon="-2.06975">
        <ele>29.4</ele>
        <time>2020-06-04T16:47:45Z</time>
      </trkpt>
      <trkpt lat="47.11091" lon="-2.06975">
        <ele>29.4</ele>
        <time>2020-06-04T16:47:46Z</time>
      </trkpt>
      <trkpt lat="47.11089" lon="-2.0697">
        <ele>29.4</ele>
        <time>2020-06-04T16:47:47Z</time>
      </trkpt>
      <trkpt lat="47.11089" lon="-2.06969">
        <ele>29.4</ele>
        <time>2020-06-04T16:47:48Z</time>
      </trkpt>
      <trkpt lat="47.11088" lon="-2.06964">
        <ele>29.4</ele>
        <time>2020-06-04T16:47:49Z</time>
      </trkpt>
      <trkpt lat="47.11088" lon="-2.06963">
        <ele>29.4</ele>
        <time>2020-06-04T16:47:50Z</time>
      </trkpt>
      <trkpt lat="47.11088" lon="-2.06959">
        <ele>29.5</ele>
        <time>2020-06-04T16:47:51Z</time>
      </trkpt>
      <trkpt lat="47.11088" lon="-2.06958">
        <ele>29.4</ele>
        <time>2020-06-04T16:47:52Z</time>
      </trkpt>
      <trkpt lat="47.11087" lon="-2.06954">
        <ele>29.4</ele>
        <time>2020-06-04T16:47:53Z</time>
      </trkpt>
      <trkpt lat="47.11088" lon="-2.06952">
        <ele>29.4</ele>
        <time>2020-06-04T16:47:54Z</time>
      </trkpt>
      <trkpt lat="47.11088" lon="-2.06948">
        <ele>29.4</ele>
        <time>2020-06-04T16:47:55Z</time>
      </trkpt>
      <trkpt lat="47.11089" lon="-2.06946">
        <ele>29.4</ele>
        <time>2020-06-04T16:47:56Z</time>
      </trkpt>
      <trkpt lat="47.11088" lon="-2.06943">
        <ele>29.4</ele>
        <time>2020-06-04T16:47:57Z</time>
      </trkpt>
      <trkpt lat="47.11089" lon="-2.06941">
        <ele>29.4</ele>
        <time>2020-06-04T16:47:58Z</time>
      </trkpt>
      <trkpt lat="47.11087" lon="-2.06939">
        <ele>29.4</ele>
        <time>2020-06-04T16:47:59Z</time>
      </trkpt>
      <trkpt lat="47.11086" lon="-2.06937">
        <ele>29.4</ele>
        <time>2020-06-04T16:48:00Z</time>
      </trkpt>
      <trkpt lat="47.11086" lon="-2.06936">
        <ele>29.4</ele>
        <time>2020-06-04T16:48:01Z</time>
      </trkpt>
      <trkpt lat="47.11086" lon="-2.06934">
        <ele>29.4</ele>
        <time>2020-06-04T16:48:02Z</time>
      </trkpt>
      <trkpt lat="47.11087" lon="-2.06933">
        <ele>29.4</ele>
        <time>2020-06-04T16:48:03Z</time>
      </trkpt>
      <trkpt lat="47.11087" lon="-2.06932">
        <ele>29.4</ele>
        <time>2020-06-04T16:48:04Z</time>
      </trkpt>
      <trkpt lat="47.11088" lon="-2.06931">
        <ele>29.4</ele>
        <time>2020-06-04T16:48:05Z</time>
      </trkpt>
      <trkpt lat="47.11088" lon="-2.0693">
        <ele>29.4</ele>
        <time>2020-06-04T16:48:06Z</time>
      </trkpt>
      <trkpt lat="47.11089" lon="-2.06929">
        <ele>29.4</ele>
        <time>2020-06-04T16:48:07Z</time>
      </trkpt>
      <trkpt lat="47.11089" lon="-2.06928">
        <ele>29.4</ele>
        <time>2020-06-04T16:48:08Z</time>
      </trkpt>
      <trkpt lat="47.1109" lon="-2.06927">
        <ele>29.4</ele>
        <time>2020-06-04T16:48:09Z</time>
      </trkpt>
      <trkpt lat="47.11089" lon="-2.06926">
        <ele>29.4</ele>
        <time>2020-06-04T16:48:10Z</time>
      </trkpt>
      <trkpt lat="47.1109" lon="-2.06924">
        <ele>29.4</ele>
        <time>2020-06-04T16:48:11Z</time>
      </trkpt>
      <trkpt lat="47.11089" lon="-2.06924">
        <ele>29.4</ele>
        <time>2020-06-04T16:48:12Z</time>
      </trkpt>
      <trkpt lat="47.11088" lon="-2.06923">
        <ele>29.4</ele>
        <time>2020-06-04T16:48:13Z</time>
      </trkpt>
      <trkpt lat="47.11088" lon="-2.06922">
        <ele>29.4</ele>
        <time>2020-06-04T16:48:14Z</time>
      </trkpt>
      <trkpt lat="47.11089" lon="-2.06922">
        <ele>29.4</ele>
        <time>2020-06-04T16:48:15Z</time>
      </trkpt>
      <trkpt lat="47.11088" lon="-2.06922">
        <ele>29.4</ele>
        <time>2020-06-04T16:48:16Z</time>
      </trkpt>
      <trkpt lat="47.11088" lon="-2.06923">
        <ele>29.4</ele>
        <time>2020-06-04T16:48:17Z</time>
      </trkpt>
      <trkpt lat="47.11089" lon="-2.06921">
        <ele>29.4</ele>
        <time>2020-06-04T16:48:18Z</time>
      </trkpt>
      <trkpt lat="47.11088" lon="-2.06921">
        <ele>29.4</ele>
        <time>2020-06-04T16:48:19Z</time>
      </trkpt>
      <trkpt lat="47.11088" lon="-2.06921">
        <ele>29.4</ele>
        <time>2020-06-04T16:48:20Z</time>
      </trkpt>
      <trkpt lat="47.11088" lon="-2.06922">
        <ele>29.4</ele>
        <time>2020-06-04T16:48:21Z</time>
      </trkpt>
      <trkpt lat="47.11088" lon="-2.06921">
        <ele>29.4</ele>
        <time>2020-06-04T16:48:22Z</time>
      </trkpt>
      <trkpt lat="47.11089" lon="-2.0692">
        <ele>29.4</ele>
        <time>2020-06-04T16:48:23Z</time>
      </trkpt>
      <trkpt lat="47.1109" lon="-2.0692">
        <ele>29.4</ele>
        <time>2020-06-04T16:48:24Z</time>
      </trkpt>
      <trkpt lat="47.11051" lon="-2.06927">
        <ele>29.4</ele>
        <time>2020-06-04T17:08:23Z</time>
      </trkpt>
      <trkpt lat="47.11051" lon="-2.06927">
        <ele>29.4</ele>
        <time>2020-06-04T17:08:24Z</time>
      </trkpt>
      <trkpt lat="47.1105" lon="-2.06926">
        <ele>29.4</ele>
        <time>2020-06-04T17:08:25Z</time>
      </trkpt>
      <trkpt lat="47.1105" lon="-2.06925">
        <ele>29.4</ele>
        <time>2020-06-04T17:08:26Z</time>
      </trkpt>
      <trkpt lat="47.1105" lon="-2.06926">
        <ele>29.4</ele>
        <time>2020-06-04T17:08:27Z</time>
      </trkpt>
      <trkpt lat="47.1105" lon="-2.06925">
        <ele>29.4</ele>
        <time>2020-06-04T17:08:28Z</time>
      </trkpt>
      <trkpt lat="47.1105" lon="-2.06926">
        <ele>29.4</ele>
        <time>2020-06-04T17:08:29Z</time>
      </trkpt>
      <trkpt lat="47.1105" lon="-2.06927">
        <ele>29.4</ele>
        <time>2020-06-04T17:08:30Z</time>
      </trkpt>
      <trkpt lat="47.11051" lon="-2.06929">
        <ele>29.4</ele>
        <time>2020-06-04T17:08:31Z</time>
      </trkpt>
      <trkpt lat="47.11051" lon="-2.06929">
        <ele>29.4</ele>
        <time>2020-06-04T17:08:32Z</time>
      </trkpt>
      <trkpt lat="47.1105" lon="-2.06928">
        <ele>29.4</ele>
        <time>2020-06-04T17:08:33Z</time>
      </trkpt>
      <trkpt lat="47.1105" lon="-2.06928">
        <ele>29.4</ele>
        <time>2020-06-04T17:08:34Z</time>
      </trkpt>
      <trkpt lat="47.1105" lon="-2.06928">
        <ele>29.4</ele>
        <time>2020-06-04T17:08:35Z</time>
      </trkpt>
      <trkpt lat="47.1105" lon="-2.06929">
        <ele>29.4</ele>
        <time>2020-06-04T17:08:36Z</time>
      </trkpt>
      <trkpt lat="47.1105" lon="-2.0693">
        <ele>29.4</ele>
        <time>2020-06-04T17:08:37Z</time>
      </trkpt>
      <trkpt lat="47.11049" lon="-2.0693">
        <ele>29.4</ele>
        <time>2020-06-04T17:08:38Z</time>
      </trkpt>
      <trkpt lat="47.11048" lon="-2.0693">
        <ele>29.4</ele>
        <time>2020-06-04T17:08:39Z</time>
      </trkpt>
      <trkpt lat="47.11047" lon="-2.06929">
        <ele>29.4</ele>
        <time>2020-06-04T17:08:40Z</time>
      </trkpt>
      <trkpt lat="47.11047" lon="-2.06928">
        <ele>29.4</ele>
        <time>2020-06-04T17:08:41Z</time>
      </trkpt>
      <trkpt lat="47.11047" lon="-2.06927">
        <ele>29.4</ele>
        <time>2020-06-04T17:08:42Z</time>
      </trkpt>
      <trkpt lat="47.11047" lon="-2.06927">
        <ele>29.4</ele>
        <time>2020-06-04T17:08:43Z</time>
      </trkpt>
      <trkpt lat="47.11047" lon="-2.06927">
        <ele>29.4</ele>
        <time>2020-06-04T17:08:44Z</time>
      </trkpt>
      <trkpt lat="47.11047" lon="-2.06928">
        <ele>29.4</ele>
        <time>2020-06-04T17:08:45Z</time>
      </trkpt>
      <trkpt lat="47.11047" lon="-2.0693">
        <ele>29.4</ele>
        <time>2020-06-04T17:08:46Z</time>
      </trkpt>
      <trkpt lat="47.11047" lon="-2.0693">
        <ele>29.4</ele>
        <time>2020-06-04T17:08:47Z</time>
      </trkpt>
      <trkpt lat="47.11047" lon="-2.0693">
        <ele>29.4</ele>
        <time>2020-06-04T17:08:48Z</time>
      </trkpt>
      <trkpt lat="47.11048" lon="-2.06931">
        <ele>29.4</ele>
        <time>2020-06-04T17:08:49Z</time>
      </trkpt>
      <trkpt lat="47.11048" lon="-2.06931">
        <ele>29.4</ele>
        <time>2020-06-04T17:08:50Z</time>
      </trkpt>
      <trkpt lat="47.11048" lon="-2.06931">
        <ele>29.4</ele>
        <time>2020-06-04T17:08:51Z</time>
      </trkpt>
      <trkpt lat="47.11047" lon="-2.06929">
        <ele>29.4</ele>
        <time>2020-06-04T17:08:52Z</time>
      </trkpt>
      <trkpt lat="47.11048" lon="-2.0693">
        <ele>29.4</ele>
        <time>2020-06-04T17:08:53Z</time>
      </trkpt>
      <trkpt lat="47.11047" lon="-2.06929">
        <ele>29.4</ele>
        <time>2020-06-04T17:08:54Z</time>
      </trkpt>
      <trkpt lat="47.11047" lon="-2.06929">
        <ele>29.4</ele>
        <time>2020-06-04T17:08:55Z</time>
      </trkpt>
      <trkpt lat="47.11047" lon="-2.0693">
        <ele>29.4</ele>
        <time>2020-06-04T17:08:56Z</time>
      </trkpt>
      <trkpt lat="47.11047" lon="-2.06929">
        <ele>29.4</ele>
        <time>2020-06-04T17:08:57Z</time>
      </trkpt>
      <trkpt lat="47.11047" lon="-2.06929">
        <ele>29.4</ele>
        <time>2020-06-04T17:08:58Z</time>
      </trkpt>
      <trkpt lat="47.11047" lon="-2.06928">
        <ele>29.4</ele>
        <time>2020-06-04T17:08:59Z</time>
      </trkpt>
      <trkpt lat="47.11047" lon="-2.06928">
        <ele>29.4</ele>
        <time>2020-06-04T17:09:00Z</time>
      </trkpt>
      <trkpt lat="47.11047" lon="-2.06928">
        <ele>29.4</ele>
        <time>2020-06-04T17:09:01Z</time>
      </trkpt>
      <trkpt lat="47.11047" lon="-2.06929">
        <ele>29.4</ele>
        <time>2020-06-04T17:09:02Z</time>
      </trkpt>
      <trkpt lat="47.11047" lon="-2.06929">
        <ele>29.4</ele>
        <time>2020-06-04T17:09:03Z</time>
      </trkpt>
      <trkpt lat="47.11047" lon="-2.06929">
        <ele>29.4</ele>
        <time>2020-06-04T17:09:04Z</time>
      </trkpt>
      <trkpt lat="47.11047" lon="-2.06928">
        <ele>29.4</ele>
        <time>2020-06-04T17:09:05Z</time>
      </trkpt>
      <trkpt lat="47.11046" lon="-2.06929">
        <ele>29.4</ele>
        <time>2020-06-04T17:09:06Z</time>
      </trkpt>
      <trkpt lat="47.11046" lon="-2.06928">
        <ele>29.4</ele>
        <time>2020-06-04T17:09:07Z</time>
      </trkpt>
      <trkpt lat="47.11046" lon="-2.06928">
        <ele>29.4</ele>
        <time>2020-06-04T17:09:08Z</time>
      </trkpt>
      <trkpt lat="47.11046" lon="-2.0693">
        <ele>29.5</ele>
        <time>2020-06-04T17:09:09Z</time>
      </trkpt>
      <trkpt lat="47.11046" lon="-2.06927">
        <ele>29.5</ele>
        <time>2020-06-04T17:09:10Z</time>
      </trkpt>
      <trkpt lat="47.11046" lon="-2.06925">
        <ele>29.5</ele>
        <time>2020-06-04T17:09:11Z</time>
      </trkpt>
      <trkpt lat="47.11046" lon="-2.06923">
        <ele>29.5</ele>
        <time>2020-06-04T17:09:12Z</time>
      </trkpt>
      <trkpt lat="47.11046" lon="-2.06922">
        <ele>29.5</ele>
        <time>2020-06-04T17:09:13Z</time>
      </trkpt>
      <trkpt lat="47.11046" lon="-2.0692">
        <ele>29.5</ele>
        <time>2020-06-04T17:09:14Z</time>
      </trkpt>
      <trkpt lat="47.11046" lon="-2.06921">
        <ele>29.5</ele>
        <time>2020-06-04T17:09:15Z</time>
      </trkpt>
      <trkpt lat="47.11046" lon="-2.06919">
        <ele>29.5</ele>
        <time>2020-06-04T17:09:16Z</time>
      </trkpt>
      <trkpt lat="47.11046" lon="-2.06919">
        <ele>29.5</ele>
        <time>2020-06-04T17:09:17Z</time>
      </trkpt>
      <trkpt lat="47.11046" lon="-2.06919">
        <ele>29.5</ele>
        <time>2020-06-04T17:09:18Z</time>
      </trkpt>
      <trkpt lat="47.11046" lon="-2.06919">
        <ele>29.5</ele>
        <time>2020-06-04T17:09:19Z</time>
      </trkpt>
      <trkpt lat="47.11046" lon="-2.0692">
        <ele>29.5</ele>
        <time>2020-06-04T17:09:20Z</time>
      </trkpt>
      <trkpt lat="47.11046" lon="-2.0692">
        <ele>29.5</ele>
        <time>2020-06-04T17:09:21Z</time>
      </trkpt>
      <trkpt lat="47.11046" lon="-2.0692">
        <ele>29.5</ele>
        <time>2020-06-04T17:09:22Z</time>
      </trkpt>
      <trkpt lat="47.11046" lon="-2.06918">
        <ele>29.5</ele>
        <time>2020-06-04T17:09:23Z</time>
      </trkpt>
      <trkpt lat="47.11045" lon="-2.06918">
        <ele>29.5</ele>
        <time>2020-06-04T17:09:24Z</time>
      </trkpt>
      <trkpt lat="47.11045" lon="-2.06917">
        <ele>29.5</ele>
        <time>2020-06-04T17:09:25Z</time>
      </trkpt>
      <trkpt lat="47.11045" lon="-2.06916">
        <ele>29.5</ele>
        <time>2020-06-04T17:09:26Z</time>
      </trkpt>
      <trkpt lat="47.11045" lon="-2.06916">
        <ele>29.5</ele>
        <time>2020-06-04T17:09:27Z</time>
      </trkpt>
      <trkpt lat="47.11044" lon="-2.06915">
        <ele>29.5</ele>
        <time>2020-06-04T17:09:28Z</time>
      </trkpt>
      <trkpt lat="47.11045" lon="-2.06917">
        <ele>29.5</ele>
        <time>2020-06-04T17:09:29Z</time>
      </trkpt>
      <trkpt lat="47.11045" lon="-2.06917">
        <ele>29.5</ele>
        <time>2020-06-04T17:09:30Z</time>
      </trkpt>
      <trkpt lat="47.11045" lon="-2.06916">
        <ele>29.5</ele>
        <time>2020-06-04T17:09:31Z</time>
      </trkpt>
      <trkpt lat="47.11045" lon="-2.06915">
        <ele>29.5</ele>
        <time>2020-06-04T17:09:32Z</time>
      </trkpt>
      <trkpt lat="47.11044" lon="-2.06914">
        <ele>29.5</ele>
        <time>2020-06-04T17:09:33Z</time>
      </trkpt>
      <trkpt lat="47.11045" lon="-2.06913">
        <ele>29.5</ele>
        <time>2020-06-04T17:09:34Z</time>
      </trkpt>
      <trkpt lat="47.11045" lon="-2.06914">
        <ele>29.5</ele>
        <time>2020-06-04T17:09:35Z</time>
      </trkpt>
      <trkpt lat="47.11045" lon="-2.06914">
        <ele>29.5</ele>
        <time>2020-06-04T17:09:36Z</time>
      </trkpt>
      <trkpt lat="47.11045" lon="-2.06916">
        <ele>29.5</ele>
        <time>2020-06-04T17:09:37Z</time>
      </trkpt>
      <trkpt lat="47.11045" lon="-2.06916">
        <ele>29.5</ele>
        <time>2020-06-04T17:09:38Z</time>
      </trkpt>
      <trkpt lat="47.11044" lon="-2.06917">
        <ele>29.5</ele>
        <time>2020-06-04T17:09:39Z</time>
      </trkpt>
      <trkpt lat="47.11044" lon="-2.06918">
        <ele>29.5</ele>
        <time>2020-06-04T17:09:40Z</time>
      </trkpt>
      <trkpt lat="47.11044" lon="-2.06918">
        <ele>29.5</ele>
        <time>2020-06-04T17:09:41Z</time>
      </trkpt>
      <trkpt lat="47.11044" lon="-2.06919">
        <ele>29.5</ele>
        <time>2020-06-04T17:09:42Z</time>
      </trkpt>
      <trkpt lat="47.11044" lon="-2.06919">
        <ele>29.5</ele>
        <time>2020-06-04T17:09:43Z</time>
      </trkpt>
      <trkpt lat="47.11045" lon="-2.06919">
        <ele>29.5</ele>
        <time>2020-06-04T17:09:44Z</time>
      </trkpt>
      <trkpt lat="47.11045" lon="-2.0692">
        <ele>29.5</ele>
        <time>2020-06-04T17:09:45Z</time>
      </trkpt>
      <trkpt lat="47.11045" lon="-2.06921">
        <ele>29.5</ele>
        <time>2020-06-04T17:09:46Z</time>
      </trkpt>
      <trkpt lat="47.11045" lon="-2.06921">
        <ele>29.5</ele>
        <time>2020-06-04T17:09:47Z</time>
      </trkpt>
      <trkpt lat="47.11045" lon="-2.06922">
        <ele>29.5</ele>
        <time>2020-06-04T17:09:48Z</time>
      </trkpt>
      <trkpt lat="47.11045" lon="-2.06921">
        <ele>29.5</ele>
        <time>2020-06-04T17:09:49Z</time>
      </trkpt>
      <trkpt lat="47.11045" lon="-2.06922">
        <ele>29.5</ele>
        <time>2020-06-04T17:09:50Z</time>
      </trkpt>
      <trkpt lat="47.11045" lon="-2.06923">
        <ele>29.5</ele>
        <time>2020-06-04T17:09:51Z</time>
      </trkpt>
      <trkpt lat="47.11047" lon="-2.06923">
        <ele>29.5</ele>
        <time>2020-06-04T17:09:52Z</time>
      </trkpt>
      <trkpt lat="47.11046" lon="-2.06923">
        <ele>29.5</ele>
        <time>2020-06-04T17:09:53Z</time>
      </trkpt>
      <trkpt lat="47.11047" lon="-2.06923">
        <ele>29.5</ele>
        <time>2020-06-04T17:09:54Z</time>
      </trkpt>
      <trkpt lat="47.11047" lon="-2.06923">
        <ele>29.5</ele>
        <time>2020-06-04T17:09:55Z</time>
      </trkpt>
      <trkpt lat="47.11047" lon="-2.06922">
        <ele>29.5</ele>
        <time>2020-06-04T17:09:56Z</time>
      </trkpt>
      <trkpt lat="47.11048" lon="-2.06922">
        <ele>29.5</ele>
        <time>2020-06-04T17:09:57Z</time>
      </trkpt>
      <trkpt lat="47.11048" lon="-2.06923">
        <ele>29.5</ele>
        <time>2020-06-04T17:09:58Z</time>
      </trkpt>
      <trkpt lat="47.11048" lon="-2.06924">
        <ele>29.5</ele>
        <time>2020-06-04T17:09:59Z</time>
      </trkpt>
      <trkpt lat="47.11049" lon="-2.06925">
        <ele>29.5</ele>
        <time>2020-06-04T17:10:00Z</time>
      </trkpt>
      <trkpt lat="47.11049" lon="-2.06925">
        <ele>29.5</ele>
        <time>2020-06-04T17:10:01Z</time>
      </trkpt>
      <trkpt lat="47.11049" lon="-2.06924">
        <ele>29.5</ele>
        <time>2020-06-04T17:10:02Z</time>
      </trkpt>
      <trkpt lat="47.11049" lon="-2.06924">
        <ele>29.5</ele>
        <time>2020-06-04T17:10:03Z</time>
      </trkpt>
      <trkpt lat="47.1104" lon="-2.06926">
        <ele>29.5</ele>
        <time>2020-06-04T17:10:39Z</time>
      </trkpt>
      <trkpt lat="47.11039" lon="-2.06926">
        <ele>29.5</ele>
        <time>2020-06-04T17:10:40Z</time>
      </trkpt>
      <trkpt lat="47.11039" lon="-2.06925">
        <ele>29.5</ele>
        <time>2020-06-04T17:10:41Z</time>
      </trkpt>
      <trkpt lat="47.11039" lon="-2.06924">
        <ele>29.5</ele>
        <time>2020-06-04T17:10:42Z</time>
      </trkpt>
      <trkpt lat="47.1104" lon="-2.06923">
        <ele>29.5</ele>
        <time>2020-06-04T17:10:43Z</time>
      </trkpt>
      <trkpt lat="47.1104" lon="-2.06923">
        <ele>29.5</ele>
        <time>2020-06-04T17:10:44Z</time>
      </trkpt>
      <trkpt lat="47.1104" lon="-2.06923">
        <ele>29.5</ele>
        <time>2020-06-04T17:10:45Z</time>
      </trkpt>
      <trkpt lat="47.1104" lon="-2.06922">
        <ele>29.5</ele>
        <time>2020-06-04T17:10:46Z</time>
      </trkpt>
      <trkpt lat="47.1104" lon="-2.06923">
        <ele>29.5</ele>
        <time>2020-06-04T17:10:47Z</time>
      </trkpt>
      <trkpt lat="47.11041" lon="-2.06923">
        <ele>29.5</ele>
        <time>2020-06-04T17:10:48Z</time>
      </trkpt>
      <trkpt lat="47.11041" lon="-2.06924">
        <ele>29.5</ele>
        <time>2020-06-04T17:10:49Z</time>
      </trkpt>
      <trkpt lat="47.11041" lon="-2.06924">
        <ele>29.5</ele>
        <time>2020-06-04T17:10:50Z</time>
      </trkpt>
      <trkpt lat="47.11041" lon="-2.06925">
        <ele>29.5</ele>
        <time>2020-06-04T17:10:51Z</time>
      </trkpt>
      <trkpt lat="47.11041" lon="-2.06925">
        <ele>29.5</ele>
        <time>2020-06-04T17:10:52Z</time>
      </trkpt>
      <trkpt lat="47.11041" lon="-2.06925">
        <ele>29.4</ele>
        <time>2020-06-04T17:11:04Z</time>
      </trkpt>
      <trkpt lat="47.11041" lon="-2.06926">
        <ele>29.4</ele>
        <time>2020-06-04T17:11:05Z</time>
      </trkpt>
      <trkpt lat="47.11041" lon="-2.06926">
        <ele>29.4</ele>
        <time>2020-06-04T17:11:06Z</time>
      </trkpt>
      <trkpt lat="47.11042" lon="-2.06927">
        <ele>29.4</ele>
        <time>2020-06-04T17:11:07Z</time>
      </trkpt>
      <trkpt lat="47.11043" lon="-2.06927">
        <ele>29.4</ele>
        <time>2020-06-04T17:11:08Z</time>
      </trkpt>
      <trkpt lat="47.11044" lon="-2.06927">
        <ele>29.4</ele>
        <time>2020-06-04T17:11:09Z</time>
      </trkpt>
      <trkpt lat="47.11044" lon="-2.06928">
        <ele>29.4</ele>
        <time>2020-06-04T17:11:10Z</time>
      </trkpt>
      <trkpt lat="47.11044" lon="-2.06928">
        <ele>29.4</ele>
        <time>2020-06-04T17:11:11Z</time>
      </trkpt>
      <trkpt lat="47.11043" lon="-2.06929">
        <ele>29.4</ele>
        <time>2020-06-04T17:11:12Z</time>
      </trkpt>
      <trkpt lat="47.11043" lon="-2.06929">
        <ele>29.4</ele>
        <time>2020-06-04T17:11:13Z</time>
      </trkpt>
      <trkpt lat="47.11043" lon="-2.0693">
        <ele>29.4</ele>
        <time>2020-06-04T17:11:14Z</time>
      </trkpt>
      <trkpt lat="47.11043" lon="-2.0693">
        <ele>29.4</ele>
        <time>2020-06-04T17:11:15Z</time>
      </trkpt>
      <trkpt lat="47.11043" lon="-2.0693">
        <ele>29.4</ele>
        <time>2020-06-04T17:11:16Z</time>
      </trkpt>
      <trkpt lat="47.11043" lon="-2.06931">
        <ele>29.4</ele>
        <time>2020-06-04T17:11:17Z</time>
      </trkpt>
      <trkpt lat="47.11043" lon="-2.06931">
        <ele>29.4</ele>
        <time>2020-06-04T17:11:18Z</time>
      </trkpt>
      <trkpt lat="47.11043" lon="-2.06932">
        <ele>29.4</ele>
        <time>2020-06-04T17:11:19Z</time>
      </trkpt>
      <trkpt lat="47.11042" lon="-2.06932">
        <ele>29.4</ele>
        <time>2020-06-04T17:11:20Z</time>
      </trkpt>
      <trkpt lat="47.11045" lon="-2.06934">
        <ele>29.4</ele>
        <time>2020-06-04T17:11:21Z</time>
      </trkpt>
      <trkpt lat="47.11047" lon="-2.06936">
        <ele>29.4</ele>
        <time>2020-06-04T17:11:48Z</time>
      </trkpt>
      <trkpt lat="47.11049" lon="-2.06937">
        <ele>29.4</ele>
        <time>2020-06-04T17:11:49Z</time>
      </trkpt>
      <trkpt lat="47.11052" lon="-2.06939">
        <ele>29.4</ele>
        <time>2020-06-04T17:11:50Z</time>
      </trkpt>
      <trkpt lat="47.11052" lon="-2.06944">
        <ele>29.4</ele>
        <time>2020-06-04T17:11:51Z</time>
      </trkpt>
      <trkpt lat="47.11054" lon="-2.06948">
        <ele>29.4</ele>
        <time>2020-06-04T17:11:52Z</time>
      </trkpt>
      <trkpt lat="47.11054" lon="-2.06952">
        <ele>29.4</ele>
        <time>2020-06-04T17:11:53Z</time>
      </trkpt>
      <trkpt lat="47.11055" lon="-2.06957">
        <ele>29.5</ele>
        <time>2020-06-04T17:11:54Z</time>
      </trkpt>
      <trkpt lat="47.11055" lon="-2.06961">
        <ele>29.4</ele>
        <time>2020-06-04T17:11:55Z</time>
      </trkpt>
      <trkpt lat="47.11056" lon="-2.06966">
        <ele>29.4</ele>
        <time>2020-06-04T17:11:56Z</time>
      </trkpt>
      <trkpt lat="47.11056" lon="-2.0697">
        <ele>29.4</ele>
        <time>2020-06-04T17:11:57Z</time>
      </trkpt>
      <trkpt lat="47.11057" lon="-2.06974">
        <ele>29.4</ele>
        <time>2020-06-04T17:11:58Z</time>
      </trkpt>
      <trkpt lat="47.11058" lon="-2.06979">
        <ele>29.4</ele>
        <time>2020-06-04T17:11:59Z</time>
      </trkpt>
      <trkpt lat="47.11059" lon="-2.0698">
        <ele>29.4</ele>
        <time>2020-06-04T17:12:00Z</time>
      </trkpt>
      <trkpt lat="47.11062" lon="-2.06984">
        <ele>29.4</ele>
        <time>2020-06-04T17:12:01Z</time>
      </trkpt>
      <trkpt lat="47.11063" lon="-2.06984">
        <ele>29.4</ele>
        <time>2020-06-04T17:12:02Z</time>
      </trkpt>
      <trkpt lat="47.11067" lon="-2.06986">
        <ele>29.4</ele>
        <time>2020-06-04T17:12:03Z</time>
      </trkpt>
      <trkpt lat="47.11072" lon="-2.06987">
        <ele>29.4</ele>
        <time>2020-06-04T17:12:04Z</time>
      </trkpt>
      <trkpt lat="47.11076" lon="-2.06988">
        <ele>29.4</ele>
        <time>2020-06-04T17:12:05Z</time>
      </trkpt>
      <trkpt lat="47.1108" lon="-2.0699">
        <ele>29.4</ele>
        <time>2020-06-04T17:12:06Z</time>
      </trkpt>
      <trkpt lat="47.11083" lon="-2.06992">
        <ele>29.4</ele>
        <time>2020-06-04T17:12:07Z</time>
      </trkpt>
      <trkpt lat="47.11086" lon="-2.06994">
        <ele>29.4</ele>
        <time>2020-06-04T17:12:08Z</time>
      </trkpt>
      <trkpt lat="47.1109" lon="-2.06995">
        <ele>29.4</ele>
        <time>2020-06-04T17:12:09Z</time>
      </trkpt>
      <trkpt lat="47.11095" lon="-2.06995">
        <ele>29.3</ele>
        <time>2020-06-04T17:12:10Z</time>
      </trkpt>
      <trkpt lat="47.111" lon="-2.06995">
        <ele>29.3</ele>
        <time>2020-06-04T17:12:11Z</time>
      </trkpt>
      <trkpt lat="47.11106" lon="-2.06995">
        <ele>29.3</ele>
        <time>2020-06-04T17:12:12Z</time>
      </trkpt>
      <trkpt lat="47.11112" lon="-2.06994">
        <ele>29.2</ele>
        <time>2020-06-04T17:12:13Z</time>
      </trkpt>
      <trkpt lat="47.11118" lon="-2.06995">
        <ele>29.1</ele>
        <time>2020-06-04T17:12:14Z</time>
      </trkpt>
      <trkpt lat="47.11123" lon="-2.06995">
        <ele>29.1</ele>
        <time>2020-06-04T17:12:15Z</time>
      </trkpt>
      <trkpt lat="47.11128" lon="-2.06995">
        <ele>29</ele>
        <time>2020-06-04T17:12:16Z</time>
      </trkpt>
      <trkpt lat="47.11134" lon="-2.06996">
        <ele>28.9</ele>
        <time>2020-06-04T17:12:17Z</time>
      </trkpt>
      <trkpt lat="47.11138" lon="-2.06996">
        <ele>28.8</ele>
        <time>2020-06-04T17:12:18Z</time>
      </trkpt>
      <trkpt lat="47.11143" lon="-2.06995">
        <ele>28.8</ele>
        <time>2020-06-04T17:12:19Z</time>
      </trkpt>
      <trkpt lat="47.11147" lon="-2.06995">
        <ele>28.7</ele>
        <time>2020-06-04T17:12:20Z</time>
      </trkpt>
      <trkpt lat="47.11153" lon="-2.06997">
        <ele>28.7</ele>
        <time>2020-06-04T17:12:21Z</time>
      </trkpt>
      <trkpt lat="47.11158" lon="-2.07">
        <ele>28.6</ele>
        <time>2020-06-04T17:12:22Z</time>
      </trkpt>
      <trkpt lat="47.11163" lon="-2.07006">
        <ele>28.6</ele>
        <time>2020-06-04T17:12:23Z</time>
      </trkpt>
      <trkpt lat="47.11167" lon="-2.07011">
        <ele>28.5</ele>
        <time>2020-06-04T17:12:24Z</time>
      </trkpt>
      <trkpt lat="47.1117" lon="-2.07017">
        <ele>28.5</ele>
        <time>2020-06-04T17:12:25Z</time>
      </trkpt>
      <trkpt lat="47.11171" lon="-2.07021">
        <ele>28.5</ele>
        <time>2020-06-04T17:12:26Z</time>
      </trkpt>
      <trkpt lat="47.11172" lon="-2.07026">
        <ele>28.4</ele>
        <time>2020-06-04T17:12:27Z</time>
      </trkpt>
      <trkpt lat="47.11173" lon="-2.07031">
        <ele>28.4</ele>
        <time>2020-06-04T17:12:28Z</time>
      </trkpt>
      <trkpt lat="47.11173" lon="-2.07037">
        <ele>28.4</ele>
        <time>2020-06-04T17:12:29Z</time>
      </trkpt>
      <trkpt lat="47.11173" lon="-2.07043">
        <ele>28.4</ele>
        <time>2020-06-04T17:12:30Z</time>
      </trkpt>
      <trkpt lat="47.11173" lon="-2.07049">
        <ele>28.5</ele>
        <time>2020-06-04T17:12:31Z</time>
      </trkpt>
      <trkpt lat="47.11173" lon="-2.07055">
        <ele>28.5</ele>
        <time>2020-06-04T17:12:32Z</time>
      </trkpt>
      <trkpt lat="47.11173" lon="-2.07061">
        <ele>28.5</ele>
        <time>2020-06-04T17:12:33Z</time>
      </trkpt>
      <trkpt lat="47.11173" lon="-2.07067">
        <ele>28.5</ele>
        <time>2020-06-04T17:12:34Z</time>
      </trkpt>
      <trkpt lat="47.11174" lon="-2.07073">
        <ele>28.5</ele>
        <time>2020-06-04T17:12:35Z</time>
      </trkpt>
      <trkpt lat="47.11174" lon="-2.07078">
        <ele>28.5</ele>
        <time>2020-06-04T17:12:36Z</time>
      </trkpt>
      <trkpt lat="47.11174" lon="-2.07083">
        <ele>28.5</ele>
        <time>2020-06-04T17:12:37Z</time>
      </trkpt>
      <trkpt lat="47.11174" lon="-2.07089">
        <ele>28.5</ele>
        <time>2020-06-04T17:12:38Z</time>
      </trkpt>
      <trkpt lat="47.11174" lon="-2.07094">
        <ele>28.4</ele>
        <time>2020-06-04T17:12:39Z</time>
      </trkpt>
      <trkpt lat="47.11174" lon="-2.071">
        <ele>28.4</ele>
        <time>2020-06-04T17:12:40Z</time>
      </trkpt>
      <trkpt lat="47.11174" lon="-2.07105">
        <ele>28.4</ele>
        <time>2020-06-04T17:12:41Z</time>
      </trkpt>
      <trkpt lat="47.11175" lon="-2.07111">
        <ele>28.3</ele>
        <time>2020-06-04T17:12:42Z</time>
      </trkpt>
      <trkpt lat="47.11175" lon="-2.07116">
        <ele>28.3</ele>
        <time>2020-06-04T17:12:43Z</time>
      </trkpt>
      <trkpt lat="47.11175" lon="-2.07122">
        <ele>28.3</ele>
        <time>2020-06-04T17:12:44Z</time>
      </trkpt>
      <trkpt lat="47.11176" lon="-2.07127">
        <ele>28.2</ele>
        <time>2020-06-04T17:12:45Z</time>
      </trkpt>
      <trkpt lat="47.11176" lon="-2.07133">
        <ele>28.2</ele>
        <time>2020-06-04T17:12:46Z</time>
      </trkpt>
      <trkpt lat="47.11176" lon="-2.07139">
        <ele>28.2</ele>
        <time>2020-06-04T17:12:47Z</time>
      </trkpt>
      <trkpt lat="47.11176" lon="-2.07144">
        <ele>28.1</ele>
        <time>2020-06-04T17:12:48Z</time>
      </trkpt>
      <trkpt lat="47.11176" lon="-2.07149">
        <ele>28.1</ele>
        <time>2020-06-04T17:12:49Z</time>
      </trkpt>
      <trkpt lat="47.11176" lon="-2.07155">
        <ele>28.1</ele>
        <time>2020-06-04T17:12:50Z</time>
      </trkpt>
      <trkpt lat="47.11176" lon="-2.0716">
        <ele>28</ele>
        <time>2020-06-04T17:12:51Z</time>
      </trkpt>
      <trkpt lat="47.11176" lon="-2.07166">
        <ele>28</ele>
        <time>2020-06-04T17:12:52Z</time>
      </trkpt>
      <trkpt lat="47.11176" lon="-2.07171">
        <ele>28</ele>
        <time>2020-06-04T17:12:53Z</time>
      </trkpt>
      <trkpt lat="47.11177" lon="-2.07177">
        <ele>27.9</ele>
        <time>2020-06-04T17:12:54Z</time>
      </trkpt>
      <trkpt lat="47.11177" lon="-2.07182">
        <ele>27.8</ele>
        <time>2020-06-04T17:12:55Z</time>
      </trkpt>
      <trkpt lat="47.11177" lon="-2.07188">
        <ele>27.8</ele>
        <time>2020-06-04T17:12:56Z</time>
      </trkpt>
      <trkpt lat="47.11178" lon="-2.07193">
        <ele>27.7</ele>
        <time>2020-06-04T17:12:57Z</time>
      </trkpt>
      <trkpt lat="47.11179" lon="-2.07198">
        <ele>27.6</ele>
        <time>2020-06-04T17:12:58Z</time>
      </trkpt>
      <trkpt lat="47.11182" lon="-2.072">
        <ele>27.4</ele>
        <time>2020-06-04T17:12:59Z</time>
      </trkpt>
      <trkpt lat="47.11185" lon="-2.07201">
        <ele>27.3</ele>
        <time>2020-06-04T17:13:00Z</time>
      </trkpt>
      <trkpt lat="47.11188" lon="-2.07202">
        <ele>27.2</ele>
        <time>2020-06-04T17:13:01Z</time>
      </trkpt>
      <trkpt lat="47.11191" lon="-2.07201">
        <ele>27.1</ele>
        <time>2020-06-04T17:13:02Z</time>
      </trkpt>
      <trkpt lat="47.11192" lon="-2.07201">
        <ele>27.1</ele>
        <time>2020-06-04T17:13:03Z</time>
      </trkpt>
      <trkpt lat="47.11196" lon="-2.07199">
        <ele>27.1</ele>
        <time>2020-06-04T17:13:04Z</time>
      </trkpt>
      <trkpt lat="47.11197" lon="-2.07199">
        <ele>27.1</ele>
        <time>2020-06-04T17:13:05Z</time>
      </trkpt>
      <trkpt lat="47.11199" lon="-2.07198">
        <ele>27</ele>
        <time>2020-06-04T17:13:06Z</time>
      </trkpt>
      <trkpt lat="47.112" lon="-2.07198">
        <ele>27</ele>
        <time>2020-06-04T17:13:07Z</time>
      </trkpt>
      <trkpt lat="47.112" lon="-2.07199">
        <ele>27</ele>
        <time>2020-06-04T17:13:08Z</time>
      </trkpt>
      <trkpt lat="47.112" lon="-2.072">
        <ele>27</ele>
        <time>2020-06-04T17:13:09Z</time>
      </trkpt>
      <trkpt lat="47.112" lon="-2.07201">
        <ele>27</ele>
        <time>2020-06-04T17:13:10Z</time>
      </trkpt>
      <trkpt lat="47.112" lon="-2.07202">
        <ele>27</ele>
        <time>2020-06-04T17:13:11Z</time>
      </trkpt>
      <trkpt lat="47.112" lon="-2.07203">
        <ele>27</ele>
        <time>2020-06-04T17:13:12Z</time>
      </trkpt>
      <trkpt lat="47.112" lon="-2.07203">
        <ele>27</ele>
        <time>2020-06-04T17:13:13Z</time>
      </trkpt>
      <trkpt lat="47.11199" lon="-2.07204">
        <ele>27</ele>
        <time>2020-06-04T17:13:14Z</time>
      </trkpt>
      <trkpt lat="47.11199" lon="-2.07204">
        <ele>27</ele>
        <time>2020-06-04T17:13:15Z</time>
      </trkpt>
      <trkpt lat="47.11198" lon="-2.07205">
        <ele>27</ele>
        <time>2020-06-04T17:13:16Z</time>
      </trkpt>
      <trkpt lat="47.11197" lon="-2.07205">
        <ele>26.9</ele>
        <time>2020-06-04T17:13:17Z</time>
      </trkpt>
      <trkpt lat="47.11197" lon="-2.07205">
        <ele>26.9</ele>
        <time>2020-06-04T17:13:18Z</time>
      </trkpt>
      <trkpt lat="47.11197" lon="-2.07206">
        <ele>26.9</ele>
        <time>2020-06-04T17:13:19Z</time>
      </trkpt>
      <trkpt lat="47.11197" lon="-2.07206">
        <ele>26.9</ele>
        <time>2020-06-04T17:13:20Z</time>
      </trkpt>
      <trkpt lat="47.11197" lon="-2.07206">
        <ele>26.9</ele>
        <time>2020-06-04T17:13:21Z</time>
      </trkpt>
      <trkpt lat="47.11198" lon="-2.07207">
        <ele>26.9</ele>
        <time>2020-06-04T17:13:22Z</time>
      </trkpt>
      <trkpt lat="47.11198" lon="-2.07208">
        <ele>26.9</ele>
        <time>2020-06-04T17:13:23Z</time>
      </trkpt>
      <trkpt lat="47.11198" lon="-2.07209">
        <ele>26.9</ele>
        <time>2020-06-04T17:13:24Z</time>
      </trkpt>
      <trkpt lat="47.11199" lon="-2.07209">
        <ele>26.9</ele>
        <time>2020-06-04T17:13:25Z</time>
      </trkpt>
      <trkpt lat="47.11199" lon="-2.0721">
        <ele>26.9</ele>
        <time>2020-06-04T17:13:26Z</time>
      </trkpt>
      <trkpt lat="47.112" lon="-2.07209">
        <ele>26.9</ele>
        <time>2020-06-04T17:13:27Z</time>
      </trkpt>
      <trkpt lat="47.112" lon="-2.0721">
        <ele>26.9</ele>
        <time>2020-06-04T17:13:28Z</time>
      </trkpt>
      <trkpt lat="47.112" lon="-2.07209">
        <ele>26.9</ele>
        <time>2020-06-04T17:13:29Z</time>
      </trkpt>
      <trkpt lat="47.11201" lon="-2.07208">
        <ele>26.9</ele>
        <time>2020-06-04T17:13:30Z</time>
      </trkpt>
      <trkpt lat="47.11202" lon="-2.07208">
        <ele>26.8</ele>
        <time>2020-06-04T17:13:31Z</time>
      </trkpt>
      <trkpt lat="47.11202" lon="-2.07208">
        <ele>26.8</ele>
        <time>2020-06-04T17:13:32Z</time>
      </trkpt>
      <trkpt lat="47.11202" lon="-2.07208">
        <ele>26.8</ele>
        <time>2020-06-04T17:13:33Z</time>
      </trkpt>
      <trkpt lat="47.11202" lon="-2.07208">
        <ele>26.8</ele>
        <time>2020-06-04T17:13:34Z</time>
      </trkpt>
      <trkpt lat="47.11201" lon="-2.07209">
        <ele>26.8</ele>
        <time>2020-06-04T17:13:35Z</time>
      </trkpt>
      <trkpt lat="47.11201" lon="-2.0721">
        <ele>26.8</ele>
        <time>2020-06-04T17:13:36Z</time>
      </trkpt>
      <trkpt lat="47.11201" lon="-2.0721">
        <ele>26.8</ele>
        <time>2020-06-04T17:13:37Z</time>
      </trkpt>
      <trkpt lat="47.11201" lon="-2.0721">
        <ele>26.8</ele>
        <time>2020-06-04T17:13:38Z</time>
      </trkpt>
      <trkpt lat="47.11201" lon="-2.0721">
        <ele>26.8</ele>
        <time>2020-06-04T17:13:39Z</time>
      </trkpt>
      <trkpt lat="47.11201" lon="-2.0721">
        <ele>26.8</ele>
        <time>2020-06-04T17:13:40Z</time>
      </trkpt>
      <trkpt lat="47.11201" lon="-2.07211">
        <ele>26.8</ele>
        <time>2020-06-04T17:13:41Z</time>
      </trkpt>
      <trkpt lat="47.11202" lon="-2.0721">
        <ele>26.8</ele>
        <time>2020-06-04T17:13:42Z</time>
      </trkpt>
      <trkpt lat="47.11202" lon="-2.0721">
        <ele>26.8</ele>
        <time>2020-06-04T17:13:43Z</time>
      </trkpt>
      <trkpt lat="47.11202" lon="-2.07211">
        <ele>26.8</ele>
        <time>2020-06-04T17:13:44Z</time>
      </trkpt>
      <trkpt lat="47.11202" lon="-2.07211">
        <ele>26.8</ele>
        <time>2020-06-04T17:13:45Z</time>
      </trkpt>
      <trkpt lat="47.11202" lon="-2.07211">
        <ele>26.8</ele>
        <time>2020-06-04T17:13:46Z</time>
      </trkpt>
      <trkpt lat="47.11202" lon="-2.07211">
        <ele>26.8</ele>
        <time>2020-06-04T17:13:47Z</time>
      </trkpt>
      <trkpt lat="47.11202" lon="-2.07211">
        <ele>26.8</ele>
        <time>2020-06-04T17:13:48Z</time>
      </trkpt>
      <trkpt lat="47.11202" lon="-2.07211">
        <ele>26.8</ele>
        <time>2020-06-04T17:13:49Z</time>
      </trkpt>
      <trkpt lat="47.11203" lon="-2.07211">
        <ele>26.8</ele>
        <time>2020-06-04T17:13:50Z</time>
      </trkpt>
      <trkpt lat="47.11203" lon="-2.07211">
        <ele>26.8</ele>
        <time>2020-06-04T17:13:51Z</time>
      </trkpt>
      <trkpt lat="47.11204" lon="-2.0721">
        <ele>26.8</ele>
        <time>2020-06-04T17:13:52Z</time>
      </trkpt>
      <trkpt lat="47.11204" lon="-2.07211">
        <ele>26.8</ele>
        <time>2020-06-04T17:13:53Z</time>
      </trkpt>
      <trkpt lat="47.11215" lon="-2.07205">
        <ele>26.6</ele>
        <time>2020-06-04T17:15:56Z</time>
      </trkpt>
      <trkpt lat="47.11217" lon="-2.07205">
        <ele>26.6</ele>
        <time>2020-06-04T17:15:57Z</time>
      </trkpt>
      <trkpt lat="47.11218" lon="-2.07206">
        <ele>26.6</ele>
        <time>2020-06-04T17:15:58Z</time>
      </trkpt>
      <trkpt lat="47.11219" lon="-2.07206">
        <ele>26.6</ele>
        <time>2020-06-04T17:15:59Z</time>
      </trkpt>
      <trkpt lat="47.1122" lon="-2.07207">
        <ele>26.5</ele>
        <time>2020-06-04T17:16:00Z</time>
      </trkpt>
      <trkpt lat="47.1122" lon="-2.07208">
        <ele>26.5</ele>
        <time>2020-06-04T17:16:01Z</time>
      </trkpt>
      <trkpt lat="47.1122" lon="-2.07208">
        <ele>26.5</ele>
        <time>2020-06-04T17:16:02Z</time>
      </trkpt>
      <trkpt lat="47.1122" lon="-2.07208">
        <ele>26.5</ele>
        <time>2020-06-04T17:16:03Z</time>
      </trkpt>
      <trkpt lat="47.1122" lon="-2.07208">
        <ele>26.5</ele>
        <time>2020-06-04T17:16:04Z</time>
      </trkpt>
      <trkpt lat="47.11221" lon="-2.07208">
        <ele>26.5</ele>
        <time>2020-06-04T17:16:05Z</time>
      </trkpt>
      <trkpt lat="47.11221" lon="-2.07208">
        <ele>26.5</ele>
        <time>2020-06-04T17:16:06Z</time>
      </trkpt>
      <trkpt lat="47.11221" lon="-2.07208">
        <ele>26.5</ele>
        <time>2020-06-04T17:16:07Z</time>
      </trkpt>
      <trkpt lat="47.11221" lon="-2.07208">
        <ele>26.5</ele>
        <time>2020-06-04T17:16:08Z</time>
      </trkpt>
      <trkpt lat="47.11222" lon="-2.07208">
        <ele>26.5</ele>
        <time>2020-06-04T17:16:09Z</time>
      </trkpt>
      <trkpt lat="47.11222" lon="-2.07208">
        <ele>26.5</ele>
        <time>2020-06-04T17:16:10Z</time>
      </trkpt>
      <trkpt lat="47.11222" lon="-2.07208">
        <ele>26.5</ele>
        <time>2020-06-04T17:16:25Z</time>
      </trkpt>
      <trkpt lat="47.11223" lon="-2.07208">
        <ele>26.5</ele>
        <time>2020-06-04T17:16:26Z</time>
      </trkpt>
      <trkpt lat="47.11223" lon="-2.07208">
        <ele>26.5</ele>
        <time>2020-06-04T17:16:27Z</time>
      </trkpt>
      <trkpt lat="47.11223" lon="-2.07208">
        <ele>26.5</ele>
        <time>2020-06-04T17:16:28Z</time>
      </trkpt>
      <trkpt lat="47.11223" lon="-2.07208">
        <ele>26.5</ele>
        <time>2020-06-04T17:16:29Z</time>
      </trkpt>
      <trkpt lat="47.11224" lon="-2.07208">
        <ele>26.5</ele>
        <time>2020-06-04T17:16:30Z</time>
      </trkpt>
      <trkpt lat="47.11224" lon="-2.07208">
        <ele>26.5</ele>
        <time>2020-06-04T17:16:40Z</time>
      </trkpt>
      <trkpt lat="47.11224" lon="-2.07208">
        <ele>26.5</ele>
        <time>2020-06-04T17:18:30Z</time>
      </trkpt>
      <trkpt lat="47.11224" lon="-2.07208">
        <ele>26.5</ele>
        <time>2020-06-04T17:18:31Z</time>
      </trkpt>
      <trkpt lat="47.11228" lon="-2.07207">
        <ele>26.4</ele>
        <time>2020-06-04T17:18:32Z</time>
      </trkpt>
      <trkpt lat="47.11229" lon="-2.07208">
        <ele>26.4</ele>
        <time>2020-06-04T17:18:33Z</time>
      </trkpt>
      <trkpt lat="47.11229" lon="-2.07211">
        <ele>26.4</ele>
        <time>2020-06-04T17:18:34Z</time>
      </trkpt>
      <trkpt lat="47.1123" lon="-2.07213">
        <ele>26.4</ele>
        <time>2020-06-04T17:18:35Z</time>
      </trkpt>
      <trkpt lat="47.1123" lon="-2.07216">
        <ele>26.4</ele>
        <time>2020-06-04T17:18:36Z</time>
      </trkpt>
      <trkpt lat="47.11231" lon="-2.07217">
        <ele>26.4</ele>
        <time>2020-06-04T17:18:37Z</time>
      </trkpt>
      <trkpt lat="47.11232" lon="-2.07217">
        <ele>26.3</ele>
        <time>2020-06-04T17:18:38Z</time>
      </trkpt>
      <trkpt lat="47.11234" lon="-2.07217">
        <ele>26.3</ele>
        <time>2020-06-04T17:18:39Z</time>
      </trkpt>
      <trkpt lat="47.11237" lon="-2.07216">
        <ele>26.3</ele>
        <time>2020-06-04T17:18:40Z</time>
      </trkpt>
      <trkpt lat="47.11238" lon="-2.07215">
        <ele>26.3</ele>
        <time>2020-06-04T17:18:41Z</time>
      </trkpt>
      <trkpt lat="47.1124" lon="-2.07215">
        <ele>26.3</ele>
        <time>2020-06-04T17:18:42Z</time>
      </trkpt>
      <trkpt lat="47.1124" lon="-2.07216">
        <ele>26.3</ele>
        <time>2020-06-04T17:18:43Z</time>
      </trkpt>
      <trkpt lat="47.11241" lon="-2.07215">
        <ele>26.3</ele>
        <time>2020-06-04T17:18:44Z</time>
      </trkpt>
      <trkpt lat="47.11241" lon="-2.07215">
        <ele>26.3</ele>
        <time>2020-06-04T17:18:45Z</time>
      </trkpt>
      <trkpt lat="47.11241" lon="-2.07213">
        <ele>26.3</ele>
        <time>2020-06-04T17:18:46Z</time>
      </trkpt>
      <trkpt lat="47.11242" lon="-2.07212">
        <ele>26.2</ele>
        <time>2020-06-04T17:18:47Z</time>
      </trkpt>
      <trkpt lat="47.11242" lon="-2.0721">
        <ele>26.2</ele>
        <time>2020-06-04T17:18:48Z</time>
      </trkpt>
      <trkpt lat="47.11242" lon="-2.07209">
        <ele>26.2</ele>
        <time>2020-06-04T17:18:49Z</time>
      </trkpt>
      <trkpt lat="47.11242" lon="-2.07212">
        <ele>26.2</ele>
        <time>2020-06-04T17:18:50Z</time>
      </trkpt>
      <trkpt lat="47.11241" lon="-2.07216">
        <ele>26.2</ele>
        <time>2020-06-04T17:18:51Z</time>
      </trkpt>
      <trkpt lat="47.1124" lon="-2.07219">
        <ele>26.2</ele>
        <time>2020-06-04T17:18:52Z</time>
      </trkpt>
      <trkpt lat="47.11238" lon="-2.07222">
        <ele>26.2</ele>
        <time>2020-06-04T17:18:53Z</time>
      </trkpt>
      <trkpt lat="47.11237" lon="-2.07225">
        <ele>26.2</ele>
        <time>2020-06-04T17:18:54Z</time>
      </trkpt>
      <trkpt lat="47.11236" lon="-2.07229">
        <ele>26.2</ele>
        <time>2020-06-04T17:18:55Z</time>
      </trkpt>
      <trkpt lat="47.11235" lon="-2.07232">
        <ele>26.2</ele>
        <time>2020-06-04T17:18:56Z</time>
      </trkpt>
      <trkpt lat="47.11234" lon="-2.07235">
        <ele>26.2</ele>
        <time>2020-06-04T17:18:57Z</time>
      </trkpt>
      <trkpt lat="47.11233" lon="-2.07238">
        <ele>26.2</ele>
        <time>2020-06-04T17:18:58Z</time>
      </trkpt>
      <trkpt lat="47.11232" lon="-2.07242">
        <ele>26.2</ele>
        <time>2020-06-04T17:18:59Z</time>
      </trkpt>
      <trkpt lat="47.11231" lon="-2.07245">
        <ele>26.2</ele>
        <time>2020-06-04T17:19:37Z</time>
      </trkpt>
      <trkpt lat="47.1123" lon="-2.07248">
        <ele>26.2</ele>
        <time>2020-06-04T17:19:38Z</time>
      </trkpt>
      <trkpt lat="47.1123" lon="-2.07239">
        <ele>26.2</ele>
        <time>2020-06-04T17:19:39Z</time>
      </trkpt>
      <trkpt lat="47.11231" lon="-2.07234">
        <ele>26.2</ele>
        <time>2020-06-04T17:19:40Z</time>
      </trkpt>
      <trkpt lat="47.11232" lon="-2.07233">
        <ele>26.2</ele>
        <time>2020-06-04T17:19:41Z</time>
      </trkpt>
      <trkpt lat="47.11232" lon="-2.07231">
        <ele>26.2</ele>
        <time>2020-06-04T17:19:42Z</time>
      </trkpt>
      <trkpt lat="47.11234" lon="-2.07229">
        <ele>26.2</ele>
        <time>2020-06-04T17:19:43Z</time>
      </trkpt>
      <trkpt lat="47.11236" lon="-2.07227">
        <ele>26.2</ele>
        <time>2020-06-04T17:19:44Z</time>
      </trkpt>
      <trkpt lat="47.11237" lon="-2.07226">
        <ele>26.2</ele>
        <time>2020-06-04T17:19:45Z</time>
      </trkpt>
      <trkpt lat="47.1124" lon="-2.07223">
        <ele>26.2</ele>
        <time>2020-06-04T17:19:46Z</time>
      </trkpt>
      <trkpt lat="47.11241" lon="-2.07221">
        <ele>26.2</ele>
        <time>2020-06-04T17:19:47Z</time>
      </trkpt>
      <trkpt lat="47.11242" lon="-2.07219">
        <ele>26.2</ele>
        <time>2020-06-04T17:19:48Z</time>
      </trkpt>
      <trkpt lat="47.11243" lon="-2.07217">
        <ele>26.2</ele>
        <time>2020-06-04T17:19:49Z</time>
      </trkpt>
      <trkpt lat="47.11243" lon="-2.07216">
        <ele>26.1</ele>
        <time>2020-06-04T17:19:50Z</time>
      </trkpt>
      <trkpt lat="47.11244" lon="-2.07215">
        <ele>26.1</ele>
        <time>2020-06-04T17:19:51Z</time>
      </trkpt>
      <trkpt lat="47.11244" lon="-2.07213">
        <ele>26.2</ele>
        <time>2020-06-04T17:19:52Z</time>
      </trkpt>
      <trkpt lat="47.11244" lon="-2.07213">
        <ele>26.2</ele>
        <time>2020-06-04T17:19:53Z</time>
      </trkpt>
      <trkpt lat="47.11244" lon="-2.07213">
        <ele>26.2</ele>
        <time>2020-06-04T17:19:54Z</time>
      </trkpt>
      <trkpt lat="47.11245" lon="-2.07213">
        <ele>26.2</ele>
        <time>2020-06-04T17:19:55Z</time>
      </trkpt>
      <trkpt lat="47.11245" lon="-2.07213">
        <ele>26.2</ele>
        <time>2020-06-04T17:19:56Z</time>
      </trkpt>
      <trkpt lat="47.11245" lon="-2.07213">
        <ele>26.2</ele>
        <time>2020-06-04T17:19:57Z</time>
      </trkpt>
      <trkpt lat="47.11245" lon="-2.07212">
        <ele>26.2</ele>
        <time>2020-06-04T17:19:58Z</time>
      </trkpt>
      <trkpt lat="47.11245" lon="-2.07212">
        <ele>26.2</ele>
        <time>2020-06-04T17:19:59Z</time>
      </trkpt>
      <trkpt lat="47.11246" lon="-2.07211">
        <ele>26.2</ele>
        <time>2020-06-04T17:20:00Z</time>
      </trkpt>
      <trkpt lat="47.11246" lon="-2.07208">
        <ele>26.2</ele>
        <time>2020-06-04T17:20:01Z</time>
      </trkpt>
      <trkpt lat="47.11246" lon="-2.07206">
        <ele>26.2</ele>
        <time>2020-06-04T17:20:02Z</time>
      </trkpt>
      <trkpt lat="47.11246" lon="-2.07205">
        <ele>26.2</ele>
        <time>2020-06-04T17:20:03Z</time>
      </trkpt>
      <trkpt lat="47.11245" lon="-2.07204">
        <ele>26.2</ele>
        <time>2020-06-04T17:20:04Z</time>
      </trkpt>
      <trkpt lat="47.11244" lon="-2.07203">
        <ele>26.2</ele>
        <time>2020-06-04T17:20:05Z</time>
      </trkpt>
      <trkpt lat="47.11244" lon="-2.07202">
        <ele>26.2</ele>
        <time>2020-06-04T17:20:06Z</time>
      </trkpt>
      <trkpt lat="47.11244" lon="-2.07201">
        <ele>26.2</ele>
        <time>2020-06-04T17:20:07Z</time>
      </trkpt>
      <trkpt lat="47.11243" lon="-2.07201">
        <ele>26.2</ele>
        <time>2020-06-04T17:20:08Z</time>
      </trkpt>
      <trkpt lat="47.11243" lon="-2.072">
        <ele>26.2</ele>
        <time>2020-06-04T17:20:09Z</time>
      </trkpt>
      <trkpt lat="47.11242" lon="-2.07199">
        <ele>26.2</ele>
        <time>2020-06-04T17:20:10Z</time>
      </trkpt>
      <trkpt lat="47.11241" lon="-2.07198">
        <ele>26.2</ele>
        <time>2020-06-04T17:20:11Z</time>
      </trkpt>
      <trkpt lat="47.1124" lon="-2.07198">
        <ele>26.3</ele>
        <time>2020-06-04T17:20:12Z</time>
      </trkpt>
      <trkpt lat="47.11237" lon="-2.07196">
        <ele>26.3</ele>
        <time>2020-06-04T17:20:13Z</time>
      </trkpt>
      <trkpt lat="47.11236" lon="-2.07196">
        <ele>26.3</ele>
        <time>2020-06-04T17:20:14Z</time>
      </trkpt>
      <trkpt lat="47.11232" lon="-2.07195">
        <ele>26.3</ele>
        <time>2020-06-04T17:20:15Z</time>
      </trkpt>
      <trkpt lat="47.11228" lon="-2.07196">
        <ele>26.4</ele>
        <time>2020-06-04T17:20:16Z</time>
      </trkpt>
      <trkpt lat="47.11227" lon="-2.07196">
        <ele>26.4</ele>
        <time>2020-06-04T17:20:17Z</time>
      </trkpt>
      <trkpt lat="47.11223" lon="-2.07196">
        <ele>26.5</ele>
        <time>2020-06-04T17:20:18Z</time>
      </trkpt>
      <trkpt lat="47.1122" lon="-2.07196">
        <ele>26.5</ele>
        <time>2020-06-04T17:20:19Z</time>
      </trkpt>
      <trkpt lat="47.11217" lon="-2.07196">
        <ele>26.6</ele>
        <time>2020-06-04T17:20:20Z</time>
      </trkpt>
      <trkpt lat="47.11211" lon="-2.07195">
        <ele>26.7</ele>
        <time>2020-06-04T17:20:21Z</time>
      </trkpt>
      <trkpt lat="47.11207" lon="-2.07195">
        <ele>26.8</ele>
        <time>2020-06-04T17:20:22Z</time>
      </trkpt>
      <trkpt lat="47.11204" lon="-2.07195">
        <ele>26.8</ele>
        <time>2020-06-04T17:20:23Z</time>
      </trkpt>
      <trkpt lat="47.11201" lon="-2.07196">
        <ele>26.9</ele>
        <time>2020-06-04T17:20:24Z</time>
      </trkpt>
      <trkpt lat="47.11198" lon="-2.07195">
        <ele>27</ele>
        <time>2020-06-04T17:20:25Z</time>
      </trkpt>
      <trkpt lat="47.11197" lon="-2.07194">
        <ele>27</ele>
        <time>2020-06-04T17:20:26Z</time>
      </trkpt>
      <trkpt lat="47.11196" lon="-2.07193">
        <ele>27</ele>
        <time>2020-06-04T17:20:27Z</time>
      </trkpt>
      <trkpt lat="47.11196" lon="-2.07193">
        <ele>27</ele>
        <time>2020-06-04T17:20:28Z</time>
      </trkpt>
      <trkpt lat="47.11195" lon="-2.07193">
        <ele>27</ele>
        <time>2020-06-04T17:20:29Z</time>
      </trkpt>
      <trkpt lat="47.11195" lon="-2.07193">
        <ele>27</ele>
        <time>2020-06-04T17:20:30Z</time>
      </trkpt>
      <trkpt lat="47.11194" lon="-2.07193">
        <ele>27</ele>
        <time>2020-06-04T17:20:31Z</time>
      </trkpt>
      <trkpt lat="47.11194" lon="-2.07193">
        <ele>27</ele>
        <time>2020-06-04T17:20:32Z</time>
      </trkpt>
      <trkpt lat="47.11194" lon="-2.07193">
        <ele>27</ele>
        <time>2020-06-04T17:20:33Z</time>
      </trkpt>
      <trkpt lat="47.11193" lon="-2.07193">
        <ele>27</ele>
        <time>2020-06-04T17:20:34Z</time>
      </trkpt>
      <trkpt lat="47.11193" lon="-2.07193">
        <ele>27.1</ele>
        <time>2020-06-04T17:20:35Z</time>
      </trkpt>
      <trkpt lat="47.11193" lon="-2.07193">
        <ele>27.1</ele>
        <time>2020-06-04T17:20:36Z</time>
      </trkpt>
      <trkpt lat="47.11192" lon="-2.07193">
        <ele>27.1</ele>
        <time>2020-06-04T17:20:37Z</time>
      </trkpt>
      <trkpt lat="47.11192" lon="-2.07193">
        <ele>27.1</ele>
        <time>2020-06-04T17:20:38Z</time>
      </trkpt>
      <trkpt lat="47.11192" lon="-2.07193">
        <ele>27.1</ele>
        <time>2020-06-04T17:20:39Z</time>
      </trkpt>
      <trkpt lat="47.11191" lon="-2.07193">
        <ele>27.1</ele>
        <time>2020-06-04T17:22:22Z</time>
      </trkpt>
      <trkpt lat="47.11191" lon="-2.07193">
        <ele>27.1</ele>
        <time>2020-06-04T17:22:23Z</time>
      </trkpt>
      <trkpt lat="47.11189" lon="-2.07194">
        <ele>27.1</ele>
        <time>2020-06-04T17:22:24Z</time>
      </trkpt>
      <trkpt lat="47.11188" lon="-2.07195">
        <ele>27.1</ele>
        <time>2020-06-04T17:22:25Z</time>
      </trkpt>
      <trkpt lat="47.11185" lon="-2.07197">
        <ele>27.2</ele>
        <time>2020-06-04T17:22:26Z</time>
      </trkpt>
      <trkpt lat="47.11184" lon="-2.07197">
        <ele>27.4</ele>
        <time>2020-06-04T17:22:27Z</time>
      </trkpt>
      <trkpt lat="47.11184" lon="-2.07197">
        <ele>27.4</ele>
        <time>2020-06-04T17:22:28Z</time>
      </trkpt>
      <trkpt lat="47.11183" lon="-2.07197">
        <ele>27.4</ele>
        <time>2020-06-04T17:22:29Z</time>
      </trkpt>
      <trkpt lat="47.11182" lon="-2.07197">
        <ele>27.4</ele>
        <time>2020-06-04T17:22:30Z</time>
      </trkpt>
      <trkpt lat="47.11182" lon="-2.07198">
        <ele>27.4</ele>
        <time>2020-06-04T17:22:31Z</time>
      </trkpt>
      <trkpt lat="47.11182" lon="-2.07197">
        <ele>27.4</ele>
        <time>2020-06-04T17:22:32Z</time>
      </trkpt>
      <trkpt lat="47.11181" lon="-2.07197">
        <ele>27.4</ele>
        <time>2020-06-04T17:22:33Z</time>
      </trkpt>
      <trkpt lat="47.11181" lon="-2.07197">
        <ele>27.4</ele>
        <time>2020-06-04T17:22:34Z</time>
      </trkpt>
      <trkpt lat="47.11181" lon="-2.07199">
        <ele>27.4</ele>
        <time>2020-06-04T17:22:35Z</time>
      </trkpt>
      <trkpt lat="47.1118" lon="-2.07199">
        <ele>27.5</ele>
        <time>2020-06-04T17:22:36Z</time>
      </trkpt>
      <trkpt lat="47.1118" lon="-2.07199">
        <ele>27.5</ele>
        <time>2020-06-04T17:22:37Z</time>
      </trkpt>
      <trkpt lat="47.1118" lon="-2.07198">
        <ele>27.5</ele>
        <time>2020-06-04T17:22:38Z</time>
      </trkpt>
      <trkpt lat="47.11179" lon="-2.07196">
        <ele>27.5</ele>
        <time>2020-06-04T17:22:39Z</time>
      </trkpt>
      <trkpt lat="47.11177" lon="-2.07191">
        <ele>27.7</ele>
        <time>2020-06-04T17:22:40Z</time>
      </trkpt>
      <trkpt lat="47.11176" lon="-2.07186">
        <ele>27.8</ele>
        <time>2020-06-04T17:22:41Z</time>
      </trkpt>
      <trkpt lat="47.11176" lon="-2.0718">
        <ele>27.9</ele>
        <time>2020-06-04T17:22:42Z</time>
      </trkpt>
      <trkpt lat="47.11175" lon="-2.07174">
        <ele>27.9</ele>
        <time>2020-06-04T17:22:43Z</time>
      </trkpt>
      <trkpt lat="47.11174" lon="-2.07168">
        <ele>28</ele>
        <time>2020-06-04T17:22:44Z</time>
      </trkpt>
      <trkpt lat="47.11174" lon="-2.0716">
        <ele>28.1</ele>
        <time>2020-06-04T17:22:45Z</time>
      </trkpt>
      <trkpt lat="47.11173" lon="-2.07154">
        <ele>28.1</ele>
        <time>2020-06-04T17:22:46Z</time>
      </trkpt>
      <trkpt lat="47.11173" lon="-2.07149">
        <ele>28.1</ele>
        <time>2020-06-04T17:22:47Z</time>
      </trkpt>
      <trkpt lat="47.11172" lon="-2.07142">
        <ele>28.2</ele>
        <time>2020-06-04T17:22:48Z</time>
      </trkpt>
      <trkpt lat="47.11172" lon="-2.07136">
        <ele>28.2</ele>
        <time>2020-06-04T17:22:49Z</time>
      </trkpt>
      <trkpt lat="47.11172" lon="-2.0713">
        <ele>28.2</ele>
        <time>2020-06-04T17:22:50Z</time>
      </trkpt>
      <trkpt lat="47.11171" lon="-2.07123">
        <ele>28.3</ele>
        <time>2020-06-04T17:22:51Z</time>
      </trkpt>
      <trkpt lat="47.11171" lon="-2.07117">
        <ele>28.3</ele>
        <time>2020-06-04T17:22:52Z</time>
      </trkpt>
      <trkpt lat="47.11171" lon="-2.07111">
        <ele>28.3</ele>
        <time>2020-06-04T17:22:53Z</time>
      </trkpt>
      <trkpt lat="47.11171" lon="-2.07105">
        <ele>28.4</ele>
        <time>2020-06-04T17:22:54Z</time>
      </trkpt>
      <trkpt lat="47.11172" lon="-2.07098">
        <ele>28.4</ele>
        <time>2020-06-04T17:22:55Z</time>
      </trkpt>
      <trkpt lat="47.11171" lon="-2.07092">
        <ele>28.4</ele>
        <time>2020-06-04T17:22:56Z</time>
      </trkpt>
      <trkpt lat="47.11171" lon="-2.07086">
        <ele>28.5</ele>
        <time>2020-06-04T17:22:57Z</time>
      </trkpt>
      <trkpt lat="47.11171" lon="-2.07079">
        <ele>28.5</ele>
        <time>2020-06-04T17:22:58Z</time>
      </trkpt>
      <trkpt lat="47.11171" lon="-2.07074">
        <ele>28.5</ele>
        <time>2020-06-04T17:22:59Z</time>
      </trkpt>
      <trkpt lat="47.11171" lon="-2.07068">
        <ele>28.5</ele>
        <time>2020-06-04T17:23:00Z</time>
      </trkpt>
      <trkpt lat="47.11171" lon="-2.07062">
        <ele>28.5</ele>
        <time>2020-06-04T17:23:01Z</time>
      </trkpt>
      <trkpt lat="47.11171" lon="-2.07056">
        <ele>28.5</ele>
        <time>2020-06-04T17:23:02Z</time>
      </trkpt>
      <trkpt lat="47.11171" lon="-2.07051">
        <ele>28.5</ele>
        <time>2020-06-04T17:23:03Z</time>
      </trkpt>
      <trkpt lat="47.11171" lon="-2.07045">
        <ele>28.4</ele>
        <time>2020-06-04T17:23:04Z</time>
      </trkpt>
      <trkpt lat="47.11172" lon="-2.0704">
        <ele>28.4</ele>
        <time>2020-06-04T17:23:05Z</time>
      </trkpt>
      <trkpt lat="47.11172" lon="-2.07035">
        <ele>28.4</ele>
        <time>2020-06-04T17:23:06Z</time>
      </trkpt>
      <trkpt lat="47.11173" lon="-2.0703">
        <ele>28.4</ele>
        <time>2020-06-04T17:23:07Z</time>
      </trkpt>
      <trkpt lat="47.11173" lon="-2.07023">
        <ele>28.5</ele>
        <time>2020-06-04T17:23:08Z</time>
      </trkpt>
      <trkpt lat="47.11173" lon="-2.07017">
        <ele>28.5</ele>
        <time>2020-06-04T17:23:09Z</time>
      </trkpt>
      <trkpt lat="47.11173" lon="-2.07012">
        <ele>28.5</ele>
        <time>2020-06-04T17:23:10Z</time>
      </trkpt>
      <trkpt lat="47.11171" lon="-2.07005">
        <ele>28.5</ele>
        <time>2020-06-04T17:23:11Z</time>
      </trkpt>
      <trkpt lat="47.11171" lon="-2.06999">
        <ele>28.5</ele>
        <time>2020-06-04T17:23:12Z</time>
      </trkpt>
      <trkpt lat="47.11171" lon="-2.06993">
        <ele>28.6</ele>
        <time>2020-06-04T17:23:13Z</time>
      </trkpt>
      <trkpt lat="47.11171" lon="-2.06986">
        <ele>28.6</ele>
        <time>2020-06-04T17:23:14Z</time>
      </trkpt>
      <trkpt lat="47.11171" lon="-2.06979">
        <ele>28.6</ele>
        <time>2020-06-04T17:23:15Z</time>
      </trkpt>
      <trkpt lat="47.11171" lon="-2.06973">
        <ele>28.7</ele>
        <time>2020-06-04T17:23:16Z</time>
      </trkpt>
      <trkpt lat="47.11171" lon="-2.06967">
        <ele>28.7</ele>
        <time>2020-06-04T17:23:17Z</time>
      </trkpt>
      <trkpt lat="47.1117" lon="-2.0696">
        <ele>28.7</ele>
        <time>2020-06-04T17:23:18Z</time>
      </trkpt>
      <trkpt lat="47.11171" lon="-2.06954">
        <ele>28.8</ele>
        <time>2020-06-04T17:23:19Z</time>
      </trkpt>
      <trkpt lat="47.1117" lon="-2.06948">
        <ele>28.8</ele>
        <time>2020-06-04T17:23:20Z</time>
      </trkpt>
      <trkpt lat="47.1117" lon="-2.06941">
        <ele>28.9</ele>
        <time>2020-06-04T17:23:21Z</time>
      </trkpt>
      <trkpt lat="47.1117" lon="-2.06935">
        <ele>28.9</ele>
        <time>2020-06-04T17:23:22Z</time>
      </trkpt>
      <trkpt lat="47.11171" lon="-2.06928">
        <ele>28.9</ele>
        <time>2020-06-04T17:23:23Z</time>
      </trkpt>
      <trkpt lat="47.11171" lon="-2.06921">
        <ele>28.9</ele>
        <time>2020-06-04T17:23:24Z</time>
      </trkpt>
      <trkpt lat="47.11171" lon="-2.06915">
        <ele>28.9</ele>
        <time>2020-06-04T17:23:25Z</time>
      </trkpt>
      <trkpt lat="47.1117" lon="-2.06909">
        <ele>29</ele>
        <time>2020-06-04T17:23:26Z</time>
      </trkpt>
      <trkpt lat="47.11171" lon="-2.06903">
        <ele>29</ele>
        <time>2020-06-04T17:23:27Z</time>
      </trkpt>
      <trkpt lat="47.11171" lon="-2.06898">
        <ele>29</ele>
        <time>2020-06-04T17:23:28Z</time>
      </trkpt>
      <trkpt lat="47.11171" lon="-2.06891">
        <ele>29.1</ele>
        <time>2020-06-04T17:23:29Z</time>
      </trkpt>
      <trkpt lat="47.11171" lon="-2.06885">
        <ele>29.2</ele>
        <time>2020-06-04T17:23:30Z</time>
      </trkpt>
      <trkpt lat="47.11171" lon="-2.06878">
        <ele>29.2</ele>
        <time>2020-06-04T17:23:31Z</time>
      </trkpt>
      <trkpt lat="47.1117" lon="-2.06873">
        <ele>29.3</ele>
        <time>2020-06-04T17:23:32Z</time>
      </trkpt>
      <trkpt lat="47.1117" lon="-2.06867">
        <ele>29.3</ele>
        <time>2020-06-04T17:23:33Z</time>
      </trkpt>
      <trkpt lat="47.1117" lon="-2.06861">
        <ele>29.4</ele>
        <time>2020-06-04T17:23:34Z</time>
      </trkpt>
      <trkpt lat="47.11171" lon="-2.06855">
        <ele>29.4</ele>
        <time>2020-06-04T17:23:35Z</time>
      </trkpt>
      <trkpt lat="47.11171" lon="-2.06849">
        <ele>29.5</ele>
        <time>2020-06-04T17:23:36Z</time>
      </trkpt>
      <trkpt lat="47.11171" lon="-2.06843">
        <ele>29.5</ele>
        <time>2020-06-04T17:23:37Z</time>
      </trkpt>
      <trkpt lat="47.11171" lon="-2.06837">
        <ele>29.5</ele>
        <time>2020-06-04T17:23:38Z</time>
      </trkpt>
      <trkpt lat="47.11171" lon="-2.06832">
        <ele>29.6</ele>
        <time>2020-06-04T17:23:39Z</time>
      </trkpt>
      <trkpt lat="47.11171" lon="-2.06826">
        <ele>29.6</ele>
        <time>2020-06-04T17:23:40Z</time>
      </trkpt>
      <trkpt lat="47.1117" lon="-2.0682">
        <ele>29.7</ele>
        <time>2020-06-04T17:23:41Z</time>
      </trkpt>
      <trkpt lat="47.11169" lon="-2.06814">
        <ele>29.7</ele>
        <time>2020-06-04T17:23:42Z</time>
      </trkpt>
      <trkpt lat="47.11169" lon="-2.06808">
        <ele>29.8</ele>
        <time>2020-06-04T17:23:43Z</time>
      </trkpt>
      <trkpt lat="47.11168" lon="-2.06802">
        <ele>29.8</ele>
        <time>2020-06-04T17:23:44Z</time>
      </trkpt>
      <trkpt lat="47.11167" lon="-2.06796">
        <ele>29.9</ele>
        <time>2020-06-04T17:23:45Z</time>
      </trkpt>
      <trkpt lat="47.11167" lon="-2.06789">
        <ele>29.9</ele>
        <time>2020-06-04T17:23:46Z</time>
      </trkpt>
      <trkpt lat="47.11165" lon="-2.06785">
        <ele>30</ele>
        <time>2020-06-04T17:23:47Z</time>
      </trkpt>
      <trkpt lat="47.11164" lon="-2.06781">
        <ele>30</ele>
        <time>2020-06-04T17:23:48Z</time>
      </trkpt>
      <trkpt lat="47.11163" lon="-2.06775">
        <ele>30</ele>
        <time>2020-06-04T17:23:49Z</time>
      </trkpt>
      <trkpt lat="47.11161" lon="-2.06771">
        <ele>30</ele>
        <time>2020-06-04T17:23:50Z</time>
      </trkpt>
      <trkpt lat="47.11161" lon="-2.06765">
        <ele>29.9</ele>
        <time>2020-06-04T17:23:51Z</time>
      </trkpt>
      <trkpt lat="47.11161" lon="-2.06759">
        <ele>29.9</ele>
        <time>2020-06-04T17:23:52Z</time>
      </trkpt>
      <trkpt lat="47.11159" lon="-2.06754">
        <ele>29.9</ele>
        <time>2020-06-04T17:23:53Z</time>
      </trkpt>
      <trkpt lat="47.11158" lon="-2.06747">
        <ele>29.8</ele>
        <time>2020-06-04T17:23:54Z</time>
      </trkpt>
      <trkpt lat="47.11157" lon="-2.06742">
        <ele>29.8</ele>
        <time>2020-06-04T17:23:55Z</time>
      </trkpt>
      <trkpt lat="47.11156" lon="-2.06736">
        <ele>29.7</ele>
        <time>2020-06-04T17:23:56Z</time>
      </trkpt>
      <trkpt lat="47.11156" lon="-2.0673">
        <ele>29.7</ele>
        <time>2020-06-04T17:23:57Z</time>
      </trkpt>
      <trkpt lat="47.11157" lon="-2.06724">
        <ele>29.6</ele>
        <time>2020-06-04T17:23:58Z</time>
      </trkpt>
      <trkpt lat="47.11157" lon="-2.06718">
        <ele>29.6</ele>
        <time>2020-06-04T17:23:59Z</time>
      </trkpt>
      <trkpt lat="47.11157" lon="-2.0671">
        <ele>29.6</ele>
        <time>2020-06-04T17:24:00Z</time>
      </trkpt>
      <trkpt lat="47.11157" lon="-2.06703">
        <ele>29.5</ele>
        <time>2020-06-04T17:24:01Z</time>
      </trkpt>
      <trkpt lat="47.11157" lon="-2.06695">
        <ele>29.5</ele>
        <time>2020-06-04T17:24:02Z</time>
      </trkpt>
      <trkpt lat="47.11156" lon="-2.06688">
        <ele>29.5</ele>
        <time>2020-06-04T17:24:03Z</time>
      </trkpt>
      <trkpt lat="47.11155" lon="-2.06681">
        <ele>29.4</ele>
        <time>2020-06-04T17:24:04Z</time>
      </trkpt>
      <trkpt lat="47.11155" lon="-2.06675">
        <ele>29.4</ele>
        <time>2020-06-04T17:24:05Z</time>
      </trkpt>
      <trkpt lat="47.11154" lon="-2.06668">
        <ele>29.3</ele>
        <time>2020-06-04T17:24:06Z</time>
      </trkpt>
      <trkpt lat="47.11154" lon="-2.06662">
        <ele>29.2</ele>
        <time>2020-06-04T17:24:07Z</time>
      </trkpt>
      <trkpt lat="47.11154" lon="-2.06655">
        <ele>29.1</ele>
        <time>2020-06-04T17:24:08Z</time>
      </trkpt>
      <trkpt lat="47.11155" lon="-2.06648">
        <ele>29</ele>
        <time>2020-06-04T17:24:09Z</time>
      </trkpt>
      <trkpt lat="47.11155" lon="-2.0664">
        <ele>28.8</ele>
        <time>2020-06-04T17:24:10Z</time>
      </trkpt>
      <trkpt lat="47.11155" lon="-2.06632">
        <ele>28.7</ele>
        <time>2020-06-04T17:24:11Z</time>
      </trkpt>
      <trkpt lat="47.11156" lon="-2.06625">
        <ele>28.5</ele>
        <time>2020-06-04T17:24:12Z</time>
      </trkpt>
      <trkpt lat="47.11156" lon="-2.06617">
        <ele>28.4</ele>
        <time>2020-06-04T17:24:13Z</time>
      </trkpt>
      <trkpt lat="47.11155" lon="-2.06611">
        <ele>28.3</ele>
        <time>2020-06-04T17:24:14Z</time>
      </trkpt>
      <trkpt lat="47.11154" lon="-2.06606">
        <ele>28.3</ele>
        <time>2020-06-04T17:24:15Z</time>
      </trkpt>
      <trkpt lat="47.11152" lon="-2.066">
        <ele>28.3</ele>
        <time>2020-06-04T17:24:16Z</time>
      </trkpt>
      <trkpt lat="47.11149" lon="-2.06594">
        <ele>28.3</ele>
        <time>2020-06-04T17:24:17Z</time>
      </trkpt>
      <trkpt lat="47.11149" lon="-2.06589">
        <ele>27.9</ele>
        <time>2020-06-04T17:24:18Z</time>
      </trkpt>
      <trkpt lat="47.11152" lon="-2.06584">
        <ele>27.8</ele>
        <time>2020-06-04T17:24:19Z</time>
      </trkpt>
      <trkpt lat="47.11156" lon="-2.06581">
        <ele>27.8</ele>
        <time>2020-06-04T17:24:20Z</time>
      </trkpt>
      <trkpt lat="47.1116" lon="-2.06579">
        <ele>27.8</ele>
        <time>2020-06-04T17:24:21Z</time>
      </trkpt>
      <trkpt lat="47.11165" lon="-2.06578">
        <ele>27.7</ele>
        <time>2020-06-04T17:24:22Z</time>
      </trkpt>
      <trkpt lat="47.11171" lon="-2.06579">
        <ele>27.7</ele>
        <time>2020-06-04T17:24:23Z</time>
      </trkpt>
      <trkpt lat="47.11175" lon="-2.06579">
        <ele>27.6</ele>
        <time>2020-06-04T17:24:24Z</time>
      </trkpt>
      <trkpt lat="47.1118" lon="-2.06579">
        <ele>27.6</ele>
        <time>2020-06-04T17:24:25Z</time>
      </trkpt>
      <trkpt lat="47.11185" lon="-2.06577">
        <ele>27.6</ele>
        <time>2020-06-04T17:24:26Z</time>
      </trkpt>
      <trkpt lat="47.1119" lon="-2.06574">
        <ele>27.6</ele>
        <time>2020-06-04T17:24:27Z</time>
      </trkpt>
      <trkpt lat="47.11195" lon="-2.0657">
        <ele>27.6</ele>
        <time>2020-06-04T17:24:28Z</time>
      </trkpt>
      <trkpt lat="47.11201" lon="-2.06567">
        <ele>27.6</ele>
        <time>2020-06-04T17:24:29Z</time>
      </trkpt>
      <trkpt lat="47.11205" lon="-2.06564">
        <ele>27.6</ele>
        <time>2020-06-04T17:24:30Z</time>
      </trkpt>
      <trkpt lat="47.1121" lon="-2.0656">
        <ele>27.6</ele>
        <time>2020-06-04T17:24:31Z</time>
      </trkpt>
      <trkpt lat="47.11215" lon="-2.06556">
        <ele>27.6</ele>
        <time>2020-06-04T17:24:32Z</time>
      </trkpt>
      <trkpt lat="47.11219" lon="-2.06553">
        <ele>27.6</ele>
        <time>2020-06-04T17:24:33Z</time>
      </trkpt>
      <trkpt lat="47.11223" lon="-2.0655">
        <ele>27.6</ele>
        <time>2020-06-04T17:24:34Z</time>
      </trkpt>
      <trkpt lat="47.11228" lon="-2.06546">
        <ele>27.5</ele>
        <time>2020-06-04T17:24:35Z</time>
      </trkpt>
      <trkpt lat="47.11231" lon="-2.06542">
        <ele>27.5</ele>
        <time>2020-06-04T17:24:36Z</time>
      </trkpt>
      <trkpt lat="47.11235" lon="-2.06537">
        <ele>27.4</ele>
        <time>2020-06-04T17:24:37Z</time>
      </trkpt>
      <trkpt lat="47.11237" lon="-2.06531">
        <ele>27.4</ele>
        <time>2020-06-04T17:24:38Z</time>
      </trkpt>
      <trkpt lat="47.11238" lon="-2.06525">
        <ele>27.3</ele>
        <time>2020-06-04T17:24:39Z</time>
      </trkpt>
      <trkpt lat="47.11238" lon="-2.06519">
        <ele>27.1</ele>
        <time>2020-06-04T17:24:40Z</time>
      </trkpt>
      <trkpt lat="47.11236" lon="-2.06513">
        <ele>26.9</ele>
        <time>2020-06-04T17:24:41Z</time>
      </trkpt>
      <trkpt lat="47.11233" lon="-2.06506">
        <ele>26.8</ele>
        <time>2020-06-04T17:24:42Z</time>
      </trkpt>
      <trkpt lat="47.1123" lon="-2.06499">
        <ele>26.6</ele>
        <time>2020-06-04T17:24:43Z</time>
      </trkpt>
      <trkpt lat="47.11226" lon="-2.06494">
        <ele>26.5</ele>
        <time>2020-06-04T17:24:44Z</time>
      </trkpt>
      <trkpt lat="47.11222" lon="-2.06488">
        <ele>26.4</ele>
        <time>2020-06-04T17:24:45Z</time>
      </trkpt>
      <trkpt lat="47.11219" lon="-2.06481">
        <ele>26.3</ele>
        <time>2020-06-04T17:24:46Z</time>
      </trkpt>
      <trkpt lat="47.11217" lon="-2.06474">
        <ele>26.3</ele>
        <time>2020-06-04T17:24:47Z</time>
      </trkpt>
      <trkpt lat="47.11217" lon="-2.06467">
        <ele>26.3</ele>
        <time>2020-06-04T17:24:48Z</time>
      </trkpt>
      <trkpt lat="47.11218" lon="-2.0646">
        <ele>26.2</ele>
        <time>2020-06-04T17:24:49Z</time>
      </trkpt>
      <trkpt lat="47.1122" lon="-2.06453">
        <ele>26.1</ele>
        <time>2020-06-04T17:24:50Z</time>
      </trkpt>
      <trkpt lat="47.11221" lon="-2.06447">
        <ele>26</ele>
        <time>2020-06-04T17:24:51Z</time>
      </trkpt>
      <trkpt lat="47.11222" lon="-2.0644">
        <ele>25.9</ele>
        <time>2020-06-04T17:24:52Z</time>
      </trkpt>
      <trkpt lat="47.11224" lon="-2.06433">
        <ele>25.8</ele>
        <time>2020-06-04T17:24:53Z</time>
      </trkpt>
      <trkpt lat="47.11225" lon="-2.06427">
        <ele>25.7</ele>
        <time>2020-06-04T17:24:54Z</time>
      </trkpt>
      <trkpt lat="47.11228" lon="-2.0642">
        <ele>25.6</ele>
        <time>2020-06-04T17:24:55Z</time>
      </trkpt>
      <trkpt lat="47.11229" lon="-2.06413">
        <ele>25.5</ele>
        <time>2020-06-04T17:24:56Z</time>
      </trkpt>
      <trkpt lat="47.1123" lon="-2.06406">
        <ele>25.4</ele>
        <time>2020-06-04T17:24:57Z</time>
      </trkpt>
      <trkpt lat="47.11233" lon="-2.06398">
        <ele>25.2</ele>
        <time>2020-06-04T17:24:58Z</time>
      </trkpt>
      <trkpt lat="47.11235" lon="-2.0639">
        <ele>25.1</ele>
        <time>2020-06-04T17:24:59Z</time>
      </trkpt>
      <trkpt lat="47.11237" lon="-2.06383">
        <ele>25</ele>
        <time>2020-06-04T17:25:00Z</time>
      </trkpt>
      <trkpt lat="47.11238" lon="-2.06375">
        <ele>24.9</ele>
        <time>2020-06-04T17:25:01Z</time>
      </trkpt>
      <trkpt lat="47.11238" lon="-2.06366">
        <ele>24.8</ele>
        <time>2020-06-04T17:25:02Z</time>
      </trkpt>
      <trkpt lat="47.11238" lon="-2.06356">
        <ele>24.8</ele>
        <time>2020-06-04T17:25:03Z</time>
      </trkpt>
      <trkpt lat="47.11238" lon="-2.06346">
        <ele>24.7</ele>
        <time>2020-06-04T17:25:04Z</time>
      </trkpt>
      <trkpt lat="47.11237" lon="-2.06335">
        <ele>24.7</ele>
        <time>2020-06-04T17:25:05Z</time>
      </trkpt>
      <trkpt lat="47.11237" lon="-2.06325">
        <ele>24.6</ele>
        <time>2020-06-04T17:25:06Z</time>
      </trkpt>
      <trkpt lat="47.11235" lon="-2.06316">
        <ele>24.6</ele>
        <time>2020-06-04T17:25:07Z</time>
      </trkpt>
      <trkpt lat="47.11234" lon="-2.06306">
        <ele>24.6</ele>
        <time>2020-06-04T17:25:08Z</time>
      </trkpt>
      <trkpt lat="47.11232" lon="-2.06297">
        <ele>24.6</ele>
        <time>2020-06-04T17:25:09Z</time>
      </trkpt>
      <trkpt lat="47.11229" lon="-2.06288">
        <ele>24.6</ele>
        <time>2020-06-04T17:25:10Z</time>
      </trkpt>
      <trkpt lat="47.11226" lon="-2.06279">
        <ele>24.6</ele>
        <time>2020-06-04T17:25:11Z</time>
      </trkpt>
      <trkpt lat="47.11222" lon="-2.06272">
        <ele>24.6</ele>
        <time>2020-06-04T17:25:12Z</time>
      </trkpt>
      <trkpt lat="47.11217" lon="-2.06266">
        <ele>24.7</ele>
        <time>2020-06-04T17:25:13Z</time>
      </trkpt>
      <trkpt lat="47.11212" lon="-2.06261">
        <ele>24.7</ele>
        <time>2020-06-04T17:25:14Z</time>
      </trkpt>
      <trkpt lat="47.11207" lon="-2.06256">
        <ele>24.7</ele>
        <time>2020-06-04T17:25:15Z</time>
      </trkpt>
      <trkpt lat="47.11202" lon="-2.06251">
        <ele>24.7</ele>
        <time>2020-06-04T17:25:16Z</time>
      </trkpt>
      <trkpt lat="47.11196" lon="-2.06248">
        <ele>24.7</ele>
        <time>2020-06-04T17:25:17Z</time>
      </trkpt>
      <trkpt lat="47.11191" lon="-2.06244">
        <ele>24.7</ele>
        <time>2020-06-04T17:25:18Z</time>
      </trkpt>
      <trkpt lat="47.11185" lon="-2.06241">
        <ele>24.7</ele>
        <time>2020-06-04T17:25:19Z</time>
      </trkpt>
      <trkpt lat="47.1118" lon="-2.06238">
        <ele>24.7</ele>
        <time>2020-06-04T17:25:20Z</time>
      </trkpt>
      <trkpt lat="47.11174" lon="-2.06236">
        <ele>24.7</ele>
        <time>2020-06-04T17:25:21Z</time>
      </trkpt>
      <trkpt lat="47.11168" lon="-2.06237">
        <ele>24.7</ele>
        <time>2020-06-04T17:25:22Z</time>
      </trkpt>
      <trkpt lat="47.11161" lon="-2.06237">
        <ele>24.7</ele>
        <time>2020-06-04T17:25:23Z</time>
      </trkpt>
      <trkpt lat="47.11155" lon="-2.06237">
        <ele>24.8</ele>
        <time>2020-06-04T17:25:24Z</time>
      </trkpt>
      <trkpt lat="47.11148" lon="-2.06235">
        <ele>24.8</ele>
        <time>2020-06-04T17:25:25Z</time>
      </trkpt>
      <trkpt lat="47.11142" lon="-2.06233">
        <ele>24.8</ele>
        <time>2020-06-04T17:25:26Z</time>
      </trkpt>
      <trkpt lat="47.11137" lon="-2.06231">
        <ele>24.9</ele>
        <time>2020-06-04T17:25:27Z</time>
      </trkpt>
      <trkpt lat="47.11131" lon="-2.06229">
        <ele>24.9</ele>
        <time>2020-06-04T17:25:28Z</time>
      </trkpt>
      <trkpt lat="47.11126" lon="-2.06227">
        <ele>24.9</ele>
        <time>2020-06-04T17:25:29Z</time>
      </trkpt>
      <trkpt lat="47.1112" lon="-2.06226">
        <ele>25</ele>
        <time>2020-06-04T17:25:30Z</time>
      </trkpt>
      <trkpt lat="47.11115" lon="-2.06224">
        <ele>25</ele>
        <time>2020-06-04T17:25:31Z</time>
      </trkpt>
      <trkpt lat="47.11109" lon="-2.06222">
        <ele>25</ele>
        <time>2020-06-04T17:25:32Z</time>
      </trkpt>
      <trkpt lat="47.11104" lon="-2.06221">
        <ele>25</ele>
        <time>2020-06-04T17:25:33Z</time>
      </trkpt>
      <trkpt lat="47.11099" lon="-2.0622">
        <ele>25</ele>
        <time>2020-06-04T17:25:34Z</time>
      </trkpt>
      <trkpt lat="47.11093" lon="-2.06219">
        <ele>25.1</ele>
        <time>2020-06-04T17:25:35Z</time>
      </trkpt>
      <trkpt lat="47.11088" lon="-2.06218">
        <ele>25.1</ele>
        <time>2020-06-04T17:25:36Z</time>
      </trkpt>
      <trkpt lat="47.11083" lon="-2.06216">
        <ele>25.1</ele>
        <time>2020-06-04T17:25:37Z</time>
      </trkpt>
      <trkpt lat="47.11078" lon="-2.06217">
        <ele>25.1</ele>
        <time>2020-06-04T17:25:38Z</time>
      </trkpt>
      <trkpt lat="47.11073" lon="-2.06218">
        <ele>25.1</ele>
        <time>2020-06-04T17:25:39Z</time>
      </trkpt>
      <trkpt lat="47.11068" lon="-2.0622">
        <ele>25.1</ele>
        <time>2020-06-04T17:25:40Z</time>
      </trkpt>
      <trkpt lat="47.11063" lon="-2.06222">
        <ele>25.1</ele>
        <time>2020-06-04T17:25:41Z</time>
      </trkpt>
      <trkpt lat="47.11058" lon="-2.06224">
        <ele>25.1</ele>
        <time>2020-06-04T17:25:42Z</time>
      </trkpt>
      <trkpt lat="47.11052" lon="-2.06226">
        <ele>25.1</ele>
        <time>2020-06-04T17:25:43Z</time>
      </trkpt>
      <trkpt lat="47.11047" lon="-2.06228">
        <ele>25.1</ele>
        <time>2020-06-04T17:25:44Z</time>
      </trkpt>
      <trkpt lat="47.11042" lon="-2.06231">
        <ele>25.1</ele>
        <time>2020-06-04T17:25:45Z</time>
      </trkpt>
      <trkpt lat="47.11038" lon="-2.06235">
        <ele>25.1</ele>
        <time>2020-06-04T17:25:46Z</time>
      </trkpt>
      <trkpt lat="47.11034" lon="-2.0624">
        <ele>25.2</ele>
        <time>2020-06-04T17:25:47Z</time>
      </trkpt>
      <trkpt lat="47.1103" lon="-2.06245">
        <ele>25.2</ele>
        <time>2020-06-04T17:25:48Z</time>
      </trkpt>
      <trkpt lat="47.11026" lon="-2.0625">
        <ele>25.2</ele>
        <time>2020-06-04T17:25:49Z</time>
      </trkpt>
      <trkpt lat="47.11022" lon="-2.06256">
        <ele>25.3</ele>
        <time>2020-06-04T17:25:50Z</time>
      </trkpt>
      <trkpt lat="47.11017" lon="-2.06261">
        <ele>25.3</ele>
        <time>2020-06-04T17:25:51Z</time>
      </trkpt>
      <trkpt lat="47.11013" lon="-2.06266">
        <ele>25.4</ele>
        <time>2020-06-04T17:25:52Z</time>
      </trkpt>
      <trkpt lat="47.11009" lon="-2.0627">
        <ele>25.4</ele>
        <time>2020-06-04T17:25:53Z</time>
      </trkpt>
      <trkpt lat="47.11005" lon="-2.06274">
        <ele>25.4</ele>
        <time>2020-06-04T17:25:54Z</time>
      </trkpt>
      <trkpt lat="47.11001" lon="-2.06278">
        <ele>25.4</ele>
        <time>2020-06-04T17:25:55Z</time>
      </trkpt>
      <trkpt lat="47.10997" lon="-2.06283">
        <ele>25.4</ele>
        <time>2020-06-04T17:25:56Z</time>
      </trkpt>
      <trkpt lat="47.10994" lon="-2.06287">
        <ele>25.4</ele>
        <time>2020-06-04T17:25:57Z</time>
      </trkpt>
      <trkpt lat="47.1099" lon="-2.06291">
        <ele>25.4</ele>
        <time>2020-06-04T17:25:58Z</time>
      </trkpt>
      <trkpt lat="47.10986" lon="-2.06295">
        <ele>25.4</ele>
        <time>2020-06-04T17:25:59Z</time>
      </trkpt>
      <trkpt lat="47.10982" lon="-2.06299">
        <ele>25.4</ele>
        <time>2020-06-04T17:26:00Z</time>
      </trkpt>
      <trkpt lat="47.10978" lon="-2.06304">
        <ele>25.4</ele>
        <time>2020-06-04T17:26:01Z</time>
      </trkpt>
      <trkpt lat="47.10974" lon="-2.06307">
        <ele>25.4</ele>
        <time>2020-06-04T17:26:02Z</time>
      </trkpt>
      <trkpt lat="47.1097" lon="-2.06311">
        <ele>25.4</ele>
        <time>2020-06-04T17:26:03Z</time>
      </trkpt>
      <trkpt lat="47.10966" lon="-2.06315">
        <ele>25.4</ele>
        <time>2020-06-04T17:26:04Z</time>
      </trkpt>
      <trkpt lat="47.10963" lon="-2.06318">
        <ele>25.4</ele>
        <time>2020-06-04T17:26:05Z</time>
      </trkpt>
      <trkpt lat="47.10959" lon="-2.06322">
        <ele>25.4</ele>
        <time>2020-06-04T17:26:06Z</time>
      </trkpt>
      <trkpt lat="47.10956" lon="-2.06326">
        <ele>25.4</ele>
        <time>2020-06-04T17:26:07Z</time>
      </trkpt>
      <trkpt lat="47.10952" lon="-2.0633">
        <ele>25.4</ele>
        <time>2020-06-04T17:26:08Z</time>
      </trkpt>
      <trkpt lat="47.10948" lon="-2.06335">
        <ele>25.4</ele>
        <time>2020-06-04T17:26:09Z</time>
      </trkpt>
      <trkpt lat="47.10944" lon="-2.06338">
        <ele>25.4</ele>
        <time>2020-06-04T17:26:10Z</time>
      </trkpt>
      <trkpt lat="47.1094" lon="-2.06342">
        <ele>25.5</ele>
        <time>2020-06-04T17:26:11Z</time>
      </trkpt>
      <trkpt lat="47.10936" lon="-2.06345">
        <ele>25.5</ele>
        <time>2020-06-04T17:26:12Z</time>
      </trkpt>
      <trkpt lat="47.10932" lon="-2.06349">
        <ele>25.5</ele>
        <time>2020-06-04T17:26:13Z</time>
      </trkpt>
      <trkpt lat="47.10928" lon="-2.06353">
        <ele>25.6</ele>
        <time>2020-06-04T17:26:14Z</time>
      </trkpt>
      <trkpt lat="47.10924" lon="-2.06357">
        <ele>25.6</ele>
        <time>2020-06-04T17:26:15Z</time>
      </trkpt>
      <trkpt lat="47.1092" lon="-2.0636">
        <ele>25.6</ele>
        <time>2020-06-04T17:26:16Z</time>
      </trkpt>
      <trkpt lat="47.10916" lon="-2.06363">
        <ele>25.6</ele>
        <time>2020-06-04T17:26:17Z</time>
      </trkpt>
      <trkpt lat="47.10912" lon="-2.06367">
        <ele>25.6</ele>
        <time>2020-06-04T17:26:18Z</time>
      </trkpt>
      <trkpt lat="47.10908" lon="-2.0637">
        <ele>25.6</ele>
        <time>2020-06-04T17:26:19Z</time>
      </trkpt>
      <trkpt lat="47.10904" lon="-2.06374">
        <ele>25.7</ele>
        <time>2020-06-04T17:26:20Z</time>
      </trkpt>
      <trkpt lat="47.109" lon="-2.06377">
        <ele>25.7</ele>
        <time>2020-06-04T17:26:21Z</time>
      </trkpt>
      <trkpt lat="47.10896" lon="-2.06381">
        <ele>25.8</ele>
        <time>2020-06-04T17:26:22Z</time>
      </trkpt>
      <trkpt lat="47.10892" lon="-2.06385">
        <ele>25.8</ele>
        <time>2020-06-04T17:26:23Z</time>
      </trkpt>
      <trkpt lat="47.10888" lon="-2.06388">
        <ele>25.9</ele>
        <time>2020-06-04T17:26:24Z</time>
      </trkpt>
      <trkpt lat="47.10884" lon="-2.06391">
        <ele>25.9</ele>
        <time>2020-06-04T17:26:25Z</time>
      </trkpt>
      <trkpt lat="47.1088" lon="-2.06395">
        <ele>25.9</ele>
        <time>2020-06-04T17:26:26Z</time>
      </trkpt>
      <trkpt lat="47.10876" lon="-2.06398">
        <ele>26</ele>
        <time>2020-06-04T17:26:27Z</time>
      </trkpt>
      <trkpt lat="47.10873" lon="-2.06401">
        <ele>26</ele>
        <time>2020-06-04T17:26:28Z</time>
      </trkpt>
      <trkpt lat="47.10869" lon="-2.06405">
        <ele>26.1</ele>
        <time>2020-06-04T17:26:29Z</time>
      </trkpt>
      <trkpt lat="47.10865" lon="-2.06409">
        <ele>26.2</ele>
        <time>2020-06-04T17:26:30Z</time>
      </trkpt>
      <trkpt lat="47.1086" lon="-2.06412">
        <ele>26.2</ele>
        <time>2020-06-04T17:26:31Z</time>
      </trkpt>
      <trkpt lat="47.10856" lon="-2.06416">
        <ele>26.3</ele>
        <time>2020-06-04T17:26:32Z</time>
      </trkpt>
      <trkpt lat="47.10852" lon="-2.06419">
        <ele>26.4</ele>
        <time>2020-06-04T17:26:33Z</time>
      </trkpt>
      <trkpt lat="47.10848" lon="-2.06423">
        <ele>26.4</ele>
        <time>2020-06-04T17:26:34Z</time>
      </trkpt>
      <trkpt lat="47.10844" lon="-2.06426">
        <ele>26.5</ele>
        <time>2020-06-04T17:26:35Z</time>
      </trkpt>
      <trkpt lat="47.10841" lon="-2.06429">
        <ele>26.6</ele>
        <time>2020-06-04T17:26:36Z</time>
      </trkpt>
      <trkpt lat="47.10837" lon="-2.06432">
        <ele>26.7</ele>
        <time>2020-06-04T17:26:37Z</time>
      </trkpt>
      <trkpt lat="47.10834" lon="-2.06435">
        <ele>26.8</ele>
        <time>2020-06-04T17:26:38Z</time>
      </trkpt>
      <trkpt lat="47.1083" lon="-2.06438">
        <ele>26.9</ele>
        <time>2020-06-04T17:26:39Z</time>
      </trkpt>
      <trkpt lat="47.10827" lon="-2.06441">
        <ele>27</ele>
        <time>2020-06-04T17:26:40Z</time>
      </trkpt>
      <trkpt lat="47.10822" lon="-2.06441">
        <ele>27.1</ele>
        <time>2020-06-04T17:26:41Z</time>
      </trkpt>
      <trkpt lat="47.10817" lon="-2.06441">
        <ele>27.2</ele>
        <time>2020-06-04T17:26:42Z</time>
      </trkpt>
      <trkpt lat="47.10814" lon="-2.06443">
        <ele>27.3</ele>
        <time>2020-06-04T17:26:43Z</time>
      </trkpt>
      <trkpt lat="47.1081" lon="-2.06446">
        <ele>27.4</ele>
        <time>2020-06-04T17:26:44Z</time>
      </trkpt>
      <trkpt lat="47.10806" lon="-2.0645">
        <ele>27.5</ele>
        <time>2020-06-04T17:26:45Z</time>
      </trkpt>
      <trkpt lat="47.10803" lon="-2.06453">
        <ele>27.6</ele>
        <time>2020-06-04T17:26:46Z</time>
      </trkpt>
      <trkpt lat="47.108" lon="-2.06457">
        <ele>27.7</ele>
        <time>2020-06-04T17:26:47Z</time>
      </trkpt>
      <trkpt lat="47.10796" lon="-2.0646">
        <ele>27.7</ele>
        <time>2020-06-04T17:26:48Z</time>
      </trkpt>
      <trkpt lat="47.10793" lon="-2.06463">
        <ele>27.8</ele>
        <time>2020-06-04T17:26:49Z</time>
      </trkpt>
      <trkpt lat="47.1079" lon="-2.06465">
        <ele>27.9</ele>
        <time>2020-06-04T17:26:50Z</time>
      </trkpt>
      <trkpt lat="47.10787" lon="-2.06469">
        <ele>28</ele>
        <time>2020-06-04T17:26:51Z</time>
      </trkpt>
      <trkpt lat="47.10784" lon="-2.06472">
        <ele>28.1</ele>
        <time>2020-06-04T17:26:52Z</time>
      </trkpt>
      <trkpt lat="47.1078" lon="-2.06475">
        <ele>28.2</ele>
        <time>2020-06-04T17:26:53Z</time>
      </trkpt>
      <trkpt lat="47.10777" lon="-2.06477">
        <ele>28.4</ele>
        <time>2020-06-04T17:26:54Z</time>
      </trkpt>
      <trkpt lat="47.10774" lon="-2.0648">
        <ele>28.5</ele>
        <time>2020-06-04T17:26:55Z</time>
      </trkpt>
      <trkpt lat="47.10771" lon="-2.06483">
        <ele>28.6</ele>
        <time>2020-06-04T17:26:56Z</time>
      </trkpt>
      <trkpt lat="47.10767" lon="-2.06485">
        <ele>28.8</ele>
        <time>2020-06-04T17:26:57Z</time>
      </trkpt>
      <trkpt lat="47.10764" lon="-2.06488">
        <ele>28.9</ele>
        <time>2020-06-04T17:26:58Z</time>
      </trkpt>
      <trkpt lat="47.10761" lon="-2.0649">
        <ele>29</ele>
        <time>2020-06-04T17:26:59Z</time>
      </trkpt>
      <trkpt lat="47.10758" lon="-2.06493">
        <ele>29.1</ele>
        <time>2020-06-04T17:27:00Z</time>
      </trkpt>
      <trkpt lat="47.10755" lon="-2.06496">
        <ele>29.3</ele>
        <time>2020-06-04T17:27:01Z</time>
      </trkpt>
      <trkpt lat="47.10751" lon="-2.06498">
        <ele>29.3</ele>
        <time>2020-06-04T17:27:02Z</time>
      </trkpt>
      <trkpt lat="47.10748" lon="-2.06501">
        <ele>29.4</ele>
        <time>2020-06-04T17:27:03Z</time>
      </trkpt>
      <trkpt lat="47.10744" lon="-2.06503">
        <ele>29.4</ele>
        <time>2020-06-04T17:27:04Z</time>
      </trkpt>
      <trkpt lat="47.10741" lon="-2.06505">
        <ele>29.5</ele>
        <time>2020-06-04T17:27:05Z</time>
      </trkpt>
      <trkpt lat="47.10737" lon="-2.06507">
        <ele>29.6</ele>
        <time>2020-06-04T17:27:06Z</time>
      </trkpt>
      <trkpt lat="47.10734" lon="-2.0651">
        <ele>29.7</ele>
        <time>2020-06-04T17:27:07Z</time>
      </trkpt>
      <trkpt lat="47.1073" lon="-2.06512">
        <ele>29.8</ele>
        <time>2020-06-04T17:27:08Z</time>
      </trkpt>
      <trkpt lat="47.10727" lon="-2.06513">
        <ele>29.9</ele>
        <time>2020-06-04T17:27:09Z</time>
      </trkpt>
      <trkpt lat="47.10723" lon="-2.06514">
        <ele>30</ele>
        <time>2020-06-04T17:27:10Z</time>
      </trkpt>
      <trkpt lat="47.1072" lon="-2.06516">
        <ele>30</ele>
        <time>2020-06-04T17:27:11Z</time>
      </trkpt>
      <trkpt lat="47.10716" lon="-2.06518">
        <ele>30.2</ele>
        <time>2020-06-04T17:27:12Z</time>
      </trkpt>
      <trkpt lat="47.10712" lon="-2.06521">
        <ele>30.3</ele>
        <time>2020-06-04T17:27:13Z</time>
      </trkpt>
      <trkpt lat="47.10708" lon="-2.06522">
        <ele>30.4</ele>
        <time>2020-06-04T17:27:14Z</time>
      </trkpt>
      <trkpt lat="47.10705" lon="-2.06523">
        <ele>30.4</ele>
        <time>2020-06-04T17:27:15Z</time>
      </trkpt>
      <trkpt lat="47.10701" lon="-2.06525">
        <ele>30.5</ele>
        <time>2020-06-04T17:27:16Z</time>
      </trkpt>
      <trkpt lat="47.10697" lon="-2.06526">
        <ele>30.6</ele>
        <time>2020-06-04T17:27:17Z</time>
      </trkpt>
      <trkpt lat="47.10693" lon="-2.06528">
        <ele>30.7</ele>
        <time>2020-06-04T17:27:18Z</time>
      </trkpt>
      <trkpt lat="47.10689" lon="-2.06529">
        <ele>30.7</ele>
        <time>2020-06-04T17:27:19Z</time>
      </trkpt>
      <trkpt lat="47.10685" lon="-2.0653">
        <ele>30.8</ele>
        <time>2020-06-04T17:27:20Z</time>
      </trkpt>
      <trkpt lat="47.10682" lon="-2.06532">
        <ele>30.9</ele>
        <time>2020-06-04T17:27:21Z</time>
      </trkpt>
      <trkpt lat="47.10678" lon="-2.06534">
        <ele>30.9</ele>
        <time>2020-06-04T17:27:22Z</time>
      </trkpt>
      <trkpt lat="47.10675" lon="-2.06535">
        <ele>31</ele>
        <time>2020-06-04T17:27:23Z</time>
      </trkpt>
      <trkpt lat="47.10672" lon="-2.06537">
        <ele>31.1</ele>
        <time>2020-06-04T17:27:24Z</time>
      </trkpt>
      <trkpt lat="47.10668" lon="-2.06538">
        <ele>31.1</ele>
        <time>2020-06-04T17:27:25Z</time>
      </trkpt>
      <trkpt lat="47.10664" lon="-2.0654">
        <ele>31.2</ele>
        <time>2020-06-04T17:27:26Z</time>
      </trkpt>
      <trkpt lat="47.1066" lon="-2.06541">
        <ele>31.3</ele>
        <time>2020-06-04T17:27:27Z</time>
      </trkpt>
      <trkpt lat="47.10656" lon="-2.06541">
        <ele>31.3</ele>
        <time>2020-06-04T17:27:28Z</time>
      </trkpt>
      <trkpt lat="47.10652" lon="-2.06542">
        <ele>31.4</ele>
        <time>2020-06-04T17:27:29Z</time>
      </trkpt>
      <trkpt lat="47.10649" lon="-2.06543">
        <ele>31.5</ele>
        <time>2020-06-04T17:27:30Z</time>
      </trkpt>
      <trkpt lat="47.10645" lon="-2.06544">
        <ele>31.5</ele>
        <time>2020-06-04T17:27:31Z</time>
      </trkpt>
      <trkpt lat="47.10642" lon="-2.06545">
        <ele>31.6</ele>
        <time>2020-06-04T17:27:32Z</time>
      </trkpt>
      <trkpt lat="47.10638" lon="-2.06546">
        <ele>31.7</ele>
        <time>2020-06-04T17:27:33Z</time>
      </trkpt>
      <trkpt lat="47.10634" lon="-2.06546">
        <ele>31.7</ele>
        <time>2020-06-04T17:27:34Z</time>
      </trkpt>
      <trkpt lat="47.10629" lon="-2.06547">
        <ele>31.8</ele>
        <time>2020-06-04T17:27:35Z</time>
      </trkpt>
      <trkpt lat="47.10625" lon="-2.06547">
        <ele>31.8</ele>
        <time>2020-06-04T17:27:36Z</time>
      </trkpt>
      <trkpt lat="47.10621" lon="-2.06548">
        <ele>31.9</ele>
        <time>2020-06-04T17:27:37Z</time>
      </trkpt>
      <trkpt lat="47.10617" lon="-2.06548">
        <ele>31.9</ele>
        <time>2020-06-04T17:27:38Z</time>
      </trkpt>
      <trkpt lat="47.10614" lon="-2.06549">
        <ele>32</ele>
        <time>2020-06-04T17:27:39Z</time>
      </trkpt>
      <trkpt lat="47.1061" lon="-2.0655">
        <ele>32.1</ele>
        <time>2020-06-04T17:27:40Z</time>
      </trkpt>
      <trkpt lat="47.10606" lon="-2.06551">
        <ele>32.2</ele>
        <time>2020-06-04T17:27:41Z</time>
      </trkpt>
      <trkpt lat="47.10602" lon="-2.06551">
        <ele>32.2</ele>
        <time>2020-06-04T17:27:42Z</time>
      </trkpt>
      <trkpt lat="47.10598" lon="-2.06552">
        <ele>32.3</ele>
        <time>2020-06-04T17:27:43Z</time>
      </trkpt>
      <trkpt lat="47.10594" lon="-2.06554">
        <ele>32.4</ele>
        <time>2020-06-04T17:27:44Z</time>
      </trkpt>
      <trkpt lat="47.10591" lon="-2.06555">
        <ele>32.5</ele>
        <time>2020-06-04T17:27:45Z</time>
      </trkpt>
      <trkpt lat="47.10587" lon="-2.06556">
        <ele>32.6</ele>
        <time>2020-06-04T17:27:46Z</time>
      </trkpt>
      <trkpt lat="47.10583" lon="-2.06558">
        <ele>32.7</ele>
        <time>2020-06-04T17:27:47Z</time>
      </trkpt>
      <trkpt lat="47.10579" lon="-2.06558">
        <ele>32.8</ele>
        <time>2020-06-04T17:27:48Z</time>
      </trkpt>
      <trkpt lat="47.10575" lon="-2.0656">
        <ele>32.8</ele>
        <time>2020-06-04T17:27:49Z</time>
      </trkpt>
      <trkpt lat="47.10572" lon="-2.06561">
        <ele>32.9</ele>
        <time>2020-06-04T17:27:50Z</time>
      </trkpt>
      <trkpt lat="47.10568" lon="-2.06563">
        <ele>33</ele>
        <time>2020-06-04T17:27:51Z</time>
      </trkpt>
      <trkpt lat="47.10564" lon="-2.06564">
        <ele>33.1</ele>
        <time>2020-06-04T17:27:52Z</time>
      </trkpt>
      <trkpt lat="47.1056" lon="-2.06566">
        <ele>33.2</ele>
        <time>2020-06-04T17:27:53Z</time>
      </trkpt>
      <trkpt lat="47.10556" lon="-2.06568">
        <ele>33.3</ele>
        <time>2020-06-04T17:27:54Z</time>
      </trkpt>
      <trkpt lat="47.10552" lon="-2.06569">
        <ele>33.4</ele>
        <time>2020-06-04T17:27:55Z</time>
      </trkpt>
      <trkpt lat="47.10549" lon="-2.0657">
        <ele>33.5</ele>
        <time>2020-06-04T17:27:56Z</time>
      </trkpt>
      <trkpt lat="47.10545" lon="-2.06572">
        <ele>33.6</ele>
        <time>2020-06-04T17:27:57Z</time>
      </trkpt>
      <trkpt lat="47.10541" lon="-2.06573">
        <ele>33.6</ele>
        <time>2020-06-04T17:27:58Z</time>
      </trkpt>
      <trkpt lat="47.10537" lon="-2.06575">
        <ele>33.7</ele>
        <time>2020-06-04T17:27:59Z</time>
      </trkpt>
      <trkpt lat="47.10533" lon="-2.06576">
        <ele>33.8</ele>
        <time>2020-06-04T17:28:00Z</time>
      </trkpt>
      <trkpt lat="47.1053" lon="-2.06577">
        <ele>33.9</ele>
        <time>2020-06-04T17:28:01Z</time>
      </trkpt>
      <trkpt lat="47.10526" lon="-2.06578">
        <ele>34</ele>
        <time>2020-06-04T17:28:02Z</time>
      </trkpt>
      <trkpt lat="47.10522" lon="-2.06579">
        <ele>34</ele>
        <time>2020-06-04T17:28:03Z</time>
      </trkpt>
      <trkpt lat="47.10518" lon="-2.0658">
        <ele>34.2</ele>
        <time>2020-06-04T17:28:04Z</time>
      </trkpt>
      <trkpt lat="47.10515" lon="-2.06581">
        <ele>34.2</ele>
        <time>2020-06-04T17:28:05Z</time>
      </trkpt>
      <trkpt lat="47.10511" lon="-2.06582">
        <ele>34.2</ele>
        <time>2020-06-04T17:28:06Z</time>
      </trkpt>
      <trkpt lat="47.10507" lon="-2.06582">
        <ele>34.2</ele>
        <time>2020-06-04T17:28:07Z</time>
      </trkpt>
      <trkpt lat="47.10503" lon="-2.06583">
        <ele>34.2</ele>
        <time>2020-06-04T17:28:08Z</time>
      </trkpt>
      <trkpt lat="47.10499" lon="-2.06583">
        <ele>34.3</ele>
        <time>2020-06-04T17:28:09Z</time>
      </trkpt>
      <trkpt lat="47.10496" lon="-2.06582">
        <ele>34.3</ele>
        <time>2020-06-04T17:28:10Z</time>
      </trkpt>
      <trkpt lat="47.10492" lon="-2.06583">
        <ele>34.4</ele>
        <time>2020-06-04T17:28:11Z</time>
      </trkpt>
      <trkpt lat="47.10488" lon="-2.06583">
        <ele>34.4</ele>
        <time>2020-06-04T17:28:12Z</time>
      </trkpt>
      <trkpt lat="47.10484" lon="-2.06582">
        <ele>34.5</ele>
        <time>2020-06-04T17:28:13Z</time>
      </trkpt>
      <trkpt lat="47.10481" lon="-2.06582">
        <ele>34.5</ele>
        <time>2020-06-04T17:28:14Z</time>
      </trkpt>
      <trkpt lat="47.10477" lon="-2.06581">
        <ele>34.6</ele>
        <time>2020-06-04T17:28:15Z</time>
      </trkpt>
      <trkpt lat="47.10473" lon="-2.0658">
        <ele>34.7</ele>
        <time>2020-06-04T17:28:16Z</time>
      </trkpt>
      <trkpt lat="47.10469" lon="-2.06579">
        <ele>34.8</ele>
        <time>2020-06-04T17:28:17Z</time>
      </trkpt>
      <trkpt lat="47.10465" lon="-2.0658">
        <ele>34.8</ele>
        <time>2020-06-04T17:28:18Z</time>
      </trkpt>
      <trkpt lat="47.10461" lon="-2.06581">
        <ele>34.8</ele>
        <time>2020-06-04T17:28:19Z</time>
      </trkpt>
      <trkpt lat="47.10458" lon="-2.06583">
        <ele>34.9</ele>
        <time>2020-06-04T17:28:20Z</time>
      </trkpt>
      <trkpt lat="47.10454" lon="-2.06586">
        <ele>34.9</ele>
        <time>2020-06-04T17:28:21Z</time>
      </trkpt>
      <trkpt lat="47.10451" lon="-2.06588">
        <ele>35</ele>
        <time>2020-06-04T17:28:22Z</time>
      </trkpt>
      <trkpt lat="47.10448" lon="-2.0659">
        <ele>35</ele>
        <time>2020-06-04T17:28:23Z</time>
      </trkpt>
      <trkpt lat="47.10444" lon="-2.06593">
        <ele>35.1</ele>
        <time>2020-06-04T17:28:24Z</time>
      </trkpt>
      <trkpt lat="47.10441" lon="-2.06595">
        <ele>35.1</ele>
        <time>2020-06-04T17:28:25Z</time>
      </trkpt>
      <trkpt lat="47.10437" lon="-2.06598">
        <ele>35.2</ele>
        <time>2020-06-04T17:28:26Z</time>
      </trkpt>
      <trkpt lat="47.10434" lon="-2.066">
        <ele>35.2</ele>
        <time>2020-06-04T17:28:27Z</time>
      </trkpt>
      <trkpt lat="47.1043" lon="-2.06602">
        <ele>35.3</ele>
        <time>2020-06-04T17:28:28Z</time>
      </trkpt>
      <trkpt lat="47.10428" lon="-2.06606">
        <ele>35.3</ele>
        <time>2020-06-04T17:28:29Z</time>
      </trkpt>
      <trkpt lat="47.10425" lon="-2.0661">
        <ele>35.4</ele>
        <time>2020-06-04T17:28:30Z</time>
      </trkpt>
      <trkpt lat="47.10422" lon="-2.06612">
        <ele>35.5</ele>
        <time>2020-06-04T17:28:31Z</time>
      </trkpt>
      <trkpt lat="47.10419" lon="-2.06612">
        <ele>35.5</ele>
        <time>2020-06-04T17:28:32Z</time>
      </trkpt>
      <trkpt lat="47.10415" lon="-2.06614">
        <ele>35.5</ele>
        <time>2020-06-04T17:28:33Z</time>
      </trkpt>
      <trkpt lat="47.10411" lon="-2.06616">
        <ele>35.6</ele>
        <time>2020-06-04T17:28:34Z</time>
      </trkpt>
      <trkpt lat="47.10407" lon="-2.06618">
        <ele>35.6</ele>
        <time>2020-06-04T17:28:35Z</time>
      </trkpt>
      <trkpt lat="47.10403" lon="-2.0662">
        <ele>35.6</ele>
        <time>2020-06-04T17:28:36Z</time>
      </trkpt>
      <trkpt lat="47.10399" lon="-2.06623">
        <ele>35.7</ele>
        <time>2020-06-04T17:28:37Z</time>
      </trkpt>
      <trkpt lat="47.10395" lon="-2.06626">
        <ele>35.7</ele>
        <time>2020-06-04T17:28:38Z</time>
      </trkpt>
      <trkpt lat="47.10391" lon="-2.06628">
        <ele>35.7</ele>
        <time>2020-06-04T17:28:39Z</time>
      </trkpt>
      <trkpt lat="47.10387" lon="-2.0663">
        <ele>35.8</ele>
        <time>2020-06-04T17:28:40Z</time>
      </trkpt>
      <trkpt lat="47.10383" lon="-2.06632">
        <ele>35.8</ele>
        <time>2020-06-04T17:28:41Z</time>
      </trkpt>
      <trkpt lat="47.1038" lon="-2.06635">
        <ele>35.8</ele>
        <time>2020-06-04T17:28:42Z</time>
      </trkpt>
      <trkpt lat="47.10376" lon="-2.06637">
        <ele>35.9</ele>
        <time>2020-06-04T17:28:43Z</time>
      </trkpt>
      <trkpt lat="47.10372" lon="-2.06638">
        <ele>35.9</ele>
        <time>2020-06-04T17:28:44Z</time>
      </trkpt>
      <trkpt lat="47.10368" lon="-2.06638">
        <ele>35.9</ele>
        <time>2020-06-04T17:28:45Z</time>
      </trkpt>
      <trkpt lat="47.10365" lon="-2.06636">
        <ele>36</ele>
        <time>2020-06-04T17:28:46Z</time>
      </trkpt>
      <trkpt lat="47.10361" lon="-2.06633">
        <ele>36</ele>
        <time>2020-06-04T17:28:47Z</time>
      </trkpt>
      <trkpt lat="47.10359" lon="-2.06629">
        <ele>36.1</ele>
        <time>2020-06-04T17:28:48Z</time>
      </trkpt>
      <trkpt lat="47.10356" lon="-2.06624">
        <ele>36.1</ele>
        <time>2020-06-04T17:28:49Z</time>
      </trkpt>
      <trkpt lat="47.10354" lon="-2.0662">
        <ele>36.2</ele>
        <time>2020-06-04T17:28:50Z</time>
      </trkpt>
      <trkpt lat="47.10352" lon="-2.06616">
        <ele>36.2</ele>
        <time>2020-06-04T17:28:51Z</time>
      </trkpt>
      <trkpt lat="47.10349" lon="-2.06613">
        <ele>36.3</ele>
        <time>2020-06-04T17:28:52Z</time>
      </trkpt>
      <trkpt lat="47.10347" lon="-2.06608">
        <ele>36.3</ele>
        <time>2020-06-04T17:28:53Z</time>
      </trkpt>
      <trkpt lat="47.10344" lon="-2.06604">
        <ele>36.3</ele>
        <time>2020-06-04T17:28:54Z</time>
      </trkpt>
      <trkpt lat="47.10341" lon="-2.06599">
        <ele>36.4</ele>
        <time>2020-06-04T17:28:55Z</time>
      </trkpt>
      <trkpt lat="47.10338" lon="-2.06595">
        <ele>36.4</ele>
        <time>2020-06-04T17:28:56Z</time>
      </trkpt>
      <trkpt lat="47.10336" lon="-2.0659">
        <ele>36.4</ele>
        <time>2020-06-04T17:28:57Z</time>
      </trkpt>
      <trkpt lat="47.10333" lon="-2.06586">
        <ele>36.5</ele>
        <time>2020-06-04T17:28:58Z</time>
      </trkpt>
      <trkpt lat="47.10331" lon="-2.06582">
        <ele>36.5</ele>
        <time>2020-06-04T17:28:59Z</time>
      </trkpt>
      <trkpt lat="47.10328" lon="-2.06577">
        <ele>36.6</ele>
        <time>2020-06-04T17:29:00Z</time>
      </trkpt>
      <trkpt lat="47.10326" lon="-2.06571">
        <ele>36.6</ele>
        <time>2020-06-04T17:29:01Z</time>
      </trkpt>
      <trkpt lat="47.10323" lon="-2.06565">
        <ele>36.7</ele>
        <time>2020-06-04T17:29:02Z</time>
      </trkpt>
      <trkpt lat="47.1032" lon="-2.0656">
        <ele>36.8</ele>
        <time>2020-06-04T17:29:03Z</time>
      </trkpt>
      <trkpt lat="47.10318" lon="-2.06555">
        <ele>36.8</ele>
        <time>2020-06-04T17:29:04Z</time>
      </trkpt>
      <trkpt lat="47.10315" lon="-2.06549">
        <ele>36.9</ele>
        <time>2020-06-04T17:29:05Z</time>
      </trkpt>
      <trkpt lat="47.10312" lon="-2.06544">
        <ele>36.9</ele>
        <time>2020-06-04T17:29:06Z</time>
      </trkpt>
      <trkpt lat="47.1031" lon="-2.06538">
        <ele>37</ele>
        <time>2020-06-04T17:29:07Z</time>
      </trkpt>
      <trkpt lat="47.10307" lon="-2.06533">
        <ele>37</ele>
        <time>2020-06-04T17:29:08Z</time>
      </trkpt>
      <trkpt lat="47.10304" lon="-2.06527">
        <ele>37</ele>
        <time>2020-06-04T17:29:09Z</time>
      </trkpt>
      <trkpt lat="47.10302" lon="-2.06522">
        <ele>37</ele>
        <time>2020-06-04T17:29:10Z</time>
      </trkpt>
      <trkpt lat="47.10299" lon="-2.06517">
        <ele>37.1</ele>
        <time>2020-06-04T17:29:11Z</time>
      </trkpt>
      <trkpt lat="47.10297" lon="-2.06511">
        <ele>37.1</ele>
        <time>2020-06-04T17:29:12Z</time>
      </trkpt>
      <trkpt lat="47.10294" lon="-2.06506">
        <ele>37.1</ele>
        <time>2020-06-04T17:29:13Z</time>
      </trkpt>
      <trkpt lat="47.10292" lon="-2.065">
        <ele>37.1</ele>
        <time>2020-06-04T17:29:14Z</time>
      </trkpt>
      <trkpt lat="47.10289" lon="-2.06494">
        <ele>37.2</ele>
        <time>2020-06-04T17:29:15Z</time>
      </trkpt>
      <trkpt lat="47.10287" lon="-2.06489">
        <ele>37.2</ele>
        <time>2020-06-04T17:29:16Z</time>
      </trkpt>
      <trkpt lat="47.10285" lon="-2.06483">
        <ele>37.2</ele>
        <time>2020-06-04T17:29:17Z</time>
      </trkpt>
      <trkpt lat="47.10282" lon="-2.06477">
        <ele>37.3</ele>
        <time>2020-06-04T17:29:18Z</time>
      </trkpt>
      <trkpt lat="47.1028" lon="-2.06472">
        <ele>37.3</ele>
        <time>2020-06-04T17:29:19Z</time>
      </trkpt>
      <trkpt lat="47.10277" lon="-2.06466">
        <ele>37.3</ele>
        <time>2020-06-04T17:29:20Z</time>
      </trkpt>
      <trkpt lat="47.10275" lon="-2.06461">
        <ele>37.3</ele>
        <time>2020-06-04T17:29:21Z</time>
      </trkpt>
      <trkpt lat="47.10273" lon="-2.06456">
        <ele>37.3</ele>
        <time>2020-06-04T17:29:22Z</time>
      </trkpt>
      <trkpt lat="47.10271" lon="-2.06451">
        <ele>37.4</ele>
        <time>2020-06-04T17:29:23Z</time>
      </trkpt>
      <trkpt lat="47.1027" lon="-2.06445">
        <ele>37.4</ele>
        <time>2020-06-04T17:29:24Z</time>
      </trkpt>
      <trkpt lat="47.10268" lon="-2.06439">
        <ele>37.4</ele>
        <time>2020-06-04T17:29:25Z</time>
      </trkpt>
      <trkpt lat="47.10266" lon="-2.06434">
        <ele>37.4</ele>
        <time>2020-06-04T17:29:26Z</time>
      </trkpt>
      <trkpt lat="47.10265" lon="-2.06428">
        <ele>37.4</ele>
        <time>2020-06-04T17:29:27Z</time>
      </trkpt>
      <trkpt lat="47.10263" lon="-2.06422">
        <ele>37.5</ele>
        <time>2020-06-04T17:29:28Z</time>
      </trkpt>
      <trkpt lat="47.10261" lon="-2.06417">
        <ele>37.5</ele>
        <time>2020-06-04T17:29:29Z</time>
      </trkpt>
      <trkpt lat="47.1026" lon="-2.06411">
        <ele>37.5</ele>
        <time>2020-06-04T17:29:30Z</time>
      </trkpt>
      <trkpt lat="47.10258" lon="-2.06406">
        <ele>37.5</ele>
        <time>2020-06-04T17:29:31Z</time>
      </trkpt>
      <trkpt lat="47.10257" lon="-2.064">
        <ele>37.5</ele>
        <time>2020-06-04T17:29:32Z</time>
      </trkpt>
      <trkpt lat="47.10255" lon="-2.06395">
        <ele>37.5</ele>
        <time>2020-06-04T17:29:33Z</time>
      </trkpt>
      <trkpt lat="47.10253" lon="-2.06389">
        <ele>37.5</ele>
        <time>2020-06-04T17:29:34Z</time>
      </trkpt>
      <trkpt lat="47.1025" lon="-2.06384">
        <ele>37.6</ele>
        <time>2020-06-04T17:29:35Z</time>
      </trkpt>
      <trkpt lat="47.10248" lon="-2.06379">
        <ele>37.6</ele>
        <time>2020-06-04T17:29:36Z</time>
      </trkpt>
      <trkpt lat="47.10246" lon="-2.06373">
        <ele>37.6</ele>
        <time>2020-06-04T17:29:37Z</time>
      </trkpt>
      <trkpt lat="47.10244" lon="-2.06367">
        <ele>37.6</ele>
        <time>2020-06-04T17:29:38Z</time>
      </trkpt>
      <trkpt lat="47.10241" lon="-2.06362">
        <ele>37.6</ele>
        <time>2020-06-04T17:29:39Z</time>
      </trkpt>
      <trkpt lat="47.10239" lon="-2.06357">
        <ele>37.6</ele>
        <time>2020-06-04T17:29:40Z</time>
      </trkpt>
      <trkpt lat="47.10236" lon="-2.06351">
        <ele>37.7</ele>
        <time>2020-06-04T17:29:41Z</time>
      </trkpt>
      <trkpt lat="47.10233" lon="-2.06346">
        <ele>37.7</ele>
        <time>2020-06-04T17:29:42Z</time>
      </trkpt>
      <trkpt lat="47.1023" lon="-2.06341">
        <ele>37.7</ele>
        <time>2020-06-04T17:29:43Z</time>
      </trkpt>
      <trkpt lat="47.10227" lon="-2.06335">
        <ele>37.7</ele>
        <time>2020-06-04T17:29:44Z</time>
      </trkpt>
      <trkpt lat="47.10223" lon="-2.06331">
        <ele>37.8</ele>
        <time>2020-06-04T17:29:45Z</time>
      </trkpt>
      <trkpt lat="47.10219" lon="-2.06326">
        <ele>37.8</ele>
        <time>2020-06-04T17:29:46Z</time>
      </trkpt>
      <trkpt lat="47.10215" lon="-2.06322">
        <ele>37.8</ele>
        <time>2020-06-04T17:29:47Z</time>
      </trkpt>
      <trkpt lat="47.10211" lon="-2.06319">
        <ele>37.8</ele>
        <time>2020-06-04T17:29:48Z</time>
      </trkpt>
      <trkpt lat="47.10207" lon="-2.06316">
        <ele>37.9</ele>
        <time>2020-06-04T17:29:49Z</time>
      </trkpt>
      <trkpt lat="47.10203" lon="-2.06312">
        <ele>37.9</ele>
        <time>2020-06-04T17:29:50Z</time>
      </trkpt>
      <trkpt lat="47.10199" lon="-2.06309">
        <ele>37.9</ele>
        <time>2020-06-04T17:29:51Z</time>
      </trkpt>
      <trkpt lat="47.10196" lon="-2.06305">
        <ele>37.9</ele>
        <time>2020-06-04T17:29:52Z</time>
      </trkpt>
      <trkpt lat="47.10192" lon="-2.06303">
        <ele>37.9</ele>
        <time>2020-06-04T17:29:53Z</time>
      </trkpt>
      <trkpt lat="47.10188" lon="-2.06301">
        <ele>38</ele>
        <time>2020-06-04T17:29:54Z</time>
      </trkpt>
      <trkpt lat="47.10184" lon="-2.06298">
        <ele>38</ele>
        <time>2020-06-04T17:29:55Z</time>
      </trkpt>
      <trkpt lat="47.1018" lon="-2.06295">
        <ele>38</ele>
        <time>2020-06-04T17:29:56Z</time>
      </trkpt>
      <trkpt lat="47.10175" lon="-2.06293">
        <ele>38</ele>
        <time>2020-06-04T17:29:57Z</time>
      </trkpt>
      <trkpt lat="47.10171" lon="-2.06289">
        <ele>38</ele>
        <time>2020-06-04T17:29:58Z</time>
      </trkpt>
      <trkpt lat="47.10168" lon="-2.06286">
        <ele>38</ele>
        <time>2020-06-04T17:29:59Z</time>
      </trkpt>
      <trkpt lat="47.10164" lon="-2.06284">
        <ele>37.9</ele>
        <time>2020-06-04T17:30:00Z</time>
      </trkpt>
      <trkpt lat="47.10161" lon="-2.06281">
        <ele>37.9</ele>
        <time>2020-06-04T17:30:01Z</time>
      </trkpt>
      <trkpt lat="47.10158" lon="-2.06279">
        <ele>37.9</ele>
        <time>2020-06-04T17:30:02Z</time>
      </trkpt>
      <trkpt lat="47.10155" lon="-2.06276">
        <ele>37.9</ele>
        <time>2020-06-04T17:30:03Z</time>
      </trkpt>
      <trkpt lat="47.10152" lon="-2.06272">
        <ele>37.9</ele>
        <time>2020-06-04T17:30:04Z</time>
      </trkpt>
      <trkpt lat="47.1015" lon="-2.06267">
        <ele>37.9</ele>
        <time>2020-06-04T17:30:05Z</time>
      </trkpt>
      <trkpt lat="47.10147" lon="-2.06263">
        <ele>37.9</ele>
        <time>2020-06-04T17:30:06Z</time>
      </trkpt>
      <trkpt lat="47.10144" lon="-2.06259">
        <ele>37.9</ele>
        <time>2020-06-04T17:30:07Z</time>
      </trkpt>
      <trkpt lat="47.10141" lon="-2.06254">
        <ele>37.9</ele>
        <time>2020-06-04T17:30:08Z</time>
      </trkpt>
      <trkpt lat="47.10138" lon="-2.06249">
        <ele>37.9</ele>
        <time>2020-06-04T17:30:09Z</time>
      </trkpt>
      <trkpt lat="47.10136" lon="-2.06245">
        <ele>37.9</ele>
        <time>2020-06-04T17:30:10Z</time>
      </trkpt>
      <trkpt lat="47.10133" lon="-2.0624">
        <ele>37.9</ele>
        <time>2020-06-04T17:30:11Z</time>
      </trkpt>
      <trkpt lat="47.10131" lon="-2.06235">
        <ele>37.9</ele>
        <time>2020-06-04T17:30:12Z</time>
      </trkpt>
      <trkpt lat="47.10129" lon="-2.0623">
        <ele>37.9</ele>
        <time>2020-06-04T17:30:13Z</time>
      </trkpt>
      <trkpt lat="47.10127" lon="-2.06224">
        <ele>37.9</ele>
        <time>2020-06-04T17:30:14Z</time>
      </trkpt>
      <trkpt lat="47.10125" lon="-2.06218">
        <ele>38</ele>
        <time>2020-06-04T17:30:15Z</time>
      </trkpt>
      <trkpt lat="47.10123" lon="-2.06213">
        <ele>38</ele>
        <time>2020-06-04T17:30:16Z</time>
      </trkpt>
      <trkpt lat="47.10121" lon="-2.06207">
        <ele>38</ele>
        <time>2020-06-04T17:30:17Z</time>
      </trkpt>
      <trkpt lat="47.10119" lon="-2.06202">
        <ele>38.1</ele>
        <time>2020-06-04T17:30:18Z</time>
      </trkpt>
      <trkpt lat="47.10117" lon="-2.06196">
        <ele>38.1</ele>
        <time>2020-06-04T17:30:19Z</time>
      </trkpt>
      <trkpt lat="47.10115" lon="-2.06191">
        <ele>38.1</ele>
        <time>2020-06-04T17:30:20Z</time>
      </trkpt>
      <trkpt lat="47.10114" lon="-2.06186">
        <ele>38.1</ele>
        <time>2020-06-04T17:30:21Z</time>
      </trkpt>
      <trkpt lat="47.10112" lon="-2.0618">
        <ele>38.1</ele>
        <time>2020-06-04T17:30:22Z</time>
      </trkpt>
      <trkpt lat="47.1011" lon="-2.06174">
        <ele>38.1</ele>
        <time>2020-06-04T17:30:23Z</time>
      </trkpt>
      <trkpt lat="47.10109" lon="-2.06168">
        <ele>38.1</ele>
        <time>2020-06-04T17:30:24Z</time>
      </trkpt>
      <trkpt lat="47.10107" lon="-2.06162">
        <ele>38.1</ele>
        <time>2020-06-04T17:30:25Z</time>
      </trkpt>
      <trkpt lat="47.10105" lon="-2.06157">
        <ele>38.1</ele>
        <time>2020-06-04T17:30:26Z</time>
      </trkpt>
      <trkpt lat="47.10103" lon="-2.06152">
        <ele>38.2</ele>
        <time>2020-06-04T17:30:27Z</time>
      </trkpt>
      <trkpt lat="47.10101" lon="-2.06148">
        <ele>38.2</ele>
        <time>2020-06-04T17:30:28Z</time>
      </trkpt>
      <trkpt lat="47.10098" lon="-2.06143">
        <ele>38.2</ele>
        <time>2020-06-04T17:30:29Z</time>
      </trkpt>
      <trkpt lat="47.10096" lon="-2.06138">
        <ele>38.2</ele>
        <time>2020-06-04T17:30:30Z</time>
      </trkpt>
      <trkpt lat="47.10093" lon="-2.06133">
        <ele>38.2</ele>
        <time>2020-06-04T17:30:31Z</time>
      </trkpt>
      <trkpt lat="47.10091" lon="-2.06128">
        <ele>38.2</ele>
        <time>2020-06-04T17:30:32Z</time>
      </trkpt>
      <trkpt lat="47.10089" lon="-2.06123">
        <ele>38.2</ele>
        <time>2020-06-04T17:30:33Z</time>
      </trkpt>
      <trkpt lat="47.10086" lon="-2.06118">
        <ele>38.3</ele>
        <time>2020-06-04T17:30:34Z</time>
      </trkpt>
      <trkpt lat="47.10083" lon="-2.06113">
        <ele>38.2</ele>
        <time>2020-06-04T17:30:35Z</time>
      </trkpt>
      <trkpt lat="47.10081" lon="-2.06108">
        <ele>38.1</ele>
        <time>2020-06-04T17:30:36Z</time>
      </trkpt>
      <trkpt lat="47.10079" lon="-2.06102">
        <ele>38.1</ele>
        <time>2020-06-04T17:30:37Z</time>
      </trkpt>
      <trkpt lat="47.10077" lon="-2.06097">
        <ele>38</ele>
        <time>2020-06-04T17:30:38Z</time>
      </trkpt>
      <trkpt lat="47.10076" lon="-2.06091">
        <ele>38</ele>
        <time>2020-06-04T17:30:39Z</time>
      </trkpt>
      <trkpt lat="47.10075" lon="-2.06086">
        <ele>37.9</ele>
        <time>2020-06-04T17:30:40Z</time>
      </trkpt>
      <trkpt lat="47.10073" lon="-2.06082">
        <ele>37.9</ele>
        <time>2020-06-04T17:30:41Z</time>
      </trkpt>
      <trkpt lat="47.10071" lon="-2.06077">
        <ele>37.9</ele>
        <time>2020-06-04T17:30:42Z</time>
      </trkpt>
      <trkpt lat="47.10069" lon="-2.06074">
        <ele>37.8</ele>
        <time>2020-06-04T17:30:43Z</time>
      </trkpt>
      <trkpt lat="47.10066" lon="-2.06073">
        <ele>37.8</ele>
        <time>2020-06-04T17:30:44Z</time>
      </trkpt>
      <trkpt lat="47.10063" lon="-2.06074">
        <ele>37.7</ele>
        <time>2020-06-04T17:30:45Z</time>
      </trkpt>
      <trkpt lat="47.1006" lon="-2.06075">
        <ele>37.6</ele>
        <time>2020-06-04T17:30:46Z</time>
      </trkpt>
      <trkpt lat="47.10056" lon="-2.06078">
        <ele>37.6</ele>
        <time>2020-06-04T17:30:47Z</time>
      </trkpt>
      <trkpt lat="47.10052" lon="-2.0608">
        <ele>37.6</ele>
        <time>2020-06-04T17:30:48Z</time>
      </trkpt>
      <trkpt lat="47.10048" lon="-2.06082">
        <ele>37.6</ele>
        <time>2020-06-04T17:30:49Z</time>
      </trkpt>
      <trkpt lat="47.10044" lon="-2.06085">
        <ele>37.5</ele>
        <time>2020-06-04T17:30:50Z</time>
      </trkpt>
      <trkpt lat="47.10039" lon="-2.06086">
        <ele>37.4</ele>
        <time>2020-06-04T17:30:51Z</time>
      </trkpt>
      <trkpt lat="47.10035" lon="-2.06089">
        <ele>37.4</ele>
        <time>2020-06-04T17:30:52Z</time>
      </trkpt>
      <trkpt lat="47.10031" lon="-2.06089">
        <ele>37.3</ele>
        <time>2020-06-04T17:30:53Z</time>
      </trkpt>
      <trkpt lat="47.10026" lon="-2.0609">
        <ele>37.2</ele>
        <time>2020-06-04T17:30:54Z</time>
      </trkpt>
      <trkpt lat="47.10022" lon="-2.06092">
        <ele>37.1</ele>
        <time>2020-06-04T17:30:55Z</time>
      </trkpt>
      <trkpt lat="47.10018" lon="-2.06093">
        <ele>37</ele>
        <time>2020-06-04T17:30:56Z</time>
      </trkpt>
      <trkpt lat="47.10013" lon="-2.06092">
        <ele>36.8</ele>
        <time>2020-06-04T17:30:57Z</time>
      </trkpt>
      <trkpt lat="47.10008" lon="-2.06091">
        <ele>36.7</ele>
        <time>2020-06-04T17:30:58Z</time>
      </trkpt>
      <trkpt lat="47.10002" lon="-2.06089">
        <ele>36.6</ele>
        <time>2020-06-04T17:30:59Z</time>
      </trkpt>
      <trkpt lat="47.09997" lon="-2.06086">
        <ele>36.4</ele>
        <time>2020-06-04T17:31:00Z</time>
      </trkpt>
      <trkpt lat="47.09991" lon="-2.06082">
        <ele>36.3</ele>
        <time>2020-06-04T17:31:01Z</time>
      </trkpt>
      <trkpt lat="47.09986" lon="-2.06078">
        <ele>36.2</ele>
        <time>2020-06-04T17:31:02Z</time>
      </trkpt>
      <trkpt lat="47.0998" lon="-2.06073">
        <ele>36</ele>
        <time>2020-06-04T17:31:03Z</time>
      </trkpt>
      <trkpt lat="47.09975" lon="-2.06068">
        <ele>35.9</ele>
        <time>2020-06-04T17:31:04Z</time>
      </trkpt>
      <trkpt lat="47.0997" lon="-2.06062">
        <ele>35.8</ele>
        <time>2020-06-04T17:31:05Z</time>
      </trkpt>
      <trkpt lat="47.09965" lon="-2.06056">
        <ele>35.8</ele>
        <time>2020-06-04T17:31:06Z</time>
      </trkpt>
      <trkpt lat="47.09959" lon="-2.0605">
        <ele>35.7</ele>
        <time>2020-06-04T17:31:07Z</time>
      </trkpt>
      <trkpt lat="47.09954" lon="-2.06045">
        <ele>35.6</ele>
        <time>2020-06-04T17:31:08Z</time>
      </trkpt>
      <trkpt lat="47.09948" lon="-2.0604">
        <ele>35.5</ele>
        <time>2020-06-04T17:31:09Z</time>
      </trkpt>
      <trkpt lat="47.09942" lon="-2.06036">
        <ele>35.4</ele>
        <time>2020-06-04T17:31:10Z</time>
      </trkpt>
      <trkpt lat="47.09936" lon="-2.06031">
        <ele>35.2</ele>
        <time>2020-06-04T17:31:11Z</time>
      </trkpt>
      <trkpt lat="47.0993" lon="-2.06026">
        <ele>35.1</ele>
        <time>2020-06-04T17:31:12Z</time>
      </trkpt>
      <trkpt lat="47.09925" lon="-2.0602">
        <ele>35</ele>
        <time>2020-06-04T17:31:13Z</time>
      </trkpt>
      <trkpt lat="47.09919" lon="-2.06014">
        <ele>34.9</ele>
        <time>2020-06-04T17:31:14Z</time>
      </trkpt>
      <trkpt lat="47.09914" lon="-2.06007">
        <ele>34.8</ele>
        <time>2020-06-04T17:31:15Z</time>
      </trkpt>
      <trkpt lat="47.0991" lon="-2.05999">
        <ele>34.7</ele>
        <time>2020-06-04T17:31:16Z</time>
      </trkpt>
      <trkpt lat="47.09905" lon="-2.05992">
        <ele>34.6</ele>
        <time>2020-06-04T17:31:17Z</time>
      </trkpt>
      <trkpt lat="47.099" lon="-2.05985">
        <ele>34.5</ele>
        <time>2020-06-04T17:31:18Z</time>
      </trkpt>
      <trkpt lat="47.09895" lon="-2.05977">
        <ele>34.4</ele>
        <time>2020-06-04T17:31:19Z</time>
      </trkpt>
      <trkpt lat="47.09891" lon="-2.05969">
        <ele>34.4</ele>
        <time>2020-06-04T17:31:20Z</time>
      </trkpt>
      <trkpt lat="47.09887" lon="-2.05962">
        <ele>34.4</ele>
        <time>2020-06-04T17:31:21Z</time>
      </trkpt>
      <trkpt lat="47.09882" lon="-2.05954">
        <ele>34.3</ele>
        <time>2020-06-04T17:31:22Z</time>
      </trkpt>
      <trkpt lat="47.09878" lon="-2.05947">
        <ele>34.4</ele>
        <time>2020-06-04T17:31:23Z</time>
      </trkpt>
      <trkpt lat="47.09874" lon="-2.05941">
        <ele>34.4</ele>
        <time>2020-06-04T17:31:24Z</time>
      </trkpt>
      <trkpt lat="47.0987" lon="-2.05934">
        <ele>34.4</ele>
        <time>2020-06-04T17:31:25Z</time>
      </trkpt>
      <trkpt lat="47.09866" lon="-2.05927">
        <ele>34.5</ele>
        <time>2020-06-04T17:31:26Z</time>
      </trkpt>
      <trkpt lat="47.09862" lon="-2.0592">
        <ele>34.5</ele>
        <time>2020-06-04T17:31:27Z</time>
      </trkpt>
      <trkpt lat="47.09858" lon="-2.05913">
        <ele>34.6</ele>
        <time>2020-06-04T17:31:28Z</time>
      </trkpt>
      <trkpt lat="47.09855" lon="-2.05907">
        <ele>34.6</ele>
        <time>2020-06-04T17:31:29Z</time>
      </trkpt>
      <trkpt lat="47.09851" lon="-2.05901">
        <ele>34.7</ele>
        <time>2020-06-04T17:31:30Z</time>
      </trkpt>
      <trkpt lat="47.09847" lon="-2.05895">
        <ele>34.7</ele>
        <time>2020-06-04T17:31:31Z</time>
      </trkpt>
      <trkpt lat="47.09844" lon="-2.05889">
        <ele>34.8</ele>
        <time>2020-06-04T17:31:32Z</time>
      </trkpt>
      <trkpt lat="47.09841" lon="-2.05883">
        <ele>34.8</ele>
        <time>2020-06-04T17:31:33Z</time>
      </trkpt>
      <trkpt lat="47.09838" lon="-2.05877">
        <ele>34.8</ele>
        <time>2020-06-04T17:31:34Z</time>
      </trkpt>
      <trkpt lat="47.09836" lon="-2.0587">
        <ele>34.8</ele>
        <time>2020-06-04T17:31:35Z</time>
      </trkpt>
      <trkpt lat="47.09833" lon="-2.05864">
        <ele>34.8</ele>
        <time>2020-06-04T17:31:36Z</time>
      </trkpt>
      <trkpt lat="47.09831" lon="-2.05857">
        <ele>34.8</ele>
        <time>2020-06-04T17:31:37Z</time>
      </trkpt>
      <trkpt lat="47.09829" lon="-2.0585">
        <ele>34.9</ele>
        <time>2020-06-04T17:31:38Z</time>
      </trkpt>
      <trkpt lat="47.09827" lon="-2.05843">
        <ele>34.9</ele>
        <time>2020-06-04T17:31:39Z</time>
      </trkpt>
      <trkpt lat="47.09826" lon="-2.05836">
        <ele>34.9</ele>
        <time>2020-06-04T17:31:40Z</time>
      </trkpt>
      <trkpt lat="47.09823" lon="-2.05828">
        <ele>35</ele>
        <time>2020-06-04T17:31:41Z</time>
      </trkpt>
      <trkpt lat="47.0982" lon="-2.05821">
        <ele>35</ele>
        <time>2020-06-04T17:31:42Z</time>
      </trkpt>
      <trkpt lat="47.09819" lon="-2.05813">
        <ele>35</ele>
        <time>2020-06-04T17:31:43Z</time>
      </trkpt>
      <trkpt lat="47.09817" lon="-2.05806">
        <ele>35.1</ele>
        <time>2020-06-04T17:31:44Z</time>
      </trkpt>
      <trkpt lat="47.09816" lon="-2.05798">
        <ele>35.1</ele>
        <time>2020-06-04T17:31:45Z</time>
      </trkpt>
      <trkpt lat="47.09814" lon="-2.0579">
        <ele>35.2</ele>
        <time>2020-06-04T17:31:46Z</time>
      </trkpt>
      <trkpt lat="47.09812" lon="-2.05782">
        <ele>35.2</ele>
        <time>2020-06-04T17:31:47Z</time>
      </trkpt>
      <trkpt lat="47.0981" lon="-2.05775">
        <ele>35.2</ele>
        <time>2020-06-04T17:31:48Z</time>
      </trkpt>
      <trkpt lat="47.09808" lon="-2.05767">
        <ele>35.2</ele>
        <time>2020-06-04T17:31:49Z</time>
      </trkpt>
      <trkpt lat="47.09806" lon="-2.05759">
        <ele>35.2</ele>
        <time>2020-06-04T17:31:50Z</time>
      </trkpt>
      <trkpt lat="47.09803" lon="-2.05751">
        <ele>35.2</ele>
        <time>2020-06-04T17:31:51Z</time>
      </trkpt>
      <trkpt lat="47.09801" lon="-2.05744">
        <ele>35.2</ele>
        <time>2020-06-04T17:31:52Z</time>
      </trkpt>
      <trkpt lat="47.09799" lon="-2.05737">
        <ele>35.2</ele>
        <time>2020-06-04T17:31:53Z</time>
      </trkpt>
      <trkpt lat="47.09796" lon="-2.05729">
        <ele>35.2</ele>
        <time>2020-06-04T17:31:54Z</time>
      </trkpt>
      <trkpt lat="47.09794" lon="-2.05722">
        <ele>35.2</ele>
        <time>2020-06-04T17:31:55Z</time>
      </trkpt>
      <trkpt lat="47.09791" lon="-2.05714">
        <ele>35.1</ele>
        <time>2020-06-04T17:31:56Z</time>
      </trkpt>
      <trkpt lat="47.09789" lon="-2.05707">
        <ele>35.1</ele>
        <time>2020-06-04T17:31:57Z</time>
      </trkpt>
      <trkpt lat="47.09787" lon="-2.05699">
        <ele>35.1</ele>
        <time>2020-06-04T17:31:58Z</time>
      </trkpt>
      <trkpt lat="47.09785" lon="-2.05692">
        <ele>35.1</ele>
        <time>2020-06-04T17:31:59Z</time>
      </trkpt>
      <trkpt lat="47.09783" lon="-2.05684">
        <ele>35.1</ele>
        <time>2020-06-04T17:32:00Z</time>
      </trkpt>
      <trkpt lat="47.09781" lon="-2.05677">
        <ele>35</ele>
        <time>2020-06-04T17:32:01Z</time>
      </trkpt>
      <trkpt lat="47.09779" lon="-2.0567">
        <ele>34.9</ele>
        <time>2020-06-04T17:32:02Z</time>
      </trkpt>
      <trkpt lat="47.09776" lon="-2.05663">
        <ele>34.8</ele>
        <time>2020-06-04T17:32:03Z</time>
      </trkpt>
      <trkpt lat="47.09773" lon="-2.05655">
        <ele>34.7</ele>
        <time>2020-06-04T17:32:04Z</time>
      </trkpt>
      <trkpt lat="47.09771" lon="-2.05647">
        <ele>34.6</ele>
        <time>2020-06-04T17:32:05Z</time>
      </trkpt>
      <trkpt lat="47.09768" lon="-2.0564">
        <ele>34.5</ele>
        <time>2020-06-04T17:32:06Z</time>
      </trkpt>
      <trkpt lat="47.09765" lon="-2.05632">
        <ele>34.4</ele>
        <time>2020-06-04T17:32:07Z</time>
      </trkpt>
      <trkpt lat="47.09761" lon="-2.05625">
        <ele>34.2</ele>
        <time>2020-06-04T17:32:08Z</time>
      </trkpt>
      <trkpt lat="47.09758" lon="-2.05617">
        <ele>34</ele>
        <time>2020-06-04T17:32:09Z</time>
      </trkpt>
      <trkpt lat="47.09754" lon="-2.05609">
        <ele>33.8</ele>
        <time>2020-06-04T17:32:10Z</time>
      </trkpt>
      <trkpt lat="47.09748" lon="-2.05604">
        <ele>33.6</ele>
        <time>2020-06-04T17:32:11Z</time>
      </trkpt>
      <trkpt lat="47.09742" lon="-2.05598">
        <ele>33.5</ele>
        <time>2020-06-04T17:32:12Z</time>
      </trkpt>
      <trkpt lat="47.09736" lon="-2.05592">
        <ele>33.4</ele>
        <time>2020-06-04T17:32:13Z</time>
      </trkpt>
      <trkpt lat="47.0973" lon="-2.05586">
        <ele>33.2</ele>
        <time>2020-06-04T17:32:14Z</time>
      </trkpt>
      <trkpt lat="47.09724" lon="-2.0558">
        <ele>33</ele>
        <time>2020-06-04T17:32:15Z</time>
      </trkpt>
      <trkpt lat="47.09719" lon="-2.05572">
        <ele>32.8</ele>
        <time>2020-06-04T17:32:16Z</time>
      </trkpt>
      <trkpt lat="47.09713" lon="-2.05565">
        <ele>32.6</ele>
        <time>2020-06-04T17:32:17Z</time>
      </trkpt>
      <trkpt lat="47.09707" lon="-2.05558">
        <ele>32.4</ele>
        <time>2020-06-04T17:32:18Z</time>
      </trkpt>
      <trkpt lat="47.09701" lon="-2.05551">
        <ele>32.2</ele>
        <time>2020-06-04T17:32:19Z</time>
      </trkpt>
      <trkpt lat="47.09696" lon="-2.05544">
        <ele>32</ele>
        <time>2020-06-04T17:32:20Z</time>
      </trkpt>
      <trkpt lat="47.0969" lon="-2.05537">
        <ele>31.8</ele>
        <time>2020-06-04T17:32:21Z</time>
      </trkpt>
      <trkpt lat="47.09685" lon="-2.05529">
        <ele>31.7</ele>
        <time>2020-06-04T17:32:22Z</time>
      </trkpt>
      <trkpt lat="47.0968" lon="-2.05522">
        <ele>31.5</ele>
        <time>2020-06-04T17:32:23Z</time>
      </trkpt>
      <trkpt lat="47.09676" lon="-2.05513">
        <ele>31.4</ele>
        <time>2020-06-04T17:32:24Z</time>
      </trkpt>
      <trkpt lat="47.09671" lon="-2.05504">
        <ele>31.2</ele>
        <time>2020-06-04T17:32:25Z</time>
      </trkpt>
      <trkpt lat="47.09667" lon="-2.05495">
        <ele>31.1</ele>
        <time>2020-06-04T17:32:26Z</time>
      </trkpt>
      <trkpt lat="47.09663" lon="-2.05486">
        <ele>30.9</ele>
        <time>2020-06-04T17:32:27Z</time>
      </trkpt>
      <trkpt lat="47.09659" lon="-2.05477">
        <ele>30.7</ele>
        <time>2020-06-04T17:32:28Z</time>
      </trkpt>
      <trkpt lat="47.09656" lon="-2.0547">
        <ele>30.5</ele>
        <time>2020-06-04T17:32:29Z</time>
      </trkpt>
      <trkpt lat="47.09653" lon="-2.05463">
        <ele>30.3</ele>
        <time>2020-06-04T17:32:30Z</time>
      </trkpt>
      <trkpt lat="47.0965" lon="-2.05457">
        <ele>30.1</ele>
        <time>2020-06-04T17:32:31Z</time>
      </trkpt>
      <trkpt lat="47.09647" lon="-2.05451">
        <ele>29.9</ele>
        <time>2020-06-04T17:32:32Z</time>
      </trkpt>
      <trkpt lat="47.09645" lon="-2.05445">
        <ele>29.7</ele>
        <time>2020-06-04T17:32:33Z</time>
      </trkpt>
      <trkpt lat="47.09642" lon="-2.05439">
        <ele>29.5</ele>
        <time>2020-06-04T17:32:34Z</time>
      </trkpt>
      <trkpt lat="47.09639" lon="-2.05433">
        <ele>29.3</ele>
        <time>2020-06-04T17:32:35Z</time>
      </trkpt>
      <trkpt lat="47.09636" lon="-2.05426">
        <ele>29</ele>
        <time>2020-06-04T17:32:36Z</time>
      </trkpt>
      <trkpt lat="47.09634" lon="-2.05419">
        <ele>28.8</ele>
        <time>2020-06-04T17:32:37Z</time>
      </trkpt>
      <trkpt lat="47.09632" lon="-2.05412">
        <ele>28.6</ele>
        <time>2020-06-04T17:32:38Z</time>
      </trkpt>
      <trkpt lat="47.09629" lon="-2.05405">
        <ele>28.4</ele>
        <time>2020-06-04T17:32:39Z</time>
      </trkpt>
      <trkpt lat="47.09627" lon="-2.05397">
        <ele>28.3</ele>
        <time>2020-06-04T17:32:40Z</time>
      </trkpt>
      <trkpt lat="47.09625" lon="-2.05389">
        <ele>28.2</ele>
        <time>2020-06-04T17:32:41Z</time>
      </trkpt>
      <trkpt lat="47.09622" lon="-2.05381">
        <ele>28</ele>
        <time>2020-06-04T17:32:42Z</time>
      </trkpt>
      <trkpt lat="47.09619" lon="-2.05373">
        <ele>27.9</ele>
        <time>2020-06-04T17:32:43Z</time>
      </trkpt>
      <trkpt lat="47.09616" lon="-2.05366">
        <ele>27.7</ele>
        <time>2020-06-04T17:32:44Z</time>
      </trkpt>
      <trkpt lat="47.09614" lon="-2.05359">
        <ele>27.5</ele>
        <time>2020-06-04T17:32:45Z</time>
      </trkpt>
      <trkpt lat="47.09612" lon="-2.05353">
        <ele>27.3</ele>
        <time>2020-06-04T17:32:46Z</time>
      </trkpt>
      <trkpt lat="47.0961" lon="-2.05347">
        <ele>27.2</ele>
        <time>2020-06-04T17:32:47Z</time>
      </trkpt>
      <trkpt lat="47.09608" lon="-2.05342">
        <ele>27.1</ele>
        <time>2020-06-04T17:32:48Z</time>
      </trkpt>
      <trkpt lat="47.09606" lon="-2.05336">
        <ele>26.9</ele>
        <time>2020-06-04T17:32:49Z</time>
      </trkpt>
      <trkpt lat="47.09604" lon="-2.05331">
        <ele>26.7</ele>
        <time>2020-06-04T17:32:50Z</time>
      </trkpt>
      <trkpt lat="47.09602" lon="-2.05325">
        <ele>26.5</ele>
        <time>2020-06-04T17:32:51Z</time>
      </trkpt>
      <trkpt lat="47.09599" lon="-2.0532">
        <ele>26.2</ele>
        <time>2020-06-04T17:32:52Z</time>
      </trkpt>
      <trkpt lat="47.09596" lon="-2.05315">
        <ele>25.9</ele>
        <time>2020-06-04T17:32:53Z</time>
      </trkpt>
      <trkpt lat="47.09593" lon="-2.0531">
        <ele>25.6</ele>
        <time>2020-06-04T17:32:54Z</time>
      </trkpt>
      <trkpt lat="47.0959" lon="-2.05305">
        <ele>25.3</ele>
        <time>2020-06-04T17:32:55Z</time>
      </trkpt>
      <trkpt lat="47.09587" lon="-2.053">
        <ele>25</ele>
        <time>2020-06-04T17:32:56Z</time>
      </trkpt>
      <trkpt lat="47.09585" lon="-2.05294">
        <ele>24.7</ele>
        <time>2020-06-04T17:32:57Z</time>
      </trkpt>
      <trkpt lat="47.09582" lon="-2.05289">
        <ele>24.4</ele>
        <time>2020-06-04T17:32:58Z</time>
      </trkpt>
      <trkpt lat="47.0958" lon="-2.05282">
        <ele>24</ele>
        <time>2020-06-04T17:32:59Z</time>
      </trkpt>
      <trkpt lat="47.09578" lon="-2.05275">
        <ele>23.6</ele>
        <time>2020-06-04T17:33:00Z</time>
      </trkpt>
      <trkpt lat="47.09576" lon="-2.05269">
        <ele>23.3</ele>
        <time>2020-06-04T17:33:01Z</time>
      </trkpt>
      <trkpt lat="47.09575" lon="-2.05263">
        <ele>23</ele>
        <time>2020-06-04T17:33:02Z</time>
      </trkpt>
      <trkpt lat="47.09575" lon="-2.05256">
        <ele>22.6</ele>
        <time>2020-06-04T17:33:03Z</time>
      </trkpt>
      <trkpt lat="47.09573" lon="-2.05251">
        <ele>22.3</ele>
        <time>2020-06-04T17:33:04Z</time>
      </trkpt>
      <trkpt lat="47.09573" lon="-2.05246">
        <ele>22.1</ele>
        <time>2020-06-04T17:33:05Z</time>
      </trkpt>
      <trkpt lat="47.09572" lon="-2.05242">
        <ele>21.9</ele>
        <time>2020-06-04T17:33:06Z</time>
      </trkpt>
      <trkpt lat="47.09572" lon="-2.05237">
        <ele>21.7</ele>
        <time>2020-06-04T17:33:07Z</time>
      </trkpt>
      <trkpt lat="47.09573" lon="-2.05233">
        <ele>21.5</ele>
        <time>2020-06-04T17:33:08Z</time>
      </trkpt>
      <trkpt lat="47.09574" lon="-2.05228">
        <ele>21.4</ele>
        <time>2020-06-04T17:33:09Z</time>
      </trkpt>
      <trkpt lat="47.09575" lon="-2.05222">
        <ele>21.2</ele>
        <time>2020-06-04T17:33:10Z</time>
      </trkpt>
      <trkpt lat="47.09576" lon="-2.05215">
        <ele>21.1</ele>
        <time>2020-06-04T17:33:11Z</time>
      </trkpt>
      <trkpt lat="47.09578" lon="-2.05209">
        <ele>21</ele>
        <time>2020-06-04T17:33:12Z</time>
      </trkpt>
      <trkpt lat="47.09578" lon="-2.05202">
        <ele>21</ele>
        <time>2020-06-04T17:33:13Z</time>
      </trkpt>
      <trkpt lat="47.09578" lon="-2.05195">
        <ele>21</ele>
        <time>2020-06-04T17:33:14Z</time>
      </trkpt>
      <trkpt lat="47.09576" lon="-2.05187">
        <ele>20.9</ele>
        <time>2020-06-04T17:33:15Z</time>
      </trkpt>
      <trkpt lat="47.09575" lon="-2.05178">
        <ele>20.8</ele>
        <time>2020-06-04T17:33:16Z</time>
      </trkpt>
      <trkpt lat="47.09575" lon="-2.05169">
        <ele>20.7</ele>
        <time>2020-06-04T17:33:17Z</time>
      </trkpt>
      <trkpt lat="47.09575" lon="-2.0516">
        <ele>20.5</ele>
        <time>2020-06-04T17:33:18Z</time>
      </trkpt>
      <trkpt lat="47.09576" lon="-2.05152">
        <ele>20.6</ele>
        <time>2020-06-04T17:33:19Z</time>
      </trkpt>
      <trkpt lat="47.09575" lon="-2.05143">
        <ele>20.6</ele>
        <time>2020-06-04T17:33:20Z</time>
      </trkpt>
      <trkpt lat="47.09576" lon="-2.05135">
        <ele>20.7</ele>
        <time>2020-06-04T17:33:21Z</time>
      </trkpt>
      <trkpt lat="47.09578" lon="-2.0513">
        <ele>20.7</ele>
        <time>2020-06-04T17:33:22Z</time>
      </trkpt>
      <trkpt lat="47.09579" lon="-2.05126">
        <ele>20.8</ele>
        <time>2020-06-04T17:33:23Z</time>
      </trkpt>
      <trkpt lat="47.09581" lon="-2.05122">
        <ele>20.9</ele>
        <time>2020-06-04T17:33:24Z</time>
      </trkpt>
      <trkpt lat="47.09582" lon="-2.05121">
        <ele>20.9</ele>
        <time>2020-06-04T17:33:25Z</time>
      </trkpt>
      <trkpt lat="47.09584" lon="-2.05117">
        <ele>21</ele>
        <time>2020-06-04T17:33:26Z</time>
      </trkpt>
      <trkpt lat="47.09585" lon="-2.05116">
        <ele>21</ele>
        <time>2020-06-04T17:33:27Z</time>
      </trkpt>
      <trkpt lat="47.09585" lon="-2.05114">
        <ele>21.1</ele>
        <time>2020-06-04T17:33:28Z</time>
      </trkpt>
      <trkpt lat="47.09586" lon="-2.05114">
        <ele>21.1</ele>
        <time>2020-06-04T17:33:29Z</time>
      </trkpt>
      <trkpt lat="47.09586" lon="-2.05114">
        <ele>21.1</ele>
        <time>2020-06-04T17:33:30Z</time>
      </trkpt>
      <trkpt lat="47.09586" lon="-2.05113">
        <ele>21.1</ele>
        <time>2020-06-04T17:33:31Z</time>
      </trkpt>
      <trkpt lat="47.09586" lon="-2.05112">
        <ele>21.1</ele>
        <time>2020-06-04T17:33:32Z</time>
      </trkpt>
      <trkpt lat="47.09586" lon="-2.05111">
        <ele>21.1</ele>
        <time>2020-06-04T17:33:33Z</time>
      </trkpt>
      <trkpt lat="47.09587" lon="-2.0511">
        <ele>21.2</ele>
        <time>2020-06-04T17:33:34Z</time>
      </trkpt>
      <trkpt lat="47.09588" lon="-2.05109">
        <ele>21.2</ele>
        <time>2020-06-04T17:33:35Z</time>
      </trkpt>
      <trkpt lat="47.09588" lon="-2.05109">
        <ele>21.2</ele>
        <time>2020-06-04T17:33:36Z</time>
      </trkpt>
      <trkpt lat="47.09588" lon="-2.05109">
        <ele>21.2</ele>
        <time>2020-06-04T17:33:37Z</time>
      </trkpt>
      <trkpt lat="47.09588" lon="-2.05109">
        <ele>21.2</ele>
        <time>2020-06-04T17:33:38Z</time>
      </trkpt>
      <trkpt lat="47.09588" lon="-2.05109">
        <ele>21.2</ele>
        <time>2020-06-04T17:33:39Z</time>
      </trkpt>
      <trkpt lat="47.09589" lon="-2.05109">
        <ele>21.2</ele>
        <time>2020-06-04T17:33:40Z</time>
      </trkpt>
      <trkpt lat="47.09589" lon="-2.05109">
        <ele>21.2</ele>
        <time>2020-06-04T17:33:41Z</time>
      </trkpt>
      <trkpt lat="47.09589" lon="-2.0511">
        <ele>21.2</ele>
        <time>2020-06-04T17:33:42Z</time>
      </trkpt>
      <trkpt lat="47.09589" lon="-2.05109">
        <ele>21.2</ele>
        <time>2020-06-04T17:33:43Z</time>
      </trkpt>
      <trkpt lat="47.09589" lon="-2.05109">
        <ele>21.2</ele>
        <time>2020-06-04T17:33:44Z</time>
      </trkpt>
      <trkpt lat="47.09589" lon="-2.05109">
        <ele>21.3</ele>
        <time>2020-06-04T17:33:45Z</time>
      </trkpt>
      <trkpt lat="47.09601" lon="-2.05108">
        <ele>21.6</ele>
        <time>2020-06-04T17:35:40Z</time>
      </trkpt>
      <trkpt lat="47.09601" lon="-2.05107">
        <ele>21.6</ele>
        <time>2020-06-04T17:35:41Z</time>
      </trkpt>
      <trkpt lat="47.09602" lon="-2.05106">
        <ele>21.6</ele>
        <time>2020-06-04T17:35:42Z</time>
      </trkpt>
      <trkpt lat="47.09601" lon="-2.05106">
        <ele>21.7</ele>
        <time>2020-06-04T17:35:43Z</time>
      </trkpt>
      <trkpt lat="47.09601" lon="-2.05106">
        <ele>21.7</ele>
        <time>2020-06-04T17:35:44Z</time>
      </trkpt>
      <trkpt lat="47.09601" lon="-2.05106">
        <ele>21.7</ele>
        <time>2020-06-04T17:35:45Z</time>
      </trkpt>
      <trkpt lat="47.09601" lon="-2.05106">
        <ele>21.7</ele>
        <time>2020-06-04T17:35:46Z</time>
      </trkpt>
      <trkpt lat="47.09601" lon="-2.05106">
        <ele>21.7</ele>
        <time>2020-06-04T17:35:47Z</time>
      </trkpt>
      <trkpt lat="47.09601" lon="-2.05106">
        <ele>21.7</ele>
        <time>2020-06-04T17:35:48Z</time>
      </trkpt>
      <trkpt lat="47.096" lon="-2.05104">
        <ele>21.7</ele>
        <time>2020-06-04T17:35:49Z</time>
      </trkpt>
      <trkpt lat="47.096" lon="-2.05104">
        <ele>21.7</ele>
        <time>2020-06-04T17:35:50Z</time>
      </trkpt>
      <trkpt lat="47.09601" lon="-2.05103">
        <ele>21.8</ele>
        <time>2020-06-04T17:35:51Z</time>
      </trkpt>
      <trkpt lat="47.09599" lon="-2.05101">
        <ele>21.8</ele>
        <time>2020-06-04T17:35:52Z</time>
      </trkpt>
      <trkpt lat="47.096" lon="-2.05101">
        <ele>21.8</ele>
        <time>2020-06-04T17:35:53Z</time>
      </trkpt>
      <trkpt lat="47.096" lon="-2.051">
        <ele>21.8</ele>
        <time>2020-06-04T17:35:54Z</time>
      </trkpt>
      <trkpt lat="47.096" lon="-2.051">
        <ele>21.8</ele>
        <time>2020-06-04T17:35:55Z</time>
      </trkpt>
      <trkpt lat="47.096" lon="-2.051">
        <ele>21.8</ele>
        <time>2020-06-04T17:35:56Z</time>
      </trkpt>
      <trkpt lat="47.09601" lon="-2.051">
        <ele>21.8</ele>
        <time>2020-06-04T17:35:57Z</time>
      </trkpt>
      <trkpt lat="47.09601" lon="-2.051">
        <ele>21.9</ele>
        <time>2020-06-04T17:35:58Z</time>
      </trkpt>
      <trkpt lat="47.09601" lon="-2.051">
        <ele>21.9</ele>
        <time>2020-06-04T17:35:59Z</time>
      </trkpt>
      <trkpt lat="47.09601" lon="-2.05099">
        <ele>21.9</ele>
        <time>2020-06-04T17:36:00Z</time>
      </trkpt>
      <trkpt lat="47.09602" lon="-2.05099">
        <ele>21.9</ele>
        <time>2020-06-04T17:36:01Z</time>
      </trkpt>
      <trkpt lat="47.09602" lon="-2.05099">
        <ele>21.9</ele>
        <time>2020-06-04T17:36:02Z</time>
      </trkpt>
      <trkpt lat="47.09602" lon="-2.05099">
        <ele>21.9</ele>
        <time>2020-06-04T17:36:03Z</time>
      </trkpt>
      <trkpt lat="47.09602" lon="-2.05099">
        <ele>21.9</ele>
        <time>2020-06-04T17:36:04Z</time>
      </trkpt>
      <trkpt lat="47.09603" lon="-2.05098">
        <ele>21.9</ele>
        <time>2020-06-04T17:36:05Z</time>
      </trkpt>
      <trkpt lat="47.09603" lon="-2.05098">
        <ele>21.9</ele>
        <time>2020-06-04T17:36:06Z</time>
      </trkpt>
      <trkpt lat="47.09606" lon="-2.05096">
        <ele>22</ele>
        <time>2020-06-04T17:36:07Z</time>
      </trkpt>
      <trkpt lat="47.09607" lon="-2.05094">
        <ele>22.1</ele>
        <time>2020-06-04T17:36:08Z</time>
      </trkpt>
      <trkpt lat="47.09608" lon="-2.0509">
        <ele>22.2</ele>
        <time>2020-06-04T17:36:09Z</time>
      </trkpt>
      <trkpt lat="47.0961" lon="-2.05087">
        <ele>22.3</ele>
        <time>2020-06-04T17:36:10Z</time>
      </trkpt>
      <trkpt lat="47.09612" lon="-2.05083">
        <ele>22.4</ele>
        <time>2020-06-04T17:36:11Z</time>
      </trkpt>
      <trkpt lat="47.09614" lon="-2.05079">
        <ele>22.5</ele>
        <time>2020-06-04T17:36:12Z</time>
      </trkpt>
      <trkpt lat="47.09616" lon="-2.05076">
        <ele>22.6</ele>
        <time>2020-06-04T17:36:13Z</time>
      </trkpt>
      <trkpt lat="47.09619" lon="-2.05072">
        <ele>22.7</ele>
        <time>2020-06-04T17:36:14Z</time>
      </trkpt>
      <trkpt lat="47.09621" lon="-2.05068">
        <ele>22.8</ele>
        <time>2020-06-04T17:36:15Z</time>
      </trkpt>
      <trkpt lat="47.09624" lon="-2.05065">
        <ele>22.8</ele>
        <time>2020-06-04T17:36:16Z</time>
      </trkpt>
      <trkpt lat="47.09627" lon="-2.05061">
        <ele>22.9</ele>
        <time>2020-06-04T17:36:17Z</time>
      </trkpt>
      <trkpt lat="47.09631" lon="-2.05057">
        <ele>22.9</ele>
        <time>2020-06-04T17:36:18Z</time>
      </trkpt>
      <trkpt lat="47.09634" lon="-2.05053">
        <ele>23</ele>
        <time>2020-06-04T17:36:19Z</time>
      </trkpt>
      <trkpt lat="47.09636" lon="-2.05049">
        <ele>23</ele>
        <time>2020-06-04T17:36:20Z</time>
      </trkpt>
      <trkpt lat="47.09638" lon="-2.05045">
        <ele>23.1</ele>
        <time>2020-06-04T17:36:21Z</time>
      </trkpt>
      <trkpt lat="47.0964" lon="-2.05042">
        <ele>23.1</ele>
        <time>2020-06-04T17:36:22Z</time>
      </trkpt>
      <trkpt lat="47.09642" lon="-2.05038">
        <ele>23.2</ele>
        <time>2020-06-04T17:36:23Z</time>
      </trkpt>
      <trkpt lat="47.09644" lon="-2.05035">
        <ele>23.3</ele>
        <time>2020-06-04T17:36:24Z</time>
      </trkpt>
      <trkpt lat="47.09646" lon="-2.05032">
        <ele>23.4</ele>
        <time>2020-06-04T17:36:25Z</time>
      </trkpt>
      <trkpt lat="47.09648" lon="-2.05029">
        <ele>23.5</ele>
        <time>2020-06-04T17:36:26Z</time>
      </trkpt>
      <trkpt lat="47.09651" lon="-2.05026">
        <ele>23.6</ele>
        <time>2020-06-04T17:36:27Z</time>
      </trkpt>
      <trkpt lat="47.09653" lon="-2.05023">
        <ele>23.7</ele>
        <time>2020-06-04T17:36:28Z</time>
      </trkpt>
      <trkpt lat="47.09655" lon="-2.05019">
        <ele>23.8</ele>
        <time>2020-06-04T17:36:29Z</time>
      </trkpt>
      <trkpt lat="47.09656" lon="-2.05015">
        <ele>23.9</ele>
        <time>2020-06-04T17:36:30Z</time>
      </trkpt>
      <trkpt lat="47.09658" lon="-2.05012">
        <ele>24</ele>
        <time>2020-06-04T17:36:31Z</time>
      </trkpt>
      <trkpt lat="47.0966" lon="-2.05009">
        <ele>24.1</ele>
        <time>2020-06-04T17:36:32Z</time>
      </trkpt>
      <trkpt lat="47.09662" lon="-2.05004">
        <ele>24.2</ele>
        <time>2020-06-04T17:36:33Z</time>
      </trkpt>
      <trkpt lat="47.09664" lon="-2.05">
        <ele>24.4</ele>
        <time>2020-06-04T17:36:34Z</time>
      </trkpt>
      <trkpt lat="47.09667" lon="-2.04997">
        <ele>24.5</ele>
        <time>2020-06-04T17:36:35Z</time>
      </trkpt>
      <trkpt lat="47.09668" lon="-2.04992">
        <ele>24.6</ele>
        <time>2020-06-04T17:36:36Z</time>
      </trkpt>
      <trkpt lat="47.0967" lon="-2.04988">
        <ele>24.8</ele>
        <time>2020-06-04T17:36:37Z</time>
      </trkpt>
      <trkpt lat="47.09672" lon="-2.04984">
        <ele>24.9</ele>
        <time>2020-06-04T17:36:38Z</time>
      </trkpt>
      <trkpt lat="47.09674" lon="-2.04981">
        <ele>25.1</ele>
        <time>2020-06-04T17:36:39Z</time>
      </trkpt>
      <trkpt lat="47.09676" lon="-2.04977">
        <ele>25.2</ele>
        <time>2020-06-04T17:36:40Z</time>
      </trkpt>
      <trkpt lat="47.09677" lon="-2.04973">
        <ele>25.4</ele>
        <time>2020-06-04T17:36:41Z</time>
      </trkpt>
      <trkpt lat="47.09679" lon="-2.0497">
        <ele>25.6</ele>
        <time>2020-06-04T17:36:42Z</time>
      </trkpt>
      <trkpt lat="47.09681" lon="-2.04966">
        <ele>25.7</ele>
        <time>2020-06-04T17:36:43Z</time>
      </trkpt>
      <trkpt lat="47.09682" lon="-2.04962">
        <ele>25.9</ele>
        <time>2020-06-04T17:36:44Z</time>
      </trkpt>
      <trkpt lat="47.09684" lon="-2.04959">
        <ele>26.1</ele>
        <time>2020-06-04T17:36:45Z</time>
      </trkpt>
      <trkpt lat="47.09684" lon="-2.04954">
        <ele>26.2</ele>
        <time>2020-06-04T17:36:46Z</time>
      </trkpt>
      <trkpt lat="47.09684" lon="-2.04952">
        <ele>26.3</ele>
        <time>2020-06-04T17:36:47Z</time>
      </trkpt>
      <trkpt lat="47.09684" lon="-2.04948">
        <ele>26.5</ele>
        <time>2020-06-04T17:36:48Z</time>
      </trkpt>
      <trkpt lat="47.09684" lon="-2.04947">
        <ele>26.5</ele>
        <time>2020-06-04T17:36:49Z</time>
      </trkpt>
      <trkpt lat="47.09684" lon="-2.04944">
        <ele>26.6</ele>
        <time>2020-06-04T17:36:50Z</time>
      </trkpt>
      <trkpt lat="47.09683" lon="-2.04942">
        <ele>26.5</ele>
        <time>2020-06-04T17:36:51Z</time>
      </trkpt>
      <trkpt lat="47.09683" lon="-2.04941">
        <ele>26.4</ele>
        <time>2020-06-04T17:36:52Z</time>
      </trkpt>
      <trkpt lat="47.09682" lon="-2.0494">
        <ele>26.4</ele>
        <time>2020-06-04T17:36:53Z</time>
      </trkpt>
      <trkpt lat="47.09681" lon="-2.04939">
        <ele>26.4</ele>
        <time>2020-06-04T17:36:54Z</time>
      </trkpt>
      <trkpt lat="47.09681" lon="-2.04938">
        <ele>26.3</ele>
        <time>2020-06-04T17:36:55Z</time>
      </trkpt>
      <trkpt lat="47.09681" lon="-2.0494">
        <ele>26.3</ele>
        <time>2020-06-04T17:36:56Z</time>
      </trkpt>
      <trkpt lat="47.09681" lon="-2.04941">
        <ele>26.3</ele>
        <time>2020-06-04T17:36:57Z</time>
      </trkpt>
      <trkpt lat="47.09681" lon="-2.04942">
        <ele>26.2</ele>
        <time>2020-06-04T17:36:58Z</time>
      </trkpt>
      <trkpt lat="47.09681" lon="-2.04943">
        <ele>26.2</ele>
        <time>2020-06-04T17:36:59Z</time>
      </trkpt>
      <trkpt lat="47.09681" lon="-2.04944">
        <ele>26.2</ele>
        <time>2020-06-04T17:37:00Z</time>
      </trkpt>
      <trkpt lat="47.09681" lon="-2.04945">
        <ele>26.1</ele>
        <time>2020-06-04T17:37:01Z</time>
      </trkpt>
      <trkpt lat="47.09681" lon="-2.04946">
        <ele>26.1</ele>
        <time>2020-06-04T17:37:02Z</time>
      </trkpt>
      <trkpt lat="47.09682" lon="-2.04951">
        <ele>25.9</ele>
        <time>2020-06-04T17:37:03Z</time>
      </trkpt>
      <trkpt lat="47.09682" lon="-2.04957">
        <ele>25.7</ele>
        <time>2020-06-04T17:37:04Z</time>
      </trkpt>
      <trkpt lat="47.09681" lon="-2.04962">
        <ele>25.6</ele>
        <time>2020-06-04T17:37:05Z</time>
      </trkpt>
      <trkpt lat="47.0968" lon="-2.04968">
        <ele>25.4</ele>
        <time>2020-06-04T17:37:06Z</time>
      </trkpt>
      <trkpt lat="47.09678" lon="-2.04974">
        <ele>25.2</ele>
        <time>2020-06-04T17:37:07Z</time>
      </trkpt>
      <trkpt lat="47.09676" lon="-2.04981">
        <ele>24.9</ele>
        <time>2020-06-04T17:37:08Z</time>
      </trkpt>
      <trkpt lat="47.09673" lon="-2.04987">
        <ele>24.7</ele>
        <time>2020-06-04T17:37:09Z</time>
      </trkpt>
      <trkpt lat="47.0967" lon="-2.04993">
        <ele>24.6</ele>
        <time>2020-06-04T17:37:10Z</time>
      </trkpt>
      <trkpt lat="47.09668" lon="-2.04998">
        <ele>24.4</ele>
        <time>2020-06-04T17:37:11Z</time>
      </trkpt>
      <trkpt lat="47.09665" lon="-2.05003">
        <ele>24.3</ele>
        <time>2020-06-04T17:37:12Z</time>
      </trkpt>
      <trkpt lat="47.09662" lon="-2.05008">
        <ele>24.2</ele>
        <time>2020-06-04T17:37:13Z</time>
      </trkpt>
      <trkpt lat="47.09659" lon="-2.05011">
        <ele>24</ele>
        <time>2020-06-04T17:37:14Z</time>
      </trkpt>
      <trkpt lat="47.09655" lon="-2.05016">
        <ele>23.9</ele>
        <time>2020-06-04T17:37:15Z</time>
      </trkpt>
      <trkpt lat="47.09652" lon="-2.0502">
        <ele>23.7</ele>
        <time>2020-06-04T17:37:16Z</time>
      </trkpt>
      <trkpt lat="47.0965" lon="-2.05025">
        <ele>23.6</ele>
        <time>2020-06-04T17:37:17Z</time>
      </trkpt>
      <trkpt lat="47.09647" lon="-2.0503">
        <ele>23.5</ele>
        <time>2020-06-04T17:37:18Z</time>
      </trkpt>
      <trkpt lat="47.09645" lon="-2.05033">
        <ele>23.4</ele>
        <time>2020-06-04T17:37:19Z</time>
      </trkpt>
      <trkpt lat="47.09643" lon="-2.05036">
        <ele>23.4</ele>
        <time>2020-06-04T17:37:20Z</time>
      </trkpt>
      <trkpt lat="47.09643" lon="-2.05038">
        <ele>23.3</ele>
        <time>2020-06-04T17:37:21Z</time>
      </trkpt>
      <trkpt lat="47.09643" lon="-2.05038">
        <ele>23.3</ele>
        <time>2020-06-04T17:37:22Z</time>
      </trkpt>
      <trkpt lat="47.09643" lon="-2.05038">
        <ele>23.3</ele>
        <time>2020-06-04T17:37:23Z</time>
      </trkpt>
      <trkpt lat="47.09644" lon="-2.05038">
        <ele>23.3</ele>
        <time>2020-06-04T17:37:24Z</time>
      </trkpt>
      <trkpt lat="47.09643" lon="-2.05038">
        <ele>23.3</ele>
        <time>2020-06-04T17:37:25Z</time>
      </trkpt>
      <trkpt lat="47.09643" lon="-2.05039">
        <ele>23.3</ele>
        <time>2020-06-04T17:37:26Z</time>
      </trkpt>
      <trkpt lat="47.09642" lon="-2.05039">
        <ele>23.3</ele>
        <time>2020-06-04T17:37:27Z</time>
      </trkpt>
      <trkpt lat="47.09641" lon="-2.05039">
        <ele>23.2</ele>
        <time>2020-06-04T17:37:28Z</time>
      </trkpt>
      <trkpt lat="47.0964" lon="-2.0504">
        <ele>23.2</ele>
        <time>2020-06-04T17:37:29Z</time>
      </trkpt>
      <trkpt lat="47.0964" lon="-2.0504">
        <ele>23.2</ele>
        <time>2020-06-04T17:37:30Z</time>
      </trkpt>
      <trkpt lat="47.0964" lon="-2.0504">
        <ele>23.2</ele>
        <time>2020-06-04T17:37:31Z</time>
      </trkpt>
      <trkpt lat="47.09641" lon="-2.0504">
        <ele>23.2</ele>
        <time>2020-06-04T17:37:32Z</time>
      </trkpt>
      <trkpt lat="47.0964" lon="-2.05041">
        <ele>23.2</ele>
        <time>2020-06-04T17:37:33Z</time>
      </trkpt>
      <trkpt lat="47.0964" lon="-2.0504">
        <ele>23.2</ele>
        <time>2020-06-04T17:37:34Z</time>
      </trkpt>
      <trkpt lat="47.0964" lon="-2.0504">
        <ele>23.2</ele>
        <time>2020-06-04T17:37:35Z</time>
      </trkpt>
      <trkpt lat="47.09639" lon="-2.05039">
        <ele>23.2</ele>
        <time>2020-06-04T17:37:36Z</time>
      </trkpt>
      <trkpt lat="47.0964" lon="-2.05039">
        <ele>23.2</ele>
        <time>2020-06-04T17:37:37Z</time>
      </trkpt>
      <trkpt lat="47.0964" lon="-2.05039">
        <ele>23.2</ele>
        <time>2020-06-04T17:37:38Z</time>
      </trkpt>
      <trkpt lat="47.0964" lon="-2.05039">
        <ele>23.2</ele>
        <time>2020-06-04T17:37:39Z</time>
      </trkpt>
      <trkpt lat="47.0964" lon="-2.0504">
        <ele>23.1</ele>
        <time>2020-06-04T17:37:40Z</time>
      </trkpt>
      <trkpt lat="47.09637" lon="-2.05044">
        <ele>23.1</ele>
        <time>2020-06-04T17:37:46Z</time>
      </trkpt>
      <trkpt lat="47.09636" lon="-2.05045">
        <ele>23.1</ele>
        <time>2020-06-04T17:37:47Z</time>
      </trkpt>
      <trkpt lat="47.09635" lon="-2.05046">
        <ele>23</ele>
        <time>2020-06-04T17:37:48Z</time>
      </trkpt>
      <trkpt lat="47.09634" lon="-2.05046">
        <ele>23</ele>
        <time>2020-06-04T17:37:49Z</time>
      </trkpt>
      <trkpt lat="47.09634" lon="-2.05046">
        <ele>23</ele>
        <time>2020-06-04T17:37:50Z</time>
      </trkpt>
      <trkpt lat="47.09634" lon="-2.05046">
        <ele>23</ele>
        <time>2020-06-04T17:37:51Z</time>
      </trkpt>
      <trkpt lat="47.09635" lon="-2.05046">
        <ele>23</ele>
        <time>2020-06-04T17:37:52Z</time>
      </trkpt>
      <trkpt lat="47.09635" lon="-2.05046">
        <ele>23</ele>
        <time>2020-06-04T17:37:53Z</time>
      </trkpt>
      <trkpt lat="47.09634" lon="-2.05046">
        <ele>23</ele>
        <time>2020-06-04T17:37:54Z</time>
      </trkpt>
      <trkpt lat="47.09635" lon="-2.05046">
        <ele>23</ele>
        <time>2020-06-04T17:37:55Z</time>
      </trkpt>
      <trkpt lat="47.09635" lon="-2.05046">
        <ele>23</ele>
        <time>2020-06-04T17:37:56Z</time>
      </trkpt>
      <trkpt lat="47.09635" lon="-2.05047">
        <ele>23</ele>
        <time>2020-06-04T17:37:57Z</time>
      </trkpt>
      <trkpt lat="47.09635" lon="-2.05046">
        <ele>23</ele>
        <time>2020-06-04T17:37:58Z</time>
      </trkpt>
      <trkpt lat="47.09635" lon="-2.05046">
        <ele>23</ele>
        <time>2020-06-04T17:37:59Z</time>
      </trkpt>
      <trkpt lat="47.09634" lon="-2.05046">
        <ele>23</ele>
        <time>2020-06-04T17:38:00Z</time>
      </trkpt>
      <trkpt lat="47.09632" lon="-2.05057">
        <ele>22.9</ele>
        <time>2020-06-04T17:38:56Z</time>
      </trkpt>
      <trkpt lat="47.0963" lon="-2.0506">
        <ele>22.9</ele>
        <time>2020-06-04T17:38:57Z</time>
      </trkpt>
      <trkpt lat="47.09628" lon="-2.05063">
        <ele>22.9</ele>
        <time>2020-06-04T17:38:58Z</time>
      </trkpt>
      <trkpt lat="47.09626" lon="-2.05067">
        <ele>22.8</ele>
        <time>2020-06-04T17:38:59Z</time>
      </trkpt>
      <trkpt lat="47.09623" lon="-2.05069">
        <ele>22.7</ele>
        <time>2020-06-04T17:39:00Z</time>
      </trkpt>
      <trkpt lat="47.0962" lon="-2.05073">
        <ele>22.6</ele>
        <time>2020-06-04T17:39:01Z</time>
      </trkpt>
      <trkpt lat="47.09616" lon="-2.05076">
        <ele>22.5</ele>
        <time>2020-06-04T17:39:02Z</time>
      </trkpt>
      <trkpt lat="47.09613" lon="-2.05079">
        <ele>22.3</ele>
        <time>2020-06-04T17:39:03Z</time>
      </trkpt>
      <trkpt lat="47.0961" lon="-2.05083">
        <ele>22.1</ele>
        <time>2020-06-04T17:39:04Z</time>
      </trkpt>
      <trkpt lat="47.09608" lon="-2.0509">
        <ele>22</ele>
        <time>2020-06-04T17:39:05Z</time>
      </trkpt>
      <trkpt lat="47.09605" lon="-2.05095">
        <ele>21.8</ele>
        <time>2020-06-04T17:39:06Z</time>
      </trkpt>
      <trkpt lat="47.09602" lon="-2.05102">
        <ele>21.6</ele>
        <time>2020-06-04T17:39:07Z</time>
      </trkpt>
      <trkpt lat="47.09598" lon="-2.05108">
        <ele>21.4</ele>
        <time>2020-06-04T17:39:08Z</time>
      </trkpt>
      <trkpt lat="47.09594" lon="-2.05115">
        <ele>21.1</ele>
        <time>2020-06-04T17:39:09Z</time>
      </trkpt>
      <trkpt lat="47.0959" lon="-2.05123">
        <ele>20.9</ele>
        <time>2020-06-04T17:39:10Z</time>
      </trkpt>
      <trkpt lat="47.09586" lon="-2.0513">
        <ele>20.8</ele>
        <time>2020-06-04T17:39:11Z</time>
      </trkpt>
      <trkpt lat="47.09582" lon="-2.05137">
        <ele>20.6</ele>
        <time>2020-06-04T17:39:12Z</time>
      </trkpt>
      <trkpt lat="47.0958" lon="-2.05145">
        <ele>20.6</ele>
        <time>2020-06-04T17:39:13Z</time>
      </trkpt>
      <trkpt lat="47.09578" lon="-2.05155">
        <ele>20.6</ele>
        <time>2020-06-04T17:39:14Z</time>
      </trkpt>
      <trkpt lat="47.09578" lon="-2.05166">
        <ele>20.6</ele>
        <time>2020-06-04T17:39:15Z</time>
      </trkpt>
      <trkpt lat="47.09579" lon="-2.05177">
        <ele>20.8</ele>
        <time>2020-06-04T17:39:16Z</time>
      </trkpt>
      <trkpt lat="47.09581" lon="-2.05188">
        <ele>20.9</ele>
        <time>2020-06-04T17:39:17Z</time>
      </trkpt>
      <trkpt lat="47.09581" lon="-2.05199">
        <ele>21</ele>
        <time>2020-06-04T17:39:18Z</time>
      </trkpt>
      <trkpt lat="47.09581" lon="-2.05209">
        <ele>21.1</ele>
        <time>2020-06-04T17:39:19Z</time>
      </trkpt>
      <trkpt lat="47.0958" lon="-2.05218">
        <ele>21.3</ele>
        <time>2020-06-04T17:39:20Z</time>
      </trkpt>
      <trkpt lat="47.09578" lon="-2.05227">
        <ele>21.5</ele>
        <time>2020-06-04T17:39:21Z</time>
      </trkpt>
      <trkpt lat="47.09576" lon="-2.05235">
        <ele>21.8</ele>
        <time>2020-06-04T17:39:22Z</time>
      </trkpt>
      <trkpt lat="47.09575" lon="-2.05242">
        <ele>22.1</ele>
        <time>2020-06-04T17:39:23Z</time>
      </trkpt>
      <trkpt lat="47.09572" lon="-2.0525">
        <ele>22.4</ele>
        <time>2020-06-04T17:39:24Z</time>
      </trkpt>
      <trkpt lat="47.09574" lon="-2.05258">
        <ele>22.8</ele>
        <time>2020-06-04T17:39:25Z</time>
      </trkpt>
      <trkpt lat="47.09575" lon="-2.05265">
        <ele>23.1</ele>
        <time>2020-06-04T17:39:26Z</time>
      </trkpt>
      <trkpt lat="47.09577" lon="-2.05271">
        <ele>23.4</ele>
        <time>2020-06-04T17:39:27Z</time>
      </trkpt>
      <trkpt lat="47.09578" lon="-2.05276">
        <ele>23.7</ele>
        <time>2020-06-04T17:39:28Z</time>
      </trkpt>
      <trkpt lat="47.09579" lon="-2.0528">
        <ele>23.9</ele>
        <time>2020-06-04T17:39:29Z</time>
      </trkpt>
      <trkpt lat="47.0958" lon="-2.05285">
        <ele>24.1</ele>
        <time>2020-06-04T17:39:30Z</time>
      </trkpt>
      <trkpt lat="47.09582" lon="-2.0529">
        <ele>24.4</ele>
        <time>2020-06-04T17:39:31Z</time>
      </trkpt>
      <trkpt lat="47.09584" lon="-2.05295">
        <ele>24.7</ele>
        <time>2020-06-04T17:39:32Z</time>
      </trkpt>
      <trkpt lat="47.09586" lon="-2.05299">
        <ele>24.9</ele>
        <time>2020-06-04T17:39:33Z</time>
      </trkpt>
      <trkpt lat="47.09587" lon="-2.05303">
        <ele>25</ele>
        <time>2020-06-04T17:39:34Z</time>
      </trkpt>
      <trkpt lat="47.0959" lon="-2.05308">
        <ele>25.3</ele>
        <time>2020-06-04T17:39:35Z</time>
      </trkpt>
      <trkpt lat="47.09592" lon="-2.05312">
        <ele>25.5</ele>
        <time>2020-06-04T17:39:36Z</time>
      </trkpt>
      <trkpt lat="47.09594" lon="-2.05315">
        <ele>25.7</ele>
        <time>2020-06-04T17:39:37Z</time>
      </trkpt>
      <trkpt lat="47.09596" lon="-2.05319">
        <ele>25.9</ele>
        <time>2020-06-04T17:39:38Z</time>
      </trkpt>
      <trkpt lat="47.09599" lon="-2.05325">
        <ele>26.2</ele>
        <time>2020-06-04T17:39:39Z</time>
      </trkpt>
      <trkpt lat="47.09602" lon="-2.0533">
        <ele>26.5</ele>
        <time>2020-06-04T17:39:40Z</time>
      </trkpt>
      <trkpt lat="47.09605" lon="-2.05336">
        <ele>26.7</ele>
        <time>2020-06-04T17:39:41Z</time>
      </trkpt>
      <trkpt lat="47.09609" lon="-2.0534">
        <ele>26.9</ele>
        <time>2020-06-04T17:39:42Z</time>
      </trkpt>
      <trkpt lat="47.09613" lon="-2.05341">
        <ele>27.1</ele>
        <time>2020-06-04T17:39:43Z</time>
      </trkpt>
      <trkpt lat="47.09616" lon="-2.0534">
        <ele>27.3</ele>
        <time>2020-06-04T17:39:44Z</time>
      </trkpt>
      <trkpt lat="47.0962" lon="-2.05335">
        <ele>27.5</ele>
        <time>2020-06-04T17:39:45Z</time>
      </trkpt>
      <trkpt lat="47.09623" lon="-2.05332">
        <ele>27.6</ele>
        <time>2020-06-04T17:39:46Z</time>
      </trkpt>
      <trkpt lat="47.09627" lon="-2.0533">
        <ele>27.7</ele>
        <time>2020-06-04T17:39:47Z</time>
      </trkpt>
      <trkpt lat="47.09632" lon="-2.05326">
        <ele>27.9</ele>
        <time>2020-06-04T17:39:48Z</time>
      </trkpt>
      <trkpt lat="47.09637" lon="-2.05322">
        <ele>28</ele>
        <time>2020-06-04T17:39:49Z</time>
      </trkpt>
      <trkpt lat="47.09641" lon="-2.05318">
        <ele>28.2</ele>
        <time>2020-06-04T17:39:50Z</time>
      </trkpt>
      <trkpt lat="47.09646" lon="-2.05313">
        <ele>28.4</ele>
        <time>2020-06-04T17:39:51Z</time>
      </trkpt>
      <trkpt lat="47.09649" lon="-2.05308">
        <ele>28.5</ele>
        <time>2020-06-04T17:39:52Z</time>
      </trkpt>
      <trkpt lat="47.09652" lon="-2.05302">
        <ele>28.6</ele>
        <time>2020-06-04T17:39:53Z</time>
      </trkpt>
      <trkpt lat="47.09656" lon="-2.05295">
        <ele>28.8</ele>
        <time>2020-06-04T17:39:54Z</time>
      </trkpt>
      <trkpt lat="47.09661" lon="-2.05288">
        <ele>28.9</ele>
        <time>2020-06-04T17:39:55Z</time>
      </trkpt>
      <trkpt lat="47.09665" lon="-2.05284">
        <ele>29</ele>
        <time>2020-06-04T17:39:56Z</time>
      </trkpt>
      <trkpt lat="47.09669" lon="-2.05279">
        <ele>29.2</ele>
        <time>2020-06-04T17:39:57Z</time>
      </trkpt>
      <trkpt lat="47.09673" lon="-2.05274">
        <ele>29.3</ele>
        <time>2020-06-04T17:39:58Z</time>
      </trkpt>
      <trkpt lat="47.09677" lon="-2.05269">
        <ele>29.4</ele>
        <time>2020-06-04T17:39:59Z</time>
      </trkpt>
      <trkpt lat="47.09681" lon="-2.05264">
        <ele>29.6</ele>
        <time>2020-06-04T17:40:00Z</time>
      </trkpt>
      <trkpt lat="47.09684" lon="-2.0526">
        <ele>29.7</ele>
        <time>2020-06-04T17:40:01Z</time>
      </trkpt>
      <trkpt lat="47.09688" lon="-2.05254">
        <ele>29.8</ele>
        <time>2020-06-04T17:40:02Z</time>
      </trkpt>
      <trkpt lat="47.09691" lon="-2.05249">
        <ele>29.9</ele>
        <time>2020-06-04T17:40:03Z</time>
      </trkpt>
      <trkpt lat="47.09695" lon="-2.05245">
        <ele>30.1</ele>
        <time>2020-06-04T17:40:04Z</time>
      </trkpt>
      <trkpt lat="47.097" lon="-2.0524">
        <ele>30.2</ele>
        <time>2020-06-04T17:40:05Z</time>
      </trkpt>
      <trkpt lat="47.09704" lon="-2.05237">
        <ele>30.3</ele>
        <time>2020-06-04T17:40:06Z</time>
      </trkpt>
      <trkpt lat="47.09708" lon="-2.05235">
        <ele>30.4</ele>
        <time>2020-06-04T17:40:07Z</time>
      </trkpt>
      <trkpt lat="47.09712" lon="-2.05234">
        <ele>30.4</ele>
        <time>2020-06-04T17:40:08Z</time>
      </trkpt>
      <trkpt lat="47.09716" lon="-2.05233">
        <ele>30.5</ele>
        <time>2020-06-04T17:40:09Z</time>
      </trkpt>
      <trkpt lat="47.09721" lon="-2.05231">
        <ele>30.5</ele>
        <time>2020-06-04T17:40:10Z</time>
      </trkpt>
      <trkpt lat="47.09726" lon="-2.05229">
        <ele>30.6</ele>
        <time>2020-06-04T17:40:11Z</time>
      </trkpt>
      <trkpt lat="47.0973" lon="-2.05227">
        <ele>30.6</ele>
        <time>2020-06-04T17:40:12Z</time>
      </trkpt>
      <trkpt lat="47.09734" lon="-2.05226">
        <ele>30.7</ele>
        <time>2020-06-04T17:40:13Z</time>
      </trkpt>
      <trkpt lat="47.09737" lon="-2.05225">
        <ele>30.7</ele>
        <time>2020-06-04T17:40:14Z</time>
      </trkpt>
      <trkpt lat="47.09741" lon="-2.05224">
        <ele>30.8</ele>
        <time>2020-06-04T17:40:15Z</time>
      </trkpt>
      <trkpt lat="47.09745" lon="-2.05222">
        <ele>30.8</ele>
        <time>2020-06-04T17:40:16Z</time>
      </trkpt>
      <trkpt lat="47.09749" lon="-2.05219">
        <ele>30.8</ele>
        <time>2020-06-04T17:40:17Z</time>
      </trkpt>
      <trkpt lat="47.09751" lon="-2.05215">
        <ele>30.8</ele>
        <time>2020-06-04T17:40:18Z</time>
      </trkpt>
      <trkpt lat="47.0975" lon="-2.05212">
        <ele>30.9</ele>
        <time>2020-06-04T17:40:19Z</time>
      </trkpt>
      <trkpt lat="47.09748" lon="-2.05208">
        <ele>30.2</ele>
        <time>2020-06-04T17:40:20Z</time>
      </trkpt>
      <trkpt lat="47.09745" lon="-2.05206">
        <ele>30</ele>
        <time>2020-06-04T17:40:21Z</time>
      </trkpt>
      <trkpt lat="47.09741" lon="-2.05206">
        <ele>29.8</ele>
        <time>2020-06-04T17:40:22Z</time>
      </trkpt>
      <trkpt lat="47.0974" lon="-2.05206">
        <ele>29.7</ele>
        <time>2020-06-04T17:40:23Z</time>
      </trkpt>
      <trkpt lat="47.09737" lon="-2.05208">
        <ele>29.5</ele>
        <time>2020-06-04T17:40:24Z</time>
      </trkpt>
      <trkpt lat="47.09734" lon="-2.05211">
        <ele>29.3</ele>
        <time>2020-06-04T17:40:25Z</time>
      </trkpt>
      <trkpt lat="47.0973" lon="-2.05213">
        <ele>29</ele>
        <time>2020-06-04T17:40:26Z</time>
      </trkpt>
      <trkpt lat="47.09726" lon="-2.05216">
        <ele>28.8</ele>
        <time>2020-06-04T17:40:27Z</time>
      </trkpt>
      <trkpt lat="47.09722" lon="-2.05218">
        <ele>28.6</ele>
        <time>2020-06-04T17:40:28Z</time>
      </trkpt>
      <trkpt lat="47.09718" lon="-2.05219">
        <ele>28.5</ele>
        <time>2020-06-04T17:40:29Z</time>
      </trkpt>
      <trkpt lat="47.09713" lon="-2.05221">
        <ele>28.3</ele>
        <time>2020-06-04T17:40:30Z</time>
      </trkpt>
      <trkpt lat="47.09709" lon="-2.05222">
        <ele>28.2</ele>
        <time>2020-06-04T17:40:31Z</time>
      </trkpt>
      <trkpt lat="47.09705" lon="-2.05225">
        <ele>28</ele>
        <time>2020-06-04T17:40:32Z</time>
      </trkpt>
      <trkpt lat="47.09701" lon="-2.05227">
        <ele>28</ele>
        <time>2020-06-04T17:40:33Z</time>
      </trkpt>
      <trkpt lat="47.09698" lon="-2.05228">
        <ele>27.9</ele>
        <time>2020-06-04T17:40:34Z</time>
      </trkpt>
      <trkpt lat="47.09697" lon="-2.05228">
        <ele>27.9</ele>
        <time>2020-06-04T17:40:35Z</time>
      </trkpt>
      <trkpt lat="47.09698" lon="-2.05227">
        <ele>27.9</ele>
        <time>2020-06-04T17:40:36Z</time>
      </trkpt>
      <trkpt lat="47.09698" lon="-2.05227">
        <ele>27.9</ele>
        <time>2020-06-04T17:40:37Z</time>
      </trkpt>
      <trkpt lat="47.09699" lon="-2.05227">
        <ele>27.8</ele>
        <time>2020-06-04T17:40:38Z</time>
      </trkpt>
      <trkpt lat="47.09699" lon="-2.05228">
        <ele>27.8</ele>
        <time>2020-06-04T17:40:39Z</time>
      </trkpt>
      <trkpt lat="47.09698" lon="-2.05228">
        <ele>27.8</ele>
        <time>2020-06-04T17:40:40Z</time>
      </trkpt>
      <trkpt lat="47.09698" lon="-2.05228">
        <ele>27.8</ele>
        <time>2020-06-04T17:40:41Z</time>
      </trkpt>
      <trkpt lat="47.09697" lon="-2.05228">
        <ele>27.8</ele>
        <time>2020-06-04T17:40:42Z</time>
      </trkpt>
      <trkpt lat="47.09697" lon="-2.05228">
        <ele>27.8</ele>
        <time>2020-06-04T17:40:43Z</time>
      </trkpt>
      <trkpt lat="47.09696" lon="-2.05227">
        <ele>27.7</ele>
        <time>2020-06-04T17:40:44Z</time>
      </trkpt>
      <trkpt lat="47.09695" lon="-2.05227">
        <ele>27.7</ele>
        <time>2020-06-04T17:40:45Z</time>
      </trkpt>
      <trkpt lat="47.09695" lon="-2.05225">
        <ele>27.7</ele>
        <time>2020-06-04T17:40:46Z</time>
      </trkpt>
      <trkpt lat="47.09694" lon="-2.05222">
        <ele>27.7</ele>
        <time>2020-06-04T17:40:47Z</time>
      </trkpt>
      <trkpt lat="47.09694" lon="-2.0522">
        <ele>27.7</ele>
        <time>2020-06-04T17:40:48Z</time>
      </trkpt>
      <trkpt lat="47.09694" lon="-2.05218">
        <ele>27.7</ele>
        <time>2020-06-04T17:40:49Z</time>
      </trkpt>
      <trkpt lat="47.09694" lon="-2.05217">
        <ele>27.8</ele>
        <time>2020-06-04T17:40:50Z</time>
      </trkpt>
      <trkpt lat="47.09694" lon="-2.05216">
        <ele>27.7</ele>
        <time>2020-06-04T17:40:51Z</time>
      </trkpt>
      <trkpt lat="47.09692" lon="-2.05215">
        <ele>27.7</ele>
        <time>2020-06-04T17:40:52Z</time>
      </trkpt>
      <trkpt lat="47.0969" lon="-2.05214">
        <ele>27.6</ele>
        <time>2020-06-04T17:40:53Z</time>
      </trkpt>
      <trkpt lat="47.09689" lon="-2.05214">
        <ele>27.6</ele>
        <time>2020-06-04T17:40:54Z</time>
      </trkpt>
      <trkpt lat="47.09688" lon="-2.05216">
        <ele>27.6</ele>
        <time>2020-06-04T17:40:55Z</time>
      </trkpt>
      <trkpt lat="47.09684" lon="-2.0522">
        <ele>27.5</ele>
        <time>2020-06-04T17:40:56Z</time>
      </trkpt>
      <trkpt lat="47.09683" lon="-2.05222">
        <ele>27.4</ele>
        <time>2020-06-04T17:40:57Z</time>
      </trkpt>
      <trkpt lat="47.0968" lon="-2.05224">
        <ele>27.3</ele>
        <time>2020-06-04T17:40:58Z</time>
      </trkpt>
      <trkpt lat="47.09678" lon="-2.05226">
        <ele>27.1</ele>
        <time>2020-06-04T17:40:59Z</time>
      </trkpt>
      <trkpt lat="47.09675" lon="-2.05227">
        <ele>27.1</ele>
        <time>2020-06-04T17:41:00Z</time>
      </trkpt>
      <trkpt lat="47.09674" lon="-2.05226">
        <ele>27.1</ele>
        <time>2020-06-04T17:41:01Z</time>
      </trkpt>
      <trkpt lat="47.09672" lon="-2.05222">
        <ele>27</ele>
        <time>2020-06-04T17:41:02Z</time>
      </trkpt>
      <trkpt lat="47.0967" lon="-2.05216">
        <ele>27</ele>
        <time>2020-06-04T17:41:03Z</time>
      </trkpt>
      <trkpt lat="47.09667" lon="-2.05211">
        <ele>27</ele>
        <time>2020-06-04T17:41:04Z</time>
      </trkpt>
      <trkpt lat="47.09664" lon="-2.05207">
        <ele>26.9</ele>
        <time>2020-06-04T17:41:05Z</time>
      </trkpt>
      <trkpt lat="47.09662" lon="-2.05202">
        <ele>26.9</ele>
        <time>2020-06-04T17:41:06Z</time>
      </trkpt>
      <trkpt lat="47.0966" lon="-2.05198">
        <ele>26.8</ele>
        <time>2020-06-04T17:41:07Z</time>
      </trkpt>
      <trkpt lat="47.09655" lon="-2.05193">
        <ele>26.7</ele>
        <time>2020-06-04T17:41:08Z</time>
      </trkpt>
      <trkpt lat="47.09653" lon="-2.05189">
        <ele>26.6</ele>
        <time>2020-06-04T17:41:09Z</time>
      </trkpt>
      <trkpt lat="47.0965" lon="-2.05184">
        <ele>26.5</ele>
        <time>2020-06-04T17:41:10Z</time>
      </trkpt>
      <trkpt lat="47.09647" lon="-2.05179">
        <ele>26.4</ele>
        <time>2020-06-04T17:41:11Z</time>
      </trkpt>
      <trkpt lat="47.09645" lon="-2.05176">
        <ele>26.3</ele>
        <time>2020-06-04T17:41:12Z</time>
      </trkpt>
      <trkpt lat="47.09645" lon="-2.05172">
        <ele>26.2</ele>
        <time>2020-06-04T17:41:13Z</time>
      </trkpt>
      <trkpt lat="47.09645" lon="-2.0517">
        <ele>26.1</ele>
        <time>2020-06-04T17:41:14Z</time>
      </trkpt>
      <trkpt lat="47.09647" lon="-2.05166">
        <ele>26</ele>
        <time>2020-06-04T17:41:15Z</time>
      </trkpt>
      <trkpt lat="47.09648" lon="-2.05162">
        <ele>25.9</ele>
        <time>2020-06-04T17:41:16Z</time>
      </trkpt>
      <trkpt lat="47.0965" lon="-2.05158">
        <ele>25.7</ele>
        <time>2020-06-04T17:41:17Z</time>
      </trkpt>
      <trkpt lat="47.09651" lon="-2.05157">
        <ele>25.6</ele>
        <time>2020-06-04T17:41:18Z</time>
      </trkpt>
      <trkpt lat="47.09653" lon="-2.05156">
        <ele>25.5</ele>
        <time>2020-06-04T17:41:19Z</time>
      </trkpt>
      <trkpt lat="47.09654" lon="-2.05155">
        <ele>25.5</ele>
        <time>2020-06-04T17:41:20Z</time>
      </trkpt>
      <trkpt lat="47.09654" lon="-2.05155">
        <ele>25.5</ele>
        <time>2020-06-04T17:41:21Z</time>
      </trkpt>
      <trkpt lat="47.09653" lon="-2.05156">
        <ele>25.4</ele>
        <time>2020-06-04T17:41:22Z</time>
      </trkpt>
      <trkpt lat="47.09652" lon="-2.05156">
        <ele>25.4</ele>
        <time>2020-06-04T17:41:23Z</time>
      </trkpt>
      <trkpt lat="47.09651" lon="-2.05157">
        <ele>25.3</ele>
        <time>2020-06-04T17:41:24Z</time>
      </trkpt>
      <trkpt lat="47.09651" lon="-2.05157">
        <ele>25.2</ele>
        <time>2020-06-04T17:41:25Z</time>
      </trkpt>
      <trkpt lat="47.0965" lon="-2.05158">
        <ele>25.2</ele>
        <time>2020-06-04T17:41:26Z</time>
      </trkpt>
      <trkpt lat="47.09648" lon="-2.05162">
        <ele>25</ele>
        <time>2020-06-04T17:41:27Z</time>
      </trkpt>
      <trkpt lat="47.09647" lon="-2.05164">
        <ele>24.8</ele>
        <time>2020-06-04T17:41:28Z</time>
      </trkpt>
      <trkpt lat="47.09646" lon="-2.05169">
        <ele>24.6</ele>
        <time>2020-06-04T17:41:29Z</time>
      </trkpt>
      <trkpt lat="47.09647" lon="-2.05174">
        <ele>25</ele>
        <time>2020-06-04T17:41:30Z</time>
      </trkpt>
      <trkpt lat="47.09648" lon="-2.05178">
        <ele>25.2</ele>
        <time>2020-06-04T17:41:31Z</time>
      </trkpt>
      <trkpt lat="47.09649" lon="-2.05183">
        <ele>25.5</ele>
        <time>2020-06-04T17:41:32Z</time>
      </trkpt>
      <trkpt lat="47.09652" lon="-2.05187">
        <ele>25.8</ele>
        <time>2020-06-04T17:41:33Z</time>
      </trkpt>
      <trkpt lat="47.09654" lon="-2.05192">
        <ele>26</ele>
        <time>2020-06-04T17:41:34Z</time>
      </trkpt>
      <trkpt lat="47.09656" lon="-2.05197">
        <ele>26.3</ele>
        <time>2020-06-04T17:41:35Z</time>
      </trkpt>
      <trkpt lat="47.0966" lon="-2.05201">
        <ele>26.5</ele>
        <time>2020-06-04T17:41:36Z</time>
      </trkpt>
      <trkpt lat="47.09663" lon="-2.05204">
        <ele>26.6</ele>
        <time>2020-06-04T17:41:37Z</time>
      </trkpt>
      <trkpt lat="47.09666" lon="-2.05208">
        <ele>26.7</ele>
        <time>2020-06-04T17:41:38Z</time>
      </trkpt>
      <trkpt lat="47.09668" lon="-2.05212">
        <ele>26.8</ele>
        <time>2020-06-04T17:41:39Z</time>
      </trkpt>
      <trkpt lat="47.0967" lon="-2.05216">
        <ele>26.9</ele>
        <time>2020-06-04T17:41:40Z</time>
      </trkpt>
      <trkpt lat="47.09672" lon="-2.0522">
        <ele>27</ele>
        <time>2020-06-04T17:41:41Z</time>
      </trkpt>
      <trkpt lat="47.09675" lon="-2.05224">
        <ele>27</ele>
        <time>2020-06-04T17:41:42Z</time>
      </trkpt>
      <trkpt lat="47.09677" lon="-2.05227">
        <ele>27.1</ele>
        <time>2020-06-04T17:41:43Z</time>
      </trkpt>
      <trkpt lat="47.09681" lon="-2.05228">
        <ele>27.1</ele>
        <time>2020-06-04T17:41:44Z</time>
      </trkpt>
      <trkpt lat="47.09682" lon="-2.05228">
        <ele>27.1</ele>
        <time>2020-06-04T17:41:45Z</time>
      </trkpt>
      <trkpt lat="47.09685" lon="-2.05227">
        <ele>27.4</ele>
        <time>2020-06-04T17:41:46Z</time>
      </trkpt>
      <trkpt lat="47.09686" lon="-2.05226">
        <ele>27.5</ele>
        <time>2020-06-04T17:41:47Z</time>
      </trkpt>
      <trkpt lat="47.0969" lon="-2.05223">
        <ele>27.6</ele>
        <time>2020-06-04T17:41:48Z</time>
      </trkpt>
      <trkpt lat="47.09691" lon="-2.05222">
        <ele>27.6</ele>
        <time>2020-06-04T17:41:49Z</time>
      </trkpt>
      <trkpt lat="47.09694" lon="-2.0522">
        <ele>27.7</ele>
        <time>2020-06-04T17:41:50Z</time>
      </trkpt>
      <trkpt lat="47.09697" lon="-2.05216">
        <ele>27.9</ele>
        <time>2020-06-04T17:41:51Z</time>
      </trkpt>
      <trkpt lat="47.09699" lon="-2.05215">
        <ele>27.9</ele>
        <time>2020-06-04T17:41:52Z</time>
      </trkpt>
      <trkpt lat="47.09702" lon="-2.05213">
        <ele>28</ele>
        <time>2020-06-04T17:41:53Z</time>
      </trkpt>
      <trkpt lat="47.09705" lon="-2.05211">
        <ele>28.1</ele>
        <time>2020-06-04T17:41:54Z</time>
      </trkpt>
      <trkpt lat="47.09707" lon="-2.05209">
        <ele>28.2</ele>
        <time>2020-06-04T17:41:55Z</time>
      </trkpt>
      <trkpt lat="47.0971" lon="-2.05206">
        <ele>28.3</ele>
        <time>2020-06-04T17:41:56Z</time>
      </trkpt>
      <trkpt lat="47.09712" lon="-2.05204">
        <ele>28.4</ele>
        <time>2020-06-04T17:41:57Z</time>
      </trkpt>
      <trkpt lat="47.09714" lon="-2.05201">
        <ele>28.4</ele>
        <time>2020-06-04T17:41:58Z</time>
      </trkpt>
      <trkpt lat="47.09715" lon="-2.05199">
        <ele>28.5</ele>
        <time>2020-06-04T17:41:59Z</time>
      </trkpt>
      <trkpt lat="47.09714" lon="-2.05197">
        <ele>28.5</ele>
        <time>2020-06-04T17:42:00Z</time>
      </trkpt>
      <trkpt lat="47.09714" lon="-2.05196">
        <ele>28.5</ele>
        <time>2020-06-04T17:42:01Z</time>
      </trkpt>
      <trkpt lat="47.09715" lon="-2.05195">
        <ele>28.6</ele>
        <time>2020-06-04T17:42:02Z</time>
      </trkpt>
      <trkpt lat="47.09715" lon="-2.05195">
        <ele>28.6</ele>
        <time>2020-06-04T17:42:03Z</time>
      </trkpt>
      <trkpt lat="47.09715" lon="-2.05194">
        <ele>28.6</ele>
        <time>2020-06-04T17:42:04Z</time>
      </trkpt>
      <trkpt lat="47.09715" lon="-2.05196">
        <ele>28.6</ele>
        <time>2020-06-04T17:42:05Z</time>
      </trkpt>
      <trkpt lat="47.09715" lon="-2.05198">
        <ele>28.7</ele>
        <time>2020-06-04T17:42:06Z</time>
      </trkpt>
      <trkpt lat="47.09716" lon="-2.052">
        <ele>28.7</ele>
        <time>2020-06-04T17:42:07Z</time>
      </trkpt>
      <trkpt lat="47.09718" lon="-2.05201">
        <ele>28.8</ele>
        <time>2020-06-04T17:42:08Z</time>
      </trkpt>
      <trkpt lat="47.09719" lon="-2.052">
        <ele>28.9</ele>
        <time>2020-06-04T17:42:09Z</time>
      </trkpt>
      <trkpt lat="47.09722" lon="-2.052">
        <ele>29</ele>
        <time>2020-06-04T17:42:10Z</time>
      </trkpt>
      <trkpt lat="47.09725" lon="-2.05199">
        <ele>29.1</ele>
        <time>2020-06-04T17:42:11Z</time>
      </trkpt>
      <trkpt lat="47.09729" lon="-2.05198">
        <ele>29.3</ele>
        <time>2020-06-04T17:42:12Z</time>
      </trkpt>
      <trkpt lat="47.09732" lon="-2.05197">
        <ele>29.5</ele>
        <time>2020-06-04T17:42:13Z</time>
      </trkpt>
      <trkpt lat="47.09734" lon="-2.05197">
        <ele>29.6</ele>
        <time>2020-06-04T17:42:14Z</time>
      </trkpt>
      <trkpt lat="47.09737" lon="-2.05196">
        <ele>29.8</ele>
        <time>2020-06-04T17:42:15Z</time>
      </trkpt>
      <trkpt lat="47.09741" lon="-2.05195">
        <ele>29.9</ele>
        <time>2020-06-04T17:42:16Z</time>
      </trkpt>
      <trkpt lat="47.09743" lon="-2.05193">
        <ele>30.1</ele>
        <time>2020-06-04T17:42:17Z</time>
      </trkpt>
      <trkpt lat="47.09747" lon="-2.05191">
        <ele>30.5</ele>
        <time>2020-06-04T17:42:18Z</time>
      </trkpt>
      <trkpt lat="47.0975" lon="-2.0519">
        <ele>30.5</ele>
        <time>2020-06-04T17:42:19Z</time>
      </trkpt>
      <trkpt lat="47.09751" lon="-2.05189">
        <ele>30.6</ele>
        <time>2020-06-04T17:42:20Z</time>
      </trkpt>
      <trkpt lat="47.09752" lon="-2.05188">
        <ele>30.6</ele>
        <time>2020-06-04T17:42:21Z</time>
      </trkpt>
      <trkpt lat="47.09753" lon="-2.05185">
        <ele>30.6</ele>
        <time>2020-06-04T17:42:22Z</time>
      </trkpt>
      <trkpt lat="47.09752" lon="-2.05179">
        <ele>30.6</ele>
        <time>2020-06-04T17:42:23Z</time>
      </trkpt>
      <trkpt lat="47.09752" lon="-2.05176">
        <ele>30.6</ele>
        <time>2020-06-04T17:42:24Z</time>
      </trkpt>
      <trkpt lat="47.09752" lon="-2.05171">
        <ele>30.6</ele>
        <time>2020-06-04T17:42:25Z</time>
      </trkpt>
      <trkpt lat="47.09753" lon="-2.05166">
        <ele>30.7</ele>
        <time>2020-06-04T17:42:26Z</time>
      </trkpt>
      <trkpt lat="47.09753" lon="-2.05164">
        <ele>30.7</ele>
        <time>2020-06-04T17:42:27Z</time>
      </trkpt>
      <trkpt lat="47.09754" lon="-2.05159">
        <ele>30.7</ele>
        <time>2020-06-04T17:42:28Z</time>
      </trkpt>
      <trkpt lat="47.09754" lon="-2.05157">
        <ele>30.7</ele>
        <time>2020-06-04T17:42:29Z</time>
      </trkpt>
      <trkpt lat="47.09755" lon="-2.05153">
        <ele>30.7</ele>
        <time>2020-06-04T17:42:30Z</time>
      </trkpt>
      <trkpt lat="47.09755" lon="-2.05148">
        <ele>30.7</ele>
        <time>2020-06-04T17:42:31Z</time>
      </trkpt>
      <trkpt lat="47.09754" lon="-2.05147">
        <ele>30.7</ele>
        <time>2020-06-04T17:42:32Z</time>
      </trkpt>
      <trkpt lat="47.09753" lon="-2.05146">
        <ele>30.7</ele>
        <time>2020-06-04T17:42:33Z</time>
      </trkpt>
      <trkpt lat="47.09752" lon="-2.05146">
        <ele>30.7</ele>
        <time>2020-06-04T17:42:34Z</time>
      </trkpt>
      <trkpt lat="47.09751" lon="-2.05146">
        <ele>30.7</ele>
        <time>2020-06-04T17:42:35Z</time>
      </trkpt>
      <trkpt lat="47.09748" lon="-2.05147">
        <ele>30.7</ele>
        <time>2020-06-04T17:42:36Z</time>
      </trkpt>
      <trkpt lat="47.09745" lon="-2.05147">
        <ele>30.7</ele>
        <time>2020-06-04T17:42:37Z</time>
      </trkpt>
      <trkpt lat="47.09742" lon="-2.05149">
        <ele>30.4</ele>
        <time>2020-06-04T17:42:38Z</time>
      </trkpt>
      <trkpt lat="47.09739" lon="-2.05149">
        <ele>30.3</ele>
        <time>2020-06-04T17:42:39Z</time>
      </trkpt>
      <trkpt lat="47.09738" lon="-2.05149">
        <ele>30.2</ele>
        <time>2020-06-04T17:42:40Z</time>
      </trkpt>
      <trkpt lat="47.09735" lon="-2.05147">
        <ele>30.1</ele>
        <time>2020-06-04T17:42:41Z</time>
      </trkpt>
      <trkpt lat="47.09733" lon="-2.05146">
        <ele>30</ele>
        <time>2020-06-04T17:42:42Z</time>
      </trkpt>
      <trkpt lat="47.09731" lon="-2.05143">
        <ele>29.4</ele>
        <time>2020-06-04T17:42:43Z</time>
      </trkpt>
      <trkpt lat="47.09728" lon="-2.05139">
        <ele>29.3</ele>
        <time>2020-06-04T17:42:44Z</time>
      </trkpt>
      <trkpt lat="47.09725" lon="-2.05136">
        <ele>29.3</ele>
        <time>2020-06-04T17:42:45Z</time>
      </trkpt>
      <trkpt lat="47.09723" lon="-2.05131">
        <ele>29.2</ele>
        <time>2020-06-04T17:42:46Z</time>
      </trkpt>
      <trkpt lat="47.0972" lon="-2.05128">
        <ele>29.2</ele>
        <time>2020-06-04T17:42:47Z</time>
      </trkpt>
      <trkpt lat="47.09718" lon="-2.05123">
        <ele>29.1</ele>
        <time>2020-06-04T17:42:48Z</time>
      </trkpt>
      <trkpt lat="47.09715" lon="-2.05119">
        <ele>29</ele>
        <time>2020-06-04T17:42:49Z</time>
      </trkpt>
      <trkpt lat="47.09713" lon="-2.05115">
        <ele>29</ele>
        <time>2020-06-04T17:42:50Z</time>
      </trkpt>
      <trkpt lat="47.0971" lon="-2.0511">
        <ele>28.9</ele>
        <time>2020-06-04T17:42:51Z</time>
      </trkpt>
      <trkpt lat="47.09709" lon="-2.05108">
        <ele>28.7</ele>
        <time>2020-06-04T17:42:52Z</time>
      </trkpt>
      <trkpt lat="47.09707" lon="-2.05107">
        <ele>28.6</ele>
        <time>2020-06-04T17:42:53Z</time>
      </trkpt>
      <trkpt lat="47.09705" lon="-2.05106">
        <ele>28.5</ele>
        <time>2020-06-04T17:42:54Z</time>
      </trkpt>
      <trkpt lat="47.09704" lon="-2.05106">
        <ele>28.5</ele>
        <time>2020-06-04T17:42:55Z</time>
      </trkpt>
      <trkpt lat="47.09704" lon="-2.05106">
        <ele>28.5</ele>
        <time>2020-06-04T17:42:56Z</time>
      </trkpt>
      <trkpt lat="47.09701" lon="-2.05104">
        <ele>28.3</ele>
        <time>2020-06-04T17:42:57Z</time>
      </trkpt>
      <trkpt lat="47.09698" lon="-2.05101">
        <ele>28.1</ele>
        <time>2020-06-04T17:42:58Z</time>
      </trkpt>
      <trkpt lat="47.09695" lon="-2.05098">
        <ele>27.9</ele>
        <time>2020-06-04T17:42:59Z</time>
      </trkpt>
      <trkpt lat="47.09692" lon="-2.05095">
        <ele>27.7</ele>
        <time>2020-06-04T17:43:00Z</time>
      </trkpt>
      <trkpt lat="47.0969" lon="-2.05091">
        <ele>27.3</ele>
        <time>2020-06-04T17:43:01Z</time>
      </trkpt>
      <trkpt lat="47.0969" lon="-2.05085">
        <ele>27.4</ele>
        <time>2020-06-04T17:43:02Z</time>
      </trkpt>
      <trkpt lat="47.0969" lon="-2.05083">
        <ele>27.4</ele>
        <time>2020-06-04T17:43:03Z</time>
      </trkpt>
      <trkpt lat="47.09692" lon="-2.05078">
        <ele>27.4</ele>
        <time>2020-06-04T17:43:04Z</time>
      </trkpt>
      <trkpt lat="47.09694" lon="-2.05074">
        <ele>27.5</ele>
        <time>2020-06-04T17:43:05Z</time>
      </trkpt>
      <trkpt lat="47.09696" lon="-2.05069">
        <ele>27.5</ele>
        <time>2020-06-04T17:43:06Z</time>
      </trkpt>
      <trkpt lat="47.09699" lon="-2.05063">
        <ele>27.5</ele>
        <time>2020-06-04T17:43:07Z</time>
      </trkpt>
      <trkpt lat="47.09702" lon="-2.05058">
        <ele>27.6</ele>
        <time>2020-06-04T17:43:08Z</time>
      </trkpt>
      <trkpt lat="47.09704" lon="-2.05053">
        <ele>27.6</ele>
        <time>2020-06-04T17:43:09Z</time>
      </trkpt>
      <trkpt lat="47.09706" lon="-2.05048">
        <ele>27.7</ele>
        <time>2020-06-04T17:43:10Z</time>
      </trkpt>
      <trkpt lat="47.09708" lon="-2.05042">
        <ele>27.7</ele>
        <time>2020-06-04T17:43:11Z</time>
      </trkpt>
      <trkpt lat="47.0971" lon="-2.05038">
        <ele>27.8</ele>
        <time>2020-06-04T17:43:12Z</time>
      </trkpt>
      <trkpt lat="47.09712" lon="-2.05033">
        <ele>27.8</ele>
        <time>2020-06-04T17:43:13Z</time>
      </trkpt>
      <trkpt lat="47.09714" lon="-2.05026">
        <ele>27.8</ele>
        <time>2020-06-04T17:43:14Z</time>
      </trkpt>
      <trkpt lat="47.09716" lon="-2.0502">
        <ele>27.9</ele>
        <time>2020-06-04T17:43:15Z</time>
      </trkpt>
      <trkpt lat="47.09717" lon="-2.05015">
        <ele>27.9</ele>
        <time>2020-06-04T17:43:16Z</time>
      </trkpt>
      <trkpt lat="47.09719" lon="-2.05009">
        <ele>28</ele>
        <time>2020-06-04T17:43:17Z</time>
      </trkpt>
      <trkpt lat="47.09721" lon="-2.05004">
        <ele>28</ele>
        <time>2020-06-04T17:43:18Z</time>
      </trkpt>
      <trkpt lat="47.09722" lon="-2.04999">
        <ele>28.1</ele>
        <time>2020-06-04T17:43:19Z</time>
      </trkpt>
      <trkpt lat="47.09724" lon="-2.04994">
        <ele>28.1</ele>
        <time>2020-06-04T17:43:20Z</time>
      </trkpt>
      <trkpt lat="47.09725" lon="-2.0499">
        <ele>28.1</ele>
        <time>2020-06-04T17:43:21Z</time>
      </trkpt>
      <trkpt lat="47.09727" lon="-2.04984">
        <ele>28.2</ele>
        <time>2020-06-04T17:43:22Z</time>
      </trkpt>
      <trkpt lat="47.09728" lon="-2.04979">
        <ele>28.2</ele>
        <time>2020-06-04T17:43:23Z</time>
      </trkpt>
      <trkpt lat="47.09729" lon="-2.04974">
        <ele>28.3</ele>
        <time>2020-06-04T17:43:24Z</time>
      </trkpt>
      <trkpt lat="47.09731" lon="-2.04969">
        <ele>28.3</ele>
        <time>2020-06-04T17:43:25Z</time>
      </trkpt>
      <trkpt lat="47.09732" lon="-2.04965">
        <ele>28.3</ele>
        <time>2020-06-04T17:43:26Z</time>
      </trkpt>
      <trkpt lat="47.09733" lon="-2.04961">
        <ele>28.3</ele>
        <time>2020-06-04T17:43:27Z</time>
      </trkpt>
      <trkpt lat="47.09734" lon="-2.04958">
        <ele>28.3</ele>
        <time>2020-06-04T17:43:28Z</time>
      </trkpt>
      <trkpt lat="47.09733" lon="-2.04956">
        <ele>28.3</ele>
        <time>2020-06-04T17:43:29Z</time>
      </trkpt>
      <trkpt lat="47.09732" lon="-2.04956">
        <ele>28.3</ele>
        <time>2020-06-04T17:43:30Z</time>
      </trkpt>
      <trkpt lat="47.09732" lon="-2.04955">
        <ele>28.3</ele>
        <time>2020-06-04T17:43:31Z</time>
      </trkpt>
      <trkpt lat="47.09733" lon="-2.04952">
        <ele>28.3</ele>
        <time>2020-06-04T17:43:32Z</time>
      </trkpt>
      <trkpt lat="47.09734" lon="-2.0495">
        <ele>28.4</ele>
        <time>2020-06-04T17:43:33Z</time>
      </trkpt>
      <trkpt lat="47.09735" lon="-2.04949">
        <ele>28.4</ele>
        <time>2020-06-04T17:43:34Z</time>
      </trkpt>
      <trkpt lat="47.09736" lon="-2.04948">
        <ele>28.4</ele>
        <time>2020-06-04T17:43:35Z</time>
      </trkpt>
      <trkpt lat="47.09739" lon="-2.04946">
        <ele>28.5</ele>
        <time>2020-06-04T17:43:36Z</time>
      </trkpt>
      <trkpt lat="47.0974" lon="-2.04946">
        <ele>28.5</ele>
        <time>2020-06-04T17:43:37Z</time>
      </trkpt>
      <trkpt lat="47.09743" lon="-2.04949">
        <ele>28.7</ele>
        <time>2020-06-04T17:43:38Z</time>
      </trkpt>
      <trkpt lat="47.09744" lon="-2.0495">
        <ele>28.7</ele>
        <time>2020-06-04T17:43:39Z</time>
      </trkpt>
      <trkpt lat="47.09746" lon="-2.04954">
        <ele>28.9</ele>
        <time>2020-06-04T17:43:40Z</time>
      </trkpt>
      <trkpt lat="47.09748" lon="-2.04957">
        <ele>29</ele>
        <time>2020-06-04T17:43:41Z</time>
      </trkpt>
      <trkpt lat="47.09751" lon="-2.04961">
        <ele>29.2</ele>
        <time>2020-06-04T17:43:42Z</time>
      </trkpt>
      <trkpt lat="47.09754" lon="-2.04965">
        <ele>29.3</ele>
        <time>2020-06-04T17:43:43Z</time>
      </trkpt>
      <trkpt lat="47.09756" lon="-2.04969">
        <ele>29.5</ele>
        <time>2020-06-04T17:43:44Z</time>
      </trkpt>
      <trkpt lat="47.09759" lon="-2.04973">
        <ele>29.6</ele>
        <time>2020-06-04T17:43:45Z</time>
      </trkpt>
      <trkpt lat="47.09761" lon="-2.04976">
        <ele>29.8</ele>
        <time>2020-06-04T17:43:46Z</time>
      </trkpt>
      <trkpt lat="47.09764" lon="-2.0498">
        <ele>29.9</ele>
        <time>2020-06-04T17:43:47Z</time>
      </trkpt>
      <trkpt lat="47.09766" lon="-2.04984">
        <ele>30.1</ele>
        <time>2020-06-04T17:43:48Z</time>
      </trkpt>
      <trkpt lat="47.09768" lon="-2.04988">
        <ele>30.2</ele>
        <time>2020-06-04T17:43:49Z</time>
      </trkpt>
      <trkpt lat="47.09771" lon="-2.04993">
        <ele>30.4</ele>
        <time>2020-06-04T17:43:50Z</time>
      </trkpt>
      <trkpt lat="47.09773" lon="-2.04997">
        <ele>30.6</ele>
        <time>2020-06-04T17:43:51Z</time>
      </trkpt>
      <trkpt lat="47.09776" lon="-2.05">
        <ele>30.7</ele>
        <time>2020-06-04T17:43:52Z</time>
      </trkpt>
      <trkpt lat="47.09778" lon="-2.05003">
        <ele>30.9</ele>
        <time>2020-06-04T17:43:53Z</time>
      </trkpt>
      <trkpt lat="47.0978" lon="-2.05007">
        <ele>31</ele>
        <time>2020-06-04T17:43:54Z</time>
      </trkpt>
      <trkpt lat="47.09783" lon="-2.05011">
        <ele>31.2</ele>
        <time>2020-06-04T17:43:55Z</time>
      </trkpt>
      <trkpt lat="47.09785" lon="-2.05014">
        <ele>31.3</ele>
        <time>2020-06-04T17:43:56Z</time>
      </trkpt>
      <trkpt lat="47.09788" lon="-2.05017">
        <ele>31.5</ele>
        <time>2020-06-04T17:43:57Z</time>
      </trkpt>
      <trkpt lat="47.0979" lon="-2.0502">
        <ele>31.6</ele>
        <time>2020-06-04T17:43:58Z</time>
      </trkpt>
      <trkpt lat="47.09792" lon="-2.05023">
        <ele>31.7</ele>
        <time>2020-06-04T17:43:59Z</time>
      </trkpt>
      <trkpt lat="47.09794" lon="-2.05025">
        <ele>31.7</ele>
        <time>2020-06-04T17:44:00Z</time>
      </trkpt>
      <trkpt lat="47.09794" lon="-2.05026">
        <ele>31.7</ele>
        <time>2020-06-04T17:44:01Z</time>
      </trkpt>
      <trkpt lat="47.09791" lon="-2.0503">
        <ele>31.6</ele>
        <time>2020-06-04T17:44:02Z</time>
      </trkpt>
      <trkpt lat="47.0979" lon="-2.05032">
        <ele>31.6</ele>
        <time>2020-06-04T17:44:03Z</time>
      </trkpt>
      <trkpt lat="47.09788" lon="-2.05037">
        <ele>31.6</ele>
        <time>2020-06-04T17:44:04Z</time>
      </trkpt>
      <trkpt lat="47.09786" lon="-2.05043">
        <ele>31.6</ele>
        <time>2020-06-04T17:44:05Z</time>
      </trkpt>
      <trkpt lat="47.09785" lon="-2.05048">
        <ele>31.6</ele>
        <time>2020-06-04T17:44:06Z</time>
      </trkpt>
      <trkpt lat="47.09783" lon="-2.05053">
        <ele>31.6</ele>
        <time>2020-06-04T17:44:07Z</time>
      </trkpt>
      <trkpt lat="47.09779" lon="-2.05058">
        <ele>31.6</ele>
        <time>2020-06-04T17:44:08Z</time>
      </trkpt>
      <trkpt lat="47.09778" lon="-2.05063">
        <ele>31.5</ele>
        <time>2020-06-04T17:44:09Z</time>
      </trkpt>
      <trkpt lat="47.09776" lon="-2.05068">
        <ele>31.5</ele>
        <time>2020-06-04T17:44:10Z</time>
      </trkpt>
      <trkpt lat="47.09773" lon="-2.05073">
        <ele>31.5</ele>
        <time>2020-06-04T17:44:11Z</time>
      </trkpt>
      <trkpt lat="47.09771" lon="-2.05078">
        <ele>31.4</ele>
        <time>2020-06-04T17:44:12Z</time>
      </trkpt>
      <trkpt lat="47.09768" lon="-2.05083">
        <ele>31.4</ele>
        <time>2020-06-04T17:44:13Z</time>
      </trkpt>
      <trkpt lat="47.09766" lon="-2.05089">
        <ele>31.3</ele>
        <time>2020-06-04T17:44:14Z</time>
      </trkpt>
      <trkpt lat="47.09763" lon="-2.05095">
        <ele>31.3</ele>
        <time>2020-06-04T17:44:15Z</time>
      </trkpt>
      <trkpt lat="47.09761" lon="-2.05101">
        <ele>31.2</ele>
        <time>2020-06-04T17:44:16Z</time>
      </trkpt>
      <trkpt lat="47.09759" lon="-2.05107">
        <ele>31.1</ele>
        <time>2020-06-04T17:44:17Z</time>
      </trkpt>
      <trkpt lat="47.09757" lon="-2.05113">
        <ele>31</ele>
        <time>2020-06-04T17:44:18Z</time>
      </trkpt>
      <trkpt lat="47.09755" lon="-2.05118">
        <ele>30.9</ele>
        <time>2020-06-04T17:44:19Z</time>
      </trkpt>
      <trkpt lat="47.09754" lon="-2.05124">
        <ele>30.9</ele>
        <time>2020-06-04T17:44:20Z</time>
      </trkpt>
      <trkpt lat="47.09753" lon="-2.05129">
        <ele>30.9</ele>
        <time>2020-06-04T17:44:21Z</time>
      </trkpt>
      <trkpt lat="47.09753" lon="-2.05134">
        <ele>30.8</ele>
        <time>2020-06-04T17:44:22Z</time>
      </trkpt>
      <trkpt lat="47.09752" lon="-2.05138">
        <ele>30.8</ele>
        <time>2020-06-04T17:44:23Z</time>
      </trkpt>
      <trkpt lat="47.09752" lon="-2.05145">
        <ele>30.7</ele>
        <time>2020-06-04T17:44:24Z</time>
      </trkpt>
      <trkpt lat="47.09751" lon="-2.05145">
        <ele>30.7</ele>
        <time>2020-06-04T17:44:25Z</time>
      </trkpt>
      <trkpt lat="47.09751" lon="-2.05148">
        <ele>30.7</ele>
        <time>2020-06-04T17:44:26Z</time>
      </trkpt>
      <trkpt lat="47.0975" lon="-2.05147">
        <ele>30.7</ele>
        <time>2020-06-04T17:44:27Z</time>
      </trkpt>
      <trkpt lat="47.0975" lon="-2.05147">
        <ele>30.7</ele>
        <time>2020-06-04T17:44:28Z</time>
      </trkpt>
      <trkpt lat="47.0975" lon="-2.05147">
        <ele>30.7</ele>
        <time>2020-06-04T17:44:29Z</time>
      </trkpt>
      <trkpt lat="47.09749" lon="-2.05148">
        <ele>30.7</ele>
        <time>2020-06-04T17:44:30Z</time>
      </trkpt>
      <trkpt lat="47.09749" lon="-2.05149">
        <ele>30.7</ele>
        <time>2020-06-04T17:44:31Z</time>
      </trkpt>
      <trkpt lat="47.09749" lon="-2.05151">
        <ele>30.7</ele>
        <time>2020-06-04T17:44:32Z</time>
      </trkpt>
      <trkpt lat="47.09749" lon="-2.05152">
        <ele>30.7</ele>
        <time>2020-06-04T17:44:33Z</time>
      </trkpt>
      <trkpt lat="47.09749" lon="-2.05154">
        <ele>30.7</ele>
        <time>2020-06-04T17:44:34Z</time>
      </trkpt>
      <trkpt lat="47.09749" lon="-2.05155">
        <ele>30.7</ele>
        <time>2020-06-04T17:44:35Z</time>
      </trkpt>
      <trkpt lat="47.09748" lon="-2.05157">
        <ele>30.7</ele>
        <time>2020-06-04T17:44:36Z</time>
      </trkpt>
      <trkpt lat="47.09748" lon="-2.05158">
        <ele>30.7</ele>
        <time>2020-06-04T17:44:37Z</time>
      </trkpt>
      <trkpt lat="47.09748" lon="-2.05159">
        <ele>30.7</ele>
        <time>2020-06-04T17:44:39Z</time>
      </trkpt>
      <trkpt lat="47.09748" lon="-2.05161">
        <ele>30.7</ele>
        <time>2020-06-04T17:44:40Z</time>
      </trkpt>
      <trkpt lat="47.09747" lon="-2.05165">
        <ele>30.6</ele>
        <time>2020-06-04T17:44:41Z</time>
      </trkpt>
      <trkpt lat="47.09747" lon="-2.0517">
        <ele>30.6</ele>
        <time>2020-06-04T17:44:42Z</time>
      </trkpt>
      <trkpt lat="47.09747" lon="-2.05174">
        <ele>30.6</ele>
        <time>2020-06-04T17:44:43Z</time>
      </trkpt>
      <trkpt lat="47.09747" lon="-2.05179">
        <ele>30.6</ele>
        <time>2020-06-04T17:44:44Z</time>
      </trkpt>
      <trkpt lat="47.09747" lon="-2.05185">
        <ele>30.6</ele>
        <time>2020-06-04T17:44:45Z</time>
      </trkpt>
      <trkpt lat="47.09747" lon="-2.0519">
        <ele>30.5</ele>
        <time>2020-06-04T17:44:46Z</time>
      </trkpt>
      <trkpt lat="47.09749" lon="-2.05194">
        <ele>30.5</ele>
        <time>2020-06-04T17:44:47Z</time>
      </trkpt>
      <trkpt lat="47.0975" lon="-2.05199">
        <ele>30.6</ele>
        <time>2020-06-04T17:44:48Z</time>
      </trkpt>
      <trkpt lat="47.0975" lon="-2.05203">
        <ele>30.6</ele>
        <time>2020-06-04T17:44:49Z</time>
      </trkpt>
      <trkpt lat="47.09751" lon="-2.05208">
        <ele>30.7</ele>
        <time>2020-06-04T17:44:50Z</time>
      </trkpt>
      <trkpt lat="47.09751" lon="-2.05213">
        <ele>30.7</ele>
        <time>2020-06-04T17:44:51Z</time>
      </trkpt>
      <trkpt lat="47.09751" lon="-2.05215">
        <ele>30.7</ele>
        <time>2020-06-04T17:44:52Z</time>
      </trkpt>
      <trkpt lat="47.09752" lon="-2.0522">
        <ele>30.8</ele>
        <time>2020-06-04T17:44:53Z</time>
      </trkpt>
      <trkpt lat="47.09755" lon="-2.05224">
        <ele>30.8</ele>
        <time>2020-06-04T17:44:54Z</time>
      </trkpt>
      <trkpt lat="47.09755" lon="-2.05226">
        <ele>30.8</ele>
        <time>2020-06-04T17:44:55Z</time>
      </trkpt>
      <trkpt lat="47.09756" lon="-2.05231">
        <ele>30.9</ele>
        <time>2020-06-04T17:44:56Z</time>
      </trkpt>
      <trkpt lat="47.09757" lon="-2.05235">
        <ele>31</ele>
        <time>2020-06-04T17:44:57Z</time>
      </trkpt>
      <trkpt lat="47.09758" lon="-2.05239">
        <ele>31.1</ele>
        <time>2020-06-04T17:44:58Z</time>
      </trkpt>
      <trkpt lat="47.0976" lon="-2.05244">
        <ele>31.2</ele>
        <time>2020-06-04T17:44:59Z</time>
      </trkpt>
      <trkpt lat="47.09761" lon="-2.05249">
        <ele>31.3</ele>
        <time>2020-06-04T17:45:00Z</time>
      </trkpt>
      <trkpt lat="47.09763" lon="-2.05253">
        <ele>31.3</ele>
        <time>2020-06-04T17:45:01Z</time>
      </trkpt>
      <trkpt lat="47.09764" lon="-2.05257">
        <ele>31.4</ele>
        <time>2020-06-04T17:45:02Z</time>
      </trkpt>
      <trkpt lat="47.09765" lon="-2.05261">
        <ele>31.5</ele>
        <time>2020-06-04T17:45:03Z</time>
      </trkpt>
      <trkpt lat="47.09765" lon="-2.05267">
        <ele>31.6</ele>
        <time>2020-06-04T17:45:04Z</time>
      </trkpt>
      <trkpt lat="47.09766" lon="-2.05269">
        <ele>31.6</ele>
        <time>2020-06-04T17:45:05Z</time>
      </trkpt>
      <trkpt lat="47.09766" lon="-2.05273">
        <ele>31.7</ele>
        <time>2020-06-04T17:45:06Z</time>
      </trkpt>
      <trkpt lat="47.09766" lon="-2.05277">
        <ele>31.7</ele>
        <time>2020-06-04T17:45:07Z</time>
      </trkpt>
      <trkpt lat="47.09766" lon="-2.05282">
        <ele>31.8</ele>
        <time>2020-06-04T17:45:08Z</time>
      </trkpt>
      <trkpt lat="47.09765" lon="-2.05284">
        <ele>31.8</ele>
        <time>2020-06-04T17:45:09Z</time>
      </trkpt>
      <trkpt lat="47.09763" lon="-2.05286">
        <ele>31.9</ele>
        <time>2020-06-04T17:45:10Z</time>
      </trkpt>
      <trkpt lat="47.0976" lon="-2.05287">
        <ele>31.9</ele>
        <time>2020-06-04T17:45:11Z</time>
      </trkpt>
      <trkpt lat="47.09757" lon="-2.05288">
        <ele>32</ele>
        <time>2020-06-04T17:45:12Z</time>
      </trkpt>
      <trkpt lat="47.09756" lon="-2.05288">
        <ele>31.9</ele>
        <time>2020-06-04T17:45:13Z</time>
      </trkpt>
      <trkpt lat="47.09754" lon="-2.0529">
        <ele>31.9</ele>
        <time>2020-06-04T17:45:14Z</time>
      </trkpt>
      <trkpt lat="47.09753" lon="-2.05291">
        <ele>31.9</ele>
        <time>2020-06-04T17:45:15Z</time>
      </trkpt>
      <trkpt lat="47.0975" lon="-2.05293">
        <ele>31.9</ele>
        <time>2020-06-04T17:45:16Z</time>
      </trkpt>
      <trkpt lat="47.0975" lon="-2.05293">
        <ele>31.9</ele>
        <time>2020-06-04T17:45:17Z</time>
      </trkpt>
      <trkpt lat="47.09748" lon="-2.05293">
        <ele>31.9</ele>
        <time>2020-06-04T17:45:18Z</time>
      </trkpt>
      <trkpt lat="47.09747" lon="-2.05293">
        <ele>31.9</ele>
        <time>2020-06-04T17:45:19Z</time>
      </trkpt>
      <trkpt lat="47.09745" lon="-2.05295">
        <ele>31.9</ele>
        <time>2020-06-04T17:45:20Z</time>
      </trkpt>
      <trkpt lat="47.09744" lon="-2.05296">
        <ele>31.9</ele>
        <time>2020-06-04T17:45:21Z</time>
      </trkpt>
      <trkpt lat="47.09741" lon="-2.05297">
        <ele>31.9</ele>
        <time>2020-06-04T17:45:22Z</time>
      </trkpt>
      <trkpt lat="47.0974" lon="-2.05298">
        <ele>31.9</ele>
        <time>2020-06-04T17:45:23Z</time>
      </trkpt>
      <trkpt lat="47.09739" lon="-2.05298">
        <ele>31.9</ele>
        <time>2020-06-04T17:45:24Z</time>
      </trkpt>
      <trkpt lat="47.09737" lon="-2.05298">
        <ele>31.9</ele>
        <time>2020-06-04T17:45:25Z</time>
      </trkpt>
      <trkpt lat="47.09735" lon="-2.05298">
        <ele>31.9</ele>
        <time>2020-06-04T17:45:26Z</time>
      </trkpt>
      <trkpt lat="47.09735" lon="-2.05299">
        <ele>31.9</ele>
        <time>2020-06-04T17:45:27Z</time>
      </trkpt>
      <trkpt lat="47.09735" lon="-2.05301">
        <ele>31.9</ele>
        <time>2020-06-04T17:45:28Z</time>
      </trkpt>
      <trkpt lat="47.09735" lon="-2.05301">
        <ele>31.9</ele>
        <time>2020-06-04T17:45:29Z</time>
      </trkpt>
      <trkpt lat="47.09734" lon="-2.05301">
        <ele>31.9</ele>
        <time>2020-06-04T17:45:30Z</time>
      </trkpt>
      <trkpt lat="47.09733" lon="-2.05301">
        <ele>31.9</ele>
        <time>2020-06-04T17:45:31Z</time>
      </trkpt>
      <trkpt lat="47.09733" lon="-2.05301">
        <ele>31.9</ele>
        <time>2020-06-04T17:45:32Z</time>
      </trkpt>
      <trkpt lat="47.09732" lon="-2.05301">
        <ele>31.9</ele>
        <time>2020-06-04T17:45:33Z</time>
      </trkpt>
      <trkpt lat="47.09731" lon="-2.05301">
        <ele>31.9</ele>
        <time>2020-06-04T17:45:34Z</time>
      </trkpt>
      <trkpt lat="47.09732" lon="-2.05302">
        <ele>31.9</ele>
        <time>2020-06-04T17:45:35Z</time>
      </trkpt>
      <trkpt lat="47.09732" lon="-2.05302">
        <ele>31.9</ele>
        <time>2020-06-04T17:45:36Z</time>
      </trkpt>
      <trkpt lat="47.09732" lon="-2.05302">
        <ele>31.9</ele>
        <time>2020-06-04T17:45:37Z</time>
      </trkpt>
      <trkpt lat="47.09732" lon="-2.05303">
        <ele>31.9</ele>
        <time>2020-06-04T17:45:38Z</time>
      </trkpt>
      <trkpt lat="47.09732" lon="-2.05303">
        <ele>31.9</ele>
        <time>2020-06-04T17:45:39Z</time>
      </trkpt>
      <trkpt lat="47.09732" lon="-2.05303">
        <ele>31.9</ele>
        <time>2020-06-04T17:45:40Z</time>
      </trkpt>
      <trkpt lat="47.09732" lon="-2.05301">
        <ele>31.9</ele>
        <time>2020-06-04T17:45:41Z</time>
      </trkpt>
      <trkpt lat="47.09732" lon="-2.05302">
        <ele>31.9</ele>
        <time>2020-06-04T17:45:42Z</time>
      </trkpt>
      <trkpt lat="47.09733" lon="-2.05302">
        <ele>31.9</ele>
        <time>2020-06-04T17:45:43Z</time>
      </trkpt>
      <trkpt lat="47.09732" lon="-2.05302">
        <ele>31.9</ele>
        <time>2020-06-04T17:45:44Z</time>
      </trkpt>
      <trkpt lat="47.09732" lon="-2.05301">
        <ele>31.9</ele>
        <time>2020-06-04T17:45:45Z</time>
      </trkpt>
      <trkpt lat="47.09732" lon="-2.05302">
        <ele>31.9</ele>
        <time>2020-06-04T17:45:46Z</time>
      </trkpt>
      <trkpt lat="47.09733" lon="-2.05302">
        <ele>31.9</ele>
        <time>2020-06-04T17:45:47Z</time>
      </trkpt>
      <trkpt lat="47.09733" lon="-2.05302">
        <ele>31.9</ele>
        <time>2020-06-04T17:45:48Z</time>
      </trkpt>
      <trkpt lat="47.09733" lon="-2.05302">
        <ele>31.9</ele>
        <time>2020-06-04T17:45:49Z</time>
      </trkpt>
    </trkseg>
  </trk>
</gpx>